<?xml version='1.0' encoding='UTF-8'?><gpx version="1.1" creator="JPX - https://github.com/jenetics/jpx" xmlns="http://www.topografix.com/GPX/1/1"><trk><trkseg><trkpt lat="45.896062728288165" lon="13.381264212110015"><ele>25.999999999999996</ele><time>2026-04-01T14:18:08.999Z</time></trkpt><trkpt lat="45.8959973722483" lon="13.38128305665673"><ele>26.0</ele><time>2026-04-01T14:18:11.999Z</time></trkpt><trkpt lat="45.89592089571067" lon="13.381324838126103"><ele>26.0</ele><time>2026-04-01T14:18:15.999Z</time></trkpt><trkpt lat="45.89587137126689" lon="13.381386292918492"><ele>26.0</ele><time>2026-04-01T14:18:16.999Z</time></trkpt><trkpt lat="45.895859660710066" lon="13.381497360034851"><ele>25.999999999999996</ele><time>2026-04-01T14:18:18.999Z</time></trkpt><trkpt lat="45.89584384642744" lon="13.38160947851751"><ele>26.0</ele><time>2026-04-01T14:18:20.999Z</time></trkpt><trkpt lat="45.895813696100014" lon="13.381718773442627"><ele>26.166666666666664</ele><time>2026-04-01T14:18:22.999Z</time></trkpt><trkpt lat="45.895790243214535" lon="13.38181962622063"><ele>26.333333333333332</ele><time>2026-04-01T14:18:24.999Z</time></trkpt><trkpt lat="45.89576350267382" lon="13.381927777253072"><ele>26.5</ele><time>2026-04-01T14:18:27.999Z</time></trkpt><trkpt lat="45.89578545211" lon="13.3820162238588"><ele>26.666666666666664</ele><time>2026-04-01T14:25:32.999Z</time></trkpt><trkpt lat="45.89580325357278" lon="13.381896638267326"><ele>26.833333333333332</ele><time>2026-04-01T14:25:42.999Z</time></trkpt><trkpt lat="45.89581655421644" lon="13.381768357222544"><ele>27.0</ele><time>2026-04-01T14:25:44.999Z</time></trkpt><trkpt lat="45.895840308328445" lon="13.381657832612788"><ele>27.0</ele><time>2026-04-01T14:25:46.999Z</time></trkpt><trkpt lat="45.89586313995813" lon="13.381543521423183"><ele>27.0</ele><time>2026-04-01T14:25:48.999Z</time></trkpt><trkpt lat="45.89589000558672" lon="13.381433773601769"><ele>27.0</ele><time>2026-04-01T14:25:50.999Z</time></trkpt><trkpt lat="45.8959141328771" lon="13.381340390952012"><ele>27.0</ele><time>2026-04-01T14:25:52.999Z</time></trkpt><trkpt lat="45.895953987887104" lon="13.38126012045306"><ele>27.0</ele><time>2026-04-01T14:25:56.999Z</time></trkpt><trkpt lat="45.8960154632512" lon="13.381235860652918"><ele>27.0</ele><time>2026-04-01T14:26:32.999Z</time></trkpt><trkpt lat="45.895951113822" lon="13.38125383261305"><ele>27.0</ele><time>2026-04-01T14:26:47.999Z</time></trkpt><trkpt lat="45.89592936900687" lon="13.381140074332976"><ele>26.833333333333332</ele><time>2026-04-01T14:28:09.999Z</time></trkpt><trkpt lat="45.89595862255407" lon="13.381023963892542"><ele>26.666666666666664</ele><time>2026-04-01T14:28:11.999Z</time></trkpt><trkpt lat="45.89598297815188" lon="13.38092787067349"><ele>26.5</ele><time>2026-04-01T14:28:13.999Z</time></trkpt><trkpt lat="45.896007634521766" lon="13.38082452400234"><ele>26.333333333333332</ele><time>2026-04-01T14:28:15.999Z</time></trkpt><trkpt lat="45.89603684666605" lon="13.380725255706544"><ele>26.166666666666664</ele><time>2026-04-01T14:28:17.999Z</time></trkpt><trkpt lat="45.89606596818857" lon="13.380609892091256"><ele>26.0</ele><time>2026-04-01T14:28:19.999Z</time></trkpt><trkpt lat="45.89606145607303" lon="13.380511522233673"><ele>26.0</ele><time>2026-04-01T14:28:21.999Z</time></trkpt><trkpt lat="45.89598733603264" lon="13.380437154179829"><ele>26.0</ele><time>2026-04-01T14:28:23.999Z</time></trkpt><trkpt lat="45.895911147985515" lon="13.380408045829801"><ele>26.0</ele><time>2026-04-01T14:28:24.999Z</time></trkpt><trkpt lat="45.89580430190339" lon="13.380344467449072"><ele>26.0</ele><time>2026-04-01T14:28:25.999Z</time></trkpt><trkpt lat="45.89568280435131" lon="13.380267517435309"><ele>26.0</ele><time>2026-04-01T14:28:26.999Z</time></trkpt><trkpt lat="45.89557794961562" lon="13.380201222898101"><ele>25.666666666666664</ele><time>2026-04-01T14:28:27.999Z</time></trkpt><trkpt lat="45.89550163848812" lon="13.380156151816514"><ele>25.333333333333332</ele><time>2026-04-01T14:28:29Z</time></trkpt><trkpt lat="45.89544241457579" lon="13.380121384346879"><ele>25.0</ele><time>2026-04-01T14:28:30Z</time></trkpt><trkpt lat="45.89538087910314" lon="13.380085182015248"><ele>24.666666666666664</ele><time>2026-04-01T14:28:32Z</time></trkpt><trkpt lat="45.89528957215188" lon="13.380118026153436"><ele>24.333333333333332</ele><time>2026-04-01T14:28:37Z</time></trkpt><trkpt lat="45.895267789018014" lon="13.380209457610746"><ele>24.0</ele><time>2026-04-01T14:28:38Z</time></trkpt><trkpt lat="45.89525407700021" lon="13.380319844468012"><ele>24.0</ele><time>2026-04-01T14:28:39Z</time></trkpt><trkpt lat="45.89523064468895" lon="13.380430459702787"><ele>24.0</ele><time>2026-04-01T14:28:40Z</time></trkpt><trkpt lat="45.89520617688037" lon="13.380541311336264"><ele>24.0</ele><time>2026-04-01T14:28:41Z</time></trkpt><trkpt lat="45.89517614679471" lon="13.380650098113225"><ele>24.0</ele><time>2026-04-01T14:28:42Z</time></trkpt><trkpt lat="45.89514362056069" lon="13.380770569816674"><ele>24.0</ele><time>2026-04-01T14:28:43Z</time></trkpt><trkpt lat="45.89511496047425" lon="13.380895734985495"><ele>24.0</ele><time>2026-04-01T14:28:44Z</time></trkpt><trkpt lat="45.895090422754706" lon="13.381022038385508"><ele>24.2</ele><time>2026-04-01T14:28:45Z</time></trkpt><trkpt lat="45.89505703369259" lon="13.381131562720013"><ele>24.4</ele><time>2026-04-01T14:28:46Z</time></trkpt><trkpt lat="45.89502602486858" lon="13.381248233955164"><ele>24.6</ele><time>2026-04-01T14:28:47Z</time></trkpt><trkpt lat="45.89499477900185" lon="13.381373824104488"><ele>24.8</ele><time>2026-04-01T14:28:48Z</time></trkpt><trkpt lat="45.89495999359203" lon="13.381505567806014"><ele>25.0</ele><time>2026-04-01T14:28:49Z</time></trkpt><trkpt lat="45.89493069857956" lon="13.381639820543597"><ele>25.000000000000004</ele><time>2026-04-01T14:28:50Z</time></trkpt><trkpt lat="45.89490058608724" lon="13.381759305403838"><ele>25.0</ele><time>2026-04-01T14:28:51Z</time></trkpt><trkpt lat="45.894875594316176" lon="13.381870767035108"><ele>25.0</ele><time>2026-04-01T14:28:52Z</time></trkpt><trkpt lat="45.89484800990291" lon="13.381991920348804"><ele>25.0</ele><time>2026-04-01T14:28:53Z</time></trkpt><trkpt lat="45.89481909612709" lon="13.382111813938005"><ele>25.000000000000004</ele><time>2026-04-01T14:28:54Z</time></trkpt><trkpt lat="45.89479367797607" lon="13.382212360833929"><ele>25.0</ele><time>2026-04-01T14:28:55Z</time></trkpt><trkpt lat="45.89476104331149" lon="13.38234945197916"><ele>25.2</ele><time>2026-04-01T14:28:57Z</time></trkpt><trkpt lat="45.89476282225662" lon="13.382452488039796"><ele>25.4</ele><time>2026-04-01T14:29:01Z</time></trkpt><trkpt lat="45.894857456260155" lon="13.38252087723165"><ele>25.6</ele><time>2026-04-01T14:29:04Z</time></trkpt><trkpt lat="45.894949103406645" lon="13.382478048737232"><ele>25.8</ele><time>2026-04-01T14:29:04.999Z</time></trkpt><trkpt lat="45.895060886166966" lon="13.38240631848498"><ele>26.0</ele><time>2026-04-01T14:29:05.999Z</time></trkpt><trkpt lat="45.895197387984105" lon="13.382349668476401"><ele>26.0</ele><time>2026-04-01T14:29:06.999Z</time></trkpt><trkpt lat="45.89533633367989" lon="13.3822911222097"><ele>26.0</ele><time>2026-04-01T14:29:07.999Z</time></trkpt><trkpt lat="45.895456949661614" lon="13.38223862978767"><ele>26.0</ele><time>2026-04-01T14:29:09Z</time></trkpt><trkpt lat="45.89557550146991" lon="13.382186677138538"><ele>26.0</ele><time>2026-04-01T14:29:10Z</time></trkpt><trkpt lat="45.89572307684102" lon="13.382125481819068"><ele>26.0</ele><time>2026-04-01T14:29:11Z</time></trkpt><trkpt lat="45.89588819121016" lon="13.382059907661846"><ele>26.0</ele><time>2026-04-01T14:29:12Z</time></trkpt><trkpt lat="45.896054025300494" lon="13.381984990403598"><ele>26.0</ele><time>2026-04-01T14:29:13Z</time></trkpt><trkpt lat="45.89620995147671" lon="13.381913000932459"><ele>26.0</ele><time>2026-04-01T14:29:14Z</time></trkpt><trkpt lat="45.896360602836616" lon="13.381844329212987"><ele>26.0</ele><time>2026-04-01T14:29:15Z</time></trkpt><trkpt lat="45.89651209831859" lon="13.381781387780478"><ele>26.0</ele><time>2026-04-01T14:29:16Z</time></trkpt><trkpt lat="45.89665603447112" lon="13.381717642758518"><ele>26.0</ele><time>2026-04-01T14:29:17Z</time></trkpt><trkpt lat="45.89680497800629" lon="13.381648365105434"><ele>26.0</ele><time>2026-04-01T14:29:18Z</time></trkpt><trkpt lat="45.89696910097005" lon="13.381572427258684"><ele>26.0</ele><time>2026-04-01T14:29:19Z</time></trkpt><trkpt lat="45.89713303026235" lon="13.381498746210934"><ele>26.0</ele><time>2026-04-01T14:29:20Z</time></trkpt><trkpt lat="45.89729146085587" lon="13.381432184185709"><ele>26.0</ele><time>2026-04-01T14:29:21Z</time></trkpt><trkpt lat="45.8974479236645" lon="13.381364746559827"><ele>26.0</ele><time>2026-04-01T14:29:22Z</time></trkpt><trkpt lat="45.89760621554281" lon="13.381300854362093"><ele>26.0</ele><time>2026-04-01T14:29:23Z</time></trkpt><trkpt lat="45.89776346492768" lon="13.38123458993728"><ele>26.0</ele><time>2026-04-01T14:29:24Z</time></trkpt><trkpt lat="45.89789106548492" lon="13.381183818195263"><ele>26.0</ele><time>2026-04-01T14:29:25Z</time></trkpt><trkpt lat="45.897984412676045" lon="13.381146657701269"><ele>26.0</ele><time>2026-04-01T14:29:26Z</time></trkpt><trkpt lat="45.898050066006796" lon="13.381120233241752"><ele>26.0</ele><time>2026-04-01T14:29:27Z</time></trkpt><trkpt lat="45.89815425263804" lon="13.38108034157728"><ele>26.0</ele><time>2026-04-01T14:29:29Z</time></trkpt><trkpt lat="45.8982292866058" lon="13.38104029055317"><ele>26.0</ele><time>2026-04-01T14:29:32Z</time></trkpt><trkpt lat="45.89829305706755" lon="13.381017570087089"><ele>26.0</ele><time>2026-04-01T14:29:49Z</time></trkpt><trkpt lat="45.898411992719325" lon="13.380965316200133"><ele>26.0</ele><time>2026-04-01T14:29:51Z</time></trkpt><trkpt lat="45.89849459287416" lon="13.380932496192608"><ele>25.5</ele><time>2026-04-01T14:29:52Z</time></trkpt><trkpt lat="45.89859591806574" lon="13.38089230795774"><ele>25.0</ele><time>2026-04-01T14:29:53Z</time></trkpt><trkpt lat="45.89870064960751" lon="13.380851652940978"><ele>24.5</ele><time>2026-04-01T14:29:54Z</time></trkpt><trkpt lat="45.89881478537618" lon="13.38080926678512"><ele>24.0</ele><time>2026-04-01T14:29:55Z</time></trkpt><trkpt lat="45.89893905653405" lon="13.380762871991982"><ele>24.0</ele><time>2026-04-01T14:29:56Z</time></trkpt><trkpt lat="45.899067006238" lon="13.38071856854922"><ele>24.0</ele><time>2026-04-01T14:29:57Z</time></trkpt><trkpt lat="45.89920240481041" lon="13.38067625555968"><ele>24.0</ele><time>2026-04-01T14:29:58Z</time></trkpt><trkpt lat="45.899347729018814" lon="13.380635838224954"><ele>24.0</ele><time>2026-04-01T14:29:59Z</time></trkpt><trkpt lat="45.89949981857208" lon="13.380595283270882"><ele>24.666666666666664</ele><time>2026-04-01T14:30:00Z</time></trkpt><trkpt lat="45.899660331904336" lon="13.380559060523451"><ele>25.333333333333332</ele><time>2026-04-01T14:30:01Z</time></trkpt><trkpt lat="45.89983455137631" lon="13.380527658408626"><ele>26.0</ele><time>2026-04-01T14:30:02Z</time></trkpt><trkpt lat="45.9000156473156" lon="13.380496626146838"><ele>26.0</ele><time>2026-04-01T14:30:03Z</time></trkpt><trkpt lat="45.9001935768362" lon="13.380471619763211"><ele>26.0</ele><time>2026-04-01T14:30:04Z</time></trkpt><trkpt lat="45.90036764827273" lon="13.38044738619729"><ele>26.0</ele><time>2026-04-01T14:30:05Z</time></trkpt><trkpt lat="45.90053877987599" lon="13.380428537790017"><ele>26.0</ele><time>2026-04-01T14:30:06Z</time></trkpt><trkpt lat="45.90071802069835" lon="13.38040528017068"><ele>26.0</ele><time>2026-04-01T14:30:07Z</time></trkpt><trkpt lat="45.900899864040056" lon="13.380377586265245"><ele>26.0</ele><time>2026-04-01T14:30:08Z</time></trkpt><trkpt lat="45.90109633348428" lon="13.380349893904215"><ele>25.666666666666664</ele><time>2026-04-01T14:30:09Z</time></trkpt><trkpt lat="45.90129423749077" lon="13.38032266178157"><ele>25.333333333333336</ele><time>2026-04-01T14:30:10Z</time></trkpt><trkpt lat="45.90148154757814" lon="13.380296542799329"><ele>25.0</ele><time>2026-04-01T14:30:11Z</time></trkpt><trkpt lat="45.90166575483453" lon="13.380269240468692"><ele>25.333333333333336</ele><time>2026-04-01T14:30:12Z</time></trkpt><trkpt lat="45.90185522858971" lon="13.380238807540453"><ele>25.666666666666664</ele><time>2026-04-01T14:30:13Z</time></trkpt><trkpt lat="45.90205112496328" lon="13.380204065926495"><ele>26.0</ele><time>2026-04-01T14:30:14Z</time></trkpt><trkpt lat="45.90224523676223" lon="13.380159091366952"><ele>26.0</ele><time>2026-04-01T14:30:15Z</time></trkpt><trkpt lat="45.90243584889734" lon="13.380113337691522"><ele>26.0</ele><time>2026-04-01T14:30:16Z</time></trkpt><trkpt lat="45.90262853273929" lon="13.380070760438539"><ele>26.0</ele><time>2026-04-01T14:30:17Z</time></trkpt><trkpt lat="45.902820753255185" lon="13.380030652036957"><ele>26.333333333333332</ele><time>2026-04-01T14:30:18Z</time></trkpt><trkpt lat="45.90301346518249" lon="13.379991153863687"><ele>26.666666666666664</ele><time>2026-04-01T14:30:19Z</time></trkpt><trkpt lat="45.90320821529025" lon="13.379945497503543"><ele>27.0</ele><time>2026-04-01T14:30:20Z</time></trkpt><trkpt lat="45.9034039735571" lon="13.379905852723228"><ele>27.0</ele><time>2026-04-01T14:30:21Z</time></trkpt><trkpt lat="45.90359673769553" lon="13.379864408789249"><ele>27.0</ele><time>2026-04-01T14:30:22Z</time></trkpt><trkpt lat="45.90379163697639" lon="13.379823469176793"><ele>27.0</ele><time>2026-04-01T14:30:23Z</time></trkpt><trkpt lat="45.9039856326925" lon="13.37977718398373"><ele>27.0</ele><time>2026-04-01T14:30:24Z</time></trkpt><trkpt lat="45.904180830705556" lon="13.37973390052182"><ele>27.0</ele><time>2026-04-01T14:30:25Z</time></trkpt><trkpt lat="45.904377030050085" lon="13.379691459319018"><ele>27.0</ele><time>2026-04-01T14:30:26Z</time></trkpt><trkpt lat="45.904579896196694" lon="13.379652028285891"><ele>26.666666666666664</ele><time>2026-04-01T14:30:27Z</time></trkpt><trkpt lat="45.90478646618109" lon="13.379619132260371"><ele>26.333333333333332</ele><time>2026-04-01T14:30:28Z</time></trkpt><trkpt lat="45.904995663953166" lon="13.379593999924962"><ele>26.0</ele><time>2026-04-01T14:30:29Z</time></trkpt><trkpt lat="45.90520536818275" lon="13.379570651532706"><ele>26.666666666666664</ele><time>2026-04-01T14:30:30Z</time></trkpt><trkpt lat="45.9054163143953" lon="13.379545566413164"><ele>27.333333333333336</ele><time>2026-04-01T14:30:31Z</time></trkpt><trkpt lat="45.90563284256556" lon="13.379523842607368"><ele>28.0</ele><time>2026-04-01T14:30:32Z</time></trkpt><trkpt lat="45.90584872506254" lon="13.379496059350883"><ele>28.333333333333336</ele><time>2026-04-01T14:30:33Z</time></trkpt><trkpt lat="45.90605881062538" lon="13.379463136123029"><ele>28.666666666666664</ele><time>2026-04-01T14:30:34Z</time></trkpt><trkpt lat="45.90626928694148" lon="13.37944241458646"><ele>29.0</ele><time>2026-04-01T14:30:35Z</time></trkpt><trkpt lat="45.906471073267824" lon="13.37941334494059"><ele>29.0</ele><time>2026-04-01T14:30:36Z</time></trkpt><trkpt lat="45.90667411228721" lon="13.379388360458375"><ele>29.0</ele><time>2026-04-01T14:30:37Z</time></trkpt><trkpt lat="45.90687677501534" lon="13.379353836321531"><ele>29.0</ele><time>2026-04-01T14:30:38Z</time></trkpt><trkpt lat="45.90707891925212" lon="13.37929670362505"><ele>29.0</ele><time>2026-04-01T14:30:39Z</time></trkpt><trkpt lat="45.90728561821578" lon="13.379206432331848"><ele>29.0</ele><time>2026-04-01T14:30:40Z</time></trkpt><trkpt lat="45.907493577479194" lon="13.379111161160875"><ele>29.0</ele><time>2026-04-01T14:30:41Z</time></trkpt><trkpt lat="45.907702300275396" lon="13.379029240678287"><ele>29.0</ele><time>2026-04-01T14:30:42Z</time></trkpt><trkpt lat="45.90790452519748" lon="13.378959666949491"><ele>29.0</ele><time>2026-04-01T14:30:43Z</time></trkpt><trkpt lat="45.90811018129147" lon="13.378893113429905"><ele>29.0</ele><time>2026-04-01T14:30:44Z</time></trkpt><trkpt lat="45.908318877617546" lon="13.378832046749332"><ele>29.0</ele><time>2026-04-01T14:30:45Z</time></trkpt><trkpt lat="45.90852934303564" lon="13.378781474623889"><ele>29.0</ele><time>2026-04-01T14:30:46Z</time></trkpt><trkpt lat="45.90873242746745" lon="13.378742170086335"><ele>29.0</ele><time>2026-04-01T14:30:47Z</time></trkpt><trkpt lat="45.90893648249692" lon="13.378721254341256"><ele>29.0</ele><time>2026-04-01T14:30:48Z</time></trkpt><trkpt lat="45.90913490206303" lon="13.378697032074099"><ele>29.0</ele><time>2026-04-01T14:30:49Z</time></trkpt><trkpt lat="45.9093250536305" lon="13.378683710073606"><ele>29.0</ele><time>2026-04-01T14:30:50Z</time></trkpt><trkpt lat="45.90949690984664" lon="13.378676373301959"><ele>28.666666666666664</ele><time>2026-04-01T14:30:51Z</time></trkpt><trkpt lat="45.909665686178684" lon="13.378675756004169"><ele>28.333333333333336</ele><time>2026-04-01T14:30:52Z</time></trkpt><trkpt lat="45.90982412990364" lon="13.37867855329785"><ele>28.0</ele><time>2026-04-01T14:30:53Z</time></trkpt><trkpt lat="45.90998185937792" lon="13.378685067739774"><ele>28.666666666666668</ele><time>2026-04-01T14:30:54Z</time></trkpt><trkpt lat="45.91014195923605" lon="13.378697356967539"><ele>29.333333333333336</ele><time>2026-04-01T14:30:55Z</time></trkpt><trkpt lat="45.91031033696877" lon="13.378715439183326"><ele>30.0</ele><time>2026-04-01T14:30:56Z</time></trkpt><trkpt lat="45.910488522736514" lon="13.378733599304013"><ele>30.0</ele><time>2026-04-01T14:30:57Z</time></trkpt><trkpt lat="45.910671112947696" lon="13.378738772947672"><ele>30.0</ele><time>2026-04-01T14:30:58Z</time></trkpt><trkpt lat="45.910849978363814" lon="13.37872923969046"><ele>30.0</ele><time>2026-04-01T14:30:59Z</time></trkpt><trkpt lat="45.911025107708014" lon="13.378693539367418"><ele>30.333333333333336</ele><time>2026-04-01T14:31:00Z</time></trkpt><trkpt lat="45.91119943743788" lon="13.37863266416982"><ele>30.666666666666668</ele><time>2026-04-01T14:31:01Z</time></trkpt><trkpt lat="45.911360319751154" lon="13.37854034031593"><ele>31.0</ele><time>2026-04-01T14:31:02Z</time></trkpt><trkpt lat="45.911513706762264" lon="13.378446842432888"><ele>31.0</ele><time>2026-04-01T14:31:03Z</time></trkpt><trkpt lat="45.9116681090999" lon="13.378341127538746"><ele>31.0</ele><time>2026-04-01T14:31:04Z</time></trkpt><trkpt lat="45.91181819386594" lon="13.378202647673536"><ele>31.0</ele><time>2026-04-01T14:31:05Z</time></trkpt><trkpt lat="45.91196121975768" lon="13.378051594516407"><ele>31.333333333333336</ele><time>2026-04-01T14:31:06Z</time></trkpt><trkpt lat="45.91209543039411" lon="13.377901641468092"><ele>31.666666666666664</ele><time>2026-04-01T14:31:07Z</time></trkpt><trkpt lat="45.91223166464811" lon="13.377762955759996"><ele>32.0</ele><time>2026-04-01T14:31:08Z</time></trkpt><trkpt lat="45.912365812048584" lon="13.3776234680189"><ele>32.0</ele><time>2026-04-01T14:31:09Z</time></trkpt><trkpt lat="45.91250021375996" lon="13.377481311444193"><ele>32.0</ele><time>2026-04-01T14:31:09.999Z</time></trkpt><trkpt lat="45.912623226787886" lon="13.377359400848999"><ele>32.0</ele><time>2026-04-01T14:31:10.999Z</time></trkpt><trkpt lat="45.912746572625636" lon="13.377229415149626"><ele>32.5</ele><time>2026-04-01T14:31:11.999Z</time></trkpt><trkpt lat="45.9128704254557" lon="13.377106034893314"><ele>33.0</ele><time>2026-04-01T14:31:12.999Z</time></trkpt><trkpt lat="45.91299550194115" lon="13.376995816877685"><ele>33.5</ele><time>2026-04-01T14:31:13.999Z</time></trkpt><trkpt lat="45.91312899854649" lon="13.37691037228828"><ele>34.0</ele><time>2026-04-01T14:31:15Z</time></trkpt><trkpt lat="45.91327503059933" lon="13.376855565320346"><ele>33.66666666666667</ele><time>2026-04-01T14:31:16Z</time></trkpt><trkpt lat="45.91342694540311" lon="13.37680141709397"><ele>33.333333333333336</ele><time>2026-04-01T14:31:17Z</time></trkpt><trkpt lat="45.913578855465715" lon="13.376745291568914"><ele>33.0</ele><time>2026-04-01T14:31:18Z</time></trkpt><trkpt lat="45.91373329385676" lon="13.376677502490319"><ele>33.0</ele><time>2026-04-01T14:31:19Z</time></trkpt><trkpt lat="45.913883382168336" lon="13.376607669977663"><ele>33.0</ele><time>2026-04-01T14:31:20Z</time></trkpt><trkpt lat="45.91402835810604" lon="13.376547914397632"><ele>33.0</ele><time>2026-04-01T14:31:21Z</time></trkpt><trkpt lat="45.914173577109004" lon="13.376493766344153"><ele>33.0</ele><time>2026-04-01T14:31:22Z</time></trkpt><trkpt lat="45.914322391419375" lon="13.376448780454291"><ele>33.0</ele><time>2026-04-01T14:31:23Z</time></trkpt><trkpt lat="45.914477529414306" lon="13.376411099110712"><ele>33.0</ele><time>2026-04-01T14:31:24Z</time></trkpt><trkpt lat="45.914638810852416" lon="13.376387739660004"><ele>33.0</ele><time>2026-04-01T14:31:25Z</time></trkpt><trkpt lat="45.91480248562213" lon="13.376361918906488"><ele>33.0</ele><time>2026-04-01T14:31:26Z</time></trkpt><trkpt lat="45.914969350581266" lon="13.376331922232831"><ele>33.0</ele><time>2026-04-01T14:31:27Z</time></trkpt><trkpt lat="45.915132904626645" lon="13.376304014785427"><ele>33.333333333333336</ele><time>2026-04-01T14:31:28Z</time></trkpt><trkpt lat="45.915290930798356" lon="13.37627686334179"><ele>33.66666666666667</ele><time>2026-04-01T14:31:29Z</time></trkpt><trkpt lat="45.915447289914695" lon="13.376251321604812"><ele>34.0</ele><time>2026-04-01T14:31:30Z</time></trkpt><trkpt lat="45.915605437302766" lon="13.37622965763463"><ele>34.0</ele><time>2026-04-01T14:31:31Z</time></trkpt><trkpt lat="45.91576218965704" lon="13.37621175588131"><ele>34.0</ele><time>2026-04-01T14:31:32Z</time></trkpt><trkpt lat="45.91591819008732" lon="13.376200875051083"><ele>34.0</ele><time>2026-04-01T14:31:33Z</time></trkpt><trkpt lat="45.916080921100615" lon="13.37619723183065"><ele>33.66666666666667</ele><time>2026-04-01T14:31:34Z</time></trkpt><trkpt lat="45.91625205379328" lon="13.376196866673132"><ele>33.333333333333336</ele><time>2026-04-01T14:31:35Z</time></trkpt><trkpt lat="45.916427805212834" lon="13.37619588147668"><ele>33.0</ele><time>2026-04-01T14:31:36Z</time></trkpt><trkpt lat="45.916607741185594" lon="13.376190214923957"><ele>32.0</ele><time>2026-04-01T14:31:37Z</time></trkpt><trkpt lat="45.91678654625686" lon="13.376169189286932"><ele>31.0</ele><time>2026-04-01T14:31:38Z</time></trkpt><trkpt lat="45.9169631709352" lon="13.376138889230779"><ele>30.0</ele><time>2026-04-01T14:31:39Z</time></trkpt><trkpt lat="45.91713529851327" lon="13.376106305106976"><ele>30.0</ele><time>2026-04-01T14:31:40Z</time></trkpt><trkpt lat="45.9173068964042" lon="13.376073613766673"><ele>30.0</ele><time>2026-04-01T14:31:41Z</time></trkpt><trkpt lat="45.91747643711356" lon="13.37604320277603"><ele>30.0</ele><time>2026-04-01T14:31:42Z</time></trkpt><trkpt lat="45.91764621035322" lon="13.376012811535167"><ele>30.666666666666664</ele><time>2026-04-01T14:31:43Z</time></trkpt><trkpt lat="45.91781638573475" lon="13.37598367480386"><ele>31.333333333333332</ele><time>2026-04-01T14:31:44Z</time></trkpt><trkpt lat="45.91798666111155" lon="13.375953476861625"><ele>32.0</ele><time>2026-04-01T14:31:45Z</time></trkpt><trkpt lat="45.91815822652095" lon="13.375923877122377"><ele>32.0</ele><time>2026-04-01T14:31:46Z</time></trkpt><trkpt lat="45.91833175892486" lon="13.375892223922769"><ele>32.0</ele><time>2026-04-01T14:31:47Z</time></trkpt><trkpt lat="45.91850661333905" lon="13.375852900485212"><ele>32.0</ele><time>2026-04-01T14:31:48Z</time></trkpt><trkpt lat="45.91867648904175" lon="13.375794786025056"><ele>32.0</ele><time>2026-04-01T14:31:49Z</time></trkpt><trkpt lat="45.91883913904285" lon="13.375704538127893"><ele>32.0</ele><time>2026-04-01T14:31:50Z</time></trkpt><trkpt lat="45.91899887165207" lon="13.375596779892915"><ele>32.0</ele><time>2026-04-01T14:31:51Z</time></trkpt><trkpt lat="45.919151691038806" lon="13.3754724633088"><ele>31.666666666666664</ele><time>2026-04-01T14:31:52Z</time></trkpt><trkpt lat="45.919296336340864" lon="13.37533576874867"><ele>31.333333333333336</ele><time>2026-04-01T14:31:53Z</time></trkpt><trkpt lat="45.91943691134906" lon="13.375190206201706"><ele>31.0</ele><time>2026-04-01T14:31:54Z</time></trkpt><trkpt lat="45.9195789910883" lon="13.375035990549064"><ele>31.0</ele><time>2026-04-01T14:31:55Z</time></trkpt><trkpt lat="45.91972102871023" lon="13.374882270670902"><ele>31.0</ele><time>2026-04-01T14:31:56Z</time></trkpt><trkpt lat="45.91986180421005" lon="13.374735341485824"><ele>31.0</ele><time>2026-04-01T14:31:57Z</time></trkpt><trkpt lat="45.9200013386964" lon="13.3745894675888"><ele>31.333333333333336</ele><time>2026-04-01T14:31:58Z</time></trkpt><trkpt lat="45.920140399151656" lon="13.37444760666084"><ele>31.666666666666664</ele><time>2026-04-01T14:31:59Z</time></trkpt><trkpt lat="45.92027983700854" lon="13.374305157330229"><ele>32.0</ele><time>2026-04-01T14:32:00Z</time></trkpt><trkpt lat="45.920421136233465" lon="13.374167119208572"><ele>32.0</ele><time>2026-04-01T14:32:01Z</time></trkpt><trkpt lat="45.9205592896026" lon="13.37405135973192"><ele>32.0</ele><time>2026-04-01T14:32:02Z</time></trkpt><trkpt lat="45.9206860904253" lon="13.373947153826483"><ele>32.0</ele><time>2026-04-01T14:32:03Z</time></trkpt><trkpt lat="45.92080629139791" lon="13.373845621440816"><ele>32.0</ele><time>2026-04-01T14:32:04Z</time></trkpt><trkpt lat="45.92092101249557" lon="13.373749124875651"><ele>32.0</ele><time>2026-04-01T14:32:05Z</time></trkpt><trkpt lat="45.92102327475458" lon="13.373661949233501"><ele>32.0</ele><time>2026-04-01T14:32:06Z</time></trkpt><trkpt lat="45.92111088425195" lon="13.373589584092981"><ele>32.0</ele><time>2026-04-01T14:32:07Z</time></trkpt><trkpt lat="45.921195399944565" lon="13.373523062627594"><ele>32.0</ele><time>2026-04-01T14:32:08Z</time></trkpt><trkpt lat="45.92128256717839" lon="13.373479977843814"><ele>32.0</ele><time>2026-04-01T14:32:09Z</time></trkpt><trkpt lat="45.921368674970175" lon="13.373477027045679"><ele>32.0</ele><time>2026-04-01T14:32:10Z</time></trkpt><trkpt lat="45.92146415078878" lon="13.373502482255029"><ele>32.0</ele><time>2026-04-01T14:32:11Z</time></trkpt><trkpt lat="45.92156783026534" lon="13.373530489365965"><ele>32.0</ele><time>2026-04-01T14:32:12Z</time></trkpt><trkpt lat="45.92168200904495" lon="13.373573343361066"><ele>32.0</ele><time>2026-04-01T14:32:13Z</time></trkpt><trkpt lat="45.92179513339423" lon="13.37365168984114"><ele>32.0</ele><time>2026-04-01T14:32:14Z</time></trkpt><trkpt lat="45.921905363096265" lon="13.373761572648565"><ele>32.0</ele><time>2026-04-01T14:32:15Z</time></trkpt><trkpt lat="45.92201563357494" lon="13.373901144215303"><ele>32.0</ele><time>2026-04-01T14:32:16Z</time></trkpt><trkpt lat="45.92213603592393" lon="13.374058618089311"><ele>32.0</ele><time>2026-04-01T14:32:17Z</time></trkpt><trkpt lat="45.922266152123505" lon="13.374232970656884"><ele>32.0</ele><time>2026-04-01T14:32:18Z</time></trkpt><trkpt lat="45.92239995699836" lon="13.374420515369088"><ele>32.0</ele><time>2026-04-01T14:32:19Z</time></trkpt><trkpt lat="45.92253537154881" lon="13.374615809691718"><ele>32.0</ele><time>2026-04-01T14:32:20Z</time></trkpt><trkpt lat="45.92266851610656" lon="13.374816819810556"><ele>32.666666666666664</ele><time>2026-04-01T14:32:21Z</time></trkpt><trkpt lat="45.92280021797367" lon="13.37501738940455"><ele>33.333333333333336</ele><time>2026-04-01T14:32:22Z</time></trkpt><trkpt lat="45.92293154329755" lon="13.3752219953041"><ele>34.0</ele><time>2026-04-01T14:32:23Z</time></trkpt><trkpt lat="45.923065092725075" lon="13.37542760164088"><ele>34.0</ele><time>2026-04-01T14:32:24Z</time></trkpt><trkpt lat="45.92319620324577" lon="13.375634318625494"><ele>34.0</ele><time>2026-04-01T14:32:25Z</time></trkpt><trkpt lat="45.9233275073794" lon="13.375830900467607"><ele>34.0</ele><time>2026-04-01T14:32:26Z</time></trkpt><trkpt lat="45.92345775461988" lon="13.376027013931077"><ele>34.66666666666667</ele><time>2026-04-01T14:32:27Z</time></trkpt><trkpt lat="45.923586466476785" lon="13.376221865944459"><ele>35.333333333333336</ele><time>2026-04-01T14:32:28Z</time></trkpt><trkpt lat="45.92371771814195" lon="13.376419246583076"><ele>36.0</ele><time>2026-04-01T14:32:29Z</time></trkpt><trkpt lat="45.9238477993203" lon="13.37662053607367"><ele>36.0</ele><time>2026-04-01T14:32:30Z</time></trkpt><trkpt lat="45.92397800030189" lon="13.37682752545323"><ele>36.0</ele><time>2026-04-01T14:32:31Z</time></trkpt><trkpt lat="45.92411087574637" lon="13.377036825869244"><ele>36.0</ele><time>2026-04-01T14:32:32Z</time></trkpt><trkpt lat="45.9242460304107" lon="13.37724268448236"><ele>34.666666666666664</ele><time>2026-04-01T14:32:33Z</time></trkpt><trkpt lat="45.9243787510576" lon="13.377441974488708"><ele>33.33333333333333</ele><time>2026-04-01T14:32:34Z</time></trkpt><trkpt lat="45.924507577503206" lon="13.377641904079441"><ele>32.0</ele><time>2026-04-01T14:32:35Z</time></trkpt><trkpt lat="45.92463663958193" lon="13.377843103098504"><ele>33.0</ele><time>2026-04-01T14:32:36Z</time></trkpt><trkpt lat="45.924767754672324" lon="13.378042536156068"><ele>34.0</ele><time>2026-04-01T14:32:37Z</time></trkpt><trkpt lat="45.924899826429844" lon="13.378245546136926"><ele>35.0</ele><time>2026-04-01T14:32:38Z</time></trkpt><trkpt lat="45.92503405016244" lon="13.378451118294128"><ele>35.0</ele><time>2026-04-01T14:32:39Z</time></trkpt><trkpt lat="45.925167643799014" lon="13.378658140761459"><ele>35.0</ele><time>2026-04-01T14:32:40Z</time></trkpt><trkpt lat="45.92529876499668" lon="13.37886147786168"><ele>35.0</ele><time>2026-04-01T14:32:41Z</time></trkpt><trkpt lat="45.92542781189916" lon="13.379060219800731"><ele>35.0</ele><time>2026-04-01T14:32:42Z</time></trkpt><trkpt lat="45.925556279843526" lon="13.379256749625483"><ele>35.0</ele><time>2026-04-01T14:32:43Z</time></trkpt><trkpt lat="45.92568437164769" lon="13.379451212084417"><ele>35.0</ele><time>2026-04-01T14:32:44Z</time></trkpt><trkpt lat="45.925809920123925" lon="13.379645427816161"><ele>34.666666666666664</ele><time>2026-04-01T14:32:45Z</time></trkpt><trkpt lat="45.92593614801801" lon="13.379839113782863"><ele>34.333333333333336</ele><time>2026-04-01T14:32:46Z</time></trkpt><trkpt lat="45.92606159849038" lon="13.380029756951714"><ele>34.0</ele><time>2026-04-01T14:32:47Z</time></trkpt><trkpt lat="45.92618855004297" lon="13.380224200948625"><ele>34.0</ele><time>2026-04-01T14:32:48Z</time></trkpt><trkpt lat="45.92631682973921" lon="13.380419974600606"><ele>34.0</ele><time>2026-04-01T14:32:49Z</time></trkpt><trkpt lat="45.92644778819025" lon="13.380620346083589"><ele>34.0</ele><time>2026-04-01T14:32:50Z</time></trkpt><trkpt lat="45.92657900328023" lon="13.38082256865367"><ele>34.0</ele><time>2026-04-01T14:32:51Z</time></trkpt><trkpt lat="45.926709505483785" lon="13.38102485042487"><ele>34.0</ele><time>2026-04-01T14:32:52Z</time></trkpt><trkpt lat="45.92683940882312" lon="13.381225502791871"><ele>34.0</ele><time>2026-04-01T14:32:53Z</time></trkpt><trkpt lat="45.92695869401445" lon="13.381407424326643"><ele>34.0</ele><time>2026-04-01T14:32:54Z</time></trkpt><trkpt lat="45.927072159965725" lon="13.381583644649066"><ele>34.0</ele><time>2026-04-01T14:32:55Z</time></trkpt><trkpt lat="45.927181489103596" lon="13.381752120618069"><ele>34.0</ele><time>2026-04-01T14:32:56Z</time></trkpt><trkpt lat="45.927286983246105" lon="13.381917436771586"><ele>34.0</ele><time>2026-04-01T14:32:57Z</time></trkpt><trkpt lat="45.92738734386606" lon="13.382078563577485"><ele>34.0</ele><time>2026-04-01T14:32:58Z</time></trkpt><trkpt lat="45.92747886820601" lon="13.382224741415753"><ele>34.0</ele><time>2026-04-01T14:32:59Z</time></trkpt><trkpt lat="45.92756547101483" lon="13.382365028851908"><ele>34.0</ele><time>2026-04-01T14:33:00Z</time></trkpt><trkpt lat="45.92764458876955" lon="13.38250015467826"><ele>34.2</ele><time>2026-04-01T14:33:01Z</time></trkpt><trkpt lat="45.92771868836224" lon="13.382632864290395"><ele>34.4</ele><time>2026-04-01T14:33:02Z</time></trkpt><trkpt lat="45.92778135009242" lon="13.382758614465146"><ele>34.6</ele><time>2026-04-01T14:33:03Z</time></trkpt><trkpt lat="45.92782294226748" lon="13.38289325503384"><ele>34.8</ele><time>2026-04-01T14:33:04Z</time></trkpt><trkpt lat="45.927838579333745" lon="13.383054301075175"><ele>35.0</ele><time>2026-04-01T14:33:05Z</time></trkpt><trkpt lat="45.92785576804755" lon="13.383202579365566"><ele>35.25</ele><time>2026-04-01T14:33:06Z</time></trkpt><trkpt lat="45.92791514961824" lon="13.383342197575757"><ele>35.5</ele><time>2026-04-01T14:33:07Z</time></trkpt><trkpt lat="45.928015488044444" lon="13.383459615039705"><ele>35.75</ele><time>2026-04-01T14:33:08Z</time></trkpt><trkpt lat="45.928135449065444" lon="13.383572817865664"><ele>36.0</ele><time>2026-04-01T14:33:09Z</time></trkpt><trkpt lat="45.92823305314102" lon="13.38370875459629"><ele>36.0</ele><time>2026-04-01T14:33:10Z</time></trkpt><trkpt lat="45.9283264920494" lon="13.383854435284347"><ele>36.0</ele><time>2026-04-01T14:33:10.999Z</time></trkpt><trkpt lat="45.92842246521863" lon="13.384003966044062"><ele>36.0</ele><time>2026-04-01T14:33:11.999Z</time></trkpt><trkpt lat="45.92851755321946" lon="13.384158486583397"><ele>36.0</ele><time>2026-04-01T14:33:12.999Z</time></trkpt><trkpt lat="45.92861591370525" lon="13.38433295937839"><ele>36.0</ele><time>2026-04-01T14:33:13.999Z</time></trkpt><trkpt lat="45.92871592856363" lon="13.384519962418972"><ele>36.0</ele><time>2026-04-01T14:33:14.999Z</time></trkpt><trkpt lat="45.928815237871085" lon="13.384716149885714"><ele>36.0</ele><time>2026-04-01T14:33:15.999Z</time></trkpt><trkpt lat="45.92891463648427" lon="13.384917859951225"><ele>36.0</ele><time>2026-04-01T14:33:16.999Z</time></trkpt><trkpt lat="45.9290141994887" lon="13.385114922238172"><ele>36.0</ele><time>2026-04-01T14:33:17.999Z</time></trkpt><trkpt lat="45.929109093782756" lon="13.385309608859057"><ele>36.0</ele><time>2026-04-01T14:33:18.999Z</time></trkpt><trkpt lat="45.92920647077262" lon="13.385507685710264"><ele>36.333333333333336</ele><time>2026-04-01T14:33:19.999Z</time></trkpt><trkpt lat="45.92930846859943" lon="13.385711549296493"><ele>36.66666666666667</ele><time>2026-04-01T14:33:21Z</time></trkpt><trkpt lat="45.92941390653536" lon="13.38591518048421"><ele>37.0</ele><time>2026-04-01T14:33:22Z</time></trkpt><trkpt lat="45.92951719930542" lon="13.386122630112048"><ele>37.0</ele><time>2026-04-01T14:33:23Z</time></trkpt><trkpt lat="45.92962123901201" lon="13.386332951325148"><ele>37.0</ele><time>2026-04-01T14:33:24Z</time></trkpt><trkpt lat="45.92972501132678" lon="13.386544973388123"><ele>37.0</ele><time>2026-04-01T14:33:25Z</time></trkpt><trkpt lat="45.92982983969759" lon="13.386757550993314"><ele>36.66666666666667</ele><time>2026-04-01T14:33:26Z</time></trkpt><trkpt lat="45.929933649708836" lon="13.386966878658034"><ele>36.333333333333336</ele><time>2026-04-01T14:33:27Z</time></trkpt><trkpt lat="45.93003575762818" lon="13.387171688899238"><ele>36.0</ele><time>2026-04-01T14:33:28Z</time></trkpt><trkpt lat="45.93013564735669" lon="13.38737664532267"><ele>36.0</ele><time>2026-04-01T14:33:29Z</time></trkpt><trkpt lat="45.93023674401466" lon="13.387582251378214"><ele>36.0</ele><time>2026-04-01T14:33:30Z</time></trkpt><trkpt lat="45.93034041075608" lon="13.387780593965289"><ele>36.0</ele><time>2026-04-01T14:33:31Z</time></trkpt><trkpt lat="45.930446528301765" lon="13.387969840706909"><ele>36.333333333333336</ele><time>2026-04-01T14:33:32Z</time></trkpt><trkpt lat="45.93056583954943" lon="13.388141872702676"><ele>36.66666666666667</ele><time>2026-04-01T14:33:33Z</time></trkpt><trkpt lat="45.93069713334019" lon="13.388284780555287"><ele>37.0</ele><time>2026-04-01T14:33:34Z</time></trkpt><trkpt lat="45.930835295992466" lon="13.388409020673867"><ele>37.0</ele><time>2026-04-01T14:33:35Z</time></trkpt><trkpt lat="45.930981612240664" lon="13.388519738200737"><ele>37.0</ele><time>2026-04-01T14:33:36Z</time></trkpt><trkpt lat="45.93113330390987" lon="13.388611776894274"><ele>37.0</ele><time>2026-04-01T14:33:37Z</time></trkpt><trkpt lat="45.93128733253775" lon="13.388697830561345"><ele>37.0</ele><time>2026-04-01T14:33:38Z</time></trkpt><trkpt lat="45.931441588724795" lon="13.388788779356652"><ele>37.0</ele><time>2026-04-01T14:33:39Z</time></trkpt><trkpt lat="45.9316000007271" lon="13.3888896770498"><ele>37.0</ele><time>2026-04-01T14:33:40Z</time></trkpt><trkpt lat="45.9317603948071" lon="13.388984913068164"><ele>37.0</ele><time>2026-04-01T14:33:41Z</time></trkpt><trkpt lat="45.93191573206556" lon="13.389068723120138"><ele>37.0</ele><time>2026-04-01T14:33:42Z</time></trkpt><trkpt lat="45.9320712133598" lon="13.389156058055443"><ele>37.0</ele><time>2026-04-01T14:33:43Z</time></trkpt><trkpt lat="45.93222474004251" lon="13.38924683294947"><ele>37.0</ele><time>2026-04-01T14:33:44Z</time></trkpt><trkpt lat="45.93237965771356" lon="13.389340887778646"><ele>37.0</ele><time>2026-04-01T14:33:45Z</time></trkpt><trkpt lat="45.932535957520294" lon="13.389431184520758"><ele>37.0</ele><time>2026-04-01T14:33:46Z</time></trkpt><trkpt lat="45.93269337866467" lon="13.389525899566813"><ele>37.0</ele><time>2026-04-01T14:33:47Z</time></trkpt><trkpt lat="45.93285242067033" lon="13.389621288825136"><ele>37.0</ele><time>2026-04-01T14:33:48Z</time></trkpt><trkpt lat="45.933008105732995" lon="13.389703637640133"><ele>37.0</ele><time>2026-04-01T14:33:49Z</time></trkpt><trkpt lat="45.93316288211707" lon="13.389782909323674"><ele>37.0</ele><time>2026-04-01T14:33:50Z</time></trkpt><trkpt lat="45.93331177899208" lon="13.389846573432813"><ele>37.0</ele><time>2026-04-01T14:33:51Z</time></trkpt><trkpt lat="45.93346292159055" lon="13.389903318277165"><ele>37.0</ele><time>2026-04-01T14:33:52Z</time></trkpt><trkpt lat="45.93361992304476" lon="13.389946473406873"><ele>36.66666666666667</ele><time>2026-04-01T14:33:53Z</time></trkpt><trkpt lat="45.93378075578679" lon="13.389987041364856"><ele>36.333333333333336</ele><time>2026-04-01T14:33:54Z</time></trkpt><trkpt lat="45.933940445526765" lon="13.390019038039366"><ele>36.0</ele><time>2026-04-01T14:33:55Z</time></trkpt><trkpt lat="45.93409884827382" lon="13.390057917347926"><ele>36.666666666666664</ele><time>2026-04-01T14:33:56Z</time></trkpt><trkpt lat="45.934264791606395" lon="13.390104977702894"><ele>37.33333333333333</ele><time>2026-04-01T14:33:57Z</time></trkpt><trkpt lat="45.93443381778561" lon="13.390144963577395"><ele>38.0</ele><time>2026-04-01T14:33:58Z</time></trkpt><trkpt lat="45.93460192463147" lon="13.390188507792441"><ele>38.0</ele><time>2026-04-01T14:33:59Z</time></trkpt><trkpt lat="45.9347661439143" lon="13.390228918693301"><ele>38.0</ele><time>2026-04-01T14:34:00Z</time></trkpt><trkpt lat="45.934929665818856" lon="13.390273520695487"><ele>38.0</ele><time>2026-04-01T14:34:01Z</time></trkpt><trkpt lat="45.93509446466207" lon="13.390314706987882"><ele>38.33333333333333</ele><time>2026-04-01T14:34:02Z</time></trkpt><trkpt lat="45.93526423336823" lon="13.390358052483824"><ele>38.666666666666664</ele><time>2026-04-01T14:34:03Z</time></trkpt><trkpt lat="45.93544100672716" lon="13.390403514278388"><ele>39.0</ele><time>2026-04-01T14:34:04Z</time></trkpt><trkpt lat="45.935619996927834" lon="13.390447212970482"><ele>39.0</ele><time>2026-04-01T14:34:05Z</time></trkpt><trkpt lat="45.93579527618536" lon="13.390489563069645"><ele>39.0</ele><time>2026-04-01T14:34:06Z</time></trkpt><trkpt lat="45.935971395344005" lon="13.390540207766081"><ele>39.0</ele><time>2026-04-01T14:34:07Z</time></trkpt><trkpt lat="45.936144065588806" lon="13.390580550305762"><ele>38.0</ele><time>2026-04-01T14:34:08Z</time></trkpt><trkpt lat="45.93631866631601" lon="13.390626383647426"><ele>37.0</ele><time>2026-04-01T14:34:09Z</time></trkpt><trkpt lat="45.93649278696785" lon="13.390671575800761"><ele>36.0</ele><time>2026-04-01T14:34:10Z</time></trkpt><trkpt lat="45.93666901443789" lon="13.390719365693197"><ele>37.0</ele><time>2026-04-01T14:34:11Z</time></trkpt><trkpt lat="45.93684262210936" lon="13.390761727441745"><ele>38.0</ele><time>2026-04-01T14:34:12Z</time></trkpt><trkpt lat="45.93701631352245" lon="13.39080988936085"><ele>39.0</ele><time>2026-04-01T14:34:13Z</time></trkpt><trkpt lat="45.93719321493341" lon="13.390858142621244"><ele>39.0</ele><time>2026-04-01T14:34:14Z</time></trkpt><trkpt lat="45.93737120725747" lon="13.390901930798393"><ele>39.0</ele><time>2026-04-01T14:34:15Z</time></trkpt><trkpt lat="45.93755173244066" lon="13.390950856247642"><ele>39.0</ele><time>2026-04-01T14:34:16Z</time></trkpt><trkpt lat="45.937733416150905" lon="13.390994470138587"><ele>40.0</ele><time>2026-04-01T14:34:17Z</time></trkpt><trkpt lat="45.93791624964227" lon="13.391038453919743"><ele>41.0</ele><time>2026-04-01T14:34:18Z</time></trkpt><trkpt lat="45.93809834694852" lon="13.391088399597008"><ele>42.0</ele><time>2026-04-01T14:34:19Z</time></trkpt><trkpt lat="45.938276692753504" lon="13.391134218036994"><ele>41.666666666666664</ele><time>2026-04-01T14:34:20Z</time></trkpt><trkpt lat="45.93845975490405" lon="13.39118081922333"><ele>41.33333333333333</ele><time>2026-04-01T14:34:21Z</time></trkpt><trkpt lat="45.93864114556847" lon="13.39122583071092"><ele>41.0</ele><time>2026-04-01T14:34:22Z</time></trkpt><trkpt lat="45.938823480085055" lon="13.391269650145528"><ele>41.0</ele><time>2026-04-01T14:34:23Z</time></trkpt><trkpt lat="45.93900205902154" lon="13.391313139395912"><ele>41.0</ele><time>2026-04-01T14:34:24Z</time></trkpt><trkpt lat="45.939186185190614" lon="13.391352191363442"><ele>41.0</ele><time>2026-04-01T14:34:25Z</time></trkpt><trkpt lat="45.93937364755512" lon="13.391404573182113"><ele>41.0</ele><time>2026-04-01T14:34:26Z</time></trkpt><trkpt lat="45.939560592557605" lon="13.391449571959633"><ele>41.0</ele><time>2026-04-01T14:34:27Z</time></trkpt><trkpt lat="45.93974946315686" lon="13.391497741074186"><ele>41.0</ele><time>2026-04-01T14:34:28Z</time></trkpt><trkpt lat="45.93993692597701" lon="13.391549078527646"><ele>41.33333333333333</ele><time>2026-04-01T14:34:29Z</time></trkpt><trkpt lat="45.940118760488744" lon="13.391604955220195"><ele>41.666666666666664</ele><time>2026-04-01T14:34:30Z</time></trkpt><trkpt lat="45.94029797271824" lon="13.391660510153342"><ele>42.0</ele><time>2026-04-01T14:34:31Z</time></trkpt><trkpt lat="45.94047438796823" lon="13.391726414519807"><ele>42.0</ele><time>2026-04-01T14:34:32Z</time></trkpt><trkpt lat="45.940650368702336" lon="13.391802064315037"><ele>42.0</ele><time>2026-04-01T14:34:33Z</time></trkpt><trkpt lat="45.940828909283695" lon="13.39188557923994"><ele>42.0</ele><time>2026-04-01T14:34:34Z</time></trkpt><trkpt lat="45.94100545409822" lon="13.391977791401706"><ele>42.333333333333336</ele><time>2026-04-01T14:34:35Z</time></trkpt><trkpt lat="45.941177129730555" lon="13.392069005051308"><ele>42.66666666666667</ele><time>2026-04-01T14:34:36Z</time></trkpt><trkpt lat="45.941342161071276" lon="13.392152028936017"><ele>43.0</ele><time>2026-04-01T14:34:37Z</time></trkpt><trkpt lat="45.94150182569913" lon="13.392244188721392"><ele>43.333333333333336</ele><time>2026-04-01T14:34:38Z</time></trkpt><trkpt lat="45.94165030190416" lon="13.392331277476561"><ele>43.666666666666664</ele><time>2026-04-01T14:34:39Z</time></trkpt><trkpt lat="45.94179685176461" lon="13.392414885308392"><ele>44.0</ele><time>2026-04-01T14:34:40Z</time></trkpt><trkpt lat="45.94194067845324" lon="13.392494468951021"><ele>44.25</ele><time>2026-04-01T14:34:41Z</time></trkpt><trkpt lat="45.9420794353724" lon="13.392572512690018"><ele>44.5</ele><time>2026-04-01T14:34:42Z</time></trkpt><trkpt lat="45.94220667541396" lon="13.392649150307447"><ele>44.75</ele><time>2026-04-01T14:34:43Z</time></trkpt><trkpt lat="45.94232687536083" lon="13.39271549353241"><ele>45.0</ele><time>2026-04-01T14:34:44Z</time></trkpt><trkpt lat="45.94244199990044" lon="13.39278127633232"><ele>45.0</ele><time>2026-04-01T14:34:45Z</time></trkpt><trkpt lat="45.94254522363849" lon="13.392841858173059"><ele>45.0</ele><time>2026-04-01T14:34:46Z</time></trkpt><trkpt lat="45.942658456173554" lon="13.392907756033825"><ele>45.0</ele><time>2026-04-01T14:34:47Z</time></trkpt><trkpt lat="45.942766761755074" lon="13.392970367159245"><ele>45.0</ele><time>2026-04-01T14:34:48Z</time></trkpt><trkpt lat="45.94286925582674" lon="13.393027119392247"><ele>44.25</ele><time>2026-04-01T14:34:49Z</time></trkpt><trkpt lat="45.94297418695235" lon="13.393084603956192"><ele>43.5</ele><time>2026-04-01T14:34:50Z</time></trkpt><trkpt lat="45.94307845523924" lon="13.393146445847645"><ele>42.75</ele><time>2026-04-01T14:34:51Z</time></trkpt><trkpt lat="45.94318682810377" lon="13.393208254893352"><ele>42.0</ele><time>2026-04-01T14:34:52Z</time></trkpt><trkpt lat="45.94329441095072" lon="13.393268702675169"><ele>42.5</ele><time>2026-04-01T14:34:53Z</time></trkpt><trkpt lat="45.943402299029835" lon="13.39332746663863"><ele>43.0</ele><time>2026-04-01T14:34:54Z</time></trkpt><trkpt lat="45.94350774250355" lon="13.39339715962784"><ele>43.5</ele><time>2026-04-01T14:34:55Z</time></trkpt><trkpt lat="45.94361707864597" lon="13.393465431608329"><ele>44.0</ele><time>2026-04-01T14:34:56Z</time></trkpt><trkpt lat="45.94373379402848" lon="13.393518381420195"><ele>44.0</ele><time>2026-04-01T14:34:57Z</time></trkpt><trkpt lat="45.94384766060363" lon="13.39360053541223"><ele>44.0</ele><time>2026-04-01T14:34:58Z</time></trkpt><trkpt lat="45.94396793793899" lon="13.393658636692178"><ele>44.0</ele><time>2026-04-01T14:34:59Z</time></trkpt><trkpt lat="45.944084592773834" lon="13.393724692920395"><ele>44.0</ele><time>2026-04-01T14:35:00Z</time></trkpt><trkpt lat="45.94420053933057" lon="13.393802831916402"><ele>44.0</ele><time>2026-04-01T14:35:01Z</time></trkpt><trkpt lat="45.94431770125287" lon="13.393861475416816"><ele>44.0</ele><time>2026-04-01T14:35:02Z</time></trkpt><trkpt lat="45.94443853629987" lon="13.393929221724424"><ele>44.0</ele><time>2026-04-01T14:35:03Z</time></trkpt><trkpt lat="45.94456287943956" lon="13.39400494009851"><ele>44.0</ele><time>2026-04-01T14:35:04Z</time></trkpt><trkpt lat="45.94468892766253" lon="13.39407771973126"><ele>44.0</ele><time>2026-04-01T14:35:05Z</time></trkpt><trkpt lat="45.944813244296945" lon="13.394147965634598"><ele>44.0</ele><time>2026-04-01T14:35:06Z</time></trkpt><trkpt lat="45.94493649709267" lon="13.394215622450298"><ele>44.0</ele><time>2026-04-01T14:35:07Z</time></trkpt><trkpt lat="45.94506180687401" lon="13.394281141924623"><ele>44.0</ele><time>2026-04-01T14:35:08Z</time></trkpt><trkpt lat="45.9451873501357" lon="13.39435036522995"><ele>44.5</ele><time>2026-04-01T14:35:09Z</time></trkpt><trkpt lat="45.94531357087761" lon="13.394418828669824"><ele>45.0</ele><time>2026-04-01T14:35:10Z</time></trkpt><trkpt lat="45.94544350156274" lon="13.394479364494732"><ele>45.5</ele><time>2026-04-01T14:35:11Z</time></trkpt><trkpt lat="45.94557510437232" lon="13.394532263313561"><ele>46.0</ele><time>2026-04-01T14:35:12Z</time></trkpt><trkpt lat="45.94571134065826" lon="13.394575085021598"><ele>46.0</ele><time>2026-04-01T14:35:13Z</time></trkpt><trkpt lat="45.9458590587636" lon="13.394610881004168"><ele>46.0</ele><time>2026-04-01T14:35:13.999Z</time></trkpt><trkpt lat="45.94602310624134" lon="13.394637489255516"><ele>46.0</ele><time>2026-04-01T14:35:14.999Z</time></trkpt><trkpt lat="45.94620032895738" lon="13.394659281704413"><ele>46.0</ele><time>2026-04-01T14:35:15.999Z</time></trkpt><trkpt lat="45.94639449873344" lon="13.39467885052948"><ele>46.0</ele><time>2026-04-01T14:35:16.999Z</time></trkpt><trkpt lat="45.946614432634725" lon="13.394731227597006"><ele>46.0</ele><time>2026-04-01T14:35:17.999Z</time></trkpt><trkpt lat="45.946850233832436" lon="13.394755240096613"><ele>46.333333333333336</ele><time>2026-04-01T14:35:18.999Z</time></trkpt><trkpt lat="45.94707776291989" lon="13.394803494702433"><ele>46.666666666666664</ele><time>2026-04-01T14:35:19.999Z</time></trkpt><trkpt lat="45.94729034044294" lon="13.394844219118331"><ele>47.0</ele><time>2026-04-01T14:35:20.999Z</time></trkpt><trkpt lat="45.94748798383526" lon="13.394879240548633"><ele>46.666666666666664</ele><time>2026-04-01T14:35:21.999Z</time></trkpt><trkpt lat="45.947681721895215" lon="13.394911982706118"><ele>46.333333333333336</ele><time>2026-04-01T14:35:22.999Z</time></trkpt><trkpt lat="45.94786227219969" lon="13.394940570000102"><ele>46.0</ele><time>2026-04-01T14:35:23.999Z</time></trkpt><trkpt lat="45.94803837374014" lon="13.394965408720239"><ele>46.0</ele><time>2026-04-01T14:35:24.999Z</time></trkpt><trkpt lat="45.94821155063471" lon="13.394978322329687"><ele>46.0</ele><time>2026-04-01T14:35:26Z</time></trkpt><trkpt lat="45.948385769215015" lon="13.39498407996052"><ele>46.0</ele><time>2026-04-01T14:35:27Z</time></trkpt><trkpt lat="45.94856322932235" lon="13.39497335877629"><ele>45.66666666666667</ele><time>2026-04-01T14:35:28Z</time></trkpt><trkpt lat="45.94873509751322" lon="13.394950699946065"><ele>45.333333333333336</ele><time>2026-04-01T14:35:29Z</time></trkpt><trkpt lat="45.948899112065725" lon="13.394917982418734"><ele>45.0</ele><time>2026-04-01T14:35:30Z</time></trkpt><trkpt lat="45.949064798376" lon="13.39488466303442"><ele>45.333333333333336</ele><time>2026-04-01T14:35:31Z</time></trkpt><trkpt lat="45.94923447552087" lon="13.39485288681052"><ele>45.66666666666667</ele><time>2026-04-01T14:35:32Z</time></trkpt><trkpt lat="45.949407142784445" lon="13.394822602974568"><ele>46.0</ele><time>2026-04-01T14:35:33Z</time></trkpt><trkpt lat="45.94958137819818" lon="13.3947937817523"><ele>46.0</ele><time>2026-04-01T14:35:34Z</time></trkpt><trkpt lat="45.94975809168578" lon="13.394765696050388"><ele>46.0</ele><time>2026-04-01T14:35:35Z</time></trkpt><trkpt lat="45.949934904251" lon="13.39473230774917"><ele>46.0</ele><time>2026-04-01T14:35:36Z</time></trkpt><trkpt lat="45.950110955910205" lon="13.394698506747552"><ele>46.0</ele><time>2026-04-01T14:35:37Z</time></trkpt><trkpt lat="45.95028739088005" lon="13.394664038200958"><ele>46.0</ele><time>2026-04-01T14:35:38Z</time></trkpt><trkpt lat="45.95046273180498" lon="13.394630733526157"><ele>46.0</ele><time>2026-04-01T14:35:39Z</time></trkpt><trkpt lat="45.95063394925315" lon="13.394603022732852"><ele>46.0</ele><time>2026-04-01T14:35:40Z</time></trkpt><trkpt lat="45.950797339875734" lon="13.394573707174915"><ele>46.0</ele><time>2026-04-01T14:35:41Z</time></trkpt><trkpt lat="45.95096018079203" lon="13.394544536270834"><ele>46.0</ele><time>2026-04-01T14:35:42Z</time></trkpt><trkpt lat="45.9511287341147" lon="13.394517603184157"><ele>46.333333333333336</ele><time>2026-04-01T14:35:43Z</time></trkpt><trkpt lat="45.9512963782302" lon="13.39448877796734"><ele>46.666666666666664</ele><time>2026-04-01T14:35:44Z</time></trkpt><trkpt lat="45.95146267710618" lon="13.394459775958616"><ele>47.0</ele><time>2026-04-01T14:35:45Z</time></trkpt><trkpt lat="45.95162840834538" lon="13.394430382289018"><ele>47.666666666666664</ele><time>2026-04-01T14:35:46Z</time></trkpt><trkpt lat="45.95179107596457" lon="13.394400141926214"><ele>48.33333333333333</ele><time>2026-04-01T14:35:47Z</time></trkpt><trkpt lat="45.95195122477507" lon="13.394370005201319"><ele>49.0</ele><time>2026-04-01T14:35:48Z</time></trkpt><trkpt lat="45.95211067631775" lon="13.394342812039385"><ele>49.0</ele><time>2026-04-01T14:35:49Z</time></trkpt><trkpt lat="45.952272429164545" lon="13.394317927059342"><ele>49.0</ele><time>2026-04-01T14:35:50Z</time></trkpt><trkpt lat="45.95243275354808" lon="13.394297326536766"><ele>49.0</ele><time>2026-04-01T14:35:51Z</time></trkpt><trkpt lat="45.95259081889889" lon="13.394283821813215"><ele>47.666666666666664</ele><time>2026-04-01T14:35:52Z</time></trkpt><trkpt lat="45.9527461036751" lon="13.39428439517223"><ele>46.33333333333333</ele><time>2026-04-01T14:35:53Z</time></trkpt><trkpt lat="45.95289854440627" lon="13.394299455454394"><ele>45.0</ele><time>2026-04-01T14:35:54Z</time></trkpt><trkpt lat="45.95304976982497" lon="13.394329868973944"><ele>45.0</ele><time>2026-04-01T14:35:55Z</time></trkpt><trkpt lat="45.9532044517041" lon="13.39437087281307"><ele>45.0</ele><time>2026-04-01T14:35:56Z</time></trkpt><trkpt lat="45.95336305790251" lon="13.394415448044908"><ele>45.0</ele><time>2026-04-01T14:35:57Z</time></trkpt><trkpt lat="45.95352279501868" lon="13.394466918140926"><ele>46.33333333333333</ele><time>2026-04-01T14:35:58Z</time></trkpt><trkpt lat="45.953677568793886" lon="13.394518925976842"><ele>47.666666666666664</ele><time>2026-04-01T14:35:59Z</time></trkpt><trkpt lat="45.95382711465108" lon="13.39456937838525"><ele>49.0</ele><time>2026-04-01T14:36:00Z</time></trkpt><trkpt lat="45.95397420902239" lon="13.394619216791872"><ele>49.0</ele><time>2026-04-01T14:36:01Z</time></trkpt><trkpt lat="45.95412090540826" lon="13.394668859035004"><ele>49.0</ele><time>2026-04-01T14:36:02Z</time></trkpt><trkpt lat="45.95427085584525" lon="13.394719709403422"><ele>49.0</ele><time>2026-04-01T14:36:03Z</time></trkpt><trkpt lat="45.954421745068345" lon="13.394769657298625"><ele>49.0</ele><time>2026-04-01T14:36:04Z</time></trkpt><trkpt lat="45.95457304276096" lon="13.394824106622442"><ele>49.0</ele><time>2026-04-01T14:36:05Z</time></trkpt><trkpt lat="45.954721654498165" lon="13.394882691191098"><ele>49.0</ele><time>2026-04-01T14:36:06Z</time></trkpt><trkpt lat="45.95487361086223" lon="13.394940540568088"><ele>49.0</ele><time>2026-04-01T14:36:07Z</time></trkpt><trkpt lat="45.95501617048592" lon="13.394990819546077"><ele>49.0</ele><time>2026-04-01T14:36:08Z</time></trkpt><trkpt lat="45.95515813118397" lon="13.395038285913955"><ele>49.0</ele><time>2026-04-01T14:36:09Z</time></trkpt><trkpt lat="45.95530078952896" lon="13.39508222536376"><ele>49.0</ele><time>2026-04-01T14:36:10Z</time></trkpt><trkpt lat="45.95544803223933" lon="13.395130206909947"><ele>49.0</ele><time>2026-04-01T14:36:11Z</time></trkpt><trkpt lat="45.955602948472674" lon="13.395179995238683"><ele>49.0</ele><time>2026-04-01T14:36:12Z</time></trkpt><trkpt lat="45.9557582328066" lon="13.395228234206435"><ele>49.0</ele><time>2026-04-01T14:36:13Z</time></trkpt><trkpt lat="45.95591260634982" lon="13.39527889661057"><ele>49.0</ele><time>2026-04-01T14:36:14Z</time></trkpt><trkpt lat="45.95606370913245" lon="13.395329943937082"><ele>49.0</ele><time>2026-04-01T14:36:15Z</time></trkpt><trkpt lat="45.95621077108535" lon="13.395374639941238"><ele>49.0</ele><time>2026-04-01T14:36:16Z</time></trkpt><trkpt lat="45.956353682737465" lon="13.395409801267803"><ele>49.0</ele><time>2026-04-01T14:36:17Z</time></trkpt><trkpt lat="45.95649642006756" lon="13.395447690058075"><ele>49.0</ele><time>2026-04-01T14:36:18Z</time></trkpt><trkpt lat="45.956644712716496" lon="13.395492374750878"><ele>49.0</ele><time>2026-04-01T14:36:19Z</time></trkpt><trkpt lat="45.95679456813331" lon="13.395535918553584"><ele>49.666666666666664</ele><time>2026-04-01T14:36:20Z</time></trkpt><trkpt lat="45.95694165481086" lon="13.39558384666462"><ele>50.33333333333333</ele><time>2026-04-01T14:36:21Z</time></trkpt><trkpt lat="45.95708652739783" lon="13.395632688651947"><ele>51.0</ele><time>2026-04-01T14:36:22Z</time></trkpt><trkpt lat="45.95723572274606" lon="13.395680089011705"><ele>51.0</ele><time>2026-04-01T14:36:23Z</time></trkpt><trkpt lat="45.9573880486825" lon="13.395729374781178"><ele>51.0</ele><time>2026-04-01T14:36:24Z</time></trkpt><trkpt lat="45.957550847072575" lon="13.39578273092443"><ele>51.0</ele><time>2026-04-01T14:36:25Z</time></trkpt><trkpt lat="45.957729856181075" lon="13.395839089121607"><ele>51.0</ele><time>2026-04-01T14:36:26Z</time></trkpt><trkpt lat="45.957931757657015" lon="13.39590119339764"><ele>51.0</ele><time>2026-04-01T14:36:27Z</time></trkpt><trkpt lat="45.95816701596927" lon="13.395988961777382"><ele>51.0</ele><time>2026-04-01T14:36:28Z</time></trkpt><trkpt lat="45.958420993149495" lon="13.396073652006148"><ele>51.0</ele><time>2026-04-01T14:36:29Z</time></trkpt><trkpt lat="45.95867865244434" lon="13.396159572090067"><ele>51.0</ele><time>2026-04-01T14:36:30Z</time></trkpt><trkpt lat="45.9589371818133" lon="13.396232948128294"><ele>51.0</ele><time>2026-04-01T14:36:31Z</time></trkpt><trkpt lat="45.959192054319814" lon="13.396327946674353"><ele>51.0</ele><time>2026-04-01T14:36:32Z</time></trkpt><trkpt lat="45.959434531113" lon="13.396398587199334"><ele>49.5</ele><time>2026-04-01T14:36:33Z</time></trkpt><trkpt lat="45.959674896787945" lon="13.396453479521114"><ele>48.0</ele><time>2026-04-01T14:36:34Z</time></trkpt><trkpt lat="45.95991410020644" lon="13.396532909790492"><ele>49.0</ele><time>2026-04-01T14:36:35Z</time></trkpt><trkpt lat="45.96014700263736" lon="13.396595516019667"><ele>50.0</ele><time>2026-04-01T14:36:36Z</time></trkpt><trkpt lat="45.960376556262766" lon="13.396653923575807"><ele>50.0</ele><time>2026-04-01T14:36:37Z</time></trkpt><trkpt lat="45.960595591759784" lon="13.396710502500783"><ele>50.0</ele><time>2026-04-01T14:36:38Z</time></trkpt><trkpt lat="45.96080399059081" lon="13.396764719295193"><ele>50.0</ele><time>2026-04-01T14:36:39Z</time></trkpt><trkpt lat="45.96100618177484" lon="13.396822665072612"><ele>51.0</ele><time>2026-04-01T14:36:40Z</time></trkpt><trkpt lat="45.96120436547276" lon="13.396881722478973"><ele>52.0</ele><time>2026-04-01T14:36:41Z</time></trkpt><trkpt lat="45.96140176521639" lon="13.396935151141436"><ele>53.0</ele><time>2026-04-01T14:36:42Z</time></trkpt><trkpt lat="45.961592237973996" lon="13.396983262613922"><ele>53.333333333333336</ele><time>2026-04-01T14:36:43Z</time></trkpt><trkpt lat="45.96177494680811" lon="13.39703510836797"><ele>53.66666666666667</ele><time>2026-04-01T14:36:44Z</time></trkpt><trkpt lat="45.96195193939521" lon="13.397084651600068"><ele>54.0</ele><time>2026-04-01T14:36:45Z</time></trkpt><trkpt lat="45.96212682435219" lon="13.397132321827074"><ele>54.0</ele><time>2026-04-01T14:36:46Z</time></trkpt><trkpt lat="45.962300048563534" lon="13.397182116041138"><ele>54.0</ele><time>2026-04-01T14:36:47Z</time></trkpt><trkpt lat="45.96246753630839" lon="13.397225796207552"><ele>54.0</ele><time>2026-04-01T14:36:48Z</time></trkpt><trkpt lat="45.9626349366524" lon="13.397270308598982"><ele>54.0</ele><time>2026-04-01T14:36:49Z</time></trkpt><trkpt lat="45.96280913505105" lon="13.39732238312513"><ele>54.0</ele><time>2026-04-01T14:36:50Z</time></trkpt><trkpt lat="45.962989199300516" lon="13.397381790513851"><ele>54.0</ele><time>2026-04-01T14:36:51Z</time></trkpt><trkpt lat="45.96317213501618" lon="13.397450806201146"><ele>54.0</ele><time>2026-04-01T14:36:52Z</time></trkpt><trkpt lat="45.963342261647604" lon="13.397522098426256"><ele>54.0</ele><time>2026-04-01T14:36:53Z</time></trkpt><trkpt lat="45.963512785211186" lon="13.397599321117232"><ele>54.0</ele><time>2026-04-01T14:36:54Z</time></trkpt><trkpt lat="45.96368190501829" lon="13.397674265432032"><ele>54.33333333333333</ele><time>2026-04-01T14:36:55Z</time></trkpt><trkpt lat="45.963850170541114" lon="13.397756890283326"><ele>54.666666666666664</ele><time>2026-04-01T14:36:56Z</time></trkpt><trkpt lat="45.96402277621643" lon="13.397835570105654"><ele>55.0</ele><time>2026-04-01T14:36:57Z</time></trkpt><trkpt lat="45.964193573005225" lon="13.397911265710254"><ele>55.0</ele><time>2026-04-01T14:36:58Z</time></trkpt><trkpt lat="45.964365346647654" lon="13.397987838049291"><ele>55.0</ele><time>2026-04-01T14:36:59Z</time></trkpt><trkpt lat="45.96453333685882" lon="13.398064062399877"><ele>55.0</ele><time>2026-04-01T14:37:00Z</time></trkpt><trkpt lat="45.964696696282346" lon="13.39813516972813"><ele>55.0</ele><time>2026-04-01T14:37:01Z</time></trkpt><trkpt lat="45.96485767810541" lon="13.398202764280514"><ele>55.0</ele><time>2026-04-01T14:37:02Z</time></trkpt><trkpt lat="45.965022511840424" lon="13.398266376199057"><ele>55.0</ele><time>2026-04-01T14:37:03Z</time></trkpt><trkpt lat="45.965197067345926" lon="13.398314597244426"><ele>55.33333333333333</ele><time>2026-04-01T14:37:04Z</time></trkpt><trkpt lat="45.96537506796055" lon="13.39834680978853"><ele>55.66666666666667</ele><time>2026-04-01T14:37:05Z</time></trkpt><trkpt lat="45.965550517930346" lon="13.398365033327948"><ele>56.0</ele><time>2026-04-01T14:37:06Z</time></trkpt><trkpt lat="45.965725473816185" lon="13.398387147285096"><ele>55.66666666666667</ele><time>2026-04-01T14:37:07Z</time></trkpt><trkpt lat="45.96589913189046" lon="13.398412126217309"><ele>55.33333333333333</ele><time>2026-04-01T14:37:08Z</time></trkpt><trkpt lat="45.96607178650652" lon="13.398433641482425"><ele>55.0</ele><time>2026-04-01T14:37:09Z</time></trkpt><trkpt lat="45.96624059847836" lon="13.398450929360585"><ele>55.0</ele><time>2026-04-01T14:37:10Z</time></trkpt><trkpt lat="45.966409739171894" lon="13.398470520008422"><ele>55.0</ele><time>2026-04-01T14:37:11Z</time></trkpt><trkpt lat="45.96657824918957" lon="13.398488763016106"><ele>55.0</ele><time>2026-04-01T14:37:12Z</time></trkpt><trkpt lat="45.966748095744464" lon="13.398501322118003"><ele>55.666666666666664</ele><time>2026-04-01T14:37:13Z</time></trkpt><trkpt lat="45.966916344943584" lon="13.398511419711763"><ele>56.33333333333333</ele><time>2026-04-01T14:37:14Z</time></trkpt><trkpt lat="45.96707711206958" lon="13.39850738665267"><ele>57.0</ele><time>2026-04-01T14:37:15Z</time></trkpt><trkpt lat="45.96722578306437" lon="13.398485259667552"><ele>57.0</ele><time>2026-04-01T14:37:16Z</time></trkpt><trkpt lat="45.967361845176825" lon="13.398456295813515"><ele>57.0</ele><time>2026-04-01T14:37:17Z</time></trkpt><trkpt lat="45.967485456765786" lon="13.398427219216801"><ele>57.0</ele><time>2026-04-01T14:37:18Z</time></trkpt><trkpt lat="45.96760508467608" lon="13.39839690295729"><ele>57.0</ele><time>2026-04-01T14:37:18.999Z</time></trkpt><trkpt lat="45.967727812783465" lon="13.39837013685686"><ele>57.25</ele><time>2026-04-01T14:37:19.999Z</time></trkpt><trkpt lat="45.96786115136391" lon="13.398339803455913"><ele>57.5</ele><time>2026-04-01T14:37:20.999Z</time></trkpt><trkpt lat="45.96800517070581" lon="13.398306040259966"><ele>57.75</ele><time>2026-04-01T14:37:21.999Z</time></trkpt><trkpt lat="45.96815614174319" lon="13.398271238953482"><ele>58.0</ele><time>2026-04-01T14:37:22.999Z</time></trkpt><trkpt lat="45.96830591637972" lon="13.39823547548083"><ele>58.0</ele><time>2026-04-01T14:37:23.999Z</time></trkpt><trkpt lat="45.968460519216066" lon="13.398200932737074"><ele>58.0</ele><time>2026-04-01T14:37:24.999Z</time></trkpt><trkpt lat="45.96862163100748" lon="13.398164422947039"><ele>58.0</ele><time>2026-04-01T14:37:25.999Z</time></trkpt><trkpt lat="45.96877687292352" lon="13.3981262642643"><ele>58.0</ele><time>2026-04-01T14:37:26.999Z</time></trkpt><trkpt lat="45.96892636268935" lon="13.39808636725736"><ele>58.0</ele><time>2026-04-01T14:37:27.999Z</time></trkpt><trkpt lat="45.96907487496732" lon="13.398050858444314"><ele>58.0</ele><time>2026-04-01T14:37:28.999Z</time></trkpt><trkpt lat="45.969222695628886" lon="13.398019240504498"><ele>58.5</ele><time>2026-04-01T14:37:29.999Z</time></trkpt><trkpt lat="45.969366151723484" lon="13.397985847828183"><ele>59.0</ele><time>2026-04-01T14:37:31Z</time></trkpt><trkpt lat="45.96948839423017" lon="13.397956799347789"><ele>59.5</ele><time>2026-04-01T14:37:32Z</time></trkpt><trkpt lat="45.969598533808956" lon="13.397932452829878"><ele>60.0</ele><time>2026-04-01T14:37:33Z</time></trkpt><trkpt lat="45.9697066523048" lon="13.397902626167678"><ele>60.0</ele><time>2026-04-01T14:37:34Z</time></trkpt><trkpt lat="45.96980206427347" lon="13.39786968350715"><ele>60.0</ele><time>2026-04-01T14:37:35Z</time></trkpt><trkpt lat="45.96989740735445" lon="13.39783802500133"><ele>60.0</ele><time>2026-04-01T14:37:36Z</time></trkpt><trkpt lat="45.970004682050934" lon="13.397817310784202"><ele>60.0</ele><time>2026-04-01T14:37:37Z</time></trkpt><trkpt lat="45.97012599919063" lon="13.397799251980524"><ele>60.0</ele><time>2026-04-01T14:37:38Z</time></trkpt><trkpt lat="45.970256913430816" lon="13.397790448459313"><ele>60.0</ele><time>2026-04-01T14:37:39Z</time></trkpt><trkpt lat="45.970398091001925" lon="13.39778191779424"><ele>60.0</ele><time>2026-04-01T14:37:40Z</time></trkpt><trkpt lat="45.970544550794656" lon="13.397759357211552"><ele>60.0</ele><time>2026-04-01T14:37:41Z</time></trkpt><trkpt lat="45.970691579685756" lon="13.397748124444407"><ele>60.0</ele><time>2026-04-01T14:37:42Z</time></trkpt><trkpt lat="45.97084136555073" lon="13.397739617265186"><ele>60.33333333333333</ele><time>2026-04-01T14:37:43Z</time></trkpt><trkpt lat="45.97099219126972" lon="13.39772190512911"><ele>60.666666666666664</ele><time>2026-04-01T14:37:44Z</time></trkpt><trkpt lat="45.97114418048042" lon="13.39770828429012"><ele>61.0</ele><time>2026-04-01T14:37:45Z</time></trkpt><trkpt lat="45.97129068981154" lon="13.397700736250808"><ele>61.0</ele><time>2026-04-01T14:37:46Z</time></trkpt><trkpt lat="45.97143597145788" lon="13.397696654342887"><ele>61.0</ele><time>2026-04-01T14:37:47Z</time></trkpt><trkpt lat="45.971573552289726" lon="13.397696260865777"><ele>61.0</ele><time>2026-04-01T14:37:48Z</time></trkpt><trkpt lat="45.97170460762539" lon="13.397690611505352"><ele>61.0</ele><time>2026-04-01T14:37:49Z</time></trkpt><trkpt lat="45.97182140289335" lon="13.397678380926932"><ele>61.0</ele><time>2026-04-01T14:37:50Z</time></trkpt><trkpt lat="45.971938384723394" lon="13.397668572947886"><ele>60.99999999999999</ele><time>2026-04-01T14:37:51Z</time></trkpt><trkpt lat="45.97204768452899" lon="13.397658510715608"><ele>60.99999999999999</ele><time>2026-04-01T14:37:52Z</time></trkpt><trkpt lat="45.972132227454146" lon="13.397658046836767"><ele>61.0</ele><time>2026-04-01T14:37:53Z</time></trkpt><trkpt lat="45.9722027619809" lon="13.397672349704209"><ele>61.0</ele><time>2026-04-01T14:37:54Z</time></trkpt><trkpt lat="45.97227693320167" lon="13.39769938052025"><ele>60.99999999999999</ele><time>2026-04-01T14:37:55Z</time></trkpt><trkpt lat="45.97234235400971" lon="13.397727003896934"><ele>61.0</ele><time>2026-04-01T14:37:56Z</time></trkpt><trkpt lat="45.972419445257664" lon="13.397773904369362"><ele>61.0</ele><time>2026-04-01T14:37:58Z</time></trkpt><trkpt lat="45.972492446198046" lon="13.397854444453365"><ele>61.0</ele><time>2026-04-01T14:38:01Z</time></trkpt><trkpt lat="45.972582071618675" lon="13.39796301798879"><ele>60.99999999999999</ele><time>2026-04-01T14:38:03Z</time></trkpt><trkpt lat="45.972654522624055" lon="13.398000796398449"><ele>61.0</ele><time>2026-04-01T14:38:04Z</time></trkpt><trkpt lat="45.97273544062887" lon="13.397994944587957"><ele>61.166666666666664</ele><time>2026-04-01T14:38:05Z</time></trkpt><trkpt lat="45.97280380929078" lon="13.39794384017574"><ele>61.33333333333333</ele><time>2026-04-01T14:38:06Z</time></trkpt><trkpt lat="45.97284796386054" lon="13.397843197251278"><ele>61.5</ele><time>2026-04-01T14:38:07Z</time></trkpt><trkpt lat="45.97288280349519" lon="13.397739702160834"><ele>61.66666666666667</ele><time>2026-04-01T14:38:08Z</time></trkpt><trkpt lat="45.97292177433431" lon="13.397647413796566"><ele>61.833333333333336</ele><time>2026-04-01T14:38:09Z</time></trkpt><trkpt lat="45.97298182643133" lon="13.397571633910786"><ele>62.0</ele><time>2026-04-01T14:38:10Z</time></trkpt><trkpt lat="45.97304765551891" lon="13.397499599887757"><ele>62.0</ele><time>2026-04-01T14:38:11Z</time></trkpt><trkpt lat="45.97315167489928" lon="13.397537777227978"><ele>62.0</ele><time>2026-04-01T14:38:12Z</time></trkpt><trkpt lat="45.97324702895393" lon="13.397536942784045"><ele>62.0</ele><time>2026-04-01T14:38:13Z</time></trkpt><trkpt lat="45.97334530543518" lon="13.397505085011296"><ele>62.0</ele><time>2026-04-01T14:38:14Z</time></trkpt><trkpt lat="45.973450343883826" lon="13.3974781454286"><ele>62.0</ele><time>2026-04-01T14:38:15Z</time></trkpt><trkpt lat="45.973566050723896" lon="13.397456425129748"><ele>62.0</ele><time>2026-04-01T14:38:16Z</time></trkpt><trkpt lat="45.97368854828512" lon="13.397430858554275"><ele>62.0</ele><time>2026-04-01T14:38:17Z</time></trkpt><trkpt lat="45.97380823816189" lon="13.397403233732572"><ele>62.0</ele><time>2026-04-01T14:38:18Z</time></trkpt><trkpt lat="45.9739080724466" lon="13.397377114269728"><ele>62.0</ele><time>2026-04-01T14:38:19Z</time></trkpt><trkpt lat="45.97400875414765" lon="13.39735171370262"><ele>62.0</ele><time>2026-04-01T14:38:20Z</time></trkpt><trkpt lat="45.974120045102815" lon="13.397328959699545"><ele>62.00000000000001</ele><time>2026-04-01T14:38:21Z</time></trkpt><trkpt lat="45.97423250857265" lon="13.397306320557835"><ele>62.0</ele><time>2026-04-01T14:38:22Z</time></trkpt><trkpt lat="45.97432888223153" lon="13.397283892955002"><ele>62.0</ele><time>2026-04-01T14:38:23Z</time></trkpt><trkpt lat="45.97441661516564" lon="13.397268203879852"><ele>62.0</ele><time>2026-04-01T14:38:24Z</time></trkpt><trkpt lat="45.97449324639585" lon="13.397252665389368"><ele>62.00000000000001</ele><time>2026-04-01T14:38:25Z</time></trkpt><trkpt lat="45.97456135509926" lon="13.397237910055278"><ele>62.0</ele><time>2026-04-01T14:38:26Z</time></trkpt><trkpt lat="45.974628051155726" lon="13.397225127129172"><ele>62.0</ele><time>2026-04-01T14:38:27Z</time></trkpt><trkpt lat="45.9747318186855" lon="13.397201642980205"><ele>62.0</ele><time>2026-04-01T14:38:29Z</time></trkpt><trkpt lat="45.97483100982857" lon="13.397176775048662"><ele>62.0</ele><time>2026-04-01T14:38:31Z</time></trkpt><trkpt lat="45.974946195961124" lon="13.397150549785596"><ele>62.0</ele><time>2026-04-01T14:38:33Z</time></trkpt><trkpt lat="45.9750666069792" lon="13.39716017835747"><ele>62.0</ele><time>2026-04-01T14:38:35Z</time></trkpt><trkpt lat="45.97513302190935" lon="13.397133852170244"><ele>62.00000000000001</ele><time>2026-04-01T14:38:36Z</time></trkpt><trkpt lat="45.975201096852274" lon="13.397109192070388"><ele>62.0</ele><time>2026-04-01T14:38:37Z</time></trkpt><trkpt lat="45.97527579983169" lon="13.397085665948968"><ele>62.0</ele><time>2026-04-01T14:38:38Z</time></trkpt><trkpt lat="45.975362832346484" lon="13.397063999467779"><ele>62.0</ele><time>2026-04-01T14:38:39Z</time></trkpt><trkpt lat="45.97546063604429" lon="13.397038471708369"><ele>62.00000000000001</ele><time>2026-04-01T14:38:40Z</time></trkpt><trkpt lat="45.97556273872952" lon="13.397016247237254"><ele>62.0</ele><time>2026-04-01T14:38:41Z</time></trkpt><trkpt lat="45.9756677804674" lon="13.39699983320175"><ele>62.0</ele><time>2026-04-01T14:38:42Z</time></trkpt><trkpt lat="45.97577846591466" lon="13.396987107989698"><ele>62.0</ele><time>2026-04-01T14:38:43Z</time></trkpt><trkpt lat="45.975896415231645" lon="13.396982075873588"><ele>62.0</ele><time>2026-04-01T14:38:44Z</time></trkpt><trkpt lat="45.976015110743845" lon="13.396974924657949"><ele>62.0</ele><time>2026-04-01T14:38:45Z</time></trkpt><trkpt lat="45.97613949352142" lon="13.396968537039811"><ele>62.25</ele><time>2026-04-01T14:38:46Z</time></trkpt><trkpt lat="45.976281276015676" lon="13.396966450691854"><ele>62.5</ele><time>2026-04-01T14:38:47Z</time></trkpt><trkpt lat="45.97641135403744" lon="13.396957200033082"><ele>62.75</ele><time>2026-04-01T14:38:48Z</time></trkpt><trkpt lat="45.97652205831837" lon="13.396951923174797"><ele>63.0</ele><time>2026-04-01T14:38:49Z</time></trkpt><trkpt lat="45.976616176961784" lon="13.396950750368472"><ele>63.166666666666664</ele><time>2026-04-01T14:38:50Z</time></trkpt><trkpt lat="45.97669155319506" lon="13.396942932003016"><ele>63.33333333333333</ele><time>2026-04-01T14:38:51Z</time></trkpt><trkpt lat="45.97677918792279" lon="13.396932873783369"><ele>63.5</ele><time>2026-04-01T14:38:52Z</time></trkpt><trkpt lat="45.97685381017282" lon="13.396930955395366"><ele>63.666666666666664</ele><time>2026-04-01T14:38:53Z</time></trkpt><trkpt lat="45.97692378559451" lon="13.396924080224386"><ele>63.83333333333333</ele><time>2026-04-01T14:38:54Z</time></trkpt><trkpt lat="45.97699488264949" lon="13.396916266757223"><ele>64.0</ele><time>2026-04-01T14:38:55Z</time></trkpt><trkpt lat="45.977073903873986" lon="13.396903344356272"><ele>64.0</ele><time>2026-04-01T14:38:56Z</time></trkpt><trkpt lat="45.97716967035405" lon="13.396892373991612"><ele>64.0</ele><time>2026-04-01T14:38:57Z</time></trkpt><trkpt lat="45.97728043005318" lon="13.396876113345286"><ele>64.0</ele><time>2026-04-01T14:38:58Z</time></trkpt><trkpt lat="45.97739470542313" lon="13.396862822023047"><ele>64.0</ele><time>2026-04-01T14:38:59Z</time></trkpt><trkpt lat="45.97754655360003" lon="13.396827435332847"><ele>63.75</ele><time>2026-04-01T14:39:00Z</time></trkpt><trkpt lat="45.977689701370444" lon="13.396802658599071"><ele>63.5</ele><time>2026-04-01T14:39:01Z</time></trkpt><trkpt lat="45.977816173006254" lon="13.396782496798968"><ele>63.25</ele><time>2026-04-01T14:39:02Z</time></trkpt><trkpt lat="45.9779388401038" lon="13.39675985663275"><ele>63.0</ele><time>2026-04-01T14:39:03Z</time></trkpt><trkpt lat="45.97805680443213" lon="13.39673768720791"><ele>63.0</ele><time>2026-04-01T14:39:04Z</time></trkpt><trkpt lat="45.978164220660254" lon="13.396726755859365"><ele>63.0</ele><time>2026-04-01T14:39:05Z</time></trkpt><trkpt lat="45.97826299906412" lon="13.396726193051766"><ele>63.0</ele><time>2026-04-01T14:39:06Z</time></trkpt><trkpt lat="45.978362649453985" lon="13.39675160285912"><ele>63.0</ele><time>2026-04-01T14:39:07Z</time></trkpt><trkpt lat="45.978460033167025" lon="13.396795568353209"><ele>63.0</ele><time>2026-04-01T14:39:08Z</time></trkpt><trkpt lat="45.97855845963369" lon="13.396868285504592"><ele>63.0</ele><time>2026-04-01T14:39:09Z</time></trkpt><trkpt lat="45.97865744281677" lon="13.396944314392464"><ele>63.0</ele><time>2026-04-01T14:39:10Z</time></trkpt><trkpt lat="45.978754149190905" lon="13.397023310886985"><ele>63.0</ele><time>2026-04-01T14:39:11Z</time></trkpt><trkpt lat="45.978835473216826" lon="13.397104834930124"><ele>63.0</ele><time>2026-04-01T14:39:12Z</time></trkpt><trkpt lat="45.9789002512404" lon="13.39718723369717"><ele>63.0</ele><time>2026-04-01T14:39:13Z</time></trkpt><trkpt lat="45.978961298712825" lon="13.397271940054756"><ele>63.0</ele><time>2026-04-01T14:39:14Z</time></trkpt><trkpt lat="45.979020649337286" lon="13.397356324305186"><ele>63.0</ele><time>2026-04-01T14:39:15Z</time></trkpt><trkpt lat="45.97907809988585" lon="13.397438898938356"><ele>63.0</ele><time>2026-04-01T14:39:16Z</time></trkpt><trkpt lat="45.9791301767306" lon="13.397514158807644"><ele>63.0</ele><time>2026-04-01T14:39:17Z</time></trkpt><trkpt lat="45.97920488853753" lon="13.397648600186102"><ele>63.0</ele><time>2026-04-01T14:39:19Z</time></trkpt><trkpt lat="45.97927143827036" lon="13.397776110252062"><ele>63.2</ele><time>2026-04-01T14:39:20.999Z</time></trkpt><trkpt lat="45.97937208477642" lon="13.397859773096172"><ele>63.4</ele><time>2026-04-01T14:39:22.999Z</time></trkpt><trkpt lat="45.979363765078" lon="13.3980617282321"><ele>63.60000000000001</ele><time>2026-04-01T14:39:23.999Z</time></trkpt><trkpt lat="45.97938231074819" lon="13.398176963562767"><ele>63.800000000000004</ele><time>2026-04-01T14:39:24.999Z</time></trkpt><trkpt lat="45.979396758871644" lon="13.398292373581251"><ele>64.0</ele><time>2026-04-01T14:39:25.999Z</time></trkpt><trkpt lat="45.979404260303895" lon="13.39839456300814"><ele>63.6</ele><time>2026-04-01T14:39:26.999Z</time></trkpt><trkpt lat="45.97940647757285" lon="13.398558824626134"><ele>63.2</ele><time>2026-04-01T14:39:28.999Z</time></trkpt><trkpt lat="45.97941031122895" lon="13.398695165903106"><ele>62.800000000000004</ele><time>2026-04-01T14:39:30.999Z</time></trkpt><trkpt lat="45.9794090390608" lon="13.398868448498147"><ele>62.400000000000006</ele><time>2026-04-01T14:39:32.999Z</time></trkpt><trkpt lat="45.97941153526534" lon="13.398978201734106"><ele>62.0</ele><time>2026-04-01T14:39:33.999Z</time></trkpt><trkpt lat="45.97941993597091" lon="13.399099633978501"><ele>62.0</ele><time>2026-04-01T14:39:34.999Z</time></trkpt><trkpt lat="45.97945280171962" lon="13.399222715200562"><ele>62.0</ele><time>2026-04-01T14:39:35.999Z</time></trkpt><trkpt lat="45.97950466355271" lon="13.399345459575144"><ele>62.0</ele><time>2026-04-01T14:39:37Z</time></trkpt><trkpt lat="45.97955492899514" lon="13.3994849457387"><ele>62.0</ele><time>2026-04-01T14:39:38Z</time></trkpt><trkpt lat="45.97960125453917" lon="13.399620225725352"><ele>62.0</ele><time>2026-04-01T14:39:39Z</time></trkpt><trkpt lat="45.97964006467601" lon="13.399764593425028"><ele>62.2</ele><time>2026-04-01T14:39:40Z</time></trkpt><trkpt lat="45.97968176822409" lon="13.399910103337245"><ele>62.400000000000006</ele><time>2026-04-01T14:39:41Z</time></trkpt><trkpt lat="45.97972688753392" lon="13.400054952982169"><ele>62.599999999999994</ele><time>2026-04-01T14:39:42Z</time></trkpt><trkpt lat="45.97976638620463" lon="13.400199788726189"><ele>62.8</ele><time>2026-04-01T14:39:43Z</time></trkpt><trkpt lat="45.979802468266506" lon="13.400330843548803"><ele>63.0</ele><time>2026-04-01T14:39:44Z</time></trkpt><trkpt lat="45.979833105210425" lon="13.400445654047394"><ele>63.0</ele><time>2026-04-01T14:39:45Z</time></trkpt><trkpt lat="45.979863510032175" lon="13.400553687339512"><ele>63.0</ele><time>2026-04-01T14:39:46Z</time></trkpt><trkpt lat="45.97989869489696" lon="13.400663767569663"><ele>63.0</ele><time>2026-04-01T14:39:47Z</time></trkpt><trkpt lat="45.979939540476956" lon="13.400775231053965"><ele>63.0</ele><time>2026-04-01T14:39:48Z</time></trkpt><trkpt lat="45.979963972344585" lon="13.400877577012581"><ele>63.0</ele><time>2026-04-01T14:39:49Z</time></trkpt><trkpt lat="45.980026474474336" lon="13.401011266057656"><ele>63.0</ele><time>2026-04-01T14:39:50Z</time></trkpt><trkpt lat="45.98008538392414" lon="13.401154059877"><ele>63.0</ele><time>2026-04-01T14:39:51Z</time></trkpt><trkpt lat="45.980149670337155" lon="13.401307377929694"><ele>63.0</ele><time>2026-04-01T14:39:52Z</time></trkpt><trkpt lat="45.980211676736346" lon="13.40144666316577"><ele>63.0</ele><time>2026-04-01T14:39:53Z</time></trkpt><trkpt lat="45.980259586209435" lon="13.401587767155677"><ele>63.0</ele><time>2026-04-01T14:39:54Z</time></trkpt><trkpt lat="45.98029705647341" lon="13.401741249028545"><ele>63.4</ele><time>2026-04-01T14:39:55Z</time></trkpt><trkpt lat="45.98031982113384" lon="13.401900543126144"><ele>63.8</ele><time>2026-04-01T14:39:56Z</time></trkpt><trkpt lat="45.98033014916523" lon="13.402057735414399"><ele>64.2</ele><time>2026-04-01T14:39:57Z</time></trkpt><trkpt lat="45.980349557327855" lon="13.40221271707296"><ele>64.6</ele><time>2026-04-01T14:39:58Z</time></trkpt><trkpt lat="45.98036137706013" lon="13.402366283871771"><ele>65.0</ele><time>2026-04-01T14:39:59Z</time></trkpt><trkpt lat="45.980409951977634" lon="13.40249688941068"><ele>65.33333333333334</ele><time>2026-04-01T14:40:00Z</time></trkpt><trkpt lat="45.98044328969171" lon="13.402611883825164"><ele>65.66666666666667</ele><time>2026-04-01T14:40:01Z</time></trkpt><trkpt lat="45.98047322101263" lon="13.402714040731421"><ele>66.0</ele><time>2026-04-01T14:40:02Z</time></trkpt><trkpt lat="45.98050137320156" lon="13.40280988851697"><ele>66.33333333333333</ele><time>2026-04-01T14:40:03Z</time></trkpt><trkpt lat="45.9805305361333" lon="13.402902831143708"><ele>66.66666666666666</ele><time>2026-04-01T14:40:04Z</time></trkpt><trkpt lat="45.980564598690144" lon="13.403007764308267"><ele>67.0</ele><time>2026-04-01T14:40:05Z</time></trkpt><trkpt lat="45.98060211766911" lon="13.403123785385738"><ele>67.0</ele><time>2026-04-01T14:40:06Z</time></trkpt><trkpt lat="45.980640811808904" lon="13.40324197679673"><ele>67.0</ele><time>2026-04-01T14:40:07Z</time></trkpt><trkpt lat="45.98068460869601" lon="13.403359891117255"><ele>67.0</ele><time>2026-04-01T14:40:08Z</time></trkpt><trkpt lat="45.98072656761719" lon="13.403478909996464"><ele>67.0</ele><time>2026-04-01T14:40:09Z</time></trkpt><trkpt lat="45.98077060419528" lon="13.403600370537104"><ele>67.0</ele><time>2026-04-01T14:40:10Z</time></trkpt><trkpt lat="45.980816167169976" lon="13.40372109307333"><ele>66.0</ele><time>2026-04-01T14:40:11Z</time></trkpt><trkpt lat="45.98085797836202" lon="13.403839680711222"><ele>65.0</ele><time>2026-04-01T14:40:12Z</time></trkpt><trkpt lat="45.980895670993725" lon="13.403954839518203"><ele>64.0</ele><time>2026-04-01T14:40:13Z</time></trkpt><trkpt lat="45.98093222782919" lon="13.40407908412862"><ele>63.0</ele><time>2026-04-01T14:40:14Z</time></trkpt><trkpt lat="45.98097212125999" lon="13.40421777672318"><ele>62.0</ele><time>2026-04-01T14:40:15Z</time></trkpt><trkpt lat="45.981017715726345" lon="13.404371053072541"><ele>62.0</ele><time>2026-04-01T14:40:16Z</time></trkpt><trkpt lat="45.981074521662244" lon="13.404533501817506"><ele>62.0</ele><time>2026-04-01T14:40:17Z</time></trkpt><trkpt lat="45.98114508225415" lon="13.404695567723195"><ele>62.0</ele><time>2026-04-01T14:40:18Z</time></trkpt><trkpt lat="45.98124211212906" lon="13.404858921134672"><ele>62.0</ele><time>2026-04-01T14:40:19Z</time></trkpt><trkpt lat="45.981351920826825" lon="13.405016834666247"><ele>62.25</ele><time>2026-04-01T14:40:20Z</time></trkpt><trkpt lat="45.98145219571225" lon="13.405164268066372"><ele>62.5</ele><time>2026-04-01T14:40:21Z</time></trkpt><trkpt lat="45.98154746984406" lon="13.405303431641402"><ele>62.75</ele><time>2026-04-01T14:40:22Z</time></trkpt><trkpt lat="45.98164023877581" lon="13.405440179390903"><ele>63.0</ele><time>2026-04-01T14:40:23Z</time></trkpt><trkpt lat="45.981722356652575" lon="13.405581760245258"><ele>63.25</ele><time>2026-04-01T14:40:24Z</time></trkpt><trkpt lat="45.98179558523419" lon="13.40573603284524"><ele>63.5</ele><time>2026-04-01T14:40:25Z</time></trkpt><trkpt lat="45.9818555862449" lon="13.405904359087081"><ele>63.75</ele><time>2026-04-01T14:40:26Z</time></trkpt><trkpt lat="45.981912519869155" lon="13.406067127362391"><ele>64.0</ele><time>2026-04-01T14:40:27Z</time></trkpt><trkpt lat="45.981974425806456" lon="13.406227493885314"><ele>64.5</ele><time>2026-04-01T14:40:28Z</time></trkpt><trkpt lat="45.98203734761435" lon="13.406385405085208"><ele>65.0</ele><time>2026-04-01T14:40:29Z</time></trkpt><trkpt lat="45.98210879953318" lon="13.406540195313799"><ele>65.5</ele><time>2026-04-01T14:40:30Z</time></trkpt><trkpt lat="45.98219338691143" lon="13.406695472878518"><ele>66.0</ele><time>2026-04-01T14:40:31Z</time></trkpt><trkpt lat="45.982293630013245" lon="13.406842975472491"><ele>66.0</ele><time>2026-04-01T14:40:32Z</time></trkpt><trkpt lat="45.982408357946994" lon="13.406976215961564"><ele>66.0</ele><time>2026-04-01T14:40:33Z</time></trkpt><trkpt lat="45.982528781253095" lon="13.40708875331765"><ele>66.0</ele><time>2026-04-01T14:40:34Z</time></trkpt><trkpt lat="45.9826521704461" lon="13.407189112095478"><ele>66.0</ele><time>2026-04-01T14:40:35Z</time></trkpt><trkpt lat="45.98278287693611" lon="13.4072693624169"><ele>66.0</ele><time>2026-04-01T14:40:36Z</time></trkpt><trkpt lat="45.982918367445" lon="13.407322092485368"><ele>66.0</ele><time>2026-04-01T14:40:37Z</time></trkpt><trkpt lat="45.98304259828574" lon="13.407371656823294"><ele>66.0</ele><time>2026-04-01T14:40:38Z</time></trkpt><trkpt lat="45.9831477245466" lon="13.407417659855705"><ele>66.0</ele><time>2026-04-01T14:40:39Z</time></trkpt><trkpt lat="45.98325147826311" lon="13.407463176988681"><ele>66.0</ele><time>2026-04-01T14:40:40Z</time></trkpt><trkpt lat="45.98335738866119" lon="13.40750889068602"><ele>66.0</ele><time>2026-04-01T14:40:41Z</time></trkpt><trkpt lat="45.983445371279196" lon="13.407544614007971"><ele>66.0</ele><time>2026-04-01T14:40:42Z</time></trkpt><trkpt lat="45.98350937400521" lon="13.407570093548312"><ele>66.0</ele><time>2026-04-01T14:40:43Z</time></trkpt><trkpt lat="45.983604110543276" lon="13.407598114035359"><ele>66.0</ele><time>2026-04-01T14:40:45Z</time></trkpt><trkpt lat="45.98366813687388" lon="13.407622658876242"><ele>66.0</ele><time>2026-04-01T14:40:48Z</time></trkpt><trkpt lat="45.983740418856925" lon="13.407652163499737"><ele>66.0</ele><time>2026-04-01T14:40:58Z</time></trkpt><trkpt lat="45.98385952532897" lon="13.407688673564877"><ele>66.0</ele><time>2026-04-01T14:41:00Z</time></trkpt><trkpt lat="45.983934543872984" lon="13.407722549186412"><ele>66.0</ele><time>2026-04-01T14:41:01Z</time></trkpt><trkpt lat="45.984020208607184" lon="13.407760515933791"><ele>66.0</ele><time>2026-04-01T14:41:02Z</time></trkpt><trkpt lat="45.98412162978292" lon="13.40780403967926"><ele>66.0</ele><time>2026-04-01T14:41:03Z</time></trkpt><trkpt lat="45.98422240821917" lon="13.407846739680163"><ele>65.8</ele><time>2026-04-01T14:41:04Z</time></trkpt><trkpt lat="45.98431835608441" lon="13.407882645919289"><ele>65.6</ele><time>2026-04-01T14:41:05Z</time></trkpt><trkpt lat="45.98441549764362" lon="13.407908992035226"><ele>65.4</ele><time>2026-04-01T14:41:06Z</time></trkpt><trkpt lat="45.98451541651466" lon="13.407929781850298"><ele>65.2</ele><time>2026-04-01T14:41:07Z</time></trkpt><trkpt lat="45.9846152352087" lon="13.407957741397462"><ele>65.0</ele><time>2026-04-01T14:41:08Z</time></trkpt><trkpt lat="45.984710220867264" lon="13.407989110409297"><ele>64.8</ele><time>2026-04-01T14:41:09Z</time></trkpt><trkpt lat="45.984805803467886" lon="13.408020558678798"><ele>64.6</ele><time>2026-04-01T14:41:10Z</time></trkpt><trkpt lat="45.98490196885545" lon="13.408055348690315"><ele>64.4</ele><time>2026-04-01T14:41:11Z</time></trkpt><trkpt lat="45.98499858423538" lon="13.408097306182444"><ele>64.2</ele><time>2026-04-01T14:41:12Z</time></trkpt><trkpt lat="45.98509392099981" lon="13.40814632473977"><ele>64.0</ele><time>2026-04-01T14:41:13Z</time></trkpt><trkpt lat="45.9851922059891" lon="13.408198347387106"><ele>64.75</ele><time>2026-04-01T14:41:14Z</time></trkpt><trkpt lat="45.98529566810182" lon="13.408254841635575"><ele>65.5</ele><time>2026-04-01T14:41:15Z</time></trkpt><trkpt lat="45.98539984562473" lon="13.408319870016022"><ele>66.25</ele><time>2026-04-01T14:41:16Z</time></trkpt><trkpt lat="45.98550506858047" lon="13.408389712292509"><ele>67.0</ele><time>2026-04-01T14:41:17Z</time></trkpt><trkpt lat="45.98561632778874" lon="13.408466664099025"><ele>67.0</ele><time>2026-04-01T14:41:18Z</time></trkpt><trkpt lat="45.98574013558967" lon="13.408538533214676"><ele>67.0</ele><time>2026-04-01T14:41:19Z</time></trkpt><trkpt lat="45.985870426321995" lon="13.408618085468907"><ele>67.0</ele><time>2026-04-01T14:41:20Z</time></trkpt><trkpt lat="45.986002074736135" lon="13.408697760266353"><ele>67.0</ele><time>2026-04-01T14:41:21Z</time></trkpt><trkpt lat="45.98613541237474" lon="13.408777591011452"><ele>67.0</ele><time>2026-04-01T14:41:22Z</time></trkpt><trkpt lat="45.986268084805104" lon="13.408862080681704"><ele>67.0</ele><time>2026-04-01T14:41:23Z</time></trkpt><trkpt lat="45.98640601829938" lon="13.40896518220767"><ele>67.0</ele><time>2026-04-01T14:41:24Z</time></trkpt><trkpt lat="45.98653952335103" lon="13.409090271094582"><ele>67.0</ele><time>2026-04-01T14:41:24.999Z</time></trkpt><trkpt lat="45.986667711533556" lon="13.409219164457157"><ele>67.0</ele><time>2026-04-01T14:41:25.999Z</time></trkpt><trkpt lat="45.98678996002934" lon="13.409342557294128"><ele>67.0</ele><time>2026-04-01T14:41:26.999Z</time></trkpt><trkpt lat="45.98691137323693" lon="13.409465199325922"><ele>67.0</ele><time>2026-04-01T14:41:27.999Z</time></trkpt><trkpt lat="45.98704455150791" lon="13.409584322683513"><ele>67.0</ele><time>2026-04-01T14:41:28.999Z</time></trkpt><trkpt lat="45.98719615278324" lon="13.409680632330588"><ele>67.0</ele><time>2026-04-01T14:41:29.999Z</time></trkpt><trkpt lat="45.98737089985655" lon="13.409763146435568"><ele>68.0</ele><time>2026-04-01T14:41:30.999Z</time></trkpt><trkpt lat="45.987561644612455" lon="13.409851726685742"><ele>69.0</ele><time>2026-04-01T14:41:31.999Z</time></trkpt><trkpt lat="45.98776522839586" lon="13.4099470215293"><ele>70.0</ele><time>2026-04-01T14:41:32.999Z</time></trkpt><trkpt lat="45.987974722059626" lon="13.410046336580725"><ele>70.0</ele><time>2026-04-01T14:41:33.999Z</time></trkpt><trkpt lat="45.988191678077996" lon="13.410174340440955"><ele>70.0</ele><time>2026-04-01T14:41:34.999Z</time></trkpt><trkpt lat="45.988431141115036" lon="13.410291994909228"><ele>71.5</ele><time>2026-04-01T14:41:35.999Z</time></trkpt><trkpt lat="45.98867801503677" lon="13.410386711117928"><ele>73.0</ele><time>2026-04-01T14:41:36.999Z</time></trkpt><trkpt lat="45.98889365042597" lon="13.410494537035659"><ele>73.0</ele><time>2026-04-01T14:41:37.999Z</time></trkpt><trkpt lat="45.98909014998592" lon="13.41059319441835"><ele>73.0</ele><time>2026-04-01T14:41:38.999Z</time></trkpt><trkpt lat="45.98927811254082" lon="13.410702434228092"><ele>73.0</ele><time>2026-04-01T14:41:39.999Z</time></trkpt><trkpt lat="45.98945369415435" lon="13.410826241989186"><ele>73.33333333333333</ele><time>2026-04-01T14:41:40.999Z</time></trkpt><trkpt lat="45.989625919856095" lon="13.410969812017504"><ele>73.66666666666667</ele><time>2026-04-01T14:41:41.999Z</time></trkpt><trkpt lat="45.98979800796009" lon="13.411126580144861"><ele>74.0</ele><time>2026-04-01T14:41:43Z</time></trkpt><trkpt lat="45.9899694810054" lon="13.411280474033143"><ele>74.33333333333334</ele><time>2026-04-01T14:41:44Z</time></trkpt><trkpt lat="45.99014023633017" lon="13.411434306963509"><ele>74.66666666666667</ele><time>2026-04-01T14:41:45Z</time></trkpt><trkpt lat="45.990301802414535" lon="13.411582170210947"><ele>75.0</ele><time>2026-04-01T14:41:46Z</time></trkpt><trkpt lat="45.990447952796096" lon="13.411719403820246"><ele>75.0</ele><time>2026-04-01T14:41:47Z</time></trkpt><trkpt lat="45.9905940236764" lon="13.411845774751702"><ele>75.0</ele><time>2026-04-01T14:41:48Z</time></trkpt><trkpt lat="45.99075593063912" lon="13.411939020902473"><ele>75.0</ele><time>2026-04-01T14:41:49Z</time></trkpt><trkpt lat="45.99093498034806" lon="13.411989494112504"><ele>76.0</ele><time>2026-04-01T14:41:50Z</time></trkpt><trkpt lat="45.991126469804485" lon="13.412004174575326"><ele>77.0</ele><time>2026-04-01T14:41:51Z</time></trkpt><trkpt lat="45.99130156470465" lon="13.412029822620196"><ele>78.0</ele><time>2026-04-01T14:41:52Z</time></trkpt><trkpt lat="45.99147059034283" lon="13.41208937952085"><ele>77.33333333333333</ele><time>2026-04-01T14:41:53Z</time></trkpt><trkpt lat="45.991644535982665" lon="13.412195572917607"><ele>76.66666666666666</ele><time>2026-04-01T14:41:54Z</time></trkpt><trkpt lat="45.99182075415855" lon="13.412316919642244"><ele>76.0</ele><time>2026-04-01T14:41:55Z</time></trkpt><trkpt lat="45.99198864123916" lon="13.412431577537758"><ele>79.66666666666666</ele><time>2026-04-01T14:41:56Z</time></trkpt><trkpt lat="45.9921509899406" lon="13.412542175577114"><ele>83.33333333333333</ele><time>2026-04-01T14:41:57Z</time></trkpt><trkpt lat="45.99231319488013" lon="13.41264467353604"><ele>87.0</ele><time>2026-04-01T14:41:58Z</time></trkpt><trkpt lat="45.99247046737575" lon="13.412734002926573"><ele>92.33333333333334</ele><time>2026-04-01T14:41:59Z</time></trkpt><trkpt lat="45.99261994277383" lon="13.412795978225509"><ele>97.66666666666667</ele><time>2026-04-01T14:42:00Z</time></trkpt><trkpt lat="45.992774127700244" lon="13.412824260085815"><ele>103.0</ele><time>2026-04-01T14:42:01Z</time></trkpt><trkpt lat="45.99293047566338" lon="13.412833403137"><ele>103.0</ele><time>2026-04-01T14:42:02Z</time></trkpt><trkpt lat="45.9930713771221" lon="13.412830485105006"><ele>103.0</ele><time>2026-04-01T14:42:03Z</time></trkpt><trkpt lat="45.99320675580236" lon="13.412812658926839"><ele>103.0</ele><time>2026-04-01T14:42:04Z</time></trkpt><trkpt lat="45.99333669605313" lon="13.412780647835813"><ele>103.0</ele><time>2026-04-01T14:42:05Z</time></trkpt><trkpt lat="45.99346698268141" lon="13.41275095093699"><ele>103.0</ele><time>2026-04-01T14:42:06Z</time></trkpt><trkpt lat="45.993596287483676" lon="13.412749545362107"><ele>103.0</ele><time>2026-04-01T14:42:07Z</time></trkpt><trkpt lat="45.993723586748956" lon="13.412761793148384"><ele>103.0</ele><time>2026-04-01T14:42:08Z</time></trkpt><trkpt lat="45.993846497616985" lon="13.41277348747667"><ele>103.0</ele><time>2026-04-01T14:42:09Z</time></trkpt><trkpt lat="45.99397202075707" lon="13.412765655658006"><ele>103.0</ele><time>2026-04-01T14:42:10Z</time></trkpt><trkpt lat="45.99409486024378" lon="13.412732301154445"><ele>103.0</ele><time>2026-04-01T14:42:11Z</time></trkpt><trkpt lat="45.994222886420964" lon="13.4126664051624"><ele>103.0</ele><time>2026-04-01T14:42:12Z</time></trkpt><trkpt lat="45.99435554350949" lon="13.412577616523503"><ele>103.0</ele><time>2026-04-01T14:42:13Z</time></trkpt><trkpt lat="45.994490647769226" lon="13.412485167463194"><ele>104.5</ele><time>2026-04-01T14:42:14Z</time></trkpt><trkpt lat="45.994620576354684" lon="13.412399397197461"><ele>106.0</ele><time>2026-04-01T14:42:15Z</time></trkpt><trkpt lat="45.99474185568742" lon="13.412320421599714"><ele>107.5</ele><time>2026-04-01T14:42:16Z</time></trkpt><trkpt lat="45.99486010755871" lon="13.41224951669275"><ele>109.0</ele><time>2026-04-01T14:42:17Z</time></trkpt><trkpt lat="45.99496453114488" lon="13.41219704129868"><ele>109.4</ele><time>2026-04-01T14:42:18Z</time></trkpt><trkpt lat="45.99505442448534" lon="13.412158881381993"><ele>109.80000000000001</ele><time>2026-04-01T14:42:19Z</time></trkpt><trkpt lat="45.99514320370683" lon="13.412140460829802"><ele>110.19999999999999</ele><time>2026-04-01T14:42:20Z</time></trkpt><trkpt lat="45.99523873491034" lon="13.412146905948491"><ele>110.6</ele><time>2026-04-01T14:42:21Z</time></trkpt><trkpt lat="45.995344181965606" lon="13.412174714730376"><ele>111.0</ele><time>2026-04-01T14:42:22Z</time></trkpt><trkpt lat="45.995459911142035" lon="13.41220578267052"><ele>111.0</ele><time>2026-04-01T14:42:23Z</time></trkpt><trkpt lat="45.995573161297784" lon="13.412224984644755"><ele>111.0</ele><time>2026-04-01T14:42:24Z</time></trkpt><trkpt lat="45.995669317680985" lon="13.412246669091122"><ele>111.0</ele><time>2026-04-01T14:42:25Z</time></trkpt><trkpt lat="45.99577331352824" lon="13.412268279465447"><ele>111.0</ele><time>2026-04-01T14:42:26Z</time></trkpt><trkpt lat="45.995883329986235" lon="13.412291741661225"><ele>111.0</ele><time>2026-04-01T14:42:27Z</time></trkpt><trkpt lat="45.99599591852523" lon="13.412318325670817"><ele>111.5</ele><time>2026-04-01T14:42:28Z</time></trkpt><trkpt lat="45.99611309630763" lon="13.412340896678197"><ele>112.0</ele><time>2026-04-01T14:42:29Z</time></trkpt><trkpt lat="45.996231730732944" lon="13.412377090106666"><ele>112.5</ele><time>2026-04-01T14:42:30Z</time></trkpt><trkpt lat="45.99634387645558" lon="13.412408415888105"><ele>113.0</ele><time>2026-04-01T14:42:31Z</time></trkpt><trkpt lat="45.996449955184026" lon="13.412448411990534"><ele>113.0</ele><time>2026-04-01T14:42:32Z</time></trkpt><trkpt lat="45.99655339717821" lon="13.412496770576862"><ele>113.00000000000001</ele><time>2026-04-01T14:42:33Z</time></trkpt><trkpt lat="45.996658056380824" lon="13.412550113635307"><ele>113.00000000000001</ele><time>2026-04-01T14:42:34Z</time></trkpt><trkpt lat="45.99676334259477" lon="13.412607021819266"><ele>113.0</ele><time>2026-04-01T14:42:35Z</time></trkpt><trkpt lat="45.99687067109911" lon="13.412670663451298"><ele>113.0</ele><time>2026-04-01T14:42:36Z</time></trkpt><trkpt lat="45.99697712731348" lon="13.412735719288074"><ele>112.4</ele><time>2026-04-01T14:42:37Z</time></trkpt><trkpt lat="45.99707756632754" lon="13.412800959694028"><ele>111.80000000000001</ele><time>2026-04-01T14:42:38Z</time></trkpt><trkpt lat="45.997168623918476" lon="13.412885484802374"><ele>111.2</ele><time>2026-04-01T14:42:39Z</time></trkpt><trkpt lat="45.99724357079496" lon="13.412997929366378"><ele>110.6</ele><time>2026-04-01T14:42:40Z</time></trkpt><trkpt lat="45.99731163394874" lon="13.413132638319976"><ele>110.0</ele><time>2026-04-01T14:42:41Z</time></trkpt><trkpt lat="45.9973777371669" lon="13.413271179606534"><ele>110.0</ele><time>2026-04-01T14:42:42Z</time></trkpt><trkpt lat="45.99745943557662" lon="13.413400404645188"><ele>110.0</ele><time>2026-04-01T14:42:43Z</time></trkpt><trkpt lat="45.99755743470228" lon="13.413505297223601"><ele>110.0</ele><time>2026-04-01T14:42:44Z</time></trkpt><trkpt lat="45.997668380116366" lon="13.413588594119574"><ele>110.0</ele><time>2026-04-01T14:42:45Z</time></trkpt><trkpt lat="45.99778350163383" lon="13.41365438407832"><ele>111.5</ele><time>2026-04-01T14:42:46Z</time></trkpt><trkpt lat="45.99789655136643" lon="13.413715880382869"><ele>113.0</ele><time>2026-04-01T14:42:47Z</time></trkpt><trkpt lat="45.9980014766458" lon="13.41380321218652"><ele>114.5</ele><time>2026-04-01T14:42:48Z</time></trkpt><trkpt lat="45.99809604822544" lon="13.413919072148504"><ele>116.0</ele><time>2026-04-01T14:42:49Z</time></trkpt><trkpt lat="45.99818994367124" lon="13.414041638114517"><ele>115.8</ele><time>2026-04-01T14:42:50Z</time></trkpt><trkpt lat="45.99828254345323" lon="13.414164247552478"><ele>115.6</ele><time>2026-04-01T14:42:51Z</time></trkpt><trkpt lat="45.99835762254266" lon="13.414269118537444"><ele>115.4</ele><time>2026-04-01T14:42:52Z</time></trkpt><trkpt lat="45.99841483098392" lon="13.41438089152413"><ele>115.2</ele><time>2026-04-01T14:42:53Z</time></trkpt><trkpt lat="45.99847217837746" lon="13.41451973341573"><ele>115.0</ele><time>2026-04-01T14:42:54Z</time></trkpt><trkpt lat="45.99852529524771" lon="13.414668119664354"><ele>115.0</ele><time>2026-04-01T14:42:55Z</time></trkpt><trkpt lat="45.9985707995062" lon="13.414813138005638"><ele>115.0</ele><time>2026-04-01T14:42:56Z</time></trkpt><trkpt lat="45.99861361855396" lon="13.414965335042702"><ele>115.0</ele><time>2026-04-01T14:42:57Z</time></trkpt><trkpt lat="45.99865662226732" lon="13.415126099602213"><ele>115.0</ele><time>2026-04-01T14:42:58Z</time></trkpt><trkpt lat="45.998711996276604" lon="13.415290194443884"><ele>115.0</ele><time>2026-04-01T14:42:59Z</time></trkpt><trkpt lat="45.99879797554422" lon="13.415436153600915"><ele>115.0</ele><time>2026-04-01T14:43:00Z</time></trkpt><trkpt lat="45.998888872966525" lon="13.415557734501737"><ele>115.0</ele><time>2026-04-01T14:43:01Z</time></trkpt><trkpt lat="45.99898011862978" lon="13.415652230260271"><ele>115.0</ele><time>2026-04-01T14:43:02Z</time></trkpt><trkpt lat="45.99907223178988" lon="13.41574031442545"><ele>116.5</ele><time>2026-04-01T14:43:03Z</time></trkpt><trkpt lat="45.99919071500354" lon="13.415770168664935"><ele>118.0</ele><time>2026-04-01T14:43:04Z</time></trkpt><trkpt lat="45.99930481571533" lon="13.415811111050576"><ele>119.5</ele><time>2026-04-01T14:43:05Z</time></trkpt><trkpt lat="45.99940755923662" lon="13.415863186471526"><ele>121.0</ele><time>2026-04-01T14:43:06Z</time></trkpt><trkpt lat="45.99949686746549" lon="13.41594890022077"><ele>121.0</ele><time>2026-04-01T14:43:07Z</time></trkpt><trkpt lat="45.99957355051403" lon="13.416047408542664"><ele>121.0</ele><time>2026-04-01T14:43:08Z</time></trkpt><trkpt lat="45.99964196179801" lon="13.416137238130155"><ele>121.0</ele><time>2026-04-01T14:43:09Z</time></trkpt><trkpt lat="45.999724979252704" lon="13.416215097505098"><ele>121.0</ele><time>2026-04-01T14:43:10Z</time></trkpt><trkpt lat="45.999822097291094" lon="13.4162716577136"><ele>121.0</ele><time>2026-04-01T14:43:11Z</time></trkpt><trkpt lat="45.999928322605314" lon="13.41631307749508"><ele>119.83333333333334</ele><time>2026-04-01T14:43:12Z</time></trkpt><trkpt lat="46.00003675803415" lon="13.416356989771671"><ele>118.66666666666667</ele><time>2026-04-01T14:43:13Z</time></trkpt><trkpt lat="46.00012913799505" lon="13.416396056031147"><ele>117.5</ele><time>2026-04-01T14:43:14Z</time></trkpt><trkpt lat="46.000212219118694" lon="13.416430831281543"><ele>116.33333333333334</ele><time>2026-04-01T14:43:15Z</time></trkpt><trkpt lat="46.000288095871504" lon="13.416462177308485"><ele>115.16666666666667</ele><time>2026-04-01T14:43:16Z</time></trkpt><trkpt lat="46.00035309286831" lon="13.416479652477177"><ele>114.0</ele><time>2026-04-01T14:43:17Z</time></trkpt><trkpt lat="46.00041900260179" lon="13.41647036864623"><ele>114.0</ele><time>2026-04-01T14:43:18Z</time></trkpt><trkpt lat="46.000523142293" lon="13.416433185056112"><ele>114.0</ele><time>2026-04-01T14:43:20Z</time></trkpt><trkpt lat="46.00061863642523" lon="13.416305250997501"><ele>114.0</ele><time>2026-04-01T14:43:22Z</time></trkpt><trkpt lat="46.00066338533467" lon="13.416197410912506"><ele>114.0</ele><time>2026-04-01T14:43:23Z</time></trkpt><trkpt lat="46.000688578784015" lon="13.4160689231971"><ele>114.0</ele><time>2026-04-01T14:43:24Z</time></trkpt><trkpt lat="46.00072072543022" lon="13.415934132960906"><ele>115.5</ele><time>2026-04-01T14:43:25Z</time></trkpt><trkpt lat="46.00078789384262" lon="13.4158154495061"><ele>117.0</ele><time>2026-04-01T14:43:26Z</time></trkpt><trkpt lat="46.000887802008265" lon="13.41571393290071"><ele>118.5</ele><time>2026-04-01T14:43:27Z</time></trkpt><trkpt lat="46.00099755099415" lon="13.415632124196826"><ele>120.0</ele><time>2026-04-01T14:43:27.999Z</time></trkpt><trkpt lat="46.00109782588312" lon="13.415538785326778"><ele>119.0</ele><time>2026-04-01T14:43:28.999Z</time></trkpt><trkpt lat="46.00119986340941" lon="13.415432085493677"><ele>118.0</ele><time>2026-04-01T14:43:29.999Z</time></trkpt><trkpt lat="46.001296000923446" lon="13.41531998387214"><ele>117.0</ele><time>2026-04-01T14:43:30.999Z</time></trkpt><trkpt lat="46.00139561068929" lon="13.4152140213545"><ele>116.0</ele><time>2026-04-01T14:43:31.999Z</time></trkpt><trkpt lat="46.00150734385174" lon="13.415139722902751"><ele>116.0</ele><time>2026-04-01T14:43:32.999Z</time></trkpt><trkpt lat="46.00162231353167" lon="13.415087724262888"><ele>116.0</ele><time>2026-04-01T14:43:33.999Z</time></trkpt><trkpt lat="46.00173840104734" lon="13.415068722825831"><ele>116.0</ele><time>2026-04-01T14:43:34.999Z</time></trkpt><trkpt lat="46.001859764923324" lon="13.41508192614082"><ele>116.0</ele><time>2026-04-01T14:43:35.999Z</time></trkpt><trkpt lat="46.00198748038943" lon="13.415085722949927"><ele>117.49999999999999</ele><time>2026-04-01T14:43:36.999Z</time></trkpt><trkpt lat="46.00211020096609" lon="13.415075464995926"><ele>119.0</ele><time>2026-04-01T14:43:37.999Z</time></trkpt><trkpt lat="46.00221111941299" lon="13.415070848721205"><ele>120.5</ele><time>2026-04-01T14:43:38.999Z</time></trkpt><trkpt lat="46.00229384915512" lon="13.415083578632933"><ele>122.0</ele><time>2026-04-01T14:43:39.999Z</time></trkpt><trkpt lat="46.00235830662952" lon="13.415122117346824"><ele>123.49999999999999</ele><time>2026-04-01T14:43:40.999Z</time></trkpt><trkpt lat="46.002418325223296" lon="13.415176648184824"><ele>125.0</ele><time>2026-04-01T14:43:41.999Z</time></trkpt><trkpt lat="46.00247901787119" lon="13.415252583606422"><ele>125.2</ele><time>2026-04-01T14:43:42.999Z</time></trkpt><trkpt lat="46.00254724977944" lon="13.415339022017344"><ele>125.4</ele><time>2026-04-01T14:43:43.999Z</time></trkpt><trkpt lat="46.00262795032988" lon="13.415416234047688"><ele>125.6</ele><time>2026-04-01T14:43:44.999Z</time></trkpt><trkpt lat="46.002706132422844" lon="13.415482896361553"><ele>125.8</ele><time>2026-04-01T14:43:45.999Z</time></trkpt><trkpt lat="46.00278999485182" lon="13.415538213791478"><ele>126.0</ele><time>2026-04-01T14:43:46.999Z</time></trkpt><trkpt lat="46.002875104103936" lon="13.41559633964725"><ele>126.6</ele><time>2026-04-01T14:43:47.999Z</time></trkpt><trkpt lat="46.00296232323789" lon="13.415662374785757"><ele>127.19999999999999</ele><time>2026-04-01T14:43:49Z</time></trkpt><trkpt lat="46.00304779818477" lon="13.41573318276914"><ele>127.80000000000001</ele><time>2026-04-01T14:43:50Z</time></trkpt><trkpt lat="46.00314542658717" lon="13.415775528016585"><ele>128.4</ele><time>2026-04-01T14:43:51Z</time></trkpt><trkpt lat="46.00323430901787" lon="13.415847031946411"><ele>129.0</ele><time>2026-04-01T14:43:52Z</time></trkpt><trkpt lat="46.00332603771543" lon="13.415908739818633"><ele>128.6</ele><time>2026-04-01T14:43:53Z</time></trkpt><trkpt lat="46.00341020561006" lon="13.415987317259845"><ele>128.2</ele><time>2026-04-01T14:43:54Z</time></trkpt><trkpt lat="46.00349194718841" lon="13.416074121485407"><ele>127.79999999999998</ele><time>2026-04-01T14:43:55Z</time></trkpt><trkpt lat="46.003564174838445" lon="13.416179189538276"><ele>127.39999999999999</ele><time>2026-04-01T14:43:56Z</time></trkpt><trkpt lat="46.00363120998703" lon="13.416307421605305"><ele>127.0</ele><time>2026-04-01T14:43:57Z</time></trkpt><trkpt lat="46.003692396077376" lon="13.416446817561702"><ele>126.39999999999999</ele><time>2026-04-01T14:43:58Z</time></trkpt><trkpt lat="46.00374251106467" lon="13.416586415665355"><ele>125.79999999999998</ele><time>2026-04-01T14:43:59Z</time></trkpt><trkpt lat="46.00378786958581" lon="13.416706444386241"><ele>125.2</ele><time>2026-04-01T14:44:00Z</time></trkpt><trkpt lat="46.00383285313592" lon="13.416809910714717"><ele>124.6</ele><time>2026-04-01T14:44:01Z</time></trkpt><trkpt lat="46.00390204297062" lon="13.416885033659506"><ele>124.0</ele><time>2026-04-01T14:44:02Z</time></trkpt><trkpt lat="46.00398844246188" lon="13.416915900149426"><ele>124.0</ele><time>2026-04-01T14:44:03Z</time></trkpt><trkpt lat="46.00407655509718" lon="13.416936545331476"><ele>124.0</ele><time>2026-04-01T14:44:04Z</time></trkpt><trkpt lat="46.00416917397477" lon="13.416956062126488"><ele>124.0</ele><time>2026-04-01T14:44:05Z</time></trkpt><trkpt lat="46.00426050472706" lon="13.41694193747014"><ele>124.0</ele><time>2026-04-01T14:44:06Z</time></trkpt><trkpt lat="46.004343635005746" lon="13.416887752742905"><ele>124.0</ele><time>2026-04-01T14:44:07Z</time></trkpt><trkpt lat="46.00441514115202" lon="13.416802809378805"><ele>125.80000000000001</ele><time>2026-04-01T14:44:08Z</time></trkpt><trkpt lat="46.00447207443481" lon="13.416697810000937"><ele>127.60000000000001</ele><time>2026-04-01T14:44:09Z</time></trkpt><trkpt lat="46.0045278441583" lon="13.416593379831484"><ele>129.4</ele><time>2026-04-01T14:44:10Z</time></trkpt><trkpt lat="46.004606881226614" lon="13.416523889208605"><ele>131.20000000000002</ele><time>2026-04-01T14:44:11Z</time></trkpt><trkpt lat="46.00469474637393" lon="13.416483060261365"><ele>133.0</ele><time>2026-04-01T14:44:12Z</time></trkpt><trkpt lat="46.0047913972623" lon="13.41649083657657"><ele>133.0</ele><time>2026-04-01T14:44:13Z</time></trkpt><trkpt lat="46.00488965189011" lon="13.41654121746392"><ele>133.0</ele><time>2026-04-01T14:44:14Z</time></trkpt><trkpt lat="46.004978953877966" lon="13.416582925563244"><ele>133.0</ele><time>2026-04-01T14:44:15Z</time></trkpt><trkpt lat="46.00506369148807" lon="13.416578940536048"><ele>133.0</ele><time>2026-04-01T14:44:16Z</time></trkpt><trkpt lat="46.005151961545124" lon="13.416538780787372"><ele>133.0</ele><time>2026-04-01T14:44:17Z</time></trkpt><trkpt lat="46.00524402317402" lon="13.416516080389615"><ele>133.0</ele><time>2026-04-01T14:44:18Z</time></trkpt><trkpt lat="46.0053468149311" lon="13.416519436983718"><ele>133.0</ele><time>2026-04-01T14:44:19Z</time></trkpt><trkpt lat="46.00545729228789" lon="13.416558483675795"><ele>133.0</ele><time>2026-04-01T14:44:20Z</time></trkpt><trkpt lat="46.00556993767202" lon="13.416648155778693"><ele>133.0</ele><time>2026-04-01T14:44:21Z</time></trkpt><trkpt lat="46.005671814199005" lon="13.416783053829077"><ele>133.0</ele><time>2026-04-01T14:44:22Z</time></trkpt><trkpt lat="46.00576288620452" lon="13.4169334167664"><ele>133.0</ele><time>2026-04-01T14:44:23Z</time></trkpt><trkpt lat="46.005841645787456" lon="13.417104505016344"><ele>133.0</ele><time>2026-04-01T14:44:24Z</time></trkpt><trkpt lat="46.00593612450614" lon="13.417272483834862"><ele>133.0</ele><time>2026-04-01T14:44:25Z</time></trkpt><trkpt lat="46.00605898895501" lon="13.41741923143437"><ele>130.0</ele><time>2026-04-01T14:44:26Z</time></trkpt><trkpt lat="46.00618638364037" lon="13.417566005465309"><ele>127.0</ele><time>2026-04-01T14:44:27Z</time></trkpt><trkpt lat="46.006306477669476" lon="13.417714052789712"><ele>124.0</ele><time>2026-04-01T14:44:28Z</time></trkpt><trkpt lat="46.006419739335946" lon="13.417869933845868"><ele>124.66666666666667</ele><time>2026-04-01T14:44:29Z</time></trkpt><trkpt lat="46.00653267619101" lon="13.418038384548197"><ele>125.33333333333334</ele><time>2026-04-01T14:44:30Z</time></trkpt><trkpt lat="46.00664241224508" lon="13.41821244955288"><ele>126.0</ele><time>2026-04-01T14:44:31Z</time></trkpt><trkpt lat="46.00674137425007" lon="13.418379429903196"><ele>126.0</ele><time>2026-04-01T14:44:32Z</time></trkpt><trkpt lat="46.00682896196407" lon="13.418543692547379"><ele>126.0</ele><time>2026-04-01T14:44:33Z</time></trkpt><trkpt lat="46.00690604263911" lon="13.418707544341519"><ele>126.0</ele><time>2026-04-01T14:44:34Z</time></trkpt><trkpt lat="46.00698453654246" lon="13.418883839969487"><ele>126.0</ele><time>2026-04-01T14:44:35Z</time></trkpt><trkpt lat="46.00705103574393" lon="13.419052245336411"><ele>126.6</ele><time>2026-04-01T14:44:36Z</time></trkpt><trkpt lat="46.00711146499032" lon="13.41921502258862"><ele>127.19999999999999</ele><time>2026-04-01T14:44:37Z</time></trkpt><trkpt lat="46.00717421759458" lon="13.41937402755826"><ele>127.80000000000001</ele><time>2026-04-01T14:44:38Z</time></trkpt><trkpt lat="46.00722310658711" lon="13.419494030275171"><ele>128.4</ele><time>2026-04-01T14:44:39Z</time></trkpt><trkpt lat="46.00726065803072" lon="13.419591057335566"><ele>129.0</ele><time>2026-04-01T14:44:40Z</time></trkpt><trkpt lat="46.00728542622893" lon="13.419678321717434"><ele>129.8</ele><time>2026-04-01T14:44:41Z</time></trkpt><trkpt lat="46.007307511100166" lon="13.419788708617105"><ele>130.60000000000002</ele><time>2026-04-01T14:44:43Z</time></trkpt><trkpt lat="46.0073479854268" lon="13.419943012817551"><ele>131.4</ele><time>2026-04-01T14:44:55Z</time></trkpt><trkpt lat="46.00746872235347" lon="13.420011659371605"><ele>132.20000000000002</ele><time>2026-04-01T14:44:56Z</time></trkpt><trkpt lat="46.0075637633401" lon="13.420105849746562"><ele>133.0</ele><time>2026-04-01T14:44:57Z</time></trkpt><trkpt lat="46.0076739036214" lon="13.42020419384809"><ele>135.8</ele><time>2026-04-01T14:44:58Z</time></trkpt><trkpt lat="46.00777542414781" lon="13.420302612028971"><ele>138.60000000000002</ele><time>2026-04-01T14:44:59Z</time></trkpt><trkpt lat="46.00786668763272" lon="13.42040197294965"><ele>141.39999999999998</ele><time>2026-04-01T14:45:00Z</time></trkpt><trkpt lat="46.00794819559532" lon="13.420496658697811"><ele>144.2</ele><time>2026-04-01T14:45:01Z</time></trkpt><trkpt lat="46.00802428886329" lon="13.420591779733417"><ele>147.0</ele><time>2026-04-01T14:45:02Z</time></trkpt><trkpt lat="46.008100639112314" lon="13.420684482937945"><ele>150.2</ele><time>2026-04-01T14:45:03Z</time></trkpt><trkpt lat="46.00817578706673" lon="13.420783839400448"><ele>153.39999999999998</ele><time>2026-04-01T14:45:04Z</time></trkpt><trkpt lat="46.00824748264828" lon="13.420890418253649"><ele>156.60000000000002</ele><time>2026-04-01T14:45:05Z</time></trkpt><trkpt lat="46.0083201011686" lon="13.421000058319896"><ele>159.8</ele><time>2026-04-01T14:45:06Z</time></trkpt><trkpt lat="46.008393111576076" lon="13.42110607306377"><ele>163.0</ele><time>2026-04-01T14:45:07Z</time></trkpt><trkpt lat="46.008455421438846" lon="13.421208557166928"><ele>163.0</ele><time>2026-04-01T14:45:08Z</time></trkpt><trkpt lat="46.008514190252164" lon="13.421308033297336"><ele>163.0</ele><time>2026-04-01T14:45:09Z</time></trkpt><trkpt lat="46.00857167527273" lon="13.421403953722768"><ele>163.0</ele><time>2026-04-01T14:45:10Z</time></trkpt><trkpt lat="46.00862402687106" lon="13.421489150051379"><ele>163.0</ele><time>2026-04-01T14:45:11Z</time></trkpt><trkpt lat="46.00871224385036" lon="13.421564101632097"><ele>163.0</ele><time>2026-04-01T14:45:13Z</time></trkpt><trkpt lat="46.008771319557354" lon="13.421771577737239"><ele>162.33333333333334</ele><time>2026-04-01T14:45:15Z</time></trkpt><trkpt lat="46.008837610308454" lon="13.421814313023672"><ele>161.66666666666669</ele><time>2026-04-01T14:45:16Z</time></trkpt><trkpt lat="46.00889500039825" lon="13.421903562900336"><ele>161.0</ele><time>2026-04-01T14:45:17Z</time></trkpt><trkpt lat="46.0089493456957" lon="13.421994152675842"><ele>160.33333333333334</ele><time>2026-04-01T14:45:18Z</time></trkpt><trkpt lat="46.00899220282283" lon="13.422089449088231"><ele>159.66666666666666</ele><time>2026-04-01T14:45:19Z</time></trkpt><trkpt lat="46.00902931662455" lon="13.42219366746921"><ele>159.0</ele><time>2026-04-01T14:45:20Z</time></trkpt><trkpt lat="46.00906776688835" lon="13.422300144966185"><ele>159.0</ele><time>2026-04-01T14:45:21Z</time></trkpt><trkpt lat="46.00911269233073" lon="13.422396198307935"><ele>159.0</ele><time>2026-04-01T14:45:22Z</time></trkpt><trkpt lat="46.00917291962694" lon="13.422473611458763"><ele>159.0</ele><time>2026-04-01T14:45:23Z</time></trkpt><trkpt lat="46.009243508495786" lon="13.422541712993391"><ele>159.0</ele><time>2026-04-01T14:45:24Z</time></trkpt><trkpt lat="46.00932640731795" lon="13.422601530677909"><ele>159.0</ele><time>2026-04-01T14:45:25Z</time></trkpt><trkpt lat="46.00941733303621" lon="13.42266353845183"><ele>159.0</ele><time>2026-04-01T14:45:26Z</time></trkpt><trkpt lat="46.00950923600761" lon="13.422740779835088"><ele>161.0</ele><time>2026-04-01T14:45:27Z</time></trkpt><trkpt lat="46.009600860495524" lon="13.422829760421012"><ele>163.0</ele><time>2026-04-01T14:45:28Z</time></trkpt><trkpt lat="46.00968624034512" lon="13.422927032325953"><ele>165.0</ele><time>2026-04-01T14:45:29Z</time></trkpt><trkpt lat="46.00976206829518" lon="13.423036186391188"><ele>167.0</ele><time>2026-04-01T14:45:30Z</time></trkpt><trkpt lat="46.00982450811754" lon="13.423146328409954"><ele>169.0</ele><time>2026-04-01T14:45:30.999Z</time></trkpt><trkpt lat="46.00987453460994" lon="13.42325296181911"><ele>169.0</ele><time>2026-04-01T14:45:31.999Z</time></trkpt><trkpt lat="46.00992080206527" lon="13.423355531368312"><ele>169.0</ele><time>2026-04-01T14:45:32.999Z</time></trkpt><trkpt lat="46.0099601873298" lon="13.423444719695821"><ele>169.0</ele><time>2026-04-01T14:45:33.999Z</time></trkpt><trkpt lat="46.01000592358567" lon="13.423522764634415"><ele>169.0</ele><time>2026-04-01T14:45:34.999Z</time></trkpt><trkpt lat="46.01006661110091" lon="13.42357864840451"><ele>169.0</ele><time>2026-04-01T14:45:35.999Z</time></trkpt><trkpt lat="46.010139491596746" lon="13.423610361782934"><ele>169.0</ele><time>2026-04-01T14:45:36.999Z</time></trkpt><trkpt lat="46.01021672362616" lon="13.423604164594261"><ele>173.39999999999998</ele><time>2026-04-01T14:45:37.999Z</time></trkpt><trkpt lat="46.010292028069095" lon="13.423568710952619"><ele>177.8</ele><time>2026-04-01T14:45:38.999Z</time></trkpt><trkpt lat="46.01036831074305" lon="13.42351452574375"><ele>182.2</ele><time>2026-04-01T14:45:39.999Z</time></trkpt><trkpt lat="46.01044977456658" lon="13.423442580245661"><ele>186.60000000000002</ele><time>2026-04-01T14:45:40.999Z</time></trkpt><trkpt lat="46.01053471534751" lon="13.423362554342098"><ele>191.0</ele><time>2026-04-01T14:45:41.999Z</time></trkpt><trkpt lat="46.01061615369361" lon="13.423274257036562"><ele>191.0</ele><time>2026-04-01T14:45:42.999Z</time></trkpt><trkpt lat="46.01068658598299" lon="13.423169623364721"><ele>191.0</ele><time>2026-04-01T14:45:43.999Z</time></trkpt><trkpt lat="46.0107450994168" lon="13.42305075292005"><ele>191.0</ele><time>2026-04-01T14:45:44.999Z</time></trkpt><trkpt lat="46.01080349620744" lon="13.422933841692464"><ele>191.0</ele><time>2026-04-01T14:45:45.999Z</time></trkpt><trkpt lat="46.01085877227801" lon="13.422812839550437"><ele>191.0</ele><time>2026-04-01T14:45:46.999Z</time></trkpt><trkpt lat="46.010921608746536" lon="13.422688173933288"><ele>194.25</ele><time>2026-04-01T14:45:47.999Z</time></trkpt><trkpt lat="46.01098804138916" lon="13.422552814111603"><ele>197.5</ele><time>2026-04-01T14:45:48.999Z</time></trkpt><trkpt lat="46.01105643610281" lon="13.422409126747475"><ele>200.75</ele><time>2026-04-01T14:45:49.999Z</time></trkpt><trkpt lat="46.01113110280538" lon="13.422271253857929"><ele>204.0</ele><time>2026-04-01T14:45:50.999Z</time></trkpt><trkpt lat="46.011205492359906" lon="13.422140319992632"><ele>206.79999999999998</ele><time>2026-04-01T14:45:51.999Z</time></trkpt><trkpt lat="46.01128165056889" lon="13.422017329388025"><ele>209.6</ele><time>2026-04-01T14:45:52.999Z</time></trkpt><trkpt lat="46.01136630960208" lon="13.42189740962748"><ele>212.4</ele><time>2026-04-01T14:45:53.999Z</time></trkpt><trkpt lat="46.0114429083126" lon="13.421791278813842"><ele>215.2</ele><time>2026-04-01T14:45:55Z</time></trkpt><trkpt lat="46.011509675632055" lon="13.421696411892647"><ele>218.0</ele><time>2026-04-01T14:45:56Z</time></trkpt><trkpt lat="46.01156881157616" lon="13.421611652608377"><ele>218.00000000000003</ele><time>2026-04-01T14:45:57Z</time></trkpt><trkpt lat="46.01163129267474" lon="13.421525627830105"><ele>218.0</ele><time>2026-04-01T14:45:58Z</time></trkpt><trkpt lat="46.01168115588226" lon="13.421452293685235"><ele>218.0</ele><time>2026-04-01T14:45:59Z</time></trkpt><trkpt lat="46.01173212341556" lon="13.421388722456616"><ele>218.0</ele><time>2026-04-01T14:46:00Z</time></trkpt><trkpt lat="46.01177755846297" lon="13.42131519668236"><ele>218.00000000000003</ele><time>2026-04-01T14:46:01Z</time></trkpt><trkpt lat="46.01187209916872" lon="13.421196293897717"><ele>218.0</ele><time>2026-04-01T14:46:03Z</time></trkpt><trkpt lat="46.0119243452565" lon="13.421142958541541"><ele>217.00000000000003</ele><time>2026-04-01T14:46:04Z</time></trkpt><trkpt lat="46.01202718270225" lon="13.421062568140252"><ele>216.0</ele><time>2026-04-01T14:46:06Z</time></trkpt><trkpt lat="46.01211426646707" lon="13.421028432827953"><ele>215.0</ele><time>2026-04-01T14:46:08Z</time></trkpt><trkpt lat="46.012178955886405" lon="13.421033943533674"><ele>214.0</ele><time>2026-04-01T14:46:10Z</time></trkpt><trkpt lat="46.01225003247445" lon="13.421070455423607"><ele>213.00000000000003</ele><time>2026-04-01T14:46:12Z</time></trkpt><trkpt lat="46.01232445248853" lon="13.421102214764987"><ele>212.0</ele><time>2026-04-01T14:46:14Z</time></trkpt><trkpt lat="46.01242175036513" lon="13.421143229954048"><ele>212.00000000000003</ele><time>2026-04-01T14:46:16Z</time></trkpt><trkpt lat="46.01248752212928" lon="13.421190136377811"><ele>212.0</ele><time>2026-04-01T14:46:17Z</time></trkpt><trkpt lat="46.01256849483556" lon="13.421197537184323"><ele>212.0</ele><time>2026-04-01T14:46:18Z</time></trkpt><trkpt lat="46.01264794410334" lon="13.42121404074622"><ele>212.0</ele><time>2026-04-01T14:46:19Z</time></trkpt><trkpt lat="46.01272294679731" lon="13.421218915348835"><ele>212.00000000000003</ele><time>2026-04-01T14:46:20Z</time></trkpt><trkpt lat="46.01279922478506" lon="13.421216135203524"><ele>212.0</ele><time>2026-04-01T14:46:21Z</time></trkpt><trkpt lat="46.01287511670623" lon="13.421196178549215"><ele>211.00000000000003</ele><time>2026-04-01T14:46:22Z</time></trkpt><trkpt lat="46.01294930293521" lon="13.421182557540785"><ele>210.0</ele><time>2026-04-01T14:46:23Z</time></trkpt><trkpt lat="46.013022604626855" lon="13.421159728334642"><ele>209.0</ele><time>2026-04-01T14:46:24Z</time></trkpt><trkpt lat="46.01309576929507" lon="13.421152478898549"><ele>208.0</ele><time>2026-04-01T14:46:25Z</time></trkpt><trkpt lat="46.01317132905881" lon="13.421148965024196"><ele>207.00000000000003</ele><time>2026-04-01T14:46:26Z</time></trkpt><trkpt lat="46.01324988739179" lon="13.421158566275258"><ele>206.0</ele><time>2026-04-01T14:46:27Z</time></trkpt><trkpt lat="46.0133227518928" lon="13.421190963778942"><ele>203.66666666666669</ele><time>2026-04-01T14:46:28Z</time></trkpt><trkpt lat="46.01339198030104" lon="13.421245463241723"><ele>201.33333333333334</ele><time>2026-04-01T14:46:29Z</time></trkpt><trkpt lat="46.01343997595378" lon="13.421338498921973"><ele>199.0</ele><time>2026-04-01T14:46:30Z</time></trkpt><trkpt lat="46.013490330859305" lon="13.421418330494836"><ele>196.66666666666669</ele><time>2026-04-01T14:46:31Z</time></trkpt><trkpt lat="46.013553394131904" lon="13.421482959045392"><ele>194.33333333333334</ele><time>2026-04-01T14:46:32Z</time></trkpt><trkpt lat="46.013590857539164" lon="13.42157722763356"><ele>192.0</ele><time>2026-04-01T14:46:33Z</time></trkpt><trkpt lat="46.01365039620663" lon="13.421642247888293"><ele>192.0</ele><time>2026-04-01T14:46:34Z</time></trkpt><trkpt lat="46.01369076947349" lon="13.421733557570697"><ele>192.0</ele><time>2026-04-01T14:46:35Z</time></trkpt><trkpt lat="46.013728719469526" lon="13.421822994692079"><ele>192.0</ele><time>2026-04-01T14:46:36Z</time></trkpt><trkpt lat="46.01375639969917" lon="13.421919978965688"><ele>192.0</ele><time>2026-04-01T14:46:37Z</time></trkpt><trkpt lat="46.01377887508648" lon="13.422017533572015"><ele>192.0</ele><time>2026-04-01T14:46:38Z</time></trkpt><trkpt lat="46.01380161510915" lon="13.422114255634773"><ele>192.0</ele><time>2026-04-01T14:46:39Z</time></trkpt><trkpt lat="46.013839882935166" lon="13.4222438124868"><ele>190.33333333333334</ele><time>2026-04-01T14:46:41Z</time></trkpt><trkpt lat="46.013898570396144" lon="13.422346583523652"><ele>188.66666666666666</ele><time>2026-04-01T14:46:43Z</time></trkpt><trkpt lat="46.01396295086102" lon="13.422342476517224"><ele>187.0</ele><time>2026-04-01T14:46:44Z</time></trkpt><trkpt lat="46.01403942372271" lon="13.422326620864464"><ele>185.33333333333331</ele><time>2026-04-01T14:46:45Z</time></trkpt><trkpt lat="46.01412254908996" lon="13.42231303262684"><ele>183.66666666666666</ele><time>2026-04-01T14:46:46Z</time></trkpt><trkpt lat="46.01421008863776" lon="13.422293273860241"><ele>182.0</ele><time>2026-04-01T14:46:47Z</time></trkpt><trkpt lat="46.014294074824896" lon="13.422275580478463"><ele>182.0</ele><time>2026-04-01T14:46:48Z</time></trkpt><trkpt lat="46.014368649924606" lon="13.42223408963341"><ele>182.0</ele><time>2026-04-01T14:46:49Z</time></trkpt><trkpt lat="46.01443166521617" lon="13.42216917308046"><ele>182.0</ele><time>2026-04-01T14:46:50Z</time></trkpt><trkpt lat="46.01448329763966" lon="13.422083546314386"><ele>182.0</ele><time>2026-04-01T14:46:51Z</time></trkpt><trkpt lat="46.014524268367325" lon="13.421978488414972"><ele>182.0</ele><time>2026-04-01T14:46:52Z</time></trkpt><trkpt lat="46.014571426262776" lon="13.421867336254339"><ele>182.0</ele><time>2026-04-01T14:46:53Z</time></trkpt><trkpt lat="46.01462426653649" lon="13.421755773606836"><ele>181.33333333333331</ele><time>2026-04-01T14:46:54Z</time></trkpt><trkpt lat="46.01467668609564" lon="13.421645213146283"><ele>180.66666666666666</ele><time>2026-04-01T14:46:55Z</time></trkpt><trkpt lat="46.01472396179834" lon="13.421547106405589"><ele>180.0</ele><time>2026-04-01T14:46:56Z</time></trkpt><trkpt lat="46.01477011854457" lon="13.421473371685552"><ele>179.33333333333334</ele><time>2026-04-01T14:46:57Z</time></trkpt><trkpt lat="46.01482150993307" lon="13.421415451766933"><ele>178.66666666666669</ele><time>2026-04-01T14:46:58Z</time></trkpt><trkpt lat="46.01494677090459" lon="13.421397519616297"><ele>178.0</ele><time>2026-04-01T14:47:00Z</time></trkpt><trkpt lat="46.0150076229663" lon="13.421455987903089"><ele>178.0</ele><time>2026-04-01T14:47:01Z</time></trkpt><trkpt lat="46.01507364881722" lon="13.421514862669133"><ele>178.0</ele><time>2026-04-01T14:47:02Z</time></trkpt><trkpt lat="46.01514601766582" lon="13.421558069961655"><ele>178.0</ele><time>2026-04-01T14:47:03Z</time></trkpt><trkpt lat="46.01523078874395" lon="13.421583815986486"><ele>178.0</ele><time>2026-04-01T14:47:04Z</time></trkpt><trkpt lat="46.01532092639779" lon="13.42158946243998"><ele>178.0</ele><time>2026-04-01T14:47:05Z</time></trkpt><trkpt lat="46.015405264259186" lon="13.421554526078202"><ele>178.0</ele><time>2026-04-01T14:47:06Z</time></trkpt><trkpt lat="46.01547619409439" lon="13.421488532293134"><ele>178.0</ele><time>2026-04-01T14:47:07Z</time></trkpt><trkpt lat="46.015531600604625" lon="13.4213832596989"><ele>178.0</ele><time>2026-04-01T14:47:08Z</time></trkpt><trkpt lat="46.01559582431874" lon="13.421286832580495"><ele>178.0</ele><time>2026-04-01T14:47:09Z</time></trkpt><trkpt lat="46.015627597057225" lon="13.42117022231195"><ele>178.0</ele><time>2026-04-01T14:47:10Z</time></trkpt><trkpt lat="46.01567411287903" lon="13.42107065920552"><ele>178.0</ele><time>2026-04-01T14:47:11Z</time></trkpt><trkpt lat="46.01571940608488" lon="13.420972131319157"><ele>178.0</ele><time>2026-04-01T14:47:12Z</time></trkpt><trkpt lat="46.01576292280952" lon="13.420878704119897"><ele>177.66666666666669</ele><time>2026-04-01T14:47:13Z</time></trkpt><trkpt lat="46.0158038840671" lon="13.420784679407374"><ele>177.33333333333334</ele><time>2026-04-01T14:47:14Z</time></trkpt><trkpt lat="46.01585446028313" lon="13.420689202314376"><ele>177.0</ele><time>2026-04-01T14:47:15Z</time></trkpt><trkpt lat="46.01590766736742" lon="13.420584225830533"><ele>176.66666666666666</ele><time>2026-04-01T14:47:16Z</time></trkpt><trkpt lat="46.01596966574425" lon="13.420482400397233"><ele>176.33333333333331</ele><time>2026-04-01T14:47:17Z</time></trkpt><trkpt lat="46.0160415673234" lon="13.420394021714069"><ele>176.0</ele><time>2026-04-01T14:47:18Z</time></trkpt><trkpt lat="46.01611982098296" lon="13.420317608151112"><ele>174.66666666666666</ele><time>2026-04-01T14:47:19Z</time></trkpt><trkpt lat="46.01619465101655" lon="13.42025074030091"><ele>173.33333333333331</ele><time>2026-04-01T14:47:20Z</time></trkpt><trkpt lat="46.01626616107424" lon="13.420180136382026"><ele>172.0</ele><time>2026-04-01T14:47:21Z</time></trkpt><trkpt lat="46.01633375133857" lon="13.420102352947426"><ele>170.66666666666666</ele><time>2026-04-01T14:47:22Z</time></trkpt><trkpt lat="46.01639249761995" lon="13.420017829087788"><ele>169.33333333333334</ele><time>2026-04-01T14:47:23Z</time></trkpt><trkpt lat="46.01644633020223" lon="13.41993831581501"><ele>168.0</ele><time>2026-04-01T14:47:24Z</time></trkpt><trkpt lat="46.016494554171274" lon="13.41986379441846"><ele>168.0</ele><time>2026-04-01T14:47:25Z</time></trkpt><trkpt lat="46.01654124581444" lon="13.419792825085741"><ele>168.0</ele><time>2026-04-01T14:47:26Z</time></trkpt><trkpt lat="46.01658852293873" lon="13.419717572355673"><ele>168.0</ele><time>2026-04-01T14:47:27Z</time></trkpt><trkpt lat="46.01663256721323" lon="13.419623963579463"><ele>168.0</ele><time>2026-04-01T14:47:28Z</time></trkpt><trkpt lat="46.01666620267944" lon="13.419510434213427"><ele>168.0</ele><time>2026-04-01T14:47:29Z</time></trkpt><trkpt lat="46.01669183718025" lon="13.419397236906772"><ele>168.0</ele><time>2026-04-01T14:47:30Z</time></trkpt><trkpt lat="46.01670824151262" lon="13.419270909393957"><ele>167.4</ele><time>2026-04-01T14:47:31Z</time></trkpt><trkpt lat="46.01671640437015" lon="13.419135301505124"><ele>166.8</ele><time>2026-04-01T14:47:32Z</time></trkpt><trkpt lat="46.01673736556961" lon="13.419002315303397"><ele>166.2</ele><time>2026-04-01T14:47:32.999Z</time></trkpt><trkpt lat="46.01676328002011" lon="13.418869888580183"><ele>165.6</ele><time>2026-04-01T14:47:33.999Z</time></trkpt><trkpt lat="46.016788424709695" lon="13.418736164366857"><ele>165.0</ele><time>2026-04-01T14:47:34.999Z</time></trkpt><trkpt lat="46.01681728005589" lon="13.41860723741298"><ele>163.6</ele><time>2026-04-01T14:47:35.999Z</time></trkpt><trkpt lat="46.01686134959323" lon="13.418483933272118"><ele>162.2</ele><time>2026-04-01T14:47:36.999Z</time></trkpt><trkpt lat="46.01692541608588" lon="13.41837007981035"><ele>160.8</ele><time>2026-04-01T14:47:37.999Z</time></trkpt><trkpt lat="46.01700038532133" lon="13.418260171973719"><ele>159.4</ele><time>2026-04-01T14:47:38.999Z</time></trkpt><trkpt lat="46.01706898431335" lon="13.418140557203236"><ele>158.0</ele><time>2026-04-01T14:47:39.999Z</time></trkpt><trkpt lat="46.017141770196375" lon="13.418019610536755"><ele>155.0</ele><time>2026-04-01T14:47:40.999Z</time></trkpt><trkpt lat="46.01721993926699" lon="13.417900678061672"><ele>152.0</ele><time>2026-04-01T14:47:41.999Z</time></trkpt><trkpt lat="46.017297331259144" lon="13.417779442376588"><ele>149.0</ele><time>2026-04-01T14:47:42.999Z</time></trkpt><trkpt lat="46.01737515733355" lon="13.417658808552744"><ele>146.0</ele><time>2026-04-01T14:47:43.999Z</time></trkpt><trkpt lat="46.01745072771508" lon="13.417547815801303"><ele>146.2</ele><time>2026-04-01T14:47:44.999Z</time></trkpt><trkpt lat="46.017521543688375" lon="13.417436106451644"><ele>146.39999999999998</ele><time>2026-04-01T14:47:45.999Z</time></trkpt><trkpt lat="46.0175913489659" lon="13.417317375320481"><ele>146.6</ele><time>2026-04-01T14:47:46.999Z</time></trkpt><trkpt lat="46.01766705608965" lon="13.417200577722461"><ele>146.79999999999998</ele><time>2026-04-01T14:47:47.999Z</time></trkpt><trkpt lat="46.017721699295876" lon="13.417051307622039"><ele>147.0</ele><time>2026-04-01T14:47:48.999Z</time></trkpt><trkpt lat="46.01774954083586" lon="13.41687802575144"><ele>147.0</ele><time>2026-04-01T14:47:49.999Z</time></trkpt><trkpt lat="46.017794572793434" lon="13.416709006858088"><ele>147.0</ele><time>2026-04-01T14:47:50.999Z</time></trkpt><trkpt lat="46.01784787345422" lon="13.416535709458024"><ele>147.0</ele><time>2026-04-01T14:47:51.999Z</time></trkpt><trkpt lat="46.017917175580195" lon="13.41636984260722"><ele>147.0</ele><time>2026-04-01T14:47:52.999Z</time></trkpt><trkpt lat="46.01799884852704" lon="13.416199625593796"><ele>140.66666666666666</ele><time>2026-04-01T14:47:53.999Z</time></trkpt><trkpt lat="46.01808428662146" lon="13.416039584891667"><ele>134.33333333333331</ele><time>2026-04-01T14:47:54.999Z</time></trkpt><trkpt lat="46.01818556270126" lon="13.415869191244058"><ele>128.0</ele><time>2026-04-01T14:47:55.999Z</time></trkpt><trkpt lat="46.01829867909942" lon="13.415704928073787"><ele>127.0</ele><time>2026-04-01T14:47:56.999Z</time></trkpt><trkpt lat="46.018416538705935" lon="13.415550939343586"><ele>126.0</ele><time>2026-04-01T14:47:57.999Z</time></trkpt><trkpt lat="46.018540417925195" lon="13.415411480202966"><ele>125.0</ele><time>2026-04-01T14:47:58.999Z</time></trkpt><trkpt lat="46.01867050341545" lon="13.415293730955261"><ele>125.0</ele><time>2026-04-01T14:47:59.999Z</time></trkpt><trkpt lat="46.01880121191927" lon="13.415182716513401"><ele>125.0</ele><time>2026-04-01T14:48:01Z</time></trkpt><trkpt lat="46.018927082312956" lon="13.41506757756577"><ele>125.0</ele><time>2026-04-01T14:48:02Z</time></trkpt><trkpt lat="46.01905718499671" lon="13.414961525297434"><ele>125.5</ele><time>2026-04-01T14:48:03Z</time></trkpt><trkpt lat="46.019168033015546" lon="13.414823887055467"><ele>126.0</ele><time>2026-04-01T14:48:04Z</time></trkpt><trkpt lat="46.019267977036066" lon="13.414674890115062"><ele>126.5</ele><time>2026-04-01T14:48:05Z</time></trkpt><trkpt lat="46.01935966427407" lon="13.414521198871093"><ele>127.0</ele><time>2026-04-01T14:48:06Z</time></trkpt><trkpt lat="46.019447827059885" lon="13.414362899142386"><ele>127.0</ele><time>2026-04-01T14:48:07Z</time></trkpt><trkpt lat="46.01953358402478" lon="13.414203073767625"><ele>127.0</ele><time>2026-04-01T14:48:08Z</time></trkpt><trkpt lat="46.01961598055913" lon="13.41404672852384"><ele>127.0</ele><time>2026-04-01T14:48:09Z</time></trkpt><trkpt lat="46.01969224307751" lon="13.413901495559529"><ele>127.0</ele><time>2026-04-01T14:48:10Z</time></trkpt><trkpt lat="46.01976863150174" lon="13.413774436586602"><ele>128.0</ele><time>2026-04-01T14:48:11Z</time></trkpt><trkpt lat="46.0198488412184" lon="13.413643599163564"><ele>129.0</ele><time>2026-04-01T14:48:12Z</time></trkpt><trkpt lat="46.019941492627545" lon="13.41354424204884"><ele>130.0</ele><time>2026-04-01T14:48:13Z</time></trkpt><trkpt lat="46.02003392207882" lon="13.413467583801287"><ele>131.0</ele><time>2026-04-01T14:48:14Z</time></trkpt><trkpt lat="46.020125452432204" lon="13.413418083543302"><ele>132.0</ele><time>2026-04-01T14:48:15Z</time></trkpt><trkpt lat="46.02021167246889" lon="13.413394203093878"><ele>132.0</ele><time>2026-04-01T14:48:16Z</time></trkpt><trkpt lat="46.02029624867432" lon="13.413406958995537"><ele>132.0</ele><time>2026-04-01T14:48:17Z</time></trkpt><trkpt lat="46.02037717360237" lon="13.413435446331288"><ele>132.0</ele><time>2026-04-01T14:48:18Z</time></trkpt><trkpt lat="46.02046460515101" lon="13.413448412644865"><ele>132.0</ele><time>2026-04-01T14:48:19Z</time></trkpt><trkpt lat="46.02055543116243" lon="13.413419136395452"><ele>132.0</ele><time>2026-04-01T14:48:20Z</time></trkpt><trkpt lat="46.02064205008403" lon="13.413348961130524"><ele>132.0</ele><time>2026-04-01T14:48:21Z</time></trkpt><trkpt lat="46.020734679308056" lon="13.413276976659889"><ele>132.5</ele><time>2026-04-01T14:48:22Z</time></trkpt><trkpt lat="46.02082677848601" lon="13.413188058386877"><ele>133.0</ele><time>2026-04-01T14:48:23Z</time></trkpt><trkpt lat="46.02091927659273" lon="13.41309081442698"><ele>133.5</ele><time>2026-04-01T14:48:24Z</time></trkpt><trkpt lat="46.02100766840308" lon="13.412988617628749"><ele>134.0</ele><time>2026-04-01T14:48:25Z</time></trkpt><trkpt lat="46.02108957590387" lon="13.412875577487021"><ele>134.25</ele><time>2026-04-01T14:48:26Z</time></trkpt><trkpt lat="46.02116558842305" lon="13.412749819548473"><ele>134.5</ele><time>2026-04-01T14:48:27Z</time></trkpt><trkpt lat="46.02123316804987" lon="13.412605771920012"><ele>134.75</ele><time>2026-04-01T14:48:28Z</time></trkpt><trkpt lat="46.02129228324409" lon="13.412433386622983"><ele>135.0</ele><time>2026-04-01T14:48:29Z</time></trkpt><trkpt lat="46.02134248665618" lon="13.412241662960023"><ele>132.25</ele><time>2026-04-01T14:48:30Z</time></trkpt><trkpt lat="46.02138975864969" lon="13.412052083252881"><ele>129.5</ele><time>2026-04-01T14:48:31Z</time></trkpt><trkpt lat="46.02143242562144" lon="13.411865848425814"><ele>126.75</ele><time>2026-04-01T14:48:32Z</time></trkpt><trkpt lat="46.02146878219105" lon="13.411679450707165"><ele>124.0</ele><time>2026-04-01T14:48:33Z</time></trkpt><trkpt lat="46.021503176429206" lon="13.411492627994472"><ele>123.25</ele><time>2026-04-01T14:48:34Z</time></trkpt><trkpt lat="46.021540522200546" lon="13.411309461756918"><ele>122.5</ele><time>2026-04-01T14:48:35Z</time></trkpt><trkpt lat="46.02157956361002" lon="13.411126732925215"><ele>121.75</ele><time>2026-04-01T14:48:36Z</time></trkpt><trkpt lat="46.02161654775726" lon="13.410943605788837"><ele>121.0</ele><time>2026-04-01T14:48:37Z</time></trkpt><trkpt lat="46.02163546357766" lon="13.4107425693182"><ele>121.0</ele><time>2026-04-01T14:48:38Z</time></trkpt><trkpt lat="46.02161194218417" lon="13.410514561732523"><ele>121.0</ele><time>2026-04-01T14:48:39Z</time></trkpt><trkpt lat="46.021560302286005" lon="13.410296523432034"><ele>121.0</ele><time>2026-04-01T14:48:40Z</time></trkpt><trkpt lat="46.021513407278206" lon="13.410084071816982"><ele>122.25</ele><time>2026-04-01T14:48:41Z</time></trkpt><trkpt lat="46.021465591611985" lon="13.40987419494718"><ele>123.5</ele><time>2026-04-01T14:48:42Z</time></trkpt><trkpt lat="46.02140937140409" lon="13.409675224751828"><ele>124.75</ele><time>2026-04-01T14:48:43Z</time></trkpt><trkpt lat="46.02136821918233" lon="13.40947844183714"><ele>126.0</ele><time>2026-04-01T14:48:44Z</time></trkpt><trkpt lat="46.02131506390334" lon="13.409315063211759"><ele>126.0</ele><time>2026-04-01T14:48:45Z</time></trkpt><trkpt lat="46.02125500177267" lon="13.40914993547762"><ele>126.0</ele><time>2026-04-01T14:48:46Z</time></trkpt><trkpt lat="46.02116455752627" lon="13.409020549767115"><ele>126.0</ele><time>2026-04-01T14:48:47Z</time></trkpt><trkpt lat="46.02106343307048" lon="13.408940299749736"><ele>126.0</ele><time>2026-04-01T14:48:48Z</time></trkpt><trkpt lat="46.02096648665998" lon="13.408885557200035"><ele>126.0</ele><time>2026-04-01T14:48:49Z</time></trkpt><trkpt lat="46.02085285015373" lon="13.408830827386511"><ele>126.0</ele><time>2026-04-01T14:48:50Z</time></trkpt><trkpt lat="46.020728077348174" lon="13.40881933486069"><ele>126.0</ele><time>2026-04-01T14:48:51Z</time></trkpt><trkpt lat="46.020620298298276" lon="13.408825562015746"><ele>126.0</ele><time>2026-04-01T14:48:52Z</time></trkpt><trkpt lat="46.02050856947632" lon="13.408830426385101"><ele>126.19999999999999</ele><time>2026-04-01T14:48:53Z</time></trkpt><trkpt lat="46.02038957804468" lon="13.408829578609113"><ele>126.39999999999999</ele><time>2026-04-01T14:48:54Z</time></trkpt><trkpt lat="46.02027372078962" lon="13.408826950970784"><ele>126.6</ele><time>2026-04-01T14:48:55Z</time></trkpt><trkpt lat="46.020174472216226" lon="13.408812714235934"><ele>126.8</ele><time>2026-04-01T14:48:56Z</time></trkpt><trkpt lat="46.02007977955072" lon="13.408772768542766"><ele>127.0</ele><time>2026-04-01T14:48:57Z</time></trkpt><trkpt lat="46.01999363788271" lon="13.408692220633876"><ele>126.0</ele><time>2026-04-01T14:48:58Z</time></trkpt><trkpt lat="46.01990159433761" lon="13.408592990606401"><ele>125.0</ele><time>2026-04-01T14:48:59Z</time></trkpt><trkpt lat="46.01980806170677" lon="13.408479641079662"><ele>124.0</ele><time>2026-04-01T14:49:00Z</time></trkpt><trkpt lat="46.01973250936089" lon="13.408371168710516"><ele>123.0</ele><time>2026-04-01T14:49:01Z</time></trkpt><trkpt lat="46.019652465101345" lon="13.408262228922641"><ele>123.0</ele><time>2026-04-01T14:49:02Z</time></trkpt><trkpt lat="46.01963192496339" lon="13.408099282995282"><ele>123.0</ele><time>2026-04-01T14:49:03Z</time></trkpt><trkpt lat="46.01960299799309" lon="13.407926062423336"><ele>123.0</ele><time>2026-04-01T14:49:04Z</time></trkpt><trkpt lat="46.01959548610839" lon="13.407728533006695"><ele>123.0</ele><time>2026-04-01T14:49:05Z</time></trkpt><trkpt lat="46.01959227955956" lon="13.407539975572824"><ele>122.5</ele><time>2026-04-01T14:49:06Z</time></trkpt><trkpt lat="46.01957566153884" lon="13.407353343159663"><ele>122.0</ele><time>2026-04-01T14:49:07Z</time></trkpt><trkpt lat="46.019541674217585" lon="13.407160379642637"><ele>121.5</ele><time>2026-04-01T14:49:08Z</time></trkpt><trkpt lat="46.01951835392942" lon="13.406949790384926"><ele>121.0</ele><time>2026-04-01T14:49:09Z</time></trkpt><trkpt lat="46.019501493637016" lon="13.406745651653303"><ele>120.0</ele><time>2026-04-01T14:49:10Z</time></trkpt><trkpt lat="46.01946052127215" lon="13.406542766710778"><ele>119.0</ele><time>2026-04-01T14:49:11Z</time></trkpt><trkpt lat="46.01938686409607" lon="13.40632658473597"><ele>118.0</ele><time>2026-04-01T14:49:12Z</time></trkpt><trkpt lat="46.01926883503026" lon="13.406120269983969"><ele>116.0</ele><time>2026-04-01T14:49:13Z</time></trkpt><trkpt lat="46.01915212383615" lon="13.405936347070405"><ele>114.0</ele><time>2026-04-01T14:49:14Z</time></trkpt><trkpt lat="46.01903622771894" lon="13.405744247834651"><ele>112.0</ele><time>2026-04-01T14:49:15Z</time></trkpt><trkpt lat="46.018907443919254" lon="13.405558356550202"><ele>109.66666666666667</ele><time>2026-04-01T14:49:16Z</time></trkpt><trkpt lat="46.01879969335392" lon="13.405361715642583"><ele>107.33333333333334</ele><time>2026-04-01T14:49:17Z</time></trkpt><trkpt lat="46.01870795793041" lon="13.40515554664386"><ele>105.0</ele><time>2026-04-01T14:49:18Z</time></trkpt><trkpt lat="46.01860629880138" lon="13.404972580757322"><ele>105.0</ele><time>2026-04-01T14:49:19Z</time></trkpt><trkpt lat="46.01848694917133" lon="13.404801989968483"><ele>105.0</ele><time>2026-04-01T14:49:20Z</time></trkpt><trkpt lat="46.018378296043466" lon="13.404641272938903"><ele>105.0</ele><time>2026-04-01T14:49:21Z</time></trkpt><trkpt lat="46.01827554026973" lon="13.404478680075794"><ele>103.75</ele><time>2026-04-01T14:49:22Z</time></trkpt><trkpt lat="46.01817742496569" lon="13.404336127539603"><ele>102.5</ele><time>2026-04-01T14:49:23Z</time></trkpt><trkpt lat="46.018098834155886" lon="13.404160524650601"><ele>101.25</ele><time>2026-04-01T14:49:24Z</time></trkpt><trkpt lat="46.01805341851087" lon="13.40394639393981"><ele>100.0</ele><time>2026-04-01T14:49:25Z</time></trkpt><trkpt lat="46.01800854713099" lon="13.403694772759348"><ele>100.0</ele><time>2026-04-01T14:49:26Z</time></trkpt><trkpt lat="46.017968774712" lon="13.403413086649598"><ele>100.0</ele><time>2026-04-01T14:49:27Z</time></trkpt><trkpt lat="46.01793446209152" lon="13.40315252328281"><ele>100.0</ele><time>2026-04-01T14:49:28Z</time></trkpt><trkpt lat="46.017907198525805" lon="13.402929377762167"><ele>99.25</ele><time>2026-04-01T14:49:29Z</time></trkpt><trkpt lat="46.01787510494097" lon="13.402728123702392"><ele>98.5</ele><time>2026-04-01T14:49:30Z</time></trkpt><trkpt lat="46.01782664541166" lon="13.40255350598534"><ele>97.75</ele><time>2026-04-01T14:49:31Z</time></trkpt><trkpt lat="46.01774266569945" lon="13.402374748945109"><ele>97.0</ele><time>2026-04-01T14:49:32Z</time></trkpt><trkpt lat="46.017611086636876" lon="13.402216187463198"><ele>95.75</ele><time>2026-04-01T14:49:33Z</time></trkpt><trkpt lat="46.017491449507524" lon="13.402064887977604"><ele>94.5</ele><time>2026-04-01T14:49:34Z</time></trkpt><trkpt lat="46.01738662086787" lon="13.401929083298308"><ele>93.25</ele><time>2026-04-01T14:49:35Z</time></trkpt><trkpt lat="46.01735842986443" lon="13.401737535298563"><ele>92.0</ele><time>2026-04-01T14:49:36Z</time></trkpt><trkpt lat="46.01735197425079" lon="13.401538495950435"><ele>92.25</ele><time>2026-04-01T14:49:36.999Z</time></trkpt><trkpt lat="46.01733904417295" lon="13.401322653203557"><ele>92.5</ele><time>2026-04-01T14:49:37.999Z</time></trkpt><trkpt lat="46.01732977964274" lon="13.401114342341405"><ele>92.75</ele><time>2026-04-01T14:49:38.999Z</time></trkpt><trkpt lat="46.01732106663294" lon="13.400909183433882"><ele>93.0</ele><time>2026-04-01T14:49:39.999Z</time></trkpt><trkpt lat="46.017313063838756" lon="13.400706262403746"><ele>93.0</ele><time>2026-04-01T14:49:40.999Z</time></trkpt><trkpt lat="46.01730551540971" lon="13.400491676854257"><ele>93.0</ele><time>2026-04-01T14:49:41.999Z</time></trkpt><trkpt lat="46.01730092144776" lon="13.400265048794427"><ele>93.0</ele><time>2026-04-01T14:49:42.999Z</time></trkpt><trkpt lat="46.01729633124941" lon="13.400045938833053"><ele>93.0</ele><time>2026-04-01T14:49:43.999Z</time></trkpt><trkpt lat="46.01729059816947" lon="13.39983050043231"><ele>93.0</ele><time>2026-04-01T14:49:44.999Z</time></trkpt><trkpt lat="46.01728388957294" lon="13.399617488898192"><ele>93.0</ele><time>2026-04-01T14:49:45.999Z</time></trkpt><trkpt lat="46.01727231280544" lon="13.399408955250296"><ele>93.0</ele><time>2026-04-01T14:49:46.999Z</time></trkpt><trkpt lat="46.01724636094417" lon="13.399200560848145"><ele>92.5</ele><time>2026-04-01T14:49:47.999Z</time></trkpt><trkpt lat="46.017222041084786" lon="13.399000043541808"><ele>92.0</ele><time>2026-04-01T14:49:48.999Z</time></trkpt><trkpt lat="46.01717337767758" lon="13.398823487878225"><ele>91.5</ele><time>2026-04-01T14:49:49.999Z</time></trkpt><trkpt lat="46.017125112503415" lon="13.398653020071984"><ele>91.0</ele><time>2026-04-01T14:49:50.999Z</time></trkpt><trkpt lat="46.017073680679005" lon="13.398487113799918"><ele>90.25</ele><time>2026-04-01T14:49:51.999Z</time></trkpt><trkpt lat="46.01706495210484" lon="13.398304337587573"><ele>89.5</ele><time>2026-04-01T14:49:52.999Z</time></trkpt><trkpt lat="46.01707007874893" lon="13.39812310036485"><ele>88.75</ele><time>2026-04-01T14:49:53.999Z</time></trkpt><trkpt lat="46.01707204700756" lon="13.397964386267994"><ele>88.0</ele><time>2026-04-01T14:49:54.999Z</time></trkpt><trkpt lat="46.01707613682195" lon="13.397801994081759"><ele>88.0</ele><time>2026-04-01T14:49:55.999Z</time></trkpt><trkpt lat="46.01710309800524" lon="13.39763644251367"><ele>88.0</ele><time>2026-04-01T14:49:56.999Z</time></trkpt><trkpt lat="46.01715875260343" lon="13.397467413926"><ele>88.0</ele><time>2026-04-01T14:49:57.999Z</time></trkpt><trkpt lat="46.017229403073785" lon="13.397275691081052"><ele>88.0</ele><time>2026-04-01T14:49:58.999Z</time></trkpt><trkpt lat="46.01729041418925" lon="13.397105891427415"><ele>88.0</ele><time>2026-04-01T14:49:59.999Z</time></trkpt><trkpt lat="46.01736472437567" lon="13.396952339806134"><ele>88.0</ele><time>2026-04-01T14:50:00.999Z</time></trkpt><trkpt lat="46.01745248933129" lon="13.396800983071211"><ele>88.0</ele><time>2026-04-01T14:50:01.999Z</time></trkpt><trkpt lat="46.0175471114748" lon="13.396640592267104"><ele>88.0</ele><time>2026-04-01T14:50:02.999Z</time></trkpt><trkpt lat="46.01763320760529" lon="13.396482739872306"><ele>88.5</ele><time>2026-04-01T14:50:03.999Z</time></trkpt><trkpt lat="46.01770610240253" lon="13.396318839819168"><ele>89.0</ele><time>2026-04-01T14:50:04.999Z</time></trkpt><trkpt lat="46.01775855931057" lon="13.396146800223418"><ele>89.5</ele><time>2026-04-01T14:50:05.999Z</time></trkpt><trkpt lat="46.017814534892125" lon="13.39596911353302"><ele>90.0</ele><time>2026-04-01T14:50:07Z</time></trkpt><trkpt lat="46.01788730268626" lon="13.395784190510199"><ele>90.0</ele><time>2026-04-01T14:50:08Z</time></trkpt><trkpt lat="46.0179624782908" lon="13.395595166461376"><ele>90.0</ele><time>2026-04-01T14:50:09Z</time></trkpt><trkpt lat="46.01803131655498" lon="13.395410739279773"><ele>90.0</ele><time>2026-04-01T14:50:10Z</time></trkpt><trkpt lat="46.01809578634094" lon="13.395237629456641"><ele>90.0</ele><time>2026-04-01T14:50:11Z</time></trkpt><trkpt lat="46.01815770930538" lon="13.395076046903053"><ele>90.0</ele><time>2026-04-01T14:50:12Z</time></trkpt><trkpt lat="46.01821591266348" lon="13.394913537821864"><ele>90.0</ele><time>2026-04-01T14:50:13Z</time></trkpt><trkpt lat="46.01826568692892" lon="13.394745512603171"><ele>90.0</ele><time>2026-04-01T14:50:14Z</time></trkpt><trkpt lat="46.01830914438705" lon="13.39458729528721"><ele>90.0</ele><time>2026-04-01T14:50:15Z</time></trkpt><trkpt lat="46.01834354496448" lon="13.39444256212637"><ele>90.2</ele><time>2026-04-01T14:50:16Z</time></trkpt><trkpt lat="46.01836629552749" lon="13.394306339946496"><ele>90.4</ele><time>2026-04-01T14:50:17Z</time></trkpt><trkpt lat="46.01837746094405" lon="13.394186342798095"><ele>90.6</ele><time>2026-04-01T14:50:18Z</time></trkpt><trkpt lat="46.01839142908994" lon="13.394081870727458"><ele>90.8</ele><time>2026-04-01T14:50:19Z</time></trkpt><trkpt lat="46.018417656019864" lon="13.393949130067535"><ele>91.0</ele><time>2026-04-01T14:50:21Z</time></trkpt><trkpt lat="46.018635347659064" lon="13.393960635573169"><ele>91.0</ele><time>2026-04-01T14:50:23Z</time></trkpt><trkpt lat="46.01874285330765" lon="13.394003961601788"><ele>91.0</ele><time>2026-04-01T14:50:24Z</time></trkpt><trkpt lat="46.018870905249464" lon="13.394046623037877"><ele>91.0</ele><time>2026-04-01T14:50:25Z</time></trkpt><trkpt lat="46.01902762115208" lon="13.39409886859825"><ele>91.0</ele><time>2026-04-01T14:50:26Z</time></trkpt><trkpt lat="46.019225360683656" lon="13.39415823900713"><ele>89.5</ele><time>2026-04-01T14:50:27Z</time></trkpt><trkpt lat="46.01944746580627" lon="13.394234793221864"><ele>88.0</ele><time>2026-04-01T14:50:28Z</time></trkpt><trkpt lat="46.019691874737006" lon="13.394317956213818"><ele>88.0</ele><time>2026-04-01T14:50:29Z</time></trkpt><trkpt lat="46.01992742063232" lon="13.394390449836369"><ele>88.0</ele><time>2026-04-01T14:50:30Z</time></trkpt><trkpt lat="46.02013576706978" lon="13.39446521219353"><ele>88.0</ele><time>2026-04-01T14:50:31Z</time></trkpt><trkpt lat="46.02032444224615" lon="13.394533974441092"><ele>88.0</ele><time>2026-04-01T14:50:32Z</time></trkpt><trkpt lat="46.0204970420274" lon="13.39460058885253"><ele>88.0</ele><time>2026-04-01T14:50:33Z</time></trkpt><trkpt lat="46.02066181401767" lon="13.39466355762363"><ele>88.5</ele><time>2026-04-01T14:50:34Z</time></trkpt><trkpt lat="46.020816289386474" lon="13.394715970986196"><ele>89.0</ele><time>2026-04-01T14:50:35Z</time></trkpt><trkpt lat="46.02095906825078" lon="13.39476762699872"><ele>89.5</ele><time>2026-04-01T14:50:36Z</time></trkpt><trkpt lat="46.02108582674843" lon="13.394807466280376"><ele>90.0</ele><time>2026-04-01T14:50:37Z</time></trkpt><trkpt lat="46.02120295326688" lon="13.394824740328971"><ele>90.0</ele><time>2026-04-01T14:50:38Z</time></trkpt><trkpt lat="46.02131228479459" lon="13.394790854938588"><ele>90.0</ele><time>2026-04-01T14:50:39Z</time></trkpt><trkpt lat="46.02141541868216" lon="13.394738954266973"><ele>90.0</ele><time>2026-04-01T14:50:40Z</time></trkpt><trkpt lat="46.021516728100366" lon="13.394674826289314"><ele>90.0</ele><time>2026-04-01T14:50:41Z</time></trkpt><trkpt lat="46.02160246990218" lon="13.394689359751798"><ele>90.0</ele><time>2026-04-01T14:50:42Z</time></trkpt><trkpt lat="46.02169386981301" lon="13.39468205819534"><ele>90.0</ele><time>2026-04-01T14:50:43Z</time></trkpt><trkpt lat="46.0217911117801" lon="13.394705472148543"><ele>90.0</ele><time>2026-04-01T14:50:44Z</time></trkpt><trkpt lat="46.021899696402855" lon="13.394727348403629"><ele>90.0</ele><time>2026-04-01T14:50:45Z</time></trkpt><trkpt lat="46.02200426359392" lon="13.394858878026923"><ele>90.0</ele><time>2026-04-01T14:50:46Z</time></trkpt><trkpt lat="46.02211544136337" lon="13.394966806828448"><ele>90.0</ele><time>2026-04-01T14:50:47Z</time></trkpt><trkpt lat="46.02223695620088" lon="13.395067667575121"><ele>90.0</ele><time>2026-04-01T14:50:48Z</time></trkpt><trkpt lat="46.02237296494894" lon="13.395162015886658"><ele>90.0</ele><time>2026-04-01T14:50:49Z</time></trkpt><trkpt lat="46.02251801908386" lon="13.395251310017663"><ele>90.0</ele><time>2026-04-01T14:50:50Z</time></trkpt><trkpt lat="46.02267525710183" lon="13.39532795096007"><ele>90.0</ele><time>2026-04-01T14:50:51Z</time></trkpt><trkpt lat="46.02284171594134" lon="13.395400649221356"><ele>90.0</ele><time>2026-04-01T14:50:52Z</time></trkpt><trkpt lat="46.023018774671996" lon="13.395468728788096"><ele>90.0</ele><time>2026-04-01T14:50:53Z</time></trkpt><trkpt lat="46.023201095140685" lon="13.395532860058523"><ele>91.33333333333333</ele><time>2026-04-01T14:50:54Z</time></trkpt><trkpt lat="46.02337479216381" lon="13.395593574812628"><ele>92.66666666666666</ele><time>2026-04-01T14:50:55Z</time></trkpt><trkpt lat="46.023540981661334" lon="13.395656773298526"><ele>94.0</ele><time>2026-04-01T14:50:56Z</time></trkpt><trkpt lat="46.02370901738754" lon="13.395719072792643"><ele>94.0</ele><time>2026-04-01T14:50:57Z</time></trkpt><trkpt lat="46.02388573146239" lon="13.395780170296566"><ele>94.0</ele><time>2026-04-01T14:50:58Z</time></trkpt><trkpt lat="46.02405860677223" lon="13.39584136863942"><ele>94.0</ele><time>2026-04-01T14:50:59Z</time></trkpt><trkpt lat="46.02422304923161" lon="13.395899380020852"><ele>94.33333333333333</ele><time>2026-04-01T14:51:00Z</time></trkpt><trkpt lat="46.024380653379936" lon="13.39595290756055"><ele>94.66666666666667</ele><time>2026-04-01T14:51:01Z</time></trkpt><trkpt lat="46.024534874823786" lon="13.3960104006577"><ele>95.0</ele><time>2026-04-01T14:51:02Z</time></trkpt><trkpt lat="46.02469225854826" lon="13.396069082372067"><ele>95.0</ele><time>2026-04-01T14:51:03Z</time></trkpt><trkpt lat="46.024845710804364" lon="13.396122855753603"><ele>95.0</ele><time>2026-04-01T14:51:04Z</time></trkpt><trkpt lat="46.02499331406261" lon="13.39617315546747"><ele>95.0</ele><time>2026-04-01T14:51:05Z</time></trkpt><trkpt lat="46.02513642694808" lon="13.396227327639531"><ele>94.75</ele><time>2026-04-01T14:51:06Z</time></trkpt><trkpt lat="46.02528120711104" lon="13.396278183113864"><ele>94.5</ele><time>2026-04-01T14:51:07Z</time></trkpt><trkpt lat="46.02542504444194" lon="13.396331510568633"><ele>94.25</ele><time>2026-04-01T14:51:08Z</time></trkpt><trkpt lat="46.02556546511134" lon="13.396385120376982"><ele>94.0</ele><time>2026-04-01T14:51:09Z</time></trkpt><trkpt lat="46.02570645149117" lon="13.396435187474466"><ele>93.66666666666666</ele><time>2026-04-01T14:51:10Z</time></trkpt><trkpt lat="46.02586046556949" lon="13.396493384812425"><ele>93.33333333333333</ele><time>2026-04-01T14:51:11Z</time></trkpt><trkpt lat="46.02602791259016" lon="13.396557053213527"><ele>93.0</ele><time>2026-04-01T14:51:12Z</time></trkpt><trkpt lat="46.026195691244155" lon="13.396614122789693"><ele>93.0</ele><time>2026-04-01T14:51:13Z</time></trkpt><trkpt lat="46.02635995779009" lon="13.396673996082425"><ele>93.0</ele><time>2026-04-01T14:51:14Z</time></trkpt><trkpt lat="46.02652037938901" lon="13.396735834443128"><ele>93.0</ele><time>2026-04-01T14:51:15Z</time></trkpt><trkpt lat="46.02667848520709" lon="13.396791531063396"><ele>94.0</ele><time>2026-04-01T14:51:16Z</time></trkpt><trkpt lat="46.026827795696676" lon="13.396840702281047"><ele>95.0</ele><time>2026-04-01T14:51:17Z</time></trkpt><trkpt lat="46.02696409405314" lon="13.39689022875358"><ele>96.0</ele><time>2026-04-01T14:51:18Z</time></trkpt><trkpt lat="46.02708532893406" lon="13.396935703416656"><ele>97.0</ele><time>2026-04-01T14:51:19Z</time></trkpt><trkpt lat="46.02719315674955" lon="13.396977985569977"><ele>97.0</ele><time>2026-04-01T14:51:20Z</time></trkpt><trkpt lat="46.027293929652195" lon="13.397015774987683"><ele>97.0</ele><time>2026-04-01T14:51:21Z</time></trkpt><trkpt lat="46.027394526129726" lon="13.397050565760042"><ele>97.0</ele><time>2026-04-01T14:51:22Z</time></trkpt><trkpt lat="46.027499647162294" lon="13.397085287222016"><ele>97.0</ele><time>2026-04-01T14:51:23Z</time></trkpt><trkpt lat="46.027604693880576" lon="13.397124144169107"><ele>97.0</ele><time>2026-04-01T14:51:24Z</time></trkpt><trkpt lat="46.02770838580476" lon="13.397165006544503"><ele>97.19999999999999</ele><time>2026-04-01T14:51:25Z</time></trkpt><trkpt lat="46.02781230556548" lon="13.397200743059754"><ele>97.4</ele><time>2026-04-01T14:51:26Z</time></trkpt><trkpt lat="46.02791627486872" lon="13.39723696647441"><ele>97.6</ele><time>2026-04-01T14:51:27Z</time></trkpt><trkpt lat="46.028024331758346" lon="13.397278463204689"><ele>97.80000000000001</ele><time>2026-04-01T14:51:28Z</time></trkpt><trkpt lat="46.028138190815355" lon="13.39731814851496"><ele>98.0</ele><time>2026-04-01T14:51:29Z</time></trkpt><trkpt lat="46.0282540927004" lon="13.397358207014396"><ele>98.25</ele><time>2026-04-01T14:51:30Z</time></trkpt><trkpt lat="46.02837468908024" lon="13.397403160121101"><ele>98.5</ele><time>2026-04-01T14:51:31Z</time></trkpt><trkpt lat="46.028510575359434" lon="13.397454278381774"><ele>98.75</ele><time>2026-04-01T14:51:32Z</time></trkpt><trkpt lat="46.02865630447217" lon="13.397504970353816"><ele>99.0</ele><time>2026-04-01T14:51:33Z</time></trkpt><trkpt lat="46.02880997343372" lon="13.397560949061882"><ele>99.0</ele><time>2026-04-01T14:51:34Z</time></trkpt><trkpt lat="46.02896903803938" lon="13.397617906960278"><ele>99.0</ele><time>2026-04-01T14:51:35Z</time></trkpt><trkpt lat="46.02912534089696" lon="13.397675606105793"><ele>99.0</ele><time>2026-04-01T14:51:36Z</time></trkpt><trkpt lat="46.02928854794348" lon="13.397736701241046"><ele>98.66666666666666</ele><time>2026-04-01T14:51:37Z</time></trkpt><trkpt lat="46.029453738624994" lon="13.397796100348286"><ele>98.33333333333333</ele><time>2026-04-01T14:51:38Z</time></trkpt><trkpt lat="46.029620640849195" lon="13.397853069615914"><ele>98.0</ele><time>2026-04-01T14:51:39Z</time></trkpt><trkpt lat="46.029783828230876" lon="13.39790982961272"><ele>98.0</ele><time>2026-04-01T14:51:39.999Z</time></trkpt><trkpt lat="46.0299421543463" lon="13.397972039281163"><ele>98.0</ele><time>2026-04-01T14:51:40.999Z</time></trkpt><trkpt lat="46.030100729389765" lon="13.398041996434513"><ele>98.0</ele><time>2026-04-01T14:51:41.999Z</time></trkpt><trkpt lat="46.03026354233841" lon="13.398112957737801"><ele>97.66666666666666</ele><time>2026-04-01T14:51:42.999Z</time></trkpt><trkpt lat="46.03043102055948" lon="13.398191318987399"><ele>97.33333333333334</ele><time>2026-04-01T14:51:43.999Z</time></trkpt><trkpt lat="46.03059777674061" lon="13.398263524106413"><ele>97.0</ele><time>2026-04-01T14:51:44.999Z</time></trkpt><trkpt lat="46.03076585913082" lon="13.398336716051935"><ele>96.0</ele><time>2026-04-01T14:51:45.999Z</time></trkpt><trkpt lat="46.03093602733474" lon="13.398416191596649"><ele>95.0</ele><time>2026-04-01T14:51:46.999Z</time></trkpt><trkpt lat="46.03111419963998" lon="13.398503436374257"><ele>94.0</ele><time>2026-04-01T14:51:47.999Z</time></trkpt><trkpt lat="46.031291749816816" lon="13.39859605062405"><ele>94.0</ele><time>2026-04-01T14:51:48.999Z</time></trkpt><trkpt lat="46.03146794098272" lon="13.39870030050326"><ele>94.0</ele><time>2026-04-01T14:51:49.999Z</time></trkpt><trkpt lat="46.031638141666384" lon="13.398811225325067"><ele>94.0</ele><time>2026-04-01T14:51:50.999Z</time></trkpt><trkpt lat="46.03180461464345" lon="13.398936221125847"><ele>94.33333333333333</ele><time>2026-04-01T14:51:51.999Z</time></trkpt><trkpt lat="46.031964191252825" lon="13.399063516159416"><ele>94.66666666666667</ele><time>2026-04-01T14:51:52.999Z</time></trkpt><trkpt lat="46.032128853814655" lon="13.39919140772928"><ele>95.0</ele><time>2026-04-01T14:51:53.999Z</time></trkpt><trkpt lat="46.03229622605979" lon="13.399317799747024"><ele>95.0</ele><time>2026-04-01T14:51:54.999Z</time></trkpt><trkpt lat="46.03246112481139" lon="13.399443933561534"><ele>95.0</ele><time>2026-04-01T14:51:55.999Z</time></trkpt><trkpt lat="46.03262567017778" lon="13.399569417313002"><ele>95.0</ele><time>2026-04-01T14:51:56.999Z</time></trkpt><trkpt lat="46.03279471343078" lon="13.399686671998161"><ele>96.0</ele><time>2026-04-01T14:51:57.999Z</time></trkpt><trkpt lat="46.03296399414215" lon="13.399787944826032"><ele>97.0</ele><time>2026-04-01T14:51:58.999Z</time></trkpt><trkpt lat="46.033132726556104" lon="13.399880587547129"><ele>98.0</ele><time>2026-04-01T14:51:59.999Z</time></trkpt><trkpt lat="46.033314418172665" lon="13.399959848789731"><ele>98.0</ele><time>2026-04-01T14:52:00.999Z</time></trkpt><trkpt lat="46.033505289208115" lon="13.400025184480217"><ele>98.0</ele><time>2026-04-01T14:52:01.999Z</time></trkpt><trkpt lat="46.03371004745587" lon="13.400097907036358"><ele>98.0</ele><time>2026-04-01T14:52:02.999Z</time></trkpt><trkpt lat="46.03392035193265" lon="13.400199256502"><ele>98.0</ele><time>2026-04-01T14:52:03.999Z</time></trkpt><trkpt lat="46.03413843433764" lon="13.400332200875654"><ele>98.0</ele><time>2026-04-01T14:52:04.999Z</time></trkpt><trkpt lat="46.034354201848465" lon="13.40046886282754"><ele>98.66666666666666</ele><time>2026-04-01T14:52:05.999Z</time></trkpt><trkpt lat="46.03454871143579" lon="13.400602134133967"><ele>99.33333333333334</ele><time>2026-04-01T14:52:06.999Z</time></trkpt><trkpt lat="46.03473827928611" lon="13.400735652743515"><ele>100.0</ele><time>2026-04-01T14:52:07.999Z</time></trkpt><trkpt lat="46.034921039865" lon="13.40087286606773"><ele>100.0</ele><time>2026-04-01T14:52:08.999Z</time></trkpt><trkpt lat="46.03509895360991" lon="13.401005074798068"><ele>100.0</ele><time>2026-04-01T14:52:09.999Z</time></trkpt><trkpt lat="46.035268643074176" lon="13.401152102782198"><ele>100.0</ele><time>2026-04-01T14:52:10.999Z</time></trkpt><trkpt lat="46.03543184094149" lon="13.401327342006986"><ele>100.0</ele><time>2026-04-01T14:52:11.999Z</time></trkpt><trkpt lat="46.03558952565918" lon="13.401536469111718"><ele>100.0</ele><time>2026-04-01T14:52:13Z</time></trkpt><trkpt lat="46.03575075067667" lon="13.401760638737123"><ele>100.0</ele><time>2026-04-01T14:52:14Z</time></trkpt><trkpt lat="46.035916396759745" lon="13.401987826776086"><ele>99.66666666666667</ele><time>2026-04-01T14:52:15Z</time></trkpt><trkpt lat="46.03608123817312" lon="13.402211217225952"><ele>99.33333333333334</ele><time>2026-04-01T14:52:16Z</time></trkpt><trkpt lat="46.0362420286707" lon="13.402421065033808"><ele>99.0</ele><time>2026-04-01T14:52:17Z</time></trkpt><trkpt lat="46.036391599869575" lon="13.402628215206068"><ele>99.0</ele><time>2026-04-01T14:52:18Z</time></trkpt><trkpt lat="46.036539599931984" lon="13.402823042599755"><ele>99.0</ele><time>2026-04-01T14:52:19Z</time></trkpt><trkpt lat="46.03668802529874" lon="13.403012406161851"><ele>99.0</ele><time>2026-04-01T14:52:20Z</time></trkpt><trkpt lat="46.03684733626842" lon="13.403189420455256"><ele>98.33333333333334</ele><time>2026-04-01T14:52:21Z</time></trkpt><trkpt lat="46.037008092547325" lon="13.403351918502002"><ele>97.66666666666667</ele><time>2026-04-01T14:52:22Z</time></trkpt><trkpt lat="46.03716993384064" lon="13.403499179277137"><ele>97.0</ele><time>2026-04-01T14:52:23Z</time></trkpt><trkpt lat="46.03734319628266" lon="13.4036266750503"><ele>97.33333333333334</ele><time>2026-04-01T14:52:24Z</time></trkpt><trkpt lat="46.037532864966" lon="13.403741104529031"><ele>97.66666666666666</ele><time>2026-04-01T14:52:25Z</time></trkpt><trkpt lat="46.037729140279644" lon="13.403835584463591"><ele>98.0</ele><time>2026-04-01T14:52:26Z</time></trkpt><trkpt lat="46.037914903491234" lon="13.403916938183459"><ele>99.0</ele><time>2026-04-01T14:52:27Z</time></trkpt><trkpt lat="46.038096313296265" lon="13.404006822867268"><ele>100.0</ele><time>2026-04-01T14:52:28Z</time></trkpt><trkpt lat="46.038279246440524" lon="13.404095974633016"><ele>101.0</ele><time>2026-04-01T14:52:29Z</time></trkpt><trkpt lat="46.038467285003" lon="13.404186705588629"><ele>101.66666666666666</ele><time>2026-04-01T14:52:30Z</time></trkpt><trkpt lat="46.03865367526609" lon="13.404280245010382"><ele>102.33333333333334</ele><time>2026-04-01T14:52:31Z</time></trkpt><trkpt lat="46.03883965423381" lon="13.404373099096224"><ele>103.0</ele><time>2026-04-01T14:52:32Z</time></trkpt><trkpt lat="46.039026508649464" lon="13.404460211387603"><ele>103.0</ele><time>2026-04-01T14:52:33Z</time></trkpt><trkpt lat="46.03921375127656" lon="13.404547778009489"><ele>103.0</ele><time>2026-04-01T14:52:34Z</time></trkpt><trkpt lat="46.03939356393605" lon="13.404629896284154"><ele>103.0</ele><time>2026-04-01T14:52:35Z</time></trkpt><trkpt lat="46.039565134726686" lon="13.404712859827878"><ele>103.0</ele><time>2026-04-01T14:52:36Z</time></trkpt><trkpt lat="46.03973512467195" lon="13.404794193901663"><ele>103.0</ele><time>2026-04-01T14:52:37Z</time></trkpt><trkpt lat="46.0399111450717" lon="13.404880378172816"><ele>103.0</ele><time>2026-04-01T14:52:38Z</time></trkpt><trkpt lat="46.040081230705844" lon="13.404972693240747"><ele>102.66666666666667</ele><time>2026-04-01T14:52:39Z</time></trkpt><trkpt lat="46.04024536669408" lon="13.405081697340467"><ele>102.33333333333334</ele><time>2026-04-01T14:52:40Z</time></trkpt><trkpt lat="46.0403992516131" lon="13.405206347529964"><ele>102.0</ele><time>2026-04-01T14:52:41Z</time></trkpt><trkpt lat="46.04054220442056" lon="13.405352389996137"><ele>102.0</ele><time>2026-04-01T14:52:42Z</time></trkpt><trkpt lat="46.04067740243352" lon="13.405508483087099"><ele>102.0</ele><time>2026-04-01T14:52:43Z</time></trkpt><trkpt lat="46.04081282759792" lon="13.405656638907693"><ele>102.0</ele><time>2026-04-01T14:52:44Z</time></trkpt><trkpt lat="46.040935002197294" lon="13.405779900231556"><ele>102.5</ele><time>2026-04-01T14:52:45Z</time></trkpt><trkpt lat="46.04105326468755" lon="13.405906764460532"><ele>103.0</ele><time>2026-04-01T14:52:46Z</time></trkpt><trkpt lat="46.04117659950147" lon="13.406031680367034"><ele>103.5</ele><time>2026-04-01T14:52:47Z</time></trkpt><trkpt lat="46.041286683649176" lon="13.406129193722315"><ele>104.0</ele><time>2026-04-01T14:52:48Z</time></trkpt><trkpt lat="46.041408332199055" lon="13.40621975180784"><ele>104.0</ele><time>2026-04-01T14:52:49Z</time></trkpt><trkpt lat="46.04151398134315" lon="13.40629583335527"><ele>104.0</ele><time>2026-04-01T14:52:50Z</time></trkpt><trkpt lat="46.04160877007091" lon="13.406398796368148"><ele>104.0</ele><time>2026-04-01T14:52:51Z</time></trkpt><trkpt lat="46.041702174193624" lon="13.406539741899122"><ele>104.0</ele><time>2026-04-01T14:52:52Z</time></trkpt><trkpt lat="46.04177163848388" lon="13.406724582330295"><ele>104.25</ele><time>2026-04-01T14:52:53Z</time></trkpt><trkpt lat="46.041843045946784" lon="13.406921466298025"><ele>104.5</ele><time>2026-04-01T14:52:54Z</time></trkpt><trkpt lat="46.04191057299438" lon="13.407078745357001"><ele>104.75</ele><time>2026-04-01T14:52:55Z</time></trkpt><trkpt lat="46.04196975605568" lon="13.407221206138619"><ele>105.0</ele><time>2026-04-01T14:52:56Z</time></trkpt><trkpt lat="46.042031938685824" lon="13.407370083796371"><ele>105.0</ele><time>2026-04-01T14:52:57Z</time></trkpt><trkpt lat="46.042095500281285" lon="13.407523481856373"><ele>105.0</ele><time>2026-04-01T14:52:58Z</time></trkpt><trkpt lat="46.04215880200863" lon="13.4076836250682"><ele>105.0</ele><time>2026-04-01T14:52:59Z</time></trkpt><trkpt lat="46.04222350332695" lon="13.407843441842516"><ele>105.0</ele><time>2026-04-01T14:53:00Z</time></trkpt><trkpt lat="46.04229129623869" lon="13.408006591252986"><ele>105.0</ele><time>2026-04-01T14:53:01Z</time></trkpt><trkpt lat="46.04236172986331" lon="13.40817897744316"><ele>105.0</ele><time>2026-04-01T14:53:02Z</time></trkpt><trkpt lat="46.04243081029106" lon="13.408361094773515"><ele>105.0</ele><time>2026-04-01T14:53:03Z</time></trkpt><trkpt lat="46.04250095501105" lon="13.408540115874171"><ele>105.0</ele><time>2026-04-01T14:53:04Z</time></trkpt><trkpt lat="46.042570390571846" lon="13.408717417073818"><ele>105.0</ele><time>2026-04-01T14:53:05Z</time></trkpt><trkpt lat="46.04263697247413" lon="13.408887938519966"><ele>105.0</ele><time>2026-04-01T14:53:06Z</time></trkpt><trkpt lat="46.042703540547286" lon="13.409054329855111"><ele>105.0</ele><time>2026-04-01T14:53:07Z</time></trkpt><trkpt lat="46.04276815497281" lon="13.409216296054723"><ele>105.0</ele><time>2026-04-01T14:53:08Z</time></trkpt><trkpt lat="46.042829828143" lon="13.409375960126669"><ele>105.0</ele><time>2026-04-01T14:53:09Z</time></trkpt><trkpt lat="46.0428904830185" lon="13.409531354630921"><ele>105.0</ele><time>2026-04-01T14:53:10Z</time></trkpt><trkpt lat="46.04295076465645" lon="13.409681126266412"><ele>105.0</ele><time>2026-04-01T14:53:11Z</time></trkpt><trkpt lat="46.0430063754472" lon="13.409834224406746"><ele>105.0</ele><time>2026-04-01T14:53:12Z</time></trkpt><trkpt lat="46.043043390688005" lon="13.40999238063359"><ele>104.75</ele><time>2026-04-01T14:53:13Z</time></trkpt><trkpt lat="46.043056328704765" lon="13.41014883720931"><ele>104.5</ele><time>2026-04-01T14:53:14Z</time></trkpt><trkpt lat="46.04303649466651" lon="13.410319871521148"><ele>104.25</ele><time>2026-04-01T14:53:15Z</time></trkpt><trkpt lat="46.04301139271825" lon="13.41050344402766"><ele>104.0</ele><time>2026-04-01T14:53:16Z</time></trkpt><trkpt lat="46.04299919514752" lon="13.410688732831181"><ele>104.0</ele><time>2026-04-01T14:53:17Z</time></trkpt><trkpt lat="46.04299431115676" lon="13.41085549675049"><ele>104.0</ele><time>2026-04-01T14:53:18Z</time></trkpt><trkpt lat="46.04300248969152" lon="13.411004247476372"><ele>104.0</ele><time>2026-04-01T14:53:19Z</time></trkpt><trkpt lat="46.043018943687564" lon="13.411132161087608"><ele>104.0</ele><time>2026-04-01T14:53:20Z</time></trkpt><trkpt lat="46.0430326158586" lon="13.411239329492343"><ele>104.0</ele><time>2026-04-01T14:53:21Z</time></trkpt><trkpt lat="46.04304726624179" lon="13.411336856975435"><ele>104.2</ele><time>2026-04-01T14:53:22Z</time></trkpt><trkpt lat="46.04306867294425" lon="13.411499533333613"><ele>104.4</ele><time>2026-04-01T14:53:24Z</time></trkpt><trkpt lat="46.04310222410905" lon="13.411629931037"><ele>104.6</ele><time>2026-04-01T14:53:26Z</time></trkpt><trkpt lat="46.04307772208862" lon="13.411773996464968"><ele>104.8</ele><time>2026-04-01T14:53:27Z</time></trkpt><trkpt lat="46.04308385528027" lon="13.411949134902365"><ele>105.0</ele><time>2026-04-01T14:53:28Z</time></trkpt><trkpt lat="46.043092200420034" lon="13.412142941320317"><ele>105.5</ele><time>2026-04-01T14:53:29Z</time></trkpt><trkpt lat="46.043099789770935" lon="13.412344705379601"><ele>106.0</ele><time>2026-04-01T14:53:30Z</time></trkpt><trkpt lat="46.043107496126986" lon="13.412516274289592"><ele>106.5</ele><time>2026-04-01T14:53:31Z</time></trkpt><trkpt lat="46.043126022109476" lon="13.412691590790015"><ele>107.0</ele><time>2026-04-01T14:53:32Z</time></trkpt><trkpt lat="46.043163619560325" lon="13.41288285447248"><ele>106.33333333333333</ele><time>2026-04-01T14:53:33Z</time></trkpt><trkpt lat="46.04321179156863" lon="13.413091243988381"><ele>105.66666666666666</ele><time>2026-04-01T14:53:34Z</time></trkpt><trkpt lat="46.043263467197455" lon="13.413302376653373"><ele>105.0</ele><time>2026-04-01T14:53:35Z</time></trkpt><trkpt lat="46.043327929541384" lon="13.413515924535734"><ele>106.0</ele><time>2026-04-01T14:53:36Z</time></trkpt><trkpt lat="46.04340303888554" lon="13.41373360900585"><ele>107.0</ele><time>2026-04-01T14:53:37Z</time></trkpt><trkpt lat="46.043469120739154" lon="13.413957691410296"><ele>108.0</ele><time>2026-04-01T14:53:38Z</time></trkpt><trkpt lat="46.04353132185001" lon="13.41417259764054"><ele>108.0</ele><time>2026-04-01T14:53:39Z</time></trkpt><trkpt lat="46.043593275030084" lon="13.414375975222875"><ele>108.0</ele><time>2026-04-01T14:53:40Z</time></trkpt><trkpt lat="46.043651041107566" lon="13.414575860401637"><ele>108.0</ele><time>2026-04-01T14:53:41Z</time></trkpt><trkpt lat="46.04369810148593" lon="13.41479450833086"><ele>108.33333333333334</ele><time>2026-04-01T14:53:42Z</time></trkpt><trkpt lat="46.04373691785891" lon="13.415029946450467"><ele>108.66666666666667</ele><time>2026-04-01T14:53:43Z</time></trkpt><trkpt lat="46.043770125194115" lon="13.4152547356922"><ele>109.0</ele><time>2026-04-01T14:53:43.999Z</time></trkpt><trkpt lat="46.04379606386968" lon="13.415445645690758"><ele>109.0</ele><time>2026-04-01T14:53:44.999Z</time></trkpt><trkpt lat="46.04382017027933" lon="13.415613533258865"><ele>109.0</ele><time>2026-04-01T14:53:45.999Z</time></trkpt><trkpt lat="46.0438313026193" lon="13.415772973061706"><ele>109.0</ele><time>2026-04-01T14:53:46.999Z</time></trkpt><trkpt lat="46.043816278126954" lon="13.415934583506383"><ele>109.0</ele><time>2026-04-01T14:53:47.999Z</time></trkpt><trkpt lat="46.043788341452455" lon="13.416085897650419"><ele>109.0</ele><time>2026-04-01T14:53:48.999Z</time></trkpt><trkpt lat="46.04376293387448" lon="13.416224302551063"><ele>109.0</ele><time>2026-04-01T14:53:49.999Z</time></trkpt><trkpt lat="46.043728564666324" lon="13.416375530125954"><ele>109.0</ele><time>2026-04-01T14:53:50.999Z</time></trkpt><trkpt lat="46.04369171834534" lon="13.416527640149432"><ele>109.0</ele><time>2026-04-01T14:53:51.999Z</time></trkpt><trkpt lat="46.04360551103487" lon="13.416633344997885"><ele>109.0</ele><time>2026-04-01T14:53:52.999Z</time></trkpt><trkpt lat="46.04361159404843" lon="13.416873563942731"><ele>109.0</ele><time>2026-04-01T14:53:53.999Z</time></trkpt><trkpt lat="46.043545367016236" lon="13.417062854873471"><ele>109.0</ele><time>2026-04-01T14:53:54.999Z</time></trkpt><trkpt lat="46.04348212893612" lon="13.417255637877695"><ele>109.0</ele><time>2026-04-01T14:53:55.999Z</time></trkpt><trkpt lat="46.04342493358482" lon="13.417439271141857"><ele>109.0</ele><time>2026-04-01T14:53:56.999Z</time></trkpt><trkpt lat="46.04336452914654" lon="13.417614658698028"><ele>108.75</ele><time>2026-04-01T14:53:57.999Z</time></trkpt><trkpt lat="46.04330315146692" lon="13.41779131867077"><ele>108.5</ele><time>2026-04-01T14:53:58.999Z</time></trkpt><trkpt lat="46.043239033459635" lon="13.417985817732486"><ele>108.25</ele><time>2026-04-01T14:53:59.999Z</time></trkpt><trkpt lat="46.04317559611693" lon="13.418185691711901"><ele>108.0</ele><time>2026-04-01T14:54:00.999Z</time></trkpt><trkpt lat="46.04311917829428" lon="13.418363210219033"><ele>108.0</ele><time>2026-04-01T14:54:01.999Z</time></trkpt><trkpt lat="46.04306298217644" lon="13.418543340564227"><ele>108.0</ele><time>2026-04-01T14:54:02.999Z</time></trkpt><trkpt lat="46.04300575940412" lon="13.418725313252429"><ele>108.0</ele><time>2026-04-01T14:54:03.999Z</time></trkpt><trkpt lat="46.042945411699115" lon="13.418904322317502"><ele>108.0</ele><time>2026-04-01T14:54:04.999Z</time></trkpt><trkpt lat="46.04289528388393" lon="13.41907196294199"><ele>108.0</ele><time>2026-04-01T14:54:05.999Z</time></trkpt><trkpt lat="46.042857407907135" lon="13.41922273229331"><ele>108.00000000000001</ele><time>2026-04-01T14:54:06.999Z</time></trkpt><trkpt lat="46.042823279474526" lon="13.419381854707138"><ele>108.00000000000001</ele><time>2026-04-01T14:54:07.999Z</time></trkpt><trkpt lat="46.04278897234875" lon="13.419516685959682"><ele>108.0</ele><time>2026-04-01T14:54:08.999Z</time></trkpt><trkpt lat="46.04272846133029" lon="13.419641574096325"><ele>108.0</ele><time>2026-04-01T14:54:09.999Z</time></trkpt><trkpt lat="46.042641132700574" lon="13.419736523823838"><ele>108.60000000000001</ele><time>2026-04-01T14:54:10.999Z</time></trkpt><trkpt lat="46.04255514423592" lon="13.419816586874875"><ele>109.20000000000002</ele><time>2026-04-01T14:54:11.999Z</time></trkpt><trkpt lat="46.04244384361853" lon="13.419761613387028"><ele>109.8</ele><time>2026-04-01T14:54:12.999Z</time></trkpt><trkpt lat="46.04233913336224" lon="13.419758442172883"><ele>110.4</ele><time>2026-04-01T14:54:13.999Z</time></trkpt><trkpt lat="46.04221600274615" lon="13.41975339254946"><ele>111.0</ele><time>2026-04-01T14:54:14.999Z</time></trkpt><trkpt lat="46.042074658274494" lon="13.41974596308387"><ele>111.75</ele><time>2026-04-01T14:54:15.999Z</time></trkpt><trkpt lat="46.04192855145589" lon="13.419739430092571"><ele>112.5</ele><time>2026-04-01T14:54:16.999Z</time></trkpt><trkpt lat="46.04179233158243" lon="13.419737699109504"><ele>113.25</ele><time>2026-04-01T14:54:17.999Z</time></trkpt><trkpt lat="46.041645396923336" lon="13.419739543714678"><ele>114.0</ele><time>2026-04-01T14:54:19Z</time></trkpt><trkpt lat="46.04148566405617" lon="13.419751093477476"><ele>114.66666666666666</ele><time>2026-04-01T14:54:20Z</time></trkpt><trkpt lat="46.04131443103534" lon="13.419777021346606"><ele>115.33333333333333</ele><time>2026-04-01T14:54:21Z</time></trkpt><trkpt lat="46.041145788966766" lon="13.419806795773393"><ele>116.0</ele><time>2026-04-01T14:54:22Z</time></trkpt><trkpt lat="46.04098330863185" lon="13.419838166058144"><ele>116.0</ele><time>2026-04-01T14:54:23Z</time></trkpt><trkpt lat="46.04082807384675" lon="13.419863894239855"><ele>116.0</ele><time>2026-04-01T14:54:24Z</time></trkpt><trkpt lat="46.04066788982365" lon="13.41987675167281"><ele>116.0</ele><time>2026-04-01T14:54:25Z</time></trkpt><trkpt lat="46.04050783181518" lon="13.41987085169658"><ele>115.33333333333333</ele><time>2026-04-01T14:54:26Z</time></trkpt><trkpt lat="46.04035373633419" lon="13.419852902065307"><ele>114.66666666666666</ele><time>2026-04-01T14:54:27Z</time></trkpt><trkpt lat="46.04019948126159" lon="13.419829353245905"><ele>114.0</ele><time>2026-04-01T14:54:28Z</time></trkpt><trkpt lat="46.040046462167915" lon="13.419805561072275"><ele>113.0</ele><time>2026-04-01T14:54:29Z</time></trkpt><trkpt lat="46.0398904568199" lon="13.419781302506959"><ele>112.0</ele><time>2026-04-01T14:54:30Z</time></trkpt><trkpt lat="46.03974837349515" lon="13.419759083672892"><ele>111.0</ele><time>2026-04-01T14:54:31Z</time></trkpt><trkpt lat="46.03962562992714" lon="13.419739820786507"><ele>110.0</ele><time>2026-04-01T14:54:32Z</time></trkpt><trkpt lat="46.039504136741066" lon="13.419717973991595"><ele>110.0</ele><time>2026-04-01T14:54:33Z</time></trkpt><trkpt lat="46.03937850735656" lon="13.419697614281013"><ele>110.0</ele><time>2026-04-01T14:54:34Z</time></trkpt><trkpt lat="46.03925216258565" lon="13.41968989558761"><ele>110.0</ele><time>2026-04-01T14:54:35Z</time></trkpt><trkpt lat="46.03912240540311" lon="13.419697345929588"><ele>110.0</ele><time>2026-04-01T14:54:36Z</time></trkpt><trkpt lat="46.0389833206763" lon="13.419729005906529"><ele>110.25</ele><time>2026-04-01T14:54:37Z</time></trkpt><trkpt lat="46.03884624878137" lon="13.419782475604144"><ele>110.5</ele><time>2026-04-01T14:54:38Z</time></trkpt><trkpt lat="46.038702878840795" lon="13.419841855138547"><ele>110.75</ele><time>2026-04-01T14:54:39Z</time></trkpt><trkpt lat="46.038565198960086" lon="13.41990002599504"><ele>111.0</ele><time>2026-04-01T14:54:40Z</time></trkpt><trkpt lat="46.038432125316355" lon="13.419954121759986"><ele>113.25</ele><time>2026-04-01T14:54:41Z</time></trkpt><trkpt lat="46.03829904102711" lon="13.42000175511031"><ele>115.5</ele><time>2026-04-01T14:54:42Z</time></trkpt><trkpt lat="46.03817248135594" lon="13.420019737879745"><ele>117.75</ele><time>2026-04-01T14:54:43Z</time></trkpt><trkpt lat="46.03804031889299" lon="13.420026022522201"><ele>120.0</ele><time>2026-04-01T14:54:44Z</time></trkpt><trkpt lat="46.03790441271349" lon="13.420030131602493"><ele>120.0</ele><time>2026-04-01T14:54:45Z</time></trkpt><trkpt lat="46.037760870956916" lon="13.420038094967971"><ele>120.0</ele><time>2026-04-01T14:54:46Z</time></trkpt><trkpt lat="46.037612629290145" lon="13.420052316316243"><ele>120.0</ele><time>2026-04-01T14:54:47Z</time></trkpt><trkpt lat="46.03748187232334" lon="13.420077659862915"><ele>120.0</ele><time>2026-04-01T14:54:48Z</time></trkpt><trkpt lat="46.03735343187621" lon="13.420134813767028"><ele>122.5</ele><time>2026-04-01T14:54:49Z</time></trkpt><trkpt lat="46.03723040952115" lon="13.420231858211482"><ele>125.0</ele><time>2026-04-01T14:54:50Z</time></trkpt><trkpt lat="46.03712449046993" lon="13.42037164804175"><ele>127.5</ele><time>2026-04-01T14:54:51Z</time></trkpt><trkpt lat="46.037022427731806" lon="13.420519233391937"><ele>130.0</ele><time>2026-04-01T14:54:52Z</time></trkpt><trkpt lat="46.03692617168282" lon="13.420657046984843"><ele>130.0</ele><time>2026-04-01T14:54:53Z</time></trkpt><trkpt lat="46.036847283894836" lon="13.420765457843936"><ele>130.0</ele><time>2026-04-01T14:54:54Z</time></trkpt><trkpt lat="46.0367630053258" lon="13.420864643447507"><ele>130.0</ele><time>2026-04-01T14:54:55Z</time></trkpt><trkpt lat="46.03667941622253" lon="13.420926839699092"><ele>130.0</ele><time>2026-04-01T14:54:56Z</time></trkpt><trkpt lat="46.03658227489312" lon="13.420967971183048"><ele>130.0</ele><time>2026-04-01T14:54:57Z</time></trkpt><trkpt lat="46.03648453427465" lon="13.420975611764808"><ele>130.6</ele><time>2026-04-01T14:54:58Z</time></trkpt><trkpt lat="46.03637903901965" lon="13.420940705522932"><ele>131.2</ele><time>2026-04-01T14:54:59Z</time></trkpt><trkpt lat="46.03626877502003" lon="13.420891539849928"><ele>131.8</ele><time>2026-04-01T14:55:00Z</time></trkpt><trkpt lat="46.03616488970646" lon="13.420846148521298"><ele>132.4</ele><time>2026-04-01T14:55:01Z</time></trkpt><trkpt lat="46.03606040002023" lon="13.420804090421504"><ele>133.0</ele><time>2026-04-01T14:55:02Z</time></trkpt><trkpt lat="46.035943669939556" lon="13.420785511359279"><ele>133.0</ele><time>2026-04-01T14:55:03Z</time></trkpt><trkpt lat="46.035816084128044" lon="13.42082834053181"><ele>133.0</ele><time>2026-04-01T14:55:04Z</time></trkpt><trkpt lat="46.0356969683012" lon="13.420944676071764"><ele>133.0</ele><time>2026-04-01T14:55:05Z</time></trkpt><trkpt lat="46.03560014664347" lon="13.421057550595092"><ele>133.0</ele><time>2026-04-01T14:55:06Z</time></trkpt><trkpt lat="46.035514160302235" lon="13.421150007750153"><ele>132.75</ele><time>2026-04-01T14:55:07Z</time></trkpt><trkpt lat="46.03541905820605" lon="13.421234062531685"><ele>132.5</ele><time>2026-04-01T14:55:08Z</time></trkpt><trkpt lat="46.0353179894692" lon="13.42131044992871"><ele>132.25</ele><time>2026-04-01T14:55:09Z</time></trkpt><trkpt lat="46.03520341666549" lon="13.421358024595026"><ele>132.0</ele><time>2026-04-01T14:55:10Z</time></trkpt><trkpt lat="46.03508142547128" lon="13.42138899479439"><ele>134.5</ele><time>2026-04-01T14:55:11Z</time></trkpt><trkpt lat="46.03496181743951" lon="13.421418926522906"><ele>137.0</ele><time>2026-04-01T14:55:12Z</time></trkpt><trkpt lat="46.03483680314349" lon="13.421428368436837"><ele>139.5</ele><time>2026-04-01T14:55:13Z</time></trkpt><trkpt lat="46.034701462199436" lon="13.421419288804767"><ele>142.0</ele><time>2026-04-01T14:55:14Z</time></trkpt><trkpt lat="46.03456519728628" lon="13.421389855899715"><ele>142.0</ele><time>2026-04-01T14:55:15Z</time></trkpt><trkpt lat="46.03442818002203" lon="13.421360203792542"><ele>142.0</ele><time>2026-04-01T14:55:16Z</time></trkpt><trkpt lat="46.0343064775891" lon="13.421348705617818"><ele>142.0</ele><time>2026-04-01T14:55:17Z</time></trkpt><trkpt lat="46.03419500744038" lon="13.421377725783302"><ele>142.0</ele><time>2026-04-01T14:55:18Z</time></trkpt><trkpt lat="46.03408782291576" lon="13.421450239638718"><ele>142.16666666666669</ele><time>2026-04-01T14:55:19Z</time></trkpt><trkpt lat="46.03402428985634" lon="13.42155988268669"><ele>142.33333333333334</ele><time>2026-04-01T14:55:20Z</time></trkpt><trkpt lat="46.03397419463899" lon="13.421623138586895"><ele>142.5</ele><time>2026-04-01T14:55:21Z</time></trkpt><trkpt lat="46.03393654484715" lon="13.421704806637488"><ele>142.66666666666666</ele><time>2026-04-01T14:55:22Z</time></trkpt><trkpt lat="46.03390138830869" lon="13.421792914132217"><ele>142.83333333333331</ele><time>2026-04-01T14:55:23Z</time></trkpt><trkpt lat="46.033942832131864" lon="13.421920615669602"><ele>143.0</ele><time>2026-04-01T14:55:24Z</time></trkpt><trkpt lat="46.03398556333629" lon="13.422063391022846"><ele>143.25</ele><time>2026-04-01T14:55:25Z</time></trkpt><trkpt lat="46.034043046334645" lon="13.422249118710607"><ele>143.5</ele><time>2026-04-01T14:55:26Z</time></trkpt><trkpt lat="46.03409945028853" lon="13.422430526257992"><ele>143.75</ele><time>2026-04-01T14:55:27Z</time></trkpt><trkpt lat="46.034151322609844" lon="13.422576152905744"><ele>144.0</ele><time>2026-04-01T14:55:28Z</time></trkpt><trkpt lat="46.034215899988126" lon="13.422726600746927"><ele>144.0</ele><time>2026-04-01T14:55:29Z</time></trkpt><trkpt lat="46.034299439823585" lon="13.422877809522843"><ele>144.0</ele><time>2026-04-01T14:55:30Z</time></trkpt><trkpt lat="46.03439656287273" lon="13.423037304845552"><ele>144.0</ele><time>2026-04-01T14:55:31Z</time></trkpt><trkpt lat="46.03450315589397" lon="13.42320414815447"><ele>144.0</ele><time>2026-04-01T14:55:32Z</time></trkpt><trkpt lat="46.034611911304864" lon="13.42338542319211"><ele>142.5</ele><time>2026-04-01T14:55:33Z</time></trkpt><trkpt lat="46.03471107138292" lon="13.423561552520153"><ele>141.0</ele><time>2026-04-01T14:55:34Z</time></trkpt><trkpt lat="46.03480069799932" lon="13.423728755037555"><ele>139.5</ele><time>2026-04-01T14:55:35Z</time></trkpt><trkpt lat="46.03487831856039" lon="13.423884977878874"><ele>138.0</ele><time>2026-04-01T14:55:36Z</time></trkpt><trkpt lat="46.03494955388919" lon="13.424025623334801"><ele>137.8</ele><time>2026-04-01T14:55:37Z</time></trkpt><trkpt lat="46.03501905337966" lon="13.424168011752315"><ele>137.60000000000002</ele><time>2026-04-01T14:55:38Z</time></trkpt><trkpt lat="46.03507933518373" lon="13.424312883278033"><ele>137.39999999999998</ele><time>2026-04-01T14:55:39Z</time></trkpt><trkpt lat="46.03511883483662" lon="13.424449477813914"><ele>137.2</ele><time>2026-04-01T14:55:40Z</time></trkpt><trkpt lat="46.03513584699834" lon="13.424586679786053"><ele>137.0</ele><time>2026-04-01T14:55:41Z</time></trkpt><trkpt lat="46.03512848908093" lon="13.42472568794172"><ele>136.79999999999998</ele><time>2026-04-01T14:55:42Z</time></trkpt><trkpt lat="46.03510034582739" lon="13.424854951708726"><ele>136.6</ele><time>2026-04-01T14:55:43Z</time></trkpt><trkpt lat="46.03504285553478" lon="13.424976035873392"><ele>136.39999999999998</ele><time>2026-04-01T14:55:44Z</time></trkpt><trkpt lat="46.03496239735331" lon="13.42506961387323"><ele>136.2</ele><time>2026-04-01T14:55:45Z</time></trkpt><trkpt lat="46.03486285832467" lon="13.425078951844005"><ele>136.0</ele><time>2026-04-01T14:55:46Z</time></trkpt><trkpt lat="46.034780424215946" lon="13.42512553878551"><ele>136.0</ele><time>2026-04-01T14:55:47Z</time></trkpt><trkpt lat="46.034696904339306" lon="13.425185452022195"><ele>136.0</ele><time>2026-04-01T14:55:48Z</time></trkpt><trkpt lat="46.03462654717283" lon="13.425273298892664"><ele>136.0</ele><time>2026-04-01T14:55:49Z</time></trkpt><trkpt lat="46.03457794714159" lon="13.425381166358582"><ele>136.0</ele><time>2026-04-01T14:55:49.999Z</time></trkpt><trkpt lat="46.0345714530067" lon="13.425510666061783"><ele>136.0</ele><time>2026-04-01T14:55:50.999Z</time></trkpt><trkpt lat="46.034574507309856" lon="13.425641624726083"><ele>136.6</ele><time>2026-04-01T14:55:51.999Z</time></trkpt><trkpt lat="46.03459556385139" lon="13.425773973471284"><ele>137.2</ele><time>2026-04-01T14:55:52.999Z</time></trkpt><trkpt lat="46.034637244466886" lon="13.42589988083998"><ele>137.8</ele><time>2026-04-01T14:55:53.999Z</time></trkpt><trkpt lat="46.03470350241524" lon="13.426007842903413"><ele>138.4</ele><time>2026-04-01T14:55:54.999Z</time></trkpt><trkpt lat="46.03476217911073" lon="13.42613213776591"><ele>139.0</ele><time>2026-04-01T14:55:55.999Z</time></trkpt><trkpt lat="46.03479502409981" lon="13.426288902652011"><ele>139.5</ele><time>2026-04-01T14:55:56.999Z</time></trkpt><trkpt lat="46.034788145153534" lon="13.426462065868131"><ele>140.0</ele><time>2026-04-01T14:55:57.999Z</time></trkpt><trkpt lat="46.03477390899148" lon="13.426624634235719"><ele>140.5</ele><time>2026-04-01T14:55:58.999Z</time></trkpt><trkpt lat="46.03472753226783" lon="13.426783488753323"><ele>141.0</ele><time>2026-04-01T14:55:59.999Z</time></trkpt><trkpt lat="46.034685912796725" lon="13.426957777339128"><ele>141.33333333333334</ele><time>2026-04-01T14:56:00.999Z</time></trkpt><trkpt lat="46.03463931999448" lon="13.427154139425884"><ele>141.66666666666669</ele><time>2026-04-01T14:56:01.999Z</time></trkpt><trkpt lat="46.03458332487834" lon="13.427367406341835"><ele>142.0</ele><time>2026-04-01T14:56:02.999Z</time></trkpt><trkpt lat="46.0345221740636" lon="13.427591904644343"><ele>142.0</ele><time>2026-04-01T14:56:03.999Z</time></trkpt><trkpt lat="46.03446630092931" lon="13.427823585342443"><ele>142.0</ele><time>2026-04-01T14:56:04.999Z</time></trkpt><trkpt lat="46.0344159526275" lon="13.428034040516634"><ele>142.0</ele><time>2026-04-01T14:56:05.999Z</time></trkpt><trkpt lat="46.034369243835414" lon="13.428219135182072"><ele>142.25</ele><time>2026-04-01T14:56:06.999Z</time></trkpt><trkpt lat="46.034328372940436" lon="13.428391373160212"><ele>142.5</ele><time>2026-04-01T14:56:07.999Z</time></trkpt><trkpt lat="46.034284734870326" lon="13.4285653258774"><ele>142.75</ele><time>2026-04-01T14:56:08.999Z</time></trkpt><trkpt lat="46.03421907990907" lon="13.428719731476559"><ele>143.0</ele><time>2026-04-01T14:56:09.999Z</time></trkpt><trkpt lat="46.03415871262622" lon="13.428870717746005"><ele>142.5</ele><time>2026-04-01T14:56:10.999Z</time></trkpt><trkpt lat="46.03406777245135" lon="13.428986037112058"><ele>142.0</ele><time>2026-04-01T14:56:11.999Z</time></trkpt><trkpt lat="46.03395567587529" lon="13.42903154954586"><ele>141.5</ele><time>2026-04-01T14:56:12.999Z</time></trkpt><trkpt lat="46.033841290247615" lon="13.429081321750264"><ele>141.0</ele><time>2026-04-01T14:56:13.999Z</time></trkpt><trkpt lat="46.033718041808115" lon="13.429137234455888"><ele>141.0</ele><time>2026-04-01T14:56:14.999Z</time></trkpt><trkpt lat="46.03358521546373" lon="13.429192810566246"><ele>141.0</ele><time>2026-04-01T14:56:15.999Z</time></trkpt><trkpt lat="46.03343370292603" lon="13.429252195558362"><ele>141.0</ele><time>2026-04-01T14:56:16.999Z</time></trkpt><trkpt lat="46.03327399034188" lon="13.429317060641095"><ele>143.0</ele><time>2026-04-01T14:56:17.999Z</time></trkpt><trkpt lat="46.03313064511933" lon="13.429390123010691"><ele>145.0</ele><time>2026-04-01T14:56:18.999Z</time></trkpt><trkpt lat="46.03301043888215" lon="13.42947943452383"><ele>147.0</ele><time>2026-04-01T14:56:19.999Z</time></trkpt><trkpt lat="46.032890509492724" lon="13.429619496725575"><ele>149.0</ele><time>2026-04-01T14:56:20.999Z</time></trkpt><trkpt lat="46.03279586462598" lon="13.429791149500796"><ele>149.0</ele><time>2026-04-01T14:56:21.999Z</time></trkpt><trkpt lat="46.032708483707864" lon="13.429930051743066"><ele>149.0</ele><time>2026-04-01T14:56:22.999Z</time></trkpt><trkpt lat="46.03262706318095" lon="13.430052223498489"><ele>149.0</ele><time>2026-04-01T14:56:23.999Z</time></trkpt><trkpt lat="46.03253627543388" lon="13.430151690508785"><ele>149.0</ele><time>2026-04-01T14:56:25Z</time></trkpt><trkpt lat="46.0324441258356" lon="13.430248233304644"><ele>149.0</ele><time>2026-04-01T14:56:26Z</time></trkpt><trkpt lat="46.03235083085667" lon="13.430336789961563"><ele>149.0</ele><time>2026-04-01T14:56:27Z</time></trkpt><trkpt lat="46.032246689808034" lon="13.430354585532816"><ele>149.0</ele><time>2026-04-01T14:56:28Z</time></trkpt><trkpt lat="46.032159080729976" lon="13.430411605803407"><ele>149.0</ele><time>2026-04-01T14:56:29Z</time></trkpt><trkpt lat="46.0320621755559" lon="13.43045204734207"><ele>149.0</ele><time>2026-04-01T14:56:30Z</time></trkpt><trkpt lat="46.03194288661253" lon="13.430472939363419"><ele>149.25</ele><time>2026-04-01T14:56:31Z</time></trkpt><trkpt lat="46.03181498793888" lon="13.430526425667832"><ele>149.5</ele><time>2026-04-01T14:56:32Z</time></trkpt><trkpt lat="46.03170112563879" lon="13.430576426250743"><ele>149.75</ele><time>2026-04-01T14:56:33Z</time></trkpt><trkpt lat="46.03160119661421" lon="13.430617930454833"><ele>150.0</ele><time>2026-04-01T14:56:34Z</time></trkpt><trkpt lat="46.03150433811119" lon="13.430626103338374"><ele>149.8</ele><time>2026-04-01T14:56:35Z</time></trkpt><trkpt lat="46.031403289010214" lon="13.430589921582383"><ele>149.6</ele><time>2026-04-01T14:56:36Z</time></trkpt><trkpt lat="46.03131952082235" lon="13.430533722676117"><ele>149.4</ele><time>2026-04-01T14:56:37Z</time></trkpt><trkpt lat="46.03124740853046" lon="13.430437398056197"><ele>149.2</ele><time>2026-04-01T14:56:38Z</time></trkpt><trkpt lat="46.03116967461326" lon="13.430323985595273"><ele>149.0</ele><time>2026-04-01T14:56:39Z</time></trkpt><trkpt lat="46.03109508154385" lon="13.430213011264998"><ele>149.0</ele><time>2026-04-01T14:56:40Z</time></trkpt><trkpt lat="46.03101754121284" lon="13.430097602719652"><ele>149.0</ele><time>2026-04-01T14:56:41Z</time></trkpt><trkpt lat="46.03093670738324" lon="13.429975193489602"><ele>149.0</ele><time>2026-04-01T14:56:42Z</time></trkpt><trkpt lat="46.03085625804106" lon="13.429857415210993"><ele>149.0</ele><time>2026-04-01T14:56:43Z</time></trkpt><trkpt lat="46.03075336997883" lon="13.429756509152751"><ele>149.0</ele><time>2026-04-01T14:56:44Z</time></trkpt><trkpt lat="46.03063104837058" lon="13.429693640943563"><ele>149.0</ele><time>2026-04-01T14:56:45Z</time></trkpt><trkpt lat="46.03050295712625" lon="13.429661213074326"><ele>149.0</ele><time>2026-04-01T14:56:46Z</time></trkpt><trkpt lat="46.030385159210994" lon="13.429636542962172"><ele>149.0</ele><time>2026-04-01T14:56:47Z</time></trkpt><trkpt lat="46.03027822205191" lon="13.4296128006468"><ele>149.0</ele><time>2026-04-01T14:56:48Z</time></trkpt><trkpt lat="46.03017951736771" lon="13.42958462307964"><ele>149.0</ele><time>2026-04-01T14:56:49Z</time></trkpt><trkpt lat="46.03008179776814" lon="13.429538839644339"><ele>149.0</ele><time>2026-04-01T14:56:50Z</time></trkpt><trkpt lat="46.02999299593411" lon="13.429459070484029"><ele>149.0</ele><time>2026-04-01T14:56:51Z</time></trkpt><trkpt lat="46.02990408954376" lon="13.429365888742744"><ele>149.0</ele><time>2026-04-01T14:56:52Z</time></trkpt><trkpt lat="46.029813043448065" lon="13.429273346119736"><ele>149.0</ele><time>2026-04-01T14:56:53Z</time></trkpt><trkpt lat="46.02970700007416" lon="13.429213048571468"><ele>149.0</ele><time>2026-04-01T14:56:54Z</time></trkpt><trkpt lat="46.02959215240488" lon="13.429181962257104"><ele>149.0</ele><time>2026-04-01T14:56:55Z</time></trkpt><trkpt lat="46.0294699646586" lon="13.429177149393558"><ele>149.0</ele><time>2026-04-01T14:56:56Z</time></trkpt><trkpt lat="46.02936145151976" lon="13.429183011677859"><ele>149.0</ele><time>2026-04-01T14:56:57Z</time></trkpt><trkpt lat="46.029258302938864" lon="13.429122739880711"><ele>149.0</ele><time>2026-04-01T14:56:58Z</time></trkpt><trkpt lat="46.02914496732918" lon="13.429045858214165"><ele>149.0</ele><time>2026-04-01T14:56:59Z</time></trkpt><trkpt lat="46.02903498803026" lon="13.42895936378747"><ele>149.0</ele><time>2026-04-01T14:57:00Z</time></trkpt><trkpt lat="46.02892194459399" lon="13.428865788933116"><ele>149.5</ele><time>2026-04-01T14:57:01Z</time></trkpt><trkpt lat="46.028807466417035" lon="13.428768414001723"><ele>150.0</ele><time>2026-04-01T14:57:02Z</time></trkpt><trkpt lat="46.02869846958671" lon="13.42867502344271"><ele>150.5</ele><time>2026-04-01T14:57:03Z</time></trkpt><trkpt lat="46.028591966610676" lon="13.428601447618885"><ele>151.0</ele><time>2026-04-01T14:57:04Z</time></trkpt><trkpt lat="46.02848745292102" lon="13.428560024557232"><ele>151.0</ele><time>2026-04-01T14:57:05Z</time></trkpt><trkpt lat="46.02836815405526" lon="13.428540799646735"><ele>151.0</ele><time>2026-04-01T14:57:06Z</time></trkpt><trkpt lat="46.02825663986842" lon="13.428540932700207"><ele>151.0</ele><time>2026-04-01T14:57:07Z</time></trkpt><trkpt lat="46.02816496693117" lon="13.428555560058708"><ele>151.0</ele><time>2026-04-01T14:57:08Z</time></trkpt><trkpt lat="46.028076246955465" lon="13.428573996818981"><ele>151.0</ele><time>2026-04-01T14:57:09Z</time></trkpt><trkpt lat="46.02798379615877" lon="13.428598083744028"><ele>150.83333333333334</ele><time>2026-04-01T14:57:10Z</time></trkpt><trkpt lat="46.0279001529831" lon="13.428626804400272"><ele>150.66666666666669</ele><time>2026-04-01T14:57:11Z</time></trkpt><trkpt lat="46.0278248187874" lon="13.428657174802971"><ele>150.5</ele><time>2026-04-01T14:57:12Z</time></trkpt><trkpt lat="46.027764607301044" lon="13.428692217245379"><ele>150.33333333333334</ele><time>2026-04-01T14:57:13Z</time></trkpt><trkpt lat="46.02767833208214" lon="13.428777282280652"><ele>150.16666666666666</ele><time>2026-04-01T14:57:15Z</time></trkpt><trkpt lat="46.02762527447262" lon="13.428916709871945"><ele>150.0</ele><time>2026-04-01T14:57:17Z</time></trkpt><trkpt lat="46.02767874525071" lon="13.429126479196379"><ele>150.0</ele><time>2026-04-01T14:57:19Z</time></trkpt><trkpt lat="46.02771005350538" lon="13.429230033142748"><ele>150.0</ele><time>2026-04-01T14:57:20Z</time></trkpt><trkpt lat="46.02774588502142" lon="13.429338800081867"><ele>150.0</ele><time>2026-04-01T14:57:21Z</time></trkpt><trkpt lat="46.02778309374565" lon="13.429463874626762"><ele>150.0</ele><time>2026-04-01T14:57:22Z</time></trkpt><trkpt lat="46.02781884518324" lon="13.429596755836744"><ele>150.0</ele><time>2026-04-01T14:57:23Z</time></trkpt><trkpt lat="46.0278548937056" lon="13.429717194727127"><ele>150.0</ele><time>2026-04-01T14:57:24Z</time></trkpt><trkpt lat="46.027884784921675" lon="13.429812384880028"><ele>148.8</ele><time>2026-04-01T14:57:25Z</time></trkpt><trkpt lat="46.0279310065805" lon="13.429963837038025"><ele>147.6</ele><time>2026-04-01T14:57:27Z</time></trkpt><trkpt lat="46.027961855941726" lon="13.430084550586772"><ele>146.4</ele><time>2026-04-01T14:57:29Z</time></trkpt><trkpt lat="46.0279906474924" lon="13.430184107783827"><ele>145.2</ele><time>2026-04-01T14:57:32Z</time></trkpt><trkpt lat="46.02802775262669" lon="13.430266963675813"><ele>144.0</ele><time>2026-04-01T14:59:52Z</time></trkpt><trkpt lat="46.028050231172436" lon="13.43045566320296"><ele>143.5</ele><time>2026-04-01T14:59:54Z</time></trkpt><trkpt lat="46.02806466274668" lon="13.430575656730715"><ele>143.0</ele><time>2026-04-01T14:59:55Z</time></trkpt><trkpt lat="46.028070236149624" lon="13.4307046954312"><ele>142.5</ele><time>2026-04-01T14:59:56Z</time></trkpt><trkpt lat="46.02803875414422" lon="13.43083493961182"><ele>142.0</ele><time>2026-04-01T14:59:57Z</time></trkpt><trkpt lat="46.028046298778456" lon="13.430972568645993"><ele>141.5</ele><time>2026-04-01T14:59:57.999Z</time></trkpt><trkpt lat="46.02804419020211" lon="13.431091557666612"><ele>141.0</ele><time>2026-04-01T14:59:58.999Z</time></trkpt><trkpt lat="46.028052474615585" lon="13.431197022620678"><ele>141.0</ele><time>2026-04-01T14:59:59.999Z</time></trkpt><trkpt lat="46.028059387432464" lon="13.431302957431635"><ele>141.0</ele><time>2026-04-01T15:00:00.999Z</time></trkpt><trkpt lat="46.028065585518746" lon="13.431422224419478"><ele>141.0</ele><time>2026-04-01T15:00:01.999Z</time></trkpt><trkpt lat="46.02806959527804" lon="13.431554513154165"><ele>141.0</ele><time>2026-04-01T15:00:02.999Z</time></trkpt><trkpt lat="46.028063246808316" lon="13.431690204991432"><ele>141.0</ele><time>2026-04-01T15:00:03.999Z</time></trkpt><trkpt lat="46.02804508661121" lon="13.431822793248537"><ele>141.0</ele><time>2026-04-01T15:00:04.999Z</time></trkpt><trkpt lat="46.028007713491256" lon="13.431941040969528"><ele>141.66666666666666</ele><time>2026-04-01T15:00:05.999Z</time></trkpt><trkpt lat="46.02794620929272" lon="13.43203712081177"><ele>142.33333333333334</ele><time>2026-04-01T15:00:06.999Z</time></trkpt><trkpt lat="46.02788176022556" lon="13.432128006986815"><ele>143.0</ele><time>2026-04-01T15:00:07.999Z</time></trkpt><trkpt lat="46.02781931312775" lon="13.43221857728731"><ele>143.66666666666669</ele><time>2026-04-01T15:00:08.999Z</time></trkpt><trkpt lat="46.027759089545896" lon="13.432308798584758"><ele>144.33333333333334</ele><time>2026-04-01T15:00:09.999Z</time></trkpt><trkpt lat="46.027700776580154" lon="13.432403799612901"><ele>145.0</ele><time>2026-04-01T15:00:10.999Z</time></trkpt><trkpt lat="46.02764668695283" lon="13.432511586660837"><ele>145.83333333333334</ele><time>2026-04-01T15:00:11.999Z</time></trkpt><trkpt lat="46.02760504443367" lon="13.432632736788378"><ele>146.66666666666669</ele><time>2026-04-01T15:00:12.999Z</time></trkpt><trkpt lat="46.02758281383333" lon="13.43275900006049"><ele>147.5</ele><time>2026-04-01T15:00:13.999Z</time></trkpt><trkpt lat="46.02757733332208" lon="13.432876595964471"><ele>148.33333333333334</ele><time>2026-04-01T15:00:14.999Z</time></trkpt><trkpt lat="46.02757784276656" lon="13.43300763966263"><ele>149.16666666666666</ele><time>2026-04-01T15:00:15.999Z</time></trkpt><trkpt lat="46.02757507432425" lon="13.433137389584697"><ele>150.0</ele><time>2026-04-01T15:00:16.999Z</time></trkpt><trkpt lat="46.02756778083233" lon="13.43325442435061"><ele>150.66666666666666</ele><time>2026-04-01T15:00:17.999Z</time></trkpt><trkpt lat="46.02754679305135" lon="13.433363906787807"><ele>151.33333333333334</ele><time>2026-04-01T15:00:18.999Z</time></trkpt><trkpt lat="46.02748448098114" lon="13.433436764095612"><ele>152.0</ele><time>2026-04-01T15:00:19.999Z</time></trkpt><trkpt lat="46.02740173792713" lon="13.433497345486254"><ele>152.66666666666669</ele><time>2026-04-01T15:00:20.999Z</time></trkpt><trkpt lat="46.027333552353475" lon="13.433576337692724"><ele>153.33333333333334</ele><time>2026-04-01T15:00:21.999Z</time></trkpt><trkpt lat="46.02726782500955" lon="13.433646883038762"><ele>154.0</ele><time>2026-04-01T15:00:22.999Z</time></trkpt><trkpt lat="46.02722047573494" lon="13.433740645730515"><ele>151.66666666666669</ele><time>2026-04-01T15:00:23.999Z</time></trkpt><trkpt lat="46.02719270431432" lon="13.433844533968523"><ele>149.33333333333334</ele><time>2026-04-01T15:00:24.999Z</time></trkpt><trkpt lat="46.0271879549588" lon="13.433962129298962"><ele>147.0</ele><time>2026-04-01T15:00:25.999Z</time></trkpt><trkpt lat="46.027196454697915" lon="13.434087297688421"><ele>144.66666666666666</ele><time>2026-04-01T15:00:26.999Z</time></trkpt><trkpt lat="46.02721842531305" lon="13.434216989935784"><ele>142.33333333333331</ele><time>2026-04-01T15:00:27.999Z</time></trkpt><trkpt lat="46.02725243804256" lon="13.434345409013305"><ele>140.0</ele><time>2026-04-01T15:00:28.999Z</time></trkpt><trkpt lat="46.02729205959505" lon="13.434472934669685"><ele>140.0</ele><time>2026-04-01T15:00:29.999Z</time></trkpt><trkpt lat="46.027328561293295" lon="13.434585851998932"><ele>140.0</ele><time>2026-04-01T15:00:30.999Z</time></trkpt><trkpt lat="46.02735638671776" lon="13.43468621350482"><ele>140.0</ele><time>2026-04-01T15:00:31.999Z</time></trkpt><trkpt lat="46.02736233393379" lon="13.434791064838326"><ele>140.0</ele><time>2026-04-01T15:00:32.999Z</time></trkpt><trkpt lat="46.02734533587185" lon="13.43490787565991"><ele>140.0</ele><time>2026-04-01T15:00:33.999Z</time></trkpt><trkpt lat="46.02731031189303" lon="13.435035506818869"><ele>140.0</ele><time>2026-04-01T15:00:34.999Z</time></trkpt><trkpt lat="46.027272463653816" lon="13.435173160833777"><ele>139.8</ele><time>2026-04-01T15:00:35.999Z</time></trkpt><trkpt lat="46.02723739223637" lon="13.43531873337403"><ele>139.6</ele><time>2026-04-01T15:00:37Z</time></trkpt><trkpt lat="46.0272035634232" lon="13.4354698906509"><ele>139.4</ele><time>2026-04-01T15:00:38Z</time></trkpt><trkpt lat="46.02716525894562" lon="13.43560064853633"><ele>139.2</ele><time>2026-04-01T15:00:39Z</time></trkpt><trkpt lat="46.02711450018171" lon="13.435717617732852"><ele>139.0</ele><time>2026-04-01T15:00:40Z</time></trkpt><trkpt lat="46.02704523337827" lon="13.435810841939093"><ele>138.0</ele><time>2026-04-01T15:00:41Z</time></trkpt><trkpt lat="46.02695460935479" lon="13.435846602475548"><ele>137.0</ele><time>2026-04-01T15:00:42Z</time></trkpt><trkpt lat="46.026871188939374" lon="13.43588224431918"><ele>136.0</ele><time>2026-04-01T15:00:43Z</time></trkpt><trkpt lat="46.026797257399835" lon="13.435957943454083"><ele>135.0</ele><time>2026-04-01T15:00:44Z</time></trkpt><trkpt lat="46.026727258867126" lon="13.43606064974481"><ele>134.0</ele><time>2026-04-01T15:00:45Z</time></trkpt><trkpt lat="46.02666945979596" lon="13.436200064941943"><ele>128.25</ele><time>2026-04-01T15:00:46Z</time></trkpt><trkpt lat="46.026610450192855" lon="13.436355398654216"><ele>122.5</ele><time>2026-04-01T15:00:47Z</time></trkpt><trkpt lat="46.02655719178625" lon="13.43652746283341"><ele>116.75</ele><time>2026-04-01T15:00:48Z</time></trkpt><trkpt lat="46.02651785825999" lon="13.436716990900335"><ele>111.0</ele><time>2026-04-01T15:00:49Z</time></trkpt><trkpt lat="46.026450865575306" lon="13.436892084138659"><ele>111.0</ele><time>2026-04-01T15:00:50Z</time></trkpt><trkpt lat="46.026369677616756" lon="13.437065889088625"><ele>111.0</ele><time>2026-04-01T15:00:51Z</time></trkpt><trkpt lat="46.02628645769476" lon="13.437245667392375"><ele>111.0</ele><time>2026-04-01T15:00:52Z</time></trkpt><trkpt lat="46.02620828531711" lon="13.437410389525164"><ele>111.0</ele><time>2026-04-01T15:00:53Z</time></trkpt><trkpt lat="46.02612629330861" lon="13.4375595851676"><ele>110.5</ele><time>2026-04-01T15:00:54Z</time></trkpt><trkpt lat="46.026033323803865" lon="13.437702190784556"><ele>110.0</ele><time>2026-04-01T15:00:55Z</time></trkpt><trkpt lat="46.025918565859854" lon="13.437800331413104"><ele>109.5</ele><time>2026-04-01T15:00:56Z</time></trkpt><trkpt lat="46.02580201427483" lon="13.437882156193275"><ele>109.0</ele><time>2026-04-01T15:00:57Z</time></trkpt><trkpt lat="46.025683324283555" lon="13.437959028813665"><ele>108.5</ele><time>2026-04-01T15:00:58Z</time></trkpt><trkpt lat="46.025575253215074" lon="13.438027414302223"><ele>108.0</ele><time>2026-04-01T15:00:59Z</time></trkpt><trkpt lat="46.0254769672471" lon="13.438106144581194"><ele>107.5</ele><time>2026-04-01T15:01:00Z</time></trkpt><trkpt lat="46.02539079139592" lon="13.438203512851784"><ele>107.0</ele><time>2026-04-01T15:01:01Z</time></trkpt><trkpt lat="46.02531791037086" lon="13.438335003436617"><ele>107.0</ele><time>2026-04-01T15:01:02Z</time></trkpt><trkpt lat="46.02528392342324" lon="13.438497836142528"><ele>106.99999999999999</ele><time>2026-04-01T15:01:03Z</time></trkpt><trkpt lat="46.02530030903628" lon="13.4386596029568"><ele>106.99999999999999</ele><time>2026-04-01T15:01:04Z</time></trkpt><trkpt lat="46.02532054195094" lon="13.43879877866803"><ele>107.0</ele><time>2026-04-01T15:01:05Z</time></trkpt><trkpt lat="46.0253410833421" lon="13.438927317199685"><ele>107.0</ele><time>2026-04-01T15:01:06Z</time></trkpt><trkpt lat="46.02535399176605" lon="13.439061833479387"><ele>107.0</ele><time>2026-04-01T15:01:07Z</time></trkpt><trkpt lat="46.02535993461807" lon="13.439196046420108"><ele>106.99999999999999</ele><time>2026-04-01T15:01:08Z</time></trkpt><trkpt lat="46.0253565091753" lon="13.4393256021821"><ele>106.99999999999999</ele><time>2026-04-01T15:01:09Z</time></trkpt><trkpt lat="46.025332260589224" lon="13.439452391906274"><ele>107.0</ele><time>2026-04-01T15:01:10Z</time></trkpt><trkpt lat="46.02528735948978" lon="13.439568395254415"><ele>107.0</ele><time>2026-04-01T15:01:11Z</time></trkpt><trkpt lat="46.0252215189775" lon="13.43967511494379"><ele>107.0</ele><time>2026-04-01T15:01:12Z</time></trkpt><trkpt lat="46.02513522101272" lon="13.439763472589428"><ele>106.99999999999999</ele><time>2026-04-01T15:01:13Z</time></trkpt><trkpt lat="46.02507059321946" lon="13.439881964902112"><ele>106.99999999999999</ele><time>2026-04-01T15:01:14Z</time></trkpt><trkpt lat="46.025023492121115" lon="13.440024562826489"><ele>107.0</ele><time>2026-04-01T15:01:15Z</time></trkpt><trkpt lat="46.025012469607944" lon="13.440170755349369"><ele>107.0</ele><time>2026-04-01T15:01:16Z</time></trkpt><trkpt lat="46.02500723243546" lon="13.44029888754699"><ele>106.99999999999999</ele><time>2026-04-01T15:01:17Z</time></trkpt><trkpt lat="46.02501354827519" lon="13.440413315669963"><ele>107.0</ele><time>2026-04-01T15:01:18Z</time></trkpt><trkpt lat="46.02502449628804" lon="13.440515613543646"><ele>107.0</ele><time>2026-04-01T15:01:19Z</time></trkpt><trkpt lat="46.02503084654522" lon="13.440610066716994"><ele>107.0</ele><time>2026-04-01T15:01:20Z</time></trkpt><trkpt lat="46.025039844986615" lon="13.440776972148218"><ele>106.99999999999999</ele><time>2026-04-01T15:01:22Z</time></trkpt><trkpt lat="46.025051634758675" lon="13.440880342604517"><ele>107.0</ele><time>2026-04-01T15:01:25Z</time></trkpt><trkpt lat="46.02508163744919" lon="13.440980623561058"><ele>106.8</ele><time>2026-04-01T15:01:30Z</time></trkpt><trkpt lat="46.02516795318048" lon="13.44107733890729"><ele>106.6</ele><time>2026-04-01T15:01:32Z</time></trkpt><trkpt lat="46.025247538567356" lon="13.441095924297926"><ele>106.39999999999999</ele><time>2026-04-01T15:01:33Z</time></trkpt><trkpt lat="46.02534423643646" lon="13.441125614330202"><ele>106.19999999999999</ele><time>2026-04-01T15:01:34Z</time></trkpt><trkpt lat="46.02546770278597" lon="13.44116629948491"><ele>106.0</ele><time>2026-04-01T15:01:35Z</time></trkpt><trkpt lat="46.02560229067078" lon="13.441204611729043"><ele>106.0</ele><time>2026-04-01T15:01:36Z</time></trkpt><trkpt lat="46.02574711086621" lon="13.441237348733583"><ele>106.0</ele><time>2026-04-01T15:01:37Z</time></trkpt><trkpt lat="46.02589483319369" lon="13.441266719336914"><ele>106.0</ele><time>2026-04-01T15:01:38Z</time></trkpt><trkpt lat="46.02604406130988" lon="13.441290491922093"><ele>106.0</ele><time>2026-04-01T15:01:39Z</time></trkpt><trkpt lat="46.026195451437765" lon="13.441316058326395"><ele>104.66666666666667</ele><time>2026-04-01T15:01:40Z</time></trkpt><trkpt lat="46.02634883154758" lon="13.44134313240395"><ele>103.33333333333334</ele><time>2026-04-01T15:01:41Z</time></trkpt><trkpt lat="46.02651258573085" lon="13.44137123350711"><ele>102.0</ele><time>2026-04-01T15:01:42Z</time></trkpt><trkpt lat="46.026682114495046" lon="13.441399507821677"><ele>101.33333333333334</ele><time>2026-04-01T15:01:43Z</time></trkpt><trkpt lat="46.02686247935253" lon="13.441426831942682"><ele>100.66666666666667</ele><time>2026-04-01T15:01:44Z</time></trkpt><trkpt lat="46.02705002166904" lon="13.441451928122289"><ele>100.0</ele><time>2026-04-01T15:01:45Z</time></trkpt><trkpt lat="46.027241870973455" lon="13.44147036046513"><ele>100.0</ele><time>2026-04-01T15:01:46Z</time></trkpt><trkpt lat="46.027436140895105" lon="13.441495423129416"><ele>100.0</ele><time>2026-04-01T15:01:47Z</time></trkpt><trkpt lat="46.027631476854374" lon="13.441529011038288"><ele>100.0</ele><time>2026-04-01T15:01:48Z</time></trkpt><trkpt lat="46.027819228682546" lon="13.44156720164968"><ele>100.66666666666667</ele><time>2026-04-01T15:01:49Z</time></trkpt><trkpt lat="46.02800768303248" lon="13.441608750276025"><ele>101.33333333333334</ele><time>2026-04-01T15:01:50Z</time></trkpt><trkpt lat="46.028203485073846" lon="13.441647375960216"><ele>102.0</ele><time>2026-04-01T15:01:51Z</time></trkpt><trkpt lat="46.02840258994982" lon="13.441680541152195"><ele>100.66666666666666</ele><time>2026-04-01T15:01:52Z</time></trkpt><trkpt lat="46.028593304367355" lon="13.441701482436086"><ele>99.33333333333333</ele><time>2026-04-01T15:01:53Z</time></trkpt><trkpt lat="46.02877214024119" lon="13.44172364632824"><ele>98.0</ele><time>2026-04-01T15:01:54Z</time></trkpt><trkpt lat="46.0289397144614" lon="13.441748531817646"><ele>98.0</ele><time>2026-04-01T15:01:55Z</time></trkpt><trkpt lat="46.02909900622451" lon="13.441774790060512"><ele>98.0</ele><time>2026-04-01T15:01:56Z</time></trkpt><trkpt lat="46.02926158326801" lon="13.44180003964214"><ele>98.0</ele><time>2026-04-01T15:01:57Z</time></trkpt><trkpt lat="46.02942707683266" lon="13.441822105972154"><ele>98.33333333333333</ele><time>2026-04-01T15:01:58Z</time></trkpt><trkpt lat="46.02959032128788" lon="13.44184507506903"><ele>98.66666666666666</ele><time>2026-04-01T15:01:59Z</time></trkpt><trkpt lat="46.02974834712467" lon="13.44186857752238"><ele>99.0</ele><time>2026-04-01T15:02:00Z</time></trkpt><trkpt lat="46.02990261002881" lon="13.441889159958162"><ele>99.66666666666666</ele><time>2026-04-01T15:02:00.999Z</time></trkpt><trkpt lat="46.030061852315576" lon="13.441908885012579"><ele>100.33333333333333</ele><time>2026-04-01T15:02:01.999Z</time></trkpt><trkpt lat="46.030223039407254" lon="13.441920658513187"><ele>101.0</ele><time>2026-04-01T15:02:02.999Z</time></trkpt><trkpt lat="46.030382901141515" lon="13.441928843173692"><ele>101.0</ele><time>2026-04-01T15:02:03.999Z</time></trkpt><trkpt lat="46.030543852534244" lon="13.441933438228425"><ele>101.0</ele><time>2026-04-01T15:02:04.999Z</time></trkpt><trkpt lat="46.030700902240355" lon="13.441930386147018"><ele>101.0</ele><time>2026-04-01T15:02:05.999Z</time></trkpt><trkpt lat="46.030855468830374" lon="13.441927741244172"><ele>100.66666666666666</ele><time>2026-04-01T15:02:06.999Z</time></trkpt><trkpt lat="46.0310086111558" lon="13.441925379270838"><ele>100.33333333333334</ele><time>2026-04-01T15:02:07.999Z</time></trkpt><trkpt lat="46.03116415264482" lon="13.441919459633842"><ele>100.0</ele><time>2026-04-01T15:02:08.999Z</time></trkpt><trkpt lat="46.03132072014249" lon="13.441916713794214"><ele>100.0</ele><time>2026-04-01T15:02:09.999Z</time></trkpt><trkpt lat="46.031478806618935" lon="13.441913437147011"><ele>100.0</ele><time>2026-04-01T15:02:10.999Z</time></trkpt><trkpt lat="46.03163832065002" lon="13.44190737592154"><ele>100.0</ele><time>2026-04-01T15:02:11.999Z</time></trkpt><trkpt lat="46.03179936296913" lon="13.441901331991659"><ele>100.33333333333334</ele><time>2026-04-01T15:02:12.999Z</time></trkpt><trkpt lat="46.0319600887402" lon="13.441895785132623"><ele>100.66666666666666</ele><time>2026-04-01T15:02:13.999Z</time></trkpt><trkpt lat="46.0321186536804" lon="13.441890661605475"><ele>101.0</ele><time>2026-04-01T15:02:14.999Z</time></trkpt><trkpt lat="46.03227547378905" lon="13.441883654656657"><ele>101.0</ele><time>2026-04-01T15:02:15.999Z</time></trkpt><trkpt lat="46.03243115030492" lon="13.44187769869285"><ele>101.0</ele><time>2026-04-01T15:02:16.999Z</time></trkpt><trkpt lat="46.032587327434875" lon="13.441872783413858"><ele>101.0</ele><time>2026-04-01T15:02:17.999Z</time></trkpt><trkpt lat="46.03274224850981" lon="13.441866541250738"><ele>101.33333333333333</ele><time>2026-04-01T15:02:18.999Z</time></trkpt><trkpt lat="46.032898406230395" lon="13.441861242050312"><ele>101.66666666666666</ele><time>2026-04-01T15:02:19.999Z</time></trkpt><trkpt lat="46.03305854114916" lon="13.441855195455487"><ele>102.0</ele><time>2026-04-01T15:02:20.999Z</time></trkpt><trkpt lat="46.033224229218796" lon="13.441850011970514"><ele>101.66666666666666</ele><time>2026-04-01T15:02:21.999Z</time></trkpt><trkpt lat="46.033390095260756" lon="13.441844066804636"><ele>101.33333333333333</ele><time>2026-04-01T15:02:22.999Z</time></trkpt><trkpt lat="46.03355561957576" lon="13.4418385227532"><ele>101.0</ele><time>2026-04-01T15:02:23.999Z</time></trkpt><trkpt lat="46.033719965716806" lon="13.441832492875609"><ele>101.0</ele><time>2026-04-01T15:02:24.999Z</time></trkpt><trkpt lat="46.0338868857691" lon="13.441830115858968"><ele>101.0</ele><time>2026-04-01T15:02:25.999Z</time></trkpt><trkpt lat="46.03404954253482" lon="13.441825319587815"><ele>101.0</ele><time>2026-04-01T15:02:26.999Z</time></trkpt><trkpt lat="46.034211474547384" lon="13.441820045753458"><ele>101.66666666666666</ele><time>2026-04-01T15:02:27.999Z</time></trkpt><trkpt lat="46.03437595678201" lon="13.441816711477246"><ele>102.33333333333334</ele><time>2026-04-01T15:02:28.999Z</time></trkpt><trkpt lat="46.03454179151692" lon="13.441813947036074"><ele>103.0</ele><time>2026-04-01T15:02:29.999Z</time></trkpt><trkpt lat="46.03470825169564" lon="13.441810221579285"><ele>103.0</ele><time>2026-04-01T15:02:30.999Z</time></trkpt><trkpt lat="46.03487621285752" lon="13.441802142102624"><ele>103.0</ele><time>2026-04-01T15:02:31.999Z</time></trkpt><trkpt lat="46.03503868215907" lon="13.441791365359485"><ele>103.0</ele><time>2026-04-01T15:02:32.999Z</time></trkpt><trkpt lat="46.03519796692029" lon="13.4417780558851"><ele>102.0</ele><time>2026-04-01T15:02:33.999Z</time></trkpt><trkpt lat="46.035355581620216" lon="13.441759254218491"><ele>101.0</ele><time>2026-04-01T15:02:34.999Z</time></trkpt><trkpt lat="46.0355103339874" lon="13.441729371913206"><ele>100.0</ele><time>2026-04-01T15:02:35.999Z</time></trkpt><trkpt lat="46.035660397314494" lon="13.44169007249222"><ele>101.0</ele><time>2026-04-01T15:02:36.999Z</time></trkpt><trkpt lat="46.035808587699364" lon="13.441648405899157"><ele>102.0</ele><time>2026-04-01T15:02:37.999Z</time></trkpt><trkpt lat="46.035955923220754" lon="13.441603373541579"><ele>103.0</ele><time>2026-04-01T15:02:38.999Z</time></trkpt><trkpt lat="46.03610470364746" lon="13.441547282493849"><ele>103.0</ele><time>2026-04-01T15:02:39.999Z</time></trkpt><trkpt lat="46.03625464845458" lon="13.441483784538528"><ele>103.0</ele><time>2026-04-01T15:02:40.999Z</time></trkpt><trkpt lat="46.03640407318244" lon="13.441415099518192"><ele>103.0</ele><time>2026-04-01T15:02:41.999Z</time></trkpt><trkpt lat="46.03655301588211" lon="13.441342070834448"><ele>102.66666666666667</ele><time>2026-04-01T15:02:43Z</time></trkpt><trkpt lat="46.0366992631502" lon="13.441260635700418"><ele>102.33333333333334</ele><time>2026-04-01T15:02:44Z</time></trkpt><trkpt lat="46.03684289428047" lon="13.44116389994732"><ele>102.0</ele><time>2026-04-01T15:02:45Z</time></trkpt><trkpt lat="46.036985703910084" lon="13.44106430239077"><ele>102.0</ele><time>2026-04-01T15:02:46Z</time></trkpt><trkpt lat="46.03712907076345" lon="13.440963158568193"><ele>102.0</ele><time>2026-04-01T15:02:47Z</time></trkpt><trkpt lat="46.037272615931904" lon="13.440855980542596"><ele>102.0</ele><time>2026-04-01T15:02:48Z</time></trkpt><trkpt lat="46.037411303852686" lon="13.440739861557645"><ele>102.33333333333334</ele><time>2026-04-01T15:02:49Z</time></trkpt><trkpt lat="46.03754780386" lon="13.440628561795661"><ele>102.66666666666667</ele><time>2026-04-01T15:02:50Z</time></trkpt><trkpt lat="46.0376813671299" lon="13.440518103918418"><ele>103.0</ele><time>2026-04-01T15:02:51Z</time></trkpt><trkpt lat="46.0378107418472" lon="13.440401005656184"><ele>103.0</ele><time>2026-04-01T15:02:52Z</time></trkpt><trkpt lat="46.03793749740765" lon="13.440282930752097"><ele>103.0</ele><time>2026-04-01T15:02:53Z</time></trkpt><trkpt lat="46.03806540701072" lon="13.440168408974085"><ele>103.0</ele><time>2026-04-01T15:02:54Z</time></trkpt><trkpt lat="46.03819282987872" lon="13.440061749051244"><ele>103.0</ele><time>2026-04-01T15:02:55Z</time></trkpt><trkpt lat="46.038324037458594" lon="13.439960772781895"><ele>103.33333333333334</ele><time>2026-04-01T15:02:56Z</time></trkpt><trkpt lat="46.038463727048175" lon="13.439865988570181"><ele>103.66666666666666</ele><time>2026-04-01T15:02:57Z</time></trkpt><trkpt lat="46.03860902891429" lon="13.439770070474575"><ele>104.0</ele><time>2026-04-01T15:02:58Z</time></trkpt><trkpt lat="46.03875890479897" lon="13.439673872807443"><ele>103.66666666666666</ele><time>2026-04-01T15:02:59Z</time></trkpt><trkpt lat="46.03891056706579" lon="13.439578914560313"><ele>103.33333333333334</ele><time>2026-04-01T15:03:00Z</time></trkpt><trkpt lat="46.03906036846827" lon="13.439485011139167"><ele>103.0</ele><time>2026-04-01T15:03:01Z</time></trkpt><trkpt lat="46.03920790627049" lon="13.439397990303313"><ele>103.5</ele><time>2026-04-01T15:03:02Z</time></trkpt><trkpt lat="46.03935413338666" lon="13.439326023111617"><ele>104.0</ele><time>2026-04-01T15:03:03Z</time></trkpt><trkpt lat="46.03949377050996" lon="13.439266426043815"><ele>104.5</ele><time>2026-04-01T15:03:04Z</time></trkpt><trkpt lat="46.03963034194013" lon="13.439218893323574"><ele>105.0</ele><time>2026-04-01T15:03:05Z</time></trkpt><trkpt lat="46.03975697607081" lon="13.43919160838224"><ele>105.0</ele><time>2026-04-01T15:03:06Z</time></trkpt><trkpt lat="46.03987668386945" lon="13.43917420999055"><ele>105.0</ele><time>2026-04-01T15:03:07Z</time></trkpt><trkpt lat="46.039994180912245" lon="13.439161313749429"><ele>105.0</ele><time>2026-04-01T15:03:08Z</time></trkpt><trkpt lat="46.040112002637606" lon="13.439150876961747"><ele>105.0</ele><time>2026-04-01T15:03:09Z</time></trkpt><trkpt lat="46.04022534600888" lon="13.439138590493254"><ele>105.33333333333333</ele><time>2026-04-01T15:03:10Z</time></trkpt><trkpt lat="46.04032450730309" lon="13.4391307040446"><ele>105.66666666666666</ele><time>2026-04-01T15:03:11Z</time></trkpt><trkpt lat="46.0404169856318" lon="13.439132840354942"><ele>106.0</ele><time>2026-04-01T15:03:12Z</time></trkpt><trkpt lat="46.0404961924578" lon="13.439159663862194"><ele>106.33333333333333</ele><time>2026-04-01T15:03:13Z</time></trkpt><trkpt lat="46.040563871566064" lon="13.439225586643019"><ele>106.66666666666666</ele><time>2026-04-01T15:03:14Z</time></trkpt><trkpt lat="46.04061082195444" lon="13.439330156551463"><ele>107.0</ele><time>2026-04-01T15:03:15Z</time></trkpt><trkpt lat="46.04063673885617" lon="13.439451277009123"><ele>107.0</ele><time>2026-04-01T15:03:16Z</time></trkpt><trkpt lat="46.040676713881915" lon="13.439565416791309"><ele>106.99999999999999</ele><time>2026-04-01T15:03:17Z</time></trkpt><trkpt lat="46.040666982674516" lon="13.439728554885674"><ele>106.99999999999999</ele><time>2026-04-01T15:03:18Z</time></trkpt><trkpt lat="46.04067983752409" lon="13.439889761224665"><ele>107.0</ele><time>2026-04-01T15:03:19Z</time></trkpt><trkpt lat="46.04068361319899" lon="13.440066705435235"><ele>107.0</ele><time>2026-04-01T15:03:20Z</time></trkpt><trkpt lat="46.0406972135001" lon="13.440256605205942"><ele>106.33333333333333</ele><time>2026-04-01T15:03:21Z</time></trkpt><trkpt lat="46.04071217600761" lon="13.440464960426725"><ele>105.66666666666666</ele><time>2026-04-01T15:03:22Z</time></trkpt><trkpt lat="46.0407205643474" lon="13.440690265306806"><ele>105.0</ele><time>2026-04-01T15:03:23Z</time></trkpt><trkpt lat="46.04073842068894" lon="13.440986125116318"><ele>106.5</ele><time>2026-04-01T15:03:24Z</time></trkpt><trkpt lat="46.040761599038305" lon="13.441351519112267"><ele>108.0</ele><time>2026-04-01T15:03:25Z</time></trkpt><trkpt lat="46.04078060798223" lon="13.441758684437296"><ele>107.5</ele><time>2026-04-01T15:03:26Z</time></trkpt><trkpt lat="46.040794655299095" lon="13.442139326253457"><ele>107.0</ele><time>2026-04-01T15:03:27Z</time></trkpt><trkpt lat="46.040809828819626" lon="13.442499008873899"><ele>107.0</ele><time>2026-04-01T15:03:28Z</time></trkpt><trkpt lat="46.04082635375542" lon="13.442841969606931"><ele>107.0</ele><time>2026-04-01T15:03:29Z</time></trkpt><trkpt lat="46.040842125864344" lon="13.443175432635176"><ele>107.0</ele><time>2026-04-01T15:03:30Z</time></trkpt><trkpt lat="46.04086529826965" lon="13.443515829198487"><ele>107.0</ele><time>2026-04-01T15:03:31Z</time></trkpt><trkpt lat="46.04088799478324" lon="13.443857817160467"><ele>107.5</ele><time>2026-04-01T15:03:32Z</time></trkpt><trkpt lat="46.04090474738441" lon="13.44419187776536"><ele>108.0</ele><time>2026-04-01T15:03:33Z</time></trkpt><trkpt lat="46.04092122713747" lon="13.444509554007066"><ele>108.0</ele><time>2026-04-01T15:03:34Z</time></trkpt><trkpt lat="46.040936933485995" lon="13.444811096611698"><ele>108.0</ele><time>2026-04-01T15:03:35Z</time></trkpt><trkpt lat="46.04094926502785" lon="13.445097163131393"><ele>108.0</ele><time>2026-04-01T15:03:36Z</time></trkpt><trkpt lat="46.04096255222043" lon="13.445379740117378"><ele>108.0</ele><time>2026-04-01T15:03:37Z</time></trkpt><trkpt lat="46.04097825649758" lon="13.445663815249649"><ele>108.0</ele><time>2026-04-01T15:03:38Z</time></trkpt><trkpt lat="46.040993189473355" lon="13.445942778606115"><ele>108.0</ele><time>2026-04-01T15:03:39Z</time></trkpt><trkpt lat="46.04100631000957" lon="13.44621118789108"><ele>108.0</ele><time>2026-04-01T15:03:40Z</time></trkpt><trkpt lat="46.04102010163903" lon="13.44647462021549"><ele>108.0</ele><time>2026-04-01T15:03:41Z</time></trkpt><trkpt lat="46.04103580001471" lon="13.446729994084839"><ele>108.0</ele><time>2026-04-01T15:03:42Z</time></trkpt><trkpt lat="46.04104673755024" lon="13.446974116462243"><ele>108.0</ele><time>2026-04-01T15:03:43Z</time></trkpt><trkpt lat="46.041057773296366" lon="13.447197222592429"><ele>108.0</ele><time>2026-04-01T15:03:44Z</time></trkpt><trkpt lat="46.04106700722749" lon="13.44739474500354"><ele>108.0</ele><time>2026-04-01T15:03:45Z</time></trkpt><trkpt lat="46.04107554153059" lon="13.447581657980928"><ele>108.0</ele><time>2026-04-01T15:03:46Z</time></trkpt><trkpt lat="46.041086138709716" lon="13.447751430899697"><ele>108.0</ele><time>2026-04-01T15:03:47Z</time></trkpt><trkpt lat="46.041095156310064" lon="13.447909590810248"><ele>108.00000000000001</ele><time>2026-04-01T15:03:48Z</time></trkpt><trkpt lat="46.04110590272702" lon="13.448061343152938"><ele>108.00000000000001</ele><time>2026-04-01T15:03:49Z</time></trkpt><trkpt lat="46.04111593491233" lon="13.448201040882356"><ele>108.0</ele><time>2026-04-01T15:03:50Z</time></trkpt><trkpt lat="46.041125105283406" lon="13.448326682849475"><ele>108.0</ele><time>2026-04-01T15:03:51Z</time></trkpt><trkpt lat="46.04112566606187" lon="13.448433865365478"><ele>108.0</ele><time>2026-04-01T15:03:52Z</time></trkpt><trkpt lat="46.041110678082475" lon="13.448531177888357"><ele>108.00000000000001</ele><time>2026-04-01T15:03:53Z</time></trkpt><trkpt lat="46.041067645672285" lon="13.448620043379174"><ele>108.00000000000001</ele><time>2026-04-01T15:03:54Z</time></trkpt><trkpt lat="46.04097723808109" lon="13.448640622643696"><ele>108.0</ele><time>2026-04-01T15:03:55Z</time></trkpt><trkpt lat="46.04086601579587" lon="13.44867501233593"><ele>108.0</ele><time>2026-04-01T15:03:56Z</time></trkpt><trkpt lat="46.0407367330057" lon="13.448720583957055"><ele>108.0</ele><time>2026-04-01T15:03:57Z</time></trkpt><trkpt lat="46.04060231817062" lon="13.448767964638677"><ele>108.0</ele><time>2026-04-01T15:03:58Z</time></trkpt><trkpt lat="46.04047079489233" lon="13.448814326038336"><ele>108.0</ele><time>2026-04-01T15:03:59Z</time></trkpt><trkpt lat="46.04033702417683" lon="13.44886147964307"><ele>108.0</ele><time>2026-04-01T15:04:00Z</time></trkpt><trkpt lat="46.040196041883625" lon="13.448911197459006"><ele>108.25</ele><time>2026-04-01T15:04:01Z</time></trkpt><trkpt lat="46.040048802707595" lon="13.448963123774716"><ele>108.5</ele><time>2026-04-01T15:04:01.999Z</time></trkpt><trkpt lat="46.03989924042405" lon="13.449016146054316"><ele>108.75</ele><time>2026-04-01T15:04:02.999Z</time></trkpt><trkpt lat="46.03976878401089" lon="13.449063984327811"><ele>109.0</ele><time>2026-04-01T15:04:03.999Z</time></trkpt><trkpt lat="46.03965889464141" lon="13.449107873971677"><ele>110.0</ele><time>2026-04-01T15:04:04.999Z</time></trkpt><trkpt lat="46.03955871951425" lon="13.449182540298645"><ele>111.0</ele><time>2026-04-01T15:04:05.999Z</time></trkpt><trkpt lat="46.03945502189121" lon="13.44925108624707"><ele>112.0</ele><time>2026-04-01T15:04:06.999Z</time></trkpt><trkpt lat="46.03935680311744" lon="13.449347667272418"><ele>113.0</ele><time>2026-04-01T15:04:07.999Z</time></trkpt><trkpt lat="46.03926366778382" lon="13.449457110468172"><ele>113.0</ele><time>2026-04-01T15:04:08.999Z</time></trkpt><trkpt lat="46.03917244439207" lon="13.449558042990404"><ele>113.0</ele><time>2026-04-01T15:04:09.999Z</time></trkpt><trkpt lat="46.03911561359898" lon="13.449703894296052"><ele>113.0</ele><time>2026-04-01T15:04:10.999Z</time></trkpt><trkpt lat="46.03907805514328" lon="13.44986019260892"><ele>113.0</ele><time>2026-04-01T15:04:11.999Z</time></trkpt><trkpt lat="46.03904060685454" lon="13.450005906256207"><ele>112.4</ele><time>2026-04-01T15:04:12.999Z</time></trkpt><trkpt lat="46.03901921742951" lon="13.450144386980357"><ele>111.80000000000001</ele><time>2026-04-01T15:04:13.999Z</time></trkpt><trkpt lat="46.03895342150168" lon="13.450269421352063"><ele>111.2</ele><time>2026-04-01T15:04:14.999Z</time></trkpt><trkpt lat="46.038869239446235" lon="13.450367634076088"><ele>110.6</ele><time>2026-04-01T15:04:15.999Z</time></trkpt><trkpt lat="46.038765768330435" lon="13.450399106721871"><ele>110.0</ele><time>2026-04-01T15:04:16.999Z</time></trkpt><trkpt lat="46.03866970198464" lon="13.450422540664324"><ele>110.0</ele><time>2026-04-01T15:04:17.999Z</time></trkpt><trkpt lat="46.03857363350958" lon="13.450431359644584"><ele>110.0</ele><time>2026-04-01T15:04:18.999Z</time></trkpt><trkpt lat="46.038466442545136" lon="13.450441376327026"><ele>110.0</ele><time>2026-04-01T15:04:19.999Z</time></trkpt><trkpt lat="46.03835514670856" lon="13.450455730812985"><ele>110.0</ele><time>2026-04-01T15:04:20.999Z</time></trkpt><trkpt lat="46.038260811982894" lon="13.450479834796115"><ele>110.0</ele><time>2026-04-01T15:04:21.999Z</time></trkpt><trkpt lat="46.03817384793655" lon="13.450514610770364"><ele>109.6</ele><time>2026-04-01T15:04:22.999Z</time></trkpt><trkpt lat="46.03809159669927" lon="13.450558768331335"><ele>109.2</ele><time>2026-04-01T15:04:23.999Z</time></trkpt><trkpt lat="46.03805151115029" lon="13.450737183585623"><ele>108.80000000000001</ele><time>2026-04-01T15:04:24.999Z</time></trkpt><trkpt lat="46.03801001418838" lon="13.450850783425096"><ele>108.4</ele><time>2026-04-01T15:04:25.999Z</time></trkpt><trkpt lat="46.037955835094984" lon="13.450963914193295"><ele>108.0</ele><time>2026-04-01T15:04:26.999Z</time></trkpt><trkpt lat="46.03791013828761" lon="13.45108309727455"><ele>108.0</ele><time>2026-04-01T15:04:27.999Z</time></trkpt><trkpt lat="46.03787649238778" lon="13.451213942490968"><ele>108.00000000000001</ele><time>2026-04-01T15:04:28.999Z</time></trkpt><trkpt lat="46.0378039498886" lon="13.45134306350598"><ele>108.00000000000001</ele><time>2026-04-01T15:04:29.999Z</time></trkpt><trkpt lat="46.03774359967635" lon="13.451487432760056"><ele>108.0</ele><time>2026-04-01T15:04:30.999Z</time></trkpt><trkpt lat="46.03769890377333" lon="13.45163864082507"><ele>108.0</ele><time>2026-04-01T15:04:31.999Z</time></trkpt><trkpt lat="46.03764124958957" lon="13.451769621795679"><ele>108.60000000000001</ele><time>2026-04-01T15:04:32.999Z</time></trkpt><trkpt lat="46.0375808231325" lon="13.451913695311909"><ele>109.20000000000002</ele><time>2026-04-01T15:04:33.999Z</time></trkpt><trkpt lat="46.03751825663759" lon="13.452048575390457"><ele>109.8</ele><time>2026-04-01T15:04:34.999Z</time></trkpt><trkpt lat="46.03746540185234" lon="13.452174709229697"><ele>110.4</ele><time>2026-04-01T15:04:35.999Z</time></trkpt><trkpt lat="46.03741385751515" lon="13.45228925007224"><ele>111.0</ele><time>2026-04-01T15:04:36.999Z</time></trkpt><trkpt lat="46.037362039121085" lon="13.452393684255009"><ele>112.66666666666667</ele><time>2026-04-01T15:04:37.999Z</time></trkpt><trkpt lat="46.0373122541484" lon="13.452491373082784"><ele>114.33333333333334</ele><time>2026-04-01T15:04:38.999Z</time></trkpt><trkpt lat="46.03726071901651" lon="13.452567052001035"><ele>116.0</ele><time>2026-04-01T15:04:39.999Z</time></trkpt><trkpt lat="46.03723103317455" lon="13.452661591398272"><ele>117.66666666666667</ele><time>2026-04-01T15:04:40.999Z</time></trkpt><trkpt lat="46.03721254606403" lon="13.45275543668828"><ele>119.33333333333334</ele><time>2026-04-01T15:04:41.999Z</time></trkpt><trkpt lat="46.03719300847745" lon="13.452877857361413"><ele>121.0</ele><time>2026-04-01T15:04:42.999Z</time></trkpt><trkpt lat="46.037109061004664" lon="13.452999110405178"><ele>121.0</ele><time>2026-04-01T15:04:43.999Z</time></trkpt><trkpt lat="46.03708619723701" lon="13.45313707298958"><ele>121.0</ele><time>2026-04-01T15:04:44.999Z</time></trkpt><trkpt lat="46.03707060629188" lon="13.453269519708474"><ele>121.0</ele><time>2026-04-01T15:04:45.999Z</time></trkpt><trkpt lat="46.0370483205838" lon="13.45341620925052"><ele>121.0</ele><time>2026-04-01T15:04:46.999Z</time></trkpt><trkpt lat="46.037015658447125" lon="13.453552707582311"><ele>121.0</ele><time>2026-04-01T15:04:47.999Z</time></trkpt><trkpt lat="46.036952113626164" lon="13.453662227167344"><ele>121.0</ele><time>2026-04-01T15:04:49Z</time></trkpt><trkpt lat="46.036882385564596" lon="13.453763316783897"><ele>121.0</ele><time>2026-04-01T15:04:50Z</time></trkpt><trkpt lat="46.03680479252883" lon="13.453859445202466"><ele>121.0</ele><time>2026-04-01T15:04:51Z</time></trkpt><trkpt lat="46.0367434086832" lon="13.453968425240541"><ele>121.0</ele><time>2026-04-01T15:04:52Z</time></trkpt><trkpt lat="46.0366848363088" lon="13.454071212512952"><ele>121.0</ele><time>2026-04-01T15:04:53Z</time></trkpt><trkpt lat="46.036643316782815" lon="13.454195794120597"><ele>119.6</ele><time>2026-04-01T15:04:54Z</time></trkpt><trkpt lat="46.03661030173395" lon="13.454339487238109"><ele>118.19999999999999</ele><time>2026-04-01T15:04:55Z</time></trkpt><trkpt lat="46.03658896737912" lon="13.454497298344883"><ele>116.80000000000001</ele><time>2026-04-01T15:04:56Z</time></trkpt><trkpt lat="46.036578440048544" lon="13.454661382556518"><ele>115.4</ele><time>2026-04-01T15:04:57Z</time></trkpt><trkpt lat="46.036568684908794" lon="13.454809374946702"><ele>114.0</ele><time>2026-04-01T15:04:58Z</time></trkpt><trkpt lat="46.03657240573713" lon="13.45495027425773"><ele>114.0</ele><time>2026-04-01T15:04:59Z</time></trkpt><trkpt lat="46.03659978506369" lon="13.455091318964676"><ele>114.0</ele><time>2026-04-01T15:05:00Z</time></trkpt><trkpt lat="46.03663987530414" lon="13.455229922222026"><ele>114.0</ele><time>2026-04-01T15:05:01Z</time></trkpt><trkpt lat="46.0366840577023" lon="13.455355027318188"><ele>114.0</ele><time>2026-04-01T15:05:02Z</time></trkpt><trkpt lat="46.036737031941676" lon="13.455453485139675"><ele>114.0</ele><time>2026-04-01T15:05:03Z</time></trkpt><trkpt lat="46.03679604952444" lon="13.455508735281692"><ele>116.5</ele><time>2026-04-01T15:05:04Z</time></trkpt><trkpt lat="46.03684737898418" lon="13.455572664710445"><ele>119.0</ele><time>2026-04-01T15:05:05Z</time></trkpt><trkpt lat="46.03689778421454" lon="13.455651112078586"><ele>121.5</ele><time>2026-04-01T15:05:06Z</time></trkpt><trkpt lat="46.03695959645394" lon="13.45573436147232"><ele>124.0</ele><time>2026-04-01T15:05:07Z</time></trkpt><trkpt lat="46.037018981563676" lon="13.455837832525885"><ele>126.5</ele><time>2026-04-01T15:05:08Z</time></trkpt><trkpt lat="46.03707518014401" lon="13.45596021722284"><ele>129.0</ele><time>2026-04-01T15:05:09Z</time></trkpt><trkpt lat="46.037124913956944" lon="13.45607967890791"><ele>129.0</ele><time>2026-04-01T15:05:10Z</time></trkpt><trkpt lat="46.037155360393896" lon="13.456211062297747"><ele>129.0</ele><time>2026-04-01T15:05:11Z</time></trkpt><trkpt lat="46.037204230642544" lon="13.456344294319338"><ele>129.0</ele><time>2026-04-01T15:05:12Z</time></trkpt><trkpt lat="46.03726903966247" lon="13.456483864742825"><ele>129.0</ele><time>2026-04-01T15:05:13Z</time></trkpt><trkpt lat="46.03733674482019" lon="13.456607343110157"><ele>129.0</ele><time>2026-04-01T15:05:14Z</time></trkpt><trkpt lat="46.037404815816906" lon="13.456724276416642"><ele>130.8</ele><time>2026-04-01T15:05:15Z</time></trkpt><trkpt lat="46.03746649529817" lon="13.456846981841295"><ele>132.60000000000002</ele><time>2026-04-01T15:05:16Z</time></trkpt><trkpt lat="46.03753944137949" lon="13.45696861787481"><ele>134.4</ele><time>2026-04-01T15:05:17Z</time></trkpt><trkpt lat="46.03759991679247" lon="13.457079917141089"><ele>136.20000000000002</ele><time>2026-04-01T15:05:18Z</time></trkpt><trkpt lat="46.03766698678852" lon="13.457186140882532"><ele>138.0</ele><time>2026-04-01T15:05:19Z</time></trkpt><trkpt lat="46.03773206765808" lon="13.457301512967693"><ele>140.0</ele><time>2026-04-01T15:05:20Z</time></trkpt><trkpt lat="46.03777757417902" lon="13.457424581283584"><ele>142.0</ele><time>2026-04-01T15:05:21Z</time></trkpt><trkpt lat="46.037813514475246" lon="13.45756804132346"><ele>144.0</ele><time>2026-04-01T15:05:22Z</time></trkpt><trkpt lat="46.03784702746299" lon="13.457726024990958"><ele>146.0</ele><time>2026-04-01T15:05:23Z</time></trkpt><trkpt lat="46.03788471624754" lon="13.457865278689889"><ele>148.0</ele><time>2026-04-01T15:05:24Z</time></trkpt><trkpt lat="46.03792842074133" lon="13.457996037731588"><ele>151.2</ele><time>2026-04-01T15:05:25Z</time></trkpt><trkpt lat="46.037973237889325" lon="13.458128838262562"><ele>154.4</ele><time>2026-04-01T15:05:26Z</time></trkpt><trkpt lat="46.0380106377182" lon="13.458265577135927"><ele>157.6</ele><time>2026-04-01T15:05:27Z</time></trkpt><trkpt lat="46.0380409515262" lon="13.458409395270271"><ele>160.79999999999998</ele><time>2026-04-01T15:05:28Z</time></trkpt><trkpt lat="46.03805745287347" lon="13.45856892879226"><ele>164.0</ele><time>2026-04-01T15:05:29Z</time></trkpt><trkpt lat="46.03805785789327" lon="13.458730877419642"><ele>165.39999999999998</ele><time>2026-04-01T15:05:30Z</time></trkpt><trkpt lat="46.038015145987934" lon="13.458882191190929"><ele>166.8</ele><time>2026-04-01T15:05:31Z</time></trkpt><trkpt lat="46.03797675503442" lon="13.459030277594989"><ele>168.2</ele><time>2026-04-01T15:05:32Z</time></trkpt><trkpt lat="46.03794928248665" lon="13.45918095110657"><ele>169.60000000000002</ele><time>2026-04-01T15:05:33Z</time></trkpt><trkpt lat="46.03791736503305" lon="13.459289130485432"><ele>171.0</ele><time>2026-04-01T15:05:34Z</time></trkpt><trkpt lat="46.0378930208295" lon="13.459377056776217"><ele>171.0</ele><time>2026-04-01T15:05:35Z</time></trkpt><trkpt lat="46.03786273673172" lon="13.45945749986815"><ele>171.0</ele><time>2026-04-01T15:05:36Z</time></trkpt><trkpt lat="46.03783499053519" lon="13.45962822487926"><ele>171.0</ele><time>2026-04-01T15:05:38Z</time></trkpt><trkpt lat="46.037926448115684" lon="13.459744260161557"><ele>171.0</ele><time>2026-04-01T15:05:39Z</time></trkpt><trkpt lat="46.03797606457206" lon="13.459855470029183"><ele>171.0</ele><time>2026-04-01T15:05:40Z</time></trkpt><trkpt lat="46.0380295212994" lon="13.459977322632145"><ele>169.8</ele><time>2026-04-01T15:05:41Z</time></trkpt><trkpt lat="46.03808995334672" lon="13.460097761179304"><ele>168.60000000000002</ele><time>2026-04-01T15:05:42Z</time></trkpt><trkpt lat="46.03815955147432" lon="13.460210424529992"><ele>167.4</ele><time>2026-04-01T15:05:43Z</time></trkpt><trkpt lat="46.038233671569074" lon="13.460318952113033"><ele>166.2</ele><time>2026-04-01T15:05:44Z</time></trkpt><trkpt lat="46.03831228442195" lon="13.460421369492963"><ele>165.0</ele><time>2026-04-01T15:05:45Z</time></trkpt><trkpt lat="46.03839200530514" lon="13.46052713101569"><ele>168.4</ele><time>2026-04-01T15:05:46Z</time></trkpt><trkpt lat="46.038474178170034" lon="13.460639631773045"><ele>171.8</ele><time>2026-04-01T15:05:47Z</time></trkpt><trkpt lat="46.03855504932918" lon="13.460761881683784"><ele>175.2</ele><time>2026-04-01T15:05:48Z</time></trkpt><trkpt lat="46.038624601874844" lon="13.46087969937203"><ele>178.6</ele><time>2026-04-01T15:05:49Z</time></trkpt><trkpt lat="46.03866822791365" lon="13.460994894734537"><ele>182.0</ele><time>2026-04-01T15:05:50Z</time></trkpt><trkpt lat="46.03871573490271" lon="13.46110674901963"><ele>182.0</ele><time>2026-04-01T15:05:51Z</time></trkpt><trkpt lat="46.03876597057712" lon="13.461208666635697"><ele>182.0</ele><time>2026-04-01T15:05:52Z</time></trkpt><trkpt lat="46.03882086268979" lon="13.461298926737834"><ele>182.0</ele><time>2026-04-01T15:05:53Z</time></trkpt><trkpt lat="46.038886369193996" lon="13.461383544171857"><ele>182.0</ele><time>2026-04-01T15:05:54Z</time></trkpt><trkpt lat="46.03896512539021" lon="13.461480815819714"><ele>182.0</ele><time>2026-04-01T15:05:55Z</time></trkpt><trkpt lat="46.03905187007905" lon="13.461589919928473"><ele>183.39999999999998</ele><time>2026-04-01T15:05:56Z</time></trkpt><trkpt lat="46.039143164198315" lon="13.461700065563726"><ele>184.79999999999998</ele><time>2026-04-01T15:05:57Z</time></trkpt><trkpt lat="46.03923258226093" lon="13.461800626372867"><ele>186.2</ele><time>2026-04-01T15:05:58Z</time></trkpt><trkpt lat="46.03932063008116" lon="13.461891657862854"><ele>187.6</ele><time>2026-04-01T15:05:59Z</time></trkpt><trkpt lat="46.0394102540841" lon="13.461970509561842"><ele>189.0</ele><time>2026-04-01T15:06:00Z</time></trkpt><trkpt lat="46.03950319708083" lon="13.462037508162695"><ele>189.0</ele><time>2026-04-01T15:06:01Z</time></trkpt><trkpt lat="46.039595860518624" lon="13.462107557156651"><ele>189.0</ele><time>2026-04-01T15:06:02Z</time></trkpt><trkpt lat="46.03967523173816" lon="13.46217475125244"><ele>189.0</ele><time>2026-04-01T15:06:03Z</time></trkpt><trkpt lat="46.039739167098276" lon="13.462267169966442"><ele>189.0</ele><time>2026-04-01T15:06:04Z</time></trkpt><trkpt lat="46.03978717497451" lon="13.46237979183967"><ele>189.0</ele><time>2026-04-01T15:06:05Z</time></trkpt><trkpt lat="46.039846585193956" lon="13.462476782879659"><ele>189.16666666666666</ele><time>2026-04-01T15:06:05.999Z</time></trkpt><trkpt lat="46.039937468193635" lon="13.462557934101566"><ele>189.33333333333334</ele><time>2026-04-01T15:06:06.999Z</time></trkpt><trkpt lat="46.040019781833934" lon="13.4626297166651"><ele>189.5</ele><time>2026-04-01T15:06:07.999Z</time></trkpt><trkpt lat="46.04008713591422" lon="13.46270195421914"><ele>189.66666666666669</ele><time>2026-04-01T15:06:08.999Z</time></trkpt><trkpt lat="46.040150119872116" lon="13.46277295541294"><ele>189.83333333333334</ele><time>2026-04-01T15:06:09.999Z</time></trkpt><trkpt lat="46.04021027887798" lon="13.4628497825538"><ele>190.0</ele><time>2026-04-01T15:06:10.999Z</time></trkpt><trkpt lat="46.04026164527259" lon="13.462957830447571"><ele>190.0</ele><time>2026-04-01T15:06:11.999Z</time></trkpt><trkpt lat="46.04030137514588" lon="13.463087620929903"><ele>190.0</ele><time>2026-04-01T15:06:12.999Z</time></trkpt><trkpt lat="46.04035396166996" lon="13.46321974282522"><ele>190.0</ele><time>2026-04-01T15:06:13.999Z</time></trkpt><trkpt lat="46.040419305305065" lon="13.46334394083067"><ele>190.0</ele><time>2026-04-01T15:06:14.999Z</time></trkpt><trkpt lat="46.04050121351458" lon="13.463447196171618"><ele>190.0</ele><time>2026-04-01T15:06:15.999Z</time></trkpt><trkpt lat="46.04059244302489" lon="13.463527568697339"><ele>190.0</ele><time>2026-04-01T15:06:16.999Z</time></trkpt><trkpt lat="46.040684281809774" lon="13.46360683837813"><ele>190.0</ele><time>2026-04-01T15:06:17.999Z</time></trkpt><trkpt lat="46.040783433042165" lon="13.463680954689027"><ele>190.0</ele><time>2026-04-01T15:06:18.999Z</time></trkpt><trkpt lat="46.04088866733051" lon="13.463752781027223"><ele>190.0</ele><time>2026-04-01T15:06:19.999Z</time></trkpt><trkpt lat="46.04099044837314" lon="13.463822456526422"><ele>190.0</ele><time>2026-04-01T15:06:20.999Z</time></trkpt><trkpt lat="46.0410887845529" lon="13.463890313465583"><ele>189.8</ele><time>2026-04-01T15:06:21.999Z</time></trkpt><trkpt lat="46.04118455238276" lon="13.46395071469028"><ele>189.6</ele><time>2026-04-01T15:06:22.999Z</time></trkpt><trkpt lat="46.04127945816667" lon="13.46399342025538"><ele>189.39999999999998</ele><time>2026-04-01T15:06:23.999Z</time></trkpt><trkpt lat="46.04136961229008" lon="13.464012930221163"><ele>189.2</ele><time>2026-04-01T15:06:24.999Z</time></trkpt><trkpt lat="46.04146227892937" lon="13.464012433594968"><ele>189.0</ele><time>2026-04-01T15:06:25.999Z</time></trkpt><trkpt lat="46.04155291835109" lon="13.464008806518322"><ele>188.33333333333334</ele><time>2026-04-01T15:06:26.999Z</time></trkpt><trkpt lat="46.041634601071706" lon="13.464002103396409"><ele>187.66666666666666</ele><time>2026-04-01T15:06:27.999Z</time></trkpt><trkpt lat="46.0417159458752" lon="13.463981728512088"><ele>187.0</ele><time>2026-04-01T15:06:28.999Z</time></trkpt><trkpt lat="46.04179762600973" lon="13.463947753252866"><ele>186.33333333333331</ele><time>2026-04-01T15:06:29.999Z</time></trkpt><trkpt lat="46.04188005430039" lon="13.463903781687957"><ele>185.66666666666666</ele><time>2026-04-01T15:06:30.999Z</time></trkpt><trkpt lat="46.041963583384266" lon="13.463845804426677"><ele>185.0</ele><time>2026-04-01T15:06:31.999Z</time></trkpt><trkpt lat="46.042053777314024" lon="13.463786569669352"><ele>184.2</ele><time>2026-04-01T15:06:32.999Z</time></trkpt><trkpt lat="46.04215537543249" lon="13.463731780172328"><ele>183.4</ele><time>2026-04-01T15:06:33.999Z</time></trkpt><trkpt lat="46.04224345095578" lon="13.463680358093399"><ele>182.60000000000002</ele><time>2026-04-01T15:06:34.999Z</time></trkpt><trkpt lat="46.04233817474378" lon="13.463631989487887"><ele>181.8</ele><time>2026-04-01T15:06:35.999Z</time></trkpt><trkpt lat="46.042461157393625" lon="13.463570959209134"><ele>181.0</ele><time>2026-04-01T15:06:36.999Z</time></trkpt><trkpt lat="46.04260099222711" lon="13.463506534642466"><ele>181.0</ele><time>2026-04-01T15:06:37.999Z</time></trkpt><trkpt lat="46.042744504685764" lon="13.463438741939711"><ele>181.0</ele><time>2026-04-01T15:06:38.999Z</time></trkpt><trkpt lat="46.042866524240736" lon="13.463379493811612"><ele>181.0</ele><time>2026-04-01T15:06:39.999Z</time></trkpt><trkpt lat="46.042981511811945" lon="13.463322853024145"><ele>181.0</ele><time>2026-04-01T15:06:40.999Z</time></trkpt><trkpt lat="46.043093611272255" lon="13.463272118343879"><ele>181.0</ele><time>2026-04-01T15:06:41.999Z</time></trkpt><trkpt lat="46.04319977439379" lon="13.46321882743913"><ele>181.0</ele><time>2026-04-01T15:06:42.999Z</time></trkpt><trkpt lat="46.04330001152603" lon="13.463164099464633"><ele>181.0</ele><time>2026-04-01T15:06:43.999Z</time></trkpt><trkpt lat="46.04339470998743" lon="13.46308798919733"><ele>181.0</ele><time>2026-04-01T15:06:44.999Z</time></trkpt><trkpt lat="46.04347861069956" lon="13.462988484428635"><ele>181.0</ele><time>2026-04-01T15:06:45.999Z</time></trkpt><trkpt lat="46.04356263989213" lon="13.462888961670863"><ele>179.0</ele><time>2026-04-01T15:06:46.999Z</time></trkpt><trkpt lat="46.04364715451965" lon="13.462787727534213"><ele>177.0</ele><time>2026-04-01T15:06:47.999Z</time></trkpt><trkpt lat="46.04372500646744" lon="13.462681090336684"><ele>175.0</ele><time>2026-04-01T15:06:48.999Z</time></trkpt><trkpt lat="46.04378870703892" lon="13.462557394218448"><ele>173.0</ele><time>2026-04-01T15:06:49.999Z</time></trkpt><trkpt lat="46.0438456281222" lon="13.462433549853824"><ele>171.0</ele><time>2026-04-01T15:06:50.999Z</time></trkpt><trkpt lat="46.043883291090566" lon="13.462308796790152"><ele>171.0</ele><time>2026-04-01T15:06:51.999Z</time></trkpt><trkpt lat="46.043915589250744" lon="13.46218168896072"><ele>171.0</ele><time>2026-04-01T15:06:52.999Z</time></trkpt><trkpt lat="46.04390574227608" lon="13.462047323910141"><ele>171.0</ele><time>2026-04-01T15:06:53.999Z</time></trkpt><trkpt lat="46.043867637625354" lon="13.461923650182616"><ele>171.0</ele><time>2026-04-01T15:06:55Z</time></trkpt><trkpt lat="46.043882508083776" lon="13.46178861508397"><ele>171.0</ele><time>2026-04-01T15:06:56Z</time></trkpt><trkpt lat="46.043920738344646" lon="13.461667753733648"><ele>171.20000000000002</ele><time>2026-04-01T15:06:57Z</time></trkpt><trkpt lat="46.04397988364102" lon="13.46155620302883"><ele>171.4</ele><time>2026-04-01T15:06:58Z</time></trkpt><trkpt lat="46.04405157289324" lon="13.461470666354312"><ele>171.6</ele><time>2026-04-01T15:06:59Z</time></trkpt><trkpt lat="46.04413356394274" lon="13.461406200493178"><ele>171.8</ele><time>2026-04-01T15:07:00Z</time></trkpt><trkpt lat="46.04422015433186" lon="13.461340824470335"><ele>172.0</ele><time>2026-04-01T15:07:01Z</time></trkpt><trkpt lat="46.04429720657625" lon="13.46124702682261"><ele>172.0</ele><time>2026-04-01T15:07:02Z</time></trkpt><trkpt lat="46.044372882324716" lon="13.461141153431592"><ele>172.0</ele><time>2026-04-01T15:07:03Z</time></trkpt><trkpt lat="46.04445277351038" lon="13.461017553721529"><ele>172.0</ele><time>2026-04-01T15:07:04Z</time></trkpt><trkpt lat="46.044541030527604" lon="13.46089358618687"><ele>172.0</ele><time>2026-04-01T15:07:05Z</time></trkpt><trkpt lat="46.0446211346235" lon="13.460794115223342"><ele>172.0</ele><time>2026-04-01T15:07:06Z</time></trkpt><trkpt lat="46.044686616724135" lon="13.460714813527872"><ele>172.0</ele><time>2026-04-01T15:07:07Z</time></trkpt><trkpt lat="46.04475545192802" lon="13.460676593098189"><ele>172.0</ele><time>2026-04-01T15:07:08Z</time></trkpt><trkpt lat="46.044840547166196" lon="13.460681501008999"><ele>172.0</ele><time>2026-04-01T15:07:09Z</time></trkpt><trkpt lat="46.0449306451046" lon="13.460724932361035"><ele>172.0</ele><time>2026-04-01T15:07:10Z</time></trkpt><trkpt lat="46.04501854237321" lon="13.46076645363793"><ele>172.0</ele><time>2026-04-01T15:07:11Z</time></trkpt><trkpt lat="46.04509748650193" lon="13.460796227803494"><ele>170.16666666666669</ele><time>2026-04-01T15:07:12Z</time></trkpt><trkpt lat="46.045173411347015" lon="13.460811520548228"><ele>168.33333333333334</ele><time>2026-04-01T15:07:13Z</time></trkpt><trkpt lat="46.04524734832291" lon="13.460824342649625"><ele>166.5</ele><time>2026-04-01T15:07:14Z</time></trkpt><trkpt lat="46.045331558606705" lon="13.460835609230378"><ele>164.66666666666666</ele><time>2026-04-01T15:07:15Z</time></trkpt><trkpt lat="46.04542067182125" lon="13.460829073942827"><ele>162.83333333333331</ele><time>2026-04-01T15:07:16Z</time></trkpt><trkpt lat="46.045512299905695" lon="13.460802319854134"><ele>161.0</ele><time>2026-04-01T15:07:17Z</time></trkpt><trkpt lat="46.045606217345174" lon="13.460763113261022"><ele>161.0</ele><time>2026-04-01T15:07:18Z</time></trkpt><trkpt lat="46.04570032052238" lon="13.46071016736291"><ele>161.0</ele><time>2026-04-01T15:07:19Z</time></trkpt><trkpt lat="46.045794860294905" lon="13.460644218208943"><ele>161.0</ele><time>2026-04-01T15:07:20Z</time></trkpt><trkpt lat="46.04587789510528" lon="13.46056413439442"><ele>161.0</ele><time>2026-04-01T15:07:21Z</time></trkpt><trkpt lat="46.04595908538624" lon="13.460460606788144"><ele>161.0</ele><time>2026-04-01T15:07:22Z</time></trkpt><trkpt lat="46.04603266357837" lon="13.460334380933581"><ele>159.25</ele><time>2026-04-01T15:07:23Z</time></trkpt><trkpt lat="46.0461022272255" lon="13.460193541414581"><ele>157.5</ele><time>2026-04-01T15:07:24Z</time></trkpt><trkpt lat="46.0461799520943" lon="13.460057252917364"><ele>155.75</ele><time>2026-04-01T15:07:25Z</time></trkpt><trkpt lat="46.04625912276694" lon="13.45990870069813"><ele>154.0</ele><time>2026-04-01T15:07:26Z</time></trkpt><trkpt lat="46.0463481921843" lon="13.459764770376488"><ele>154.0</ele><time>2026-04-01T15:07:27Z</time></trkpt><trkpt lat="46.046443252347004" lon="13.45963852518123"><ele>154.0</ele><time>2026-04-01T15:07:28Z</time></trkpt><trkpt lat="46.04653646900795" lon="13.459517281102132"><ele>154.0</ele><time>2026-04-01T15:07:29Z</time></trkpt><trkpt lat="46.04663067167147" lon="13.459406259063648"><ele>154.0</ele><time>2026-04-01T15:07:30Z</time></trkpt><trkpt lat="46.04672665801175" lon="13.459310048613238"><ele>153.0</ele><time>2026-04-01T15:07:31Z</time></trkpt><trkpt lat="46.04682295613001" lon="13.459222443976946"><ele>152.0</ele><time>2026-04-01T15:07:32Z</time></trkpt><trkpt lat="46.04691629892416" lon="13.459134692609892"><ele>151.0</ele><time>2026-04-01T15:07:33Z</time></trkpt><trkpt lat="46.046998964038465" lon="13.459047577270956"><ele>150.0</ele><time>2026-04-01T15:07:34Z</time></trkpt><trkpt lat="46.04707030958887" lon="13.45896102688002"><ele>149.0</ele><time>2026-04-01T15:07:35Z</time></trkpt><trkpt lat="46.047137259667544" lon="13.458859473849678"><ele>148.0</ele><time>2026-04-01T15:07:36Z</time></trkpt><trkpt lat="46.0472081660767" lon="13.458754662612305"><ele>147.0</ele><time>2026-04-01T15:07:37Z</time></trkpt><trkpt lat="46.04725749070909" lon="13.458612212375984"><ele>146.0</ele><time>2026-04-01T15:07:38Z</time></trkpt><trkpt lat="46.04730674434097" lon="13.458478940857725"><ele>145.0</ele><time>2026-04-01T15:07:39Z</time></trkpt><trkpt lat="46.04735858760098" lon="13.4583509814671"><ele>144.0</ele><time>2026-04-01T15:07:40Z</time></trkpt><trkpt lat="46.04740732741184" lon="13.45822164395428"><ele>143.8</ele><time>2026-04-01T15:07:41Z</time></trkpt><trkpt lat="46.04747671870515" lon="13.45811292333562"><ele>143.60000000000002</ele><time>2026-04-01T15:07:42Z</time></trkpt><trkpt lat="46.04754487466002" lon="13.45800117511553"><ele>143.4</ele><time>2026-04-01T15:07:43Z</time></trkpt><trkpt lat="46.04760632767413" lon="13.45789530789541"><ele>143.20000000000002</ele><time>2026-04-01T15:07:44Z</time></trkpt><trkpt lat="46.04766466935589" lon="13.457802930249839"><ele>143.0</ele><time>2026-04-01T15:07:45Z</time></trkpt><trkpt lat="46.047715996279265" lon="13.457727912336527"><ele>143.0</ele><time>2026-04-01T15:07:46Z</time></trkpt><trkpt lat="46.047761238734104" lon="13.457661712344155"><ele>143.0</ele><time>2026-04-01T15:07:47Z</time></trkpt><trkpt lat="46.04782504781123" lon="13.457585588230055"><ele>143.0</ele><time>2026-04-01T15:07:49Z</time></trkpt><trkpt lat="46.047866632637536" lon="13.457490262434838"><ele>143.0</ele><time>2026-04-01T15:08:15.999Z</time></trkpt><trkpt lat="46.04781063487493" lon="13.457358671535276"><ele>143.0</ele><time>2026-04-01T15:08:17.999Z</time></trkpt><trkpt lat="46.047775138384615" lon="13.457272993821718"><ele>143.0</ele><time>2026-04-01T15:08:18.999Z</time></trkpt><trkpt lat="46.04773845590171" lon="13.457127534442245"><ele>142.83333333333331</ele><time>2026-04-01T15:08:20.999Z</time></trkpt><trkpt lat="46.047695831034055" lon="13.45697518420441"><ele>142.66666666666666</ele><time>2026-04-01T15:08:22.999Z</time></trkpt><trkpt lat="46.04766773732574" lon="13.456864541563576"><ele>142.5</ele><time>2026-04-01T15:08:24.999Z</time></trkpt><trkpt lat="46.04764148541494" lon="13.456761737246614"><ele>142.33333333333334</ele><time>2026-04-01T15:08:26.999Z</time></trkpt><trkpt lat="46.04762674982305" lon="13.45666827109978"><ele>142.16666666666669</ele><time>2026-04-01T15:08:29.999Z</time></trkpt><trkpt lat="46.04758674874015" lon="13.456565204665287"><ele>142.0</ele><time>2026-04-01T15:08:59.999Z</time></trkpt><trkpt lat="46.047561323093014" lon="13.456466844203334"><ele>142.0</ele><time>2026-04-01T15:09:01Z</time></trkpt><trkpt lat="46.04752583155402" lon="13.456340304890233"><ele>142.0</ele><time>2026-04-01T15:09:02Z</time></trkpt><trkpt lat="46.047500792635205" lon="13.456179982263949"><ele>142.0</ele><time>2026-04-01T15:09:03Z</time></trkpt><trkpt lat="46.0474550388488" lon="13.456013017264464"><ele>142.0</ele><time>2026-04-01T15:09:04Z</time></trkpt><trkpt lat="46.04740390839418" lon="13.455852557647418"><ele>142.75</ele><time>2026-04-01T15:09:05Z</time></trkpt><trkpt lat="46.047328834120314" lon="13.455710003368631"><ele>143.5</ele><time>2026-04-01T15:09:06Z</time></trkpt><trkpt lat="46.04723092090426" lon="13.455598615049109"><ele>144.25</ele><time>2026-04-01T15:09:07Z</time></trkpt><trkpt lat="46.04712995758375" lon="13.455490512267401"><ele>145.0</ele><time>2026-04-01T15:09:08Z</time></trkpt><trkpt lat="46.04702409644092" lon="13.45541161908658"><ele>143.0</ele><time>2026-04-01T15:09:09Z</time></trkpt><trkpt lat="46.046923890626985" lon="13.455363392558098"><ele>141.0</ele><time>2026-04-01T15:09:10Z</time></trkpt><trkpt lat="46.04680913490612" lon="13.45532062318654"><ele>139.0</ele><time>2026-04-01T15:09:11Z</time></trkpt><trkpt lat="46.046684065930485" lon="13.455340360725007"><ele>137.0</ele><time>2026-04-01T15:09:12Z</time></trkpt><trkpt lat="46.046574091042096" lon="13.455407888846656"><ele>136.79999999999998</ele><time>2026-04-01T15:09:13Z</time></trkpt><trkpt lat="46.04645389463114" lon="13.455440023707775"><ele>136.6</ele><time>2026-04-01T15:09:14Z</time></trkpt><trkpt lat="46.04634290487359" lon="13.455516188585866"><ele>136.39999999999998</ele><time>2026-04-01T15:09:15Z</time></trkpt><trkpt lat="46.046244120635144" lon="13.4555579550623"><ele>136.2</ele><time>2026-04-01T15:09:16Z</time></trkpt><trkpt lat="46.046151052942825" lon="13.455598012328586"><ele>136.0</ele><time>2026-04-01T15:09:17Z</time></trkpt><trkpt lat="46.046053439602865" lon="13.455647069483183"><ele>136.83333333333334</ele><time>2026-04-01T15:09:18Z</time></trkpt><trkpt lat="46.045963862350085" lon="13.455673257916697"><ele>137.66666666666669</ele><time>2026-04-01T15:09:19Z</time></trkpt><trkpt lat="46.045887308293146" lon="13.45568042036886"><ele>138.5</ele><time>2026-04-01T15:09:20Z</time></trkpt><trkpt lat="46.04581558824164" lon="13.455652400365468"><ele>139.33333333333334</ele><time>2026-04-01T15:09:21Z</time></trkpt><trkpt lat="46.04573459664956" lon="13.455605686397735"><ele>140.16666666666666</ele><time>2026-04-01T15:09:22Z</time></trkpt><trkpt lat="46.045644108170535" lon="13.455549184385465"><ele>141.0</ele><time>2026-04-01T15:09:23Z</time></trkpt><trkpt lat="46.04554759858959" lon="13.455490393617573"><ele>139.2</ele><time>2026-04-01T15:09:24Z</time></trkpt><trkpt lat="46.045452979602665" lon="13.455432562747431"><ele>137.39999999999998</ele><time>2026-04-01T15:09:25Z</time></trkpt><trkpt lat="46.045362097175975" lon="13.455374945520896"><ele>135.6</ele><time>2026-04-01T15:09:26Z</time></trkpt><trkpt lat="46.04526770389627" lon="13.455316009362836"><ele>133.79999999999998</ele><time>2026-04-01T15:09:27Z</time></trkpt><trkpt lat="46.04516907115033" lon="13.455261696966627"><ele>132.0</ele><time>2026-04-01T15:09:28Z</time></trkpt><trkpt lat="46.045042946728074" lon="13.455202405943199"><ele>132.75</ele><time>2026-04-01T15:09:29Z</time></trkpt><trkpt lat="46.04489196375096" lon="13.455143046911017"><ele>133.5</ele><time>2026-04-01T15:09:30Z</time></trkpt><trkpt lat="46.04474744774884" lon="13.455092043751813"><ele>134.25</ele><time>2026-04-01T15:09:31Z</time></trkpt><trkpt lat="46.044614640630904" lon="13.455045856392674"><ele>135.0</ele><time>2026-04-01T15:09:32Z</time></trkpt><trkpt lat="46.04448967678862" lon="13.455002802001939"><ele>135.0</ele><time>2026-04-01T15:09:33Z</time></trkpt><trkpt lat="46.04437627210222" lon="13.454955151977313"><ele>135.0</ele><time>2026-04-01T15:09:34Z</time></trkpt><trkpt lat="46.04426615382549" lon="13.454896328606054"><ele>135.0</ele><time>2026-04-01T15:09:35Z</time></trkpt><trkpt lat="46.044157793238945" lon="13.454822065301377"><ele>135.0</ele><time>2026-04-01T15:09:36Z</time></trkpt><trkpt lat="46.04405872005286" lon="13.454735839201065"><ele>134.8</ele><time>2026-04-01T15:09:37Z</time></trkpt><trkpt lat="46.04398210042359" lon="13.454659496416506"><ele>134.6</ele><time>2026-04-01T15:09:38Z</time></trkpt><trkpt lat="46.04392627231682" lon="13.454583049331134"><ele>134.4</ele><time>2026-04-01T15:09:39Z</time></trkpt><trkpt lat="46.04387801350444" lon="13.454496001538471"><ele>134.2</ele><time>2026-04-01T15:09:40Z</time></trkpt><trkpt lat="46.043832111471495" lon="13.454372672382751"><ele>134.0</ele><time>2026-04-01T15:09:41Z</time></trkpt><trkpt lat="46.043789768848534" lon="13.454219250704254"><ele>133.5</ele><time>2026-04-01T15:09:42Z</time></trkpt><trkpt lat="46.04373828754491" lon="13.454079911545612"><ele>133.0</ele><time>2026-04-01T15:09:43Z</time></trkpt><trkpt lat="46.04366305168455" lon="13.453946452953474"><ele>132.5</ele><time>2026-04-01T15:09:44Z</time></trkpt><trkpt lat="46.043581820521915" lon="13.4538168125285"><ele>132.0</ele><time>2026-04-01T15:09:45Z</time></trkpt><trkpt lat="46.043497649459574" lon="13.453682087822024"><ele>131.2</ele><time>2026-04-01T15:09:46Z</time></trkpt><trkpt lat="46.04341530014171" lon="13.453547975346872"><ele>130.39999999999998</ele><time>2026-04-01T15:09:47Z</time></trkpt><trkpt lat="46.043340989308504" lon="13.45342695415747"><ele>129.60000000000002</ele><time>2026-04-01T15:09:48Z</time></trkpt><trkpt lat="46.04327295966213" lon="13.453316162395577"><ele>128.8</ele><time>2026-04-01T15:09:49Z</time></trkpt><trkpt lat="46.04320751876851" lon="13.45320958659318"><ele>128.0</ele><time>2026-04-01T15:09:50Z</time></trkpt><trkpt lat="46.04314137497005" lon="13.453104849455643"><ele>125.80000000000001</ele><time>2026-04-01T15:09:51Z</time></trkpt><trkpt lat="46.04306259352474" lon="13.453019147969917"><ele>123.60000000000001</ele><time>2026-04-01T15:09:52Z</time></trkpt><trkpt lat="46.04296399766012" lon="13.452981402716235"><ele>121.39999999999999</ele><time>2026-04-01T15:09:53Z</time></trkpt><trkpt lat="46.0428584209208" lon="13.45300820870414"><ele>119.19999999999999</ele><time>2026-04-01T15:09:54Z</time></trkpt><trkpt lat="46.04276566965433" lon="13.453026695287996"><ele>117.0</ele><time>2026-04-01T15:09:55Z</time></trkpt><trkpt lat="46.0426953627506" lon="13.453042290157173"><ele>117.0</ele><time>2026-04-01T15:09:56Z</time></trkpt><trkpt lat="46.04262511674422" lon="13.452982833529353"><ele>116.99999999999999</ele><time>2026-04-01T15:09:57Z</time></trkpt><trkpt lat="46.042594055091186" lon="13.452849493978718"><ele>116.99999999999999</ele><time>2026-04-01T15:09:58Z</time></trkpt><trkpt lat="46.04255911513732" lon="13.452678125094716"><ele>117.0</ele><time>2026-04-01T15:09:59Z</time></trkpt><trkpt lat="46.04252709271826" lon="13.452495209925926"><ele>117.0</ele><time>2026-04-01T15:10:00Z</time></trkpt><trkpt lat="46.0425003883636" lon="13.45233570954129"><ele>115.75</ele><time>2026-04-01T15:10:01Z</time></trkpt><trkpt lat="46.04247446267126" lon="13.452174718221649"><ele>114.5</ele><time>2026-04-01T15:10:02Z</time></trkpt><trkpt lat="46.0424603696466" lon="13.452004232716828"><ele>113.25</ele><time>2026-04-01T15:10:03Z</time></trkpt><trkpt lat="46.04246279679798" lon="13.451811340102571"><ele>112.0</ele><time>2026-04-01T15:10:04Z</time></trkpt><trkpt lat="46.04247874837331" lon="13.451606425051484"><ele>110.66666666666667</ele><time>2026-04-01T15:10:05Z</time></trkpt><trkpt lat="46.042501032539256" lon="13.45138934154238"><ele>109.33333333333334</ele><time>2026-04-01T15:10:06Z</time></trkpt><trkpt lat="46.04251212972243" lon="13.45116695728751"><ele>108.0</ele><time>2026-04-01T15:10:07Z</time></trkpt><trkpt lat="46.04253824541993" lon="13.450961391215476"><ele>107.5</ele><time>2026-04-01T15:10:08Z</time></trkpt><trkpt lat="46.0425583115852" lon="13.450767674205803"><ele>107.0</ele><time>2026-04-01T15:10:09Z</time></trkpt><trkpt lat="46.042584603623354" lon="13.45057129572504"><ele>106.5</ele><time>2026-04-01T15:10:10Z</time></trkpt><trkpt lat="46.04260666244744" lon="13.450378062949921"><ele>106.0</ele><time>2026-04-01T15:10:11Z</time></trkpt><trkpt lat="46.042614964371815" lon="13.450205444403094"><ele>106.0</ele><time>2026-04-01T15:10:12Z</time></trkpt><trkpt lat="46.04262713633065" lon="13.450033490481296"><ele>106.0</ele><time>2026-04-01T15:10:13Z</time></trkpt><trkpt lat="46.04261895428004" lon="13.44985083676373"><ele>106.0</ele><time>2026-04-01T15:10:14Z</time></trkpt><trkpt lat="46.04260709278419" lon="13.449653793148785"><ele>106.0</ele><time>2026-04-01T15:10:15Z</time></trkpt><trkpt lat="46.04257587196779" lon="13.449453850259015"><ele>106.0</ele><time>2026-04-01T15:10:16Z</time></trkpt><trkpt lat="46.042561997238565" lon="13.449272304886561"><ele>106.0</ele><time>2026-04-01T15:10:16.999Z</time></trkpt><trkpt lat="46.04254392225041" lon="13.449108092317651"><ele>106.0</ele><time>2026-04-01T15:10:17.999Z</time></trkpt><trkpt lat="46.04252658025979" lon="13.448969217914213"><ele>106.0</ele><time>2026-04-01T15:10:18.999Z</time></trkpt><trkpt lat="46.042522965927695" lon="13.448819888311958"><ele>106.0</ele><time>2026-04-01T15:10:19.999Z</time></trkpt><trkpt lat="46.04250915652696" lon="13.448693189077643"><ele>106.0</ele><time>2026-04-01T15:10:20.999Z</time></trkpt><trkpt lat="46.04248721298078" lon="13.448560170774662"><ele>106.0</ele><time>2026-04-01T15:10:21.999Z</time></trkpt><trkpt lat="46.04248402319346" lon="13.44843078127197"><ele>106.0</ele><time>2026-04-01T15:10:22.999Z</time></trkpt><trkpt lat="46.04247378211584" lon="13.448334188034966"><ele>106.0</ele><time>2026-04-01T15:10:23.999Z</time></trkpt><trkpt lat="46.04246562561894" lon="13.448208438347768"><ele>106.0</ele><time>2026-04-01T15:10:25.999Z</time></trkpt><trkpt lat="46.04229309028031" lon="13.448227911443498"><ele>106.6</ele><time>2026-04-01T15:10:26.999Z</time></trkpt><trkpt lat="46.042206153857606" lon="13.448226447623703"><ele>107.19999999999999</ele><time>2026-04-01T15:10:27.999Z</time></trkpt><trkpt lat="46.04210620630751" lon="13.44825003438989"><ele>107.80000000000001</ele><time>2026-04-01T15:10:28.999Z</time></trkpt><trkpt lat="46.04200386768274" lon="13.448274185426195"><ele>108.4</ele><time>2026-04-01T15:10:29.999Z</time></trkpt><trkpt lat="46.04189586458936" lon="13.448301339665553"><ele>109.0</ele><time>2026-04-01T15:10:30.999Z</time></trkpt><trkpt lat="46.04178462209219" lon="13.448329715068901"><ele>109.0</ele><time>2026-04-01T15:10:31.999Z</time></trkpt><trkpt lat="46.04167493053751" lon="13.448358956448082"><ele>109.0</ele><time>2026-04-01T15:10:32.999Z</time></trkpt><trkpt lat="46.04157109085477" lon="13.448386637899198"><ele>109.0</ele><time>2026-04-01T15:10:33.999Z</time></trkpt><trkpt lat="46.041482364320885" lon="13.448411527437704"><ele>109.0</ele><time>2026-04-01T15:10:34.999Z</time></trkpt><trkpt lat="46.041404301239034" lon="13.448432515839249"><ele>109.0</ele><time>2026-04-01T15:10:35.999Z</time></trkpt><trkpt lat="46.04133180522166" lon="13.448452009480253"><ele>108.80000000000001</ele><time>2026-04-01T15:10:36.999Z</time></trkpt><trkpt lat="46.041267599924645" lon="13.4484692720368"><ele>108.60000000000001</ele><time>2026-04-01T15:10:37.999Z</time></trkpt><trkpt lat="46.04115884557315" lon="13.448451125135358"><ele>108.4</ele><time>2026-04-01T15:10:39.999Z</time></trkpt><trkpt lat="46.04113359068322" lon="13.448333285249927"><ele>108.2</ele><time>2026-04-01T15:10:40.999Z</time></trkpt><trkpt lat="46.041130934821986" lon="13.44819362233097"><ele>108.0</ele><time>2026-04-01T15:10:41.999Z</time></trkpt><trkpt lat="46.04112276360369" lon="13.448041541112289"><ele>108.0</ele><time>2026-04-01T15:10:42.999Z</time></trkpt><trkpt lat="46.0411110795386" lon="13.44787211066347"><ele>108.0</ele><time>2026-04-01T15:10:43.999Z</time></trkpt><trkpt lat="46.04109946378173" lon="13.44768855732386"><ele>108.0</ele><time>2026-04-01T15:10:44.999Z</time></trkpt><trkpt lat="46.04110433228414" lon="13.44749929562015"><ele>108.0</ele><time>2026-04-01T15:10:45.999Z</time></trkpt><trkpt lat="46.04107813399553" lon="13.447311541299221"><ele>108.0</ele><time>2026-04-01T15:10:46.999Z</time></trkpt><trkpt lat="46.04107114437815" lon="13.447107412004788"><ele>108.0</ele><time>2026-04-01T15:10:47.999Z</time></trkpt><trkpt lat="46.04106183637061" lon="13.446902489593905"><ele>108.0</ele><time>2026-04-01T15:10:48.999Z</time></trkpt><trkpt lat="46.041047876128424" lon="13.446694437268738"><ele>108.0</ele><time>2026-04-01T15:10:49.999Z</time></trkpt><trkpt lat="46.04103683357039" lon="13.446466165500583"><ele>108.0</ele><time>2026-04-01T15:10:50.999Z</time></trkpt><trkpt lat="46.04102650949753" lon="13.446222497195315"><ele>108.0</ele><time>2026-04-01T15:10:51.999Z</time></trkpt><trkpt lat="46.04101260913216" lon="13.445986171075234"><ele>108.0</ele><time>2026-04-01T15:10:52.999Z</time></trkpt><trkpt lat="46.04101448118833" lon="13.44574356254028"><ele>108.0</ele><time>2026-04-01T15:10:53.999Z</time></trkpt><trkpt lat="46.04098546758009" lon="13.445509612799466"><ele>108.0</ele><time>2026-04-01T15:10:54.999Z</time></trkpt><trkpt lat="46.040976436027684" lon="13.445283208666602"><ele>108.0</ele><time>2026-04-01T15:10:55.999Z</time></trkpt><trkpt lat="46.0409677224444" lon="13.44505759067153"><ele>108.0</ele><time>2026-04-01T15:10:56.999Z</time></trkpt><trkpt lat="46.0409551230603" lon="13.444822381502805"><ele>108.0</ele><time>2026-04-01T15:10:57.999Z</time></trkpt><trkpt lat="46.040942959348364" lon="13.44458139643201"><ele>108.0</ele><time>2026-04-01T15:10:58.999Z</time></trkpt><trkpt lat="46.04093267389987" lon="13.444331161926545"><ele>108.0</ele><time>2026-04-01T15:10:59.999Z</time></trkpt><trkpt lat="46.04092075096687" lon="13.444092293655421"><ele>108.0</ele><time>2026-04-01T15:11:00.999Z</time></trkpt><trkpt lat="46.04090663192484" lon="13.443858819699837"><ele>108.0</ele><time>2026-04-01T15:11:01.999Z</time></trkpt><trkpt lat="46.04089527999582" lon="13.443631308949842"><ele>107.66666666666666</ele><time>2026-04-01T15:11:02.999Z</time></trkpt><trkpt lat="46.04088392632636" lon="13.443410049762981"><ele>107.33333333333333</ele><time>2026-04-01T15:11:03.999Z</time></trkpt><trkpt lat="46.04087331298065" lon="13.443190837612244"><ele>107.0</ele><time>2026-04-01T15:11:04.999Z</time></trkpt><trkpt lat="46.040861617136066" lon="13.44296174747736"><ele>107.66666666666666</ele><time>2026-04-01T15:11:05.999Z</time></trkpt><trkpt lat="46.04084927823535" lon="13.442723821080637"><ele>108.33333333333334</ele><time>2026-04-01T15:11:07Z</time></trkpt><trkpt lat="46.040835526389245" lon="13.442478241739051"><ele>109.0</ele><time>2026-04-01T15:11:08Z</time></trkpt><trkpt lat="46.04082199225127" lon="13.442239184414904"><ele>109.33333333333334</ele><time>2026-04-01T15:11:09Z</time></trkpt><trkpt lat="46.040809447518306" lon="13.442004160848674"><ele>109.66666666666666</ele><time>2026-04-01T15:11:10Z</time></trkpt><trkpt lat="46.040796310876004" lon="13.441771202521936"><ele>110.0</ele><time>2026-04-01T15:11:11Z</time></trkpt><trkpt lat="46.04078318320793" lon="13.441545542429946"><ele>109.5</ele><time>2026-04-01T15:11:12Z</time></trkpt><trkpt lat="46.04077071873828" lon="13.441328334240627"><ele>109.0</ele><time>2026-04-01T15:11:13Z</time></trkpt><trkpt lat="46.040762855173874" lon="13.44112000860443"><ele>108.5</ele><time>2026-04-01T15:11:14Z</time></trkpt><trkpt lat="46.04075457135446" lon="13.440925580999515"><ele>108.0</ele><time>2026-04-01T15:11:15Z</time></trkpt><trkpt lat="46.040744318285675" lon="13.440740749494369"><ele>107.25</ele><time>2026-04-01T15:11:16Z</time></trkpt><trkpt lat="46.0407323718702" lon="13.440567350161587"><ele>106.5</ele><time>2026-04-01T15:11:17Z</time></trkpt><trkpt lat="46.040724995834864" lon="13.440401230284653"><ele>105.75</ele><time>2026-04-01T15:11:18Z</time></trkpt><trkpt lat="46.04071674473165" lon="13.440240464316966"><ele>105.0</ele><time>2026-04-01T15:11:19Z</time></trkpt><trkpt lat="46.040706080681886" lon="13.440078493647988"><ele>104.8</ele><time>2026-04-01T15:11:20Z</time></trkpt><trkpt lat="46.04069831691659" lon="13.439927066951569"><ele>104.6</ele><time>2026-04-01T15:11:21Z</time></trkpt><trkpt lat="46.04069097575138" lon="13.439790693591114"><ele>104.4</ele><time>2026-04-01T15:11:22Z</time></trkpt><trkpt lat="46.04068757667414" lon="13.439668455017836"><ele>104.2</ele><time>2026-04-01T15:11:23Z</time></trkpt><trkpt lat="46.04069107846117" lon="13.439566198755292"><ele>104.0</ele><time>2026-04-01T15:11:24Z</time></trkpt><trkpt lat="46.04072158463368" lon="13.439402876398127"><ele>104.28571428571428</ele><time>2026-04-01T15:11:26Z</time></trkpt><trkpt lat="46.04075863917444" lon="13.439321353384456"><ele>104.57142857142858</ele><time>2026-04-01T15:11:27Z</time></trkpt><trkpt lat="46.040802717532536" lon="13.439251905068872"><ele>104.85714285714286</ele><time>2026-04-01T15:11:28Z</time></trkpt><trkpt lat="46.040837240352126" lon="13.439169393881066"><ele>105.14285714285714</ele><time>2026-04-01T15:11:29Z</time></trkpt><trkpt lat="46.04084846485759" lon="13.439071154202544"><ele>105.42857142857142</ele><time>2026-04-01T15:11:30Z</time></trkpt><trkpt lat="46.040823964383996" lon="13.438974693780706"><ele>105.71428571428572</ele><time>2026-04-01T15:11:31Z</time></trkpt><trkpt lat="46.040775553620165" lon="13.438889711017822"><ele>106.0</ele><time>2026-04-01T15:11:32Z</time></trkpt><trkpt lat="46.04073225030765" lon="13.438796693793302"><ele>106.00000000000001</ele><time>2026-04-01T15:11:33Z</time></trkpt><trkpt lat="46.04070420767577" lon="13.438685529043855"><ele>106.0</ele><time>2026-04-01T15:11:34Z</time></trkpt><trkpt lat="46.04066458571491" lon="13.438589064838046"><ele>106.0</ele><time>2026-04-01T15:11:35Z</time></trkpt><trkpt lat="46.040691745260816" lon="13.438438220946585"><ele>106.0</ele><time>2026-04-01T15:11:36Z</time></trkpt><trkpt lat="46.04069487156895" lon="13.438313967411794"><ele>106.00000000000001</ele><time>2026-04-01T15:11:37Z</time></trkpt><trkpt lat="46.040700112073004" lon="13.43818384554328"><ele>106.0</ele><time>2026-04-01T15:11:38Z</time></trkpt><trkpt lat="46.040712925058706" lon="13.438023834691519"><ele>106.0</ele><time>2026-04-01T15:11:39Z</time></trkpt><trkpt lat="46.04072307689662" lon="13.437849307297288"><ele>106.0</ele><time>2026-04-01T15:11:40Z</time></trkpt><trkpt lat="46.04073499060759" lon="13.437679005632265"><ele>106.0</ele><time>2026-04-01T15:11:41Z</time></trkpt><trkpt lat="46.04075276345095" lon="13.437497233351179"><ele>106.0</ele><time>2026-04-01T15:11:42Z</time></trkpt><trkpt lat="46.04077029505452" lon="13.437299426410814"><ele>106.0</ele><time>2026-04-01T15:11:43Z</time></trkpt><trkpt lat="46.040793734266295" lon="13.437103918362771"><ele>106.0</ele><time>2026-04-01T15:11:44Z</time></trkpt><trkpt lat="46.04083457118025" lon="13.43690061365039"><ele>106.0</ele><time>2026-04-01T15:11:45Z</time></trkpt><trkpt lat="46.04088792922155" lon="13.436651094035936"><ele>106.0</ele><time>2026-04-01T15:11:46Z</time></trkpt><trkpt lat="46.0409789863674" lon="13.436364594275487"><ele>106.0</ele><time>2026-04-01T15:11:47Z</time></trkpt><trkpt lat="46.04107162906866" lon="13.436032131049854"><ele>107.0</ele><time>2026-04-01T15:11:48Z</time></trkpt><trkpt lat="46.041167006796734" lon="13.43569189142568"><ele>108.0</ele><time>2026-04-01T15:11:49Z</time></trkpt><trkpt lat="46.041239287107665" lon="13.435371685437687"><ele>109.5</ele><time>2026-04-01T15:11:50Z</time></trkpt><trkpt lat="46.041328217048004" lon="13.435070565779004"><ele>111.0</ele><time>2026-04-01T15:11:51Z</time></trkpt><trkpt lat="46.04141835137219" lon="13.434751968623415"><ele>112.5</ele><time>2026-04-01T15:11:52Z</time></trkpt><trkpt lat="46.041512480671344" lon="13.434420829247017"><ele>114.0</ele><time>2026-04-01T15:11:53Z</time></trkpt><trkpt lat="46.041611566977735" lon="13.434064983106516"><ele>112.5</ele><time>2026-04-01T15:11:54Z</time></trkpt><trkpt lat="46.041705041309896" lon="13.433720373153152"><ele>111.0</ele><time>2026-04-01T15:11:55Z</time></trkpt><trkpt lat="46.041793561591426" lon="13.433394918098887"><ele>111.0</ele><time>2026-04-01T15:11:56Z</time></trkpt><trkpt lat="46.04188196018035" lon="13.433086738446987"><ele>111.0</ele><time>2026-04-01T15:11:57Z</time></trkpt><trkpt lat="46.04197257685254" lon="13.432777828015698"><ele>113.0</ele><time>2026-04-01T15:11:58Z</time></trkpt><trkpt lat="46.04205917119088" lon="13.4324574745735"><ele>115.0</ele><time>2026-04-01T15:11:59Z</time></trkpt><trkpt lat="46.042150402009725" lon="13.432129948860258"><ele>117.5</ele><time>2026-04-01T15:12:00Z</time></trkpt><trkpt lat="46.042238783688106" lon="13.431808879529077"><ele>120.0</ele><time>2026-04-01T15:12:01Z</time></trkpt><trkpt lat="46.042324013839774" lon="13.431504180018461"><ele>121.0</ele><time>2026-04-01T15:12:02Z</time></trkpt><trkpt lat="46.042408229863945" lon="13.431211558565538"><ele>122.0</ele><time>2026-04-01T15:12:03Z</time></trkpt><trkpt lat="46.04249206146473" lon="13.430921082749652"><ele>123.0</ele><time>2026-04-01T15:12:04Z</time></trkpt><trkpt lat="46.04257782190006" lon="13.430616246677687"><ele>120.5</ele><time>2026-04-01T15:12:05Z</time></trkpt><trkpt lat="46.042657181041456" lon="13.430301595996148"><ele>118.0</ele><time>2026-04-01T15:12:06Z</time></trkpt><trkpt lat="46.042733317358255" lon="13.429979080531542"><ele>118.0</ele><time>2026-04-01T15:12:07Z</time></trkpt><trkpt lat="46.04279648675401" lon="13.429660924035824"><ele>118.0</ele><time>2026-04-01T15:12:08Z</time></trkpt><trkpt lat="46.0428760490922" lon="13.429349674068085"><ele>117.5</ele><time>2026-04-01T15:12:09Z</time></trkpt><trkpt lat="46.042928136364246" lon="13.429023228096298"><ele>117.0</ele><time>2026-04-01T15:12:10Z</time></trkpt><trkpt lat="46.04299830941639" lon="13.428710332234058"><ele>117.0</ele><time>2026-04-01T15:12:11Z</time></trkpt><trkpt lat="46.04306657732952" lon="13.428395449125505"><ele>117.0</ele><time>2026-04-01T15:12:12Z</time></trkpt><trkpt lat="46.04313501174472" lon="13.428071289337536"><ele>117.5</ele><time>2026-04-01T15:12:13Z</time></trkpt><trkpt lat="46.0432014264896" lon="13.427749060648708"><ele>118.0</ele><time>2026-04-01T15:12:14Z</time></trkpt><trkpt lat="46.043269025376944" lon="13.427429544358574"><ele>116.5</ele><time>2026-04-01T15:12:15Z</time></trkpt><trkpt lat="46.04333545508835" lon="13.427112901434283"><ele>115.0</ele><time>2026-04-01T15:12:16Z</time></trkpt><trkpt lat="46.04340053640749" lon="13.426801640678166"><ele>115.0</ele><time>2026-04-01T15:12:17Z</time></trkpt><trkpt lat="46.04346228235208" lon="13.426500474710494"><ele>115.0</ele><time>2026-04-01T15:12:18Z</time></trkpt><trkpt lat="46.043523281498985" lon="13.426216108063285"><ele>115.0</ele><time>2026-04-01T15:12:18.999Z</time></trkpt><trkpt lat="46.04357758939164" lon="13.425951804784507"><ele>116.0</ele><time>2026-04-01T15:12:19.999Z</time></trkpt><trkpt lat="46.043620268338756" lon="13.425690885039847"><ele>117.0</ele><time>2026-04-01T15:12:20.999Z</time></trkpt><trkpt lat="46.04364622112682" lon="13.425417491437642"><ele>118.0</ele><time>2026-04-01T15:12:21.999Z</time></trkpt><trkpt lat="46.04364641087664" lon="13.42512762642362"><ele>117.66666666666667</ele><time>2026-04-01T15:12:22.999Z</time></trkpt><trkpt lat="46.04363183723809" lon="13.424841972543526"><ele>117.33333333333334</ele><time>2026-04-01T15:12:23.999Z</time></trkpt><trkpt lat="46.0436316593393" lon="13.424569109137282"><ele>117.0</ele><time>2026-04-01T15:12:24.999Z</time></trkpt><trkpt lat="46.0436006686982" lon="13.424298002421644"><ele>117.0</ele><time>2026-04-01T15:12:25.999Z</time></trkpt><trkpt lat="46.043598168905376" lon="13.424023395707483"><ele>117.0</ele><time>2026-04-01T15:12:26.999Z</time></trkpt><trkpt lat="46.04357029031257" lon="13.423738069561928"><ele>117.0</ele><time>2026-04-01T15:12:27.999Z</time></trkpt><trkpt lat="46.04352934058603" lon="13.423445723151787"><ele>117.33333333333334</ele><time>2026-04-01T15:12:28.999Z</time></trkpt><trkpt lat="46.04345704215378" lon="13.42315302523515"><ele>117.66666666666667</ele><time>2026-04-01T15:12:29.999Z</time></trkpt><trkpt lat="46.04340618179147" lon="13.422853991334527"><ele>118.0</ele><time>2026-04-01T15:12:30.999Z</time></trkpt><trkpt lat="46.043345341299805" lon="13.422565838940352"><ele>118.66666666666667</ele><time>2026-04-01T15:12:31.999Z</time></trkpt><trkpt lat="46.04328367349443" lon="13.422285657648075"><ele>119.33333333333334</ele><time>2026-04-01T15:12:32.999Z</time></trkpt><trkpt lat="46.04322032776791" lon="13.422010712301363"><ele>120.0</ele><time>2026-04-01T15:12:33.999Z</time></trkpt><trkpt lat="46.04315788983955" lon="13.421726768335915"><ele>120.0</ele><time>2026-04-01T15:12:34.999Z</time></trkpt><trkpt lat="46.04309455402629" lon="13.421436403853436"><ele>120.0</ele><time>2026-04-01T15:12:35.999Z</time></trkpt><trkpt lat="46.04303027018322" lon="13.421145782572673"><ele>120.0</ele><time>2026-04-01T15:12:36.999Z</time></trkpt><trkpt lat="46.042970648802815" lon="13.420878589093858"><ele>117.66666666666666</ele><time>2026-04-01T15:12:37.999Z</time></trkpt><trkpt lat="46.042912036529515" lon="13.420615918018372"><ele>115.33333333333333</ele><time>2026-04-01T15:12:38.999Z</time></trkpt><trkpt lat="46.042859614356786" lon="13.42036045388785"><ele>113.0</ele><time>2026-04-01T15:12:39.999Z</time></trkpt><trkpt lat="46.042823361787825" lon="13.420108689968036"><ele>112.33333333333333</ele><time>2026-04-01T15:12:40.999Z</time></trkpt><trkpt lat="46.042790292398465" lon="13.419851605736222"><ele>111.66666666666666</ele><time>2026-04-01T15:12:41.999Z</time></trkpt><trkpt lat="46.04280182742478" lon="13.419605313297186"><ele>111.0</ele><time>2026-04-01T15:12:42.999Z</time></trkpt><trkpt lat="46.04283863972584" lon="13.419380070992334"><ele>110.0</ele><time>2026-04-01T15:12:43.999Z</time></trkpt><trkpt lat="46.04288906694406" lon="13.419160089998433"><ele>109.0</ele><time>2026-04-01T15:12:44.999Z</time></trkpt><trkpt lat="46.04295020859731" lon="13.418945187805326"><ele>108.0</ele><time>2026-04-01T15:12:45.999Z</time></trkpt><trkpt lat="46.043017296036204" lon="13.418736944545211"><ele>107.66666666666666</ele><time>2026-04-01T15:12:46.999Z</time></trkpt><trkpt lat="46.043085793861245" lon="13.418524800166738"><ele>107.33333333333333</ele><time>2026-04-01T15:12:47.999Z</time></trkpt><trkpt lat="46.043158419170986" lon="13.418311213821273"><ele>107.0</ele><time>2026-04-01T15:12:48.999Z</time></trkpt><trkpt lat="46.04322846061514" lon="13.418091936490454"><ele>107.33333333333333</ele><time>2026-04-01T15:12:49.999Z</time></trkpt><trkpt lat="46.04329707468301" lon="13.41787447956179"><ele>107.66666666666666</ele><time>2026-04-01T15:12:50.999Z</time></trkpt><trkpt lat="46.043363233002275" lon="13.417664449335788"><ele>108.0</ele><time>2026-04-01T15:12:51.999Z</time></trkpt><trkpt lat="46.04342280009557" lon="13.417468952818458"><ele>108.0</ele><time>2026-04-01T15:12:52.999Z</time></trkpt><trkpt lat="46.04347914731812" lon="13.417289068133904"><ele>108.0</ele><time>2026-04-01T15:12:53.999Z</time></trkpt><trkpt lat="46.04353037265438" lon="13.417134537218121"><ele>108.0</ele><time>2026-04-01T15:12:54.999Z</time></trkpt><trkpt lat="46.04357752342305" lon="13.416992833418899"><ele>108.0</ele><time>2026-04-01T15:12:55.999Z</time></trkpt><trkpt lat="46.04362875936241" lon="13.416865917674404"><ele>108.2</ele><time>2026-04-01T15:12:56.999Z</time></trkpt><trkpt lat="46.043687874708404" lon="13.416765872242113"><ele>108.4</ele><time>2026-04-01T15:12:57.999Z</time></trkpt><trkpt lat="46.04374501701395" lon="13.416671033417444"><ele>108.60000000000001</ele><time>2026-04-01T15:12:58.999Z</time></trkpt><trkpt lat="46.04380707377217" lon="13.416573317842131"><ele>108.80000000000001</ele><time>2026-04-01T15:12:59.999Z</time></trkpt><trkpt lat="46.04378608985979" lon="13.416370126563981"><ele>109.0</ele><time>2026-04-01T15:13:00.999Z</time></trkpt><trkpt lat="46.04379099819064" lon="13.41620364947593"><ele>109.0</ele><time>2026-04-01T15:13:01.999Z</time></trkpt><trkpt lat="46.0438193468011" lon="13.416050659800327"><ele>109.0</ele><time>2026-04-01T15:13:02.999Z</time></trkpt><trkpt lat="46.043836791597535" lon="13.415864696609535"><ele>109.0</ele><time>2026-04-01T15:13:03.999Z</time></trkpt><trkpt lat="46.0438391989222" lon="13.415688842163268"><ele>109.0</ele><time>2026-04-01T15:13:04.999Z</time></trkpt><trkpt lat="46.04382375872655" lon="13.415506661200343"><ele>109.0</ele><time>2026-04-01T15:13:05.999Z</time></trkpt><trkpt lat="46.04379694189488" lon="13.415324723494319"><ele>109.0</ele><time>2026-04-01T15:13:06.999Z</time></trkpt><trkpt lat="46.04377096059249" lon="13.415138868184902"><ele>109.0</ele><time>2026-04-01T15:13:07.999Z</time></trkpt><trkpt lat="46.04374624052416" lon="13.414952288924788"><ele>109.0</ele><time>2026-04-01T15:13:08.999Z</time></trkpt><trkpt lat="46.04371331234793" lon="13.41476662049901"><ele>108.75</ele><time>2026-04-01T15:13:09.999Z</time></trkpt><trkpt lat="46.043672161831175" lon="13.414575260848638"><ele>108.5</ele><time>2026-04-01T15:13:10.999Z</time></trkpt><trkpt lat="46.04363603342313" lon="13.414375058139436"><ele>108.25</ele><time>2026-04-01T15:13:11.999Z</time></trkpt><trkpt lat="46.04357547980077" lon="13.414183985271553"><ele>108.0</ele><time>2026-04-01T15:13:13Z</time></trkpt><trkpt lat="46.043500926567106" lon="13.41399909369414"><ele>108.25</ele><time>2026-04-01T15:13:14Z</time></trkpt><trkpt lat="46.04344081930736" lon="13.413803417424486"><ele>108.5</ele><time>2026-04-01T15:13:15Z</time></trkpt><trkpt lat="46.04338324702282" lon="13.413613038124003"><ele>108.75</ele><time>2026-04-01T15:13:16Z</time></trkpt><trkpt lat="46.043330704350836" lon="13.413422522376393"><ele>109.0</ele><time>2026-04-01T15:13:17Z</time></trkpt><trkpt lat="46.04327420166985" lon="13.41323985844795"><ele>108.5</ele><time>2026-04-01T15:13:18Z</time></trkpt><trkpt lat="46.043226576492216" lon="13.413065949897733"><ele>108.0</ele><time>2026-04-01T15:13:19Z</time></trkpt><trkpt lat="46.04319240524418" lon="13.412901664581524"><ele>107.5</ele><time>2026-04-01T15:13:20Z</time></trkpt><trkpt lat="46.04316332373744" lon="13.41274212411886"><ele>107.0</ele><time>2026-04-01T15:13:21Z</time></trkpt><trkpt lat="46.04313402902584" lon="13.412580468103235"><ele>107.0</ele><time>2026-04-01T15:13:22Z</time></trkpt><trkpt lat="46.04311664035643" lon="13.41241610388476"><ele>107.0</ele><time>2026-04-01T15:13:23Z</time></trkpt><trkpt lat="46.043111675941965" lon="13.412250529788139"><ele>107.0</ele><time>2026-04-01T15:13:24Z</time></trkpt><trkpt lat="46.04310702490526" lon="13.412085225947152"><ele>107.0</ele><time>2026-04-01T15:13:25Z</time></trkpt><trkpt lat="46.04310134296711" lon="13.411921576456518"><ele>106.5</ele><time>2026-04-01T15:13:26Z</time></trkpt><trkpt lat="46.0431015112764" lon="13.411765032486073"><ele>106.0</ele><time>2026-04-01T15:13:27Z</time></trkpt><trkpt lat="46.04312965943262" lon="13.41161430000228"><ele>105.5</ele><time>2026-04-01T15:13:28Z</time></trkpt><trkpt lat="46.04319458409099" lon="13.411469491764551"><ele>105.0</ele><time>2026-04-01T15:13:29Z</time></trkpt><trkpt lat="46.04328974698297" lon="13.411349358918514"><ele>105.25</ele><time>2026-04-01T15:13:30Z</time></trkpt><trkpt lat="46.04340539254322" lon="13.411251946522201"><ele>105.5</ele><time>2026-04-01T15:13:31Z</time></trkpt><trkpt lat="46.04352444821996" lon="13.411138412859218"><ele>105.75</ele><time>2026-04-01T15:13:32Z</time></trkpt><trkpt lat="46.04365118850657" lon="13.411011755402217"><ele>106.0</ele><time>2026-04-01T15:13:33Z</time></trkpt><trkpt lat="46.04378908248958" lon="13.410879803837505"><ele>106.0</ele><time>2026-04-01T15:13:34Z</time></trkpt><trkpt lat="46.04393269155519" lon="13.410741517910672"><ele>106.0</ele><time>2026-04-01T15:13:35Z</time></trkpt><trkpt lat="46.044077093693865" lon="13.410597482465258"><ele>106.0</ele><time>2026-04-01T15:13:36Z</time></trkpt><trkpt lat="46.04422709970081" lon="13.410450588702473"><ele>105.33333333333334</ele><time>2026-04-01T15:13:37Z</time></trkpt><trkpt lat="46.044386360417526" lon="13.41030000271398"><ele>104.66666666666666</ele><time>2026-04-01T15:13:38Z</time></trkpt><trkpt lat="46.04455135454" lon="13.410145219475588"><ele>104.0</ele><time>2026-04-01T15:13:39Z</time></trkpt><trkpt lat="46.04472043398245" lon="13.409983342400066"><ele>104.0</ele><time>2026-04-01T15:13:40Z</time></trkpt><trkpt lat="46.044890537361766" lon="13.409818976775052"><ele>104.0</ele><time>2026-04-01T15:13:41Z</time></trkpt><trkpt lat="46.045052176929005" lon="13.40966109055326"><ele>104.0</ele><time>2026-04-01T15:13:42Z</time></trkpt><trkpt lat="46.04519898562191" lon="13.409518818476537"><ele>105.0</ele><time>2026-04-01T15:13:43Z</time></trkpt><trkpt lat="46.04533541350751" lon="13.409386266404297"><ele>106.0</ele><time>2026-04-01T15:13:44Z</time></trkpt><trkpt lat="46.04546957044486" lon="13.409257522037475"><ele>107.0</ele><time>2026-04-01T15:13:45Z</time></trkpt><trkpt lat="46.045601821094955" lon="13.409130819555301"><ele>107.0</ele><time>2026-04-01T15:13:46Z</time></trkpt><trkpt lat="46.04573452081989" lon="13.409002205625965"><ele>107.0</ele><time>2026-04-01T15:13:47Z</time></trkpt><trkpt lat="46.045868145096875" lon="13.408872495294"><ele>107.0</ele><time>2026-04-01T15:13:48Z</time></trkpt><trkpt lat="46.04600050615666" lon="13.40874581753465"><ele>107.25</ele><time>2026-04-01T15:13:49Z</time></trkpt><trkpt lat="46.046127932823" lon="13.408623365725274"><ele>107.5</ele><time>2026-04-01T15:13:50Z</time></trkpt><trkpt lat="46.04624302863901" lon="13.408511273736357"><ele>107.75</ele><time>2026-04-01T15:13:51Z</time></trkpt><trkpt lat="46.04634784358987" lon="13.408408819033486"><ele>108.0</ele><time>2026-04-01T15:13:52Z</time></trkpt><trkpt lat="46.046446153917536" lon="13.408315992656037"><ele>108.0</ele><time>2026-04-01T15:13:53Z</time></trkpt><trkpt lat="46.046535748642704" lon="13.40823266077765"><ele>108.00000000000001</ele><time>2026-04-01T15:13:54Z</time></trkpt><trkpt lat="46.04661758589372" lon="13.408154609488223"><ele>108.00000000000001</ele><time>2026-04-01T15:13:55Z</time></trkpt><trkpt lat="46.04670013151881" lon="13.408076885516428"><ele>108.0</ele><time>2026-04-01T15:13:56Z</time></trkpt><trkpt lat="46.04677832954428" lon="13.408011158671947"><ele>108.0</ele><time>2026-04-01T15:13:57Z</time></trkpt><trkpt lat="46.04685332521468" lon="13.407956887589643"><ele>107.5</ele><time>2026-04-01T15:13:58Z</time></trkpt><trkpt lat="46.04693603383921" lon="13.407907296098047"><ele>107.0</ele><time>2026-04-01T15:13:59Z</time></trkpt><trkpt lat="46.04701229727944" lon="13.407871409844024"><ele>106.5</ele><time>2026-04-01T15:14:00Z</time></trkpt><trkpt lat="46.04709525002848" lon="13.407832508541121"><ele>106.0</ele><time>2026-04-01T15:14:01Z</time></trkpt><trkpt lat="46.04716733072629" lon="13.407763160093934"><ele>105.5</ele><time>2026-04-01T15:14:02Z</time></trkpt><trkpt lat="46.047223023595215" lon="13.407659861291506"><ele>105.0</ele><time>2026-04-01T15:14:03Z</time></trkpt><trkpt lat="46.04727323595466" lon="13.407551883335861"><ele>105.0</ele><time>2026-04-01T15:14:04Z</time></trkpt><trkpt lat="46.047346248857586" lon="13.40747265703026"><ele>105.0</ele><time>2026-04-01T15:14:05Z</time></trkpt><trkpt lat="46.04742842633072" lon="13.407393868688164"><ele>105.0</ele><time>2026-04-01T15:14:06Z</time></trkpt><trkpt lat="46.04751985200757" lon="13.407290485818757"><ele>105.0</ele><time>2026-04-01T15:14:07Z</time></trkpt><trkpt lat="46.0476244600555" lon="13.407187534995796"><ele>105.0</ele><time>2026-04-01T15:14:08Z</time></trkpt><trkpt lat="46.0477440323756" lon="13.40707047341045"><ele>105.66666666666666</ele><time>2026-04-01T15:14:09Z</time></trkpt><trkpt lat="46.04790292359785" lon="13.406929339434678"><ele>106.33333333333333</ele><time>2026-04-01T15:14:10Z</time></trkpt><trkpt lat="46.04810427329961" lon="13.406736620564137"><ele>107.0</ele><time>2026-04-01T15:14:11Z</time></trkpt><trkpt lat="46.04832126299197" lon="13.406503914034632"><ele>107.5</ele><time>2026-04-01T15:14:12Z</time></trkpt><trkpt lat="46.04853186922095" lon="13.406314720317273"><ele>108.0</ele><time>2026-04-01T15:14:13Z</time></trkpt><trkpt lat="46.04872147990948" lon="13.406132783504951"><ele>108.0</ele><time>2026-04-01T15:14:14Z</time></trkpt><trkpt lat="46.04890965826024" lon="13.40595370543794"><ele>108.0</ele><time>2026-04-01T15:14:15Z</time></trkpt><trkpt lat="46.049099473015445" lon="13.405774966546884"><ele>108.5</ele><time>2026-04-01T15:14:16Z</time></trkpt><trkpt lat="46.04929012225632" lon="13.405597037129047"><ele>109.0</ele><time>2026-04-01T15:14:17Z</time></trkpt><trkpt lat="46.04947654652755" lon="13.40541587380405"><ele>108.0</ele><time>2026-04-01T15:14:18Z</time></trkpt><trkpt lat="46.049668637891415" lon="13.405230224190992"><ele>107.0</ele><time>2026-04-01T15:14:19Z</time></trkpt><trkpt lat="46.04986553781139" lon="13.405040827955622"><ele>108.0</ele><time>2026-04-01T15:14:20Z</time></trkpt><trkpt lat="46.05006701804163" lon="13.404848877228844"><ele>109.0</ele><time>2026-04-01T15:14:20.999Z</time></trkpt><trkpt lat="46.050268766956876" lon="13.404658551920901"><ele>109.5</ele><time>2026-04-01T15:14:21.999Z</time></trkpt><trkpt lat="46.050461159761646" lon="13.404472493431125"><ele>110.0</ele><time>2026-04-01T15:14:22.999Z</time></trkpt><trkpt lat="46.05065694212859" lon="13.404291550333637"><ele>109.5</ele><time>2026-04-01T15:14:23.999Z</time></trkpt><trkpt lat="46.05085430655922" lon="13.404105015839608"><ele>109.0</ele><time>2026-04-01T15:14:24.999Z</time></trkpt><trkpt lat="46.05104815352529" lon="13.40391059143859"><ele>108.0</ele><time>2026-04-01T15:14:25.999Z</time></trkpt><trkpt lat="46.051238664126075" lon="13.403719915377149"><ele>107.0</ele><time>2026-04-01T15:14:26.999Z</time></trkpt><trkpt lat="46.05143169726694" lon="13.403529966345992"><ele>107.5</ele><time>2026-04-01T15:14:27.999Z</time></trkpt><trkpt lat="46.05162550260622" lon="13.403342476541486"><ele>108.0</ele><time>2026-04-01T15:14:28.999Z</time></trkpt><trkpt lat="46.05181706178147" lon="13.403157913589034"><ele>108.33333333333334</ele><time>2026-04-01T15:14:29.999Z</time></trkpt><trkpt lat="46.05200372913959" lon="13.402976444253897"><ele>108.66666666666667</ele><time>2026-04-01T15:14:30.999Z</time></trkpt><trkpt lat="46.05218695534658" lon="13.402800400829314"><ele>109.0</ele><time>2026-04-01T15:14:31.999Z</time></trkpt><trkpt lat="46.05236799267185" lon="13.402624230140601"><ele>109.0</ele><time>2026-04-01T15:14:32.999Z</time></trkpt><trkpt lat="46.05254706132943" lon="13.402450426929052"><ele>109.0</ele><time>2026-04-01T15:14:33.999Z</time></trkpt><trkpt lat="46.05272325178748" lon="13.402277794368233"><ele>109.0</ele><time>2026-04-01T15:14:34.999Z</time></trkpt><trkpt lat="46.05289335822461" lon="13.4021089442101"><ele>109.33333333333334</ele><time>2026-04-01T15:14:35.999Z</time></trkpt><trkpt lat="46.053059441745624" lon="13.401947209552606"><ele>109.66666666666666</ele><time>2026-04-01T15:14:36.999Z</time></trkpt><trkpt lat="46.05321833264766" lon="13.401795835815875"><ele>110.0</ele><time>2026-04-01T15:14:37.999Z</time></trkpt><trkpt lat="46.05337243848583" lon="13.401652279181794"><ele>110.0</ele><time>2026-04-01T15:14:38.999Z</time></trkpt><trkpt lat="46.053531231386465" lon="13.401503013752983"><ele>110.0</ele><time>2026-04-01T15:14:39.999Z</time></trkpt><trkpt lat="46.053696411688" lon="13.401343339120732"><ele>110.0</ele><time>2026-04-01T15:14:40.999Z</time></trkpt><trkpt lat="46.05386010218836" lon="13.401182866226184"><ele>110.0</ele><time>2026-04-01T15:14:41.999Z</time></trkpt><trkpt lat="46.05401285198625" lon="13.401033784857407"><ele>110.0</ele><time>2026-04-01T15:14:42.999Z</time></trkpt><trkpt lat="46.054153287073056" lon="13.40089786471474"><ele>110.0</ele><time>2026-04-01T15:14:43.999Z</time></trkpt><trkpt lat="46.05429092005917" lon="13.400765949160613"><ele>110.25</ele><time>2026-04-01T15:14:44.999Z</time></trkpt><trkpt lat="46.05441513617383" lon="13.400644691930506"><ele>110.5</ele><time>2026-04-01T15:14:45.999Z</time></trkpt><trkpt lat="46.05453083446094" lon="13.400535687435127"><ele>110.75</ele><time>2026-04-01T15:14:46.999Z</time></trkpt><trkpt lat="46.05463554266351" lon="13.400436039841596"><ele>111.0</ele><time>2026-04-01T15:14:47.999Z</time></trkpt><trkpt lat="46.0547362475235" lon="13.400345310899958"><ele>111.0</ele><time>2026-04-01T15:14:48.999Z</time></trkpt><trkpt lat="46.05483108428609" lon="13.400265858814487"><ele>111.0</ele><time>2026-04-01T15:14:49.999Z</time></trkpt><trkpt lat="46.05492139666723" lon="13.400196051938392"><ele>111.0</ele><time>2026-04-01T15:14:50.999Z</time></trkpt><trkpt lat="46.055018216725266" lon="13.400137845565245"><ele>111.0</ele><time>2026-04-01T15:14:51.999Z</time></trkpt><trkpt lat="46.055123758282605" lon="13.400091356621298"><ele>111.0</ele><time>2026-04-01T15:14:52.999Z</time></trkpt><trkpt lat="46.05522045098876" lon="13.400057554723064"><ele>110.66666666666667</ele><time>2026-04-01T15:14:53.999Z</time></trkpt><trkpt lat="46.055311015129455" lon="13.400035108857121"><ele>110.33333333333334</ele><time>2026-04-01T15:14:54.999Z</time></trkpt><trkpt lat="46.05538985487903" lon="13.40002264164937"><ele>110.0</ele><time>2026-04-01T15:14:55.999Z</time></trkpt><trkpt lat="46.055458291109275" lon="13.400015099888458"><ele>109.66666666666667</ele><time>2026-04-01T15:14:56.999Z</time></trkpt><trkpt lat="46.05557509966315" lon="13.40001905692076"><ele>109.33333333333334</ele><time>2026-04-01T15:14:58.999Z</time></trkpt><trkpt lat="46.055643338860854" lon="13.400033825387105"><ele>109.0</ele><time>2026-04-01T15:15:00.999Z</time></trkpt><trkpt lat="46.05573082542211" lon="13.400060246325657"><ele>108.2</ele><time>2026-04-01T15:16:10Z</time></trkpt><trkpt lat="46.055800268790485" lon="13.400080192094507"><ele>107.4</ele><time>2026-04-01T15:16:14Z</time></trkpt><trkpt lat="46.055879364212686" lon="13.400109513365837"><ele>106.6</ele><time>2026-04-01T15:16:18Z</time></trkpt><trkpt lat="46.05596862094257" lon="13.400157240757386"><ele>105.8</ele><time>2026-04-01T15:16:20Z</time></trkpt><trkpt lat="46.0560600235455" lon="13.400219380742111"><ele>105.0</ele><time>2026-04-01T15:16:22Z</time></trkpt><trkpt lat="46.05618460060973" lon="13.400308818554564"><ele>105.0</ele><time>2026-04-01T15:16:23.999Z</time></trkpt><trkpt lat="46.05625540120395" lon="13.400368308978896"><ele>105.0</ele><time>2026-04-01T15:16:24.999Z</time></trkpt><trkpt lat="46.05631852721124" lon="13.400427071704884"><ele>105.0</ele><time>2026-04-01T15:16:25.999Z</time></trkpt><trkpt lat="46.05642374445506" lon="13.40049665851337"><ele>105.0</ele><time>2026-04-01T15:16:27.999Z</time></trkpt><trkpt lat="46.05655141899832" lon="13.400478380721255"><ele>105.0</ele><time>2026-04-01T15:16:29.999Z</time></trkpt><trkpt lat="46.05661816204242" lon="13.400437501575567"><ele>103.66666666666667</ele><time>2026-04-01T15:16:30.999Z</time></trkpt><trkpt lat="46.056681152282344" lon="13.400374484105495"><ele>102.33333333333334</ele><time>2026-04-01T15:16:31.999Z</time></trkpt><trkpt lat="46.05673616072266" lon="13.400302074697567"><ele>101.0</ele><time>2026-04-01T15:16:32.999Z</time></trkpt><trkpt lat="46.05678852142211" lon="13.400230545169364"><ele>99.66666666666667</ele><time>2026-04-01T15:16:33.999Z</time></trkpt><trkpt lat="46.056833730223154" lon="13.400144518120602"><ele>98.33333333333334</ele><time>2026-04-01T15:16:34.999Z</time></trkpt><trkpt lat="46.056868615883765" lon="13.400039783456453"><ele>97.0</ele><time>2026-04-01T15:16:35.999Z</time></trkpt><trkpt lat="46.056885796774544" lon="13.399921079594167"><ele>97.0</ele><time>2026-04-01T15:16:36.999Z</time></trkpt><trkpt lat="46.05688895573673" lon="13.399785324396273"><ele>97.0</ele><time>2026-04-01T15:16:37.999Z</time></trkpt><trkpt lat="46.05688567171869" lon="13.39963044952598"><ele>97.0</ele><time>2026-04-01T15:16:38.999Z</time></trkpt><trkpt lat="46.05687963923108" lon="13.39946108118673"><ele>97.0</ele><time>2026-04-01T15:16:39.999Z</time></trkpt><trkpt lat="46.05687065549591" lon="13.399283137460666"><ele>97.0</ele><time>2026-04-01T15:16:40.999Z</time></trkpt><trkpt lat="46.05686317083594" lon="13.399100194960731"><ele>98.0</ele><time>2026-04-01T15:16:41.999Z</time></trkpt><trkpt lat="46.056859491831936" lon="13.398942983695486"><ele>99.0</ele><time>2026-04-01T15:16:42.999Z</time></trkpt><trkpt lat="46.05685871326659" lon="13.398793627591719"><ele>100.0</ele><time>2026-04-01T15:16:43.999Z</time></trkpt><trkpt lat="46.0568594325563" lon="13.398635615773165"><ele>101.0</ele><time>2026-04-01T15:16:44.999Z</time></trkpt><trkpt lat="46.056858972369554" lon="13.398471483381378"><ele>102.0</ele><time>2026-04-01T15:16:45.999Z</time></trkpt><trkpt lat="46.0568582263519" lon="13.39830103793266"><ele>102.75</ele><time>2026-04-01T15:16:46.999Z</time></trkpt><trkpt lat="46.056858520914844" lon="13.398129648759868"><ele>103.5</ele><time>2026-04-01T15:16:47.999Z</time></trkpt><trkpt lat="46.056861730028345" lon="13.397953985073034"><ele>104.25</ele><time>2026-04-01T15:16:48.999Z</time></trkpt><trkpt lat="46.05686344564914" lon="13.397780008188963"><ele>105.0</ele><time>2026-04-01T15:16:49.999Z</time></trkpt><trkpt lat="46.056867458266986" lon="13.397611258580051"><ele>106.2</ele><time>2026-04-01T15:16:50.999Z</time></trkpt><trkpt lat="46.05687649074542" lon="13.39745967428948"><ele>107.4</ele><time>2026-04-01T15:16:51.999Z</time></trkpt><trkpt lat="46.05689007792632" lon="13.397322031974086"><ele>108.6</ele><time>2026-04-01T15:16:52.999Z</time></trkpt><trkpt lat="46.05690123909591" lon="13.397189770009213"><ele>109.8</ele><time>2026-04-01T15:16:53.999Z</time></trkpt><trkpt lat="46.05691575833565" lon="13.397061041928165"><ele>111.0</ele><time>2026-04-01T15:16:54.999Z</time></trkpt><trkpt lat="46.056937863006276" lon="13.396934968009917"><ele>111.0</ele><time>2026-04-01T15:16:55.999Z</time></trkpt><trkpt lat="46.056960685179675" lon="13.39680500970334"><ele>111.0</ele><time>2026-04-01T15:16:56.999Z</time></trkpt><trkpt lat="46.05698315395084" lon="13.39667190779016"><ele>111.0</ele><time>2026-04-01T15:16:57.999Z</time></trkpt><trkpt lat="46.05700626535534" lon="13.396535421901508"><ele>111.0</ele><time>2026-04-01T15:16:58.999Z</time></trkpt><trkpt lat="46.05703268161734" lon="13.396398934611142"><ele>111.0</ele><time>2026-04-01T15:16:59.999Z</time></trkpt><trkpt lat="46.05705928758183" lon="13.396262138042665"><ele>111.19999999999999</ele><time>2026-04-01T15:17:00.999Z</time></trkpt><trkpt lat="46.05708172457963" lon="13.39612393838042"><ele>111.39999999999999</ele><time>2026-04-01T15:17:01.999Z</time></trkpt><trkpt lat="46.05710516851876" lon="13.395986508942583"><ele>111.6</ele><time>2026-04-01T15:17:02.999Z</time></trkpt><trkpt lat="46.05712943442972" lon="13.395851754665712"><ele>111.8</ele><time>2026-04-01T15:17:03.999Z</time></trkpt><trkpt lat="46.05715444219711" lon="13.39571765170555"><ele>112.0</ele><time>2026-04-01T15:17:04.999Z</time></trkpt><trkpt lat="46.05717691538484" lon="13.39558808741687"><ele>112.33333333333334</ele><time>2026-04-01T15:17:05.999Z</time></trkpt><trkpt lat="46.05719589237526" lon="13.395460927777533"><ele>112.66666666666667</ele><time>2026-04-01T15:17:06.999Z</time></trkpt><trkpt lat="46.057220458252786" lon="13.39533820887179"><ele>113.0</ele><time>2026-04-01T15:17:07.999Z</time></trkpt><trkpt lat="46.05724594285348" lon="13.395220944362759"><ele>113.33333333333334</ele><time>2026-04-01T15:17:08.999Z</time></trkpt><trkpt lat="46.057266406824475" lon="13.395115441307059"><ele>113.66666666666667</ele><time>2026-04-01T15:17:09.999Z</time></trkpt><trkpt lat="46.05728420780961" lon="13.395019572244394"><ele>114.0</ele><time>2026-04-01T15:17:10.999Z</time></trkpt><trkpt lat="46.05730157631823" lon="13.394931210356566"><ele>114.0</ele><time>2026-04-01T15:17:11.999Z</time></trkpt><trkpt lat="46.05733133631755" lon="13.394774970450467"><ele>114.0</ele><time>2026-04-01T15:17:13.999Z</time></trkpt><trkpt lat="46.05735177461621" lon="13.394658734733527"><ele>114.0</ele><time>2026-04-01T15:17:15.999Z</time></trkpt><trkpt lat="46.057375506335255" lon="13.394550519541683"><ele>114.0</ele><time>2026-04-01T15:17:17.999Z</time></trkpt><trkpt lat="46.057408813351834" lon="13.394416359292002"><ele>114.0</ele><time>2026-04-01T15:17:19.999Z</time></trkpt><trkpt lat="46.05745117332179" lon="13.394267371305837"><ele>113.80000000000001</ele><time>2026-04-01T15:17:21.999Z</time></trkpt><trkpt lat="46.057470399675914" lon="13.394176315534848"><ele>113.60000000000001</ele><time>2026-04-01T15:17:22.999Z</time></trkpt><trkpt lat="46.057434336106816" lon="13.394057317305466"><ele>113.4</ele><time>2026-04-01T15:17:23.999Z</time></trkpt><trkpt lat="46.05742622010824" lon="13.393925131099424"><ele>113.2</ele><time>2026-04-01T15:17:25Z</time></trkpt><trkpt lat="46.05742084108597" lon="13.393774260500479"><ele>113.0</ele><time>2026-04-01T15:17:26Z</time></trkpt><trkpt lat="46.05740927000512" lon="13.393618569684618"><ele>112.4</ele><time>2026-04-01T15:17:27Z</time></trkpt><trkpt lat="46.05739578303976" lon="13.393471018258333"><ele>111.80000000000001</ele><time>2026-04-01T15:17:28Z</time></trkpt><trkpt lat="46.057384823601275" lon="13.393324074617528"><ele>111.2</ele><time>2026-04-01T15:17:29Z</time></trkpt><trkpt lat="46.05737615400296" lon="13.39317944488951"><ele>110.6</ele><time>2026-04-01T15:17:30Z</time></trkpt><trkpt lat="46.05736740821553" lon="13.393038304343825"><ele>110.0</ele><time>2026-04-01T15:17:31Z</time></trkpt><trkpt lat="46.05735917137985" lon="13.392915002004244"><ele>109.66666666666666</ele><time>2026-04-01T15:17:32Z</time></trkpt><trkpt lat="46.057351546802174" lon="13.392803161705785"><ele>109.33333333333333</ele><time>2026-04-01T15:17:33Z</time></trkpt><trkpt lat="46.05734360123418" lon="13.39269658474127"><ele>109.0</ele><time>2026-04-01T15:17:34Z</time></trkpt><trkpt lat="46.05733834835606" lon="13.39258326923"><ele>108.66666666666666</ele><time>2026-04-01T15:17:35Z</time></trkpt><trkpt lat="46.05733720135731" lon="13.392466905609078"><ele>108.33333333333333</ele><time>2026-04-01T15:17:36Z</time></trkpt><trkpt lat="46.05733709560097" lon="13.392351049717362"><ele>108.0</ele><time>2026-04-01T15:17:37Z</time></trkpt><trkpt lat="46.05733578239234" lon="13.392239885227688"><ele>108.2</ele><time>2026-04-01T15:17:38Z</time></trkpt><trkpt lat="46.05732718079718" lon="13.392125874153598"><ele>108.4</ele><time>2026-04-01T15:17:39Z</time></trkpt><trkpt lat="46.05731665793008" lon="13.392003594901421"><ele>108.60000000000001</ele><time>2026-04-01T15:17:40Z</time></trkpt><trkpt lat="46.05730085157785" lon="13.391871489840366"><ele>108.80000000000001</ele><time>2026-04-01T15:17:41Z</time></trkpt><trkpt lat="46.05727686723255" lon="13.391732379145182"><ele>109.0</ele><time>2026-04-01T15:17:42Z</time></trkpt><trkpt lat="46.05725805431706" lon="13.391600830123267"><ele>109.0</ele><time>2026-04-01T15:17:43Z</time></trkpt><trkpt lat="46.05724912225992" lon="13.391472120934305"><ele>109.0</ele><time>2026-04-01T15:17:44Z</time></trkpt><trkpt lat="46.05725251133495" lon="13.391332696551304"><ele>109.0</ele><time>2026-04-01T15:17:45Z</time></trkpt><trkpt lat="46.05726713430522" lon="13.391186861711116"><ele>109.0</ele><time>2026-04-01T15:17:46Z</time></trkpt><trkpt lat="46.057281003185054" lon="13.391038049311398"><ele>109.0</ele><time>2026-04-01T15:17:47Z</time></trkpt><trkpt lat="46.0572952049752" lon="13.390896787950544"><ele>109.0</ele><time>2026-04-01T15:17:48Z</time></trkpt><trkpt lat="46.057315956143896" lon="13.390754913366377"><ele>109.0</ele><time>2026-04-01T15:17:49Z</time></trkpt><trkpt lat="46.05734365158979" lon="13.390603169099135"><ele>109.0</ele><time>2026-04-01T15:17:50Z</time></trkpt><trkpt lat="46.057380527376864" lon="13.390439979820622"><ele>109.0</ele><time>2026-04-01T15:17:51Z</time></trkpt><trkpt lat="46.057426444413736" lon="13.390264584175798"><ele>109.25</ele><time>2026-04-01T15:17:52Z</time></trkpt><trkpt lat="46.05747579212274" lon="13.390077194435598"><ele>109.5</ele><time>2026-04-01T15:17:53Z</time></trkpt><trkpt lat="46.057524006727036" lon="13.389885247493835"><ele>109.75</ele><time>2026-04-01T15:17:54Z</time></trkpt><trkpt lat="46.057574175446" lon="13.389690369040148"><ele>110.0</ele><time>2026-04-01T15:17:55Z</time></trkpt><trkpt lat="46.057623695044065" lon="13.3894994504669"><ele>110.0</ele><time>2026-04-01T15:17:56Z</time></trkpt><trkpt lat="46.05767394338954" lon="13.389309188639723"><ele>110.0</ele><time>2026-04-01T15:17:57Z</time></trkpt><trkpt lat="46.05772908963182" lon="13.389107182581851"><ele>110.0</ele><time>2026-04-01T15:17:58Z</time></trkpt><trkpt lat="46.05778169537972" lon="13.388900838658339"><ele>110.0</ele><time>2026-04-01T15:17:59Z</time></trkpt><trkpt lat="46.05783431010471" lon="13.38868973452418"><ele>110.0</ele><time>2026-04-01T15:18:00Z</time></trkpt><trkpt lat="46.0578877691335" lon="13.388479158912022"><ele>110.0</ele><time>2026-04-01T15:18:01Z</time></trkpt><trkpt lat="46.05793331977143" lon="13.388275247196145"><ele>110.0</ele><time>2026-04-01T15:18:02Z</time></trkpt><trkpt lat="46.05796901066897" lon="13.38807209202026"><ele>109.66666666666666</ele><time>2026-04-01T15:18:03Z</time></trkpt><trkpt lat="46.05798522387037" lon="13.387862822095109"><ele>109.33333333333334</ele><time>2026-04-01T15:18:04Z</time></trkpt><trkpt lat="46.05798876752736" lon="13.387640401642756"><ele>109.0</ele><time>2026-04-01T15:18:05Z</time></trkpt><trkpt lat="46.05798549418648" lon="13.38741140603699"><ele>109.0</ele><time>2026-04-01T15:18:06Z</time></trkpt><trkpt lat="46.05797995237387" lon="13.387176168244013"><ele>109.0</ele><time>2026-04-01T15:18:07Z</time></trkpt><trkpt lat="46.05797264881863" lon="13.38693946006974"><ele>109.0</ele><time>2026-04-01T15:18:08Z</time></trkpt><trkpt lat="46.057964748127254" lon="13.386706182725863"><ele>109.0</ele><time>2026-04-01T15:18:09Z</time></trkpt><trkpt lat="46.05796110111282" lon="13.386465609407006"><ele>109.0</ele><time>2026-04-01T15:18:10Z</time></trkpt><trkpt lat="46.057963022115395" lon="13.386215928121382"><ele>109.0</ele><time>2026-04-01T15:18:11Z</time></trkpt><trkpt lat="46.05797053956465" lon="13.385965437227284"><ele>109.0</ele><time>2026-04-01T15:18:12Z</time></trkpt><trkpt lat="46.057987796977386" lon="13.385739393198987"><ele>109.0</ele><time>2026-04-01T15:18:13Z</time></trkpt><trkpt lat="46.05801606321399" lon="13.38551097407378"><ele>109.0</ele><time>2026-04-01T15:18:14Z</time></trkpt><trkpt lat="46.05805085574934" lon="13.38527368084663"><ele>109.0</ele><time>2026-04-01T15:18:15Z</time></trkpt><trkpt lat="46.05808506847541" lon="13.38506661500069"><ele>109.0</ele><time>2026-04-01T15:18:16Z</time></trkpt><trkpt lat="46.058122053010834" lon="13.384873214549138"><ele>109.0</ele><time>2026-04-01T15:18:17Z</time></trkpt><trkpt lat="46.058162196386775" lon="13.384675610286504"><ele>109.0</ele><time>2026-04-01T15:18:18Z</time></trkpt><trkpt lat="46.05820146225705" lon="13.384469727510197"><ele>109.0</ele><time>2026-04-01T15:18:19Z</time></trkpt><trkpt lat="46.05824039525124" lon="13.384256364473742"><ele>109.0</ele><time>2026-04-01T15:18:20Z</time></trkpt><trkpt lat="46.05827859928403" lon="13.384047043801758"><ele>109.0</ele><time>2026-04-01T15:18:21Z</time></trkpt><trkpt lat="46.058315054050944" lon="13.38385886566788"><ele>109.0</ele><time>2026-04-01T15:18:22Z</time></trkpt><trkpt lat="46.05834742983519" lon="13.383690188657635"><ele>108.6</ele><time>2026-04-01T15:18:23Z</time></trkpt><trkpt lat="46.05837849316372" lon="13.383529821470479"><ele>108.2</ele><time>2026-04-01T15:18:24Z</time></trkpt><trkpt lat="46.058405706907536" lon="13.383386975920983"><ele>107.79999999999998</ele><time>2026-04-01T15:18:25Z</time></trkpt><trkpt lat="46.0584279172707" lon="13.383271992279047"><ele>107.39999999999999</ele><time>2026-04-01T15:18:26Z</time></trkpt><trkpt lat="46.058446539136426" lon="13.383182171510605"><ele>107.0</ele><time>2026-04-01T15:18:27Z</time></trkpt><trkpt lat="46.058496690774405" lon="13.383079744669125"><ele>106.99999999999999</ele><time>2026-04-01T15:18:29Z</time></trkpt><trkpt lat="46.0585211537571" lon="13.382980969572742"><ele>107.0</ele><time>2026-04-01T15:18:32.999Z</time></trkpt><trkpt lat="46.058618606514344" lon="13.382920383257218"><ele>107.0</ele><time>2026-04-01T15:18:37.999Z</time></trkpt><trkpt lat="46.05863145066959" lon="13.382831554868362"><ele>107.0</ele><time>2026-04-01T15:22:13Z</time></trkpt><trkpt lat="46.05864675225468" lon="13.382722318557262"><ele>106.99999999999999</ele><time>2026-04-01T15:22:48.999Z</time></trkpt><trkpt lat="46.058644880701095" lon="13.382615924767226"><ele>107.0</ele><time>2026-04-01T15:22:52.999Z</time></trkpt><trkpt lat="46.05861909634218" lon="13.382522996493922"><ele>106.99999999999999</ele><time>2026-04-01T15:23:05.999Z</time></trkpt><trkpt lat="46.05858541890295" lon="13.382376358495577"><ele>107.0</ele><time>2026-04-01T15:23:18.999Z</time></trkpt><trkpt lat="46.05860267002865" lon="13.382284213500839"><ele>107.0</ele><time>2026-04-01T15:23:19.999Z</time></trkpt><trkpt lat="46.058623420261114" lon="13.382175435831027"><ele>107.0</ele><time>2026-04-01T15:23:20.999Z</time></trkpt><trkpt lat="46.05864742953511" lon="13.382049137325719"><ele>106.99999999999999</ele><time>2026-04-01T15:23:21.999Z</time></trkpt><trkpt lat="46.058674600513875" lon="13.381907291695214"><ele>107.0</ele><time>2026-04-01T15:23:22.999Z</time></trkpt><trkpt lat="46.05870004790892" lon="13.38177347266154"><ele>107.0</ele><time>2026-04-01T15:23:23.999Z</time></trkpt><trkpt lat="46.05872251789469" lon="13.381652896437503"><ele>106.99999999999999</ele><time>2026-04-01T15:23:24.999Z</time></trkpt><trkpt lat="46.05876199669628" lon="13.381497413313411"><ele>106.99999999999999</ele><time>2026-04-01T15:23:26.999Z</time></trkpt><trkpt lat="46.05880511610702" lon="13.381367551096345"><ele>107.0</ele><time>2026-04-01T15:23:28.999Z</time></trkpt><trkpt lat="46.05885414968166" lon="13.381260955852648"><ele>107.0</ele><time>2026-04-01T15:23:31.999Z</time></trkpt><trkpt lat="46.05894300687384" lon="13.381137755008163"><ele>107.16666666666666</ele><time>2026-04-01T15:23:33.999Z</time></trkpt><trkpt lat="46.058988610820805" lon="13.381059569282316"><ele>107.33333333333333</ele><time>2026-04-01T15:23:34.999Z</time></trkpt><trkpt lat="46.05901741260479" lon="13.380963456959371"><ele>107.5</ele><time>2026-04-01T15:23:35.999Z</time></trkpt><trkpt lat="46.059023971909056" lon="13.380854152608126"><ele>107.66666666666666</ele><time>2026-04-01T15:23:36.999Z</time></trkpt><trkpt lat="46.059011019581995" lon="13.380744548681038"><ele>107.83333333333333</ele><time>2026-04-01T15:23:37.999Z</time></trkpt><trkpt lat="46.05898028700145" lon="13.380616692731742"><ele>108.0</ele><time>2026-04-01T15:23:38.999Z</time></trkpt><trkpt lat="46.05896568675042" lon="13.38046736656254"><ele>107.60000000000001</ele><time>2026-04-01T15:23:39.999Z</time></trkpt><trkpt lat="46.05897839509287" lon="13.380308427981205"><ele>107.20000000000002</ele><time>2026-04-01T15:23:40.999Z</time></trkpt><trkpt lat="46.0590102055325" lon="13.380152306249682"><ele>106.8</ele><time>2026-04-01T15:23:41.999Z</time></trkpt><trkpt lat="46.05903525908216" lon="13.380008289371238"><ele>106.4</ele><time>2026-04-01T15:23:43Z</time></trkpt><trkpt lat="46.05905481870504" lon="13.3798670371806"><ele>106.0</ele><time>2026-04-01T15:23:44Z</time></trkpt><trkpt lat="46.0590783813936" lon="13.379720393853281"><ele>106.25</ele><time>2026-04-01T15:23:45Z</time></trkpt><trkpt lat="46.059111977598334" lon="13.379555234667176"><ele>106.5</ele><time>2026-04-01T15:23:46Z</time></trkpt><trkpt lat="46.0591476504205" lon="13.379365314606734"><ele>106.75</ele><time>2026-04-01T15:23:47Z</time></trkpt><trkpt lat="46.05918334299667" lon="13.379159227158562"><ele>107.0</ele><time>2026-04-01T15:23:48Z</time></trkpt><trkpt lat="46.059222139595015" lon="13.378953967392338"><ele>106.66666666666666</ele><time>2026-04-01T15:23:49Z</time></trkpt><trkpt lat="46.059263758417835" lon="13.378736642251248"><ele>106.33333333333334</ele><time>2026-04-01T15:23:50Z</time></trkpt><trkpt lat="46.05930133643439" lon="13.378526700876822"><ele>106.0</ele><time>2026-04-01T15:23:51Z</time></trkpt><trkpt lat="46.05933652896053" lon="13.378320124674158"><ele>106.0</ele><time>2026-04-01T15:23:52Z</time></trkpt><trkpt lat="46.059373018749525" lon="13.378120997065835"><ele>106.0</ele><time>2026-04-01T15:23:53Z</time></trkpt><trkpt lat="46.05941008391917" lon="13.377920298146295"><ele>106.0</ele><time>2026-04-01T15:23:54Z</time></trkpt><trkpt lat="46.05944812338242" lon="13.377710800043772"><ele>106.0</ele><time>2026-04-01T15:23:55Z</time></trkpt><trkpt lat="46.05948737982478" lon="13.37749657064406"><ele>106.0</ele><time>2026-04-01T15:23:56Z</time></trkpt><trkpt lat="46.05952844293539" lon="13.377280352331212"><ele>106.0</ele><time>2026-04-01T15:23:57Z</time></trkpt><trkpt lat="46.05957127501789" lon="13.37705808503509"><ele>106.0</ele><time>2026-04-01T15:23:58Z</time></trkpt><trkpt lat="46.05961000492531" lon="13.376836692872914"><ele>106.0</ele><time>2026-04-01T15:23:59Z</time></trkpt><trkpt lat="46.05964757601458" lon="13.376622005441682"><ele>106.0</ele><time>2026-04-01T15:24:00Z</time></trkpt><trkpt lat="46.05968561861215" lon="13.37641609215219"><ele>106.0</ele><time>2026-04-01T15:24:01Z</time></trkpt><trkpt lat="46.059723826123275" lon="13.376212812321329"><ele>106.0</ele><time>2026-04-01T15:24:02Z</time></trkpt><trkpt lat="46.059761870383156" lon="13.37600671389256"><ele>105.66666666666667</ele><time>2026-04-01T15:24:03Z</time></trkpt><trkpt lat="46.0598027626181" lon="13.375789379485427"><ele>105.33333333333334</ele><time>2026-04-01T15:24:04Z</time></trkpt><trkpt lat="46.05984541176954" lon="13.375555390432497"><ele>105.0</ele><time>2026-04-01T15:24:05Z</time></trkpt><trkpt lat="46.05988911370794" lon="13.375312701921686"><ele>105.0</ele><time>2026-04-01T15:24:06Z</time></trkpt><trkpt lat="46.05993380929904" lon="13.375076722553034"><ele>105.0</ele><time>2026-04-01T15:24:07Z</time></trkpt><trkpt lat="46.05997706051972" lon="13.37484733138424"><ele>105.0</ele><time>2026-04-01T15:24:08Z</time></trkpt><trkpt lat="46.060018077510215" lon="13.37461934655024"><ele>105.33333333333334</ele><time>2026-04-01T15:24:09Z</time></trkpt><trkpt lat="46.06005918396518" lon="13.374393050968644"><ele>105.66666666666667</ele><time>2026-04-01T15:24:10Z</time></trkpt><trkpt lat="46.06010149389001" lon="13.374165928979043"><ele>106.0</ele><time>2026-04-01T15:24:11Z</time></trkpt><trkpt lat="46.060145211435504" lon="13.373940532907232"><ele>106.0</ele><time>2026-04-01T15:24:12Z</time></trkpt><trkpt lat="46.060190767235504" lon="13.373713218405513"><ele>106.0</ele><time>2026-04-01T15:24:13Z</time></trkpt><trkpt lat="46.06023516072969" lon="13.373478077357591"><ele>106.0</ele><time>2026-04-01T15:24:14Z</time></trkpt><trkpt lat="46.06027986494187" lon="13.373235246435234"><ele>105.33333333333334</ele><time>2026-04-01T15:24:15Z</time></trkpt><trkpt lat="46.06032353618337" lon="13.372993647679149"><ele>104.66666666666666</ele><time>2026-04-01T15:24:16Z</time></trkpt><trkpt lat="46.06036616705304" lon="13.372727858044714"><ele>104.0</ele><time>2026-04-01T15:24:17Z</time></trkpt><trkpt lat="46.06041842267423" lon="13.372443721970546"><ele>105.0</ele><time>2026-04-01T15:24:18Z</time></trkpt><trkpt lat="46.06047875437187" lon="13.372139450209083"><ele>106.0</ele><time>2026-04-01T15:24:19Z</time></trkpt><trkpt lat="46.06053371353964" lon="13.371845005247472"><ele>107.0</ele><time>2026-04-01T15:24:20Z</time></trkpt><trkpt lat="46.06057816357672" lon="13.37157664302446"><ele>106.33333333333333</ele><time>2026-04-01T15:24:21Z</time></trkpt><trkpt lat="46.06062747071916" lon="13.371316724758247"><ele>105.66666666666666</ele><time>2026-04-01T15:24:22Z</time></trkpt><trkpt lat="46.06067455841248" lon="13.371063795886903"><ele>105.0</ele><time>2026-04-01T15:24:23Z</time></trkpt><trkpt lat="46.06072351254404" lon="13.37081178058372"><ele>105.0</ele><time>2026-04-01T15:24:24Z</time></trkpt><trkpt lat="46.06077059680385" lon="13.370554487344005"><ele>105.0</ele><time>2026-04-01T15:24:25Z</time></trkpt><trkpt lat="46.06081885982806" lon="13.370290122800617"><ele>105.0</ele><time>2026-04-01T15:24:26Z</time></trkpt><trkpt lat="46.060868857522365" lon="13.37002020257352"><ele>105.0</ele><time>2026-04-01T15:24:27Z</time></trkpt><trkpt lat="46.0609207391648" lon="13.369750822065587"><ele>105.0</ele><time>2026-04-01T15:24:28Z</time></trkpt><trkpt lat="46.06096907595074" lon="13.369486310985701"><ele>105.0</ele><time>2026-04-01T15:24:29Z</time></trkpt><trkpt lat="46.061016358661945" lon="13.36922401285445"><ele>105.0</ele><time>2026-04-01T15:24:30Z</time></trkpt><trkpt lat="46.06106228358166" lon="13.368964188383899"><ele>105.0</ele><time>2026-04-01T15:24:31Z</time></trkpt><trkpt lat="46.06111009296322" lon="13.368697641685802"><ele>105.0</ele><time>2026-04-01T15:24:32Z</time></trkpt><trkpt lat="46.061161304366195" lon="13.368422104829305"><ele>105.33333333333334</ele><time>2026-04-01T15:24:33Z</time></trkpt><trkpt lat="46.06121497246384" lon="13.368139683337201"><ele>105.66666666666667</ele><time>2026-04-01T15:24:34Z</time></trkpt><trkpt lat="46.061268882482004" lon="13.36785349838549"><ele>106.0</ele><time>2026-04-01T15:24:35Z</time></trkpt><trkpt lat="46.06132448225274" lon="13.367558862009028"><ele>106.0</ele><time>2026-04-01T15:24:36Z</time></trkpt><trkpt lat="46.06138027616406" lon="13.367256847783564"><ele>106.0</ele><time>2026-04-01T15:24:37Z</time></trkpt><trkpt lat="46.061433488130184" lon="13.366952645893521"><ele>106.0</ele><time>2026-04-01T15:24:38Z</time></trkpt><trkpt lat="46.0614860455898" lon="13.366658303649471"><ele>105.33333333333334</ele><time>2026-04-01T15:24:38.999Z</time></trkpt><trkpt lat="46.061535824475264" lon="13.366381283338486"><ele>104.66666666666666</ele><time>2026-04-01T15:24:39.999Z</time></trkpt><trkpt lat="46.06158541989776" lon="13.366110780231889"><ele>104.0</ele><time>2026-04-01T15:24:40.999Z</time></trkpt><trkpt lat="46.06163595020336" lon="13.365839344114296"><ele>104.0</ele><time>2026-04-01T15:24:41.999Z</time></trkpt><trkpt lat="46.06168651812791" lon="13.365565058636802"><ele>104.0</ele><time>2026-04-01T15:24:42.999Z</time></trkpt><trkpt lat="46.06173659952291" lon="13.36528819878414"><ele>104.0</ele><time>2026-04-01T15:24:43.999Z</time></trkpt><trkpt lat="46.06178728069736" lon="13.365010178701608"><ele>104.0</ele><time>2026-04-01T15:24:44.999Z</time></trkpt><trkpt lat="46.061838290549076" lon="13.364731876848"><ele>104.0</ele><time>2026-04-01T15:24:45.999Z</time></trkpt><trkpt lat="46.06189256703594" lon="13.3644542184253"><ele>104.0</ele><time>2026-04-01T15:24:46.999Z</time></trkpt><trkpt lat="46.0619483396876" lon="13.364177485753201"><ele>103.66666666666666</ele><time>2026-04-01T15:24:47.999Z</time></trkpt><trkpt lat="46.062006926339144" lon="13.363904380006215"><ele>103.33333333333334</ele><time>2026-04-01T15:24:48.999Z</time></trkpt><trkpt lat="46.062065987254336" lon="13.363631165698612"><ele>103.0</ele><time>2026-04-01T15:24:49.999Z</time></trkpt><trkpt lat="46.06212703457656" lon="13.363359898548902"><ele>103.0</ele><time>2026-04-01T15:24:50.999Z</time></trkpt><trkpt lat="46.06219179570214" lon="13.363093691829796"><ele>103.0</ele><time>2026-04-01T15:24:51.999Z</time></trkpt><trkpt lat="46.06225676564699" lon="13.362829242653138"><ele>103.0</ele><time>2026-04-01T15:24:52.999Z</time></trkpt><trkpt lat="46.06231969557612" lon="13.362564551325866"><ele>103.0</ele><time>2026-04-01T15:24:53.999Z</time></trkpt><trkpt lat="46.062383458458335" lon="13.362285233240817"><ele>103.0</ele><time>2026-04-01T15:24:54.999Z</time></trkpt><trkpt lat="46.062453831194524" lon="13.362003869827689"><ele>103.0</ele><time>2026-04-01T15:24:55.999Z</time></trkpt><trkpt lat="46.06252340657084" lon="13.36172442743558"><ele>103.0</ele><time>2026-04-01T15:24:56.999Z</time></trkpt><trkpt lat="46.06259101709523" lon="13.361445799166923"><ele>103.0</ele><time>2026-04-01T15:24:57.999Z</time></trkpt><trkpt lat="46.06265594797269" lon="13.361172661837829"><ele>103.0</ele><time>2026-04-01T15:24:58.999Z</time></trkpt><trkpt lat="46.06272108804594" lon="13.36089990847955"><ele>102.33333333333334</ele><time>2026-04-01T15:24:59.999Z</time></trkpt><trkpt lat="46.0627875452727" lon="13.360629745172952"><ele>101.66666666666666</ele><time>2026-04-01T15:25:00.999Z</time></trkpt><trkpt lat="46.06285174745458" lon="13.360356626683805"><ele>101.0</ele><time>2026-04-01T15:25:01.999Z</time></trkpt><trkpt lat="46.062916093582686" lon="13.360078887807603"><ele>101.0</ele><time>2026-04-01T15:25:02.999Z</time></trkpt><trkpt lat="46.062982787697386" lon="13.359800676833471"><ele>101.0</ele><time>2026-04-01T15:25:03.999Z</time></trkpt><trkpt lat="46.06304897905399" lon="13.359522234002018"><ele>101.0</ele><time>2026-04-01T15:25:04.999Z</time></trkpt><trkpt lat="46.06311501694967" lon="13.359243516157676"><ele>100.66666666666666</ele><time>2026-04-01T15:25:05.999Z</time></trkpt><trkpt lat="46.06318293771924" lon="13.35896521330812"><ele>100.33333333333334</ele><time>2026-04-01T15:25:06.999Z</time></trkpt><trkpt lat="46.06325036264835" lon="13.358687369112475"><ele>100.0</ele><time>2026-04-01T15:25:07.999Z</time></trkpt><trkpt lat="46.06331757287366" lon="13.358411878383983"><ele>100.33333333333334</ele><time>2026-04-01T15:25:08.999Z</time></trkpt><trkpt lat="46.06338124488445" lon="13.358139131915117"><ele>100.66666666666666</ele><time>2026-04-01T15:25:09.999Z</time></trkpt><trkpt lat="46.06344442916185" lon="13.357871315090442"><ele>101.0</ele><time>2026-04-01T15:25:10.999Z</time></trkpt><trkpt lat="46.063509315392096" lon="13.357603648648267"><ele>101.0</ele><time>2026-04-01T15:25:11.999Z</time></trkpt><trkpt lat="46.06357417943606" lon="13.357338549496438"><ele>101.0</ele><time>2026-04-01T15:25:12.999Z</time></trkpt><trkpt lat="46.06363929361211" lon="13.357074259394565"><ele>101.0</ele><time>2026-04-01T15:25:13.999Z</time></trkpt><trkpt lat="46.063702503925505" lon="13.356811487142187"><ele>100.66666666666666</ele><time>2026-04-01T15:25:14.999Z</time></trkpt><trkpt lat="46.063764488541075" lon="13.35655085860731"><ele>100.33333333333334</ele><time>2026-04-01T15:25:15.999Z</time></trkpt><trkpt lat="46.06382720448986" lon="13.356289402494047"><ele>100.0</ele><time>2026-04-01T15:25:16.999Z</time></trkpt><trkpt lat="46.0638909372941" lon="13.356029227238906"><ele>100.0</ele><time>2026-04-01T15:25:17.999Z</time></trkpt><trkpt lat="46.063952143545926" lon="13.355768482978617"><ele>100.0</ele><time>2026-04-01T15:25:18.999Z</time></trkpt><trkpt lat="46.06401138833525" lon="13.355503624758125"><ele>100.0</ele><time>2026-04-01T15:25:19.999Z</time></trkpt><trkpt lat="46.06406744058835" lon="13.355235761004794"><ele>100.33333333333334</ele><time>2026-04-01T15:25:20.999Z</time></trkpt><trkpt lat="46.06411961887617" lon="13.354964272499268"><ele>100.66666666666666</ele><time>2026-04-01T15:25:21.999Z</time></trkpt><trkpt lat="46.064165895874574" lon="13.35468995287718"><ele>101.0</ele><time>2026-04-01T15:25:22.999Z</time></trkpt><trkpt lat="46.06421265953354" lon="13.35441483521311"><ele>100.33333333333333</ele><time>2026-04-01T15:25:23.999Z</time></trkpt><trkpt lat="46.06426031356337" lon="13.354139762224607"><ele>99.66666666666666</ele><time>2026-04-01T15:25:24.999Z</time></trkpt><trkpt lat="46.06430821531787" lon="13.353865160723782"><ele>99.0</ele><time>2026-04-01T15:25:25.999Z</time></trkpt><trkpt lat="46.06435443046724" lon="13.353591543918187"><ele>99.0</ele><time>2026-04-01T15:25:26.999Z</time></trkpt><trkpt lat="46.064399340063616" lon="13.353318182606593"><ele>99.0</ele><time>2026-04-01T15:25:27.999Z</time></trkpt><trkpt lat="46.06444545165771" lon="13.353049546489329"><ele>99.0</ele><time>2026-04-01T15:25:28.999Z</time></trkpt><trkpt lat="46.06449160996341" lon="13.35278412684834"><ele>99.33333333333334</ele><time>2026-04-01T15:25:29.999Z</time></trkpt><trkpt lat="46.06453669107312" lon="13.352519646130816"><ele>99.66666666666667</ele><time>2026-04-01T15:25:30.999Z</time></trkpt><trkpt lat="46.06458154941043" lon="13.352255980442814"><ele>100.0</ele><time>2026-04-01T15:25:31.999Z</time></trkpt><trkpt lat="46.06462516393266" lon="13.351991802452677"><ele>100.0</ele><time>2026-04-01T15:25:32.999Z</time></trkpt><trkpt lat="46.06466984147233" lon="13.351729353525032"><ele>100.0</ele><time>2026-04-01T15:25:33.999Z</time></trkpt><trkpt lat="46.06471540970268" lon="13.351466886590751"><ele>100.0</ele><time>2026-04-01T15:25:34.999Z</time></trkpt><trkpt lat="46.06476239067263" lon="13.35120608288654"><ele>100.0</ele><time>2026-04-01T15:25:35.999Z</time></trkpt><trkpt lat="46.06480652411146" lon="13.350945750724971"><ele>100.0</ele><time>2026-04-01T15:25:36.999Z</time></trkpt><trkpt lat="46.06484902960466" lon="13.350679275485875"><ele>100.0</ele><time>2026-04-01T15:25:37.999Z</time></trkpt><trkpt lat="46.06489337828183" lon="13.350404680854357"><ele>100.0</ele><time>2026-04-01T15:25:38.999Z</time></trkpt><trkpt lat="46.06493998494542" lon="13.350123329888657"><ele>100.0</ele><time>2026-04-01T15:25:39.999Z</time></trkpt><trkpt lat="46.06498927155467" lon="13.349836874619712"><ele>100.0</ele><time>2026-04-01T15:25:40.999Z</time></trkpt><trkpt lat="46.065037661331296" lon="13.349551634705023"><ele>101.0</ele><time>2026-04-01T15:25:41.999Z</time></trkpt><trkpt lat="46.06508284330459" lon="13.349272021132395"><ele>102.0</ele><time>2026-04-01T15:25:42.999Z</time></trkpt><trkpt lat="46.06512953402404" lon="13.348998084983295"><ele>103.0</ele><time>2026-04-01T15:25:43.999Z</time></trkpt><trkpt lat="46.06517472172666" lon="13.348735964773738"><ele>103.0</ele><time>2026-04-01T15:25:44.999Z</time></trkpt><trkpt lat="46.0652171127673" lon="13.348490540002754"><ele>103.0</ele><time>2026-04-01T15:25:45.999Z</time></trkpt><trkpt lat="46.065258671062594" lon="13.348252148604377"><ele>103.0</ele><time>2026-04-01T15:25:46.999Z</time></trkpt><trkpt lat="46.065297866057996" lon="13.348017646501452"><ele>103.0</ele><time>2026-04-01T15:25:47.999Z</time></trkpt><trkpt lat="46.06533857991254" lon="13.347791170287653"><ele>103.0</ele><time>2026-04-01T15:25:49Z</time></trkpt><trkpt lat="46.06537622446448" lon="13.34757107794299"><ele>103.0</ele><time>2026-04-01T15:25:50Z</time></trkpt><trkpt lat="46.06541236663584" lon="13.347359225842066"><ele>102.33333333333334</ele><time>2026-04-01T15:25:51Z</time></trkpt><trkpt lat="46.06544846139223" lon="13.347149132793422"><ele>101.66666666666666</ele><time>2026-04-01T15:25:52Z</time></trkpt><trkpt lat="46.06548626896996" lon="13.346938245642216"><ele>101.0</ele><time>2026-04-01T15:25:53Z</time></trkpt><trkpt lat="46.06552435075879" lon="13.346718785748463"><ele>101.0</ele><time>2026-04-01T15:25:54Z</time></trkpt><trkpt lat="46.06556175545256" lon="13.34649378695146"><ele>101.0</ele><time>2026-04-01T15:25:55Z</time></trkpt><trkpt lat="46.06560398516812" lon="13.346265425205054"><ele>101.0</ele><time>2026-04-01T15:25:56Z</time></trkpt><trkpt lat="46.06564146380294" lon="13.346039076807548"><ele>101.0</ele><time>2026-04-01T15:25:57Z</time></trkpt><trkpt lat="46.065678883758146" lon="13.345820945768885"><ele>101.0</ele><time>2026-04-01T15:25:58Z</time></trkpt><trkpt lat="46.0657149831316" lon="13.345615502855104"><ele>101.0</ele><time>2026-04-01T15:25:59Z</time></trkpt><trkpt lat="46.06574909774138" lon="13.345418105500451"><ele>101.0</ele><time>2026-04-01T15:26:00Z</time></trkpt><trkpt lat="46.06578248334618" lon="13.345228947103635"><ele>101.25</ele><time>2026-04-01T15:26:01Z</time></trkpt><trkpt lat="46.06581324532163" lon="13.34505008090363"><ele>101.5</ele><time>2026-04-01T15:26:02Z</time></trkpt><trkpt lat="46.06584377944864" lon="13.344872269774804"><ele>101.75</ele><time>2026-04-01T15:26:03Z</time></trkpt><trkpt lat="46.065870548249556" lon="13.344706776620177"><ele>102.0</ele><time>2026-04-01T15:26:04Z</time></trkpt><trkpt lat="46.06588869418568" lon="13.344549031363151"><ele>102.0</ele><time>2026-04-01T15:26:05Z</time></trkpt><trkpt lat="46.06589178084939" lon="13.344406216698127"><ele>102.0</ele><time>2026-04-01T15:26:06Z</time></trkpt><trkpt lat="46.06589007088916" lon="13.3442722087263"><ele>102.0</ele><time>2026-04-01T15:26:07Z</time></trkpt><trkpt lat="46.065885533184506" lon="13.344146033730208"><ele>102.0</ele><time>2026-04-01T15:26:08Z</time></trkpt><trkpt lat="46.065884657150676" lon="13.344029675937955"><ele>102.0</ele><time>2026-04-01T15:26:09Z</time></trkpt><trkpt lat="46.06587835782953" lon="13.343926901907409"><ele>102.0</ele><time>2026-04-01T15:26:10Z</time></trkpt><trkpt lat="46.06587287240227" lon="13.343794132226636"><ele>101.8</ele><time>2026-04-01T15:26:12Z</time></trkpt><trkpt lat="46.06587794469175" lon="13.343676396346934"><ele>101.6</ele><time>2026-04-01T15:26:14Z</time></trkpt><trkpt lat="46.065874971710734" lon="13.343509932724082"><ele>101.39999999999999</ele><time>2026-04-01T15:26:16Z</time></trkpt><trkpt lat="46.065822008222945" lon="13.34336707913749"><ele>101.19999999999999</ele><time>2026-04-01T15:26:18Z</time></trkpt><trkpt lat="46.065719579270045" lon="13.3433630844826"><ele>101.0</ele><time>2026-04-01T15:26:20Z</time></trkpt><trkpt lat="46.065590555231125" lon="13.343405960147056"><ele>100.8</ele><time>2026-04-01T15:26:22Z</time></trkpt><trkpt lat="46.06549591234757" lon="13.343399909370861"><ele>100.6</ele><time>2026-04-01T15:26:23Z</time></trkpt><trkpt lat="46.06539799243599" lon="13.343387325742116"><ele>100.4</ele><time>2026-04-01T15:26:24Z</time></trkpt><trkpt lat="46.06530536551862" lon="13.343365876680464"><ele>100.2</ele><time>2026-04-01T15:26:25Z</time></trkpt><trkpt lat="46.0652170810693" lon="13.343343449544927"><ele>100.0</ele><time>2026-04-01T15:26:26Z</time></trkpt><trkpt lat="46.06512604879117" lon="13.343320911364192"><ele>100.0</ele><time>2026-04-01T15:26:27Z</time></trkpt><trkpt lat="46.06503238448626" lon="13.343303106876238"><ele>100.0</ele><time>2026-04-01T15:26:28Z</time></trkpt><trkpt lat="46.064938121754246" lon="13.343288883517559"><ele>100.0</ele><time>2026-04-01T15:26:29Z</time></trkpt><trkpt lat="46.06484391380614" lon="13.343252365472232"><ele>100.0</ele><time>2026-04-01T15:26:30Z</time></trkpt><trkpt lat="46.064746849587955" lon="13.34323668525156"><ele>100.0</ele><time>2026-04-01T15:26:31Z</time></trkpt><trkpt lat="46.06464576003574" lon="13.343237751406724"><ele>99.8</ele><time>2026-04-01T15:26:32Z</time></trkpt><trkpt lat="46.06455033531171" lon="13.343176146061225"><ele>99.6</ele><time>2026-04-01T15:26:33Z</time></trkpt><trkpt lat="46.06444894164972" lon="13.343129764934954"><ele>99.4</ele><time>2026-04-01T15:26:34Z</time></trkpt><trkpt lat="46.06434072116348" lon="13.343076847983193"><ele>99.2</ele><time>2026-04-01T15:26:35Z</time></trkpt><trkpt lat="46.06422761434827" lon="13.343040901397798"><ele>99.0</ele><time>2026-04-01T15:26:36Z</time></trkpt><trkpt lat="46.064124282086546" lon="13.343033489899545"><ele>98.6</ele><time>2026-04-01T15:26:37Z</time></trkpt><trkpt lat="46.064028351816674" lon="13.34303319069079"><ele>98.2</ele><time>2026-04-01T15:26:38Z</time></trkpt><trkpt lat="46.06394408994823" lon="13.343032621441782"><ele>97.8</ele><time>2026-04-01T15:26:39Z</time></trkpt><trkpt lat="46.06383530526315" lon="13.343042458732574"><ele>97.39999999999999</ele><time>2026-04-01T15:26:40Z</time></trkpt><trkpt lat="46.06370274247098" lon="13.342982325892411"><ele>97.0</ele><time>2026-04-01T15:26:41Z</time></trkpt><trkpt lat="46.063529893752616" lon="13.342917366762087"><ele>97.0</ele><time>2026-04-01T15:26:42Z</time></trkpt><trkpt lat="46.06335243453487" lon="13.342846215256184"><ele>97.0</ele><time>2026-04-01T15:26:43Z</time></trkpt><trkpt lat="46.06320332249837" lon="13.34278343383335"><ele>97.0</ele><time>2026-04-01T15:26:44Z</time></trkpt><trkpt lat="46.06306818645156" lon="13.342726536710432"><ele>96.5</ele><time>2026-04-01T15:26:44.999Z</time></trkpt><trkpt lat="46.06293492374232" lon="13.342675890639704"><ele>96.0</ele><time>2026-04-01T15:26:45.999Z</time></trkpt><trkpt lat="46.06281515594437" lon="13.342626597949439"><ele>95.5</ele><time>2026-04-01T15:26:46.999Z</time></trkpt><trkpt lat="46.062707985993676" lon="13.342563257985201"><ele>95.0</ele><time>2026-04-01T15:26:47.999Z</time></trkpt><trkpt lat="46.062618385356124" lon="13.342457050078027"><ele>95.0</ele><time>2026-04-01T15:26:48.999Z</time></trkpt><trkpt lat="46.062533897124204" lon="13.342314260015918"><ele>95.0</ele><time>2026-04-01T15:26:49.999Z</time></trkpt><trkpt lat="46.062453199456094" lon="13.342147028472203"><ele>95.0</ele><time>2026-04-01T15:26:50.999Z</time></trkpt><trkpt lat="46.062359251971436" lon="13.341981159380582"><ele>95.0</ele><time>2026-04-01T15:26:51.999Z</time></trkpt><trkpt lat="46.0622758757678" lon="13.34179074296343"><ele>95.5</ele><time>2026-04-01T15:26:52.999Z</time></trkpt><trkpt lat="46.062197591582915" lon="13.34160929592674"><ele>96.0</ele><time>2026-04-01T15:26:53.999Z</time></trkpt><trkpt lat="46.06214112124749" lon="13.341428831615628"><ele>96.5</ele><time>2026-04-01T15:26:54.999Z</time></trkpt><trkpt lat="46.062068093482736" lon="13.341254611762489"><ele>97.0</ele><time>2026-04-01T15:26:55.999Z</time></trkpt><trkpt lat="46.06199352298991" lon="13.341081703555382"><ele>97.0</ele><time>2026-04-01T15:26:56.999Z</time></trkpt><trkpt lat="46.06191708602269" lon="13.340910107601907"><ele>97.0</ele><time>2026-04-01T15:26:57.999Z</time></trkpt><trkpt lat="46.061828073376354" lon="13.340721185268443"><ele>97.0</ele><time>2026-04-01T15:26:58.999Z</time></trkpt><trkpt lat="46.06170844258322" lon="13.340530217735997"><ele>96.0</ele><time>2026-04-01T15:26:59.999Z</time></trkpt><trkpt lat="46.06154072707337" lon="13.340370501754036"><ele>95.0</ele><time>2026-04-01T15:27:00.999Z</time></trkpt><trkpt lat="46.061340417519176" lon="13.340248899932233"><ele>94.0</ele><time>2026-04-01T15:27:01.999Z</time></trkpt><trkpt lat="46.06113570254547" lon="13.340142256945898"><ele>94.0</ele><time>2026-04-01T15:27:02.999Z</time></trkpt><trkpt lat="46.06094377978805" lon="13.340042624519851"><ele>94.0</ele><time>2026-04-01T15:27:03.999Z</time></trkpt><trkpt lat="46.060757018182656" lon="13.339945671225482"><ele>94.0</ele><time>2026-04-01T15:27:04.999Z</time></trkpt><trkpt lat="46.06056636667707" lon="13.339846698636634"><ele>94.0</ele><time>2026-04-01T15:27:05.999Z</time></trkpt><trkpt lat="46.06036003414259" lon="13.339739585680784"><ele>94.0</ele><time>2026-04-01T15:27:06.999Z</time></trkpt><trkpt lat="46.060142156238506" lon="13.339627115889465"><ele>94.5</ele><time>2026-04-01T15:27:07.999Z</time></trkpt><trkpt lat="46.05991489021136" lon="13.339511066162125"><ele>95.0</ele><time>2026-04-01T15:27:08.999Z</time></trkpt><trkpt lat="46.059684307405604" lon="13.339392360570582"><ele>95.0</ele><time>2026-04-01T15:27:09.999Z</time></trkpt><trkpt lat="46.05946105442942" lon="13.339265871726594"><ele>95.0</ele><time>2026-04-01T15:27:10.999Z</time></trkpt><trkpt lat="46.0592443593486" lon="13.339118801898433"><ele>95.5</ele><time>2026-04-01T15:27:11.999Z</time></trkpt><trkpt lat="46.059028123988625" lon="13.33894846989916"><ele>96.0</ele><time>2026-04-01T15:27:12.999Z</time></trkpt><trkpt lat="46.05880540422025" lon="13.338791448032664"><ele>95.0</ele><time>2026-04-01T15:27:13.999Z</time></trkpt><trkpt lat="46.058602378743515" lon="13.338618178228868"><ele>94.0</ele><time>2026-04-01T15:27:14.999Z</time></trkpt><trkpt lat="46.05840256702301" lon="13.338456411683142"><ele>94.5</ele><time>2026-04-01T15:27:15.999Z</time></trkpt><trkpt lat="46.058213111464646" lon="13.338271227076467"><ele>95.0</ele><time>2026-04-01T15:27:16.999Z</time></trkpt><trkpt lat="46.05800800973159" lon="13.33812759811067"><ele>95.0</ele><time>2026-04-01T15:27:17.999Z</time></trkpt><trkpt lat="46.05781190932419" lon="13.337963060305206"><ele>95.0</ele><time>2026-04-01T15:27:18.999Z</time></trkpt><trkpt lat="46.057623814072514" lon="13.337780111301418"><ele>95.0</ele><time>2026-04-01T15:27:19.999Z</time></trkpt><trkpt lat="46.05741587198334" lon="13.337634496339781"><ele>95.0</ele><time>2026-04-01T15:27:20.999Z</time></trkpt><trkpt lat="46.057212947192205" lon="13.337465801236027"><ele>95.0</ele><time>2026-04-01T15:27:21.999Z</time></trkpt><trkpt lat="46.05701083129349" lon="13.337296881786228"><ele>95.0</ele><time>2026-04-01T15:27:22.999Z</time></trkpt><trkpt lat="46.056817875902034" lon="13.337109655173622"><ele>94.0</ele><time>2026-04-01T15:27:23.999Z</time></trkpt><trkpt lat="46.05661610418894" lon="13.336941314196267"><ele>93.0</ele><time>2026-04-01T15:27:24.999Z</time></trkpt><trkpt lat="46.05641421753512" lon="13.33677287731889"><ele>93.0</ele><time>2026-04-01T15:27:25.999Z</time></trkpt><trkpt lat="46.056212420756665" lon="13.336604515426778"><ele>93.0</ele><time>2026-04-01T15:27:26.999Z</time></trkpt><trkpt lat="46.056010610879994" lon="13.336436142610665"><ele>93.5</ele><time>2026-04-01T15:27:27.999Z</time></trkpt><trkpt lat="46.05579998208042" lon="13.336288806559015"><ele>94.0</ele><time>2026-04-01T15:27:28.999Z</time></trkpt><trkpt lat="46.05561009613765" lon="13.336104240964438"><ele>94.0</ele><time>2026-04-01T15:27:29.999Z</time></trkpt><trkpt lat="46.05541305289133" lon="13.335941135281647"><ele>94.0</ele><time>2026-04-01T15:27:30.999Z</time></trkpt><trkpt lat="46.05521747019745" lon="13.335779238599372"><ele>94.0</ele><time>2026-04-01T15:27:31.999Z</time></trkpt><trkpt lat="46.0550243697956" lon="13.335619396648225"><ele>94.0</ele><time>2026-04-01T15:27:32.999Z</time></trkpt><trkpt lat="46.05483194598765" lon="13.33546011479142"><ele>94.0</ele><time>2026-04-01T15:27:33.999Z</time></trkpt><trkpt lat="46.05464066927461" lon="13.335301782476158"><ele>94.0</ele><time>2026-04-01T15:27:34.999Z</time></trkpt><trkpt lat="46.05444980462448" lon="13.335143791197263"><ele>94.0</ele><time>2026-04-01T15:27:35.999Z</time></trkpt><trkpt lat="46.054251769270394" lon="13.335006357246765"><ele>94.0</ele><time>2026-04-01T15:27:36.999Z</time></trkpt><trkpt lat="46.054062041615374" lon="13.334847768825897"><ele>94.0</ele><time>2026-04-01T15:27:37.999Z</time></trkpt><trkpt lat="46.05387412991886" lon="13.33469063352414"><ele>94.0</ele><time>2026-04-01T15:27:38.999Z</time></trkpt><trkpt lat="46.05370766549786" lon="13.334529066665544"><ele>94.0</ele><time>2026-04-01T15:27:39.999Z</time></trkpt><trkpt lat="46.05352495302139" lon="13.33440774148921"><ele>94.0</ele><time>2026-04-01T15:27:40.999Z</time></trkpt><trkpt lat="46.05334664403489" lon="13.334247533777644"><ele>94.0</ele><time>2026-04-01T15:27:41.999Z</time></trkpt><trkpt lat="46.05313968353055" lon="13.334128884823384"><ele>94.0</ele><time>2026-04-01T15:27:42.999Z</time></trkpt><trkpt lat="46.05293581747569" lon="13.334049019337199"><ele>93.33333333333333</ele><time>2026-04-01T15:27:43.999Z</time></trkpt><trkpt lat="46.05273639127183" lon="13.33397897745379"><ele>92.66666666666667</ele><time>2026-04-01T15:27:44.999Z</time></trkpt><trkpt lat="46.052537964055645" lon="13.33391103528935"><ele>92.0</ele><time>2026-04-01T15:27:45.999Z</time></trkpt><trkpt lat="46.05233885658999" lon="13.333842858002972"><ele>91.66666666666667</ele><time>2026-04-01T15:27:46.999Z</time></trkpt><trkpt lat="46.052141463944174" lon="13.333775266259925"><ele>91.33333333333333</ele><time>2026-04-01T15:27:47.999Z</time></trkpt><trkpt lat="46.051941443929834" lon="13.333706775479866"><ele>91.0</ele><time>2026-04-01T15:27:48.999Z</time></trkpt><trkpt lat="46.05173729361437" lon="13.33363848834907"><ele>90.66666666666666</ele><time>2026-04-01T15:27:49.999Z</time></trkpt><trkpt lat="46.0515373954163" lon="13.333595939932604"><ele>90.33333333333333</ele><time>2026-04-01T15:27:50.999Z</time></trkpt><trkpt lat="46.051348388592515" lon="13.333531312960355"><ele>90.0</ele><time>2026-04-01T15:27:51.999Z</time></trkpt><trkpt lat="46.051176633828725" lon="13.333472042068541"><ele>90.0</ele><time>2026-04-01T15:27:52.999Z</time></trkpt><trkpt lat="46.05102252613379" lon="13.33341671043099"><ele>90.0</ele><time>2026-04-01T15:27:53.999Z</time></trkpt><trkpt lat="46.05087648964163" lon="13.333365978959083"><ele>90.0</ele><time>2026-04-01T15:27:55Z</time></trkpt><trkpt lat="46.050728677394495" lon="13.333317327003385"><ele>90.0</ele><time>2026-04-01T15:27:56Z</time></trkpt><trkpt lat="46.05057871885698" lon="13.333274237639403"><ele>90.0</ele><time>2026-04-01T15:27:57Z</time></trkpt><trkpt lat="46.050416975867556" lon="13.333256744564796"><ele>90.0</ele><time>2026-04-01T15:27:58Z</time></trkpt><trkpt lat="46.05024909464488" lon="13.333273716996336"><ele>90.0</ele><time>2026-04-01T15:27:59Z</time></trkpt><trkpt lat="46.0500762398681" lon="13.333306802403527"><ele>90.0</ele><time>2026-04-01T15:28:00Z</time></trkpt><trkpt lat="46.04989470619232" lon="13.333359798969136"><ele>90.0</ele><time>2026-04-01T15:28:01Z</time></trkpt><trkpt lat="46.04970519464795" lon="13.33341851820669"><ele>90.33333333333333</ele><time>2026-04-01T15:28:02Z</time></trkpt><trkpt lat="46.04951318245661" lon="13.333492589131788"><ele>90.66666666666666</ele><time>2026-04-01T15:28:03Z</time></trkpt><trkpt lat="46.04932093406476" lon="13.333567404187985"><ele>91.0</ele><time>2026-04-01T15:28:04Z</time></trkpt><trkpt lat="46.04913517270056" lon="13.333627335841035"><ele>91.33333333333333</ele><time>2026-04-01T15:28:05Z</time></trkpt><trkpt lat="46.048954096259784" lon="13.333683926391421"><ele>91.66666666666667</ele><time>2026-04-01T15:28:06Z</time></trkpt><trkpt lat="46.0487703222806" lon="13.333742515731588"><ele>92.0</ele><time>2026-04-01T15:28:07Z</time></trkpt><trkpt lat="46.04858088601541" lon="13.333787900996706"><ele>92.0</ele><time>2026-04-01T15:28:08Z</time></trkpt><trkpt lat="46.04838687407616" lon="13.333808012395227"><ele>92.0</ele><time>2026-04-01T15:28:09Z</time></trkpt><trkpt lat="46.04820594941728" lon="13.33382263904458"><ele>92.0</ele><time>2026-04-01T15:28:10Z</time></trkpt><trkpt lat="46.0480337949212" lon="13.333836401753311"><ele>91.33333333333334</ele><time>2026-04-01T15:28:11Z</time></trkpt><trkpt lat="46.047858329652165" lon="13.333836884355456"><ele>90.66666666666667</ele><time>2026-04-01T15:28:12Z</time></trkpt><trkpt lat="46.0476784599421" lon="13.333820127015244"><ele>90.0</ele><time>2026-04-01T15:28:13Z</time></trkpt><trkpt lat="46.04749656122874" lon="13.333793856556115"><ele>89.33333333333333</ele><time>2026-04-01T15:28:14Z</time></trkpt><trkpt lat="46.04731777585955" lon="13.333769059174244"><ele>88.66666666666666</ele><time>2026-04-01T15:28:15Z</time></trkpt><trkpt lat="46.047134634743664" lon="13.333741023507454"><ele>88.0</ele><time>2026-04-01T15:28:16Z</time></trkpt><trkpt lat="46.04694248055285" lon="13.333714451621761"><ele>88.0</ele><time>2026-04-01T15:28:17Z</time></trkpt><trkpt lat="46.04675080987669" lon="13.333685613512733"><ele>88.0</ele><time>2026-04-01T15:28:18Z</time></trkpt><trkpt lat="46.046558805994486" lon="13.333656258168201"><ele>88.0</ele><time>2026-04-01T15:28:19Z</time></trkpt><trkpt lat="46.04636773795459" lon="13.333625449992182"><ele>88.33333333333333</ele><time>2026-04-01T15:28:20Z</time></trkpt><trkpt lat="46.04617529282313" lon="13.333595982697918"><ele>88.66666666666667</ele><time>2026-04-01T15:28:21Z</time></trkpt><trkpt lat="46.04598514487533" lon="13.333567555793302"><ele>89.0</ele><time>2026-04-01T15:28:22Z</time></trkpt><trkpt lat="46.04579829119044" lon="13.333533595775327"><ele>90.33333333333334</ele><time>2026-04-01T15:28:23Z</time></trkpt><trkpt lat="46.04561364956429" lon="13.333494424030865"><ele>91.66666666666667</ele><time>2026-04-01T15:28:24Z</time></trkpt><trkpt lat="46.04544003113456" lon="13.333455176965881"><ele>93.0</ele><time>2026-04-01T15:28:25Z</time></trkpt><trkpt lat="46.04528103337147" lon="13.333417524420396"><ele>93.0</ele><time>2026-04-01T15:28:26Z</time></trkpt><trkpt lat="46.0451273580364" lon="13.333384786555833"><ele>93.0</ele><time>2026-04-01T15:28:27Z</time></trkpt><trkpt lat="46.04496947424647" lon="13.333354735758354"><ele>93.0</ele><time>2026-04-01T15:28:28Z</time></trkpt><trkpt lat="46.04481443680211" lon="13.333322284239312"><ele>92.0</ele><time>2026-04-01T15:28:29Z</time></trkpt><trkpt lat="46.044673102854425" lon="13.333290111364937"><ele>91.0</ele><time>2026-04-01T15:28:30Z</time></trkpt><trkpt lat="46.044547118330925" lon="13.333263463941051"><ele>90.0</ele><time>2026-04-01T15:28:31Z</time></trkpt><trkpt lat="46.04442039752993" lon="13.333236934576005"><ele>89.0</ele><time>2026-04-01T15:28:32Z</time></trkpt><trkpt lat="46.04429736497731" lon="13.333211870652255"><ele>89.0</ele><time>2026-04-01T15:28:33Z</time></trkpt><trkpt lat="46.044190356857534" lon="13.333192582473087"><ele>89.0</ele><time>2026-04-01T15:28:34Z</time></trkpt><trkpt lat="46.04409451140834" lon="13.333172436849617"><ele>89.0</ele><time>2026-04-01T15:28:35Z</time></trkpt><trkpt lat="46.044013492888965" lon="13.333152592945895"><ele>89.0</ele><time>2026-04-01T15:28:36Z</time></trkpt><trkpt lat="46.0439448119845" lon="13.333125233131948"><ele>89.0</ele><time>2026-04-01T15:28:37Z</time></trkpt><trkpt lat="46.043893239712276" lon="13.333052030064069"><ele>89.0</ele><time>2026-04-01T15:28:38Z</time></trkpt><trkpt lat="46.04388413167923" lon="13.332928829621187"><ele>89.0</ele><time>2026-04-01T15:28:39Z</time></trkpt><trkpt lat="46.04390515844063" lon="13.332802184655423"><ele>89.0</ele><time>2026-04-01T15:28:40Z</time></trkpt><trkpt lat="46.04391496898094" lon="13.332648051143297"><ele>89.0</ele><time>2026-04-01T15:28:41Z</time></trkpt><trkpt lat="46.043916670961366" lon="13.332438738338126"><ele>89.0</ele><time>2026-04-01T15:28:42Z</time></trkpt><trkpt lat="46.04392583847679" lon="13.33218168976688"><ele>89.0</ele><time>2026-04-01T15:28:43Z</time></trkpt><trkpt lat="46.04393134164406" lon="13.331898676888146"><ele>89.0</ele><time>2026-04-01T15:28:44Z</time></trkpt><trkpt lat="46.04393801795783" lon="13.331613119622567"><ele>89.0</ele><time>2026-04-01T15:28:45Z</time></trkpt><trkpt lat="46.0439498513185" lon="13.33132803208599"><ele>89.0</ele><time>2026-04-01T15:28:46Z</time></trkpt><trkpt lat="46.04396176286704" lon="13.331014247380592"><ele>89.0</ele><time>2026-04-01T15:28:47Z</time></trkpt><trkpt lat="46.04397331436392" lon="13.330687961011394"><ele>89.0</ele><time>2026-04-01T15:28:47.999Z</time></trkpt><trkpt lat="46.04398060308142" lon="13.330372461189244"><ele>89.0</ele><time>2026-04-01T15:28:48.999Z</time></trkpt><trkpt lat="46.04398997585513" lon="13.330054987506223"><ele>89.0</ele><time>2026-04-01T15:28:49.999Z</time></trkpt><trkpt lat="46.04400581684026" lon="13.329722532481696"><ele>89.0</ele><time>2026-04-01T15:28:50.999Z</time></trkpt><trkpt lat="46.0440206226599" lon="13.329395869192078"><ele>89.0</ele><time>2026-04-01T15:28:51.999Z</time></trkpt><trkpt lat="46.04403566479872" lon="13.329078215904808"><ele>89.0</ele><time>2026-04-01T15:28:52.999Z</time></trkpt><trkpt lat="46.04405152700618" lon="13.328755947673715"><ele>88.0</ele><time>2026-04-01T15:28:53.999Z</time></trkpt><trkpt lat="46.044065070403484" lon="13.328438075666552"><ele>87.0</ele><time>2026-04-01T15:28:54.999Z</time></trkpt><trkpt lat="46.04407516523483" lon="13.328146864498502"><ele>86.0</ele><time>2026-04-01T15:28:55.999Z</time></trkpt><trkpt lat="46.044083182910306" lon="13.327881438927639"><ele>85.66666666666667</ele><time>2026-04-01T15:28:56.999Z</time></trkpt><trkpt lat="46.044090454253286" lon="13.327627613128282"><ele>85.33333333333333</ele><time>2026-04-01T15:28:57.999Z</time></trkpt><trkpt lat="46.04409837318983" lon="13.327365328109083"><ele>85.0</ele><time>2026-04-01T15:28:58.999Z</time></trkpt><trkpt lat="46.04410593381645" lon="13.327126598463295"><ele>85.0</ele><time>2026-04-01T15:28:59.999Z</time></trkpt><trkpt lat="46.044114134402285" lon="13.326899344902095"><ele>85.0</ele><time>2026-04-01T15:29:00.999Z</time></trkpt><trkpt lat="46.04412207300914" lon="13.326681193530801"><ele>85.0</ele><time>2026-04-01T15:29:01.999Z</time></trkpt><trkpt lat="46.04412861388945" lon="13.326477504239476"><ele>85.25</ele><time>2026-04-01T15:29:02.999Z</time></trkpt><trkpt lat="46.04413328618662" lon="13.326286507232393"><ele>85.5</ele><time>2026-04-01T15:29:03.999Z</time></trkpt><trkpt lat="46.04413585724777" lon="13.326106457117643"><ele>85.75</ele><time>2026-04-01T15:29:04.999Z</time></trkpt><trkpt lat="46.044138015298024" lon="13.325937397844053"><ele>86.0</ele><time>2026-04-01T15:29:05.999Z</time></trkpt><trkpt lat="46.04413900853507" lon="13.325780357022003"><ele>86.0</ele><time>2026-04-01T15:29:06.999Z</time></trkpt><trkpt lat="46.04413910458296" lon="13.325631620770128"><ele>86.0</ele><time>2026-04-01T15:29:07.999Z</time></trkpt><trkpt lat="46.04413423606508" lon="13.325495209830304"><ele>86.0</ele><time>2026-04-01T15:29:08.999Z</time></trkpt><trkpt lat="46.04411483048681" lon="13.325366280266133"><ele>86.0</ele><time>2026-04-01T15:29:09.999Z</time></trkpt><trkpt lat="46.04409334632911" lon="13.325233728644292"><ele>86.0</ele><time>2026-04-01T15:29:10.999Z</time></trkpt><trkpt lat="46.044037266386674" lon="13.325108413758391"><ele>85.6</ele><time>2026-04-01T15:29:11.999Z</time></trkpt><trkpt lat="46.04397983918787" lon="13.324984583168034"><ele>85.19999999999999</ele><time>2026-04-01T15:29:12.999Z</time></trkpt><trkpt lat="46.043924348554896" lon="13.324868019378632"><ele>84.80000000000001</ele><time>2026-04-01T15:29:13.999Z</time></trkpt><trkpt lat="46.043865847225746" lon="13.32474776244582"><ele>84.4</ele><time>2026-04-01T15:29:14.999Z</time></trkpt><trkpt lat="46.04380569320525" lon="13.324624108190541"><ele>84.0</ele><time>2026-04-01T15:29:15.999Z</time></trkpt><trkpt lat="46.04374643285971" lon="13.32449959182112"><ele>84.0</ele><time>2026-04-01T15:29:16.999Z</time></trkpt><trkpt lat="46.043691328869336" lon="13.324376077077746"><ele>84.0</ele><time>2026-04-01T15:29:17.999Z</time></trkpt><trkpt lat="46.04364346774938" lon="13.324249370157519"><ele>84.0</ele><time>2026-04-01T15:29:18.999Z</time></trkpt><trkpt lat="46.043591033629134" lon="13.32411399386823"><ele>84.0</ele><time>2026-04-01T15:29:19.999Z</time></trkpt><trkpt lat="46.04357585624658" lon="13.323944188232103"><ele>84.0</ele><time>2026-04-01T15:29:20.999Z</time></trkpt><trkpt lat="46.04358094441744" lon="13.32376088946122"><ele>83.75</ele><time>2026-04-01T15:29:21.999Z</time></trkpt><trkpt lat="46.04357379613842" lon="13.323574880266868"><ele>83.5</ele><time>2026-04-01T15:29:22.999Z</time></trkpt><trkpt lat="46.04353530509782" lon="13.323394267495134"><ele>83.25</ele><time>2026-04-01T15:29:23.999Z</time></trkpt><trkpt lat="46.04346786423753" lon="13.323220005167666"><ele>83.0</ele><time>2026-04-01T15:29:24.999Z</time></trkpt><trkpt lat="46.04339756635152" lon="13.323026433555537"><ele>83.0</ele><time>2026-04-01T15:29:25.999Z</time></trkpt><trkpt lat="46.04330830063369" lon="13.322833333863784"><ele>83.0</ele><time>2026-04-01T15:29:26.999Z</time></trkpt><trkpt lat="46.04321171500102" lon="13.322660724886312"><ele>83.0</ele><time>2026-04-01T15:29:27.999Z</time></trkpt><trkpt lat="46.04313610840334" lon="13.322505322431223"><ele>83.0</ele><time>2026-04-01T15:29:28.999Z</time></trkpt><trkpt lat="46.0430783808086" lon="13.322342810685859"><ele>82.5</ele><time>2026-04-01T15:29:29.999Z</time></trkpt><trkpt lat="46.042994572416" lon="13.322196556843972"><ele>82.0</ele><time>2026-04-01T15:29:30.999Z</time></trkpt><trkpt lat="46.04292400430847" lon="13.32203210816853"><ele>81.5</ele><time>2026-04-01T15:29:31.999Z</time></trkpt><trkpt lat="46.04284256839626" lon="13.321874246843034"><ele>81.0</ele><time>2026-04-01T15:29:32.999Z</time></trkpt><trkpt lat="46.04277868522646" lon="13.321697892830292"><ele>81.0</ele><time>2026-04-01T15:29:33.999Z</time></trkpt><trkpt lat="46.042691122332826" lon="13.321540701080666"><ele>81.0</ele><time>2026-04-01T15:29:34.999Z</time></trkpt><trkpt lat="46.04263144115506" lon="13.321360537782565"><ele>81.0</ele><time>2026-04-01T15:29:35.999Z</time></trkpt><trkpt lat="46.042577169887736" lon="13.321178253309446"><ele>81.0</ele><time>2026-04-01T15:29:36.999Z</time></trkpt><trkpt lat="46.042536748842565" lon="13.320967494849546"><ele>81.5</ele><time>2026-04-01T15:29:37.999Z</time></trkpt><trkpt lat="46.04251527103618" lon="13.3207464199097"><ele>82.0</ele><time>2026-04-01T15:29:38.999Z</time></trkpt><trkpt lat="46.04249161845246" lon="13.320540984035626"><ele>82.5</ele><time>2026-04-01T15:29:39.999Z</time></trkpt><trkpt lat="46.042473989528425" lon="13.32034641646256"><ele>83.0</ele><time>2026-04-01T15:29:40.999Z</time></trkpt><trkpt lat="46.042457151288964" lon="13.320162842158515"><ele>83.2</ele><time>2026-04-01T15:29:41.999Z</time></trkpt><trkpt lat="46.04243727608881" lon="13.31999657921901"><ele>83.4</ele><time>2026-04-01T15:29:42.999Z</time></trkpt><trkpt lat="46.04241905548849" lon="13.319841712495126"><ele>83.60000000000001</ele><time>2026-04-01T15:29:43.999Z</time></trkpt><trkpt lat="46.0424217216092" lon="13.31968484728429"><ele>83.80000000000001</ele><time>2026-04-01T15:29:44.999Z</time></trkpt><trkpt lat="46.042461411553255" lon="13.319531137892316"><ele>84.0</ele><time>2026-04-01T15:29:45.999Z</time></trkpt><trkpt lat="46.04252170138394" lon="13.319400057034878"><ele>84.0</ele><time>2026-04-01T15:29:46.999Z</time></trkpt><trkpt lat="46.042601146928696" lon="13.319293836219543"><ele>84.0</ele><time>2026-04-01T15:29:47.999Z</time></trkpt><trkpt lat="46.04267317196294" lon="13.319174159518441"><ele>84.0</ele><time>2026-04-01T15:29:48.999Z</time></trkpt><trkpt lat="46.04274921581444" lon="13.319056869719295"><ele>84.0</ele><time>2026-04-01T15:29:49.999Z</time></trkpt><trkpt lat="46.042829277825" lon="13.318941948882076"><ele>84.0</ele><time>2026-04-01T15:29:50.999Z</time></trkpt><trkpt lat="46.04290850607855" lon="13.31880352624699"><ele>84.75</ele><time>2026-04-01T15:29:51.999Z</time></trkpt><trkpt lat="46.0429899462488" lon="13.31867155854464"><ele>85.5</ele><time>2026-04-01T15:29:52.999Z</time></trkpt><trkpt lat="46.04307202801287" lon="13.318554010987947"><ele>86.25</ele><time>2026-04-01T15:29:53.999Z</time></trkpt><trkpt lat="46.04315601242212" lon="13.318453336990064"><ele>87.0</ele><time>2026-04-01T15:29:54.999Z</time></trkpt><trkpt lat="46.04325157055046" lon="13.318373496399284"><ele>87.0</ele><time>2026-04-01T15:29:55.999Z</time></trkpt><trkpt lat="46.04335129599164" lon="13.318301819640853"><ele>87.0</ele><time>2026-04-01T15:29:56.999Z</time></trkpt><trkpt lat="46.043448264492135" lon="13.318219299019402"><ele>87.0</ele><time>2026-04-01T15:29:57.999Z</time></trkpt><trkpt lat="46.04353081358578" lon="13.318118073899502"><ele>87.0</ele><time>2026-04-01T15:29:58.999Z</time></trkpt><trkpt lat="46.043600687101346" lon="13.317996773568167"><ele>87.0</ele><time>2026-04-01T15:29:59.999Z</time></trkpt><trkpt lat="46.04365589517278" lon="13.317857973061948"><ele>87.0</ele><time>2026-04-01T15:30:01Z</time></trkpt><trkpt lat="46.04369980403263" lon="13.317698374431522"><ele>87.0</ele><time>2026-04-01T15:30:02Z</time></trkpt><trkpt lat="46.04374200513823" lon="13.317536086647356"><ele>87.0</ele><time>2026-04-01T15:30:03Z</time></trkpt><trkpt lat="46.04377904221526" lon="13.317370289878273"><ele>87.0</ele><time>2026-04-01T15:30:04Z</time></trkpt><trkpt lat="46.04381199633136" lon="13.317197433378468"><ele>87.0</ele><time>2026-04-01T15:30:05Z</time></trkpt><trkpt lat="46.04384620195214" lon="13.317026022281567"><ele>87.0</ele><time>2026-04-01T15:30:06Z</time></trkpt><trkpt lat="46.04388159989415" lon="13.316851122724255"><ele>87.0</ele><time>2026-04-01T15:30:07Z</time></trkpt><trkpt lat="46.04391647978495" lon="13.31667133378226"><ele>87.0</ele><time>2026-04-01T15:30:08Z</time></trkpt><trkpt lat="46.04395348289833" lon="13.316487989676975"><ele>87.25</ele><time>2026-04-01T15:30:09Z</time></trkpt><trkpt lat="46.043995097644554" lon="13.316298013454102"><ele>87.5</ele><time>2026-04-01T15:30:10Z</time></trkpt><trkpt lat="46.044037200120734" lon="13.316103959824169"><ele>87.75</ele><time>2026-04-01T15:30:11Z</time></trkpt><trkpt lat="46.04407906319292" lon="13.315907992015624"><ele>88.0</ele><time>2026-04-01T15:30:12Z</time></trkpt><trkpt lat="46.04412148551817" lon="13.315713021226466"><ele>87.75</ele><time>2026-04-01T15:30:13Z</time></trkpt><trkpt lat="46.04416079062232" lon="13.315525949111267"><ele>87.5</ele><time>2026-04-01T15:30:14Z</time></trkpt><trkpt lat="46.04419655139961" lon="13.315356945546968"><ele>87.25</ele><time>2026-04-01T15:30:15Z</time></trkpt><trkpt lat="46.04425040478276" lon="13.315218821372392"><ele>87.0</ele><time>2026-04-01T15:30:16Z</time></trkpt><trkpt lat="46.04429804627603" lon="13.315077696514203"><ele>87.0</ele><time>2026-04-01T15:30:17Z</time></trkpt><trkpt lat="46.04435658231424" lon="13.314928591118793"><ele>87.0</ele><time>2026-04-01T15:30:18Z</time></trkpt><trkpt lat="46.04441435003403" lon="13.31475852206479"><ele>87.0</ele><time>2026-04-01T15:30:19Z</time></trkpt><trkpt lat="46.04448246083539" lon="13.314598178387465"><ele>87.0</ele><time>2026-04-01T15:30:20Z</time></trkpt><trkpt lat="46.04454661004885" lon="13.31444164284743"><ele>87.0</ele><time>2026-04-01T15:30:21Z</time></trkpt><trkpt lat="46.04460333311562" lon="13.31427933117576"><ele>87.0</ele><time>2026-04-01T15:30:22Z</time></trkpt><trkpt lat="46.044657004199756" lon="13.31410726790384"><ele>87.0</ele><time>2026-04-01T15:30:23Z</time></trkpt><trkpt lat="46.0446920526778" lon="13.313932179783992"><ele>87.0</ele><time>2026-04-01T15:30:24Z</time></trkpt><trkpt lat="46.04470848900677" lon="13.313771126586003"><ele>87.0</ele><time>2026-04-01T15:30:25Z</time></trkpt><trkpt lat="46.044738294370624" lon="13.313624418215717"><ele>87.0</ele><time>2026-04-01T15:30:26Z</time></trkpt><trkpt lat="46.04476951655148" lon="13.313478473628662"><ele>87.0</ele><time>2026-04-01T15:30:27Z</time></trkpt><trkpt lat="46.044801415771516" lon="13.31333995000482"><ele>87.0</ele><time>2026-04-01T15:30:28Z</time></trkpt><trkpt lat="46.04481752529043" lon="13.313213061355336"><ele>87.0</ele><time>2026-04-01T15:30:29Z</time></trkpt><trkpt lat="46.04483007164048" lon="13.313083969477129"><ele>86.8</ele><time>2026-04-01T15:30:30Z</time></trkpt><trkpt lat="46.044827104052054" lon="13.312949713503839"><ele>86.6</ele><time>2026-04-01T15:30:31Z</time></trkpt><trkpt lat="46.04479996691692" lon="13.312811930408333"><ele>86.39999999999999</ele><time>2026-04-01T15:30:32Z</time></trkpt><trkpt lat="46.04477308328631" lon="13.312660323215223"><ele>86.19999999999999</ele><time>2026-04-01T15:30:33Z</time></trkpt><trkpt lat="46.044717986905994" lon="13.31252521596698"><ele>86.0</ele><time>2026-04-01T15:30:34Z</time></trkpt><trkpt lat="46.04465622347906" lon="13.312427377225193"><ele>86.0</ele><time>2026-04-01T15:30:35Z</time></trkpt><trkpt lat="46.044616238937266" lon="13.31232817146959"><ele>86.0</ele><time>2026-04-01T15:30:36Z</time></trkpt><trkpt lat="46.04457712739323" lon="13.312230415763887"><ele>86.0</ele><time>2026-04-01T15:30:37Z</time></trkpt><trkpt lat="46.0445567067824" lon="13.312136734555864"><ele>86.0</ele><time>2026-04-01T15:30:38Z</time></trkpt><trkpt lat="46.04454476039659" lon="13.311955318911378"><ele>86.0</ele><time>2026-04-01T15:30:40Z</time></trkpt><trkpt lat="46.0446404679368" lon="13.311869798113188"><ele>86.4</ele><time>2026-04-01T15:30:42Z</time></trkpt><trkpt lat="46.044716479814326" lon="13.31183376780435"><ele>86.8</ele><time>2026-04-01T15:30:44Z</time></trkpt><trkpt lat="46.044848388641775" lon="13.31185466689156"><ele>87.2</ele><time>2026-04-01T15:30:46Z</time></trkpt><trkpt lat="46.044948833859195" lon="13.311904832036"><ele>87.60000000000001</ele><time>2026-04-01T15:30:47Z</time></trkpt><trkpt lat="46.04505165646037" lon="13.311967816850233"><ele>88.0</ele><time>2026-04-01T15:30:48Z</time></trkpt><trkpt lat="46.04515602527455" lon="13.31202828095779"><ele>88.0</ele><time>2026-04-01T15:30:49Z</time></trkpt><trkpt lat="46.04528052439078" lon="13.312100733552047"><ele>88.0</ele><time>2026-04-01T15:30:50Z</time></trkpt><trkpt lat="46.04540926068985" lon="13.312168792937547"><ele>88.0</ele><time>2026-04-01T15:30:50.999Z</time></trkpt><trkpt lat="46.04554425052143" lon="13.312243875837053"><ele>88.0</ele><time>2026-04-01T15:30:51.999Z</time></trkpt><trkpt lat="46.04568321901778" lon="13.312324927666985"><ele>88.0</ele><time>2026-04-01T15:30:52.999Z</time></trkpt><trkpt lat="46.04583611587929" lon="13.312405886087321"><ele>88.0</ele><time>2026-04-01T15:30:53.999Z</time></trkpt><trkpt lat="46.046002096694295" lon="13.312479112007674"><ele>88.0</ele><time>2026-04-01T15:30:54.999Z</time></trkpt><trkpt lat="46.04616907214466" lon="13.312541719651357"><ele>88.0</ele><time>2026-04-01T15:30:55.999Z</time></trkpt><trkpt lat="46.046337579451844" lon="13.312600842623807"><ele>88.0</ele><time>2026-04-01T15:30:56.999Z</time></trkpt><trkpt lat="46.046505866926374" lon="13.312658657269742"><ele>88.0</ele><time>2026-04-01T15:30:57.999Z</time></trkpt><trkpt lat="46.046670737719104" lon="13.312716788855061"><ele>87.33333333333333</ele><time>2026-04-01T15:30:58.999Z</time></trkpt><trkpt lat="46.04683644170123" lon="13.312774935879878"><ele>86.66666666666667</ele><time>2026-04-01T15:30:59.999Z</time></trkpt><trkpt lat="46.04700026318438" lon="13.31282888079336"><ele>86.0</ele><time>2026-04-01T15:31:00.999Z</time></trkpt><trkpt lat="46.04716177416168" lon="13.31288351872344"><ele>86.0</ele><time>2026-04-01T15:31:01.999Z</time></trkpt><trkpt lat="46.04732148197346" lon="13.312941310407723"><ele>86.0</ele><time>2026-04-01T15:31:02.999Z</time></trkpt><trkpt lat="46.04747912518184" lon="13.31299708709132"><ele>86.0</ele><time>2026-04-01T15:31:03.999Z</time></trkpt><trkpt lat="46.04763731910553" lon="13.313048577603091"><ele>86.33333333333334</ele><time>2026-04-01T15:31:04.999Z</time></trkpt><trkpt lat="46.047794987812416" lon="13.313102817626135"><ele>86.66666666666667</ele><time>2026-04-01T15:31:05.999Z</time></trkpt><trkpt lat="46.04795186936623" lon="13.313154333514143"><ele>87.0</ele><time>2026-04-01T15:31:06.999Z</time></trkpt><trkpt lat="46.04810634170599" lon="13.31320607998425"><ele>87.0</ele><time>2026-04-01T15:31:07.999Z</time></trkpt><trkpt lat="46.04825899878945" lon="13.313256704974213"><ele>87.0</ele><time>2026-04-01T15:31:08.999Z</time></trkpt><trkpt lat="46.04840911390677" lon="13.31330998352116"><ele>87.0</ele><time>2026-04-01T15:31:09.999Z</time></trkpt><trkpt lat="46.048559226274726" lon="13.313360441885353"><ele>86.66666666666667</ele><time>2026-04-01T15:31:10.999Z</time></trkpt><trkpt lat="46.048710228412716" lon="13.313409930859292"><ele>86.33333333333334</ele><time>2026-04-01T15:31:11.999Z</time></trkpt><trkpt lat="46.04886548514581" lon="13.313461500041475"><ele>86.0</ele><time>2026-04-01T15:31:12.999Z</time></trkpt><trkpt lat="46.049021546688785" lon="13.31351376674266"><ele>86.33333333333334</ele><time>2026-04-01T15:31:13.999Z</time></trkpt><trkpt lat="46.04917748303328" lon="13.31356652847674"><ele>86.66666666666667</ele><time>2026-04-01T15:31:14.999Z</time></trkpt><trkpt lat="46.04933178353972" lon="13.313619876005962"><ele>87.0</ele><time>2026-04-01T15:31:15.999Z</time></trkpt><trkpt lat="46.04948074043703" lon="13.313670600114436"><ele>87.0</ele><time>2026-04-01T15:31:16.999Z</time></trkpt><trkpt lat="46.04962417651235" lon="13.313719618672042"><ele>87.0</ele><time>2026-04-01T15:31:17.999Z</time></trkpt><trkpt lat="46.04976533165515" lon="13.313763538020766"><ele>87.0</ele><time>2026-04-01T15:31:18.999Z</time></trkpt><trkpt lat="46.04990874063193" lon="13.313802742294325"><ele>87.0</ele><time>2026-04-01T15:31:19.999Z</time></trkpt><trkpt lat="46.0500597662063" lon="13.313839754328855"><ele>87.0</ele><time>2026-04-01T15:31:20.999Z</time></trkpt><trkpt lat="46.05020906126417" lon="13.31387220381901"><ele>87.0</ele><time>2026-04-01T15:31:21.999Z</time></trkpt><trkpt lat="46.050358878493434" lon="13.313896305546786"><ele>87.0</ele><time>2026-04-01T15:31:22.999Z</time></trkpt><trkpt lat="46.05050656425998" lon="13.313910988760425"><ele>87.0</ele><time>2026-04-01T15:31:23.999Z</time></trkpt><trkpt lat="46.05065367841179" lon="13.313920328940833"><ele>87.0</ele><time>2026-04-01T15:31:24.999Z</time></trkpt><trkpt lat="46.05080650209682" lon="13.313933226861591"><ele>87.0</ele><time>2026-04-01T15:31:25.999Z</time></trkpt><trkpt lat="46.05096871280601" lon="13.313941562801835"><ele>88.0</ele><time>2026-04-01T15:31:26.999Z</time></trkpt><trkpt lat="46.05113389039017" lon="13.313945063275225"><ele>89.0</ele><time>2026-04-01T15:31:27.999Z</time></trkpt><trkpt lat="46.05130338302921" lon="13.313950915663224"><ele>90.0</ele><time>2026-04-01T15:31:28.999Z</time></trkpt><trkpt lat="46.05147620542724" lon="13.313956015040437"><ele>89.66666666666667</ele><time>2026-04-01T15:31:29.999Z</time></trkpt><trkpt lat="46.05165142349528" lon="13.313968510943727"><ele>89.33333333333334</ele><time>2026-04-01T15:31:30.999Z</time></trkpt><trkpt lat="46.05182765416193" lon="13.313972515573168"><ele>89.0</ele><time>2026-04-01T15:31:31.999Z</time></trkpt><trkpt lat="46.0519952340322" lon="13.313980999807603"><ele>89.0</ele><time>2026-04-01T15:31:32.999Z</time></trkpt><trkpt lat="46.052153151366205" lon="13.313986452429843"><ele>89.0</ele><time>2026-04-01T15:31:33.999Z</time></trkpt><trkpt lat="46.05230085157543" lon="13.31399192114008"><ele>89.0</ele><time>2026-04-01T15:31:34.999Z</time></trkpt><trkpt lat="46.05243785675777" lon="13.313993580289216"><ele>89.0</ele><time>2026-04-01T15:31:35.999Z</time></trkpt><trkpt lat="46.052559088251435" lon="13.313996887376048"><ele>89.0</ele><time>2026-04-01T15:31:36.999Z</time></trkpt><trkpt lat="46.05267004596703" lon="13.31400294301943"><ele>89.0</ele><time>2026-04-01T15:31:37.999Z</time></trkpt><trkpt lat="46.05277270971397" lon="13.3140194882691"><ele>89.0</ele><time>2026-04-01T15:31:38.999Z</time></trkpt><trkpt lat="46.05287664829843" lon="13.314042172814142"><ele>89.0</ele><time>2026-04-01T15:31:39.999Z</time></trkpt><trkpt lat="46.052977347988474" lon="13.314070726419146"><ele>89.0</ele><time>2026-04-01T15:31:40.999Z</time></trkpt><trkpt lat="46.053078693179756" lon="13.314092430108305"><ele>89.0</ele><time>2026-04-01T15:31:41.999Z</time></trkpt><trkpt lat="46.05318072996176" lon="13.314148606789649"><ele>89.0</ele><time>2026-04-01T15:31:42.999Z</time></trkpt><trkpt lat="46.05327014643975" lon="13.31422302010959"><ele>89.0</ele><time>2026-04-01T15:31:43.999Z</time></trkpt><trkpt lat="46.0533839431964" lon="13.314187692058963"><ele>89.0</ele><time>2026-04-01T15:31:44.999Z</time></trkpt><trkpt lat="46.053479345401065" lon="13.314130687165884"><ele>89.0</ele><time>2026-04-01T15:31:45.999Z</time></trkpt><trkpt lat="46.05359693198806" lon="13.314084250202516"><ele>89.25</ele><time>2026-04-01T15:31:46.999Z</time></trkpt><trkpt lat="46.05370571079433" lon="13.314006052352793"><ele>89.5</ele><time>2026-04-01T15:31:47.999Z</time></trkpt><trkpt lat="46.053851198680555" lon="13.314054405396966"><ele>89.75</ele><time>2026-04-01T15:31:48.999Z</time></trkpt><trkpt lat="46.05399002706564" lon="13.314063781128736"><ele>90.0</ele><time>2026-04-01T15:31:49.999Z</time></trkpt><trkpt lat="46.05412985795248" lon="13.314066247242465"><ele>90.0</ele><time>2026-04-01T15:31:50.999Z</time></trkpt><trkpt lat="46.054280193600725" lon="13.314063365830307"><ele>90.0</ele><time>2026-04-01T15:31:51.999Z</time></trkpt><trkpt lat="46.054437170540155" lon="13.314068673929953"><ele>90.0</ele><time>2026-04-01T15:31:52.999Z</time></trkpt><trkpt lat="46.0545848731539" lon="13.314072920721323"><ele>90.0</ele><time>2026-04-01T15:31:53.999Z</time></trkpt><trkpt lat="46.05474075337677" lon="13.314074940049606"><ele>90.0</ele><time>2026-04-01T15:31:54.999Z</time></trkpt><trkpt lat="46.05491043287546" lon="13.314080109408794"><ele>90.0</ele><time>2026-04-01T15:31:55.999Z</time></trkpt><trkpt lat="46.055083055029506" lon="13.31407877213691"><ele>91.0</ele><time>2026-04-01T15:31:56.999Z</time></trkpt><trkpt lat="46.055265142041506" lon="13.314070970887729"><ele>92.0</ele><time>2026-04-01T15:31:57.999Z</time></trkpt><trkpt lat="46.05544851410926" lon="13.314057418035485"><ele>93.0</ele><time>2026-04-01T15:31:58.999Z</time></trkpt><trkpt lat="46.05563306515806" lon="13.314039747483719"><ele>93.0</ele><time>2026-04-01T15:31:59.999Z</time></trkpt><trkpt lat="46.055811407585715" lon="13.314018638787546"><ele>93.0</ele><time>2026-04-01T15:32:00.999Z</time></trkpt><trkpt lat="46.0559866689787" lon="13.313993869655494"><ele>93.0</ele><time>2026-04-01T15:32:01.999Z</time></trkpt><trkpt lat="46.05615712608778" lon="13.313963860759081"><ele>93.0</ele><time>2026-04-01T15:32:02.999Z</time></trkpt><trkpt lat="46.056325953081334" lon="13.313927484555345"><ele>93.0</ele><time>2026-04-01T15:32:03.999Z</time></trkpt><trkpt lat="46.05649945189435" lon="13.31389022797919"><ele>93.0</ele><time>2026-04-01T15:32:04.999Z</time></trkpt><trkpt lat="46.056677103472246" lon="13.313844488946362"><ele>93.0</ele><time>2026-04-01T15:32:05.999Z</time></trkpt><trkpt lat="46.05685911615674" lon="13.313789733528589"><ele>93.0</ele><time>2026-04-01T15:32:07Z</time></trkpt><trkpt lat="46.05704735350638" lon="13.313730626525306"><ele>93.0</ele><time>2026-04-01T15:32:08Z</time></trkpt><trkpt lat="46.05723082007811" lon="13.313672488584489"><ele>93.0</ele><time>2026-04-01T15:32:09Z</time></trkpt><trkpt lat="46.057410386033595" lon="13.31360965478103"><ele>93.0</ele><time>2026-04-01T15:32:10Z</time></trkpt><trkpt lat="46.05758779120392" lon="13.313535931778318"><ele>93.0</ele><time>2026-04-01T15:32:11Z</time></trkpt><trkpt lat="46.05776689462172" lon="13.313454985039103"><ele>93.0</ele><time>2026-04-01T15:32:12Z</time></trkpt><trkpt lat="46.057949117944304" lon="13.31337569263508"><ele>93.0</ele><time>2026-04-01T15:32:13Z</time></trkpt><trkpt lat="46.05813263086935" lon="13.313292272712822"><ele>93.0</ele><time>2026-04-01T15:32:14Z</time></trkpt><trkpt lat="46.058320692107976" lon="13.313191500290543"><ele>93.33333333333333</ele><time>2026-04-01T15:32:15Z</time></trkpt><trkpt lat="46.05849913881754" lon="13.31309102298769"><ele>93.66666666666666</ele><time>2026-04-01T15:32:16Z</time></trkpt><trkpt lat="46.05866790658639" lon="13.312990694371774"><ele>94.0</ele><time>2026-04-01T15:32:17Z</time></trkpt><trkpt lat="46.05883914332252" lon="13.312888155313386"><ele>94.0</ele><time>2026-04-01T15:32:18Z</time></trkpt><trkpt lat="46.05901492089523" lon="13.312775745671756"><ele>94.0</ele><time>2026-04-01T15:32:19Z</time></trkpt><trkpt lat="46.05919483046907" lon="13.3126536395349"><ele>94.0</ele><time>2026-04-01T15:32:20Z</time></trkpt><trkpt lat="46.05937140495059" lon="13.312531312402903"><ele>94.0</ele><time>2026-04-01T15:32:21Z</time></trkpt><trkpt lat="46.05954234145535" lon="13.312407987245944"><ele>94.0</ele><time>2026-04-01T15:32:22Z</time></trkpt><trkpt lat="46.059714861294715" lon="13.312282883395248"><ele>94.0</ele><time>2026-04-01T15:32:23Z</time></trkpt><trkpt lat="46.05988484281329" lon="13.312156436140137"><ele>94.33333333333333</ele><time>2026-04-01T15:32:24Z</time></trkpt><trkpt lat="46.060054899979995" lon="13.312029298315085"><ele>94.66666666666667</ele><time>2026-04-01T15:32:25Z</time></trkpt><trkpt lat="46.06023356262887" lon="13.311903152738322"><ele>95.0</ele><time>2026-04-01T15:32:26Z</time></trkpt><trkpt lat="46.06041553154457" lon="13.311772027966256"><ele>95.0</ele><time>2026-04-01T15:32:27Z</time></trkpt><trkpt lat="46.06059444888605" lon="13.31164385100213"><ele>95.0</ele><time>2026-04-01T15:32:28Z</time></trkpt><trkpt lat="46.06077542962655" lon="13.31151498954187"><ele>95.0</ele><time>2026-04-01T15:32:29Z</time></trkpt><trkpt lat="46.06095058052592" lon="13.311383718022341"><ele>95.66666666666667</ele><time>2026-04-01T15:32:30Z</time></trkpt><trkpt lat="46.06112068342211" lon="13.31125685508762"><ele>96.33333333333334</ele><time>2026-04-01T15:32:31Z</time></trkpt><trkpt lat="46.06128028664702" lon="13.311138793664457"><ele>97.0</ele><time>2026-04-01T15:32:32Z</time></trkpt><trkpt lat="46.06143971347801" lon="13.31102198819844"><ele>97.0</ele><time>2026-04-01T15:32:33Z</time></trkpt><trkpt lat="46.06159944233146" lon="13.310903735523125"><ele>97.0</ele><time>2026-04-01T15:32:34Z</time></trkpt><trkpt lat="46.06175735507301" lon="13.310787853341505"><ele>97.0</ele><time>2026-04-01T15:32:35Z</time></trkpt><trkpt lat="46.061911536554035" lon="13.310680315626499"><ele>97.66666666666667</ele><time>2026-04-01T15:32:36Z</time></trkpt><trkpt lat="46.06206459709561" lon="13.310572134707508"><ele>98.33333333333334</ele><time>2026-04-01T15:32:37Z</time></trkpt><trkpt lat="46.06221686579962" lon="13.310460399507967"><ele>99.0</ele><time>2026-04-01T15:32:38Z</time></trkpt><trkpt lat="46.06237144732004" lon="13.31034902307908"><ele>99.0</ele><time>2026-04-01T15:32:39Z</time></trkpt><trkpt lat="46.062527556117644" lon="13.3102395686558"><ele>99.0</ele><time>2026-04-01T15:32:40Z</time></trkpt><trkpt lat="46.0626865124067" lon="13.31012515130221"><ele>99.0</ele><time>2026-04-01T15:32:41Z</time></trkpt><trkpt lat="46.06284644902644" lon="13.310009186751026"><ele>99.0</ele><time>2026-04-01T15:32:42Z</time></trkpt><trkpt lat="46.06300531098398" lon="13.309890835866085"><ele>99.0</ele><time>2026-04-01T15:32:43Z</time></trkpt><trkpt lat="46.063164113659155" lon="13.309773674684628"><ele>99.0</ele><time>2026-04-01T15:32:44Z</time></trkpt><trkpt lat="46.0633231677129" lon="13.309655748158416"><ele>99.33333333333334</ele><time>2026-04-01T15:32:45Z</time></trkpt><trkpt lat="46.06348569288117" lon="13.309538510635493"><ele>99.66666666666667</ele><time>2026-04-01T15:32:46Z</time></trkpt><trkpt lat="46.06365157391825" lon="13.30941889859052"><ele>100.0</ele><time>2026-04-01T15:32:47Z</time></trkpt><trkpt lat="46.06381908077136" lon="13.309298599424265"><ele>100.0</ele><time>2026-04-01T15:32:48Z</time></trkpt><trkpt lat="46.06398607559365" lon="13.309177015137644"><ele>100.0</ele><time>2026-04-01T15:32:49Z</time></trkpt><trkpt lat="46.06415393248706" lon="13.309055720529573"><ele>100.0</ele><time>2026-04-01T15:32:50Z</time></trkpt><trkpt lat="46.06432108963387" lon="13.308933905092518"><ele>100.33333333333334</ele><time>2026-04-01T15:32:51Z</time></trkpt><trkpt lat="46.06448828129538" lon="13.30881604538204"><ele>100.66666666666666</ele><time>2026-04-01T15:32:51.999Z</time></trkpt><trkpt lat="46.06465024626646" lon="13.308693475831971"><ele>101.0</ele><time>2026-04-01T15:32:52.999Z</time></trkpt><trkpt lat="46.06481583172045" lon="13.308573269823318"><ele>100.66666666666666</ele><time>2026-04-01T15:32:53.999Z</time></trkpt><trkpt lat="46.06498536014124" lon="13.308463168269315"><ele>100.33333333333334</ele><time>2026-04-01T15:32:54.999Z</time></trkpt><trkpt lat="46.06516014146232" lon="13.308366931026539"><ele>100.0</ele><time>2026-04-01T15:32:55.999Z</time></trkpt><trkpt lat="46.06534363503795" lon="13.308290446689993"><ele>100.0</ele><time>2026-04-01T15:32:56.999Z</time></trkpt><trkpt lat="46.06552413395471" lon="13.308222518243431"><ele>100.0</ele><time>2026-04-01T15:32:57.999Z</time></trkpt><trkpt lat="46.06570786320612" lon="13.30816273383967"><ele>100.0</ele><time>2026-04-01T15:32:58.999Z</time></trkpt><trkpt lat="46.0658984150771" lon="13.308117952212337"><ele>100.33333333333334</ele><time>2026-04-01T15:32:59.999Z</time></trkpt><trkpt lat="46.06609046505477" lon="13.30808478991138"><ele>100.66666666666666</ele><time>2026-04-01T15:33:00.999Z</time></trkpt><trkpt lat="46.06628241634255" lon="13.308067112109935"><ele>101.0</ele><time>2026-04-01T15:33:01.999Z</time></trkpt><trkpt lat="46.066473573695475" lon="13.308063353070056"><ele>101.66666666666666</ele><time>2026-04-01T15:33:02.999Z</time></trkpt><trkpt lat="46.06666009561641" lon="13.308080397191786"><ele>102.33333333333334</ele><time>2026-04-01T15:33:03.999Z</time></trkpt><trkpt lat="46.06684265095921" lon="13.308112053892728"><ele>103.0</ele><time>2026-04-01T15:33:04.999Z</time></trkpt><trkpt lat="46.06701783353729" lon="13.308145895736399"><ele>103.0</ele><time>2026-04-01T15:33:05.999Z</time></trkpt><trkpt lat="46.06718234952211" lon="13.308185135841219"><ele>103.0</ele><time>2026-04-01T15:33:06.999Z</time></trkpt><trkpt lat="46.067342398652265" lon="13.308229719239181"><ele>103.0</ele><time>2026-04-01T15:33:07.999Z</time></trkpt><trkpt lat="46.067499096086465" lon="13.308274579520335"><ele>102.5</ele><time>2026-04-01T15:33:08.999Z</time></trkpt><trkpt lat="46.067654605265496" lon="13.30831826177769"><ele>102.0</ele><time>2026-04-01T15:33:09.999Z</time></trkpt><trkpt lat="46.06779605364619" lon="13.3083527011842"><ele>101.5</ele><time>2026-04-01T15:33:10.999Z</time></trkpt><trkpt lat="46.06792750420202" lon="13.308387643589288"><ele>101.0</ele><time>2026-04-01T15:33:11.999Z</time></trkpt><trkpt lat="46.06805672083187" lon="13.308423176861385"><ele>101.0</ele><time>2026-04-01T15:33:12.999Z</time></trkpt><trkpt lat="46.06818761438042" lon="13.308460780782566"><ele>101.0</ele><time>2026-04-01T15:33:13.999Z</time></trkpt><trkpt lat="46.06830652329951" lon="13.308493830591752"><ele>101.0</ele><time>2026-04-01T15:33:14.999Z</time></trkpt><trkpt lat="46.068419342424136" lon="13.308520771103021"><ele>101.0</ele><time>2026-04-01T15:33:15.999Z</time></trkpt><trkpt lat="46.06853325933512" lon="13.308550762207899"><ele>101.0</ele><time>2026-04-01T15:33:16.999Z</time></trkpt><trkpt lat="46.06865153199588" lon="13.308582985349274"><ele>101.0</ele><time>2026-04-01T15:33:17.999Z</time></trkpt><trkpt lat="46.06876967472666" lon="13.308613860786895"><ele>101.0</ele><time>2026-04-01T15:33:18.999Z</time></trkpt><trkpt lat="46.06886905062937" lon="13.308637564555058"><ele>101.0</ele><time>2026-04-01T15:33:19.999Z</time></trkpt><trkpt lat="46.068963263492854" lon="13.308662600063123"><ele>101.0</ele><time>2026-04-01T15:33:20.999Z</time></trkpt><trkpt lat="46.06905935476614" lon="13.308688885028026"><ele>100.99999999999999</ele><time>2026-04-01T15:33:21.999Z</time></trkpt><trkpt lat="46.06915068979828" lon="13.308713625307112"><ele>101.0</ele><time>2026-04-01T15:33:22.999Z</time></trkpt><trkpt lat="46.069230183684525" lon="13.308736976870343"><ele>101.0</ele><time>2026-04-01T15:33:23.999Z</time></trkpt><trkpt lat="46.069307114601564" lon="13.308760822945331"><ele>101.0</ele><time>2026-04-01T15:33:24.999Z</time></trkpt><trkpt lat="46.06938146675389" lon="13.308788388229202"><ele>100.99999999999999</ele><time>2026-04-01T15:33:25.999Z</time></trkpt><trkpt lat="46.06944629799396" lon="13.30881776817746"><ele>101.0</ele><time>2026-04-01T15:33:26.999Z</time></trkpt><trkpt lat="46.06956256516985" lon="13.308887540145784"><ele>100.99999999999999</ele><time>2026-04-01T15:33:28.999Z</time></trkpt><trkpt lat="46.06965517543846" lon="13.308957323555878"><ele>101.0</ele><time>2026-04-01T15:33:30.999Z</time></trkpt><trkpt lat="46.06974185685563" lon="13.309065088050009"><ele>101.0</ele><time>2026-04-01T15:33:32.999Z</time></trkpt><trkpt lat="46.06978567999546" lon="13.309134979175054"><ele>101.0</ele><time>2026-04-01T15:33:33.999Z</time></trkpt><trkpt lat="46.06984625881889" lon="13.309212063348165"><ele>100.99999999999999</ele><time>2026-04-01T15:33:35.999Z</time></trkpt><trkpt lat="46.06990826390333" lon="13.309249212007733"><ele>101.0</ele><time>2026-04-01T15:33:37.999Z</time></trkpt><trkpt lat="46.06999629873024" lon="13.309244407059145"><ele>101.16666666666666</ele><time>2026-04-01T15:33:39.999Z</time></trkpt><trkpt lat="46.07005261031005" lon="13.3092008766804"><ele>101.33333333333333</ele><time>2026-04-01T15:33:40.999Z</time></trkpt><trkpt lat="46.07009701448915" lon="13.309120402106176"><ele>101.5</ele><time>2026-04-01T15:33:41.999Z</time></trkpt><trkpt lat="46.07013879133538" lon="13.309049197294776"><ele>101.66666666666666</ele><time>2026-04-01T15:33:42.999Z</time></trkpt><trkpt lat="46.07010900682138" lon="13.308912128800484"><ele>101.83333333333333</ele><time>2026-04-01T15:33:43.999Z</time></trkpt><trkpt lat="46.070084861236026" lon="13.308799140819433"><ele>102.0</ele><time>2026-04-01T15:33:44.999Z</time></trkpt><trkpt lat="46.07009792727661" lon="13.308682353802515"><ele>102.0</ele><time>2026-04-01T15:33:45.999Z</time></trkpt><trkpt lat="46.07014504644482" lon="13.308577679728339"><ele>102.0</ele><time>2026-04-01T15:33:46.999Z</time></trkpt><trkpt lat="46.070208569093545" lon="13.30849199007406"><ele>102.0</ele><time>2026-04-01T15:33:47.999Z</time></trkpt><trkpt lat="46.07027477288085" lon="13.30842081207717"><ele>102.0</ele><time>2026-04-01T15:33:48.999Z</time></trkpt><trkpt lat="46.070336939167184" lon="13.30834206634532"><ele>102.0</ele><time>2026-04-01T15:33:49.999Z</time></trkpt><trkpt lat="46.07040185120772" lon="13.308253173680612"><ele>102.0</ele><time>2026-04-01T15:33:50.999Z</time></trkpt><trkpt lat="46.07048677010702" lon="13.308157369298884"><ele>102.0</ele><time>2026-04-01T15:33:51.999Z</time></trkpt><trkpt lat="46.07058859548262" lon="13.3080276171895"><ele>102.0</ele><time>2026-04-01T15:33:52.999Z</time></trkpt><trkpt lat="46.070710870051855" lon="13.307871791318151"><ele>102.0</ele><time>2026-04-01T15:33:53.999Z</time></trkpt><trkpt lat="46.07085017626969" lon="13.30770576417163"><ele>102.33333333333334</ele><time>2026-04-01T15:33:54.999Z</time></trkpt><trkpt lat="46.07101129971477" lon="13.307542026819133"><ele>102.66666666666667</ele><time>2026-04-01T15:33:55.999Z</time></trkpt><trkpt lat="46.071170623689895" lon="13.307346893399012"><ele>103.0</ele><time>2026-04-01T15:33:56.999Z</time></trkpt><trkpt lat="46.071342500026" lon="13.307136386364187"><ele>103.0</ele><time>2026-04-01T15:33:57.999Z</time></trkpt><trkpt lat="46.07152666431467" lon="13.30691082944297"><ele>103.0</ele><time>2026-04-01T15:33:58.999Z</time></trkpt><trkpt lat="46.07167601975952" lon="13.306676517807109"><ele>102.66666666666667</ele><time>2026-04-01T15:33:59.999Z</time></trkpt><trkpt lat="46.07183025003136" lon="13.306502579643906"><ele>102.33333333333334</ele><time>2026-04-01T15:34:00.999Z</time></trkpt><trkpt lat="46.07197979848303" lon="13.306348328271975"><ele>102.0</ele><time>2026-04-01T15:34:01.999Z</time></trkpt><trkpt lat="46.07211971619599" lon="13.306190272942667"><ele>102.0</ele><time>2026-04-01T15:34:02.999Z</time></trkpt><trkpt lat="46.072249385146044" lon="13.306032612815871"><ele>102.0</ele><time>2026-04-01T15:34:03.999Z</time></trkpt><trkpt lat="46.072374971608575" lon="13.305880294309212"><ele>102.0</ele><time>2026-04-01T15:34:04.999Z</time></trkpt><trkpt lat="46.07249121072156" lon="13.3057405325936"><ele>102.66666666666666</ele><time>2026-04-01T15:34:05.999Z</time></trkpt><trkpt lat="46.07261166348129" lon="13.305599334447697"><ele>103.33333333333333</ele><time>2026-04-01T15:34:06.999Z</time></trkpt><trkpt lat="46.0727357367172" lon="13.305452227010512"><ele>104.0</ele><time>2026-04-01T15:34:07.999Z</time></trkpt><trkpt lat="46.07286246986754" lon="13.305304797913829"><ele>104.0</ele><time>2026-04-01T15:34:08.999Z</time></trkpt><trkpt lat="46.07298672624207" lon="13.305162362865616"><ele>104.0</ele><time>2026-04-01T15:34:09.999Z</time></trkpt><trkpt lat="46.07310956381157" lon="13.30502266664464"><ele>104.0</ele><time>2026-04-01T15:34:10.999Z</time></trkpt><trkpt lat="46.07323689863944" lon="13.304874611293307"><ele>104.66666666666666</ele><time>2026-04-01T15:34:11.999Z</time></trkpt><trkpt lat="46.07336558040112" lon="13.304719142446544"><ele>105.33333333333334</ele><time>2026-04-01T15:34:13Z</time></trkpt><trkpt lat="46.073498522884684" lon="13.304559514922326"><ele>106.0</ele><time>2026-04-01T15:34:14Z</time></trkpt><trkpt lat="46.07363571942587" lon="13.304402154478764"><ele>106.0</ele><time>2026-04-01T15:34:15Z</time></trkpt><trkpt lat="46.07376745360399" lon="13.304245554831374"><ele>106.0</ele><time>2026-04-01T15:34:16Z</time></trkpt><trkpt lat="46.073900854562794" lon="13.304085096240991"><ele>106.0</ele><time>2026-04-01T15:34:17Z</time></trkpt><trkpt lat="46.07403788459419" lon="13.303927311364514"><ele>106.0</ele><time>2026-04-01T15:34:18Z</time></trkpt><trkpt lat="46.07417244867312" lon="13.303767907406929"><ele>106.0</ele><time>2026-04-01T15:34:19Z</time></trkpt><trkpt lat="46.07430698692678" lon="13.303610068173903"><ele>106.0</ele><time>2026-04-01T15:34:20Z</time></trkpt><trkpt lat="46.07444149858009" lon="13.303453353184805"><ele>106.0</ele><time>2026-04-01T15:34:21Z</time></trkpt><trkpt lat="46.07457424509626" lon="13.303301769892947"><ele>106.0</ele><time>2026-04-01T15:34:22Z</time></trkpt><trkpt lat="46.07470563134962" lon="13.303155286811583"><ele>106.0</ele><time>2026-04-01T15:34:23Z</time></trkpt><trkpt lat="46.074831549657645" lon="13.303009229610502"><ele>106.0</ele><time>2026-04-01T15:34:24Z</time></trkpt><trkpt lat="46.074952750724556" lon="13.302865672277212"><ele>106.0</ele><time>2026-04-01T15:34:25Z</time></trkpt><trkpt lat="46.075073676411755" lon="13.302720929704726"><ele>106.0</ele><time>2026-04-01T15:34:26Z</time></trkpt><trkpt lat="46.07519727113655" lon="13.302575740951317"><ele>106.0</ele><time>2026-04-01T15:34:27Z</time></trkpt><trkpt lat="46.07532192832009" lon="13.302431708336805"><ele>106.0</ele><time>2026-04-01T15:34:28Z</time></trkpt><trkpt lat="46.07544874589995" lon="13.30228475987504"><ele>106.0</ele><time>2026-04-01T15:34:29Z</time></trkpt><trkpt lat="46.075576557123945" lon="13.30213247081239"><ele>106.33333333333334</ele><time>2026-04-01T15:34:30Z</time></trkpt><trkpt lat="46.0757075714121" lon="13.301983052517842"><ele>106.66666666666666</ele><time>2026-04-01T15:34:31Z</time></trkpt><trkpt lat="46.075839173301844" lon="13.301831452031937"><ele>107.0</ele><time>2026-04-01T15:34:32Z</time></trkpt><trkpt lat="46.075972057721856" lon="13.301674761494949"><ele>107.0</ele><time>2026-04-01T15:34:33Z</time></trkpt><trkpt lat="46.0761071475529" lon="13.30151846868187"><ele>107.0</ele><time>2026-04-01T15:34:34Z</time></trkpt><trkpt lat="46.076242924975766" lon="13.301362207603301"><ele>107.0</ele><time>2026-04-01T15:34:35Z</time></trkpt><trkpt lat="46.07637756365129" lon="13.301208530336043"><ele>107.33333333333333</ele><time>2026-04-01T15:34:36Z</time></trkpt><trkpt lat="46.07651010371956" lon="13.301050510518316"><ele>107.66666666666666</ele><time>2026-04-01T15:34:37Z</time></trkpt><trkpt lat="46.076643017345475" lon="13.300894565872698"><ele>108.0</ele><time>2026-04-01T15:34:38Z</time></trkpt><trkpt lat="46.07677653115637" lon="13.300739096790519"><ele>108.0</ele><time>2026-04-01T15:34:39Z</time></trkpt><trkpt lat="46.076906131958104" lon="13.300586830681318"><ele>108.0</ele><time>2026-04-01T15:34:40Z</time></trkpt><trkpt lat="46.07703160231899" lon="13.300434929227908"><ele>108.0</ele><time>2026-04-01T15:34:41Z</time></trkpt><trkpt lat="46.07715296914482" lon="13.300288079400598"><ele>108.0</ele><time>2026-04-01T15:34:42Z</time></trkpt><trkpt lat="46.077267263597406" lon="13.300152596740867"><ele>108.0</ele><time>2026-04-01T15:34:43Z</time></trkpt><trkpt lat="46.07737865947173" lon="13.300023892951822"><ele>108.0</ele><time>2026-04-01T15:34:44Z</time></trkpt><trkpt lat="46.07749122361931" lon="13.2998898919407"><ele>108.0</ele><time>2026-04-01T15:34:45Z</time></trkpt><trkpt lat="46.07759461815038" lon="13.299759534831036"><ele>107.60000000000001</ele><time>2026-04-01T15:34:46Z</time></trkpt><trkpt lat="46.077687408213556" lon="13.299640990438858"><ele>107.20000000000002</ele><time>2026-04-01T15:34:47Z</time></trkpt><trkpt lat="46.07777055910197" lon="13.299534742480365"><ele>106.8</ele><time>2026-04-01T15:34:48Z</time></trkpt><trkpt lat="46.077844914294346" lon="13.299435400697377"><ele>106.4</ele><time>2026-04-01T15:34:49Z</time></trkpt><trkpt lat="46.077916454266976" lon="13.299348964551987"><ele>106.0</ele><time>2026-04-01T15:34:50Z</time></trkpt><trkpt lat="46.077992625416755" lon="13.299274767039698"><ele>106.0</ele><time>2026-04-01T15:34:51Z</time></trkpt><trkpt lat="46.07806608102938" lon="13.299212950485265"><ele>106.0</ele><time>2026-04-01T15:34:52Z</time></trkpt><trkpt lat="46.078130974544905" lon="13.299144543205722"><ele>106.0</ele><time>2026-04-01T15:34:53Z</time></trkpt><trkpt lat="46.07818563966633" lon="13.299039978049251"><ele>106.0</ele><time>2026-04-01T15:34:54Z</time></trkpt><trkpt lat="46.07819655193788" lon="13.298892356581865"><ele>106.0</ele><time>2026-04-01T15:34:55Z</time></trkpt><trkpt lat="46.0781812114033" lon="13.298728477635036"><ele>106.19999999999999</ele><time>2026-04-01T15:34:56Z</time></trkpt><trkpt lat="46.078166537919046" lon="13.29855030545634"><ele>106.39999999999999</ele><time>2026-04-01T15:34:56.999Z</time></trkpt><trkpt lat="46.078175230206476" lon="13.298390642687336"><ele>106.6</ele><time>2026-04-01T15:34:57.999Z</time></trkpt><trkpt lat="46.078180304935046" lon="13.29826211292441"><ele>106.8</ele><time>2026-04-01T15:34:58.999Z</time></trkpt><trkpt lat="46.07822074964269" lon="13.298118798861605"><ele>107.0</ele><time>2026-04-01T15:35:00.999Z</time></trkpt><trkpt lat="46.078314110691586" lon="13.29801516389384"><ele>107.0</ele><time>2026-04-01T15:35:02.999Z</time></trkpt><trkpt lat="46.078379513621975" lon="13.29792911876422"><ele>106.99999999999999</ele><time>2026-04-01T15:35:03.999Z</time></trkpt><trkpt lat="46.07843739351412" lon="13.297809780049308"><ele>106.99999999999999</ele><time>2026-04-01T15:35:04.999Z</time></trkpt><trkpt lat="46.07845773035243" lon="13.297671555347192"><ele>107.0</ele><time>2026-04-01T15:35:05.999Z</time></trkpt><trkpt lat="46.07846171678023" lon="13.297519883248912"><ele>107.0</ele><time>2026-04-01T15:35:06.999Z</time></trkpt><trkpt lat="46.078493181416796" lon="13.29737545302294"><ele>107.5</ele><time>2026-04-01T15:35:07.999Z</time></trkpt><trkpt lat="46.078539160915874" lon="13.297231718022838"><ele>108.0</ele><time>2026-04-01T15:35:08.999Z</time></trkpt><trkpt lat="46.07865857946937" lon="13.297155775337696"><ele>108.5</ele><time>2026-04-01T15:35:09.999Z</time></trkpt><trkpt lat="46.07876400714978" lon="13.297095827295491"><ele>109.0</ele><time>2026-04-01T15:35:10.999Z</time></trkpt><trkpt lat="46.0788873365362" lon="13.297044455801338"><ele>109.0</ele><time>2026-04-01T15:35:11.999Z</time></trkpt><trkpt lat="46.07901591514339" lon="13.296990387939996"><ele>109.0</ele><time>2026-04-01T15:35:12.999Z</time></trkpt><trkpt lat="46.07915626724817" lon="13.296932510339738"><ele>109.0</ele><time>2026-04-01T15:35:13.999Z</time></trkpt><trkpt lat="46.07931643104422" lon="13.29686545032331"><ele>109.0</ele><time>2026-04-01T15:35:14.999Z</time></trkpt><trkpt lat="46.07948915529622" lon="13.296795119006953"><ele>109.0</ele><time>2026-04-01T15:35:15.999Z</time></trkpt><trkpt lat="46.07966021043231" lon="13.29672501256155"><ele>109.0</ele><time>2026-04-01T15:35:16.999Z</time></trkpt><trkpt lat="46.07983637434487" lon="13.296650936536494"><ele>109.0</ele><time>2026-04-01T15:35:17.999Z</time></trkpt><trkpt lat="46.080026123345135" lon="13.29657342432817"><ele>109.66666666666667</ele><time>2026-04-01T15:35:18.999Z</time></trkpt><trkpt lat="46.08022419600335" lon="13.296492744311346"><ele>110.33333333333334</ele><time>2026-04-01T15:35:19.999Z</time></trkpt><trkpt lat="46.08042813576898" lon="13.29640880080728"><ele>111.0</ele><time>2026-04-01T15:35:20.999Z</time></trkpt><trkpt lat="46.08063665197082" lon="13.296320656756173"><ele>111.33333333333334</ele><time>2026-04-01T15:35:21.999Z</time></trkpt><trkpt lat="46.08083675512011" lon="13.296236580677606"><ele>111.66666666666667</ele><time>2026-04-01T15:35:22.999Z</time></trkpt><trkpt lat="46.081037763390405" lon="13.296153683458906"><ele>112.0</ele><time>2026-04-01T15:35:23.999Z</time></trkpt><trkpt lat="46.08123858914396" lon="13.296072489948196"><ele>112.0</ele><time>2026-04-01T15:35:24.999Z</time></trkpt><trkpt lat="46.08143932253373" lon="13.29599128097774"><ele>112.0</ele><time>2026-04-01T15:35:25.999Z</time></trkpt><trkpt lat="46.08164620817937" lon="13.295905809856727"><ele>112.0</ele><time>2026-04-01T15:35:26.999Z</time></trkpt><trkpt lat="46.08185672637842" lon="13.295815953239234"><ele>112.0</ele><time>2026-04-01T15:35:27.999Z</time></trkpt><trkpt lat="46.082070841454495" lon="13.29572698504687"><ele>112.0</ele><time>2026-04-01T15:35:28.999Z</time></trkpt><trkpt lat="46.08228011108176" lon="13.295640315435982"><ele>112.0</ele><time>2026-04-01T15:35:29.999Z</time></trkpt><trkpt lat="46.0824795259426" lon="13.295556756955053"><ele>112.0</ele><time>2026-04-01T15:35:30.999Z</time></trkpt><trkpt lat="46.08266932928286" lon="13.295478455216957"><ele>112.0</ele><time>2026-04-01T15:35:31.999Z</time></trkpt><trkpt lat="46.08285607840189" lon="13.295403038577696"><ele>112.0</ele><time>2026-04-01T15:35:32.999Z</time></trkpt><trkpt lat="46.08304166360249" lon="13.295329684254872"><ele>112.0</ele><time>2026-04-01T15:35:33.999Z</time></trkpt><trkpt lat="46.08322701641219" lon="13.295251426962407"><ele>112.0</ele><time>2026-04-01T15:35:34.999Z</time></trkpt><trkpt lat="46.08341103696098" lon="13.295173973227753"><ele>112.0</ele><time>2026-04-01T15:35:35.999Z</time></trkpt><trkpt lat="46.083592564787985" lon="13.295094526704318"><ele>112.0</ele><time>2026-04-01T15:35:36.999Z</time></trkpt><trkpt lat="46.083772985508105" lon="13.295023829116648"><ele>112.0</ele><time>2026-04-01T15:35:37.999Z</time></trkpt><trkpt lat="46.08395062161873" lon="13.294953344346819"><ele>112.0</ele><time>2026-04-01T15:35:38.999Z</time></trkpt><trkpt lat="46.08412169383284" lon="13.294881914647323"><ele>112.0</ele><time>2026-04-01T15:35:39.999Z</time></trkpt><trkpt lat="46.0842903589144" lon="13.29481385694039"><ele>112.0</ele><time>2026-04-01T15:35:40.999Z</time></trkpt><trkpt lat="46.0844591932219" lon="13.29474635236186"><ele>112.0</ele><time>2026-04-01T15:35:41.999Z</time></trkpt><trkpt lat="46.084624389635586" lon="13.294678828215025"><ele>112.25</ele><time>2026-04-01T15:35:42.999Z</time></trkpt><trkpt lat="46.08477126092021" lon="13.294617761351718"><ele>112.5</ele><time>2026-04-01T15:35:43.999Z</time></trkpt><trkpt lat="46.08490532980693" lon="13.294563018376898"><ele>112.75</ele><time>2026-04-01T15:35:44.999Z</time></trkpt><trkpt lat="46.08503020364639" lon="13.294506901230266"><ele>113.0</ele><time>2026-04-01T15:35:45.999Z</time></trkpt><trkpt lat="46.085144668275596" lon="13.294457698638729"><ele>113.0</ele><time>2026-04-01T15:35:46.999Z</time></trkpt><trkpt lat="46.08525068063429" lon="13.294417068295132"><ele>113.00000000000001</ele><time>2026-04-01T15:35:47.999Z</time></trkpt><trkpt lat="46.08535587290399" lon="13.29437467684339"><ele>113.00000000000001</ele><time>2026-04-01T15:35:48.999Z</time></trkpt><trkpt lat="46.08545925459003" lon="13.294333421172988"><ele>113.0</ele><time>2026-04-01T15:35:49.999Z</time></trkpt><trkpt lat="46.085550311394336" lon="13.294296835313386"><ele>113.0</ele><time>2026-04-01T15:35:50.999Z</time></trkpt><trkpt lat="46.08563698913043" lon="13.294261041769024"><ele>113.0</ele><time>2026-04-01T15:35:51.999Z</time></trkpt><trkpt lat="46.08572838565834" lon="13.2942211797368"><ele>113.00000000000001</ele><time>2026-04-01T15:35:52.999Z</time></trkpt><trkpt lat="46.085824257011545" lon="13.29418095619251"><ele>113.00000000000001</ele><time>2026-04-01T15:35:53.999Z</time></trkpt><trkpt lat="46.08592409876516" lon="13.294141694775561"><ele>113.0</ele><time>2026-04-01T15:35:54.999Z</time></trkpt><trkpt lat="46.08603698560645" lon="13.294097081943002"><ele>113.0</ele><time>2026-04-01T15:35:55.999Z</time></trkpt><trkpt lat="46.08615657088358" lon="13.29404563909457"><ele>113.25</ele><time>2026-04-01T15:35:56.999Z</time></trkpt><trkpt lat="46.08628514703472" lon="13.294000906488673"><ele>113.5</ele><time>2026-04-01T15:35:57.999Z</time></trkpt><trkpt lat="46.08642077531397" lon="13.293942894113012"><ele>113.75</ele><time>2026-04-01T15:35:58.999Z</time></trkpt><trkpt lat="46.08657388742293" lon="13.293875600177808"><ele>114.0</ele><time>2026-04-01T15:35:59.999Z</time></trkpt><trkpt lat="46.08674423689921" lon="13.293806949096306"><ele>114.0</ele><time>2026-04-01T15:36:00.999Z</time></trkpt><trkpt lat="46.086922646778206" lon="13.293732306879576"><ele>114.0</ele><time>2026-04-01T15:36:01.999Z</time></trkpt><trkpt lat="46.087108669214274" lon="13.293652402902552"><ele>114.0</ele><time>2026-04-01T15:36:02.999Z</time></trkpt><trkpt lat="46.087297606707864" lon="13.293573146094456"><ele>114.0</ele><time>2026-04-01T15:36:03.999Z</time></trkpt><trkpt lat="46.08749412581942" lon="13.293494616870065"><ele>114.0</ele><time>2026-04-01T15:36:04.999Z</time></trkpt><trkpt lat="46.08769577199772" lon="13.293415024355566"><ele>114.0</ele><time>2026-04-01T15:36:05.999Z</time></trkpt><trkpt lat="46.087904353966245" lon="13.293329767985066"><ele>114.0</ele><time>2026-04-01T15:36:06.999Z</time></trkpt><trkpt lat="46.088118335749364" lon="13.293240838729172"><ele>114.0</ele><time>2026-04-01T15:36:07.999Z</time></trkpt><trkpt lat="46.08833697035159" lon="13.293151375986204"><ele>114.0</ele><time>2026-04-01T15:36:08.999Z</time></trkpt><trkpt lat="46.08855166143944" lon="13.293065024372446"><ele>114.0</ele><time>2026-04-01T15:36:09.999Z</time></trkpt><trkpt lat="46.08875778289588" lon="13.292977402788667"><ele>114.0</ele><time>2026-04-01T15:36:10.999Z</time></trkpt><trkpt lat="46.088958646189894" lon="13.292892962306912"><ele>114.33333333333334</ele><time>2026-04-01T15:36:11.999Z</time></trkpt><trkpt lat="46.089155666861416" lon="13.29281420808214"><ele>114.66666666666667</ele><time>2026-04-01T15:36:12.999Z</time></trkpt><trkpt lat="46.08934785039729" lon="13.292740159787607"><ele>115.0</ele><time>2026-04-01T15:36:13.999Z</time></trkpt><trkpt lat="46.08953345138144" lon="13.292662497204716"><ele>115.0</ele><time>2026-04-01T15:36:14.999Z</time></trkpt><trkpt lat="46.08971798865524" lon="13.292585510242155"><ele>115.0</ele><time>2026-04-01T15:36:15.999Z</time></trkpt><trkpt lat="46.08990478217254" lon="13.292509554851586"><ele>115.0</ele><time>2026-04-01T15:36:16.999Z</time></trkpt><trkpt lat="46.09008914195977" lon="13.292431934868619"><ele>115.33333333333334</ele><time>2026-04-01T15:36:17.999Z</time></trkpt><trkpt lat="46.0902708493113" lon="13.29235632495536"><ele>115.66666666666666</ele><time>2026-04-01T15:36:19Z</time></trkpt><trkpt lat="46.09045032460438" lon="13.292279978494172"><ele>116.0</ele><time>2026-04-01T15:36:20Z</time></trkpt><trkpt lat="46.09063314924445" lon="13.292209153281927"><ele>116.0</ele><time>2026-04-01T15:36:21Z</time></trkpt><trkpt lat="46.09081256841771" lon="13.29213728987165"><ele>116.0</ele><time>2026-04-01T15:36:22Z</time></trkpt><trkpt lat="46.090991628226405" lon="13.29206637636508"><ele>116.0</ele><time>2026-04-01T15:36:23Z</time></trkpt><trkpt lat="46.091176507851586" lon="13.291986971171006"><ele>116.0</ele><time>2026-04-01T15:36:24Z</time></trkpt><trkpt lat="46.09136966114776" lon="13.291901090506448"><ele>116.0</ele><time>2026-04-01T15:36:25Z</time></trkpt><trkpt lat="46.09157255767198" lon="13.291813018823174"><ele>116.0</ele><time>2026-04-01T15:36:26Z</time></trkpt><trkpt lat="46.09177691284512" lon="13.291719515741306"><ele>115.66666666666666</ele><time>2026-04-01T15:36:27Z</time></trkpt><trkpt lat="46.091972504527334" lon="13.291620201591527"><ele>115.33333333333334</ele><time>2026-04-01T15:36:28Z</time></trkpt><trkpt lat="46.09216064274133" lon="13.291517107253007"><ele>115.0</ele><time>2026-04-01T15:36:29Z</time></trkpt><trkpt lat="46.092346919603465" lon="13.291417790695998"><ele>115.0</ele><time>2026-04-01T15:36:30Z</time></trkpt><trkpt lat="46.09252761644946" lon="13.291321274295836"><ele>115.0</ele><time>2026-04-01T15:36:31Z</time></trkpt><trkpt lat="46.09270046154558" lon="13.291228545806364"><ele>115.0</ele><time>2026-04-01T15:36:32Z</time></trkpt><trkpt lat="46.09286758869708" lon="13.291140331603492"><ele>115.0</ele><time>2026-04-01T15:36:33Z</time></trkpt><trkpt lat="46.09303085762987" lon="13.29105296321151"><ele>115.0</ele><time>2026-04-01T15:36:34Z</time></trkpt><trkpt lat="46.09319401259784" lon="13.290966858880289"><ele>115.0</ele><time>2026-04-01T15:36:35Z</time></trkpt><trkpt lat="46.093354932721255" lon="13.29088061118445"><ele>115.66666666666667</ele><time>2026-04-01T15:36:36Z</time></trkpt><trkpt lat="46.09352033989887" lon="13.290791836470873"><ele>116.33333333333334</ele><time>2026-04-01T15:36:37Z</time></trkpt><trkpt lat="46.09368665312949" lon="13.29070462882109"><ele>117.0</ele><time>2026-04-01T15:36:38Z</time></trkpt><trkpt lat="46.09385265467966" lon="13.290616599713271"><ele>117.0</ele><time>2026-04-01T15:36:39Z</time></trkpt><trkpt lat="46.09401686100911" lon="13.290526936085909"><ele>117.0</ele><time>2026-04-01T15:36:40Z</time></trkpt><trkpt lat="46.09417910939046" lon="13.290440576727313"><ele>117.0</ele><time>2026-04-01T15:36:41Z</time></trkpt><trkpt lat="46.094338425724125" lon="13.290353913864099"><ele>117.0</ele><time>2026-04-01T15:36:42Z</time></trkpt><trkpt lat="46.09449151162578" lon="13.290272082601875"><ele>117.0</ele><time>2026-04-01T15:36:43Z</time></trkpt><trkpt lat="46.09463130486429" lon="13.290199902200731"><ele>117.0</ele><time>2026-04-01T15:36:44Z</time></trkpt><trkpt lat="46.09475920707051" lon="13.290130877222206"><ele>117.0</ele><time>2026-04-01T15:36:45Z</time></trkpt><trkpt lat="46.094878132065126" lon="13.29006548023758"><ele>117.25</ele><time>2026-04-01T15:36:46Z</time></trkpt><trkpt lat="46.09499425772992" lon="13.290006122975418"><ele>117.5</ele><time>2026-04-01T15:36:47Z</time></trkpt><trkpt lat="46.095098258392284" lon="13.289951420030174"><ele>117.75</ele><time>2026-04-01T15:36:48Z</time></trkpt><trkpt lat="46.09520366755436" lon="13.289901206918797"><ele>118.0</ele><time>2026-04-01T15:36:49Z</time></trkpt><trkpt lat="46.095313839989515" lon="13.28986940696187"><ele>118.0</ele><time>2026-04-01T15:36:50Z</time></trkpt><trkpt lat="46.09542642350202" lon="13.289861073205984"><ele>118.00000000000001</ele><time>2026-04-01T15:36:51Z</time></trkpt><trkpt lat="46.09553509871902" lon="13.289870352757973"><ele>118.00000000000001</ele><time>2026-04-01T15:36:52Z</time></trkpt><trkpt lat="46.09564002818504" lon="13.289865482205915"><ele>118.0</ele><time>2026-04-01T15:36:53Z</time></trkpt><trkpt lat="46.09574251144926" lon="13.289785104117023"><ele>118.0</ele><time>2026-04-01T15:36:54Z</time></trkpt><trkpt lat="46.09584018048177" lon="13.289656205578568"><ele>118.75</ele><time>2026-04-01T15:36:55Z</time></trkpt><trkpt lat="46.095944647250775" lon="13.289532642710821"><ele>119.5</ele><time>2026-04-01T15:36:56Z</time></trkpt><trkpt lat="46.09606485672466" lon="13.2894574369799"><ele>120.25</ele><time>2026-04-01T15:36:57Z</time></trkpt><trkpt lat="46.09618721791064" lon="13.289388012219266"><ele>121.0</ele><time>2026-04-01T15:36:58Z</time></trkpt><trkpt lat="46.09631180492045" lon="13.289319987970071"><ele>121.0</ele><time>2026-04-01T15:36:58.999Z</time></trkpt><trkpt lat="46.09644397263281" lon="13.289246524525714"><ele>121.0</ele><time>2026-04-01T15:36:59.999Z</time></trkpt><trkpt lat="46.09658655798341" lon="13.289170968749781"><ele>121.0</ele><time>2026-04-01T15:37:00.999Z</time></trkpt><trkpt lat="46.0967350706501" lon="13.28909405245314"><ele>121.0</ele><time>2026-04-01T15:37:01.999Z</time></trkpt><trkpt lat="46.09688100081313" lon="13.289017086995578"><ele>121.0</ele><time>2026-04-01T15:37:02.999Z</time></trkpt><trkpt lat="46.09702535201435" lon="13.288936929960053"><ele>121.0</ele><time>2026-04-01T15:37:03.999Z</time></trkpt><trkpt lat="46.09717511242827" lon="13.288858594458052"><ele>120.66666666666667</ele><time>2026-04-01T15:37:04.999Z</time></trkpt><trkpt lat="46.09733401864828" lon="13.28877601585258"><ele>120.33333333333334</ele><time>2026-04-01T15:37:05.999Z</time></trkpt><trkpt lat="46.09749654165635" lon="13.288685592469033"><ele>120.0</ele><time>2026-04-01T15:37:06.999Z</time></trkpt><trkpt lat="46.097649021780555" lon="13.288588649644261"><ele>120.0</ele><time>2026-04-01T15:37:07.999Z</time></trkpt><trkpt lat="46.09779605242707" lon="13.288492474325668"><ele>120.0</ele><time>2026-04-01T15:37:08.999Z</time></trkpt><trkpt lat="46.09794468293231" lon="13.28839266906555"><ele>120.0</ele><time>2026-04-01T15:37:09.999Z</time></trkpt><trkpt lat="46.0980893491262" lon="13.288279447339361"><ele>120.0</ele><time>2026-04-01T15:37:10.999Z</time></trkpt><trkpt lat="46.09821791179802" lon="13.288160109553836"><ele>120.0</ele><time>2026-04-01T15:37:11.999Z</time></trkpt><trkpt lat="46.09833110431888" lon="13.28804685383642"><ele>120.0</ele><time>2026-04-01T15:37:12.999Z</time></trkpt><trkpt lat="46.098432757582856" lon="13.287952164198087"><ele>120.0</ele><time>2026-04-01T15:37:13.999Z</time></trkpt><trkpt lat="46.098529663202356" lon="13.287882970785143"><ele>120.0</ele><time>2026-04-01T15:37:14.999Z</time></trkpt><trkpt lat="46.09861195922776" lon="13.28779441005765"><ele>120.0</ele><time>2026-04-01T15:37:15.999Z</time></trkpt><trkpt lat="46.09875949708796" lon="13.28784731976764"><ele>120.0</ele><time>2026-04-01T15:37:16.999Z</time></trkpt><trkpt lat="46.09888364680981" lon="13.287858885758169"><ele>120.0</ele><time>2026-04-01T15:37:17.999Z</time></trkpt><trkpt lat="46.099022499215145" lon="13.287814218865211"><ele>120.0</ele><time>2026-04-01T15:37:18.999Z</time></trkpt><trkpt lat="46.099173949732496" lon="13.287740196770532"><ele>120.0</ele><time>2026-04-01T15:37:19.999Z</time></trkpt><trkpt lat="46.09934009183474" lon="13.287653587980078"><ele>120.0</ele><time>2026-04-01T15:37:20.999Z</time></trkpt><trkpt lat="46.0995218451561" lon="13.287549792775726"><ele>120.0</ele><time>2026-04-01T15:37:21.999Z</time></trkpt><trkpt lat="46.09971786140707" lon="13.287436831026083"><ele>120.0</ele><time>2026-04-01T15:37:22.999Z</time></trkpt><trkpt lat="46.09993626166909" lon="13.287323014736275"><ele>120.0</ele><time>2026-04-01T15:37:23.999Z</time></trkpt><trkpt lat="46.10018862455308" lon="13.28718585190118"><ele>120.0</ele><time>2026-04-01T15:37:24.999Z</time></trkpt><trkpt lat="46.100484822826445" lon="13.287018499341798"><ele>120.0</ele><time>2026-04-01T15:37:25.999Z</time></trkpt><trkpt lat="46.10077669721973" lon="13.286856033591146"><ele>121.5</ele><time>2026-04-01T15:37:26.999Z</time></trkpt><trkpt lat="46.10104809894188" lon="13.28671016898623"><ele>123.0</ele><time>2026-04-01T15:37:27.999Z</time></trkpt><trkpt lat="46.101317256377286" lon="13.286566601192044"><ele>122.0</ele><time>2026-04-01T15:37:28.999Z</time></trkpt><trkpt lat="46.10158961473836" lon="13.286419522915649"><ele>121.0</ele><time>2026-04-01T15:37:29.999Z</time></trkpt><trkpt lat="46.10187441340376" lon="13.286272564694071"><ele>121.0</ele><time>2026-04-01T15:37:30.999Z</time></trkpt><trkpt lat="46.10216748356862" lon="13.286124615811246"><ele>121.0</ele><time>2026-04-01T15:37:31.999Z</time></trkpt><trkpt lat="46.102453889323456" lon="13.285972565601313"><ele>122.5</ele><time>2026-04-01T15:37:32.999Z</time></trkpt><trkpt lat="46.102725785417086" lon="13.285823874240387"><ele>124.0</ele><time>2026-04-01T15:37:33.999Z</time></trkpt><trkpt lat="46.102992492520755" lon="13.285685788155805"><ele>124.0</ele><time>2026-04-01T15:37:34.999Z</time></trkpt><trkpt lat="46.103251724928434" lon="13.285549921281472"><ele>124.0</ele><time>2026-04-01T15:37:35.999Z</time></trkpt><trkpt lat="46.1035188704658" lon="13.285408863305028"><ele>124.0</ele><time>2026-04-01T15:37:36.999Z</time></trkpt><trkpt lat="46.10378508698044" lon="13.285260377445127"><ele>124.0</ele><time>2026-04-01T15:37:37.999Z</time></trkpt><trkpt lat="46.104048114520666" lon="13.285120989332414"><ele>124.5</ele><time>2026-04-01T15:37:38.999Z</time></trkpt><trkpt lat="46.10430249173369" lon="13.28498524220083"><ele>125.0</ele><time>2026-04-01T15:37:39.999Z</time></trkpt><trkpt lat="46.10455308167687" lon="13.284858040979788"><ele>126.0</ele><time>2026-04-01T15:37:40.999Z</time></trkpt><trkpt lat="46.10479863201569" lon="13.284724422517973"><ele>127.0</ele><time>2026-04-01T15:37:41.999Z</time></trkpt><trkpt lat="46.10504974060776" lon="13.284583332392675"><ele>127.0</ele><time>2026-04-01T15:37:42.999Z</time></trkpt><trkpt lat="46.10530912690806" lon="13.284441550482219"><ele>127.0</ele><time>2026-04-01T15:37:43.999Z</time></trkpt><trkpt lat="46.10556337267174" lon="13.28431107774207"><ele>127.5</ele><time>2026-04-01T15:37:44.999Z</time></trkpt><trkpt lat="46.10580222388021" lon="13.2841797567621"><ele>128.0</ele><time>2026-04-01T15:37:45.999Z</time></trkpt><trkpt lat="46.10604880707705" lon="13.284047039510027"><ele>127.5</ele><time>2026-04-01T15:37:46.999Z</time></trkpt><trkpt lat="46.106291340478094" lon="13.283914704893155"><ele>127.0</ele><time>2026-04-01T15:37:47.999Z</time></trkpt><trkpt lat="46.10652899906132" lon="13.28378406256681"><ele>127.5</ele><time>2026-04-01T15:37:48.999Z</time></trkpt><trkpt lat="46.10675892465226" lon="13.283664329917368"><ele>128.0</ele><time>2026-04-01T15:37:49.999Z</time></trkpt><trkpt lat="46.10698148590567" lon="13.283552738007021"><ele>128.0</ele><time>2026-04-01T15:37:50.999Z</time></trkpt><trkpt lat="46.107196503138745" lon="13.2834386629355"><ele>128.0</ele><time>2026-04-01T15:37:51.999Z</time></trkpt><trkpt lat="46.10740368940378" lon="13.28332579172468"><ele>127.33333333333333</ele><time>2026-04-01T15:37:52.999Z</time></trkpt><trkpt lat="46.10760838205825" lon="13.283216048759192"><ele>126.66666666666666</ele><time>2026-04-01T15:37:53.999Z</time></trkpt><trkpt lat="46.1078079150658" lon="13.283112132061337"><ele>126.0</ele><time>2026-04-01T15:37:54.999Z</time></trkpt><trkpt lat="46.10799578806185" lon="13.283006968091968"><ele>126.0</ele><time>2026-04-01T15:37:55.999Z</time></trkpt><trkpt lat="46.10818387412732" lon="13.282904080130667"><ele>126.0</ele><time>2026-04-01T15:37:56.999Z</time></trkpt><trkpt lat="46.108370409641054" lon="13.282802876640568"><ele>126.0</ele><time>2026-04-01T15:37:57.999Z</time></trkpt><trkpt lat="46.10855482847506" lon="13.282701885986675"><ele>127.66666666666666</ele><time>2026-04-01T15:37:58.999Z</time></trkpt><trkpt lat="46.10871736006542" lon="13.282604787006496"><ele>129.33333333333331</ele><time>2026-04-01T15:37:59.999Z</time></trkpt><trkpt lat="46.10888155718167" lon="13.282514714068714"><ele>131.0</ele><time>2026-04-01T15:38:00.999Z</time></trkpt><trkpt lat="46.109045925598906" lon="13.282428375507733"><ele>130.33333333333331</ele><time>2026-04-01T15:38:01.999Z</time></trkpt><trkpt lat="46.10920004504416" lon="13.28234111246919"><ele>129.66666666666666</ele><time>2026-04-01T15:38:02.999Z</time></trkpt><trkpt lat="46.1093541184527" lon="13.282259298324853"><ele>129.0</ele><time>2026-04-01T15:38:03.999Z</time></trkpt><trkpt lat="46.10950300688986" lon="13.282181525255416"><ele>128.75</ele><time>2026-04-01T15:38:04.999Z</time></trkpt><trkpt lat="46.10963723453793" lon="13.282107991531383"><ele>128.5</ele><time>2026-04-01T15:38:05.999Z</time></trkpt><trkpt lat="46.109766447019844" lon="13.282042482564906"><ele>128.25</ele><time>2026-04-01T15:38:06.999Z</time></trkpt><trkpt lat="46.10989159024317" lon="13.281971831048782"><ele>128.0</ele><time>2026-04-01T15:38:07.999Z</time></trkpt><trkpt lat="46.11000906973541" lon="13.281912090447383"><ele>128.0</ele><time>2026-04-01T15:38:08.999Z</time></trkpt><trkpt lat="46.11012773677411" lon="13.281860263763457"><ele>128.0</ele><time>2026-04-01T15:38:09.999Z</time></trkpt><trkpt lat="46.110248452257814" lon="13.281802553280901"><ele>128.0</ele><time>2026-04-01T15:38:10.999Z</time></trkpt><trkpt lat="46.11036686353846" lon="13.281759275157093"><ele>128.0</ele><time>2026-04-01T15:38:11.999Z</time></trkpt><trkpt lat="46.11046737983017" lon="13.281712660178155"><ele>127.99999999999999</ele><time>2026-04-01T15:38:12.999Z</time></trkpt><trkpt lat="46.11056883639268" lon="13.28167087344485"><ele>128.0</ele><time>2026-04-01T15:38:13.999Z</time></trkpt><trkpt lat="46.11066178902563" lon="13.281634592326101"><ele>128.0</ele><time>2026-04-01T15:38:14.999Z</time></trkpt><trkpt lat="46.11074310486451" lon="13.281617228549722"><ele>128.0</ele><time>2026-04-01T15:38:15.999Z</time></trkpt><trkpt lat="46.11080774274971" lon="13.281624332599838"><ele>127.99999999999999</ele><time>2026-04-01T15:38:16.999Z</time></trkpt><trkpt lat="46.11086991041939" lon="13.28166435644531"><ele>128.0</ele><time>2026-04-01T15:38:17.999Z</time></trkpt><trkpt lat="46.11092597102312" lon="13.281738821446291"><ele>128.6</ele><time>2026-04-01T15:38:18.999Z</time></trkpt><trkpt lat="46.1109776444689" lon="13.28183791038127"><ele>129.20000000000002</ele><time>2026-04-01T15:38:19.999Z</time></trkpt><trkpt lat="46.111037264804494" lon="13.281948007543196"><ele>129.8</ele><time>2026-04-01T15:38:20.999Z</time></trkpt><trkpt lat="46.11109925123599" lon="13.282044730874677"><ele>130.4</ele><time>2026-04-01T15:38:21.999Z</time></trkpt><trkpt lat="46.11117333342981" lon="13.282133501163054"><ele>131.0</ele><time>2026-04-01T15:38:22.999Z</time></trkpt><trkpt lat="46.11126145723965" lon="13.282225863946467"><ele>131.4</ele><time>2026-04-01T15:38:23.999Z</time></trkpt><trkpt lat="46.1113412177934" lon="13.282314762785619"><ele>131.8</ele><time>2026-04-01T15:38:25Z</time></trkpt><trkpt lat="46.11142840271866" lon="13.282370613534102"><ele>132.20000000000002</ele><time>2026-04-01T15:38:26Z</time></trkpt><trkpt lat="46.11154361549023" lon="13.282395182729518"><ele>132.6</ele><time>2026-04-01T15:38:27Z</time></trkpt><trkpt lat="46.11166908253893" lon="13.282380028595597"><ele>133.0</ele><time>2026-04-01T15:38:28Z</time></trkpt><trkpt lat="46.11178606372006" lon="13.282322866977877"><ele>132.5</ele><time>2026-04-01T15:38:29Z</time></trkpt><trkpt lat="46.111897829541824" lon="13.282247898141613"><ele>132.0</ele><time>2026-04-01T15:38:30Z</time></trkpt><trkpt lat="46.11200606148699" lon="13.28217408492776"><ele>131.5</ele><time>2026-04-01T15:38:31Z</time></trkpt><trkpt lat="46.11211989223072" lon="13.282120908260499"><ele>131.0</ele><time>2026-04-01T15:38:32Z</time></trkpt><trkpt lat="46.11223890594917" lon="13.282085940244873"><ele>131.0</ele><time>2026-04-01T15:38:33Z</time></trkpt><trkpt lat="46.112364878473116" lon="13.282074858503911"><ele>131.0</ele><time>2026-04-01T15:38:34Z</time></trkpt><trkpt lat="46.11250047606631" lon="13.282071388628095"><ele>131.0</ele><time>2026-04-01T15:38:35Z</time></trkpt><trkpt lat="46.11264527585071" lon="13.282061142959979"><ele>131.0</ele><time>2026-04-01T15:38:36Z</time></trkpt><trkpt lat="46.11278819641525" lon="13.282051446530245"><ele>131.2</ele><time>2026-04-01T15:38:37Z</time></trkpt><trkpt lat="46.11290246993623" lon="13.282041844806287"><ele>131.39999999999998</ele><time>2026-04-01T15:38:38Z</time></trkpt><trkpt lat="46.11300505630306" lon="13.282035400823387"><ele>131.6</ele><time>2026-04-01T15:38:39Z</time></trkpt><trkpt lat="46.11310574094567" lon="13.282040078257669"><ele>131.79999999999998</ele><time>2026-04-01T15:38:40Z</time></trkpt><trkpt lat="46.11320509850448" lon="13.282041510037908"><ele>132.0</ele><time>2026-04-01T15:38:41Z</time></trkpt><trkpt lat="46.11328709297073" lon="13.282042271120176"><ele>132.0</ele><time>2026-04-01T15:38:42Z</time></trkpt><trkpt lat="46.11336176920942" lon="13.282047093688597"><ele>132.0</ele><time>2026-04-01T15:38:43Z</time></trkpt><trkpt lat="46.113429434525784" lon="13.282055139434215"><ele>132.0</ele><time>2026-04-01T15:38:44Z</time></trkpt><trkpt lat="46.11349260233243" lon="13.282077992251445"><ele>132.0</ele><time>2026-04-01T15:38:45Z</time></trkpt><trkpt lat="46.11354903408265" lon="13.282136638149547"><ele>132.0</ele><time>2026-04-01T15:38:46Z</time></trkpt><trkpt lat="46.113604808553404" lon="13.282222878961054"><ele>132.0</ele><time>2026-04-01T15:38:47Z</time></trkpt><trkpt lat="46.113647765841115" lon="13.282337621771795"><ele>132.0</ele><time>2026-04-01T15:38:48Z</time></trkpt><trkpt lat="46.11368908027286" lon="13.28247628474003"><ele>132.0</ele><time>2026-04-01T15:38:49Z</time></trkpt><trkpt lat="46.11373776400796" lon="13.28263120840604"><ele>132.0</ele><time>2026-04-01T15:38:50Z</time></trkpt><trkpt lat="46.11379348160839" lon="13.28278666206751"><ele>132.0</ele><time>2026-04-01T15:38:51Z</time></trkpt><trkpt lat="46.11386613968131" lon="13.282923000405736"><ele>132.0</ele><time>2026-04-01T15:38:52Z</time></trkpt><trkpt lat="46.113948650702035" lon="13.283040059110853"><ele>132.0</ele><time>2026-04-01T15:38:53Z</time></trkpt><trkpt lat="46.11402512996243" lon="13.28314305019073"><ele>132.0</ele><time>2026-04-01T15:38:54Z</time></trkpt><trkpt lat="46.11410264021268" lon="13.283247009043635"><ele>132.0</ele><time>2026-04-01T15:38:55Z</time></trkpt><trkpt lat="46.11417669626241" lon="13.283348462813331"><ele>132.0</ele><time>2026-04-01T15:38:56Z</time></trkpt><trkpt lat="46.114244289298696" lon="13.283436930080915"><ele>132.0</ele><time>2026-04-01T15:38:57Z</time></trkpt><trkpt lat="46.11431116207732" lon="13.28352606677905"><ele>132.0</ele><time>2026-04-01T15:38:58Z</time></trkpt><trkpt lat="46.11438028182529" lon="13.283617984998997"><ele>132.0</ele><time>2026-04-01T15:38:59Z</time></trkpt><trkpt lat="46.11445580716537" lon="13.283711610756573"><ele>132.0</ele><time>2026-04-01T15:38:59.999Z</time></trkpt><trkpt lat="46.1145324117865" lon="13.283809513322193"><ele>132.0</ele><time>2026-04-01T15:39:00.999Z</time></trkpt><trkpt lat="46.11460946028733" lon="13.283917694989782"><ele>132.0</ele><time>2026-04-01T15:39:01.999Z</time></trkpt><trkpt lat="46.11469368031497" lon="13.284037643007444"><ele>132.25</ele><time>2026-04-01T15:39:02.999Z</time></trkpt><trkpt lat="46.11476845275398" lon="13.284165369267665"><ele>132.5</ele><time>2026-04-01T15:39:03.999Z</time></trkpt><trkpt lat="46.114838558947795" lon="13.284313350035054"><ele>132.75</ele><time>2026-04-01T15:39:04.999Z</time></trkpt><trkpt lat="46.11490834640046" lon="13.284486779082437"><ele>133.0</ele><time>2026-04-01T15:39:05.999Z</time></trkpt><trkpt lat="46.114977947062485" lon="13.284671751512104"><ele>133.0</ele><time>2026-04-01T15:39:06.999Z</time></trkpt><trkpt lat="46.115051195951104" lon="13.284858917762536"><ele>133.0</ele><time>2026-04-01T15:39:07.999Z</time></trkpt><trkpt lat="46.11512437011626" lon="13.285049442352195"><ele>133.0</ele><time>2026-04-01T15:39:08.999Z</time></trkpt><trkpt lat="46.115197372374446" lon="13.285245087382375"><ele>133.0</ele><time>2026-04-01T15:39:09.999Z</time></trkpt><trkpt lat="46.11527585734864" lon="13.285446246924531"><ele>133.0</ele><time>2026-04-01T15:39:10.999Z</time></trkpt><trkpt lat="46.11535627858011" lon="13.285647821651576"><ele>133.0</ele><time>2026-04-01T15:39:11.999Z</time></trkpt><trkpt lat="46.115433297242056" lon="13.285847356185704"><ele>133.33333333333334</ele><time>2026-04-01T15:39:12.999Z</time></trkpt><trkpt lat="46.11550835918673" lon="13.286047799183534"><ele>133.66666666666666</ele><time>2026-04-01T15:39:13.999Z</time></trkpt><trkpt lat="46.11558207717554" lon="13.286247145576898"><ele>134.0</ele><time>2026-04-01T15:39:14.999Z</time></trkpt><trkpt lat="46.11565116210284" lon="13.286443087048204"><ele>134.0</ele><time>2026-04-01T15:39:15.999Z</time></trkpt><trkpt lat="46.115703824055274" lon="13.28663667625757"><ele>134.0</ele><time>2026-04-01T15:39:16.999Z</time></trkpt><trkpt lat="46.11574381257326" lon="13.286842234307587"><ele>134.0</ele><time>2026-04-01T15:39:17.999Z</time></trkpt><trkpt lat="46.115772797054156" lon="13.287055375193413"><ele>134.0</ele><time>2026-04-01T15:39:18.999Z</time></trkpt><trkpt lat="46.11579862989294" lon="13.287274648447951"><ele>134.0</ele><time>2026-04-01T15:39:19.999Z</time></trkpt><trkpt lat="46.1158132184161" lon="13.287494015380117"><ele>134.0</ele><time>2026-04-01T15:39:20.999Z</time></trkpt><trkpt lat="46.11582650061065" lon="13.287713076952219"><ele>134.0</ele><time>2026-04-01T15:39:21.999Z</time></trkpt><trkpt lat="46.11583919724717" lon="13.287926946587342"><ele>134.25</ele><time>2026-04-01T15:39:22.999Z</time></trkpt><trkpt lat="46.115854468213485" lon="13.28813844110869"><ele>134.5</ele><time>2026-04-01T15:39:23.999Z</time></trkpt><trkpt lat="46.115871853989525" lon="13.288351792324907"><ele>134.75</ele><time>2026-04-01T15:39:24.999Z</time></trkpt><trkpt lat="46.115885518653315" lon="13.28856845706504"><ele>135.0</ele><time>2026-04-01T15:39:25.999Z</time></trkpt><trkpt lat="46.11589763659021" lon="13.288785935496545"><ele>134.66666666666666</ele><time>2026-04-01T15:39:26.999Z</time></trkpt><trkpt lat="46.11591225573449" lon="13.289007615264518"><ele>134.33333333333331</ele><time>2026-04-01T15:39:27.999Z</time></trkpt><trkpt lat="46.11592830018474" lon="13.289233167767824"><ele>134.0</ele><time>2026-04-01T15:39:28.999Z</time></trkpt><trkpt lat="46.11594455992872" lon="13.289463326763961"><ele>134.0</ele><time>2026-04-01T15:39:29.999Z</time></trkpt><trkpt lat="46.115961331087014" lon="13.289702248602442"><ele>134.0</ele><time>2026-04-01T15:39:30.999Z</time></trkpt><trkpt lat="46.11597747245627" lon="13.289951733354231"><ele>134.0</ele><time>2026-04-01T15:39:31.999Z</time></trkpt><trkpt lat="46.115993751772834" lon="13.290208323494458"><ele>133.66666666666666</ele><time>2026-04-01T15:39:32.999Z</time></trkpt><trkpt lat="46.116009372587314" lon="13.290469667982515"><ele>133.33333333333334</ele><time>2026-04-01T15:39:33.999Z</time></trkpt><trkpt lat="46.116026614488185" lon="13.290737684353575"><ele>133.0</ele><time>2026-04-01T15:39:34.999Z</time></trkpt><trkpt lat="46.11604381976796" lon="13.29100777926476"><ele>132.0</ele><time>2026-04-01T15:39:35.999Z</time></trkpt><trkpt lat="46.11606013956761" lon="13.291271059382908"><ele>131.0</ele><time>2026-04-01T15:39:36.999Z</time></trkpt><trkpt lat="46.116086133450565" lon="13.29152350973801"><ele>130.0</ele><time>2026-04-01T15:39:37.999Z</time></trkpt><trkpt lat="46.11613093433871" lon="13.291760301954845"><ele>130.0</ele><time>2026-04-01T15:39:38.999Z</time></trkpt><trkpt lat="46.11619387688009" lon="13.291985588034091"><ele>130.0</ele><time>2026-04-01T15:39:39.999Z</time></trkpt><trkpt lat="46.11627981242854" lon="13.29219740311777"><ele>130.0</ele><time>2026-04-01T15:39:40.999Z</time></trkpt><trkpt lat="46.11638307079599" lon="13.292397508942036"><ele>130.0</ele><time>2026-04-01T15:39:41.999Z</time></trkpt><trkpt lat="46.116484111878336" lon="13.292589859877936"><ele>130.0</ele><time>2026-04-01T15:39:42.999Z</time></trkpt><trkpt lat="46.116581749346636" lon="13.292780506923775"><ele>130.0</ele><time>2026-04-01T15:39:43.999Z</time></trkpt><trkpt lat="46.11667733215082" lon="13.292967806999423"><ele>130.33333333333334</ele><time>2026-04-01T15:39:44.999Z</time></trkpt><trkpt lat="46.11676854558201" lon="13.293155708105955"><ele>130.66666666666666</ele><time>2026-04-01T15:39:45.999Z</time></trkpt><trkpt lat="46.11686003851902" lon="13.293343523947934"><ele>131.0</ele><time>2026-04-01T15:39:46.999Z</time></trkpt><trkpt lat="46.11695132911219" lon="13.293527404809566"><ele>131.0</ele><time>2026-04-01T15:39:47.999Z</time></trkpt><trkpt lat="46.117041457202234" lon="13.293707604950598"><ele>131.0</ele><time>2026-04-01T15:39:48.999Z</time></trkpt><trkpt lat="46.11713026803573" lon="13.293880232542001"><ele>131.0</ele><time>2026-04-01T15:39:49.999Z</time></trkpt><trkpt lat="46.11721575576783" lon="13.294046341029059"><ele>131.0</ele><time>2026-04-01T15:39:50.999Z</time></trkpt><trkpt lat="46.117300311674654" lon="13.294212555295156"><ele>131.25</ele><time>2026-04-01T15:39:51.999Z</time></trkpt><trkpt lat="46.11738719714417" lon="13.29438116008823"><ele>131.5</ele><time>2026-04-01T15:39:52.999Z</time></trkpt><trkpt lat="46.11746828732181" lon="13.294555402660643"><ele>131.75</ele><time>2026-04-01T15:39:53.999Z</time></trkpt><trkpt lat="46.11754016361566" lon="13.294740078889403"><ele>132.0</ele><time>2026-04-01T15:39:54.999Z</time></trkpt><trkpt lat="46.11760800039767" lon="13.294947071581815"><ele>132.33333333333334</ele><time>2026-04-01T15:39:55.999Z</time></trkpt><trkpt lat="46.117671565364255" lon="13.295170106986674"><ele>132.66666666666669</ele><time>2026-04-01T15:39:56.999Z</time></trkpt><trkpt lat="46.11772561490292" lon="13.295385063545893"><ele>133.0</ele><time>2026-04-01T15:39:57.999Z</time></trkpt><trkpt lat="46.11777810329577" lon="13.295587342057814"><ele>133.0</ele><time>2026-04-01T15:39:58.999Z</time></trkpt><trkpt lat="46.117832082960454" lon="13.295783653631105"><ele>133.0</ele><time>2026-04-01T15:39:59.999Z</time></trkpt><trkpt lat="46.117889502419885" lon="13.295978410826818"><ele>133.0</ele><time>2026-04-01T15:40:00.999Z</time></trkpt><trkpt lat="46.1179440860934" lon="13.296171919296155"><ele>133.0</ele><time>2026-04-01T15:40:01.999Z</time></trkpt><trkpt lat="46.11799509476491" lon="13.296360614102825"><ele>132.5</ele><time>2026-04-01T15:40:02.999Z</time></trkpt><trkpt lat="46.1180460493755" lon="13.296545746216557"><ele>132.0</ele><time>2026-04-01T15:40:03.999Z</time></trkpt><trkpt lat="46.11809271404884" lon="13.296731889288667"><ele>131.5</ele><time>2026-04-01T15:40:04.999Z</time></trkpt><trkpt lat="46.11812439727193" lon="13.296925856303135"><ele>131.0</ele><time>2026-04-01T15:40:05.999Z</time></trkpt><trkpt lat="46.118144556470476" lon="13.297128207063517"><ele>131.25</ele><time>2026-04-01T15:40:06.999Z</time></trkpt><trkpt lat="46.118159608196855" lon="13.297336033999589"><ele>131.5</ele><time>2026-04-01T15:40:07.999Z</time></trkpt><trkpt lat="46.118140986582375" lon="13.297532533392172"><ele>131.75</ele><time>2026-04-01T15:40:08.999Z</time></trkpt><trkpt lat="46.11815028997226" lon="13.297725319384408"><ele>132.0</ele><time>2026-04-01T15:40:09.999Z</time></trkpt><trkpt lat="46.11813805331462" lon="13.297917698970977"><ele>132.5</ele><time>2026-04-01T15:40:10.999Z</time></trkpt><trkpt lat="46.11812811599019" lon="13.298108877832547"><ele>133.0</ele><time>2026-04-01T15:40:11.999Z</time></trkpt><trkpt lat="46.118117137569605" lon="13.298299783516992"><ele>133.5</ele><time>2026-04-01T15:40:12.999Z</time></trkpt><trkpt lat="46.11810730421378" lon="13.29849285544791"><ele>134.0</ele><time>2026-04-01T15:40:13.999Z</time></trkpt><trkpt lat="46.11810175328899" lon="13.298688124328296"><ele>134.0</ele><time>2026-04-01T15:40:14.999Z</time></trkpt><trkpt lat="46.11809546663599" lon="13.298883747251065"><ele>134.0</ele><time>2026-04-01T15:40:15.999Z</time></trkpt><trkpt lat="46.11809577167021" lon="13.299079281816221"><ele>134.0</ele><time>2026-04-01T15:40:16.999Z</time></trkpt><trkpt lat="46.11811482925093" lon="13.299275607913033"><ele>134.0</ele><time>2026-04-01T15:40:17.999Z</time></trkpt><trkpt lat="46.118127698959945" lon="13.299480863271334"><ele>133.75</ele><time>2026-04-01T15:40:18.999Z</time></trkpt><trkpt lat="46.11818671227206" lon="13.299675027351288"><ele>133.5</ele><time>2026-04-01T15:40:19.999Z</time></trkpt><trkpt lat="46.11821970608161" lon="13.29987658969219"><ele>133.25</ele><time>2026-04-01T15:40:20.999Z</time></trkpt><trkpt lat="46.11826660710934" lon="13.30006332473992"><ele>133.0</ele><time>2026-04-01T15:40:21.999Z</time></trkpt><trkpt lat="46.11831227734195" lon="13.300249147972123"><ele>132.75</ele><time>2026-04-01T15:40:22.999Z</time></trkpt><trkpt lat="46.11836181190493" lon="13.300427228642182"><ele>132.5</ele><time>2026-04-01T15:40:23.999Z</time></trkpt><trkpt lat="46.118392626626765" lon="13.300608771618094"><ele>132.25</ele><time>2026-04-01T15:40:24.999Z</time></trkpt><trkpt lat="46.118436745261924" lon="13.300786199714588"><ele>132.0</ele><time>2026-04-01T15:40:25.999Z</time></trkpt><trkpt lat="46.118518350093176" lon="13.300967672407474"><ele>131.75</ele><time>2026-04-01T15:40:26.999Z</time></trkpt><trkpt lat="46.11857022969945" lon="13.301167492614011"><ele>131.5</ele><time>2026-04-01T15:40:27.999Z</time></trkpt><trkpt lat="46.11863964566411" lon="13.301342939241762"><ele>131.25</ele><time>2026-04-01T15:40:28.999Z</time></trkpt><trkpt lat="46.11869297514405" lon="13.301532502989376"><ele>131.0</ele><time>2026-04-01T15:40:29.999Z</time></trkpt><trkpt lat="46.118740619541256" lon="13.30172804647786"><ele>131.0</ele><time>2026-04-01T15:40:31Z</time></trkpt><trkpt lat="46.118787220770706" lon="13.301922949981423"><ele>131.0</ele><time>2026-04-01T15:40:32Z</time></trkpt><trkpt lat="46.1188305695935" lon="13.302124717169175"><ele>131.0</ele><time>2026-04-01T15:40:33Z</time></trkpt><trkpt lat="46.11887061547434" lon="13.30232298359258"><ele>131.0</ele><time>2026-04-01T15:40:34Z</time></trkpt><trkpt lat="46.1189248809883" lon="13.30250922690582"><ele>131.0</ele><time>2026-04-01T15:40:35Z</time></trkpt><trkpt lat="46.1190009725824" lon="13.30267723152035"><ele>131.0</ele><time>2026-04-01T15:40:36Z</time></trkpt><trkpt lat="46.11909848856725" lon="13.30281504182723"><ele>131.0</ele><time>2026-04-01T15:40:37Z</time></trkpt><trkpt lat="46.119215574066104" lon="13.302929489771982"><ele>131.0</ele><time>2026-04-01T15:40:38Z</time></trkpt><trkpt lat="46.11934867470314" lon="13.303028212792736"><ele>131.5</ele><time>2026-04-01T15:40:39Z</time></trkpt><trkpt lat="46.119481566803685" lon="13.30313202032967"><ele>132.0</ele><time>2026-04-01T15:40:40Z</time></trkpt><trkpt lat="46.11960436118508" lon="13.303232654006493"><ele>132.5</ele><time>2026-04-01T15:40:41Z</time></trkpt><trkpt lat="46.11972224741193" lon="13.303322338952349"><ele>133.0</ele><time>2026-04-01T15:40:42Z</time></trkpt><trkpt lat="46.11983575535727" lon="13.303409328099523"><ele>133.25</ele><time>2026-04-01T15:40:43Z</time></trkpt><trkpt lat="46.11993988870065" lon="13.303495807073629"><ele>133.5</ele><time>2026-04-01T15:40:44Z</time></trkpt><trkpt lat="46.120032515740604" lon="13.30356908885501"><ele>133.75</ele><time>2026-04-01T15:40:45Z</time></trkpt><trkpt lat="46.12012843765554" lon="13.30364018687063"><ele>134.0</ele><time>2026-04-01T15:40:46Z</time></trkpt><trkpt lat="46.12024026061399" lon="13.30371521897426"><ele>134.0</ele><time>2026-04-01T15:40:47Z</time></trkpt><trkpt lat="46.12035694991986" lon="13.303830643637411"><ele>134.0</ele><time>2026-04-01T15:40:48Z</time></trkpt><trkpt lat="46.12049007115734" lon="13.303914779889876"><ele>134.0</ele><time>2026-04-01T15:40:49Z</time></trkpt><trkpt lat="46.12060924964328" lon="13.304018398017824"><ele>134.0</ele><time>2026-04-01T15:40:50Z</time></trkpt><trkpt lat="46.12073295999424" lon="13.304118755303286"><ele>133.0</ele><time>2026-04-01T15:40:51Z</time></trkpt><trkpt lat="46.12086884544039" lon="13.304226023504544"><ele>132.0</ele><time>2026-04-01T15:40:52Z</time></trkpt><trkpt lat="46.12100689665257" lon="13.304340866179372"><ele>131.0</ele><time>2026-04-01T15:40:53Z</time></trkpt><trkpt lat="46.12113816921862" lon="13.304466762018127"><ele>131.0</ele><time>2026-04-01T15:40:54Z</time></trkpt><trkpt lat="46.12126280417979" lon="13.304614948251338"><ele>131.0</ele><time>2026-04-01T15:40:55Z</time></trkpt><trkpt lat="46.12137797558492" lon="13.304780495125954"><ele>131.0</ele><time>2026-04-01T15:40:56Z</time></trkpt><trkpt lat="46.121482301880235" lon="13.304978836885546"><ele>130.33333333333331</ele><time>2026-04-01T15:40:57Z</time></trkpt><trkpt lat="46.121589593414136" lon="13.30520179819197"><ele>129.66666666666666</ele><time>2026-04-01T15:40:58Z</time></trkpt><trkpt lat="46.12169363398876" lon="13.305420488444419"><ele>129.0</ele><time>2026-04-01T15:40:59Z</time></trkpt><trkpt lat="46.1217997432606" lon="13.30563287234458"><ele>129.0</ele><time>2026-04-01T15:41:00Z</time></trkpt><trkpt lat="46.12190386996958" lon="13.305843728788265"><ele>129.0</ele><time>2026-04-01T15:41:01Z</time></trkpt><trkpt lat="46.1220025835717" lon="13.306051277757012"><ele>129.0</ele><time>2026-04-01T15:41:02Z</time></trkpt><trkpt lat="46.12210002287719" lon="13.306249184096384"><ele>128.66666666666666</ele><time>2026-04-01T15:41:03Z</time></trkpt><trkpt lat="46.12219317300261" lon="13.30644044139765"><ele>128.33333333333331</ele><time>2026-04-01T15:41:04Z</time></trkpt><trkpt lat="46.12227966225211" lon="13.306630921748338"><ele>128.0</ele><time>2026-04-01T15:41:05Z</time></trkpt><trkpt lat="46.12235991546393" lon="13.306835508009648"><ele>128.66666666666666</ele><time>2026-04-01T15:41:06Z</time></trkpt><trkpt lat="46.12242476004069" lon="13.30706498451392"><ele>129.33333333333334</ele><time>2026-04-01T15:41:06.999Z</time></trkpt><trkpt lat="46.12247330262243" lon="13.307315304624836"><ele>130.0</ele><time>2026-04-01T15:41:07.999Z</time></trkpt><trkpt lat="46.12251855985715" lon="13.307576779750983"><ele>130.0</ele><time>2026-04-01T15:41:08.999Z</time></trkpt><trkpt lat="46.122564624672854" lon="13.30785181539965"><ele>130.0</ele><time>2026-04-01T15:41:09.999Z</time></trkpt><trkpt lat="46.12260442176929" lon="13.308138259686128"><ele>130.0</ele><time>2026-04-01T15:41:10.999Z</time></trkpt><trkpt lat="46.12264703108549" lon="13.308438611932662"><ele>130.0</ele><time>2026-04-01T15:41:11.999Z</time></trkpt><trkpt lat="46.12269242985943" lon="13.308736967888166"><ele>130.0</ele><time>2026-04-01T15:41:12.999Z</time></trkpt><trkpt lat="46.122736285674534" lon="13.309021365903408"><ele>130.0</ele><time>2026-04-01T15:41:13.999Z</time></trkpt><trkpt lat="46.122775528771754" lon="13.309294585315577"><ele>130.0</ele><time>2026-04-01T15:41:14.999Z</time></trkpt><trkpt lat="46.12281331957505" lon="13.309560782179233"><ele>130.0</ele><time>2026-04-01T15:41:15.999Z</time></trkpt><trkpt lat="46.12285437478794" lon="13.309825599187945"><ele>130.0</ele><time>2026-04-01T15:41:16.999Z</time></trkpt><trkpt lat="46.12289815368334" lon="13.310090304185424"><ele>130.0</ele><time>2026-04-01T15:41:17.999Z</time></trkpt><trkpt lat="46.122939363099476" lon="13.310352113474089"><ele>130.0</ele><time>2026-04-01T15:41:18.999Z</time></trkpt><trkpt lat="46.12297629621757" lon="13.310609383831233"><ele>130.0</ele><time>2026-04-01T15:41:19.999Z</time></trkpt><trkpt lat="46.123011720604175" lon="13.310866196786654"><ele>130.0</ele><time>2026-04-01T15:41:20.999Z</time></trkpt><trkpt lat="46.12305044613615" lon="13.311117902414562"><ele>130.0</ele><time>2026-04-01T15:41:21.999Z</time></trkpt><trkpt lat="46.12308587444416" lon="13.311359461229829"><ele>130.0</ele><time>2026-04-01T15:41:22.999Z</time></trkpt><trkpt lat="46.12311967369957" lon="13.311596281841213"><ele>129.66666666666669</ele><time>2026-04-01T15:41:23.999Z</time></trkpt><trkpt lat="46.1231591703053" lon="13.311843336064795"><ele>129.33333333333334</ele><time>2026-04-01T15:41:24.999Z</time></trkpt><trkpt lat="46.12319579737636" lon="13.312094848104799"><ele>129.0</ele><time>2026-04-01T15:41:25.999Z</time></trkpt><trkpt lat="46.123232833171386" lon="13.312343760312126"><ele>128.66666666666666</ele><time>2026-04-01T15:41:26.999Z</time></trkpt><trkpt lat="46.12327283887068" lon="13.312593952794195"><ele>128.33333333333331</ele><time>2026-04-01T15:41:27.999Z</time></trkpt><trkpt lat="46.12331184507938" lon="13.312844830324764"><ele>128.0</ele><time>2026-04-01T15:41:28.999Z</time></trkpt><trkpt lat="46.1233474242188" lon="13.313093744639158"><ele>128.0</ele><time>2026-04-01T15:41:29.999Z</time></trkpt><trkpt lat="46.123381737048746" lon="13.313331997399489"><ele>128.0</ele><time>2026-04-01T15:41:30.999Z</time></trkpt><trkpt lat="46.12341633516495" lon="13.313559734675438"><ele>128.0</ele><time>2026-04-01T15:41:31.999Z</time></trkpt><trkpt lat="46.12343353029714" lon="13.31377351091875"><ele>128.0</ele><time>2026-04-01T15:41:32.999Z</time></trkpt><trkpt lat="46.123461786782606" lon="13.313968478016317"><ele>128.0</ele><time>2026-04-01T15:41:33.999Z</time></trkpt><trkpt lat="46.12350718278512" lon="13.314157679739298"><ele>128.0</ele><time>2026-04-01T15:41:34.999Z</time></trkpt><trkpt lat="46.1235342642278" lon="13.314339413033974"><ele>128.0</ele><time>2026-04-01T15:41:35.999Z</time></trkpt><trkpt lat="46.12356278312339" lon="13.314521911587498"><ele>128.0</ele><time>2026-04-01T15:41:36.999Z</time></trkpt><trkpt lat="46.12359799939306" lon="13.314704059027795"><ele>128.0</ele><time>2026-04-01T15:41:37.999Z</time></trkpt><trkpt lat="46.1236429899026" lon="13.314883426363922"><ele>128.0</ele><time>2026-04-01T15:41:38.999Z</time></trkpt><trkpt lat="46.123691337952664" lon="13.315041823563266"><ele>128.0</ele><time>2026-04-01T15:41:39.999Z</time></trkpt><trkpt lat="46.12374421860436" lon="13.31519671613371"><ele>128.25</ele><time>2026-04-01T15:41:40.999Z</time></trkpt><trkpt lat="46.12380575630055" lon="13.315361429389341"><ele>128.5</ele><time>2026-04-01T15:41:41.999Z</time></trkpt><trkpt lat="46.12386833477739" lon="13.315519960719083"><ele>128.75</ele><time>2026-04-01T15:41:42.999Z</time></trkpt><trkpt lat="46.12392878285739" lon="13.315681469486764"><ele>129.0</ele><time>2026-04-01T15:41:43.999Z</time></trkpt><trkpt lat="46.123990711599625" lon="13.315844487355976"><ele>129.0</ele><time>2026-04-01T15:41:44.999Z</time></trkpt><trkpt lat="46.1240547583868" lon="13.31601056589734"><ele>129.0</ele><time>2026-04-01T15:41:45.999Z</time></trkpt><trkpt lat="46.12412313298305" lon="13.316187478990399"><ele>129.0</ele><time>2026-04-01T15:41:46.999Z</time></trkpt><trkpt lat="46.124195953382525" lon="13.316371172652508"><ele>129.0</ele><time>2026-04-01T15:41:47.999Z</time></trkpt><trkpt lat="46.12427133775371" lon="13.316565376818648"><ele>129.0</ele><time>2026-04-01T15:41:48.999Z</time></trkpt><trkpt lat="46.12435252756225" lon="13.31677169202972"><ele>129.0</ele><time>2026-04-01T15:41:49.999Z</time></trkpt><trkpt lat="46.124439472173265" lon="13.316986632751348"><ele>129.0</ele><time>2026-04-01T15:41:50.999Z</time></trkpt><trkpt lat="46.12452499091459" lon="13.317200798155676"><ele>129.66666666666666</ele><time>2026-04-01T15:41:51.999Z</time></trkpt><trkpt lat="46.12460751597641" lon="13.31741278703852"><ele>130.33333333333331</ele><time>2026-04-01T15:41:52.999Z</time></trkpt><trkpt lat="46.12468924590253" lon="13.317618415067045"><ele>131.0</ele><time>2026-04-01T15:41:53.999Z</time></trkpt><trkpt lat="46.124774109041226" lon="13.317828796135782"><ele>131.0</ele><time>2026-04-01T15:41:54.999Z</time></trkpt><trkpt lat="46.12486024875355" lon="13.318041672646105"><ele>131.0</ele><time>2026-04-01T15:41:55.999Z</time></trkpt><trkpt lat="46.12494835952307" lon="13.318264498829649"><ele>131.0</ele><time>2026-04-01T15:41:56.999Z</time></trkpt><trkpt lat="46.125040090243516" lon="13.318495974569384"><ele>130.66666666666666</ele><time>2026-04-01T15:41:57.999Z</time></trkpt><trkpt lat="46.12513346249282" lon="13.318734059675746"><ele>130.33333333333334</ele><time>2026-04-01T15:41:58.999Z</time></trkpt><trkpt lat="46.12522822527336" lon="13.318974876878913"><ele>130.0</ele><time>2026-04-01T15:41:59.999Z</time></trkpt><trkpt lat="46.125323081147684" lon="13.31921928023159"><ele>129.66666666666669</ele><time>2026-04-01T15:42:00.999Z</time></trkpt><trkpt lat="46.125416153955086" lon="13.31946192130077"><ele>129.33333333333334</ele><time>2026-04-01T15:42:01.999Z</time></trkpt><trkpt lat="46.1255077118539" lon="13.31969596425255"><ele>129.0</ele><time>2026-04-01T15:42:02.999Z</time></trkpt><trkpt lat="46.125598022323715" lon="13.319928467625754"><ele>128.66666666666666</ele><time>2026-04-01T15:42:03.999Z</time></trkpt><trkpt lat="46.12569052732447" lon="13.32015519110169"><ele>128.33333333333331</ele><time>2026-04-01T15:42:04.999Z</time></trkpt><trkpt lat="46.12579417871681" lon="13.320376935282725"><ele>128.0</ele><time>2026-04-01T15:42:05.999Z</time></trkpt><trkpt lat="46.125914373285" lon="13.320585744902642"><ele>127.66666666666666</ele><time>2026-04-01T15:42:06.999Z</time></trkpt><trkpt lat="46.12603340059756" lon="13.320775859274137"><ele>127.33333333333334</ele><time>2026-04-01T15:42:07.999Z</time></trkpt><trkpt lat="46.126137605262485" lon="13.32096231247751"><ele>127.0</ele><time>2026-04-01T15:42:08.999Z</time></trkpt><trkpt lat="46.126229890394285" lon="13.321171589975128"><ele>127.0</ele><time>2026-04-01T15:42:09.999Z</time></trkpt><trkpt lat="46.12630251516526" lon="13.321388127551927"><ele>127.0</ele><time>2026-04-01T15:42:10.999Z</time></trkpt><trkpt lat="46.12636784731477" lon="13.3216024800003"><ele>127.0</ele><time>2026-04-01T15:42:11.999Z</time></trkpt><trkpt lat="46.12643419133497" lon="13.321814942412662"><ele>127.0</ele><time>2026-04-01T15:42:12.999Z</time></trkpt><trkpt lat="46.12649545276089" lon="13.322021312873781"><ele>127.0</ele><time>2026-04-01T15:42:13.999Z</time></trkpt><trkpt lat="46.12656019984925" lon="13.322231711701166"><ele>127.0</ele><time>2026-04-01T15:42:14.999Z</time></trkpt><trkpt lat="46.12664307176735" lon="13.322446167248843"><ele>127.0</ele><time>2026-04-01T15:42:15.999Z</time></trkpt><trkpt lat="46.1267481491078" lon="13.322654853766728"><ele>127.0</ele><time>2026-04-01T15:42:16.999Z</time></trkpt><trkpt lat="46.12687123227677" lon="13.322833563961472"><ele>127.0</ele><time>2026-04-01T15:42:17.999Z</time></trkpt><trkpt lat="46.12700701316484" lon="13.322980079735977"><ele>127.0</ele><time>2026-04-01T15:42:18.999Z</time></trkpt><trkpt lat="46.12714845358861" lon="13.323109433624586"><ele>127.0</ele><time>2026-04-01T15:42:19.999Z</time></trkpt><trkpt lat="46.12728379689759" lon="13.323252484751462"><ele>127.0</ele><time>2026-04-01T15:42:20.999Z</time></trkpt><trkpt lat="46.12741758966117" lon="13.323414008358881"><ele>127.0</ele><time>2026-04-01T15:42:21.999Z</time></trkpt><trkpt lat="46.12754877150356" lon="13.323585780720235"><ele>127.0</ele><time>2026-04-01T15:42:22.999Z</time></trkpt><trkpt lat="46.127674519197484" lon="13.323761196430041"><ele>127.0</ele><time>2026-04-01T15:42:23.999Z</time></trkpt><trkpt lat="46.12779058580862" lon="13.32394085640475"><ele>126.66666666666667</ele><time>2026-04-01T15:42:24.999Z</time></trkpt><trkpt lat="46.12789654130772" lon="13.324125327078981"><ele>126.33333333333334</ele><time>2026-04-01T15:42:25.999Z</time></trkpt><trkpt lat="46.12800452011196" lon="13.32431468436878"><ele>126.0</ele><time>2026-04-01T15:42:26.999Z</time></trkpt><trkpt lat="46.12811314938379" lon="13.32451100182211"><ele>126.0</ele><time>2026-04-01T15:42:27.999Z</time></trkpt><trkpt lat="46.12821741469245" lon="13.324708533088188"><ele>126.0</ele><time>2026-04-01T15:42:28.999Z</time></trkpt><trkpt lat="46.12832097405252" lon="13.32489448762877"><ele>126.0</ele><time>2026-04-01T15:42:29.999Z</time></trkpt><trkpt lat="46.12842451220395" lon="13.325071291774947"><ele>126.0</ele><time>2026-04-01T15:42:30.999Z</time></trkpt><trkpt lat="46.12852832283006" lon="13.325243788627564"><ele>126.0</ele><time>2026-04-01T15:42:31.999Z</time></trkpt><trkpt lat="46.12862621658539" lon="13.325417676967183"><ele>126.0</ele><time>2026-04-01T15:42:32.999Z</time></trkpt><trkpt lat="46.128715561972506" lon="13.325587190950062"><ele>126.5</ele><time>2026-04-01T15:42:33.999Z</time></trkpt><trkpt lat="46.12879861170403" lon="13.325744755071073"><ele>127.0</ele><time>2026-04-01T15:42:34.999Z</time></trkpt><trkpt lat="46.12886781176363" lon="13.325919537392279"><ele>127.5</ele><time>2026-04-01T15:42:35.999Z</time></trkpt><trkpt lat="46.12890965248215" lon="13.326118907382323"><ele>128.0</ele><time>2026-04-01T15:42:37Z</time></trkpt><trkpt lat="46.12894545634672" lon="13.326336974899807"><ele>128.75</ele><time>2026-04-01T15:42:38Z</time></trkpt><trkpt lat="46.12898991413714" lon="13.326532778297164"><ele>129.5</ele><time>2026-04-01T15:42:39Z</time></trkpt><trkpt lat="46.12903819593181" lon="13.326721416674472"><ele>130.25</ele><time>2026-04-01T15:42:40Z</time></trkpt><trkpt lat="46.129088502399185" lon="13.326911318568014"><ele>131.0</ele><time>2026-04-01T15:42:41Z</time></trkpt><trkpt lat="46.12913893334239" lon="13.327099170406232"><ele>130.75</ele><time>2026-04-01T15:42:42Z</time></trkpt><trkpt lat="46.12918640252023" lon="13.327284177313363"><ele>130.5</ele><time>2026-04-01T15:42:43Z</time></trkpt><trkpt lat="46.12923271581217" lon="13.32746884090012"><ele>130.25</ele><time>2026-04-01T15:42:44Z</time></trkpt><trkpt lat="46.12928640997079" lon="13.327648259966205"><ele>130.0</ele><time>2026-04-01T15:42:45Z</time></trkpt><trkpt lat="46.12935152849651" lon="13.327820161205823"><ele>130.0</ele><time>2026-04-01T15:42:46Z</time></trkpt><trkpt lat="46.12942156694524" lon="13.327976101485342"><ele>130.0</ele><time>2026-04-01T15:42:47Z</time></trkpt><trkpt lat="46.12949821143345" lon="13.328122497138825"><ele>130.0</ele><time>2026-04-01T15:42:48Z</time></trkpt><trkpt lat="46.12958380739077" lon="13.328272298062641"><ele>130.0</ele><time>2026-04-01T15:42:49Z</time></trkpt><trkpt lat="46.12967774049521" lon="13.32843204472154"><ele>130.25</ele><time>2026-04-01T15:42:50Z</time></trkpt><trkpt lat="46.129769304124785" lon="13.328593607118034"><ele>130.5</ele><time>2026-04-01T15:42:51Z</time></trkpt><trkpt lat="46.12986072656824" lon="13.328757933161295"><ele>130.75</ele><time>2026-04-01T15:42:52Z</time></trkpt><trkpt lat="46.12995675303221" lon="13.328931413762962"><ele>131.0</ele><time>2026-04-01T15:42:53Z</time></trkpt><trkpt lat="46.13005647458386" lon="13.329108506511252"><ele>131.0</ele><time>2026-04-01T15:42:54Z</time></trkpt><trkpt lat="46.130157701149066" lon="13.329295962969796"><ele>131.0</ele><time>2026-04-01T15:42:55Z</time></trkpt><trkpt lat="46.130265774126244" lon="13.329489490312884"><ele>131.0</ele><time>2026-04-01T15:42:56Z</time></trkpt><trkpt lat="46.130382369310546" lon="13.329685898182312"><ele>130.66666666666666</ele><time>2026-04-01T15:42:57Z</time></trkpt><trkpt lat="46.13050119977556" lon="13.329896572536931"><ele>130.33333333333334</ele><time>2026-04-01T15:42:58Z</time></trkpt><trkpt lat="46.13062441808188" lon="13.33012251313427"><ele>130.0</ele><time>2026-04-01T15:42:59Z</time></trkpt><trkpt lat="46.13075542810541" lon="13.330363092593938"><ele>130.0</ele><time>2026-04-01T15:43:00Z</time></trkpt><trkpt lat="46.130894506009525" lon="13.330611125309428"><ele>130.0</ele><time>2026-04-01T15:43:01Z</time></trkpt><trkpt lat="46.131029679626465" lon="13.330850733735058"><ele>130.0</ele><time>2026-04-01T15:43:02Z</time></trkpt><trkpt lat="46.131159306869556" lon="13.331083254570276"><ele>130.0</ele><time>2026-04-01T15:43:03Z</time></trkpt><trkpt lat="46.131281880960714" lon="13.33129961576949"><ele>130.0</ele><time>2026-04-01T15:43:04Z</time></trkpt><trkpt lat="46.131396157131555" lon="13.331508639247104"><ele>130.0</ele><time>2026-04-01T15:43:04.999Z</time></trkpt><trkpt lat="46.13150687711216" lon="13.331708655266386"><ele>130.0</ele><time>2026-04-01T15:43:05.999Z</time></trkpt><trkpt lat="46.13161577984322" lon="13.331901792080286"><ele>130.0</ele><time>2026-04-01T15:43:06.999Z</time></trkpt><trkpt lat="46.131716986723305" lon="13.332085985545229"><ele>130.0</ele><time>2026-04-01T15:43:07.999Z</time></trkpt><trkpt lat="46.13181974411558" lon="13.332255216824358"><ele>130.0</ele><time>2026-04-01T15:43:08.999Z</time></trkpt><trkpt lat="46.13192950349983" lon="13.332422128668552"><ele>130.0</ele><time>2026-04-01T15:43:09.999Z</time></trkpt><trkpt lat="46.13204734043856" lon="13.33258477717277"><ele>130.0</ele><time>2026-04-01T15:43:10.999Z</time></trkpt><trkpt lat="46.132164966222774" lon="13.33273722755983"><ele>130.0</ele><time>2026-04-01T15:43:11.999Z</time></trkpt><trkpt lat="46.132274486417145" lon="13.332876429996313"><ele>130.0</ele><time>2026-04-01T15:43:12.999Z</time></trkpt><trkpt lat="46.13239321448455" lon="13.333012000747818"><ele>130.0</ele><time>2026-04-01T15:43:13.999Z</time></trkpt><trkpt lat="46.13253758711618" lon="13.333161469020867"><ele>130.0</ele><time>2026-04-01T15:43:14.999Z</time></trkpt><trkpt lat="46.13269762391924" lon="13.333334558647344"><ele>130.0</ele><time>2026-04-01T15:43:15.999Z</time></trkpt><trkpt lat="46.132879660670646" lon="13.333514803638053"><ele>130.0</ele><time>2026-04-01T15:43:16.999Z</time></trkpt><trkpt lat="46.1330778463033" lon="13.333711038523777"><ele>132.0</ele><time>2026-04-01T15:43:17.999Z</time></trkpt><trkpt lat="46.13327639584277" lon="13.333906773547419"><ele>134.0</ele><time>2026-04-01T15:43:18.999Z</time></trkpt><trkpt lat="46.13347804440066" lon="13.334089405658649"><ele>134.0</ele><time>2026-04-01T15:43:19.999Z</time></trkpt><trkpt lat="46.13368023311406" lon="13.334286641340402"><ele>134.0</ele><time>2026-04-01T15:43:20.999Z</time></trkpt><trkpt lat="46.13388995474363" lon="13.3344842570088"><ele>135.5</ele><time>2026-04-01T15:43:21.999Z</time></trkpt><trkpt lat="46.13410297443056" lon="13.334685673052359"><ele>137.0</ele><time>2026-04-01T15:43:22.999Z</time></trkpt><trkpt lat="46.13431250192691" lon="13.33488281123018"><ele>137.0</ele><time>2026-04-01T15:43:23.999Z</time></trkpt><trkpt lat="46.134513005137386" lon="13.335075506444078"><ele>137.0</ele><time>2026-04-01T15:43:24.999Z</time></trkpt><trkpt lat="46.13470934777029" lon="13.33526122729795"><ele>137.0</ele><time>2026-04-01T15:43:25.999Z</time></trkpt><trkpt lat="46.13490407238187" lon="13.335446885899795"><ele>137.0</ele><time>2026-04-01T15:43:26.999Z</time></trkpt><trkpt lat="46.13509666179871" lon="13.335627238446385"><ele>136.0</ele><time>2026-04-01T15:43:27.999Z</time></trkpt><trkpt lat="46.13529273995299" lon="13.335783396905628"><ele>135.0</ele><time>2026-04-01T15:43:28.999Z</time></trkpt><trkpt lat="46.13548980320319" lon="13.335920566065454"><ele>134.0</ele><time>2026-04-01T15:43:29.999Z</time></trkpt><trkpt lat="46.13567981760152" lon="13.336052061564303"><ele>133.66666666666666</ele><time>2026-04-01T15:43:30.999Z</time></trkpt><trkpt lat="46.13586031552535" lon="13.336186085567208"><ele>133.33333333333334</ele><time>2026-04-01T15:43:31.999Z</time></trkpt><trkpt lat="46.13604299449191" lon="13.336318502243403"><ele>133.0</ele><time>2026-04-01T15:43:32.999Z</time></trkpt><trkpt lat="46.1362286114169" lon="13.336450016819212"><ele>133.66666666666669</ele><time>2026-04-01T15:43:33.999Z</time></trkpt><trkpt lat="46.13641180240895" lon="13.336586481530686"><ele>134.33333333333334</ele><time>2026-04-01T15:43:34.999Z</time></trkpt><trkpt lat="46.136595734611646" lon="13.336721756075498"><ele>135.0</ele><time>2026-04-01T15:43:35.999Z</time></trkpt><trkpt lat="46.13678301715122" lon="13.336853237840579"><ele>135.0</ele><time>2026-04-01T15:43:36.999Z</time></trkpt><trkpt lat="46.13696922423314" lon="13.336985386737176"><ele>135.0</ele><time>2026-04-01T15:43:37.999Z</time></trkpt><trkpt lat="46.137150509926556" lon="13.337115683346523"><ele>135.0</ele><time>2026-04-01T15:43:38.999Z</time></trkpt><trkpt lat="46.13732892778373" lon="13.337245025178827"><ele>136.0</ele><time>2026-04-01T15:43:39.999Z</time></trkpt><trkpt lat="46.137510484810946" lon="13.337377597703332"><ele>137.0</ele><time>2026-04-01T15:43:40.999Z</time></trkpt><trkpt lat="46.13769525970004" lon="13.337516586453305"><ele>138.0</ele><time>2026-04-01T15:43:41.999Z</time></trkpt><trkpt lat="46.13787073685436" lon="13.337654054727297"><ele>138.0</ele><time>2026-04-01T15:43:42.999Z</time></trkpt><trkpt lat="46.138043059726016" lon="13.337792945952625"><ele>138.0</ele><time>2026-04-01T15:43:43.999Z</time></trkpt><trkpt lat="46.13822579790395" lon="13.337940202884736"><ele>138.0</ele><time>2026-04-01T15:43:44.999Z</time></trkpt><trkpt lat="46.13840832223948" lon="13.338084960049512"><ele>138.33333333333334</ele><time>2026-04-01T15:43:45.999Z</time></trkpt><trkpt lat="46.13857847941787" lon="13.338221987853913"><ele>138.66666666666669</ele><time>2026-04-01T15:43:46.999Z</time></trkpt><trkpt lat="46.13874849990294" lon="13.338358488021182"><ele>139.0</ele><time>2026-04-01T15:43:47.999Z</time></trkpt><trkpt lat="46.13891858717758" lon="13.33849592685566"><ele>139.0</ele><time>2026-04-01T15:43:48.999Z</time></trkpt><trkpt lat="46.139079950160905" lon="13.338624670101659"><ele>139.0</ele><time>2026-04-01T15:43:49.999Z</time></trkpt><trkpt lat="46.13923863935274" lon="13.33873674145751"><ele>139.0</ele><time>2026-04-01T15:43:50.999Z</time></trkpt><trkpt lat="46.13940218771179" lon="13.338826867920544"><ele>139.0</ele><time>2026-04-01T15:43:51.999Z</time></trkpt><trkpt lat="46.139572051090624" lon="13.338897415033063"><ele>139.0</ele><time>2026-04-01T15:43:52.999Z</time></trkpt><trkpt lat="46.13974213799556" lon="13.33896380320588"><ele>139.0</ele><time>2026-04-01T15:43:53.999Z</time></trkpt><trkpt lat="46.139914777993475" lon="13.339023194011373"><ele>139.66666666666669</ele><time>2026-04-01T15:43:54.999Z</time></trkpt><trkpt lat="46.140089645264865" lon="13.339083840570627"><ele>140.33333333333334</ele><time>2026-04-01T15:43:55.999Z</time></trkpt><trkpt lat="46.14026742273464" lon="13.339149033145176"><ele>141.0</ele><time>2026-04-01T15:43:56.999Z</time></trkpt><trkpt lat="46.140440781246454" lon="13.339205690485388"><ele>141.0</ele><time>2026-04-01T15:43:57.999Z</time></trkpt><trkpt lat="46.14060908101442" lon="13.339263685563294"><ele>141.0</ele><time>2026-04-01T15:43:58.999Z</time></trkpt><trkpt lat="46.14077315896789" lon="13.33932223948175"><ele>141.0</ele><time>2026-04-01T15:43:59.999Z</time></trkpt><trkpt lat="46.140934860561295" lon="13.339380056974582"><ele>141.66666666666666</ele><time>2026-04-01T15:44:00.999Z</time></trkpt><trkpt lat="46.141098132559144" lon="13.339439696764572"><ele>142.33333333333331</ele><time>2026-04-01T15:44:01.999Z</time></trkpt><trkpt lat="46.141258773982884" lon="13.339494081697925"><ele>143.0</ele><time>2026-04-01T15:44:02.999Z</time></trkpt><trkpt lat="46.141423923827375" lon="13.339545297312258"><ele>143.33333333333331</ele><time>2026-04-01T15:44:03.999Z</time></trkpt><trkpt lat="46.14158755668428" lon="13.339595703845884"><ele>143.66666666666666</ele><time>2026-04-01T15:44:04.999Z</time></trkpt><trkpt lat="46.14175684232696" lon="13.339651411339794"><ele>144.0</ele><time>2026-04-01T15:44:05.999Z</time></trkpt><trkpt lat="46.141928983530654" lon="13.33971592624327"><ele>144.66666666666666</ele><time>2026-04-01T15:44:06.999Z</time></trkpt><trkpt lat="46.14210391578329" lon="13.339776953373951"><ele>145.33333333333331</ele><time>2026-04-01T15:44:07.999Z</time></trkpt><trkpt lat="46.14227943039574" lon="13.33984097879134"><ele>146.0</ele><time>2026-04-01T15:44:08.999Z</time></trkpt><trkpt lat="46.14245016041815" lon="13.33990517469942"><ele>146.0</ele><time>2026-04-01T15:44:09.999Z</time></trkpt><trkpt lat="46.142614778821915" lon="13.339974667578671"><ele>146.0</ele><time>2026-04-01T15:44:10.999Z</time></trkpt><trkpt lat="46.14277340747909" lon="13.340056883515656"><ele>146.0</ele><time>2026-04-01T15:44:11.999Z</time></trkpt><trkpt lat="46.14293573571345" lon="13.340139956146778"><ele>146.0</ele><time>2026-04-01T15:44:12.999Z</time></trkpt><trkpt lat="46.14309896800839" lon="13.340223133157448"><ele>146.0</ele><time>2026-04-01T15:44:13.999Z</time></trkpt><trkpt lat="46.14325303013043" lon="13.340311459300851"><ele>146.0</ele><time>2026-04-01T15:44:14.999Z</time></trkpt><trkpt lat="46.14340152110943" lon="13.340400704583963"><ele>146.66666666666666</ele><time>2026-04-01T15:44:15.999Z</time></trkpt><trkpt lat="46.1435530613738" lon="13.34049335227408"><ele>147.33333333333334</ele><time>2026-04-01T15:44:16.999Z</time></trkpt><trkpt lat="46.14370771607509" lon="13.340590450310055"><ele>148.0</ele><time>2026-04-01T15:44:17.999Z</time></trkpt><trkpt lat="46.14386291368362" lon="13.340690773189316"><ele>148.33333333333334</ele><time>2026-04-01T15:44:18.999Z</time></trkpt><trkpt lat="46.14402011798288" lon="13.340790964876732"><ele>148.66666666666666</ele><time>2026-04-01T15:44:19.999Z</time></trkpt><trkpt lat="46.144172328779355" lon="13.340898985866879"><ele>149.0</ele><time>2026-04-01T15:44:20.999Z</time></trkpt><trkpt lat="46.14432382338683" lon="13.341012238953887"><ele>149.66666666666666</ele><time>2026-04-01T15:44:21.999Z</time></trkpt><trkpt lat="46.14448153220675" lon="13.341128829416682"><ele>150.33333333333334</ele><time>2026-04-01T15:44:22.999Z</time></trkpt><trkpt lat="46.144645484457754" lon="13.341253031008817"><ele>151.0</ele><time>2026-04-01T15:44:23.999Z</time></trkpt><trkpt lat="46.144809554107" lon="13.341380289849464"><ele>150.66666666666669</ele><time>2026-04-01T15:44:24.999Z</time></trkpt><trkpt lat="46.14497137885588" lon="13.34150675852199"><ele>150.33333333333334</ele><time>2026-04-01T15:44:25.999Z</time></trkpt><trkpt lat="46.14513345391961" lon="13.341634097828665"><ele>150.0</ele><time>2026-04-01T15:44:26.999Z</time></trkpt><trkpt lat="46.14529177225054" lon="13.341758695539266"><ele>150.0</ele><time>2026-04-01T15:44:27.999Z</time></trkpt><trkpt lat="46.14544991609747" lon="13.341877123801634"><ele>150.0</ele><time>2026-04-01T15:44:28.999Z</time></trkpt><trkpt lat="46.14560297914852" lon="13.34199969368616"><ele>150.0</ele><time>2026-04-01T15:44:29.999Z</time></trkpt><trkpt lat="46.14575837505586" lon="13.342116611875797"><ele>150.66666666666666</ele><time>2026-04-01T15:44:30.999Z</time></trkpt><trkpt lat="46.14591429096022" lon="13.342239088928688"><ele>151.33333333333331</ele><time>2026-04-01T15:44:31.999Z</time></trkpt><trkpt lat="46.14607061681724" lon="13.342360188113568"><ele>152.0</ele><time>2026-04-01T15:44:32.999Z</time></trkpt><trkpt lat="46.146222712948585" lon="13.342482022945822"><ele>152.0</ele><time>2026-04-01T15:44:33.999Z</time></trkpt><trkpt lat="46.14637388509418" lon="13.34259809671146"><ele>152.0</ele><time>2026-04-01T15:44:34.999Z</time></trkpt><trkpt lat="46.14651961497303" lon="13.342715702689071"><ele>152.0</ele><time>2026-04-01T15:44:35.999Z</time></trkpt><trkpt lat="46.14666897241461" lon="13.342830270451458"><ele>152.0</ele><time>2026-04-01T15:44:36.999Z</time></trkpt><trkpt lat="46.146820231756216" lon="13.342946513447561"><ele>152.0</ele><time>2026-04-01T15:44:37.999Z</time></trkpt><trkpt lat="46.146970252881424" lon="13.343062095104457"><ele>152.0</ele><time>2026-04-01T15:44:38.999Z</time></trkpt><trkpt lat="46.14711821881448" lon="13.343177457874077"><ele>153.0</ele><time>2026-04-01T15:44:39.999Z</time></trkpt><trkpt lat="46.14726559343475" lon="13.34329203345408"><ele>154.0</ele><time>2026-04-01T15:44:40.999Z</time></trkpt><trkpt lat="46.14741452243929" lon="13.343408545672307"><ele>155.0</ele><time>2026-04-01T15:44:41.999Z</time></trkpt><trkpt lat="46.14756101738974" lon="13.343522319479622"><ele>155.0</ele><time>2026-04-01T15:44:43Z</time></trkpt><trkpt lat="46.14770355331835" lon="13.343632050877119"><ele>155.0</ele><time>2026-04-01T15:44:44Z</time></trkpt><trkpt lat="46.14784440474104" lon="13.343740604118999"><ele>155.0</ele><time>2026-04-01T15:44:45Z</time></trkpt><trkpt lat="46.14798285824441" lon="13.34385003685874"><ele>155.25</ele><time>2026-04-01T15:44:46Z</time></trkpt><trkpt lat="46.148119196989704" lon="13.343954283004367"><ele>155.5</ele><time>2026-04-01T15:44:47Z</time></trkpt><trkpt lat="46.14824788410063" lon="13.344044892964597"><ele>155.75</ele><time>2026-04-01T15:44:48Z</time></trkpt><trkpt lat="46.148364517731494" lon="13.34411911733331"><ele>156.0</ele><time>2026-04-01T15:44:49Z</time></trkpt><trkpt lat="46.148483928628856" lon="13.344179570901844"><ele>156.0</ele><time>2026-04-01T15:44:50Z</time></trkpt><trkpt lat="46.14862038696315" lon="13.344205169305527"><ele>156.0</ele><time>2026-04-01T15:44:51Z</time></trkpt><trkpt lat="46.14876409113653" lon="13.344220718176986"><ele>156.0</ele><time>2026-04-01T15:44:52Z</time></trkpt><trkpt lat="46.1489114154933" lon="13.344226287420895"><ele>156.0</ele><time>2026-04-01T15:44:53Z</time></trkpt><trkpt lat="46.14905893294578" lon="13.344222266791785"><ele>157.0</ele><time>2026-04-01T15:44:54Z</time></trkpt><trkpt lat="46.149210021477934" lon="13.344224556969797"><ele>158.0</ele><time>2026-04-01T15:44:55Z</time></trkpt><trkpt lat="46.149361546989574" lon="13.344225894350462"><ele>159.0</ele><time>2026-04-01T15:44:56Z</time></trkpt><trkpt lat="46.14951034687312" lon="13.344224420549356"><ele>159.0</ele><time>2026-04-01T15:44:57Z</time></trkpt><trkpt lat="46.14966118523686" lon="13.344221703854053"><ele>159.0</ele><time>2026-04-01T15:44:58Z</time></trkpt><trkpt lat="46.149812986507015" lon="13.344221380790573"><ele>159.0</ele><time>2026-04-01T15:44:59Z</time></trkpt><trkpt lat="46.149965421233205" lon="13.344220379477635"><ele>159.33333333333334</ele><time>2026-04-01T15:45:00Z</time></trkpt><trkpt lat="46.15011799164079" lon="13.344218398623946"><ele>159.66666666666669</ele><time>2026-04-01T15:45:01Z</time></trkpt><trkpt lat="46.15027116322011" lon="13.344212852660498"><ele>160.0</ele><time>2026-04-01T15:45:02Z</time></trkpt><trkpt lat="46.15042641952326" lon="13.344207406378459"><ele>160.0</ele><time>2026-04-01T15:45:03Z</time></trkpt><trkpt lat="46.15058108776181" lon="13.344205370922655"><ele>160.0</ele><time>2026-04-01T15:45:04Z</time></trkpt><trkpt lat="46.15073718654053" lon="13.34420469225178"><ele>160.0</ele><time>2026-04-01T15:45:05Z</time></trkpt><trkpt lat="46.150894235324536" lon="13.344201611485383"><ele>162.0</ele><time>2026-04-01T15:45:06Z</time></trkpt><trkpt lat="46.15105252452776" lon="13.344196734828625"><ele>164.0</ele><time>2026-04-01T15:45:07Z</time></trkpt><trkpt lat="46.15120880343999" lon="13.344192968069441"><ele>166.0</ele><time>2026-04-01T15:45:08Z</time></trkpt><trkpt lat="46.15136415390615" lon="13.344190554047973"><ele>166.0</ele><time>2026-04-01T15:45:09Z</time></trkpt><trkpt lat="46.15151412773506" lon="13.344188628942304"><ele>166.0</ele><time>2026-04-01T15:45:10Z</time></trkpt><trkpt lat="46.15165957965592" lon="13.34418637411177"><ele>166.0</ele><time>2026-04-01T15:45:11Z</time></trkpt><trkpt lat="46.151799133137146" lon="13.344182526113253"><ele>166.0</ele><time>2026-04-01T15:45:12Z</time></trkpt><trkpt lat="46.15193509317554" lon="13.344194064524624"><ele>166.0</ele><time>2026-04-01T15:45:12.999Z</time></trkpt><trkpt lat="46.15206313871933" lon="13.344237373689747"><ele>166.0</ele><time>2026-04-01T15:45:13.999Z</time></trkpt><trkpt lat="46.15217344701282" lon="13.344296973408516"><ele>166.0</ele><time>2026-04-01T15:45:14.999Z</time></trkpt><trkpt lat="46.15226863105169" lon="13.344367140204088"><ele>166.0</ele><time>2026-04-01T15:45:15.999Z</time></trkpt><trkpt lat="46.15235935573405" lon="13.344455897717298"><ele>166.8</ele><time>2026-04-01T15:45:16.999Z</time></trkpt><trkpt lat="46.15244326659144" lon="13.344556413418323"><ele>167.60000000000002</ele><time>2026-04-01T15:45:17.999Z</time></trkpt><trkpt lat="46.15251459899345" lon="13.34467629186406"><ele>168.4</ele><time>2026-04-01T15:45:18.999Z</time></trkpt><trkpt lat="46.15256208148551" lon="13.344822917410506"><ele>169.2</ele><time>2026-04-01T15:45:19.999Z</time></trkpt><trkpt lat="46.152577560958896" lon="13.344988194066318"><ele>170.0</ele><time>2026-04-01T15:45:20.999Z</time></trkpt><trkpt lat="46.15256744630001" lon="13.345138238325747"><ele>170.0</ele><time>2026-04-01T15:45:21.999Z</time></trkpt><trkpt lat="46.15254957177957" lon="13.345277536337"><ele>170.0</ele><time>2026-04-01T15:45:22.999Z</time></trkpt><trkpt lat="46.15252364358108" lon="13.345400714693396"><ele>170.0</ele><time>2026-04-01T15:45:23.999Z</time></trkpt><trkpt lat="46.15248605268694" lon="13.345513995429132"><ele>170.0</ele><time>2026-04-01T15:45:24.999Z</time></trkpt><trkpt lat="46.15246931227085" lon="13.345633850031346"><ele>170.0</ele><time>2026-04-01T15:45:25.999Z</time></trkpt><trkpt lat="46.15244410471632" lon="13.345729362695305"><ele>170.0</ele><time>2026-04-01T15:45:26.999Z</time></trkpt><trkpt lat="46.15242331843975" lon="13.345830239187832"><ele>170.2</ele><time>2026-04-01T15:45:27.999Z</time></trkpt><trkpt lat="46.15241481287193" lon="13.345921728064711"><ele>170.4</ele><time>2026-04-01T15:45:28.999Z</time></trkpt><trkpt lat="46.152541267567294" lon="13.346072254394995"><ele>170.60000000000002</ele><time>2026-04-01T15:45:31.999Z</time></trkpt><trkpt lat="46.15260976487087" lon="13.346119310249627"><ele>170.8</ele><time>2026-04-01T15:45:32.999Z</time></trkpt><trkpt lat="46.152683355338766" lon="13.346192136278825"><ele>171.0</ele><time>2026-04-01T15:45:33.999Z</time></trkpt><trkpt lat="46.15276134134513" lon="13.346261370918977"><ele>171.0</ele><time>2026-04-01T15:45:34.999Z</time></trkpt><trkpt lat="46.152836818480154" lon="13.346320252802235"><ele>171.0</ele><time>2026-04-01T15:45:35.999Z</time></trkpt><trkpt lat="46.15289492020143" lon="13.346382341869225"><ele>171.0</ele><time>2026-04-01T15:45:36.999Z</time></trkpt><trkpt lat="46.15293702518917" lon="13.346477928049216"><ele>171.0</ele><time>2026-04-01T15:45:37.999Z</time></trkpt><trkpt lat="46.152983040697634" lon="13.346585324171837"><ele>171.0</ele><time>2026-04-01T15:45:38.999Z</time></trkpt><trkpt lat="46.15304830609142" lon="13.346714062797645"><ele>171.0</ele><time>2026-04-01T15:45:39.999Z</time></trkpt><trkpt lat="46.15310810205131" lon="13.34686865507424"><ele>171.0</ele><time>2026-04-01T15:45:40.999Z</time></trkpt><trkpt lat="46.15316945827511" lon="13.34700515201712"><ele>171.0</ele><time>2026-04-01T15:45:41.999Z</time></trkpt><trkpt lat="46.15323419556233" lon="13.347143998536593"><ele>171.0</ele><time>2026-04-01T15:45:42.999Z</time></trkpt><trkpt lat="46.153309116248174" lon="13.347284525669272"><ele>171.0</ele><time>2026-04-01T15:45:43.999Z</time></trkpt><trkpt lat="46.15340033347505" lon="13.347420096366038"><ele>171.5</ele><time>2026-04-01T15:45:44.999Z</time></trkpt><trkpt lat="46.15349131584071" lon="13.347546645252404"><ele>172.0</ele><time>2026-04-01T15:45:45.999Z</time></trkpt><trkpt lat="46.15360312431281" lon="13.347663343827383"><ele>172.5</ele><time>2026-04-01T15:45:46.999Z</time></trkpt><trkpt lat="46.153725256917696" lon="13.347776502657313"><ele>173.0</ele><time>2026-04-01T15:45:47.999Z</time></trkpt><trkpt lat="46.153858321741474" lon="13.347877292961693"><ele>173.0</ele><time>2026-04-01T15:45:48.999Z</time></trkpt><trkpt lat="46.15400281525472" lon="13.347970352207435"><ele>173.0</ele><time>2026-04-01T15:45:49.999Z</time></trkpt><trkpt lat="46.15413770632621" lon="13.348057361442406"><ele>173.0</ele><time>2026-04-01T15:45:50.999Z</time></trkpt><trkpt lat="46.15424109664855" lon="13.348124718342687"><ele>173.0</ele><time>2026-04-01T15:45:51.999Z</time></trkpt><trkpt lat="46.154320294821616" lon="13.348180629555062"><ele>174.0</ele><time>2026-04-01T15:45:52.999Z</time></trkpt><trkpt lat="46.154407536974624" lon="13.348239385535235"><ele>175.0</ele><time>2026-04-01T15:45:53.999Z</time></trkpt><trkpt lat="46.154539059279145" lon="13.348317180687854"><ele>176.0</ele><time>2026-04-01T15:45:54.999Z</time></trkpt><trkpt lat="46.15469655719919" lon="13.348432974055655"><ele>177.0</ele><time>2026-04-01T15:45:55.999Z</time></trkpt><trkpt lat="46.15485125901139" lon="13.348585479834815"><ele>178.0</ele><time>2026-04-01T15:45:56.999Z</time></trkpt><trkpt lat="46.15497376940455" lon="13.348750649514638"><ele>179.0</ele><time>2026-04-01T15:45:57.999Z</time></trkpt><trkpt lat="46.15508999371288" lon="13.348915083082916"><ele>180.0</ele><time>2026-04-01T15:45:58.999Z</time></trkpt><trkpt lat="46.155217120693536" lon="13.349046680167163"><ele>180.0</ele><time>2026-04-01T15:45:59.999Z</time></trkpt><trkpt lat="46.155366855257036" lon="13.34914340807136"><ele>180.0</ele><time>2026-04-01T15:46:00.999Z</time></trkpt><trkpt lat="46.15553066220418" lon="13.349233935315006"><ele>180.0</ele><time>2026-04-01T15:46:01.999Z</time></trkpt><trkpt lat="46.15568046291543" lon="13.349319423112604"><ele>179.75</ele><time>2026-04-01T15:46:02.999Z</time></trkpt><trkpt lat="46.155813585463896" lon="13.349404988822723"><ele>179.5</ele><time>2026-04-01T15:46:03.999Z</time></trkpt><trkpt lat="46.155944650137776" lon="13.349513357790608"><ele>179.25</ele><time>2026-04-01T15:46:04.999Z</time></trkpt><trkpt lat="46.15605518667793" lon="13.349644953868648"><ele>179.0</ele><time>2026-04-01T15:46:05.999Z</time></trkpt><trkpt lat="46.15615803425506" lon="13.34979147172208"><ele>179.0</ele><time>2026-04-01T15:46:06.999Z</time></trkpt><trkpt lat="46.15624778901656" lon="13.349975755608082"><ele>179.0</ele><time>2026-04-01T15:46:07.999Z</time></trkpt><trkpt lat="46.15631814581849" lon="13.350141194127168"><ele>179.0</ele><time>2026-04-01T15:46:08.999Z</time></trkpt><trkpt lat="46.15638412615268" lon="13.35025474986077"><ele>179.0</ele><time>2026-04-01T15:46:09.999Z</time></trkpt><trkpt lat="46.15643821888266" lon="13.350362358104531"><ele>179.0</ele><time>2026-04-01T15:46:10.999Z</time></trkpt><trkpt lat="46.15649358283275" lon="13.350465006646868"><ele>179.0</ele><time>2026-04-01T15:46:11.999Z</time></trkpt><trkpt lat="46.156556631884214" lon="13.350533047818262"><ele>179.0</ele><time>2026-04-01T15:46:12.999Z</time></trkpt><trkpt lat="46.156632755410065" lon="13.350562537074435"><ele>179.0</ele><time>2026-04-01T15:46:13.999Z</time></trkpt><trkpt lat="46.1567059234316" lon="13.35059380725393"><ele>179.0</ele><time>2026-04-01T15:46:14.999Z</time></trkpt><trkpt lat="46.1567853714106" lon="13.350630032300197"><ele>179.0</ele><time>2026-04-01T15:46:15.999Z</time></trkpt><trkpt lat="46.15689160146333" lon="13.350684854868689"><ele>180.0</ele><time>2026-04-01T15:46:16.999Z</time></trkpt><trkpt lat="46.15700360333028" lon="13.350737097568922"><ele>181.0</ele><time>2026-04-01T15:46:17.999Z</time></trkpt><trkpt lat="46.15713306598391" lon="13.350816569644477"><ele>182.0</ele><time>2026-04-01T15:46:18.999Z</time></trkpt><trkpt lat="46.15726618146757" lon="13.350907848234367"><ele>183.0</ele><time>2026-04-01T15:46:19.999Z</time></trkpt><trkpt lat="46.15738949517392" lon="13.351005633882364"><ele>184.66666666666666</ele><time>2026-04-01T15:46:20.999Z</time></trkpt><trkpt lat="46.15751074267295" lon="13.35113101257758"><ele>186.33333333333331</ele><time>2026-04-01T15:46:21.999Z</time></trkpt><trkpt lat="46.15763356239589" lon="13.351296940882982"><ele>188.0</ele><time>2026-04-01T15:46:22.999Z</time></trkpt><trkpt lat="46.157757232453854" lon="13.3514709241832"><ele>188.0</ele><time>2026-04-01T15:46:23.999Z</time></trkpt><trkpt lat="46.15787269601829" lon="13.351624955997602"><ele>188.0</ele><time>2026-04-01T15:46:24.999Z</time></trkpt><trkpt lat="46.15798332218006" lon="13.351784444986665"><ele>188.0</ele><time>2026-04-01T15:46:25.999Z</time></trkpt><trkpt lat="46.15810427619849" lon="13.35195089649029"><ele>187.66666666666666</ele><time>2026-04-01T15:46:26.999Z</time></trkpt><trkpt lat="46.15822387362784" lon="13.352109877394783"><ele>187.33333333333334</ele><time>2026-04-01T15:46:27.999Z</time></trkpt><trkpt lat="46.15833487683217" lon="13.352261621842617"><ele>187.0</ele><time>2026-04-01T15:46:28.999Z</time></trkpt><trkpt lat="46.15843954512804" lon="13.352402647952154"><ele>187.0</ele><time>2026-04-01T15:46:29.999Z</time></trkpt><trkpt lat="46.15853229572072" lon="13.35253252229921"><ele>187.0</ele><time>2026-04-01T15:46:30.999Z</time></trkpt><trkpt lat="46.158635283043004" lon="13.352667280369788"><ele>187.0</ele><time>2026-04-01T15:46:31.999Z</time></trkpt><trkpt lat="46.158749118171926" lon="13.352783847622149"><ele>187.0</ele><time>2026-04-01T15:46:32.999Z</time></trkpt><trkpt lat="46.158876628287594" lon="13.352894474868258"><ele>187.0</ele><time>2026-04-01T15:46:33.999Z</time></trkpt><trkpt lat="46.15901401205518" lon="13.353002224263552"><ele>187.0</ele><time>2026-04-01T15:46:34.999Z</time></trkpt><trkpt lat="46.159165096701585" lon="13.35309824346238"><ele>187.0</ele><time>2026-04-01T15:46:35.999Z</time></trkpt><trkpt lat="46.15931104359059" lon="13.35320339477314"><ele>188.66666666666669</ele><time>2026-04-01T15:46:36.999Z</time></trkpt><trkpt lat="46.15946359807489" lon="13.353311944836554"><ele>190.33333333333334</ele><time>2026-04-01T15:46:37.999Z</time></trkpt><trkpt lat="46.1596151984704" lon="13.35341757571056"><ele>192.0</ele><time>2026-04-01T15:46:38.999Z</time></trkpt><trkpt lat="46.15976014098931" lon="13.35351950868355"><ele>193.0</ele><time>2026-04-01T15:46:39.999Z</time></trkpt><trkpt lat="46.159894205406935" lon="13.353639837894455"><ele>194.0</ele><time>2026-04-01T15:46:40.999Z</time></trkpt><trkpt lat="46.16001858289188" lon="13.353800314125396"><ele>195.0</ele><time>2026-04-01T15:46:41.999Z</time></trkpt><trkpt lat="46.160130007773006" lon="13.35397237207359"><ele>195.0</ele><time>2026-04-01T15:46:42.999Z</time></trkpt><trkpt lat="46.16024107430673" lon="13.35415227471453"><ele>195.0</ele><time>2026-04-01T15:46:43.999Z</time></trkpt><trkpt lat="46.16035218353577" lon="13.354332771801301"><ele>195.0</ele><time>2026-04-01T15:46:44.999Z</time></trkpt><trkpt lat="46.16046628228686" lon="13.354508740927448"><ele>195.0</ele><time>2026-04-01T15:46:45.999Z</time></trkpt><trkpt lat="46.16057989539174" lon="13.35467890489778"><ele>195.0</ele><time>2026-04-01T15:46:46.999Z</time></trkpt><trkpt lat="46.16069070140746" lon="13.354850828475376"><ele>195.0</ele><time>2026-04-01T15:46:47.999Z</time></trkpt><trkpt lat="46.16080029491822" lon="13.355019248190889"><ele>196.66666666666669</ele><time>2026-04-01T15:46:49Z</time></trkpt><trkpt lat="46.160914983295406" lon="13.35517009906814"><ele>198.33333333333334</ele><time>2026-04-01T15:46:50Z</time></trkpt><trkpt lat="46.161035727662885" lon="13.35531677964396"><ele>200.0</ele><time>2026-04-01T15:46:51Z</time></trkpt><trkpt lat="46.16115265827194" lon="13.355469541694216"><ele>198.33333333333334</ele><time>2026-04-01T15:46:52Z</time></trkpt><trkpt lat="46.161265113520265" lon="13.355637419888271"><ele>196.66666666666669</ele><time>2026-04-01T15:46:53Z</time></trkpt><trkpt lat="46.161374279358945" lon="13.355824920763002"><ele>195.0</ele><time>2026-04-01T15:46:54Z</time></trkpt><trkpt lat="46.16148051656634" lon="13.356012986598268"><ele>197.66666666666669</ele><time>2026-04-01T15:46:55Z</time></trkpt><trkpt lat="46.16158351554379" lon="13.356190442071373"><ele>200.33333333333334</ele><time>2026-04-01T15:46:56Z</time></trkpt><trkpt lat="46.16168690016606" lon="13.356349523768769"><ele>203.0</ele><time>2026-04-01T15:46:57Z</time></trkpt><trkpt lat="46.161801396499264" lon="13.356481559384354"><ele>203.0</ele><time>2026-04-01T15:46:58Z</time></trkpt><trkpt lat="46.16192262852785" lon="13.356590715636568"><ele>203.0</ele><time>2026-04-01T15:46:59Z</time></trkpt><trkpt lat="46.162042163733204" lon="13.356692307181556"><ele>203.0</ele><time>2026-04-01T15:47:00Z</time></trkpt><trkpt lat="46.162143404323096" lon="13.356788047283832"><ele>203.0</ele><time>2026-04-01T15:47:01Z</time></trkpt><trkpt lat="46.16223290000601" lon="13.356874166555858"><ele>203.0</ele><time>2026-04-01T15:47:02Z</time></trkpt><trkpt lat="46.162309375695266" lon="13.356947372811998"><ele>203.0</ele><time>2026-04-01T15:47:03Z</time></trkpt><trkpt lat="46.162370680813666" lon="13.357011394681939"><ele>203.0</ele><time>2026-04-01T15:47:04Z</time></trkpt><trkpt lat="46.162442927338574" lon="13.357091811337577"><ele>203.0</ele><time>2026-04-01T15:47:05Z</time></trkpt><trkpt lat="46.16253914767794" lon="13.35719831932688"><ele>203.0</ele><time>2026-04-01T15:47:06Z</time></trkpt><trkpt lat="46.16265136858841" lon="13.357324832559964"><ele>202.33333333333334</ele><time>2026-04-01T15:47:07Z</time></trkpt><trkpt lat="46.16277239039973" lon="13.357459179250112"><ele>201.66666666666669</ele><time>2026-04-01T15:47:08Z</time></trkpt><trkpt lat="46.16290256357382" lon="13.35758464855943"><ele>201.0</ele><time>2026-04-01T15:47:09Z</time></trkpt><trkpt lat="46.163030583835564" lon="13.357703751028144"><ele>201.0</ele><time>2026-04-01T15:47:10Z</time></trkpt><trkpt lat="46.163153620457486" lon="13.357817683635966"><ele>201.0</ele><time>2026-04-01T15:47:11Z</time></trkpt><trkpt lat="46.163272579517596" lon="13.357916052222556"><ele>201.0</ele><time>2026-04-01T15:47:12Z</time></trkpt><trkpt lat="46.163402430352505" lon="13.358009078801802"><ele>201.0</ele><time>2026-04-01T15:47:13Z</time></trkpt><trkpt lat="46.16355156159215" lon="13.358083841454219"><ele>202.66666666666669</ele><time>2026-04-01T15:47:14Z</time></trkpt><trkpt lat="46.16371785845184" lon="13.358144473693825"><ele>204.33333333333334</ele><time>2026-04-01T15:47:15Z</time></trkpt><trkpt lat="46.16388757588223" lon="13.358219597184318"><ele>206.0</ele><time>2026-04-01T15:47:16Z</time></trkpt><trkpt lat="46.164060206649985" lon="13.358291686509027"><ele>207.0</ele><time>2026-04-01T15:47:16.999Z</time></trkpt><trkpt lat="46.16422432085608" lon="13.358358126073943"><ele>208.0</ele><time>2026-04-01T15:47:17.999Z</time></trkpt><trkpt lat="46.16437699970511" lon="13.358421744821452"><ele>209.0</ele><time>2026-04-01T15:47:18.999Z</time></trkpt><trkpt lat="46.16452583550046" lon="13.35846784187156"><ele>209.0</ele><time>2026-04-01T15:47:19.999Z</time></trkpt><trkpt lat="46.1646631071758" lon="13.35852530062965"><ele>209.0</ele><time>2026-04-01T15:47:20.999Z</time></trkpt><trkpt lat="46.164794619969626" lon="13.358583323372207"><ele>209.0</ele><time>2026-04-01T15:47:21.999Z</time></trkpt><trkpt lat="46.16492268828502" lon="13.35864010432505"><ele>209.0</ele><time>2026-04-01T15:47:22.999Z</time></trkpt><trkpt lat="46.165053278056455" lon="13.358707326085883"><ele>208.75</ele><time>2026-04-01T15:47:23.999Z</time></trkpt><trkpt lat="46.165174388788216" lon="13.358789297004598"><ele>208.5</ele><time>2026-04-01T15:47:24.999Z</time></trkpt><trkpt lat="46.16528308593351" lon="13.358888524378877"><ele>208.25</ele><time>2026-04-01T15:47:25.999Z</time></trkpt><trkpt lat="46.165383281079684" lon="13.358998396440324"><ele>208.0</ele><time>2026-04-01T15:47:26.999Z</time></trkpt><trkpt lat="46.165468372147366" lon="13.359092635736094"><ele>207.8</ele><time>2026-04-01T15:47:27.999Z</time></trkpt><trkpt lat="46.16553768187893" lon="13.35916982562939"><ele>207.60000000000002</ele><time>2026-04-01T15:47:28.999Z</time></trkpt><trkpt lat="46.165610089539655" lon="13.359250498459787"><ele>207.39999999999998</ele><time>2026-04-01T15:47:29.999Z</time></trkpt><trkpt lat="46.1656897416849" lon="13.359341635278158"><ele>207.2</ele><time>2026-04-01T15:47:30.999Z</time></trkpt><trkpt lat="46.16576497543033" lon="13.359433677964832"><ele>207.0</ele><time>2026-04-01T15:47:31.999Z</time></trkpt><trkpt lat="46.1658441985229" lon="13.359521080012614"><ele>207.8</ele><time>2026-04-01T15:47:32.999Z</time></trkpt><trkpt lat="46.16592828415788" lon="13.35961257709821"><ele>208.6</ele><time>2026-04-01T15:47:33.999Z</time></trkpt><trkpt lat="46.16601207023553" lon="13.359703325355076"><ele>209.4</ele><time>2026-04-01T15:47:34.999Z</time></trkpt><trkpt lat="46.16610691075514" lon="13.359794333366667"><ele>210.20000000000002</ele><time>2026-04-01T15:47:35.999Z</time></trkpt><trkpt lat="46.16620215850094" lon="13.359895714485607"><ele>211.0</ele><time>2026-04-01T15:47:36.999Z</time></trkpt><trkpt lat="46.16630232747828" lon="13.360000674392316"><ele>212.20000000000002</ele><time>2026-04-01T15:47:37.999Z</time></trkpt><trkpt lat="46.16640183154529" lon="13.360112294197398"><ele>213.4</ele><time>2026-04-01T15:47:38.999Z</time></trkpt><trkpt lat="46.166488740406415" lon="13.360223743795599"><ele>214.6</ele><time>2026-04-01T15:47:39.999Z</time></trkpt><trkpt lat="46.16655989489568" lon="13.360329239782072"><ele>215.8</ele><time>2026-04-01T15:47:40.999Z</time></trkpt><trkpt lat="46.1666241046147" lon="13.360423374421304"><ele>217.0</ele><time>2026-04-01T15:47:41.999Z</time></trkpt><trkpt lat="46.16669144522688" lon="13.360508989751365"><ele>219.8</ele><time>2026-04-01T15:47:42.999Z</time></trkpt><trkpt lat="46.16675297323519" lon="13.36057414902024"><ele>222.6</ele><time>2026-04-01T15:47:43.999Z</time></trkpt><trkpt lat="46.1668298096479" lon="13.360608567786354"><ele>225.40000000000003</ele><time>2026-04-01T15:47:44.999Z</time></trkpt><trkpt lat="46.166930326904584" lon="13.36061494534662"><ele>228.20000000000002</ele><time>2026-04-01T15:47:45.999Z</time></trkpt><trkpt lat="46.1670317138825" lon="13.360618128499402"><ele>231.0</ele><time>2026-04-01T15:47:46.999Z</time></trkpt><trkpt lat="46.167128693475696" lon="13.360646079357522"><ele>231.0</ele><time>2026-04-01T15:47:47.999Z</time></trkpt><trkpt lat="46.16722614191863" lon="13.36067013431406"><ele>231.0</ele><time>2026-04-01T15:47:48.999Z</time></trkpt><trkpt lat="46.167319422640844" lon="13.360693509259931"><ele>231.0</ele><time>2026-04-01T15:47:49.999Z</time></trkpt><trkpt lat="46.167399291765605" lon="13.360728692652874"><ele>231.0</ele><time>2026-04-01T15:47:50.999Z</time></trkpt><trkpt lat="46.16747991588588" lon="13.360757162455975"><ele>231.0</ele><time>2026-04-01T15:47:51.999Z</time></trkpt><trkpt lat="46.16754820060328" lon="13.360801838910175"><ele>231.0</ele><time>2026-04-01T15:47:52.999Z</time></trkpt><trkpt lat="46.16760247306856" lon="13.360873024868063"><ele>231.0</ele><time>2026-04-01T15:47:53.999Z</time></trkpt><trkpt lat="46.16763050796085" lon="13.36098230951697"><ele>231.00000000000003</ele><time>2026-04-01T15:47:54.999Z</time></trkpt><trkpt lat="46.16765609070705" lon="13.36109785324254"><ele>231.00000000000003</ele><time>2026-04-01T15:47:55.999Z</time></trkpt><trkpt lat="46.167663472666064" lon="13.361231896903604"><ele>231.0</ele><time>2026-04-01T15:47:56.999Z</time></trkpt><trkpt lat="46.16768237917949" lon="13.361380562367259"><ele>231.0</ele><time>2026-04-01T15:47:57.999Z</time></trkpt><trkpt lat="46.16771167458591" lon="13.361527804496268"><ele>231.0</ele><time>2026-04-01T15:47:58.999Z</time></trkpt><trkpt lat="46.167713778660094" lon="13.3616712269571"><ele>231.00000000000003</ele><time>2026-04-01T15:47:59.999Z</time></trkpt><trkpt lat="46.16772137800752" lon="13.361820652646935"><ele>231.00000000000003</ele><time>2026-04-01T15:48:00.999Z</time></trkpt><trkpt lat="46.167714167205844" lon="13.361959551473447"><ele>231.0</ele><time>2026-04-01T15:48:01.999Z</time></trkpt><trkpt lat="46.167690797600706" lon="13.3620912652006"><ele>231.0</ele><time>2026-04-01T15:48:02.999Z</time></trkpt><trkpt lat="46.16764644150581" lon="13.362224719849738"><ele>236.75</ele><time>2026-04-01T15:48:03.999Z</time></trkpt><trkpt lat="46.16759970605171" lon="13.362377489163743"><ele>242.5</ele><time>2026-04-01T15:48:04.999Z</time></trkpt><trkpt lat="46.16757299633001" lon="13.362546644075998"><ele>248.25</ele><time>2026-04-01T15:48:05.999Z</time></trkpt><trkpt lat="46.167567946628026" lon="13.362726707240734"><ele>254.0</ele><time>2026-04-01T15:48:06.999Z</time></trkpt><trkpt lat="46.16758885913513" lon="13.362931855708702"><ele>257.33333333333337</ele><time>2026-04-01T15:48:07.999Z</time></trkpt><trkpt lat="46.16759878690902" lon="13.363149266689222"><ele>260.6666666666667</ele><time>2026-04-01T15:48:08.999Z</time></trkpt><trkpt lat="46.16761945274559" lon="13.363356826017016"><ele>264.0</ele><time>2026-04-01T15:48:09.999Z</time></trkpt><trkpt lat="46.167642294363034" lon="13.363579522069825"><ele>264.0</ele><time>2026-04-01T15:48:10.999Z</time></trkpt><trkpt lat="46.16767009079404" lon="13.36381257952431"><ele>264.0</ele><time>2026-04-01T15:48:11.999Z</time></trkpt><trkpt lat="46.16770750853198" lon="13.364031712682689"><ele>264.0</ele><time>2026-04-01T15:48:12.999Z</time></trkpt><trkpt lat="46.167746235242475" lon="13.364206904536518"><ele>264.0</ele><time>2026-04-01T15:48:13.999Z</time></trkpt><trkpt lat="46.16776169270836" lon="13.364383279974696"><ele>266.0</ele><time>2026-04-01T15:48:14.999Z</time></trkpt><trkpt lat="46.167757640162556" lon="13.364557296053647"><ele>268.0</ele><time>2026-04-01T15:48:15.999Z</time></trkpt><trkpt lat="46.16782539786399" lon="13.36472863910426"><ele>270.0</ele><time>2026-04-01T15:48:16.999Z</time></trkpt><trkpt lat="46.16791112269066" lon="13.364899861162677"><ele>272.0</ele><time>2026-04-01T15:48:17.999Z</time></trkpt><trkpt lat="46.16800966591549" lon="13.36506033290824"><ele>276.25</ele><time>2026-04-01T15:48:18.999Z</time></trkpt><trkpt lat="46.16810476937756" lon="13.365215379259965"><ele>280.5</ele><time>2026-04-01T15:48:19.999Z</time></trkpt><trkpt lat="46.168194777016545" lon="13.365379452651046"><ele>284.75</ele><time>2026-04-01T15:48:20.999Z</time></trkpt><trkpt lat="46.16829228467484" lon="13.36554834792233"><ele>289.0</ele><time>2026-04-01T15:48:21.999Z</time></trkpt><trkpt lat="46.168385009767526" lon="13.365706407815857"><ele>284.75</ele><time>2026-04-01T15:48:22.999Z</time></trkpt><trkpt lat="46.16846984117178" lon="13.365836248829204"><ele>280.5</ele><time>2026-04-01T15:48:23.999Z</time></trkpt><trkpt lat="46.16855995124805" lon="13.365985842908705"><ele>276.25</ele><time>2026-04-01T15:48:24.999Z</time></trkpt><trkpt lat="46.16863775236797" lon="13.366170114717928"><ele>272.0</ele><time>2026-04-01T15:48:25.999Z</time></trkpt><trkpt lat="46.16869090711803" lon="13.366361413066654"><ele>272.0</ele><time>2026-04-01T15:48:26.999Z</time></trkpt><trkpt lat="46.168743101586436" lon="13.3665412326841"><ele>272.0</ele><time>2026-04-01T15:48:27.999Z</time></trkpt><trkpt lat="46.168782828911304" lon="13.366745561598204"><ele>272.0</ele><time>2026-04-01T15:48:28.999Z</time></trkpt><trkpt lat="46.16880976317799" lon="13.366969787813186"><ele>272.0</ele><time>2026-04-01T15:48:29.999Z</time></trkpt><trkpt lat="46.16883790690307" lon="13.367185529816673"><ele>267.33333333333337</ele><time>2026-04-01T15:48:30.999Z</time></trkpt><trkpt lat="46.168888697882274" lon="13.36740628278062"><ele>262.6666666666667</ele><time>2026-04-01T15:48:31.999Z</time></trkpt><trkpt lat="46.16897109068114" lon="13.367628516580679"><ele>258.0</ele><time>2026-04-01T15:48:32.999Z</time></trkpt><trkpt lat="46.1690634312377" lon="13.36783828921296"><ele>265.0</ele><time>2026-04-01T15:48:33.999Z</time></trkpt><trkpt lat="46.16914482763927" lon="13.368027497047096"><ele>272.0</ele><time>2026-04-01T15:48:34.999Z</time></trkpt><trkpt lat="46.169207757260565" lon="13.368200842266889"><ele>279.0</ele><time>2026-04-01T15:48:35.999Z</time></trkpt><trkpt lat="46.16926306148543" lon="13.368363010131915"><ele>286.0</ele><time>2026-04-01T15:48:36.999Z</time></trkpt><trkpt lat="46.16933144335449" lon="13.368503199588828"><ele>286.0</ele><time>2026-04-01T15:48:37.999Z</time></trkpt><trkpt lat="46.16938488851366" lon="13.368616195076969"><ele>286.0</ele><time>2026-04-01T15:48:38.999Z</time></trkpt><trkpt lat="46.16941669186426" lon="13.368721575425065"><ele>286.0</ele><time>2026-04-01T15:48:39.999Z</time></trkpt><trkpt lat="46.16945832564559" lon="13.368806073556444"><ele>286.0</ele><time>2026-04-01T15:48:40.999Z</time></trkpt><trkpt lat="46.16949945737591" lon="13.368925755873665"><ele>286.0</ele><time>2026-04-01T15:48:42.999Z</time></trkpt><trkpt lat="46.1694499987954" lon="13.369005816731041"><ele>286.0</ele><time>2026-04-01T15:48:44.999Z</time></trkpt><trkpt lat="46.16937969236015" lon="13.368872131425567"><ele>286.0</ele><time>2026-04-01T15:48:46.999Z</time></trkpt><trkpt lat="46.16933879663155" lon="13.368794440916721"><ele>286.0</ele><time>2026-04-01T15:48:47.999Z</time></trkpt><trkpt lat="46.16928186434743" lon="13.368683763987121"><ele>286.0</ele><time>2026-04-01T15:48:48.999Z</time></trkpt><trkpt lat="46.169203262373294" lon="13.368554903093955"><ele>286.0</ele><time>2026-04-01T15:48:49.999Z</time></trkpt><trkpt lat="46.16910178625581" lon="13.368424671517484"><ele>286.0</ele><time>2026-04-01T15:48:50.999Z</time></trkpt><trkpt lat="46.169000649794114" lon="13.368284121382198"><ele>287.25</ele><time>2026-04-01T15:48:51.999Z</time></trkpt><trkpt lat="46.16888247309307" lon="13.368154407361214"><ele>288.5</ele><time>2026-04-01T15:48:52.999Z</time></trkpt><trkpt lat="46.16876288996147" lon="13.368048622240927"><ele>289.75</ele><time>2026-04-01T15:48:53.999Z</time></trkpt><trkpt lat="46.16869133388671" lon="13.367898056353937"><ele>291.0</ele><time>2026-04-01T15:48:55Z</time></trkpt><trkpt lat="46.16863434308227" lon="13.367739559794883"><ele>291.0</ele><time>2026-04-01T15:48:56Z</time></trkpt><trkpt lat="46.168567457070615" lon="13.36756986726099"><ele>291.0</ele><time>2026-04-01T15:48:57Z</time></trkpt><trkpt lat="46.16847272007412" lon="13.367439948697111"><ele>291.0</ele><time>2026-04-01T15:48:58Z</time></trkpt><trkpt lat="46.1684193940941" lon="13.36729117541978"><ele>291.0</ele><time>2026-04-01T15:48:59Z</time></trkpt><trkpt lat="46.1683854021706" lon="13.367151470008414"><ele>291.2</ele><time>2026-04-01T15:49:00Z</time></trkpt><trkpt lat="46.168375266222206" lon="13.367007025281263"><ele>291.40000000000003</ele><time>2026-04-01T15:49:01Z</time></trkpt><trkpt lat="46.16837179334857" lon="13.366892241343376"><ele>291.6</ele><time>2026-04-01T15:49:02Z</time></trkpt><trkpt lat="46.16834064258815" lon="13.366806438893043"><ele>291.8</ele><time>2026-04-01T15:49:03Z</time></trkpt><trkpt lat="46.16822500957333" lon="13.366738733738998"><ele>292.0</ele><time>2026-04-01T15:49:05Z</time></trkpt><trkpt lat="46.1681469583344" lon="13.366818946207893"><ele>292.0</ele><time>2026-04-01T15:49:06Z</time></trkpt><trkpt lat="46.168076880231105" lon="13.366942134221308"><ele>292.0</ele><time>2026-04-01T15:49:07Z</time></trkpt><trkpt lat="46.16801699528784" lon="13.367054756322922"><ele>292.0</ele><time>2026-04-01T15:49:08Z</time></trkpt><trkpt lat="46.167947645087374" lon="13.36718652777175"><ele>292.0</ele><time>2026-04-01T15:49:09Z</time></trkpt><trkpt lat="46.16787501955908" lon="13.36733752511203"><ele>292.0</ele><time>2026-04-01T15:49:10Z</time></trkpt><trkpt lat="46.16778565439694" lon="13.36751163030519"><ele>292.0</ele><time>2026-04-01T15:49:11Z</time></trkpt><trkpt lat="46.16769448547491" lon="13.367676800650182"><ele>292.0</ele><time>2026-04-01T15:49:12Z</time></trkpt><trkpt lat="46.16761179613093" lon="13.367816299443898"><ele>292.0</ele><time>2026-04-01T15:49:13Z</time></trkpt><trkpt lat="46.167540092806725" lon="13.367949500648104"><ele>295.25</ele><time>2026-04-01T15:49:14Z</time></trkpt><trkpt lat="46.1674827588232" lon="13.368108492915812"><ele>298.5</ele><time>2026-04-01T15:49:15Z</time></trkpt><trkpt lat="46.16744956947769" lon="13.3682851439992"><ele>301.75</ele><time>2026-04-01T15:49:16Z</time></trkpt><trkpt lat="46.167436457356615" lon="13.368485345881878"><ele>305.0</ele><time>2026-04-01T15:49:17Z</time></trkpt><trkpt lat="46.16742466568059" lon="13.368637580115125"><ele>305.0</ele><time>2026-04-01T15:49:18Z</time></trkpt><trkpt lat="46.167397259350146" lon="13.368778324673183"><ele>305.0</ele><time>2026-04-01T15:49:19Z</time></trkpt><trkpt lat="46.167329374079834" lon="13.368893982133285"><ele>305.0</ele><time>2026-04-01T15:49:20Z</time></trkpt><trkpt lat="46.16724208864285" lon="13.369003620359967"><ele>305.0</ele><time>2026-04-01T15:49:20.999Z</time></trkpt><trkpt lat="46.16714804005394" lon="13.369117506889031"><ele>305.0</ele><time>2026-04-01T15:49:21.999Z</time></trkpt><trkpt lat="46.16702967214388" lon="13.369162513191196"><ele>306.6</ele><time>2026-04-01T15:49:22.999Z</time></trkpt><trkpt lat="46.16691941237644" lon="13.369236995536374"><ele>308.2</ele><time>2026-04-01T15:49:23.999Z</time></trkpt><trkpt lat="46.1668283535136" lon="13.369262134602913"><ele>309.8</ele><time>2026-04-01T15:49:24.999Z</time></trkpt><trkpt lat="46.16675686428339" lon="13.36928607251542"><ele>311.4</ele><time>2026-04-01T15:49:25.999Z</time></trkpt><trkpt lat="46.1666768755711" lon="13.369378129928807"><ele>313.0</ele><time>2026-04-01T15:49:27.999Z</time></trkpt><trkpt lat="46.16675838809481" lon="13.369537341913883"><ele>313.0</ele><time>2026-04-01T15:49:29.999Z</time></trkpt><trkpt lat="46.16687372824062" lon="13.369466706610687"><ele>313.0</ele><time>2026-04-01T15:49:30.999Z</time></trkpt><trkpt lat="46.166977661664696" lon="13.369403389306811"><ele>313.0</ele><time>2026-04-01T15:49:31.999Z</time></trkpt><trkpt lat="46.16709351095323" lon="13.369387414361023"><ele>313.0</ele><time>2026-04-01T15:49:32.999Z</time></trkpt><trkpt lat="46.16720653338727" lon="13.369424374600765"><ele>313.0</ele><time>2026-04-01T15:49:33.999Z</time></trkpt><trkpt lat="46.16729197453225" lon="13.369459475896551"><ele>313.0</ele><time>2026-04-01T15:49:34.999Z</time></trkpt><trkpt lat="46.1673825160913" lon="13.369466046211134"><ele>313.0</ele><time>2026-04-01T15:49:35.999Z</time></trkpt><trkpt lat="46.1674833653548" lon="13.369404803210227"><ele>313.0</ele><time>2026-04-01T15:49:36.999Z</time></trkpt><trkpt lat="46.16757669327486" lon="13.369301762315057"><ele>313.0</ele><time>2026-04-01T15:49:37.999Z</time></trkpt><trkpt lat="46.16766553231284" lon="13.369163489398309"><ele>314.5</ele><time>2026-04-01T15:49:38.999Z</time></trkpt><trkpt lat="46.16776248795993" lon="13.369009224533984"><ele>316.0</ele><time>2026-04-01T15:49:39.999Z</time></trkpt><trkpt lat="46.16785322222596" lon="13.368856525273701"><ele>317.5</ele><time>2026-04-01T15:49:40.999Z</time></trkpt><trkpt lat="46.16793991008648" lon="13.368727651246651"><ele>319.0</ele><time>2026-04-01T15:49:41.999Z</time></trkpt><trkpt lat="46.168017996575074" lon="13.368625749286153"><ele>319.0</ele><time>2026-04-01T15:49:42.999Z</time></trkpt><trkpt lat="46.168096992285314" lon="13.368559703483339"><ele>319.0</ele><time>2026-04-01T15:49:43.999Z</time></trkpt><trkpt lat="46.168170848327556" lon="13.368543148484964"><ele>319.0</ele><time>2026-04-01T15:49:44.999Z</time></trkpt><trkpt lat="46.168247295422915" lon="13.368599033855576"><ele>319.0</ele><time>2026-04-01T15:49:46.999Z</time></trkpt><trkpt lat="46.168208213849006" lon="13.368748184062193"><ele>319.0</ele><time>2026-04-01T15:49:48.999Z</time></trkpt><trkpt lat="46.168163499498235" lon="13.368834980102646"><ele>319.0</ele><time>2026-04-01T15:49:49.999Z</time></trkpt><trkpt lat="46.168105334652076" lon="13.368940470872415"><ele>319.0</ele><time>2026-04-01T15:49:50.999Z</time></trkpt><trkpt lat="46.16804857818352" lon="13.36908472979037"><ele>319.0</ele><time>2026-04-01T15:49:51.999Z</time></trkpt><trkpt lat="46.167999849146746" lon="13.369265878607612"><ele>319.0</ele><time>2026-04-01T15:49:52.999Z</time></trkpt><trkpt lat="46.16795181046848" lon="13.36945028684453"><ele>319.0</ele><time>2026-04-01T15:49:53.999Z</time></trkpt><trkpt lat="46.167887829739215" lon="13.369650510644526"><ele>325.0</ele><time>2026-04-01T15:49:54.999Z</time></trkpt><trkpt lat="46.16781360934656" lon="13.369857321781454"><ele>331.0</ele><time>2026-04-01T15:49:55.999Z</time></trkpt><trkpt lat="46.167733614841275" lon="13.370063250844126"><ele>337.0</ele><time>2026-04-01T15:49:56.999Z</time></trkpt><trkpt lat="46.167665626230765" lon="13.370241102720176"><ele>337.0</ele><time>2026-04-01T15:49:57.999Z</time></trkpt><trkpt lat="46.16758401275536" lon="13.370406315568566"><ele>337.0</ele><time>2026-04-01T15:49:58.999Z</time></trkpt><trkpt lat="46.16748274989602" lon="13.370578625857757"><ele>337.0</ele><time>2026-04-01T15:49:59.999Z</time></trkpt><trkpt lat="46.167381704523784" lon="13.370750377140556"><ele>340.40000000000003</ele><time>2026-04-01T15:50:00.999Z</time></trkpt><trkpt lat="46.16728800001569" lon="13.370897624000909"><ele>343.8</ele><time>2026-04-01T15:50:01.999Z</time></trkpt><trkpt lat="46.16720399176812" lon="13.371008300070613"><ele>347.2</ele><time>2026-04-01T15:50:02.999Z</time></trkpt><trkpt lat="46.167126348094264" lon="13.371100497775654"><ele>350.6</ele><time>2026-04-01T15:50:03.999Z</time></trkpt><trkpt lat="46.167052443268986" lon="13.371154183631262"><ele>354.0</ele><time>2026-04-01T15:50:04.999Z</time></trkpt><trkpt lat="46.1669669863849" lon="13.371169498549646"><ele>354.0</ele><time>2026-04-01T15:50:05.999Z</time></trkpt><trkpt lat="46.1668693018943" lon="13.37114373717286"><ele>354.0</ele><time>2026-04-01T15:50:06.999Z</time></trkpt><trkpt lat="46.16676482044152" lon="13.371077466406161"><ele>354.0</ele><time>2026-04-01T15:50:07.999Z</time></trkpt><trkpt lat="46.16665780972803" lon="13.371038230154094"><ele>354.0</ele><time>2026-04-01T15:50:08.999Z</time></trkpt><trkpt lat="46.16657327667035" lon="13.371048505792709"><ele>354.0</ele><time>2026-04-01T15:50:09.999Z</time></trkpt><trkpt lat="46.16650992922834" lon="13.37107323705184"><ele>353.0</ele><time>2026-04-01T15:50:10.999Z</time></trkpt><trkpt lat="46.1664490727252" lon="13.371189522885096"><ele>352.0</ele><time>2026-04-01T15:50:12.999Z</time></trkpt><trkpt lat="46.16648325807834" lon="13.37129164211677"><ele>351.0</ele><time>2026-04-01T15:50:13.999Z</time></trkpt><trkpt lat="46.16655387184788" lon="13.371394572483045"><ele>350.0</ele><time>2026-04-01T15:50:14.999Z</time></trkpt><trkpt lat="46.16666878675206" lon="13.371489529548803"><ele>349.0</ele><time>2026-04-01T15:50:15.999Z</time></trkpt><trkpt lat="46.16678493738534" lon="13.371600591016502"><ele>353.75</ele><time>2026-04-01T15:50:16.999Z</time></trkpt><trkpt lat="46.16688870537268" lon="13.371717186080913"><ele>358.5</ele><time>2026-04-01T15:50:17.999Z</time></trkpt><trkpt lat="46.16698401701034" lon="13.371823175250567"><ele>363.25</ele><time>2026-04-01T15:50:18.999Z</time></trkpt><trkpt lat="46.167084586053875" lon="13.371930822950032"><ele>368.0</ele><time>2026-04-01T15:50:19.999Z</time></trkpt><trkpt lat="46.16717350115711" lon="13.372030667751353"><ele>368.0</ele><time>2026-04-01T15:50:20.999Z</time></trkpt><trkpt lat="46.16722605930599" lon="13.372116239166596"><ele>368.0</ele><time>2026-04-01T15:50:21.999Z</time></trkpt><trkpt lat="46.167261485933004" lon="13.372211206405332"><ele>368.0</ele><time>2026-04-01T15:50:22.999Z</time></trkpt><trkpt lat="46.16727467339983" lon="13.37232796597166"><ele>368.0</ele><time>2026-04-01T15:50:23.999Z</time></trkpt><trkpt lat="46.16726082996053" lon="13.372468566391406"><ele>368.0</ele><time>2026-04-01T15:50:24.999Z</time></trkpt><trkpt lat="46.16722450578929" lon="13.37260421901696"><ele>368.0</ele><time>2026-04-01T15:50:25.999Z</time></trkpt><trkpt lat="46.16718875503212" lon="13.372712447048666"><ele>370.1666666666667</ele><time>2026-04-01T15:50:26.999Z</time></trkpt><trkpt lat="46.16714860345448" lon="13.372794227330454"><ele>372.33333333333337</ele><time>2026-04-01T15:50:27.999Z</time></trkpt><trkpt lat="46.1670922976747" lon="13.372835133698818"><ele>374.5</ele><time>2026-04-01T15:50:28.999Z</time></trkpt><trkpt lat="46.16702569126159" lon="13.372835588545483"><ele>376.6666666666667</ele><time>2026-04-01T15:50:29.999Z</time></trkpt><trkpt lat="46.16696173775653" lon="13.372805234457438"><ele>378.8333333333333</ele><time>2026-04-01T15:50:30.999Z</time></trkpt><trkpt lat="46.16686864472107" lon="13.372726213392435"><ele>381.0</ele><time>2026-04-01T15:50:32.999Z</time></trkpt><trkpt lat="46.16673640324297" lon="13.372692617494428"><ele>381.0</ele><time>2026-04-01T15:50:34.999Z</time></trkpt><trkpt lat="46.166650812847614" lon="13.372701719761094"><ele>381.0</ele><time>2026-04-01T15:50:35.999Z</time></trkpt><trkpt lat="46.16654807543154" lon="13.372716659122123"><ele>381.0</ele><time>2026-04-01T15:50:36.999Z</time></trkpt><trkpt lat="46.166457912670964" lon="13.372741552406852"><ele>381.0</ele><time>2026-04-01T15:50:37.999Z</time></trkpt><trkpt lat="46.166378862946885" lon="13.372795286322294"><ele>381.0</ele><time>2026-04-01T15:50:38.999Z</time></trkpt><trkpt lat="46.16628814143017" lon="13.372883184687835"><ele>379.5</ele><time>2026-04-01T15:50:39.999Z</time></trkpt><trkpt lat="46.16619282209576" lon="13.372989949863385"><ele>378.0</ele><time>2026-04-01T15:50:40.999Z</time></trkpt><trkpt lat="46.166089034791284" lon="13.373109059139185"><ele>376.5</ele><time>2026-04-01T15:50:41.999Z</time></trkpt><trkpt lat="46.165983843320184" lon="13.37322907654091"><ele>375.0</ele><time>2026-04-01T15:50:42.999Z</time></trkpt><trkpt lat="46.16587817243188" lon="13.373353419091515"><ele>378.75</ele><time>2026-04-01T15:50:43.999Z</time></trkpt><trkpt lat="46.16577386134914" lon="13.373495166237717"><ele>382.5</ele><time>2026-04-01T15:50:44.999Z</time></trkpt><trkpt lat="46.16566325331752" lon="13.373631653018696"><ele>386.25</ele><time>2026-04-01T15:50:45.999Z</time></trkpt><trkpt lat="46.16554777144542" lon="13.373757743501772"><ele>390.0</ele><time>2026-04-01T15:50:46.999Z</time></trkpt><trkpt lat="46.165436702447806" lon="13.373877313795107"><ele>392.4</ele><time>2026-04-01T15:50:47.999Z</time></trkpt><trkpt lat="46.16534063930025" lon="13.373981073301193"><ele>394.8</ele><time>2026-04-01T15:50:48.999Z</time></trkpt><trkpt lat="46.16526526799718" lon="13.374058197016199"><ele>397.20000000000005</ele><time>2026-04-01T15:50:49.999Z</time></trkpt><trkpt lat="46.16519072099997" lon="13.37412527701727"><ele>399.6</ele><time>2026-04-01T15:50:50.999Z</time></trkpt><trkpt lat="46.16511169094301" lon="13.374177827802864"><ele>402.0</ele><time>2026-04-01T15:50:51.999Z</time></trkpt><trkpt lat="46.16503060076035" lon="13.374206806900137"><ele>402.0</ele><time>2026-04-01T15:50:52.999Z</time></trkpt><trkpt lat="46.164947064934374" lon="13.374190615129308"><ele>402.0</ele><time>2026-04-01T15:50:53.999Z</time></trkpt><trkpt lat="46.164867127483994" lon="13.374131406656142"><ele>402.0</ele><time>2026-04-01T15:50:54.999Z</time></trkpt><trkpt lat="46.16479404053011" lon="13.374060730532886"><ele>402.0</ele><time>2026-04-01T15:50:55.999Z</time></trkpt><trkpt lat="46.16471898104656" lon="13.374000263306693"><ele>402.0</ele><time>2026-04-01T15:50:56.999Z</time></trkpt><trkpt lat="46.16463387713411" lon="13.373964342265994"><ele>402.0</ele><time>2026-04-01T15:50:57.999Z</time></trkpt><trkpt lat="46.16453866879128" lon="13.373951192964444"><ele>404.0</ele><time>2026-04-01T15:50:58.999Z</time></trkpt><trkpt lat="46.164435315388744" lon="13.37395532815675"><ele>406.0</ele><time>2026-04-01T15:50:59.999Z</time></trkpt><trkpt lat="46.16434142316779" lon="13.37398149909425"><ele>408.0</ele><time>2026-04-01T15:51:01Z</time></trkpt><trkpt lat="46.16426218489746" lon="13.3740505485998"><ele>410.0</ele><time>2026-04-01T15:51:02Z</time></trkpt><trkpt lat="46.16419279124032" lon="13.374168454398738"><ele>412.0</ele><time>2026-04-01T15:51:03Z</time></trkpt><trkpt lat="46.16412001704813" lon="13.374275295048172"><ele>412.0</ele><time>2026-04-01T15:51:04Z</time></trkpt><trkpt lat="46.164040336710826" lon="13.374329116366935"><ele>412.0</ele><time>2026-04-01T15:51:05Z</time></trkpt><trkpt lat="46.16395367292026" lon="13.374345758298213"><ele>412.0</ele><time>2026-04-01T15:51:06Z</time></trkpt><trkpt lat="46.163854423838174" lon="13.374318715295008"><ele>412.0</ele><time>2026-04-01T15:51:07Z</time></trkpt><trkpt lat="46.163754348040506" lon="13.374284741699732"><ele>412.0</ele><time>2026-04-01T15:51:08Z</time></trkpt><trkpt lat="46.16366382276425" lon="13.37426713056747"><ele>413.40000000000003</ele><time>2026-04-01T15:51:09Z</time></trkpt><trkpt lat="46.16357869926748" lon="13.374244551146205"><ele>414.8</ele><time>2026-04-01T15:51:10Z</time></trkpt><trkpt lat="46.163471860362534" lon="13.37421505209719"><ele>416.2</ele><time>2026-04-01T15:51:12Z</time></trkpt><trkpt lat="46.16337761840988" lon="13.374160112869307"><ele>417.6</ele><time>2026-04-01T15:51:14Z</time></trkpt><trkpt lat="46.16330824846129" lon="13.374005867257763"><ele>419.0</ele><time>2026-04-01T15:51:16Z</time></trkpt><trkpt lat="46.16329428382" lon="13.373909649307164"><ele>419.3333333333333</ele><time>2026-04-01T15:51:17Z</time></trkpt><trkpt lat="46.163282074431784" lon="13.37380392665463"><ele>419.66666666666663</ele><time>2026-04-01T15:51:18Z</time></trkpt><trkpt lat="46.16326039839239" lon="13.3737079094735"><ele>420.0</ele><time>2026-04-01T15:51:19Z</time></trkpt><trkpt lat="46.16323335077362" lon="13.373604047782388"><ele>420.33333333333337</ele><time>2026-04-01T15:51:21Z</time></trkpt><trkpt lat="46.16320706056001" lon="13.373488849935992"><ele>420.6666666666667</ele><time>2026-04-01T15:51:23Z</time></trkpt><trkpt lat="46.16317782685621" lon="13.373353044510662"><ele>421.0</ele><time>2026-04-01T15:51:24.999Z</time></trkpt><trkpt lat="46.16313712187719" lon="13.373253010893096"><ele>425.4</ele><time>2026-04-01T15:51:27.999Z</time></trkpt><trkpt lat="46.163100829730865" lon="13.373166213234557"><ele>429.8</ele><time>2026-04-01T15:51:29.999Z</time></trkpt><trkpt lat="46.163051308565855" lon="13.373051658644322"><ele>434.19999999999993</ele><time>2026-04-01T15:51:31.999Z</time></trkpt><trkpt lat="46.16297123956378" lon="13.372928613073862"><ele>438.59999999999997</ele><time>2026-04-01T15:51:33.999Z</time></trkpt><trkpt lat="46.16289364266619" lon="13.37280834912608"><ele>443.0</ele><time>2026-04-01T15:51:35.999Z</time></trkpt><trkpt lat="46.1628363026217" lon="13.372704333948125"><ele>443.0</ele><time>2026-04-01T15:51:37.999Z</time></trkpt><trkpt lat="46.16278686390547" lon="13.372590115214365"><ele>442.99999999999994</ele><time>2026-04-01T15:51:39.999Z</time></trkpt><trkpt lat="46.16273671985999" lon="13.372468265462835"><ele>442.99999999999994</ele><time>2026-04-01T15:51:41.999Z</time></trkpt><trkpt lat="46.16269182745589" lon="13.372330140452995"><ele>443.0</ele><time>2026-04-01T15:51:43.999Z</time></trkpt><trkpt lat="46.162642257816096" lon="13.37218918276904"><ele>443.0</ele><time>2026-04-01T15:51:45.999Z</time></trkpt><trkpt lat="46.16259201617336" lon="13.372027023186572"><ele>442.0</ele><time>2026-04-01T15:51:47.999Z</time></trkpt><trkpt lat="46.16256000620333" lon="13.371943305554954"><ele>441.0</ele><time>2026-04-01T15:51:48.999Z</time></trkpt><trkpt lat="46.162516661074484" lon="13.37186459098274"><ele>440.0</ele><time>2026-04-01T15:51:49.999Z</time></trkpt><trkpt lat="46.162469665725276" lon="13.371784333005898"><ele>439.0</ele><time>2026-04-01T15:51:50.999Z</time></trkpt><trkpt lat="46.162422571015355" lon="13.37170359948735"><ele>438.0</ele><time>2026-04-01T15:51:51.999Z</time></trkpt><trkpt lat="46.16235903293903" lon="13.37163753524337"><ele>437.0</ele><time>2026-04-01T15:51:52.999Z</time></trkpt><trkpt lat="46.16229944197801" lon="13.371555566824611"><ele>436.0</ele><time>2026-04-01T15:51:53.999Z</time></trkpt><trkpt lat="46.16224414249045" lon="13.371469458151264"><ele>438.1666666666667</ele><time>2026-04-01T15:51:54.999Z</time></trkpt><trkpt lat="46.16220637490117" lon="13.371368864513126"><ele>440.33333333333337</ele><time>2026-04-01T15:51:55.999Z</time></trkpt><trkpt lat="46.1621897979915" lon="13.371252704635351"><ele>442.5</ele><time>2026-04-01T15:51:56.999Z</time></trkpt><trkpt lat="46.16215650468615" lon="13.371153185744875"><ele>444.66666666666663</ele><time>2026-04-01T15:51:57.999Z</time></trkpt><trkpt lat="46.16212789466902" lon="13.371062002054531"><ele>446.8333333333333</ele><time>2026-04-01T15:51:58.999Z</time></trkpt><trkpt lat="46.16205877182162" lon="13.370906297353416"><ele>449.0</ele><time>2026-04-01T15:52:00.999Z</time></trkpt><trkpt lat="46.162022375102566" lon="13.370825369486733"><ele>449.0</ele><time>2026-04-01T15:52:01.999Z</time></trkpt><trkpt lat="46.16198584287893" lon="13.37074797013697"><ele>449.0</ele><time>2026-04-01T15:52:02.999Z</time></trkpt><trkpt lat="46.16188779709314" lon="13.370673311312665"><ele>449.0</ele><time>2026-04-01T15:52:04.999Z</time></trkpt><trkpt lat="46.161782268648814" lon="13.37067767530716"><ele>449.0</ele><time>2026-04-01T15:52:06.999Z</time></trkpt><trkpt lat="46.16167282852379" lon="13.370759985049574"><ele>449.0</ele><time>2026-04-01T15:52:08.999Z</time></trkpt><trkpt lat="46.161628631299145" lon="13.37085000958037"><ele>448.99999999999994</ele><time>2026-04-01T15:52:09.999Z</time></trkpt><trkpt lat="46.16158202230339" lon="13.370947265918618"><ele>449.0</ele><time>2026-04-01T15:52:10.999Z</time></trkpt><trkpt lat="46.16154175300066" lon="13.371046686635221"><ele>449.0</ele><time>2026-04-01T15:52:11.999Z</time></trkpt><trkpt lat="46.16151336998812" lon="13.37114657466148"><ele>449.0</ele><time>2026-04-01T15:52:12.999Z</time></trkpt><trkpt lat="46.16150264613828" lon="13.371244785757815"><ele>448.99999999999994</ele><time>2026-04-01T15:52:13.999Z</time></trkpt><trkpt lat="46.161525543838245" lon="13.371351120803004"><ele>449.0</ele><time>2026-04-01T15:52:14.999Z</time></trkpt><trkpt lat="46.161568175269245" lon="13.37145365169738"><ele>450.0</ele><time>2026-04-01T15:52:15.999Z</time></trkpt><trkpt lat="46.16162104039052" lon="13.371561407162556"><ele>451.0</ele><time>2026-04-01T15:52:16.999Z</time></trkpt><trkpt lat="46.16167784051017" lon="13.371683232649268"><ele>452.0</ele><time>2026-04-01T15:52:17.999Z</time></trkpt><trkpt lat="46.16174095295271" lon="13.371802460843353"><ele>453.0</ele><time>2026-04-01T15:52:18.999Z</time></trkpt><trkpt lat="46.161784071880916" lon="13.371905346243457"><ele>454.0</ele><time>2026-04-01T15:52:19.999Z</time></trkpt><trkpt lat="46.16180136125206" lon="13.372013283422767"><ele>454.0</ele><time>2026-04-01T15:52:20.999Z</time></trkpt><trkpt lat="46.16178846232159" lon="13.372139585762842"><ele>454.0</ele><time>2026-04-01T15:52:21.999Z</time></trkpt><trkpt lat="46.161749721097195" lon="13.372272903286802"><ele>454.0</ele><time>2026-04-01T15:52:22.999Z</time></trkpt><trkpt lat="46.16170873190604" lon="13.372416652653465"><ele>454.0</ele><time>2026-04-01T15:52:23.999Z</time></trkpt><trkpt lat="46.161663223241675" lon="13.37256038330597"><ele>454.0</ele><time>2026-04-01T15:52:24.999Z</time></trkpt><trkpt lat="46.16161585263574" lon="13.372684560410026"><ele>455.00000000000006</ele><time>2026-04-01T15:52:25.999Z</time></trkpt><trkpt lat="46.16156000540235" lon="13.37278491044078"><ele>456.0</ele><time>2026-04-01T15:52:26.999Z</time></trkpt><trkpt lat="46.161490591598515" lon="13.372850150662703"><ele>457.0</ele><time>2026-04-01T15:52:27.999Z</time></trkpt><trkpt lat="46.161412641986374" lon="13.372884583577129"><ele>458.0</ele><time>2026-04-01T15:52:28.999Z</time></trkpt><trkpt lat="46.161330524386905" lon="13.372894983660366"><ele>459.00000000000006</ele><time>2026-04-01T15:52:29.999Z</time></trkpt><trkpt lat="46.161241425694534" lon="13.372862663132027"><ele>460.0</ele><time>2026-04-01T15:52:30.999Z</time></trkpt><trkpt lat="46.16115514969748" lon="13.372806169560182"><ele>462.00000000000006</ele><time>2026-04-01T15:52:31.999Z</time></trkpt><trkpt lat="46.1610864148113" lon="13.372764209481602"><ele>464.0</ele><time>2026-04-01T15:52:32.999Z</time></trkpt><trkpt lat="46.16101975318764" lon="13.372732819766066"><ele>466.0</ele><time>2026-04-01T15:52:33.999Z</time></trkpt><trkpt lat="46.16095488512142" lon="13.372708894833819"><ele>468.0</ele><time>2026-04-01T15:52:34.999Z</time></trkpt><trkpt lat="46.16085847516099" lon="13.372683404397776"><ele>470.00000000000006</ele><time>2026-04-01T15:52:36.999Z</time></trkpt><trkpt lat="46.16079901045995" lon="13.372748284188697"><ele>472.0</ele><time>2026-04-01T15:52:39.999Z</time></trkpt><trkpt lat="46.16079468047556" lon="13.372850508499692"><ele>472.0</ele><time>2026-04-01T15:53:22Z</time></trkpt><trkpt lat="46.160857196420615" lon="13.372927429994233"><ele>472.0</ele><time>2026-04-01T15:53:24Z</time></trkpt><trkpt lat="46.160929107239845" lon="13.372957253668803"><ele>472.0</ele><time>2026-04-01T15:53:25Z</time></trkpt><trkpt lat="46.16099826664266" lon="13.37300297523275"><ele>472.0</ele><time>2026-04-01T15:53:26Z</time></trkpt><trkpt lat="46.161033681235025" lon="13.373089192559792"><ele>472.0</ele><time>2026-04-01T15:53:27Z</time></trkpt><trkpt lat="46.161043210331734" lon="13.373194236637936"><ele>472.0</ele><time>2026-04-01T15:53:28Z</time></trkpt><trkpt lat="46.161041476973836" lon="13.373286245884767"><ele>472.0</ele><time>2026-04-01T15:53:29Z</time></trkpt><trkpt lat="46.1610265806949" lon="13.3734142837965"><ele>473.0</ele><time>2026-04-01T15:53:30.999Z</time></trkpt><trkpt lat="46.161037343450246" lon="13.37355719741337"><ele>474.00000000000006</ele><time>2026-04-01T15:53:32.999Z</time></trkpt><trkpt lat="46.161053353318735" lon="13.373700728508027"><ele>475.00000000000006</ele><time>2026-04-01T15:53:34.999Z</time></trkpt><trkpt lat="46.161054058417854" lon="13.373846907630506"><ele>476.0</ele><time>2026-04-01T15:53:36.999Z</time></trkpt><trkpt lat="46.160961896110706" lon="13.373980508251933"><ele>477.0</ele><time>2026-04-01T15:53:38.999Z</time></trkpt><trkpt lat="46.160913736238555" lon="13.374048966022682"><ele>478.6</ele><time>2026-04-01T15:53:39.999Z</time></trkpt><trkpt lat="46.16086921116138" lon="13.374120437403901"><ele>480.20000000000005</ele><time>2026-04-01T15:53:40.999Z</time></trkpt><trkpt lat="46.16082397901957" lon="13.374213417793019"><ele>481.8</ele><time>2026-04-01T15:53:42.999Z</time></trkpt><trkpt lat="46.16080081438632" lon="13.374371199247527"><ele>483.4</ele><time>2026-04-01T15:53:44.999Z</time></trkpt><trkpt lat="46.16078403234145" lon="13.37453580150201"><ele>485.0</ele><time>2026-04-01T15:53:46.999Z</time></trkpt><trkpt lat="46.160776070358295" lon="13.374716286224219"><ele>485.3333333333333</ele><time>2026-04-01T15:53:48.999Z</time></trkpt><trkpt lat="46.160760204011886" lon="13.374814457650407"><ele>485.66666666666663</ele><time>2026-04-01T15:53:49.999Z</time></trkpt><trkpt lat="46.160750349264084" lon="13.37491824794776"><ele>486.0</ele><time>2026-04-01T15:53:50.999Z</time></trkpt><trkpt lat="46.160734019142105" lon="13.375019788904051"><ele>486.33333333333337</ele><time>2026-04-01T15:53:51.999Z</time></trkpt><trkpt lat="46.160682676799226" lon="13.375183551068785"><ele>486.6666666666667</ele><time>2026-04-01T15:53:53.999Z</time></trkpt><trkpt lat="46.16063419842636" lon="13.375253735831809"><ele>487.0</ele><time>2026-04-01T15:53:54.999Z</time></trkpt><trkpt lat="46.16059288465267" lon="13.375330928973007"><ele>489.8571428571429</ele><time>2026-04-01T15:53:55.999Z</time></trkpt><trkpt lat="46.16053244229729" lon="13.375399171041689"><ele>492.71428571428567</ele><time>2026-04-01T15:53:56.999Z</time></trkpt><trkpt lat="46.1604824103976" lon="13.375470309826722"><ele>495.57142857142856</ele><time>2026-04-01T15:53:57.999Z</time></trkpt><trkpt lat="46.16044015453552" lon="13.37555410198865"><ele>498.42857142857144</ele><time>2026-04-01T15:53:58.999Z</time></trkpt><trkpt lat="46.160399113435595" lon="13.37563205083554"><ele>501.28571428571433</ele><time>2026-04-01T15:53:59.999Z</time></trkpt><trkpt lat="46.16037077061624" lon="13.375724400760772"><ele>504.1428571428571</ele><time>2026-04-01T15:54:00.999Z</time></trkpt><trkpt lat="46.16032289479112" lon="13.375792647593993"><ele>507.0</ele><time>2026-04-01T15:54:01.999Z</time></trkpt><trkpt lat="46.16028455027135" lon="13.375866309704962"><ele>507.71428571428567</ele><time>2026-04-01T15:54:02.999Z</time></trkpt><trkpt lat="46.16024862415996" lon="13.375957341013635"><ele>508.42857142857144</ele><time>2026-04-01T15:54:03.999Z</time></trkpt><trkpt lat="46.160201653456994" lon="13.376034481077157"><ele>509.1428571428571</ele><time>2026-04-01T15:54:04.999Z</time></trkpt><trkpt lat="46.160171656764774" lon="13.376123243738947"><ele>509.85714285714283</ele><time>2026-04-01T15:54:05.999Z</time></trkpt><trkpt lat="46.16012586796607" lon="13.376206282204445"><ele>510.57142857142856</ele><time>2026-04-01T15:54:06.999Z</time></trkpt><trkpt lat="46.16007835084396" lon="13.376285433125382"><ele>511.2857142857143</ele><time>2026-04-01T15:54:07.999Z</time></trkpt><trkpt lat="46.16004299276853" lon="13.376383614720895"><ele>512.0</ele><time>2026-04-01T15:54:08.999Z</time></trkpt><trkpt lat="46.16000860398996" lon="13.376472616746756"><ele>511.99999999999994</ele><time>2026-04-01T15:54:09.999Z</time></trkpt><trkpt lat="46.160000895669825" lon="13.376566094232864"><ele>512.0</ele><time>2026-04-01T15:54:10.999Z</time></trkpt><trkpt lat="46.15995667104178" lon="13.37667608126946"><ele>512.0</ele><time>2026-04-01T15:54:12.999Z</time></trkpt><trkpt lat="46.15988519976911" lon="13.376568888207107"><ele>512.0</ele><time>2026-04-01T15:54:14.999Z</time></trkpt><trkpt lat="46.159892282803625" lon="13.376449208852947"><ele>511.99999999999994</ele><time>2026-04-01T15:54:15.999Z</time></trkpt><trkpt lat="46.1599244284357" lon="13.376298392083068"><ele>512.0</ele><time>2026-04-01T15:54:16.999Z</time></trkpt><trkpt lat="46.159944656235794" lon="13.376165150592131"><ele>512.0</ele><time>2026-04-01T15:54:17.999Z</time></trkpt><trkpt lat="46.1599514381296" lon="13.376052838124966"><ele>512.0</ele><time>2026-04-01T15:54:18.999Z</time></trkpt><trkpt lat="46.15995150280927" lon="13.375946760129022"><ele>512.0</ele><time>2026-04-01T15:54:19.999Z</time></trkpt><trkpt lat="46.159925115354014" lon="13.37577807090478"><ele>512.0</ele><time>2026-04-01T15:54:21.999Z</time></trkpt><trkpt lat="46.159924669625376" lon="13.375604328594186"><ele>512.0</ele><time>2026-04-01T15:54:23.999Z</time></trkpt><trkpt lat="46.15994083592272" lon="13.375431633385983"><ele>511.16666666666663</ele><time>2026-04-01T15:54:25.999Z</time></trkpt><trkpt lat="46.15990861652338" lon="13.375351801316434"><ele>510.3333333333333</ele><time>2026-04-01T15:54:26.999Z</time></trkpt><trkpt lat="46.15984599429238" lon="13.375293542025862"><ele>509.5</ele><time>2026-04-01T15:54:27.999Z</time></trkpt><trkpt lat="46.159767241193116" lon="13.37526382722691"><ele>508.66666666666663</ele><time>2026-04-01T15:54:28.999Z</time></trkpt><trkpt lat="46.159686914533175" lon="13.375245290264056"><ele>507.8333333333333</ele><time>2026-04-01T15:54:29.999Z</time></trkpt><trkpt lat="46.15961157063296" lon="13.375203631141412"><ele>507.0</ele><time>2026-04-01T15:54:30.999Z</time></trkpt><trkpt lat="46.15956212986549" lon="13.375128149950049"><ele>510.1666666666667</ele><time>2026-04-01T15:54:31.999Z</time></trkpt><trkpt lat="46.15951523715185" lon="13.374982167229462"><ele>513.3333333333334</ele><time>2026-04-01T15:54:33.999Z</time></trkpt><trkpt lat="46.1594669547099" lon="13.374827345998847"><ele>516.5</ele><time>2026-04-01T15:54:35.999Z</time></trkpt><trkpt lat="46.15943907574363" lon="13.374741490649093"><ele>519.6666666666667</ele><time>2026-04-01T15:54:36.999Z</time></trkpt><trkpt lat="46.15941606121614" lon="13.37464125242305"><ele>522.8333333333334</ele><time>2026-04-01T15:54:37.999Z</time></trkpt><trkpt lat="46.15939164037842" lon="13.37453927927958"><ele>526.0</ele><time>2026-04-01T15:54:38.999Z</time></trkpt><trkpt lat="46.15938383441614" lon="13.374439268068086"><ele>526.0</ele><time>2026-04-01T15:54:39.999Z</time></trkpt><trkpt lat="46.15940452036684" lon="13.374344824409649"><ele>526.0</ele><time>2026-04-01T15:54:40.999Z</time></trkpt><trkpt lat="46.15937231272441" lon="13.374211569020998"><ele>526.0</ele><time>2026-04-01T15:54:42.999Z</time></trkpt><trkpt lat="46.159270852966515" lon="13.37429035541278"><ele>526.0</ele><time>2026-04-01T15:54:44.999Z</time></trkpt><trkpt lat="46.1592584680329" lon="13.374411199114041"><ele>526.0</ele><time>2026-04-01T15:54:45.999Z</time></trkpt><trkpt lat="46.15926790156251" lon="13.374554898517747"><ele>526.6</ele><time>2026-04-01T15:54:46.999Z</time></trkpt><trkpt lat="46.15925536250555" lon="13.37472192488442"><ele>527.2</ele><time>2026-04-01T15:54:47.999Z</time></trkpt><trkpt lat="46.15923956371994" lon="13.37486010286255"><ele>527.8</ele><time>2026-04-01T15:54:48.999Z</time></trkpt><trkpt lat="46.15921605714619" lon="13.374961578536368"><ele>528.4</ele><time>2026-04-01T15:54:49.999Z</time></trkpt><trkpt lat="46.1591798267335" lon="13.375126965452568"><ele>529.0</ele><time>2026-04-01T15:54:51.999Z</time></trkpt><trkpt lat="46.159162911025135" lon="13.375224269479288"><ele>529.0</ele><time>2026-04-01T15:54:52.999Z</time></trkpt><trkpt lat="46.15915046831204" lon="13.375326428529132"><ele>529.0</ele><time>2026-04-01T15:54:53.999Z</time></trkpt><trkpt lat="46.15913697286134" lon="13.375423897074203"><ele>529.0</ele><time>2026-04-01T15:54:54.999Z</time></trkpt><trkpt lat="46.15912439373607" lon="13.375520326538124"><ele>529.0</ele><time>2026-04-01T15:54:55.999Z</time></trkpt><trkpt lat="46.15910693406556" lon="13.37561539090044"><ele>529.0</ele><time>2026-04-01T15:54:56.999Z</time></trkpt><trkpt lat="46.1590873568323" lon="13.375705839895828"><ele>529.0</ele><time>2026-04-01T15:54:57.999Z</time></trkpt><trkpt lat="46.159066745904845" lon="13.37584596127723"><ele>529.0</ele><time>2026-04-01T15:54:59.999Z</time></trkpt><trkpt lat="46.159078785356385" lon="13.375972897900027"><ele>529.8</ele><time>2026-04-01T15:55:01.999Z</time></trkpt><trkpt lat="46.15911990567551" lon="13.376131032614579"><ele>530.5999999999999</ele><time>2026-04-01T15:55:03.999Z</time></trkpt><trkpt lat="46.15914287925362" lon="13.376234422039092"><ele>531.4</ele><time>2026-04-01T15:55:04.999Z</time></trkpt><trkpt lat="46.15917352138979" lon="13.376345063501113"><ele>532.1999999999999</ele><time>2026-04-01T15:55:05.999Z</time></trkpt><trkpt lat="46.15919259687614" lon="13.376445251020991"><ele>533.0</ele><time>2026-04-01T15:55:06.999Z</time></trkpt><trkpt lat="46.1591565602811" lon="13.376617604706787"><ele>534.3333333333333</ele><time>2026-04-01T15:55:08.999Z</time></trkpt><trkpt lat="46.15909488455467" lon="13.376674075015758"><ele>535.6666666666666</ele><time>2026-04-01T15:55:09.999Z</time></trkpt><trkpt lat="46.15903057696923" lon="13.37672829953396"><ele>537.0</ele><time>2026-04-01T15:55:10.999Z</time></trkpt><trkpt lat="46.15897987211389" lon="13.376808335904249"><ele>538.3333333333334</ele><time>2026-04-01T15:55:11.999Z</time></trkpt><trkpt lat="46.15894331933474" lon="13.376916781050486"><ele>539.6666666666667</ele><time>2026-04-01T15:55:13Z</time></trkpt><trkpt lat="46.15891069955628" lon="13.37705548039245"><ele>541.0</ele><time>2026-04-01T15:55:14Z</time></trkpt><trkpt lat="46.15887396319283" lon="13.377135444567445"><ele>545.0</ele><time>2026-04-01T15:55:15Z</time></trkpt><trkpt lat="46.158775760156466" lon="13.377122746028611"><ele>549.0</ele><time>2026-04-01T15:55:17Z</time></trkpt><trkpt lat="46.15875365669346" lon="13.377031934423286"><ele>553.0</ele><time>2026-04-01T15:55:18Z</time></trkpt><trkpt lat="46.15877256791967" lon="13.376911851523563"><ele>557.0</ele><time>2026-04-01T15:55:19Z</time></trkpt><trkpt lat="46.15882199938777" lon="13.37680010910741"><ele>561.0</ele><time>2026-04-01T15:55:20Z</time></trkpt><trkpt lat="46.15887009663176" lon="13.376706931648116"><ele>565.0</ele><time>2026-04-01T15:55:21Z</time></trkpt><trkpt lat="46.15888809843699" lon="13.37661433427405"><ele>565.0</ele><time>2026-04-01T15:55:22Z</time></trkpt><trkpt lat="46.158871229217546" lon="13.376506052999813"><ele>565.0</ele><time>2026-04-01T15:55:23Z</time></trkpt><trkpt lat="46.15883226446394" lon="13.376402299364372"><ele>565.0</ele><time>2026-04-01T15:55:24Z</time></trkpt><trkpt lat="46.158780734746635" lon="13.376312836865873"><ele>565.0</ele><time>2026-04-01T15:55:25Z</time></trkpt><trkpt lat="46.15872578230603" lon="13.376232284470948"><ele>565.0</ele><time>2026-04-01T15:55:26Z</time></trkpt><trkpt lat="46.15868336668775" lon="13.376161284291886"><ele>565.0</ele><time>2026-04-01T15:55:27Z</time></trkpt><trkpt lat="46.15863257698642" lon="13.376022421104134"><ele>564.2</ele><time>2026-04-01T15:55:29Z</time></trkpt><trkpt lat="46.15857724582399" lon="13.375894271891262"><ele>563.4</ele><time>2026-04-01T15:55:31Z</time></trkpt><trkpt lat="46.15850234344568" lon="13.375915135871852"><ele>562.6</ele><time>2026-04-01T15:55:33Z</time></trkpt><trkpt lat="46.158483385550035" lon="13.376029078318751"><ele>561.8</ele><time>2026-04-01T15:55:35Z</time></trkpt><trkpt lat="46.15854212602279" lon="13.376194768477125"><ele>561.0</ele><time>2026-04-01T15:55:36.999Z</time></trkpt><trkpt lat="46.15856408432458" lon="13.376293910323982"><ele>561.6666666666666</ele><time>2026-04-01T15:55:37.999Z</time></trkpt><trkpt lat="46.15858056280489" lon="13.376406264977613"><ele>562.3333333333334</ele><time>2026-04-01T15:55:38.999Z</time></trkpt><trkpt lat="46.158587016587575" lon="13.376528447633707"><ele>563.0</ele><time>2026-04-01T15:55:39.999Z</time></trkpt><trkpt lat="46.158576960352306" lon="13.376659147043561"><ele>563.6666666666667</ele><time>2026-04-01T15:55:40.999Z</time></trkpt><trkpt lat="46.15854471893216" lon="13.376776441546891"><ele>564.3333333333334</ele><time>2026-04-01T15:55:41.999Z</time></trkpt><trkpt lat="46.158494348546036" lon="13.376879803061781"><ele>565.0</ele><time>2026-04-01T15:55:42.999Z</time></trkpt><trkpt lat="46.15845245401213" lon="13.376984339882505"><ele>564.9999999999999</ele><time>2026-04-01T15:55:43.999Z</time></trkpt><trkpt lat="46.15842424106435" lon="13.377085231359242"><ele>565.0</ele><time>2026-04-01T15:55:44.999Z</time></trkpt><trkpt lat="46.158400946338766" lon="13.377177734801553"><ele>565.0</ele><time>2026-04-01T15:55:45.999Z</time></trkpt><trkpt lat="46.15839097983563" lon="13.377272297071057"><ele>565.0</ele><time>2026-04-01T15:55:46.999Z</time></trkpt><trkpt lat="46.15840397111064" lon="13.377367354808351"><ele>565.0</ele><time>2026-04-01T15:55:47.999Z</time></trkpt><trkpt lat="46.15844152516601" lon="13.37746125743197"><ele>564.9999999999999</ele><time>2026-04-01T15:55:48.999Z</time></trkpt><trkpt lat="46.158503566007454" lon="13.37754566658454"><ele>565.0</ele><time>2026-04-01T15:55:49.999Z</time></trkpt><trkpt lat="46.15856048301801" lon="13.377640743112885"><ele>566.5</ele><time>2026-04-01T15:55:50.999Z</time></trkpt><trkpt lat="46.15861042685003" lon="13.377724129807609"><ele>568.0</ele><time>2026-04-01T15:55:51.999Z</time></trkpt><trkpt lat="46.15864535531996" lon="13.377807357023416"><ele>569.5</ele><time>2026-04-01T15:55:52.999Z</time></trkpt><trkpt lat="46.158651769576274" lon="13.377905933171602"><ele>571.0</ele><time>2026-04-01T15:55:53.999Z</time></trkpt><trkpt lat="46.1586375898595" lon="13.378012452159082"><ele>572.5</ele><time>2026-04-01T15:55:54.999Z</time></trkpt><trkpt lat="46.158621653781054" lon="13.378134594465939"><ele>574.0</ele><time>2026-04-01T15:55:55.999Z</time></trkpt><trkpt lat="46.158612034651554" lon="13.378271850951194"><ele>575.1666666666667</ele><time>2026-04-01T15:55:56.999Z</time></trkpt><trkpt lat="46.15861670417575" lon="13.378381050124895"><ele>576.3333333333334</ele><time>2026-04-01T15:55:57.999Z</time></trkpt><trkpt lat="46.15863799643501" lon="13.3785153081456"><ele>577.5</ele><time>2026-04-01T15:55:59.999Z</time></trkpt><trkpt lat="46.15855965160758" lon="13.378560146377994"><ele>578.6666666666666</ele><time>2026-04-01T15:56:01.999Z</time></trkpt><trkpt lat="46.15850809015911" lon="13.378438409180976"><ele>579.8333333333333</ele><time>2026-04-01T15:56:03.999Z</time></trkpt><trkpt lat="46.158512730437316" lon="13.378329756285787"><ele>581.0</ele><time>2026-04-01T15:56:04.999Z</time></trkpt><trkpt lat="46.15850710446932" lon="13.378205164758842"><ele>581.0</ele><time>2026-04-01T15:56:05.999Z</time></trkpt><trkpt lat="46.15850264041389" lon="13.378069480891995"><ele>581.0</ele><time>2026-04-01T15:56:06.999Z</time></trkpt><trkpt lat="46.15849931483593" lon="13.3779598185548"><ele>581.0</ele><time>2026-04-01T15:56:07.999Z</time></trkpt><trkpt lat="46.1584445138505" lon="13.377825537394711"><ele>581.0</ele><time>2026-04-01T15:56:09.999Z</time></trkpt><trkpt lat="46.158359237216665" lon="13.377894242564727"><ele>581.0</ele><time>2026-04-01T15:56:11.999Z</time></trkpt><trkpt lat="46.15838180769308" lon="13.378081675911991"><ele>581.0</ele><time>2026-04-01T15:56:13.999Z</time></trkpt><trkpt lat="46.15842347360716" lon="13.378188037325137"><ele>581.0</ele><time>2026-04-01T15:56:14.999Z</time></trkpt><trkpt lat="46.158434563160576" lon="13.37831926834668"><ele>581.0</ele><time>2026-04-01T15:56:15.999Z</time></trkpt><trkpt lat="46.15841901631512" lon="13.378442499361046"><ele>581.0</ele><time>2026-04-01T15:56:16.999Z</time></trkpt><trkpt lat="46.1583825946724" lon="13.378548221590805"><ele>581.0</ele><time>2026-04-01T15:56:17.999Z</time></trkpt><trkpt lat="46.1583145718029" lon="13.37863769810482"><ele>581.0</ele><time>2026-04-01T15:56:18.999Z</time></trkpt><trkpt lat="46.15824182018742" lon="13.378733642699155"><ele>582.3333333333333</ele><time>2026-04-01T15:56:19.999Z</time></trkpt><trkpt lat="46.158194966955186" lon="13.378813137982522"><ele>583.6666666666666</ele><time>2026-04-01T15:56:20.999Z</time></trkpt><trkpt lat="46.15815508258115" lon="13.378889595323596"><ele>585.0</ele><time>2026-04-01T15:56:22.999Z</time></trkpt><trkpt lat="46.15811976412781" lon="13.378991321923591"><ele>586.3333333333334</ele><time>2026-04-01T15:57:23Z</time></trkpt><trkpt lat="46.15809560278875" lon="13.379135600144226"><ele>587.6666666666667</ele><time>2026-04-01T15:57:25Z</time></trkpt><trkpt lat="46.158072127801084" lon="13.37927822873931"><ele>589.0</ele><time>2026-04-01T15:57:26Z</time></trkpt><trkpt lat="46.15801788068956" lon="13.379433269136577"><ele>589.0</ele><time>2026-04-01T15:57:27Z</time></trkpt><trkpt lat="46.15790989610541" lon="13.379568402748385"><ele>589.0</ele><time>2026-04-01T15:57:28Z</time></trkpt><trkpt lat="46.157823854553996" lon="13.379730231152637"><ele>589.0</ele><time>2026-04-01T15:57:29Z</time></trkpt><trkpt lat="46.157742883019765" lon="13.379881127560344"><ele>589.0</ele><time>2026-04-01T15:57:30Z</time></trkpt><trkpt lat="46.15767144797999" lon="13.380021122729536"><ele>589.0</ele><time>2026-04-01T15:57:31Z</time></trkpt><trkpt lat="46.157597047179586" lon="13.380165484385696"><ele>589.0</ele><time>2026-04-01T15:57:32Z</time></trkpt><trkpt lat="46.15754523209368" lon="13.38027514162369"><ele>589.0</ele><time>2026-04-01T15:57:33Z</time></trkpt><trkpt lat="46.1575168345216" lon="13.380389570686013"><ele>589.0</ele><time>2026-04-01T15:57:34Z</time></trkpt><trkpt lat="46.15753048312385" lon="13.380519052597748"><ele>589.0</ele><time>2026-04-01T15:57:35Z</time></trkpt><trkpt lat="46.15751695803778" lon="13.380624846301938"><ele>587.4</ele><time>2026-04-01T15:57:36Z</time></trkpt><trkpt lat="46.1575709218674" lon="13.380723643347594"><ele>585.8</ele><time>2026-04-01T15:57:37Z</time></trkpt><trkpt lat="46.157664631755146" lon="13.38083962519132"><ele>584.2</ele><time>2026-04-01T15:57:38.999Z</time></trkpt><trkpt lat="46.15773653826381" lon="13.380829552265698"><ele>582.6</ele><time>2026-04-01T15:57:39.999Z</time></trkpt><trkpt lat="46.15781600971556" lon="13.380812587007409"><ele>581.0</ele><time>2026-04-01T15:57:40.999Z</time></trkpt><trkpt lat="46.15790408359171" lon="13.380819991896926"><ele>581.0</ele><time>2026-04-01T15:57:41.999Z</time></trkpt><trkpt lat="46.15799253610731" lon="13.380850610312244"><ele>581.0</ele><time>2026-04-01T15:57:42.999Z</time></trkpt><trkpt lat="46.15805661572058" lon="13.380870431985777"><ele>581.0</ele><time>2026-04-01T15:57:43.999Z</time></trkpt><trkpt lat="46.15813828787246" lon="13.380962660643723"><ele>581.0</ele><time>2026-04-01T15:57:45.999Z</time></trkpt><trkpt lat="46.15809968847111" lon="13.381114093822989"><ele>581.0</ele><time>2026-04-01T15:57:47.999Z</time></trkpt><trkpt lat="46.158039053718525" lon="13.3811630041185"><ele>581.0</ele><time>2026-04-01T15:57:48.999Z</time></trkpt><trkpt lat="46.15796201465387" lon="13.381146811846135"><ele>581.0</ele><time>2026-04-01T15:57:49.999Z</time></trkpt><trkpt lat="46.1578722598547" lon="13.381157229451132"><ele>581.0</ele><time>2026-04-01T15:57:50.999Z</time></trkpt><trkpt lat="46.157792354474914" lon="13.381168793128957"><ele>581.0</ele><time>2026-04-01T15:57:51.999Z</time></trkpt><trkpt lat="46.15772023216047" lon="13.381183178709565"><ele>581.0</ele><time>2026-04-01T15:57:52.999Z</time></trkpt><trkpt lat="46.157611648047556" lon="13.381282736901344"><ele>581.0</ele><time>2026-04-01T15:57:54.999Z</time></trkpt><trkpt lat="46.15758843215036" lon="13.38139987642445"><ele>582.3333333333333</ele><time>2026-04-01T15:57:55.999Z</time></trkpt><trkpt lat="46.1575957684749" lon="13.3815093051028"><ele>583.6666666666666</ele><time>2026-04-01T15:57:56.999Z</time></trkpt><trkpt lat="46.15762752632623" lon="13.381603191693086"><ele>585.0</ele><time>2026-04-01T15:57:57.999Z</time></trkpt><trkpt lat="46.157696600816536" lon="13.381672610527255"><ele>586.3333333333334</ele><time>2026-04-01T15:57:58.999Z</time></trkpt><trkpt lat="46.15777388180988" lon="13.381771104468765"><ele>587.6666666666667</ele><time>2026-04-01T15:57:59.999Z</time></trkpt><trkpt lat="46.15784129398522" lon="13.381871129255515"><ele>589.0</ele><time>2026-04-01T15:58:00.999Z</time></trkpt><trkpt lat="46.15787854819358" lon="13.381952995195915"><ele>589.0</ele><time>2026-04-01T15:58:01.999Z</time></trkpt><trkpt lat="46.15787549124691" lon="13.382046256882678"><ele>589.0</ele><time>2026-04-01T15:58:02.999Z</time></trkpt><trkpt lat="46.15779951684089" lon="13.382218006564665"><ele>589.0</ele><time>2026-04-01T15:58:04.999Z</time></trkpt><trkpt lat="46.15776575951764" lon="13.382378808416034"><ele>589.0</ele><time>2026-04-01T15:58:05.999Z</time></trkpt><trkpt lat="46.15775294828857" lon="13.382546427862133"><ele>589.0</ele><time>2026-04-01T15:58:06.999Z</time></trkpt><trkpt lat="46.1577384719683" lon="13.38266514038732"><ele>590.6</ele><time>2026-04-01T15:58:07.999Z</time></trkpt><trkpt lat="46.15773740472185" lon="13.382780636789855"><ele>592.2</ele><time>2026-04-01T15:58:08.999Z</time></trkpt><trkpt lat="46.15771387354113" lon="13.38289125341947"><ele>593.8000000000001</ele><time>2026-04-01T15:58:09.999Z</time></trkpt><trkpt lat="46.15773897178575" lon="13.383030673338354"><ele>595.4</ele><time>2026-04-01T15:58:10.999Z</time></trkpt><trkpt lat="46.157799978265174" lon="13.383161290132815"><ele>597.0</ele><time>2026-04-01T15:58:11.999Z</time></trkpt><trkpt lat="46.15784558582265" lon="13.38331210781204"><ele>598.25</ele><time>2026-04-01T15:58:12.999Z</time></trkpt><trkpt lat="46.15789848007638" lon="13.383471364447562"><ele>599.5</ele><time>2026-04-01T15:58:13.999Z</time></trkpt><trkpt lat="46.157954599112124" lon="13.38363274870618"><ele>600.75</ele><time>2026-04-01T15:58:14.999Z</time></trkpt><trkpt lat="46.15799977844932" lon="13.383785318054814"><ele>602.0</ele><time>2026-04-01T15:58:15.999Z</time></trkpt><trkpt lat="46.15803190631451" lon="13.383944717741622"><ele>602.25</ele><time>2026-04-01T15:58:16.999Z</time></trkpt><trkpt lat="46.15807123571638" lon="13.384122664532953"><ele>602.5</ele><time>2026-04-01T15:58:17.999Z</time></trkpt><trkpt lat="46.15811521321377" lon="13.384292407640968"><ele>602.75</ele><time>2026-04-01T15:58:18.999Z</time></trkpt><trkpt lat="46.15816060721188" lon="13.384438088345933"><ele>603.0</ele><time>2026-04-01T15:58:19.999Z</time></trkpt><trkpt lat="46.15821562098111" lon="13.384568554017088"><ele>607.0</ele><time>2026-04-01T15:58:20.999Z</time></trkpt><trkpt lat="46.158266211732695" lon="13.384674055774294"><ele>611.0</ele><time>2026-04-01T15:58:21.999Z</time></trkpt><trkpt lat="46.158313110607935" lon="13.384751962291874"><ele>615.0</ele><time>2026-04-01T15:58:22.999Z</time></trkpt><trkpt lat="46.15836842239614" lon="13.38480536036514"><ele>619.0</ele><time>2026-04-01T15:58:23.999Z</time></trkpt><trkpt lat="46.15843596804338" lon="13.384817448455095"><ele>623.0</ele><time>2026-04-01T15:58:24.999Z</time></trkpt><trkpt lat="46.15851155299611" lon="13.384742189665149"><ele>627.0</ele><time>2026-04-01T15:58:25.999Z</time></trkpt><trkpt lat="46.15862971873448" lon="13.38479031313498"><ele>627.0</ele><time>2026-04-01T15:58:27.999Z</time></trkpt><trkpt lat="46.1586456465194" lon="13.384963470933156"><ele>627.0</ele><time>2026-04-01T15:58:29.999Z</time></trkpt><trkpt lat="46.15864325198777" lon="13.385055260856229"><ele>627.0</ele><time>2026-04-01T15:58:30.999Z</time></trkpt><trkpt lat="46.158658087630215" lon="13.38515904710854"><ele>627.0</ele><time>2026-04-01T15:58:31.999Z</time></trkpt><trkpt lat="46.1587266047965" lon="13.385191440432468"><ele>627.0</ele><time>2026-04-01T15:58:32.999Z</time></trkpt><trkpt lat="46.158798035406036" lon="13.385186751911718"><ele>627.0</ele><time>2026-04-01T15:58:33.999Z</time></trkpt><trkpt lat="46.15888670332095" lon="13.385163026365293"><ele>627.0</ele><time>2026-04-01T15:58:34.999Z</time></trkpt><trkpt lat="46.15897349759742" lon="13.385175534342878"><ele>627.0</ele><time>2026-04-01T15:58:35.999Z</time></trkpt><trkpt lat="46.15904077605638" lon="13.385232841700102"><ele>627.0</ele><time>2026-04-01T15:58:36.999Z</time></trkpt><trkpt lat="46.15908055574655" lon="13.385324909306698"><ele>627.0</ele><time>2026-04-01T15:58:37.999Z</time></trkpt><trkpt lat="46.15911270758996" lon="13.38543142622217"><ele>627.0</ele><time>2026-04-01T15:58:38.999Z</time></trkpt><trkpt lat="46.15913889005234" lon="13.385533455642276"><ele>627.0</ele><time>2026-04-01T15:58:39.999Z</time></trkpt><trkpt lat="46.15913134334486" lon="13.38564191108023"><ele>625.3333333333334</ele><time>2026-04-01T15:58:40.999Z</time></trkpt><trkpt lat="46.15907974309831" lon="13.385737993687902"><ele>623.6666666666666</ele><time>2026-04-01T15:58:41.999Z</time></trkpt><trkpt lat="46.15905440306726" lon="13.385860295514904"><ele>622.0</ele><time>2026-04-01T15:58:42.999Z</time></trkpt><trkpt lat="46.15902250295582" lon="13.385952201122329"><ele>620.3333333333333</ele><time>2026-04-01T15:58:43.999Z</time></trkpt><trkpt lat="46.15900148195566" lon="13.38603879362607"><ele>618.6666666666666</ele><time>2026-04-01T15:58:44.999Z</time></trkpt><trkpt lat="46.15899925508721" lon="13.386138561863724"><ele>617.0</ele><time>2026-04-01T15:58:45.999Z</time></trkpt><trkpt lat="46.159044229674166" lon="13.386226928032467"><ele>621.0</ele><time>2026-04-01T15:58:46.999Z</time></trkpt><trkpt lat="46.15909088861032" lon="13.386311172138598"><ele>625.0</ele><time>2026-04-01T15:58:47.999Z</time></trkpt><trkpt lat="46.15914347790171" lon="13.386391032555835"><ele>629.0</ele><time>2026-04-01T15:58:48.999Z</time></trkpt><trkpt lat="46.159209468006814" lon="13.386469954527493"><ele>633.0</ele><time>2026-04-01T15:58:49.999Z</time></trkpt><trkpt lat="46.159284864110525" lon="13.386534664923998"><ele>637.0</ele><time>2026-04-01T15:58:50.999Z</time></trkpt><trkpt lat="46.15937494209079" lon="13.386541748396967"><ele>641.0</ele><time>2026-04-01T15:58:51.999Z</time></trkpt><trkpt lat="46.15945579251014" lon="13.386534272152325"><ele>641.1999999999999</ele><time>2026-04-01T15:58:52.999Z</time></trkpt><trkpt lat="46.159571077888295" lon="13.386607939940511"><ele>641.4</ele><time>2026-04-01T15:58:54.999Z</time></trkpt><trkpt lat="46.15960246932836" lon="13.386696717883897"><ele>641.6</ele><time>2026-04-01T15:58:55.999Z</time></trkpt><trkpt lat="46.15963999328865" lon="13.386791522337363"><ele>641.8</ele><time>2026-04-01T15:58:56.999Z</time></trkpt><trkpt lat="46.159694222749906" lon="13.386899810691876"><ele>642.0</ele><time>2026-04-01T15:58:57.999Z</time></trkpt><trkpt lat="46.15974144180119" lon="13.387053342914935"><ele>643.0</ele><time>2026-04-01T15:58:58.999Z</time></trkpt><trkpt lat="46.15978114527282" lon="13.38722593825019"><ele>644.0</ele><time>2026-04-01T15:58:59.999Z</time></trkpt><trkpt lat="46.15983195770783" lon="13.387376243638677"><ele>645.0</ele><time>2026-04-01T15:59:00.999Z</time></trkpt><trkpt lat="46.1598796015618" lon="13.387522259505221"><ele>646.0</ele><time>2026-04-01T15:59:01.999Z</time></trkpt><trkpt lat="46.15991041791139" lon="13.387684490112438"><ele>651.0</ele><time>2026-04-01T15:59:02.999Z</time></trkpt><trkpt lat="46.15993140773019" lon="13.387859898258178"><ele>656.0</ele><time>2026-04-01T15:59:03.999Z</time></trkpt><trkpt lat="46.159965476916874" lon="13.388040357521103"><ele>661.0</ele><time>2026-04-01T15:59:04.999Z</time></trkpt><trkpt lat="46.16001081404934" lon="13.388212153120486"><ele>666.0</ele><time>2026-04-01T15:59:05.999Z</time></trkpt><trkpt lat="46.16006336534068" lon="13.388348030663865"><ele>666.8333333333334</ele><time>2026-04-01T15:59:06.999Z</time></trkpt><trkpt lat="46.16008591270797" lon="13.38846566816488"><ele>667.6666666666666</ele><time>2026-04-01T15:59:07.999Z</time></trkpt><trkpt lat="46.16011849232224" lon="13.388579157922942"><ele>668.5</ele><time>2026-04-01T15:59:08.999Z</time></trkpt><trkpt lat="46.16010795078874" lon="13.3887210183555"><ele>669.3333333333333</ele><time>2026-04-01T15:59:09.999Z</time></trkpt><trkpt lat="46.16007140859048" lon="13.388818815056881"><ele>670.1666666666666</ele><time>2026-04-01T15:59:10.999Z</time></trkpt><trkpt lat="46.160057483310716" lon="13.388924685041028"><ele>671.0</ele><time>2026-04-01T15:59:11.999Z</time></trkpt><trkpt lat="46.160082547915124" lon="13.389050241222188"><ele>671.4</ele><time>2026-04-01T15:59:12.999Z</time></trkpt><trkpt lat="46.160108281135535" lon="13.389193560648778"><ele>671.8</ele><time>2026-04-01T15:59:13.999Z</time></trkpt><trkpt lat="46.16013387973009" lon="13.389349386986694"><ele>672.1999999999999</ele><time>2026-04-01T15:59:14.999Z</time></trkpt><trkpt lat="46.16015572026899" lon="13.389517331858476"><ele>672.5999999999999</ele><time>2026-04-01T15:59:15.999Z</time></trkpt><trkpt lat="46.16018499653269" lon="13.389658138870686"><ele>673.0</ele><time>2026-04-01T15:59:16.999Z</time></trkpt><trkpt lat="46.16021867202337" lon="13.389775061867441"><ele>674.2</ele><time>2026-04-01T15:59:17.999Z</time></trkpt><trkpt lat="46.16018912086199" lon="13.389900376106088"><ele>675.4</ele><time>2026-04-01T15:59:18.999Z</time></trkpt><trkpt lat="46.16015556615156" lon="13.389989144599385"><ele>676.6</ele><time>2026-04-01T15:59:19.999Z</time></trkpt><trkpt lat="46.16003147122436" lon="13.390054879700045"><ele>677.8000000000001</ele><time>2026-04-01T15:59:21.998Z</time></trkpt><trkpt lat="46.15994944269248" lon="13.39010522921665"><ele>679.0</ele><time>2026-04-01T15:59:22.998Z</time></trkpt><trkpt lat="46.15987927114284" lon="13.390194747104008"><ele>677.2</ele><time>2026-04-01T15:59:23.998Z</time></trkpt><trkpt lat="46.15983320695657" lon="13.390318792351534"><ele>675.4000000000001</ele><time>2026-04-01T15:59:25Z</time></trkpt><trkpt lat="46.15981760721626" lon="13.390446088931848"><ele>673.6</ele><time>2026-04-01T15:59:26Z</time></trkpt><trkpt lat="46.15978212733919" lon="13.39055244852918"><ele>671.8</ele><time>2026-04-01T15:59:27Z</time></trkpt><trkpt lat="46.15971909266938" lon="13.39064810060196"><ele>670.0</ele><time>2026-04-01T15:59:28Z</time></trkpt><trkpt lat="46.15964624756948" lon="13.390762549387894"><ele>670.0</ele><time>2026-04-01T15:59:29Z</time></trkpt><trkpt lat="46.159592184026835" lon="13.390884518245404"><ele>670.0</ele><time>2026-04-01T15:59:30Z</time></trkpt><trkpt lat="46.15956242163241" lon="13.391002613122524"><ele>670.0</ele><time>2026-04-01T15:59:31Z</time></trkpt><trkpt lat="46.15952105476996" lon="13.391085729192675"><ele>670.0</ele><time>2026-04-01T15:59:32Z</time></trkpt><trkpt lat="46.1594643641207" lon="13.391158541349867"><ele>670.0</ele><time>2026-04-01T15:59:33Z</time></trkpt><trkpt lat="46.1593864236994" lon="13.391203813775958"><ele>670.0</ele><time>2026-04-01T15:59:34Z</time></trkpt><trkpt lat="46.15930848506012" lon="13.391300292090484"><ele>672.5</ele><time>2026-04-01T15:59:35Z</time></trkpt><trkpt lat="46.15925313379739" lon="13.39146365625122"><ele>675.0</ele><time>2026-04-01T15:59:36Z</time></trkpt><trkpt lat="46.15921921860101" lon="13.39164974815326"><ele>677.5</ele><time>2026-04-01T15:59:37Z</time></trkpt><trkpt lat="46.15917285632302" lon="13.391843204553789"><ele>680.0</ele><time>2026-04-01T15:59:38Z</time></trkpt><trkpt lat="46.15912687751454" lon="13.391989705346743"><ele>680.0</ele><time>2026-04-01T15:59:39Z</time></trkpt><trkpt lat="46.1591167558217" lon="13.39209522046422"><ele>680.0</ele><time>2026-04-01T15:59:40Z</time></trkpt><trkpt lat="46.15910048539139" lon="13.392183752574072"><ele>680.0</ele><time>2026-04-01T15:59:41Z</time></trkpt><trkpt lat="46.15905259273797" lon="13.392303258834406"><ele>680.0</ele><time>2026-04-01T15:59:42.999Z</time></trkpt><trkpt lat="46.15895359662975" lon="13.392300693040495"><ele>680.0</ele><time>2026-04-01T15:59:44.999Z</time></trkpt><trkpt lat="46.158872432844134" lon="13.392287720394052"><ele>680.0</ele><time>2026-04-01T15:59:45.999Z</time></trkpt><trkpt lat="46.158781427915024" lon="13.39230195931103"><ele>680.0</ele><time>2026-04-01T15:59:46.999Z</time></trkpt><trkpt lat="46.158675320169294" lon="13.392269989961896"><ele>680.0</ele><time>2026-04-01T15:59:47.999Z</time></trkpt><trkpt lat="46.15855456616394" lon="13.392255692219672"><ele>680.0</ele><time>2026-04-01T15:59:48.999Z</time></trkpt><trkpt lat="46.158434545083246" lon="13.392229818379981"><ele>680.0</ele><time>2026-04-01T15:59:49.999Z</time></trkpt><trkpt lat="46.15831583850859" lon="13.392197299531283"><ele>675.5</ele><time>2026-04-01T15:59:50.999Z</time></trkpt><trkpt lat="46.15819627253087" lon="13.39216119927902"><ele>671.0</ele><time>2026-04-01T15:59:51.999Z</time></trkpt><trkpt lat="46.158068293891105" lon="13.392151009545003"><ele>666.5</ele><time>2026-04-01T15:59:52.999Z</time></trkpt><trkpt lat="46.15793915124942" lon="13.39209940344887"><ele>662.0</ele><time>2026-04-01T15:59:53.999Z</time></trkpt><trkpt lat="46.15780939187789" lon="13.392067464515172"><ele>662.0</ele><time>2026-04-01T15:59:54.999Z</time></trkpt><trkpt lat="46.15768764456639" lon="13.392057715866509"><ele>662.0</ele><time>2026-04-01T15:59:55.999Z</time></trkpt><trkpt lat="46.15756431097156" lon="13.392017877536915"><ele>662.0</ele><time>2026-04-01T15:59:56.999Z</time></trkpt><trkpt lat="46.15743674332413" lon="13.39198186851934"><ele>662.0</ele><time>2026-04-01T15:59:57.999Z</time></trkpt><trkpt lat="46.157311393677794" lon="13.391919502972595"><ele>661.0</ele><time>2026-04-01T15:59:58.999Z</time></trkpt><trkpt lat="46.15717989913226" lon="13.391899727956217"><ele>660.0</ele><time>2026-04-01T15:59:59.999Z</time></trkpt><trkpt lat="46.157055558468684" lon="13.391862063388594"><ele>659.0</ele><time>2026-04-01T16:00:00.999Z</time></trkpt><trkpt lat="46.156932131116875" lon="13.391822534873086"><ele>658.0</ele><time>2026-04-01T16:00:01.999Z</time></trkpt><trkpt lat="46.15681639445827" lon="13.391795928537945"><ele>658.0</ele><time>2026-04-01T16:00:02.999Z</time></trkpt><trkpt lat="46.15672385673272" lon="13.391752905015316"><ele>658.0</ele><time>2026-04-01T16:00:03.999Z</time></trkpt><trkpt lat="46.15663341518279" lon="13.391752187036653"><ele>658.0</ele><time>2026-04-01T16:00:04.999Z</time></trkpt><trkpt lat="46.15653576429563" lon="13.391810765123985"><ele>658.0</ele><time>2026-04-01T16:00:05.999Z</time></trkpt><trkpt lat="46.156446818028606" lon="13.391948282255223"><ele>658.0</ele><time>2026-04-01T16:00:06.999Z</time></trkpt><trkpt lat="46.15637076479125" lon="13.392057138646154"><ele>658.5999999999999</ele><time>2026-04-01T16:00:07.999Z</time></trkpt><trkpt lat="46.15629041653126" lon="13.392148740645528"><ele>659.1999999999999</ele><time>2026-04-01T16:00:08.999Z</time></trkpt><trkpt lat="46.156190843793624" lon="13.392173743848605"><ele>659.8</ele><time>2026-04-01T16:00:09.999Z</time></trkpt><trkpt lat="46.156081870284495" lon="13.392141258149179"><ele>660.4</ele><time>2026-04-01T16:00:10.999Z</time></trkpt><trkpt lat="46.15598871892927" lon="13.392025095755434"><ele>661.0</ele><time>2026-04-01T16:00:11.999Z</time></trkpt><trkpt lat="46.15590170502288" lon="13.391957570051176"><ele>658.1999999999999</ele><time>2026-04-01T16:00:12.999Z</time></trkpt><trkpt lat="46.1558372484155" lon="13.391864663910399"><ele>655.4</ele><time>2026-04-01T16:00:13.999Z</time></trkpt><trkpt lat="46.155763837077245" lon="13.391775645712114"><ele>652.6</ele><time>2026-04-01T16:00:14.999Z</time></trkpt><trkpt lat="46.15567730276811" lon="13.391693799684036"><ele>649.8</ele><time>2026-04-01T16:00:15.999Z</time></trkpt><trkpt lat="46.15558915728207" lon="13.391615109336193"><ele>647.0</ele><time>2026-04-01T16:00:16.999Z</time></trkpt><trkpt lat="46.155497881831636" lon="13.391547585357996"><ele>646.2</ele><time>2026-04-01T16:00:17.999Z</time></trkpt><trkpt lat="46.15541014434249" lon="13.3914716166792"><ele>645.4000000000001</ele><time>2026-04-01T16:00:18.999Z</time></trkpt><trkpt lat="46.1553249684581" lon="13.391388352090956"><ele>644.5999999999999</ele><time>2026-04-01T16:00:19.999Z</time></trkpt><trkpt lat="46.15524035463445" lon="13.391318488172818"><ele>643.8</ele><time>2026-04-01T16:00:20.999Z</time></trkpt><trkpt lat="46.15514937895609" lon="13.391257933672927"><ele>643.0</ele><time>2026-04-01T16:00:21.999Z</time></trkpt><trkpt lat="46.15502093710832" lon="13.391242268410718"><ele>639.5</ele><time>2026-04-01T16:00:22.999Z</time></trkpt><trkpt lat="46.154887880986394" lon="13.39122460419439"><ele>636.0</ele><time>2026-04-01T16:00:23.999Z</time></trkpt><trkpt lat="46.15476982757991" lon="13.391206945775135"><ele>632.5</ele><time>2026-04-01T16:00:24.999Z</time></trkpt><trkpt lat="46.15465937770367" lon="13.391208749642837"><ele>629.0</ele><time>2026-04-01T16:00:25.999Z</time></trkpt><trkpt lat="46.15455374056353" lon="13.39118293084586"><ele>627.4</ele><time>2026-04-01T16:00:26.999Z</time></trkpt><trkpt lat="46.15443879666553" lon="13.391159121759461"><ele>625.8</ele><time>2026-04-01T16:00:27.999Z</time></trkpt><trkpt lat="46.154336990887025" lon="13.391139611141812"><ele>624.2</ele><time>2026-04-01T16:00:28.999Z</time></trkpt><trkpt lat="46.1542401162113" lon="13.391128580596167"><ele>622.6</ele><time>2026-04-01T16:00:29.999Z</time></trkpt><trkpt lat="46.15413512758737" lon="13.391119146107322"><ele>621.0</ele><time>2026-04-01T16:00:30.999Z</time></trkpt><trkpt lat="46.154034644673246" lon="13.391216672762535"><ele>619.0</ele><time>2026-04-01T16:00:31.999Z</time></trkpt><trkpt lat="46.153927581699485" lon="13.391274984024784"><ele>617.0</ele><time>2026-04-01T16:00:32.999Z</time></trkpt><trkpt lat="46.15383827145497" lon="13.391340386858825"><ele>615.0</ele><time>2026-04-01T16:00:33.999Z</time></trkpt><trkpt lat="46.15374989020615" lon="13.391405613416397"><ele>613.0</ele><time>2026-04-01T16:00:34.999Z</time></trkpt><trkpt lat="46.15363791462542" lon="13.391432036173253"><ele>611.0</ele><time>2026-04-01T16:00:35.999Z</time></trkpt><trkpt lat="46.153516647130246" lon="13.391435018900543"><ele>615.0</ele><time>2026-04-01T16:00:36.999Z</time></trkpt><trkpt lat="46.153391614413074" lon="13.391444525323426"><ele>619.0</ele><time>2026-04-01T16:00:37.999Z</time></trkpt><trkpt lat="46.153264226741896" lon="13.391452008820435"><ele>623.0</ele><time>2026-04-01T16:00:38.999Z</time></trkpt><trkpt lat="46.15313470978574" lon="13.391440640669494"><ele>627.0</ele><time>2026-04-01T16:00:39.999Z</time></trkpt><trkpt lat="46.15300081028158" lon="13.391467770256027"><ele>627.0</ele><time>2026-04-01T16:00:40.999Z</time></trkpt><trkpt lat="46.15272274438554" lon="13.39160698954627"><ele>627.0</ele><time>2026-04-01T16:00:42.999Z</time></trkpt><trkpt lat="46.15258956238554" lon="13.391652880941765"><ele>627.0</ele><time>2026-04-01T16:00:43.999Z</time></trkpt><trkpt lat="46.15244432869676" lon="13.39168107407467"><ele>628.75</ele><time>2026-04-01T16:00:44.999Z</time></trkpt><trkpt lat="46.15230022704189" lon="13.391699425321281"><ele>630.5</ele><time>2026-04-01T16:00:45.999Z</time></trkpt><trkpt lat="46.15216908579262" lon="13.391693288634965"><ele>632.25</ele><time>2026-04-01T16:00:46.999Z</time></trkpt><trkpt lat="46.152041463919474" lon="13.391693820935705"><ele>634.0</ele><time>2026-04-01T16:00:47.999Z</time></trkpt><trkpt lat="46.15191834457101" lon="13.391699756245307"><ele>634.0</ele><time>2026-04-01T16:00:48.999Z</time></trkpt><trkpt lat="46.15180038211496" lon="13.391642290980172"><ele>634.0</ele><time>2026-04-01T16:00:49.999Z</time></trkpt><trkpt lat="46.15169609320839" lon="13.39154342801619"><ele>634.0</ele><time>2026-04-01T16:00:50.999Z</time></trkpt><trkpt lat="46.151584272098596" lon="13.391485054317041"><ele>634.0</ele><time>2026-04-01T16:00:51.999Z</time></trkpt><trkpt lat="46.151486753030774" lon="13.391435639257946"><ele>633.75</ele><time>2026-04-01T16:00:52.999Z</time></trkpt><trkpt lat="46.15139264989153" lon="13.391387349812154"><ele>633.5</ele><time>2026-04-01T16:00:53.999Z</time></trkpt><trkpt lat="46.15131799459727" lon="13.391277308431746"><ele>633.25</ele><time>2026-04-01T16:00:54.999Z</time></trkpt><trkpt lat="46.151269685945344" lon="13.391119294987753"><ele>633.0</ele><time>2026-04-01T16:00:56Z</time></trkpt><trkpt lat="46.15119424489716" lon="13.390970527912177"><ele>633.0</ele><time>2026-04-01T16:00:57Z</time></trkpt><trkpt lat="46.15114419104714" lon="13.390832683519067"><ele>633.0</ele><time>2026-04-01T16:00:58Z</time></trkpt><trkpt lat="46.151094306185236" lon="13.390699561375694"><ele>633.0</ele><time>2026-04-01T16:00:59Z</time></trkpt><trkpt lat="46.1510422052667" lon="13.390558278705154"><ele>633.0</ele><time>2026-04-01T16:01:00Z</time></trkpt><trkpt lat="46.15097530963142" lon="13.390419149818891"><ele>633.0</ele><time>2026-04-01T16:01:01Z</time></trkpt><trkpt lat="46.150883734705694" lon="13.390338251824103"><ele>629.1999999999999</ele><time>2026-04-01T16:01:02Z</time></trkpt><trkpt lat="46.15081824898432" lon="13.390246065315939"><ele>625.4</ele><time>2026-04-01T16:01:03Z</time></trkpt><trkpt lat="46.15072212137108" lon="13.390243857916678"><ele>621.5999999999999</ele><time>2026-04-01T16:01:04Z</time></trkpt><trkpt lat="46.150629571670876" lon="13.390227620958523"><ele>617.8</ele><time>2026-04-01T16:01:05Z</time></trkpt><trkpt lat="46.15051998620864" lon="13.390214180350837"><ele>614.0</ele><time>2026-04-01T16:01:06Z</time></trkpt><trkpt lat="46.150400202625114" lon="13.390208425941013"><ele>612.2</ele><time>2026-04-01T16:01:07Z</time></trkpt><trkpt lat="46.1502861918773" lon="13.390209189274744"><ele>610.4</ele><time>2026-04-01T16:01:08Z</time></trkpt><trkpt lat="46.150179162341004" lon="13.390208374094199"><ele>608.6</ele><time>2026-04-01T16:01:09Z</time></trkpt><trkpt lat="46.15007468031281" lon="13.390203483380535"><ele>606.8</ele><time>2026-04-01T16:01:10Z</time></trkpt><trkpt lat="46.14997253452158" lon="13.39023412835459"><ele>605.0</ele><time>2026-04-01T16:01:11Z</time></trkpt><trkpt lat="46.149879730518585" lon="13.390274592726582"><ele>602.0</ele><time>2026-04-01T16:01:12Z</time></trkpt><trkpt lat="46.1497743151791" lon="13.390325651516337"><ele>599.0</ele><time>2026-04-01T16:01:13Z</time></trkpt><trkpt lat="46.149660440331374" lon="13.390367460656861"><ele>596.0</ele><time>2026-04-01T16:01:14Z</time></trkpt><trkpt lat="46.14954295261693" lon="13.390394569867917"><ele>593.0</ele><time>2026-04-01T16:01:15Z</time></trkpt><trkpt lat="46.14943919979822" lon="13.390455066757905"><ele>593.0</ele><time>2026-04-01T16:01:16Z</time></trkpt><trkpt lat="46.14933446105539" lon="13.390473863357025"><ele>593.0</ele><time>2026-04-01T16:01:17Z</time></trkpt><trkpt lat="46.149244345337785" lon="13.390495794920213"><ele>593.0</ele><time>2026-04-01T16:01:18Z</time></trkpt><trkpt lat="46.149156963127105" lon="13.390479801095902"><ele>593.0</ele><time>2026-04-01T16:01:19Z</time></trkpt><trkpt lat="46.149061539992196" lon="13.390469357075846"><ele>593.0</ele><time>2026-04-01T16:01:20Z</time></trkpt><trkpt lat="46.14898809527007" lon="13.39036958394662"><ele>593.6</ele><time>2026-04-01T16:01:21Z</time></trkpt><trkpt lat="46.14893874204578" lon="13.390244458231006"><ele>594.1999999999999</ele><time>2026-04-01T16:01:22Z</time></trkpt><trkpt lat="46.148857421827145" lon="13.39013733660695"><ele>594.8</ele><time>2026-04-01T16:01:23Z</time></trkpt><trkpt lat="46.148758133334546" lon="13.390060423004725"><ele>595.4</ele><time>2026-04-01T16:01:24Z</time></trkpt><trkpt lat="46.14866286343237" lon="13.389996130062064"><ele>596.0</ele><time>2026-04-01T16:01:25Z</time></trkpt><trkpt lat="46.14857749743843" lon="13.38990860432767"><ele>596.0</ele><time>2026-04-01T16:01:26Z</time></trkpt><trkpt lat="46.14848450170433" lon="13.389833406821309"><ele>596.0</ele><time>2026-04-01T16:01:27Z</time></trkpt><trkpt lat="46.14839560246755" lon="13.389784426184397"><ele>596.0</ele><time>2026-04-01T16:01:27.999Z</time></trkpt><trkpt lat="46.148307740936175" lon="13.389730319620472"><ele>596.0</ele><time>2026-04-01T16:01:28.999Z</time></trkpt><trkpt lat="46.148209569740665" lon="13.389733454700414"><ele>596.0</ele><time>2026-04-01T16:01:30.001Z</time></trkpt><trkpt lat="46.1481112264926" lon="13.389806789999794"><ele>595.6</ele><time>2026-04-01T16:01:31.001Z</time></trkpt><trkpt lat="46.1480262620678" lon="13.389857686834098"><ele>595.2</ele><time>2026-04-01T16:01:32.001Z</time></trkpt><trkpt lat="46.147940468679025" lon="13.389857781650305"><ele>594.8</ele><time>2026-04-01T16:01:33.001Z</time></trkpt><trkpt lat="46.14784892153494" lon="13.389889523392716"><ele>594.4</ele><time>2026-04-01T16:01:34.001Z</time></trkpt><trkpt lat="46.1477599499052" lon="13.389865374170721"><ele>594.0</ele><time>2026-04-01T16:01:35.001Z</time></trkpt><trkpt lat="46.14766349754457" lon="13.389887276813843"><ele>594.0</ele><time>2026-04-01T16:01:36.001Z</time></trkpt><trkpt lat="46.147565436067694" lon="13.389890192152322"><ele>594.0</ele><time>2026-04-01T16:01:37.001Z</time></trkpt><trkpt lat="46.14746753422338" lon="13.389885865259384"><ele>594.0</ele><time>2026-04-01T16:01:38Z</time></trkpt><trkpt lat="46.147370411103275" lon="13.389855742244508"><ele>594.0</ele><time>2026-04-01T16:01:39.001Z</time></trkpt><trkpt lat="46.14728950189581" lon="13.389755578181429"><ele>594.0</ele><time>2026-04-01T16:01:40.001Z</time></trkpt><trkpt lat="46.14720486077806" lon="13.389678516317927"><ele>589.5</ele><time>2026-04-01T16:01:41Z</time></trkpt><trkpt lat="46.14713274074776" lon="13.389621234587418"><ele>585.0</ele><time>2026-04-01T16:01:42Z</time></trkpt><trkpt lat="46.14707416051336" lon="13.38958248495546"><ele>580.5</ele><time>2026-04-01T16:01:43Z</time></trkpt><trkpt lat="46.147018291159675" lon="13.389515395283654"><ele>576.0</ele><time>2026-04-01T16:01:45Z</time></trkpt><trkpt lat="46.147080607755" lon="13.389451057296673"><ele>571.5</ele><time>2026-04-01T16:01:47Z</time></trkpt><trkpt lat="46.147149527008224" lon="13.389528772697638"><ele>567.0</ele><time>2026-04-01T16:01:48Z</time></trkpt><trkpt lat="46.147211193334705" lon="13.389574252637438"><ele>567.0</ele><time>2026-04-01T16:01:49Z</time></trkpt><trkpt lat="46.14728107634357" lon="13.389602306307113"><ele>567.0</ele><time>2026-04-01T16:01:50Z</time></trkpt><trkpt lat="46.14740866766603" lon="13.38965493695011"><ele>567.0</ele><time>2026-04-01T16:01:52Z</time></trkpt><trkpt lat="46.14747904919169" lon="13.389660152501941"><ele>567.0</ele><time>2026-04-01T16:01:53Z</time></trkpt><trkpt lat="46.147550784451035" lon="13.389651197044673"><ele>567.0</ele><time>2026-04-01T16:01:54Z</time></trkpt><trkpt lat="46.14761956049847" lon="13.389614375055505"><ele>567.0</ele><time>2026-04-01T16:01:55Z</time></trkpt><trkpt lat="46.14767645478931" lon="13.389563470451623"><ele>567.0</ele><time>2026-04-01T16:01:56Z</time></trkpt><trkpt lat="46.14771536332213" lon="13.38941904569666"><ele>567.0</ele><time>2026-04-01T16:01:58Z</time></trkpt><trkpt lat="46.14760110026642" lon="13.389284267984294"><ele>567.0</ele><time>2026-04-01T16:02:00Z</time></trkpt><trkpt lat="46.147501675768076" lon="13.389229920419645"><ele>567.0</ele><time>2026-04-01T16:02:01Z</time></trkpt><trkpt lat="46.147392141732496" lon="13.389129291271361"><ele>567.0</ele><time>2026-04-01T16:02:02Z</time></trkpt><trkpt lat="46.147275857070305" lon="13.389064704048444"><ele>567.0</ele><time>2026-04-01T16:02:03Z</time></trkpt><trkpt lat="46.147186406380605" lon="13.388969772353928"><ele>567.0</ele><time>2026-04-01T16:02:04Z</time></trkpt><trkpt lat="46.14708111469595" lon="13.388962442612433"><ele>567.0</ele><time>2026-04-01T16:02:05Z</time></trkpt><trkpt lat="46.146967291510514" lon="13.388962044006256"><ele>567.0</ele><time>2026-04-01T16:02:06Z</time></trkpt><trkpt lat="46.14684664127136" lon="13.388985807412778"><ele>567.0</ele><time>2026-04-01T16:02:07Z</time></trkpt><trkpt lat="46.14673227773176" lon="13.389003662355302"><ele>567.0</ele><time>2026-04-01T16:02:08Z</time></trkpt><trkpt lat="46.14664368646462" lon="13.38902726965889"><ele>567.0</ele><time>2026-04-01T16:02:09Z</time></trkpt><trkpt lat="46.146556611256976" lon="13.389054586762127"><ele>567.0</ele><time>2026-04-01T16:02:10Z</time></trkpt><trkpt lat="46.14647050991393" lon="13.389024801808109"><ele>566.0</ele><time>2026-04-01T16:02:11Z</time></trkpt><trkpt lat="46.1463869927192" lon="13.38894885142667"><ele>565.0</ele><time>2026-04-01T16:02:12Z</time></trkpt><trkpt lat="46.146297295141245" lon="13.388894426240984"><ele>564.0</ele><time>2026-04-01T16:02:13Z</time></trkpt><trkpt lat="46.14620277954943" lon="13.388852838330246"><ele>563.0</ele><time>2026-04-01T16:02:14Z</time></trkpt><trkpt lat="46.14607826593279" lon="13.388844088368504"><ele>562.0</ele><time>2026-04-01T16:02:15Z</time></trkpt><trkpt lat="46.14595709231074" lon="13.388819369552373"><ele>556.2</ele><time>2026-04-01T16:02:16Z</time></trkpt><trkpt lat="46.14584422346929" lon="13.388810164244843"><ele>550.4000000000001</ele><time>2026-04-01T16:02:17Z</time></trkpt><trkpt lat="46.1457422955322" lon="13.38876900686324"><ele>544.5999999999999</ele><time>2026-04-01T16:02:18Z</time></trkpt><trkpt lat="46.145641679618485" lon="13.388730533736691"><ele>538.8</ele><time>2026-04-01T16:02:19Z</time></trkpt><trkpt lat="46.14553555217065" lon="13.38870630870108"><ele>533.0</ele><time>2026-04-01T16:02:20Z</time></trkpt><trkpt lat="46.14542499441055" lon="13.38868121087603"><ele>531.8</ele><time>2026-04-01T16:02:21Z</time></trkpt><trkpt lat="46.14531490859509" lon="13.388647749897537"><ele>530.5999999999999</ele><time>2026-04-01T16:02:22Z</time></trkpt><trkpt lat="46.14521891596615" lon="13.38861966957894"><ele>529.4000000000001</ele><time>2026-04-01T16:02:23Z</time></trkpt><trkpt lat="46.14515195076272" lon="13.388577789343856"><ele>528.2</ele><time>2026-04-01T16:02:24Z</time></trkpt><trkpt lat="46.1450263704916" lon="13.388550939173761"><ele>527.0</ele><time>2026-04-01T16:02:26Z</time></trkpt><trkpt lat="46.14494797328695" lon="13.388517966506601"><ele>525.1666666666666</ele><time>2026-04-01T16:02:27Z</time></trkpt><trkpt lat="46.144861192933334" lon="13.38847314675098"><ele>523.3333333333333</ele><time>2026-04-01T16:02:28Z</time></trkpt><trkpt lat="46.14478555056189" lon="13.38842266975527"><ele>521.5</ele><time>2026-04-01T16:02:29Z</time></trkpt><trkpt lat="46.14472052476202" lon="13.388375610277391"><ele>519.6666666666666</ele><time>2026-04-01T16:02:30Z</time></trkpt><trkpt lat="46.14463255856077" lon="13.388288682629497"><ele>517.8333333333334</ele><time>2026-04-01T16:02:32Z</time></trkpt><trkpt lat="46.14457434391663" lon="13.388246428095965"><ele>516.0</ele><time>2026-04-01T16:02:35Z</time></trkpt><trkpt lat="46.14450885322597" lon="13.38823937418666"><ele>516.0</ele><time>2026-04-01T16:03:05Z</time></trkpt><trkpt lat="46.14438608643454" lon="13.388225397170519"><ele>516.0</ele><time>2026-04-01T16:03:07Z</time></trkpt><trkpt lat="46.1442986985303" lon="13.388221444852418"><ele>516.0</ele><time>2026-04-01T16:03:08Z</time></trkpt><trkpt lat="46.144192373930856" lon="13.388226506231113"><ele>516.0</ele><time>2026-04-01T16:03:09Z</time></trkpt><trkpt lat="46.14407445930575" lon="13.388247045842835"><ele>516.0</ele><time>2026-04-01T16:03:10Z</time></trkpt><trkpt lat="46.143963783104404" lon="13.388273566924838"><ele>512.4</ele><time>2026-04-01T16:03:11Z</time></trkpt><trkpt lat="46.1438664249456" lon="13.38831391470507"><ele>508.8</ele><time>2026-04-01T16:03:12Z</time></trkpt><trkpt lat="46.14377712736961" lon="13.388372167895303"><ele>505.19999999999993</ele><time>2026-04-01T16:03:13Z</time></trkpt><trkpt lat="46.1436944593955" lon="13.388454281397093"><ele>501.59999999999997</ele><time>2026-04-01T16:03:14Z</time></trkpt><trkpt lat="46.143624370653896" lon="13.388540661358235"><ele>498.0</ele><time>2026-04-01T16:03:15Z</time></trkpt><trkpt lat="46.14356545076772" lon="13.388598840610705"><ele>498.0</ele><time>2026-04-01T16:03:16Z</time></trkpt><trkpt lat="46.14352082863641" lon="13.388663518860685"><ele>498.0</ele><time>2026-04-01T16:03:17Z</time></trkpt><trkpt lat="46.143457011669234" lon="13.388732095941814"><ele>498.0</ele><time>2026-04-01T16:03:19Z</time></trkpt><trkpt lat="46.14341236259867" lon="13.388595355618083"><ele>498.0</ele><time>2026-04-01T16:03:21Z</time></trkpt><trkpt lat="46.14344597617618" lon="13.388475630003072"><ele>498.0</ele><time>2026-04-01T16:03:22Z</time></trkpt><trkpt lat="46.143478277332335" lon="13.388350739733614"><ele>498.0</ele><time>2026-04-01T16:03:23Z</time></trkpt><trkpt lat="46.14350688967766" lon="13.388207539885425"><ele>498.0</ele><time>2026-04-01T16:03:24Z</time></trkpt><trkpt lat="46.14355366001003" lon="13.388070264092852"><ele>498.0</ele><time>2026-04-01T16:03:25Z</time></trkpt><trkpt lat="46.143570730993495" lon="13.387932388859355"><ele>498.0</ele><time>2026-04-01T16:03:25.999Z</time></trkpt><trkpt lat="46.143612958610156" lon="13.387812509251294"><ele>498.0</ele><time>2026-04-01T16:03:26.999Z</time></trkpt><trkpt lat="46.143654464564214" lon="13.38771170347216"><ele>498.0</ele><time>2026-04-01T16:03:27.999Z</time></trkpt><trkpt lat="46.14369101777971" lon="13.387627633252668"><ele>498.0</ele><time>2026-04-01T16:03:28.999Z</time></trkpt><trkpt lat="46.14368833091186" lon="13.3874769766659"><ele>496.4</ele><time>2026-04-01T16:03:30.999Z</time></trkpt><trkpt lat="46.143575866122596" lon="13.387470228646185"><ele>494.79999999999995</ele><time>2026-04-01T16:03:32.999Z</time></trkpt><trkpt lat="46.14352270306298" lon="13.387567700310857"><ele>493.2</ele><time>2026-04-01T16:03:33.999Z</time></trkpt><trkpt lat="46.14347929232402" lon="13.387690180335772"><ele>491.6</ele><time>2026-04-01T16:03:34.999Z</time></trkpt><trkpt lat="46.143412590989904" lon="13.387834735294232"><ele>490.0</ele><time>2026-04-01T16:03:36Z</time></trkpt><trkpt lat="46.143328618210525" lon="13.388004694457996"><ele>492.0</ele><time>2026-04-01T16:03:37Z</time></trkpt><trkpt lat="46.143241606434174" lon="13.388147083731944"><ele>494.0</ele><time>2026-04-01T16:03:38Z</time></trkpt><trkpt lat="46.14316050507292" lon="13.388285252096994"><ele>496.0</ele><time>2026-04-01T16:03:39Z</time></trkpt><trkpt lat="46.14306292900312" lon="13.388395978766713"><ele>498.0</ele><time>2026-04-01T16:03:40Z</time></trkpt><trkpt lat="46.14296344151484" lon="13.38850530906658"><ele>492.75</ele><time>2026-04-01T16:03:41Z</time></trkpt><trkpt lat="46.14286583654167" lon="13.388612570464687"><ele>487.5</ele><time>2026-04-01T16:03:42Z</time></trkpt><trkpt lat="46.1427669649745" lon="13.388723114695926"><ele>482.25</ele><time>2026-04-01T16:03:43Z</time></trkpt><trkpt lat="46.1426714861219" lon="13.388831284053817"><ele>477.0</ele><time>2026-04-01T16:03:44Z</time></trkpt><trkpt lat="46.1425711987307" lon="13.38892949553824"><ele>477.0</ele><time>2026-04-01T16:03:45Z</time></trkpt><trkpt lat="46.14247906421973" lon="13.389045057044282"><ele>477.0</ele><time>2026-04-01T16:03:46Z</time></trkpt><trkpt lat="46.14237781123539" lon="13.389161770771848"><ele>477.0</ele><time>2026-04-01T16:03:47Z</time></trkpt><trkpt lat="46.14228097695196" lon="13.38929793123334"><ele>477.0</ele><time>2026-04-01T16:03:48Z</time></trkpt><trkpt lat="46.14216895713933" lon="13.389422261733028"><ele>471.0</ele><time>2026-04-01T16:03:49Z</time></trkpt><trkpt lat="46.14207109118915" lon="13.389556808306143"><ele>465.0</ele><time>2026-04-01T16:03:50Z</time></trkpt><trkpt lat="46.141974369116134" lon="13.38968327301744"><ele>459.0</ele><time>2026-04-01T16:03:51Z</time></trkpt><trkpt lat="46.14187868136493" lon="13.389821425708588"><ele>453.0</ele><time>2026-04-01T16:03:52Z</time></trkpt><trkpt lat="46.14178275219699" lon="13.389963108440606"><ele>453.0</ele><time>2026-04-01T16:03:53Z</time></trkpt><trkpt lat="46.1416879632776" lon="13.390115297994418"><ele>453.0</ele><time>2026-04-01T16:03:54Z</time></trkpt><trkpt lat="46.14159662636518" lon="13.390278451390724"><ele>453.0</ele><time>2026-04-01T16:03:55Z</time></trkpt><trkpt lat="46.1415233344758" lon="13.390444233448436"><ele>453.0</ele><time>2026-04-01T16:03:56Z</time></trkpt><trkpt lat="46.14145540757877" lon="13.390597606590314"><ele>449.75</ele><time>2026-04-01T16:03:57Z</time></trkpt><trkpt lat="46.14138473813173" lon="13.390741590122992"><ele>446.5</ele><time>2026-04-01T16:03:58Z</time></trkpt><trkpt lat="46.14130996458986" lon="13.390872592186524"><ele>443.25</ele><time>2026-04-01T16:03:59Z</time></trkpt><trkpt lat="46.14122991924128" lon="13.390994197572377"><ele>440.0</ele><time>2026-04-01T16:04:00Z</time></trkpt><trkpt lat="46.14114043140242" lon="13.391085780982836"><ele>440.0</ele><time>2026-04-01T16:04:01Z</time></trkpt><trkpt lat="46.14104182385341" lon="13.391136626780087"><ele>440.0</ele><time>2026-04-01T16:04:02Z</time></trkpt><trkpt lat="46.140935885634605" lon="13.391155701200155"><ele>440.0</ele><time>2026-04-01T16:04:03Z</time></trkpt><trkpt lat="46.14082294510148" lon="13.391147012922483"><ele>440.0</ele><time>2026-04-01T16:04:04Z</time></trkpt><trkpt lat="46.14070518899841" lon="13.391115954981899"><ele>440.0</ele><time>2026-04-01T16:04:05Z</time></trkpt><trkpt lat="46.140594588656164" lon="13.391057547884479"><ele>437.6</ele><time>2026-04-01T16:04:06Z</time></trkpt><trkpt lat="46.14047824281867" lon="13.391016607195152"><ele>435.2</ele><time>2026-04-01T16:04:07Z</time></trkpt><trkpt lat="46.14036926150803" lon="13.39101483314182"><ele>432.79999999999995</ele><time>2026-04-01T16:04:08Z</time></trkpt><trkpt lat="46.140274111676725" lon="13.39105965799198"><ele>430.4</ele><time>2026-04-01T16:04:09Z</time></trkpt><trkpt lat="46.140194134860415" lon="13.3911381348946"><ele>428.0</ele><time>2026-04-01T16:04:10Z</time></trkpt><trkpt lat="46.14012273239107" lon="13.391254366809486"><ele>428.0</ele><time>2026-04-01T16:04:11Z</time></trkpt><trkpt lat="46.140056475919295" lon="13.391395676503784"><ele>428.0</ele><time>2026-04-01T16:04:12Z</time></trkpt><trkpt lat="46.13998567095637" lon="13.391552179206121"><ele>428.0</ele><time>2026-04-01T16:04:13Z</time></trkpt><trkpt lat="46.139918847626234" lon="13.391698898931109"><ele>428.0</ele><time>2026-04-01T16:04:14Z</time></trkpt><trkpt lat="46.139855164374325" lon="13.391833696672888"><ele>427.0</ele><time>2026-04-01T16:04:15Z</time></trkpt><trkpt lat="46.1397930256908" lon="13.391957310345623"><ele>425.99999999999994</ele><time>2026-04-01T16:04:16Z</time></trkpt><trkpt lat="46.13972764333685" lon="13.392066653148648"><ele>425.0</ele><time>2026-04-01T16:04:17Z</time></trkpt><trkpt lat="46.139646109273144" lon="13.392157358851897"><ele>424.0</ele><time>2026-04-01T16:04:18Z</time></trkpt><trkpt lat="46.13956222735624" lon="13.392247818231183"><ele>423.0</ele><time>2026-04-01T16:04:19Z</time></trkpt><trkpt lat="46.139483456426966" lon="13.392343507770955"><ele>423.0</ele><time>2026-04-01T16:04:20Z</time></trkpt><trkpt lat="46.13942515514105" lon="13.392453360387844"><ele>423.0</ele><time>2026-04-01T16:04:21Z</time></trkpt><trkpt lat="46.13937925753739" lon="13.39256746237069"><ele>423.0</ele><time>2026-04-01T16:04:22Z</time></trkpt><trkpt lat="46.13934098840537" lon="13.392707114536313"><ele>423.0</ele><time>2026-04-01T16:04:23Z</time></trkpt><trkpt lat="46.13930551794473" lon="13.392852972206946"><ele>423.0</ele><time>2026-04-01T16:04:24Z</time></trkpt><trkpt lat="46.13927254899264" lon="13.3929984421394"><ele>423.0</ele><time>2026-04-01T16:04:25Z</time></trkpt><trkpt lat="46.139240352973076" lon="13.393148930276459"><ele>423.0</ele><time>2026-04-01T16:04:26Z</time></trkpt><trkpt lat="46.139210372912295" lon="13.393296605558582"><ele>423.0</ele><time>2026-04-01T16:04:27Z</time></trkpt><trkpt lat="46.13918016759436" lon="13.393434228717682"><ele>423.0</ele><time>2026-04-01T16:04:28Z</time></trkpt><trkpt lat="46.13913596337042" lon="13.393545388167247"><ele>423.0</ele><time>2026-04-01T16:04:29Z</time></trkpt><trkpt lat="46.13908179978836" lon="13.393628340244849"><ele>419.0</ele><time>2026-04-01T16:04:30Z</time></trkpt><trkpt lat="46.13901377498897" lon="13.393690118542546"><ele>415.0</ele><time>2026-04-01T16:04:31Z</time></trkpt><trkpt lat="46.13892322317434" lon="13.393655575232176"><ele>411.0</ele><time>2026-04-01T16:04:32Z</time></trkpt><trkpt lat="46.13884131597645" lon="13.393655206977018"><ele>407.0</ele><time>2026-04-01T16:04:33Z</time></trkpt><trkpt lat="46.13877452540575" lon="13.393656903877579"><ele>403.0</ele><time>2026-04-01T16:04:34Z</time></trkpt><trkpt lat="46.13871274462019" lon="13.393687031149708"><ele>399.0</ele><time>2026-04-01T16:04:35Z</time></trkpt><trkpt lat="46.13868948632294" lon="13.393771699766482"><ele>398.8333333333333</ele><time>2026-04-01T16:04:36Z</time></trkpt><trkpt lat="46.138679279895854" lon="13.393869885907101"><ele>398.66666666666663</ele><time>2026-04-01T16:04:37Z</time></trkpt><trkpt lat="46.138696082189036" lon="13.393997884440424"><ele>398.5</ele><time>2026-04-01T16:04:38Z</time></trkpt><trkpt lat="46.13871537837433" lon="13.394134410788864"><ele>398.3333333333333</ele><time>2026-04-01T16:04:39Z</time></trkpt><trkpt lat="46.13873909371202" lon="13.394250940266247"><ele>398.16666666666663</ele><time>2026-04-01T16:04:40Z</time></trkpt><trkpt lat="46.13877478972946" lon="13.394347454961315"><ele>398.0</ele><time>2026-04-01T16:04:41Z</time></trkpt><trkpt lat="46.1388312428771" lon="13.394412691261973"><ele>398.0</ele><time>2026-04-01T16:04:42Z</time></trkpt><trkpt lat="46.138893170398944" lon="13.394543215461127"><ele>398.0</ele><time>2026-04-01T16:04:44Z</time></trkpt><trkpt lat="46.13875942133092" lon="13.394555695003108"><ele>398.0</ele><time>2026-04-01T16:04:47Z</time></trkpt><trkpt lat="46.13872007177217" lon="13.39442649124731"><ele>398.0</ele><time>2026-04-01T16:04:48Z</time></trkpt><trkpt lat="46.138663515534645" lon="13.394319916468945"><ele>398.0</ele><time>2026-04-01T16:04:49Z</time></trkpt><trkpt lat="46.138595940906995" lon="13.394207759810108"><ele>398.0</ele><time>2026-04-01T16:04:50Z</time></trkpt><trkpt lat="46.138538680174044" lon="13.394088632864795"><ele>398.0</ele><time>2026-04-01T16:04:51Z</time></trkpt><trkpt lat="46.13849093536893" lon="13.393960985241835"><ele>398.0</ele><time>2026-04-01T16:04:52Z</time></trkpt><trkpt lat="46.13840367370818" lon="13.393871267687233"><ele>398.0</ele><time>2026-04-01T16:04:53Z</time></trkpt><trkpt lat="46.13830500063881" lon="13.393838252702135"><ele>398.0</ele><time>2026-04-01T16:04:54Z</time></trkpt><trkpt lat="46.13822968101827" lon="13.393816391362488"><ele>393.1428571428571</ele><time>2026-04-01T16:04:55Z</time></trkpt><trkpt lat="46.13816505279779" lon="13.393780083171219"><ele>388.2857142857143</ele><time>2026-04-01T16:04:56Z</time></trkpt><trkpt lat="46.13811652264657" lon="13.393713478877126"><ele>383.42857142857144</ele><time>2026-04-01T16:04:57Z</time></trkpt><trkpt lat="46.138080190159165" lon="13.393625722834994"><ele>378.57142857142856</ele><time>2026-04-01T16:04:58Z</time></trkpt><trkpt lat="46.13806766617112" lon="13.393530697654128"><ele>373.7142857142857</ele><time>2026-04-01T16:04:59Z</time></trkpt><trkpt lat="46.138061610211224" lon="13.393420314898925"><ele>368.85714285714283</ele><time>2026-04-01T16:05:00Z</time></trkpt><trkpt lat="46.138084571458855" lon="13.393302151279366"><ele>364.0</ele><time>2026-04-01T16:05:01Z</time></trkpt><trkpt lat="46.13809206176512" lon="13.393180478627915"><ele>364.0</ele><time>2026-04-01T16:05:02Z</time></trkpt><trkpt lat="46.13807726381956" lon="13.39304915650356"><ele>364.0</ele><time>2026-04-01T16:05:03Z</time></trkpt><trkpt lat="46.13805474631861" lon="13.392913858074778"><ele>364.0</ele><time>2026-04-01T16:05:04Z</time></trkpt><trkpt lat="46.13798781525573" lon="13.392811207542463"><ele>364.0</ele><time>2026-04-01T16:05:05Z</time></trkpt><trkpt lat="46.13792662076885" lon="13.392715567747892"><ele>364.0</ele><time>2026-04-01T16:05:06Z</time></trkpt><trkpt lat="46.13786325650799" lon="13.392617842252111"><ele>363.75</ele><time>2026-04-01T16:05:07Z</time></trkpt><trkpt lat="46.1378017687809" lon="13.392488956606934"><ele>363.5</ele><time>2026-04-01T16:05:08Z</time></trkpt><trkpt lat="46.13773970156769" lon="13.39233722423184"><ele>363.25</ele><time>2026-04-01T16:05:09Z</time></trkpt><trkpt lat="46.13767707338267" lon="13.392164613609577"><ele>363.0</ele><time>2026-04-01T16:05:10Z</time></trkpt><trkpt lat="46.13761441779461" lon="13.392008102909726"><ele>363.0</ele><time>2026-04-01T16:05:11Z</time></trkpt><trkpt lat="46.137557739576266" lon="13.391866390133705"><ele>363.0</ele><time>2026-04-01T16:05:12Z</time></trkpt><trkpt lat="46.13750479524191" lon="13.391739731987096"><ele>363.0</ele><time>2026-04-01T16:05:13Z</time></trkpt><trkpt lat="46.13743863600116" lon="13.391628146316673"><ele>363.0</ele><time>2026-04-01T16:05:14Z</time></trkpt><trkpt lat="46.13734391495406" lon="13.391539244506916"><ele>363.0</ele><time>2026-04-01T16:05:15Z</time></trkpt><trkpt lat="46.1372061333035" lon="13.391461264723882"><ele>360.75</ele><time>2026-04-01T16:05:16Z</time></trkpt><trkpt lat="46.13705264511201" lon="13.391392312855423"><ele>358.5</ele><time>2026-04-01T16:05:17Z</time></trkpt><trkpt lat="46.136931829508804" lon="13.391304498035169"><ele>356.25</ele><time>2026-04-01T16:05:18Z</time></trkpt><trkpt lat="46.13682888416225" lon="13.391246693456647"><ele>354.0</ele><time>2026-04-01T16:05:19Z</time></trkpt><trkpt lat="46.136744429432625" lon="13.391196196210675"><ele>354.0</ele><time>2026-04-01T16:05:20Z</time></trkpt><trkpt lat="46.13665407677687" lon="13.391151946966552"><ele>354.0</ele><time>2026-04-01T16:05:21Z</time></trkpt><trkpt lat="46.136566205895484" lon="13.391120248201709"><ele>354.0</ele><time>2026-04-01T16:05:22Z</time></trkpt><trkpt lat="46.13650075407316" lon="13.391100400125957"><ele>354.0</ele><time>2026-04-01T16:05:23Z</time></trkpt><trkpt lat="46.1364441316216" lon="13.391028169747834"><ele>354.0</ele><time>2026-04-01T16:05:25Z</time></trkpt><trkpt lat="46.13653574070883" lon="13.390914960812172"><ele>354.0</ele><time>2026-04-01T16:05:27Z</time></trkpt><trkpt lat="46.13660998694517" lon="13.390908720392567"><ele>354.0</ele><time>2026-04-01T16:05:28Z</time></trkpt><trkpt lat="46.13668662255929" lon="13.390932393156891"><ele>354.0</ele><time>2026-04-01T16:05:29Z</time></trkpt><trkpt lat="46.13677692120196" lon="13.390985985398105"><ele>354.0</ele><time>2026-04-01T16:05:30Z</time></trkpt><trkpt lat="46.136879337543384" lon="13.391036970255303"><ele>354.0</ele><time>2026-04-01T16:05:31Z</time></trkpt><trkpt lat="46.13699602497988" lon="13.391067015308902"><ele>354.0</ele><time>2026-04-01T16:05:32Z</time></trkpt><trkpt lat="46.1371130484115" lon="13.391079561883592"><ele>354.0</ele><time>2026-04-01T16:05:32.999Z</time></trkpt><trkpt lat="46.13722593507032" lon="13.391081897924488"><ele>354.0</ele><time>2026-04-01T16:05:33.999Z</time></trkpt><trkpt lat="46.13733023021503" lon="13.39109084262434"><ele>354.0</ele><time>2026-04-01T16:05:34.999Z</time></trkpt><trkpt lat="46.13742760823753" lon="13.391108204574207"><ele>354.0</ele><time>2026-04-01T16:05:35.999Z</time></trkpt><trkpt lat="46.13752410670186" lon="13.391101555651991"><ele>354.0</ele><time>2026-04-01T16:05:36.999Z</time></trkpt><trkpt lat="46.13760774778756" lon="13.391071869160129"><ele>354.0</ele><time>2026-04-01T16:05:37.999Z</time></trkpt><trkpt lat="46.13768861489134" lon="13.391051497682332"><ele>354.0</ele><time>2026-04-01T16:05:38.999Z</time></trkpt><trkpt lat="46.13774648690648" lon="13.390940663673316"><ele>354.0</ele><time>2026-04-01T16:05:39.999Z</time></trkpt><trkpt lat="46.13773542652082" lon="13.390784387850061"><ele>354.0</ele><time>2026-04-01T16:05:40.999Z</time></trkpt><trkpt lat="46.13771716287932" lon="13.390635315021443"><ele>354.0</ele><time>2026-04-01T16:05:42Z</time></trkpt><trkpt lat="46.137708992588585" lon="13.390499027850188"><ele>349.8333333333333</ele><time>2026-04-01T16:05:43Z</time></trkpt><trkpt lat="46.13772422352324" lon="13.390372351166608"><ele>345.6666666666667</ele><time>2026-04-01T16:05:44Z</time></trkpt><trkpt lat="46.13776515045985" lon="13.390280406847674"><ele>341.5</ele><time>2026-04-01T16:05:45Z</time></trkpt><trkpt lat="46.13784092001607" lon="13.390230859106529"><ele>337.33333333333337</ele><time>2026-04-01T16:05:46Z</time></trkpt><trkpt lat="46.13791933666249" lon="13.390193154791424"><ele>333.1666666666667</ele><time>2026-04-01T16:05:47Z</time></trkpt><trkpt lat="46.137992845364394" lon="13.390137932982633"><ele>329.0</ele><time>2026-04-01T16:05:48Z</time></trkpt><trkpt lat="46.13806663193918" lon="13.390084996073114"><ele>329.0</ele><time>2026-04-01T16:05:49Z</time></trkpt><trkpt lat="46.13813587545039" lon="13.390023265105988"><ele>329.0</ele><time>2026-04-01T16:05:50Z</time></trkpt><trkpt lat="46.13818751437458" lon="13.389946307423982"><ele>329.0</ele><time>2026-04-01T16:05:51Z</time></trkpt><trkpt lat="46.13821196136699" lon="13.389857718404366"><ele>329.0</ele><time>2026-04-01T16:05:52Z</time></trkpt><trkpt lat="46.13822222212684" lon="13.38975665533258"><ele>329.0</ele><time>2026-04-01T16:05:53Z</time></trkpt><trkpt lat="46.138161982215095" lon="13.389652823313781"><ele>329.0</ele><time>2026-04-01T16:05:54Z</time></trkpt><trkpt lat="46.138107001930855" lon="13.389546435106741"><ele>326.5</ele><time>2026-04-01T16:05:55Z</time></trkpt><trkpt lat="46.13805632371415" lon="13.389410477691838"><ele>324.0</ele><time>2026-04-01T16:05:56Z</time></trkpt><trkpt lat="46.13797924452779" lon="13.389285525461109"><ele>321.5</ele><time>2026-04-01T16:05:57Z</time></trkpt><trkpt lat="46.137868529386786" lon="13.389190129393048"><ele>319.0</ele><time>2026-04-01T16:05:58Z</time></trkpt><trkpt lat="46.137783290944725" lon="13.389058326922093"><ele>319.0</ele><time>2026-04-01T16:05:59Z</time></trkpt><trkpt lat="46.13773731561663" lon="13.388892189050074"><ele>319.0</ele><time>2026-04-01T16:06:00Z</time></trkpt><trkpt lat="46.13765544089265" lon="13.38876836547004"><ele>319.0</ele><time>2026-04-01T16:06:01Z</time></trkpt><trkpt lat="46.13753952743786" lon="13.388704891110466"><ele>319.0</ele><time>2026-04-01T16:06:02Z</time></trkpt><trkpt lat="46.13747131725062" lon="13.388563398824187"><ele>320.5</ele><time>2026-04-01T16:06:03Z</time></trkpt><trkpt lat="46.13741023659241" lon="13.388400364209588"><ele>322.0</ele><time>2026-04-01T16:06:04Z</time></trkpt><trkpt lat="46.13734549089475" lon="13.388241583375883"><ele>323.5</ele><time>2026-04-01T16:06:05Z</time></trkpt><trkpt lat="46.137292683331644" lon="13.38808509907268"><ele>325.0</ele><time>2026-04-01T16:06:06Z</time></trkpt><trkpt lat="46.137249635434856" lon="13.387927629999469"><ele>316.5</ele><time>2026-04-01T16:06:07Z</time></trkpt><trkpt lat="46.13719278785942" lon="13.387775753280147"><ele>308.0</ele><time>2026-04-01T16:06:08Z</time></trkpt><trkpt lat="46.13709728139473" lon="13.387641173276304"><ele>299.5</ele><time>2026-04-01T16:06:09Z</time></trkpt><trkpt lat="46.136990243058214" lon="13.387522405210936"><ele>291.0</ele><time>2026-04-01T16:06:10Z</time></trkpt><trkpt lat="46.13691926404757" lon="13.387415155947547"><ele>291.0</ele><time>2026-04-01T16:06:11Z</time></trkpt><trkpt lat="46.13685528868898" lon="13.387314677165508"><ele>291.0</ele><time>2026-04-01T16:06:12Z</time></trkpt><trkpt lat="46.13677287391955" lon="13.387242151178745"><ele>291.0</ele><time>2026-04-01T16:06:13Z</time></trkpt><trkpt lat="46.13667332467769" lon="13.387210699363626"><ele>291.0</ele><time>2026-04-01T16:06:14Z</time></trkpt><trkpt lat="46.13658604231237" lon="13.387204434531174"><ele>291.0</ele><time>2026-04-01T16:06:15Z</time></trkpt><trkpt lat="46.13651279676067" lon="13.387174120381708"><ele>285.40000000000003</ele><time>2026-04-01T16:06:16Z</time></trkpt><trkpt lat="46.136465100439786" lon="13.387101541967677"><ele>279.8</ele><time>2026-04-01T16:06:17Z</time></trkpt><trkpt lat="46.136442946460065" lon="13.38697775721842"><ele>274.20000000000005</ele><time>2026-04-01T16:06:18Z</time></trkpt><trkpt lat="46.136423708263116" lon="13.386835717805004"><ele>268.6</ele><time>2026-04-01T16:06:19Z</time></trkpt><trkpt lat="46.13639221684277" lon="13.386689150055549"><ele>263.0</ele><time>2026-04-01T16:06:20Z</time></trkpt><trkpt lat="46.136345736355615" lon="13.386552042246118"><ele>263.0</ele><time>2026-04-01T16:06:21Z</time></trkpt><trkpt lat="46.13632186698245" lon="13.386416687624083"><ele>263.0</ele><time>2026-04-01T16:06:22Z</time></trkpt><trkpt lat="46.13633628576059" lon="13.38627024717005"><ele>263.0</ele><time>2026-04-01T16:06:23Z</time></trkpt><trkpt lat="46.13634309519197" lon="13.386117953338752"><ele>263.0</ele><time>2026-04-01T16:06:24Z</time></trkpt><trkpt lat="46.136326940153396" lon="13.385971862861176"><ele>263.0</ele><time>2026-04-01T16:06:25Z</time></trkpt><trkpt lat="46.13627865610652" lon="13.385827744046118"><ele>264.75</ele><time>2026-04-01T16:06:26Z</time></trkpt><trkpt lat="46.13620135162937" lon="13.38567957557915"><ele>266.5</ele><time>2026-04-01T16:06:27Z</time></trkpt><trkpt lat="46.13613555258471" lon="13.385527342753194"><ele>268.25</ele><time>2026-04-01T16:06:28Z</time></trkpt><trkpt lat="46.136090423453375" lon="13.385374710695208"><ele>270.0</ele><time>2026-04-01T16:06:29Z</time></trkpt><trkpt lat="46.136049381229334" lon="13.38522027112168"><ele>270.25</ele><time>2026-04-01T16:06:30Z</time></trkpt><trkpt lat="46.13599958643934" lon="13.385073068964179"><ele>270.5</ele><time>2026-04-01T16:06:31Z</time></trkpt><trkpt lat="46.13594188603882" lon="13.384937854426035"><ele>270.75</ele><time>2026-04-01T16:06:32Z</time></trkpt><trkpt lat="46.135873684715534" lon="13.384807241380228"><ele>271.0</ele><time>2026-04-01T16:06:33Z</time></trkpt><trkpt lat="46.13578563886856" lon="13.384683616764956"><ele>269.5</ele><time>2026-04-01T16:06:34Z</time></trkpt><trkpt lat="46.13567900990952" lon="13.384568821765116"><ele>268.0</ele><time>2026-04-01T16:06:35Z</time></trkpt><trkpt lat="46.135571648930814" lon="13.384471091732513"><ele>266.5</ele><time>2026-04-01T16:06:36Z</time></trkpt><trkpt lat="46.13546322198594" lon="13.384385538225388"><ele>265.0</ele><time>2026-04-01T16:06:37Z</time></trkpt><trkpt lat="46.13534033409961" lon="13.38431693941937"><ele>265.0</ele><time>2026-04-01T16:06:38Z</time></trkpt><trkpt lat="46.13521762226795" lon="13.3842460824546"><ele>265.0</ele><time>2026-04-01T16:06:39Z</time></trkpt><trkpt lat="46.13510149914514" lon="13.384172472057225"><ele>265.0</ele><time>2026-04-01T16:06:40Z</time></trkpt><trkpt lat="46.13499046115516" lon="13.384103773587672"><ele>265.0</ele><time>2026-04-01T16:06:41Z</time></trkpt><trkpt lat="46.134882496242845" lon="13.384033984090937"><ele>263.8</ele><time>2026-04-01T16:06:42Z</time></trkpt><trkpt lat="46.134770606979636" lon="13.383985190129463"><ele>262.6</ele><time>2026-04-01T16:06:43Z</time></trkpt><trkpt lat="46.13467609334778" lon="13.383907491594025"><ele>261.4</ele><time>2026-04-01T16:06:44Z</time></trkpt><trkpt lat="46.13457852915099" lon="13.383879344519352"><ele>260.2</ele><time>2026-04-01T16:06:45Z</time></trkpt><trkpt lat="46.13448571820624" lon="13.383862282888048"><ele>259.0</ele><time>2026-04-01T16:06:46Z</time></trkpt><trkpt lat="46.1344047401546" lon="13.383847221273054"><ele>260.2</ele><time>2026-04-01T16:06:47Z</time></trkpt><trkpt lat="46.13433313855372" lon="13.383808971692675"><ele>261.4</ele><time>2026-04-01T16:06:48Z</time></trkpt><trkpt lat="46.13425077396919" lon="13.383719145656556"><ele>262.6</ele><time>2026-04-01T16:06:49Z</time></trkpt><trkpt lat="46.134184115823125" lon="13.383594660249804"><ele>263.8</ele><time>2026-04-01T16:06:50Z</time></trkpt><trkpt lat="46.134108256764364" lon="13.383471502854887"><ele>265.0</ele><time>2026-04-01T16:06:51Z</time></trkpt><trkpt lat="46.13402630888187" lon="13.38333330045788"><ele>263.0</ele><time>2026-04-01T16:06:52Z</time></trkpt><trkpt lat="46.1339423413597" lon="13.383196818396492"><ele>261.0</ele><time>2026-04-01T16:06:53Z</time></trkpt><trkpt lat="46.133851326956716" lon="13.383072379384217"><ele>259.0</ele><time>2026-04-01T16:06:54Z</time></trkpt><trkpt lat="46.13376446607064" lon="13.382964235590583"><ele>257.0</ele><time>2026-04-01T16:06:55Z</time></trkpt><trkpt lat="46.133696309095185" lon="13.38286145114585"><ele>257.0</ele><time>2026-04-01T16:06:56Z</time></trkpt><trkpt lat="46.133609493447196" lon="13.382788449184401"><ele>257.0</ele><time>2026-04-01T16:06:57Z</time></trkpt><trkpt lat="46.13354254348649" lon="13.382676754970529"><ele>257.0</ele><time>2026-04-01T16:06:58Z</time></trkpt><trkpt lat="46.133488860327006" lon="13.382561338397759"><ele>257.0</ele><time>2026-04-01T16:06:59Z</time></trkpt><trkpt lat="46.133449025833386" lon="13.382453825227062"><ele>257.0</ele><time>2026-04-01T16:07:00Z</time></trkpt><trkpt lat="46.13340842461649" lon="13.382347413005856"><ele>257.0</ele><time>2026-04-01T16:07:01Z</time></trkpt><trkpt lat="46.13337105710732" lon="13.382257977734952"><ele>257.0</ele><time>2026-04-01T16:07:02Z</time></trkpt><trkpt lat="46.133327349250905" lon="13.382178935123004"><ele>257.0</ele><time>2026-04-01T16:07:03Z</time></trkpt><trkpt lat="46.13325121637949" lon="13.382122330337863"><ele>257.0</ele><time>2026-04-01T16:07:04Z</time></trkpt><trkpt lat="46.13315650513645" lon="13.382087509486702"><ele>257.0</ele><time>2026-04-01T16:07:05Z</time></trkpt><trkpt lat="46.133082724832015" lon="13.382029351611862"><ele>257.0</ele><time>2026-04-01T16:07:06Z</time></trkpt><trkpt lat="46.13302256644046" lon="13.381952405589058"><ele>254.2</ele><time>2026-04-01T16:07:07Z</time></trkpt><trkpt lat="46.13297417297798" lon="13.381839074762363"><ele>251.39999999999998</ele><time>2026-04-01T16:07:08Z</time></trkpt><trkpt lat="46.13293612986477" lon="13.381703821611179"><ele>248.60000000000002</ele><time>2026-04-01T16:07:09Z</time></trkpt><trkpt lat="46.13288594113864" lon="13.38156259395483"><ele>245.8</ele><time>2026-04-01T16:07:10Z</time></trkpt><trkpt lat="46.132820079020235" lon="13.381421601582495"><ele>243.0</ele><time>2026-04-01T16:07:11Z</time></trkpt><trkpt lat="46.13273058946221" lon="13.381295662364334"><ele>243.0</ele><time>2026-04-01T16:07:12Z</time></trkpt><trkpt lat="46.13263802009845" lon="13.381177450274809"><ele>243.0</ele><time>2026-04-01T16:07:13Z</time></trkpt><trkpt lat="46.132556978340624" lon="13.381078545219152"><ele>243.0</ele><time>2026-04-01T16:07:14Z</time></trkpt><trkpt lat="46.132482787213235" lon="13.380976150968067"><ele>243.0</ele><time>2026-04-01T16:07:15Z</time></trkpt><trkpt lat="46.132416359425655" lon="13.380884204731483"><ele>243.0</ele><time>2026-04-01T16:07:16Z</time></trkpt><trkpt lat="46.13236873535047" lon="13.3808075780469"><ele>238.2</ele><time>2026-04-01T16:07:17Z</time></trkpt><trkpt lat="46.13233847082717" lon="13.380703111886168"><ele>233.4</ele><time>2026-04-01T16:07:18Z</time></trkpt><trkpt lat="46.132337065634594" lon="13.38057498466934"><ele>228.59999999999997</ele><time>2026-04-01T16:07:19Z</time></trkpt><trkpt lat="46.13236029353921" lon="13.380436204977691"><ele>223.79999999999998</ele><time>2026-04-01T16:07:20Z</time></trkpt><trkpt lat="46.13238570962331" lon="13.380301703645518"><ele>219.0</ele><time>2026-04-01T16:07:21Z</time></trkpt><trkpt lat="46.13238969534883" lon="13.380169946004505"><ele>218.2</ele><time>2026-04-01T16:07:22Z</time></trkpt><trkpt lat="46.13236572444847" lon="13.380041405838318"><ele>217.39999999999998</ele><time>2026-04-01T16:07:23Z</time></trkpt><trkpt lat="46.132321596057274" lon="13.379919640220509"><ele>216.6</ele><time>2026-04-01T16:07:24Z</time></trkpt><trkpt lat="46.132295756254415" lon="13.379794135528844"><ele>215.8</ele><time>2026-04-01T16:07:25Z</time></trkpt><trkpt lat="46.13226056675384" lon="13.3796826889271"><ele>215.0</ele><time>2026-04-01T16:07:26Z</time></trkpt><trkpt lat="46.132263720419076" lon="13.379551921228437"><ele>216.2</ele><time>2026-04-01T16:07:27Z</time></trkpt><trkpt lat="46.13228780896746" lon="13.379411756282439"><ele>217.4</ele><time>2026-04-01T16:07:28Z</time></trkpt><trkpt lat="46.132318185017304" lon="13.379274203111512"><ele>218.60000000000002</ele><time>2026-04-01T16:07:29Z</time></trkpt><trkpt lat="46.132337355048485" lon="13.379142615534992"><ele>219.8</ele><time>2026-04-01T16:07:30Z</time></trkpt><trkpt lat="46.13233769748339" lon="13.378998363464198"><ele>221.0</ele><time>2026-04-01T16:07:31Z</time></trkpt><trkpt lat="46.13231434326954" lon="13.378847557395396"><ele>221.0</ele><time>2026-04-01T16:07:32Z</time></trkpt><trkpt lat="46.132267381912186" lon="13.378711681426582"><ele>221.0</ele><time>2026-04-01T16:07:33Z</time></trkpt><trkpt lat="46.132201941249946" lon="13.378589916244184"><ele>221.0</ele><time>2026-04-01T16:07:34Z</time></trkpt><trkpt lat="46.13211987133435" lon="13.378466646013697"><ele>221.0</ele><time>2026-04-01T16:07:35Z</time></trkpt><trkpt lat="46.13203743237801" lon="13.378340527908218"><ele>221.0</ele><time>2026-04-01T16:07:35.999Z</time></trkpt><trkpt lat="46.131959626462105" lon="13.378230940880307"><ele>221.0</ele><time>2026-04-01T16:07:36.999Z</time></trkpt><trkpt lat="46.13187146416026" lon="13.378147990045575"><ele>221.0</ele><time>2026-04-01T16:07:37.999Z</time></trkpt><trkpt lat="46.13176882697228" lon="13.37807597956568"><ele>221.0</ele><time>2026-04-01T16:07:38.999Z</time></trkpt><trkpt lat="46.131645762846645" lon="13.378078201124506"><ele>219.4</ele><time>2026-04-01T16:07:39.999Z</time></trkpt><trkpt lat="46.13152274716933" lon="13.378048055933888"><ele>217.8</ele><time>2026-04-01T16:07:40.999Z</time></trkpt><trkpt lat="46.131412848505626" lon="13.378064232094529"><ele>216.20000000000002</ele><time>2026-04-01T16:07:41.999Z</time></trkpt><trkpt lat="46.13131574023248" lon="13.378056898343019"><ele>214.60000000000002</ele><time>2026-04-01T16:07:42.999Z</time></trkpt><trkpt lat="46.131223090667305" lon="13.378046657509055"><ele>213.0</ele><time>2026-04-01T16:07:43.999Z</time></trkpt><trkpt lat="46.13114827653056" lon="13.378007760000788"><ele>213.0</ele><time>2026-04-01T16:07:44.999Z</time></trkpt><trkpt lat="46.13110284362125" lon="13.377928705220713"><ele>213.0</ele><time>2026-04-01T16:07:45.999Z</time></trkpt><trkpt lat="46.13109544158745" lon="13.377817368796066"><ele>213.0</ele><time>2026-04-01T16:07:46.999Z</time></trkpt><trkpt lat="46.13111666705964" lon="13.37769129171295"><ele>213.0</ele><time>2026-04-01T16:07:48Z</time></trkpt><trkpt lat="46.13110076309785" lon="13.377565181306675"><ele>213.0</ele><time>2026-04-01T16:07:49Z</time></trkpt><trkpt lat="46.131046361056136" lon="13.377443580174809"><ele>213.0</ele><time>2026-04-01T16:07:50Z</time></trkpt><trkpt lat="46.1309827979473" lon="13.377341043895917"><ele>213.0</ele><time>2026-04-01T16:07:51Z</time></trkpt><trkpt lat="46.13093834701509" lon="13.377235274794186"><ele>213.0</ele><time>2026-04-01T16:07:52Z</time></trkpt><trkpt lat="46.13088466762719" lon="13.37715390965514"><ele>213.0</ele><time>2026-04-01T16:07:53Z</time></trkpt><trkpt lat="46.13087872298358" lon="13.37703421288664"><ele>213.0</ele><time>2026-04-01T16:07:54Z</time></trkpt><trkpt lat="46.130914643835375" lon="13.376915610921248"><ele>213.0</ele><time>2026-04-01T16:07:55Z</time></trkpt><trkpt lat="46.13097809205063" lon="13.376820879494996"><ele>213.0</ele><time>2026-04-01T16:07:56Z</time></trkpt><trkpt lat="46.13105297945333" lon="13.376728994118805"><ele>211.66666666666666</ele><time>2026-04-01T16:07:57Z</time></trkpt><trkpt lat="46.131126740894516" lon="13.376625801288517"><ele>210.33333333333331</ele><time>2026-04-01T16:07:58Z</time></trkpt><trkpt lat="46.13119325090191" lon="13.376539184462098"><ele>209.0</ele><time>2026-04-01T16:07:59Z</time></trkpt><trkpt lat="46.13122942315189" lon="13.376448687527054"><ele>207.66666666666666</ele><time>2026-04-01T16:08:00Z</time></trkpt><trkpt lat="46.13122679645563" lon="13.376350574274294"><ele>206.33333333333331</ele><time>2026-04-01T16:08:01Z</time></trkpt><trkpt lat="46.131145014128435" lon="13.3762396056825"><ele>205.0</ele><time>2026-04-01T16:08:03Z</time></trkpt><trkpt lat="46.13102791141402" lon="13.376323845290319"><ele>205.0</ele><time>2026-04-01T16:08:05Z</time></trkpt><trkpt lat="46.130984710203116" lon="13.376431705339911"><ele>205.0</ele><time>2026-04-01T16:08:06Z</time></trkpt><trkpt lat="46.13094216140234" lon="13.376551392156804"><ele>205.0</ele><time>2026-04-01T16:08:07Z</time></trkpt><trkpt lat="46.130884692369904" lon="13.37668284698179"><ele>205.0</ele><time>2026-04-01T16:08:08Z</time></trkpt><trkpt lat="46.13081886384171" lon="13.376801804017303"><ele>205.0</ele><time>2026-04-01T16:08:09Z</time></trkpt><trkpt lat="46.13074467063147" lon="13.376898118119744"><ele>200.66666666666666</ele><time>2026-04-01T16:08:10Z</time></trkpt><trkpt lat="46.13066859950114" lon="13.376973491760547"><ele>196.33333333333331</ele><time>2026-04-01T16:08:11Z</time></trkpt><trkpt lat="46.13061286473787" lon="13.377054842674562"><ele>192.0</ele><time>2026-04-01T16:08:12Z</time></trkpt><trkpt lat="46.13057965072061" lon="13.377155504960593"><ele>187.66666666666666</ele><time>2026-04-01T16:08:13Z</time></trkpt><trkpt lat="46.130585498043324" lon="13.37726456072349"><ele>183.33333333333331</ele><time>2026-04-01T16:08:14Z</time></trkpt><trkpt lat="46.13066597448381" lon="13.37734669747857"><ele>179.0</ele><time>2026-04-01T16:08:15Z</time></trkpt><trkpt lat="46.13068710519072" lon="13.377483402087725"><ele>179.0</ele><time>2026-04-01T16:08:17Z</time></trkpt><trkpt lat="46.13062036572838" lon="13.377503451037107"><ele>179.0</ele><time>2026-04-01T16:08:18Z</time></trkpt><trkpt lat="46.13055484365462" lon="13.377468705909004"><ele>179.0</ele><time>2026-04-01T16:08:19Z</time></trkpt><trkpt lat="46.13050573094261" lon="13.37736014709297"><ele>179.0</ele><time>2026-04-01T16:08:20Z</time></trkpt><trkpt lat="46.13047838274511" lon="13.377212632703523"><ele>179.0</ele><time>2026-04-01T16:08:21Z</time></trkpt><trkpt lat="46.13045207238356" lon="13.377072837245183"><ele>179.0</ele><time>2026-04-01T16:08:22Z</time></trkpt><trkpt lat="46.130433634167396" lon="13.376943838629378"><ele>178.6</ele><time>2026-04-01T16:08:23Z</time></trkpt><trkpt lat="46.130438107537245" lon="13.376817948395828"><ele>178.2</ele><time>2026-04-01T16:08:24Z</time></trkpt><trkpt lat="46.130483996722205" lon="13.376706270282344"><ele>177.79999999999998</ele><time>2026-04-01T16:08:25Z</time></trkpt><trkpt lat="46.130556532954365" lon="13.376615809898727"><ele>177.39999999999998</ele><time>2026-04-01T16:08:26Z</time></trkpt><trkpt lat="46.130615323505566" lon="13.376507191168068"><ele>177.0</ele><time>2026-04-01T16:08:27Z</time></trkpt><trkpt lat="46.13064062333148" lon="13.376371372595399"><ele>176.0</ele><time>2026-04-01T16:08:28Z</time></trkpt><trkpt lat="46.1306343267969" lon="13.37623292676368"><ele>175.0</ele><time>2026-04-01T16:08:29Z</time></trkpt><trkpt lat="46.1306102084024" lon="13.376085322259579"><ele>174.0</ele><time>2026-04-01T16:08:30Z</time></trkpt><trkpt lat="46.130574045480465" lon="13.375927784216437"><ele>173.0</ele><time>2026-04-01T16:08:31Z</time></trkpt><trkpt lat="46.13052951683598" lon="13.375759910263616"><ele>172.0</ele><time>2026-04-01T16:08:32Z</time></trkpt><trkpt lat="46.13046710746669" lon="13.375597495125582"><ele>170.8</ele><time>2026-04-01T16:08:33Z</time></trkpt><trkpt lat="46.13038863272397" lon="13.375442201799123"><ele>169.6</ele><time>2026-04-01T16:08:34Z</time></trkpt><trkpt lat="46.13030542331248" lon="13.375305369252663"><ele>168.4</ele><time>2026-04-01T16:08:35Z</time></trkpt><trkpt lat="46.13023568576567" lon="13.375199051287426"><ele>167.20000000000002</ele><time>2026-04-01T16:08:36Z</time></trkpt><trkpt lat="46.130197140280224" lon="13.375093117226069"><ele>166.0</ele><time>2026-04-01T16:08:37Z</time></trkpt><trkpt lat="46.13014412337038" lon="13.375020223075882"><ele>166.0</ele><time>2026-04-01T16:08:38Z</time></trkpt><trkpt lat="46.13014222133685" lon="13.374889880823114"><ele>166.0</ele><time>2026-04-01T16:08:39Z</time></trkpt><trkpt lat="46.13016613858014" lon="13.374741347237222"><ele>166.0</ele><time>2026-04-01T16:08:40Z</time></trkpt><trkpt lat="46.13017196078419" lon="13.37459297057443"><ele>166.0</ele><time>2026-04-01T16:08:41Z</time></trkpt><trkpt lat="46.13014443560158" lon="13.374444318989923"><ele>166.0</ele><time>2026-04-01T16:08:42Z</time></trkpt><trkpt lat="46.13009806291093" lon="13.37430902166838"><ele>165.60000000000002</ele><time>2026-04-01T16:08:43Z</time></trkpt><trkpt lat="46.13005894944824" lon="13.374177228405316"><ele>165.2</ele><time>2026-04-01T16:08:44Z</time></trkpt><trkpt lat="46.13001177150832" lon="13.374082821872747"><ele>164.8</ele><time>2026-04-01T16:08:45Z</time></trkpt><trkpt lat="46.13000562113427" lon="13.37397231005349"><ele>164.39999999999998</ele><time>2026-04-01T16:08:46Z</time></trkpt><trkpt lat="46.13004056586945" lon="13.373851029190996"><ele>164.0</ele><time>2026-04-01T16:08:47Z</time></trkpt><trkpt lat="46.13009407821662" lon="13.37372246541422"><ele>162.0</ele><time>2026-04-01T16:08:48Z</time></trkpt><trkpt lat="46.13013469952048" lon="13.373572526050673"><ele>160.0</ele><time>2026-04-01T16:08:49Z</time></trkpt><trkpt lat="46.13015717764367" lon="13.373399832365367"><ele>158.0</ele><time>2026-04-01T16:08:50Z</time></trkpt><trkpt lat="46.13017049188801" lon="13.373214265305016"><ele>156.0</ele><time>2026-04-01T16:08:51Z</time></trkpt><trkpt lat="46.13019198330681" lon="13.373011838016511"><ele>155.75</ele><time>2026-04-01T16:08:52Z</time></trkpt><trkpt lat="46.13023326357974" lon="13.372813613744247"><ele>155.5</ele><time>2026-04-01T16:08:53Z</time></trkpt><trkpt lat="46.130282562953965" lon="13.372636239296046"><ele>155.25</ele><time>2026-04-01T16:08:54Z</time></trkpt><trkpt lat="46.13033690981152" lon="13.37247344010416"><ele>155.0</ele><time>2026-04-01T16:08:55Z</time></trkpt><trkpt lat="46.13040664968046" lon="13.372327188087079"><ele>155.0</ele><time>2026-04-01T16:08:56Z</time></trkpt><trkpt lat="46.13049088886532" lon="13.372193953539453"><ele>155.0</ele><time>2026-04-01T16:08:57Z</time></trkpt><trkpt lat="46.1305676157761" lon="13.372064647841306"><ele>155.0</ele><time>2026-04-01T16:08:58Z</time></trkpt><trkpt lat="46.13063074226413" lon="13.371946355147657"><ele>155.0</ele><time>2026-04-01T16:08:59Z</time></trkpt><trkpt lat="46.13068161958572" lon="13.371837996612719"><ele>155.0</ele><time>2026-04-01T16:09:00Z</time></trkpt><trkpt lat="46.13069583816508" lon="13.371725918451682"><ele>154.16666666666666</ele><time>2026-04-01T16:09:01Z</time></trkpt><trkpt lat="46.13067328776291" lon="13.371616701629277"><ele>153.33333333333331</ele><time>2026-04-01T16:09:02Z</time></trkpt><trkpt lat="46.130618996265326" lon="13.371530540776394"><ele>152.5</ele><time>2026-04-01T16:09:03Z</time></trkpt><trkpt lat="46.130537595654104" lon="13.371477127102871"><ele>151.66666666666666</ele><time>2026-04-01T16:09:04Z</time></trkpt><trkpt lat="46.13044409621791" lon="13.371454396465507"><ele>150.83333333333334</ele><time>2026-04-01T16:09:05Z</time></trkpt><trkpt lat="46.130342597675345" lon="13.371428656867602"><ele>150.0</ele><time>2026-04-01T16:09:06Z</time></trkpt><trkpt lat="46.130224525822854" lon="13.37139763582954"><ele>150.0</ele><time>2026-04-01T16:09:07Z</time></trkpt><trkpt lat="46.13009108827535" lon="13.371373639600925"><ele>150.0</ele><time>2026-04-01T16:09:08Z</time></trkpt><trkpt lat="46.129974815592554" lon="13.371334987220623"><ele>150.0</ele><time>2026-04-01T16:09:09Z</time></trkpt><trkpt lat="46.129851888412716" lon="13.371274427518662"><ele>150.0</ele><time>2026-04-01T16:09:10Z</time></trkpt><trkpt lat="46.12972566190834" lon="13.37119546304417"><ele>146.0</ele><time>2026-04-01T16:09:11Z</time></trkpt><trkpt lat="46.12959600739057" lon="13.371110502595702"><ele>142.0</ele><time>2026-04-01T16:09:12Z</time></trkpt><trkpt lat="46.12948452077547" lon="13.371034885189923"><ele>138.0</ele><time>2026-04-01T16:09:13Z</time></trkpt><trkpt lat="46.12939884840539" lon="13.370942020189911"><ele>134.0</ele><time>2026-04-01T16:09:14Z</time></trkpt><trkpt lat="46.12934233913322" lon="13.370824446381851"><ele>134.0</ele><time>2026-04-01T16:09:15Z</time></trkpt><trkpt lat="46.12931229397508" lon="13.370688259519184"><ele>134.0</ele><time>2026-04-01T16:09:16Z</time></trkpt><trkpt lat="46.12929797535253" lon="13.370538236789393"><ele>134.0</ele><time>2026-04-01T16:09:17Z</time></trkpt><trkpt lat="46.12927701794179" lon="13.37040191367326"><ele>134.0</ele><time>2026-04-01T16:09:18Z</time></trkpt><trkpt lat="46.12924587345405" lon="13.370266793470105"><ele>134.0</ele><time>2026-04-01T16:09:19Z</time></trkpt><trkpt lat="46.129191133639615" lon="13.370130071781462"><ele>133.75</ele><time>2026-04-01T16:09:20Z</time></trkpt><trkpt lat="46.12909687992834" lon="13.370016283207553"><ele>133.5</ele><time>2026-04-01T16:09:21Z</time></trkpt><trkpt lat="46.12898746902076" lon="13.369914185629064"><ele>133.25</ele><time>2026-04-01T16:09:22Z</time></trkpt><trkpt lat="46.128877709134464" lon="13.369800511730997"><ele>133.0</ele><time>2026-04-01T16:09:23Z</time></trkpt><trkpt lat="46.128773217177795" lon="13.36966971161693"><ele>133.0</ele><time>2026-04-01T16:09:24Z</time></trkpt><trkpt lat="46.12867039521829" lon="13.369547160957131"><ele>133.0</ele><time>2026-04-01T16:09:25Z</time></trkpt><trkpt lat="46.12857059500359" lon="13.369423347156586"><ele>133.0</ele><time>2026-04-01T16:09:26Z</time></trkpt><trkpt lat="46.12846632620583" lon="13.369287594196226"><ele>133.0</ele><time>2026-04-01T16:09:27Z</time></trkpt><trkpt lat="46.12836509749799" lon="13.369160691461884"><ele>133.0</ele><time>2026-04-01T16:09:28Z</time></trkpt><trkpt lat="46.12827420294278" lon="13.369052318002918"><ele>133.0</ele><time>2026-04-01T16:09:29Z</time></trkpt><trkpt lat="46.12819456468277" lon="13.368930984417377"><ele>133.0</ele><time>2026-04-01T16:09:30Z</time></trkpt><trkpt lat="46.12813451905812" lon="13.368777022307281"><ele>133.0</ele><time>2026-04-01T16:09:31Z</time></trkpt><trkpt lat="46.128089298212146" lon="13.368599303268164"><ele>132.0</ele><time>2026-04-01T16:09:32Z</time></trkpt><trkpt lat="46.128030417602126" lon="13.36843936580906"><ele>131.0</ele><time>2026-04-01T16:09:33Z</time></trkpt><trkpt lat="46.12796281840536" lon="13.368297440988119"><ele>130.0</ele><time>2026-04-01T16:09:34Z</time></trkpt><trkpt lat="46.12788760497009" lon="13.368152759617628"><ele>129.0</ele><time>2026-04-01T16:09:35Z</time></trkpt><trkpt lat="46.12780465977387" lon="13.368005657323272"><ele>129.0</ele><time>2026-04-01T16:09:36Z</time></trkpt><trkpt lat="46.127715582251334" lon="13.367866707756829"><ele>129.0</ele><time>2026-04-01T16:09:37Z</time></trkpt><trkpt lat="46.1276359754959" lon="13.367739453044134"><ele>129.0</ele><time>2026-04-01T16:09:38Z</time></trkpt><trkpt lat="46.127563211098064" lon="13.367619491968515"><ele>129.0</ele><time>2026-04-01T16:09:39Z</time></trkpt><trkpt lat="46.12749262835437" lon="13.367506673924636"><ele>129.0</ele><time>2026-04-01T16:09:39.999Z</time></trkpt><trkpt lat="46.12742595682252" lon="13.367400294112622"><ele>129.0</ele><time>2026-04-01T16:09:40.999Z</time></trkpt><trkpt lat="46.12736781760574" lon="13.367306405231048"><ele>129.0</ele><time>2026-04-01T16:09:41.999Z</time></trkpt><trkpt lat="46.12731955274862" lon="13.367224265034597"><ele>129.0</ele><time>2026-04-01T16:09:42.999Z</time></trkpt><trkpt lat="46.12727465766277" lon="13.367150391517423"><ele>129.0</ele><time>2026-04-01T16:09:43.999Z</time></trkpt><trkpt lat="46.127200629111904" lon="13.36703864209797"><ele>129.0</ele><time>2026-04-01T16:09:45.999Z</time></trkpt><trkpt lat="46.127154210712796" lon="13.366965617730804"><ele>129.0</ele><time>2026-04-01T16:09:47.999Z</time></trkpt><trkpt lat="46.12710474880291" lon="13.366909193070661"><ele>129.0</ele><time>2026-04-01T16:09:57Z</time></trkpt><trkpt lat="46.12700728602127" lon="13.366968145762371"><ele>129.0</ele><time>2026-04-01T16:10:10Z</time></trkpt><trkpt lat="46.12697176524263" lon="13.367065453547198"><ele>129.0</ele><time>2026-04-01T16:10:11Z</time></trkpt><trkpt lat="46.12693096915093" lon="13.367186108129824"><ele>129.0</ele><time>2026-04-01T16:10:12Z</time></trkpt><trkpt lat="46.126872438188066" lon="13.367328441319614"><ele>129.0</ele><time>2026-04-01T16:10:13Z</time></trkpt><trkpt lat="46.126808494731236" lon="13.367488216589802"><ele>129.0</ele><time>2026-04-01T16:10:14Z</time></trkpt><trkpt lat="46.1267444817066" lon="13.367658640416574"><ele>129.0</ele><time>2026-04-01T16:10:15Z</time></trkpt><trkpt lat="46.126677515834395" lon="13.367833281468737"><ele>129.0</ele><time>2026-04-01T16:10:16Z</time></trkpt><trkpt lat="46.12660456976848" lon="13.368013950767395"><ele>128.0</ele><time>2026-04-01T16:10:17Z</time></trkpt><trkpt lat="46.12652747787807" lon="13.368200404179252"><ele>127.0</ele><time>2026-04-01T16:10:18Z</time></trkpt><trkpt lat="46.12644775369905" lon="13.36840362701341"><ele>126.0</ele><time>2026-04-01T16:10:19Z</time></trkpt><trkpt lat="46.126362362938124" lon="13.36861620574024"><ele>126.0</ele><time>2026-04-01T16:10:20Z</time></trkpt><trkpt lat="46.12627394547272" lon="13.368836752632808"><ele>126.0</ele><time>2026-04-01T16:10:21Z</time></trkpt><trkpt lat="46.126195035064306" lon="13.36903613656054"><ele>126.0</ele><time>2026-04-01T16:10:22Z</time></trkpt><trkpt lat="46.12612522606283" lon="13.369220015363172"><ele>125.75</ele><time>2026-04-01T16:10:23Z</time></trkpt><trkpt lat="46.126072976212335" lon="13.36941208532845"><ele>125.5</ele><time>2026-04-01T16:10:24Z</time></trkpt><trkpt lat="46.12604203286662" lon="13.369623621621399"><ele>125.25</ele><time>2026-04-01T16:10:25Z</time></trkpt><trkpt lat="46.12603301866726" lon="13.369842806192707"><ele>125.0</ele><time>2026-04-01T16:10:26Z</time></trkpt><trkpt lat="46.126033049856154" lon="13.370074847920222"><ele>125.0</ele><time>2026-04-01T16:10:27Z</time></trkpt><trkpt lat="46.12602042270781" lon="13.370314722220469"><ele>125.0</ele><time>2026-04-01T16:10:28Z</time></trkpt><trkpt lat="46.126008788403496" lon="13.370557791491748"><ele>125.0</ele><time>2026-04-01T16:10:29Z</time></trkpt><trkpt lat="46.126000814969665" lon="13.370802728112574"><ele>125.0</ele><time>2026-04-01T16:10:30Z</time></trkpt><trkpt lat="46.12599482496715" lon="13.371054116778227"><ele>125.0</ele><time>2026-04-01T16:10:31Z</time></trkpt><trkpt lat="46.12598758976611" lon="13.371311030788604"><ele>125.0</ele><time>2026-04-01T16:10:32Z</time></trkpt><trkpt lat="46.125980825059756" lon="13.371571869363281"><ele>125.33333333333333</ele><time>2026-04-01T16:10:33Z</time></trkpt><trkpt lat="46.12597432114927" lon="13.371834400886499"><ele>125.66666666666666</ele><time>2026-04-01T16:10:34Z</time></trkpt><trkpt lat="46.12596740946689" lon="13.372098700720073"><ele>126.0</ele><time>2026-04-01T16:10:35Z</time></trkpt><trkpt lat="46.125958625334306" lon="13.372364344176555"><ele>125.33333333333334</ele><time>2026-04-01T16:10:36Z</time></trkpt><trkpt lat="46.125948776939474" lon="13.37262262753445"><ele>124.66666666666667</ele><time>2026-04-01T16:10:37Z</time></trkpt><trkpt lat="46.12594099502297" lon="13.372880136506778"><ele>124.0</ele><time>2026-04-01T16:10:38Z</time></trkpt><trkpt lat="46.125936465181006" lon="13.373139017494573"><ele>123.33333333333334</ele><time>2026-04-01T16:10:39Z</time></trkpt><trkpt lat="46.125931402703415" lon="13.373399551512145"><ele>122.66666666666666</ele><time>2026-04-01T16:10:40Z</time></trkpt><trkpt lat="46.125921431608525" lon="13.373655925216276"><ele>122.0</ele><time>2026-04-01T16:10:41Z</time></trkpt><trkpt lat="46.125911528780954" lon="13.373906295431611"><ele>123.66666666666666</ele><time>2026-04-01T16:10:42Z</time></trkpt><trkpt lat="46.125893682355624" lon="13.374152535638594"><ele>125.33333333333334</ele><time>2026-04-01T16:10:43Z</time></trkpt><trkpt lat="46.125850416663084" lon="13.374390176369136"><ele>127.0</ele><time>2026-04-01T16:10:44Z</time></trkpt><trkpt lat="46.12577623998402" lon="13.374618512273209"><ele>126.33333333333334</ele><time>2026-04-01T16:10:45Z</time></trkpt><trkpt lat="46.12567744723519" lon="13.374842445319334"><ele>125.66666666666666</ele><time>2026-04-01T16:10:46Z</time></trkpt><trkpt lat="46.125574613771946" lon="13.375072821688827"><ele>125.0</ele><time>2026-04-01T16:10:47Z</time></trkpt><trkpt lat="46.12546977002677" lon="13.375310394017498"><ele>124.0</ele><time>2026-04-01T16:10:48Z</time></trkpt><trkpt lat="46.12536676423027" lon="13.375552898685449"><ele>123.0</ele><time>2026-04-01T16:10:49Z</time></trkpt><trkpt lat="46.12526387819682" lon="13.37579622582059"><ele>122.0</ele><time>2026-04-01T16:10:50Z</time></trkpt><trkpt lat="46.125156969127346" lon="13.37603758069251"><ele>122.0</ele><time>2026-04-01T16:10:51Z</time></trkpt><trkpt lat="46.12504958105201" lon="13.376277343500282"><ele>122.0</ele><time>2026-04-01T16:10:52Z</time></trkpt><trkpt lat="46.124946016472435" lon="13.37652106149117"><ele>122.0</ele><time>2026-04-01T16:10:53Z</time></trkpt><trkpt lat="46.12483910444089" lon="13.376764080075693"><ele>122.0</ele><time>2026-04-01T16:10:54Z</time></trkpt><trkpt lat="46.12473209704496" lon="13.377012379752964"><ele>122.0</ele><time>2026-04-01T16:10:55Z</time></trkpt><trkpt lat="46.124624260313745" lon="13.377267404749892"><ele>122.0</ele><time>2026-04-01T16:10:56Z</time></trkpt><trkpt lat="46.12451399617508" lon="13.377523817086026"><ele>122.0</ele><time>2026-04-01T16:10:57Z</time></trkpt><trkpt lat="46.12439813987354" lon="13.377780422106296"><ele>122.0</ele><time>2026-04-01T16:10:58Z</time></trkpt><trkpt lat="46.12428399572681" lon="13.378033083927816"><ele>122.0</ele><time>2026-04-01T16:10:59Z</time></trkpt><trkpt lat="46.12417455254045" lon="13.37828605656242"><ele>122.33333333333333</ele><time>2026-04-01T16:11:00Z</time></trkpt><trkpt lat="46.12406567589118" lon="13.378536819826087"><ele>122.66666666666666</ele><time>2026-04-01T16:11:01Z</time></trkpt><trkpt lat="46.12395560814168" lon="13.378784745990291"><ele>123.0</ele><time>2026-04-01T16:11:02Z</time></trkpt><trkpt lat="46.12384853651693" lon="13.379027335254431"><ele>123.66666666666666</ele><time>2026-04-01T16:11:03Z</time></trkpt><trkpt lat="46.123746710338125" lon="13.379267315834927"><ele>124.33333333333333</ele><time>2026-04-01T16:11:04Z</time></trkpt><trkpt lat="46.123645970786384" lon="13.379500116592695"><ele>125.0</ele><time>2026-04-01T16:11:05Z</time></trkpt><trkpt lat="46.12354463787764" lon="13.379728795396261"><ele>125.0</ele><time>2026-04-01T16:11:06Z</time></trkpt><trkpt lat="46.12344302923704" lon="13.379958571805913"><ele>125.0</ele><time>2026-04-01T16:11:07Z</time></trkpt><trkpt lat="46.123338245754084" lon="13.380192756653564"><ele>125.0</ele><time>2026-04-01T16:11:08Z</time></trkpt><trkpt lat="46.12323289062285" lon="13.380431409355813"><ele>124.0</ele><time>2026-04-01T16:11:09Z</time></trkpt><trkpt lat="46.12312770615771" lon="13.380671565388349"><ele>123.0</ele><time>2026-04-01T16:11:10Z</time></trkpt><trkpt lat="46.12302191099298" lon="13.380908165186135"><ele>122.0</ele><time>2026-04-01T16:11:11Z</time></trkpt><trkpt lat="46.12291906006131" lon="13.381144482367178"><ele>122.66666666666666</ele><time>2026-04-01T16:11:12Z</time></trkpt><trkpt lat="46.12282021141728" lon="13.38138178607301"><ele>123.33333333333334</ele><time>2026-04-01T16:11:13Z</time></trkpt><trkpt lat="46.12270620692844" lon="13.381603438361246"><ele>124.0</ele><time>2026-04-01T16:11:14Z</time></trkpt><trkpt lat="46.12261785511304" lon="13.381846918575626"><ele>124.0</ele><time>2026-04-01T16:11:15Z</time></trkpt><trkpt lat="46.12251480536067" lon="13.382073088072797"><ele>124.0</ele><time>2026-04-01T16:11:16Z</time></trkpt><trkpt lat="46.122413109304425" lon="13.382300749587275"><ele>124.0</ele><time>2026-04-01T16:11:17Z</time></trkpt><trkpt lat="46.122313631483756" lon="13.382527927469882"><ele>123.66666666666667</ele><time>2026-04-01T16:11:18Z</time></trkpt><trkpt lat="46.12221480805595" lon="13.382751534322198"><ele>123.33333333333334</ele><time>2026-04-01T16:11:19Z</time></trkpt><trkpt lat="46.12211736050529" lon="13.382977727728523"><ele>123.0</ele><time>2026-04-01T16:11:20Z</time></trkpt><trkpt lat="46.122021412777535" lon="13.383207041885443"><ele>123.0</ele><time>2026-04-01T16:11:21Z</time></trkpt><trkpt lat="46.12192363630314" lon="13.383439725440656"><ele>123.0</ele><time>2026-04-01T16:11:22Z</time></trkpt><trkpt lat="46.12182781930729" lon="13.3836797633574"><ele>123.0</ele><time>2026-04-01T16:11:23Z</time></trkpt><trkpt lat="46.121747066133096" lon="13.38393903985699"><ele>123.66666666666666</ele><time>2026-04-01T16:11:24Z</time></trkpt><trkpt lat="46.12168906041639" lon="13.384217256002493"><ele>124.33333333333333</ele><time>2026-04-01T16:11:25Z</time></trkpt><trkpt lat="46.121643307211166" lon="13.384508938358644"><ele>125.0</ele><time>2026-04-01T16:11:26Z</time></trkpt><trkpt lat="46.12158326335269" lon="13.384798474586791"><ele>124.33333333333333</ele><time>2026-04-01T16:11:27Z</time></trkpt><trkpt lat="46.121551161621476" lon="13.38508823063617"><ele>123.66666666666666</ele><time>2026-04-01T16:11:28Z</time></trkpt><trkpt lat="46.121502425083754" lon="13.385368564661661"><ele>123.0</ele><time>2026-04-01T16:11:29Z</time></trkpt><trkpt lat="46.121459809534535" lon="13.385634243822436"><ele>123.0</ele><time>2026-04-01T16:11:30Z</time></trkpt><trkpt lat="46.12141843778441" lon="13.385882863131766"><ele>123.0</ele><time>2026-04-01T16:11:31Z</time></trkpt><trkpt lat="46.12137138820126" lon="13.3861339454876"><ele>123.0</ele><time>2026-04-01T16:11:32Z</time></trkpt><trkpt lat="46.12129940316379" lon="13.386379319576827"><ele>123.66666666666666</ele><time>2026-04-01T16:11:33Z</time></trkpt><trkpt lat="46.121176793675474" lon="13.386594660836476"><ele>124.33333333333333</ele><time>2026-04-01T16:11:34Z</time></trkpt><trkpt lat="46.12104586685688" lon="13.386820224787707"><ele>125.0</ele><time>2026-04-01T16:11:35Z</time></trkpt><trkpt lat="46.12088203492929" lon="13.387025503659572"><ele>124.5</ele><time>2026-04-01T16:11:36Z</time></trkpt><trkpt lat="46.12071403501394" lon="13.387243276331327"><ele>124.0</ele><time>2026-04-01T16:11:37Z</time></trkpt><trkpt lat="46.12054174180594" lon="13.387470671018622"><ele>124.0</ele><time>2026-04-01T16:11:38Z</time></trkpt><trkpt lat="46.12036637979492" lon="13.387705733027042"><ele>124.0</ele><time>2026-04-01T16:11:39Z</time></trkpt><trkpt lat="46.120195239047256" lon="13.387933844801422"><ele>124.33333333333334</ele><time>2026-04-01T16:11:40Z</time></trkpt><trkpt lat="46.12003079777312" lon="13.388151579726069"><ele>124.66666666666666</ele><time>2026-04-01T16:11:41Z</time></trkpt><trkpt lat="46.11986857570884" lon="13.388366511766804"><ele>125.0</ele><time>2026-04-01T16:11:42Z</time></trkpt><trkpt lat="46.11970547959141" lon="13.388579562715076"><ele>125.0</ele><time>2026-04-01T16:11:43Z</time></trkpt><trkpt lat="46.11954036824209" lon="13.388799513688625"><ele>125.0</ele><time>2026-04-01T16:11:43.999Z</time></trkpt><trkpt lat="46.11937754214259" lon="13.389027944696211"><ele>125.5</ele><time>2026-04-01T16:11:44.999Z</time></trkpt><trkpt lat="46.11920825866546" lon="13.389254428326016"><ele>126.0</ele><time>2026-04-01T16:11:45.999Z</time></trkpt><trkpt lat="46.119074125908206" lon="13.389541238020012"><ele>125.5</ele><time>2026-04-01T16:11:46.999Z</time></trkpt><trkpt lat="46.118915227055375" lon="13.38979929716792"><ele>125.0</ele><time>2026-04-01T16:11:47.999Z</time></trkpt><trkpt lat="46.118770061355654" lon="13.390068856222037"><ele>125.0</ele><time>2026-04-01T16:11:48.999Z</time></trkpt><trkpt lat="46.11864055531756" lon="13.390344794789973"><ele>125.0</ele><time>2026-04-01T16:11:49.999Z</time></trkpt><trkpt lat="46.11850012996113" lon="13.390601501904337"><ele>125.33333333333333</ele><time>2026-04-01T16:11:50.999Z</time></trkpt><trkpt lat="46.11836242824456" lon="13.390859378804517"><ele>125.66666666666666</ele><time>2026-04-01T16:11:51.999Z</time></trkpt><trkpt lat="46.11822491275299" lon="13.391113740503265"><ele>126.0</ele><time>2026-04-01T16:11:52.999Z</time></trkpt><trkpt lat="46.1180887187156" lon="13.391363645058975"><ele>126.66666666666666</ele><time>2026-04-01T16:11:53.999Z</time></trkpt><trkpt lat="46.11795776505517" lon="13.391607076235465"><ele>127.33333333333333</ele><time>2026-04-01T16:11:54.999Z</time></trkpt><trkpt lat="46.117835480698346" lon="13.391832661891783"><ele>128.0</ele><time>2026-04-01T16:11:55.999Z</time></trkpt><trkpt lat="46.11771828102722" lon="13.392051442215106"><ele>128.66666666666666</ele><time>2026-04-01T16:11:56.999Z</time></trkpt><trkpt lat="46.11760160991064" lon="13.39226629051848"><ele>129.33333333333334</ele><time>2026-04-01T16:11:57.999Z</time></trkpt><trkpt lat="46.11749736294395" lon="13.39246812086377"><ele>130.0</ele><time>2026-04-01T16:11:58.999Z</time></trkpt><trkpt lat="46.11740478365551" lon="13.392664940935319"><ele>129.66666666666669</ele><time>2026-04-01T16:12:00Z</time></trkpt><trkpt lat="46.11732661274218" lon="13.392876666720602"><ele>129.33333333333334</ele><time>2026-04-01T16:12:01Z</time></trkpt><trkpt lat="46.11726643218227" lon="13.393090869836358"><ele>129.0</ele><time>2026-04-01T16:12:02Z</time></trkpt><trkpt lat="46.1172205614936" lon="13.39329607292902"><ele>129.66666666666666</ele><time>2026-04-01T16:12:03Z</time></trkpt><trkpt lat="46.11717269417469" lon="13.393514681896663"><ele>130.33333333333331</ele><time>2026-04-01T16:12:04Z</time></trkpt><trkpt lat="46.11710504702545" lon="13.393724602641337"><ele>131.0</ele><time>2026-04-01T16:12:05Z</time></trkpt><trkpt lat="46.117020265034185" lon="13.393921216244639"><ele>131.66666666666666</ele><time>2026-04-01T16:12:06Z</time></trkpt><trkpt lat="46.1169154340339" lon="13.394104577502969"><ele>132.33333333333334</ele><time>2026-04-01T16:12:07Z</time></trkpt><trkpt lat="46.11679202397377" lon="13.394282776314316"><ele>133.0</ele><time>2026-04-01T16:12:08Z</time></trkpt><trkpt lat="46.11667468881454" lon="13.394453702050304"><ele>133.0</ele><time>2026-04-01T16:12:09Z</time></trkpt><trkpt lat="46.11656718239315" lon="13.394609376432587"><ele>133.0</ele><time>2026-04-01T16:12:10Z</time></trkpt><trkpt lat="46.11646478534657" lon="13.394755979848199"><ele>133.0</ele><time>2026-04-01T16:12:11Z</time></trkpt><trkpt lat="46.116359888414195" lon="13.394907214726466"><ele>133.0</ele><time>2026-04-01T16:12:12Z</time></trkpt><trkpt lat="46.11625200682808" lon="13.395044001322669"><ele>133.0</ele><time>2026-04-01T16:12:13Z</time></trkpt><trkpt lat="46.11614316853581" lon="13.395155765492849"><ele>133.0</ele><time>2026-04-01T16:12:14Z</time></trkpt><trkpt lat="46.11602555519366" lon="13.395247351369951"><ele>133.0</ele><time>2026-04-01T16:12:15Z</time></trkpt><trkpt lat="46.11589895717862" lon="13.395321107465525"><ele>133.0</ele><time>2026-04-01T16:12:16Z</time></trkpt><trkpt lat="46.11576166351669" lon="13.39536548133417"><ele>132.5</ele><time>2026-04-01T16:12:17Z</time></trkpt><trkpt lat="46.115610576633266" lon="13.39537968788972"><ele>132.0</ele><time>2026-04-01T16:12:18Z</time></trkpt><trkpt lat="46.115457981313" lon="13.39538280766728"><ele>131.5</ele><time>2026-04-01T16:12:19Z</time></trkpt><trkpt lat="46.115319231871524" lon="13.395379498843269"><ele>131.0</ele><time>2026-04-01T16:12:20Z</time></trkpt><trkpt lat="46.11519080075902" lon="13.395386948915577"><ele>131.0</ele><time>2026-04-01T16:12:21Z</time></trkpt><trkpt lat="46.11506984824769" lon="13.395416096219456"><ele>131.0</ele><time>2026-04-01T16:12:22Z</time></trkpt><trkpt lat="46.11495393221353" lon="13.395442179222595"><ele>131.0</ele><time>2026-04-01T16:12:23Z</time></trkpt><trkpt lat="46.11484572310139" lon="13.395505822095318"><ele>131.0</ele><time>2026-04-01T16:12:24Z</time></trkpt><trkpt lat="46.11474944439569" lon="13.395584673473861"><ele>131.2</ele><time>2026-04-01T16:12:25Z</time></trkpt><trkpt lat="46.11467767041759" lon="13.395693038679529"><ele>131.39999999999998</ele><time>2026-04-01T16:12:26Z</time></trkpt><trkpt lat="46.11458064378185" lon="13.395770045439914"><ele>131.6</ele><time>2026-04-01T16:12:27Z</time></trkpt><trkpt lat="46.114491698067916" lon="13.395855192197343"><ele>131.79999999999998</ele><time>2026-04-01T16:12:28Z</time></trkpt><trkpt lat="46.11440225666772" lon="13.395935250664389"><ele>132.0</ele><time>2026-04-01T16:12:29Z</time></trkpt><trkpt lat="46.1143186408793" lon="13.396028280447046"><ele>132.0</ele><time>2026-04-01T16:12:30Z</time></trkpt><trkpt lat="46.1142430989466" lon="13.39615288031951"><ele>132.0</ele><time>2026-04-01T16:12:31Z</time></trkpt><trkpt lat="46.11416635295128" lon="13.396284171250622"><ele>132.0</ele><time>2026-04-01T16:12:32Z</time></trkpt><trkpt lat="46.11409959850029" lon="13.396403850973536"><ele>132.0</ele><time>2026-04-01T16:12:33Z</time></trkpt><trkpt lat="46.114033626067666" lon="13.3965265080641"><ele>132.0</ele><time>2026-04-01T16:12:34Z</time></trkpt><trkpt lat="46.11398152198451" lon="13.396673578960096"><ele>132.4</ele><time>2026-04-01T16:12:35Z</time></trkpt><trkpt lat="46.11391418721003" lon="13.396780814936083"><ele>132.79999999999998</ele><time>2026-04-01T16:12:36Z</time></trkpt><trkpt lat="46.1138647411309" lon="13.39689850823258"><ele>133.2</ele><time>2026-04-01T16:12:37Z</time></trkpt><trkpt lat="46.11382055702202" lon="13.397021599363006"><ele>133.6</ele><time>2026-04-01T16:12:38Z</time></trkpt><trkpt lat="46.11378553770455" lon="13.397160464877567"><ele>134.0</ele><time>2026-04-01T16:12:39Z</time></trkpt><trkpt lat="46.113765899601425" lon="13.397281987154985"><ele>134.0</ele><time>2026-04-01T16:12:40Z</time></trkpt><trkpt lat="46.1137445497466" lon="13.397389723589383"><ele>134.0</ele><time>2026-04-01T16:12:41Z</time></trkpt><trkpt lat="46.11367096598414" lon="13.397439231374001"><ele>134.0</ele><time>2026-04-01T16:12:42Z</time></trkpt><trkpt lat="46.11359366005617" lon="13.397490966784932"><ele>134.0</ele><time>2026-04-01T16:12:43Z</time></trkpt><trkpt lat="46.11350394468526" lon="13.397516741557222"><ele>134.0</ele><time>2026-04-01T16:12:44Z</time></trkpt><trkpt lat="46.113393108835034" lon="13.39753511300083"><ele>134.0</ele><time>2026-04-01T16:12:45Z</time></trkpt><trkpt lat="46.11326704309408" lon="13.397557377530738"><ele>133.5</ele><time>2026-04-01T16:12:46Z</time></trkpt><trkpt lat="46.1131324167296" lon="13.397553402328773"><ele>133.0</ele><time>2026-04-01T16:12:47Z</time></trkpt><trkpt lat="46.11300072377294" lon="13.397553958560305"><ele>132.5</ele><time>2026-04-01T16:12:48Z</time></trkpt><trkpt lat="46.11287167660712" lon="13.397552931540591"><ele>132.0</ele><time>2026-04-01T16:12:49Z</time></trkpt><trkpt lat="46.11273802957521" lon="13.397551920388848"><ele>132.0</ele><time>2026-04-01T16:12:50Z</time></trkpt><trkpt lat="46.112597986272405" lon="13.397553315170066"><ele>132.0</ele><time>2026-04-01T16:12:51Z</time></trkpt><trkpt lat="46.11247234191638" lon="13.397557422790184"><ele>132.0</ele><time>2026-04-01T16:12:52Z</time></trkpt><trkpt lat="46.11236275220488" lon="13.397583507527655"><ele>132.0</ele><time>2026-04-01T16:12:53Z</time></trkpt><trkpt lat="46.11227013934245" lon="13.397644617931558"><ele>132.2</ele><time>2026-04-01T16:12:54Z</time></trkpt><trkpt lat="46.11218663364878" lon="13.39774484953211"><ele>132.39999999999998</ele><time>2026-04-01T16:12:55Z</time></trkpt><trkpt lat="46.11212629849076" lon="13.397876925122402"><ele>132.60000000000002</ele><time>2026-04-01T16:12:56Z</time></trkpt><trkpt lat="46.11208156479594" lon="13.398023428735389"><ele>132.8</ele><time>2026-04-01T16:12:57Z</time></trkpt><trkpt lat="46.112036978494224" lon="13.398171460297188"><ele>133.0</ele><time>2026-04-01T16:12:58Z</time></trkpt><trkpt lat="46.11198920752615" lon="13.398331699990191"><ele>133.0</ele><time>2026-04-01T16:12:59Z</time></trkpt><trkpt lat="46.11193991428221" lon="13.398510120893848"><ele>133.0</ele><time>2026-04-01T16:13:00Z</time></trkpt><trkpt lat="46.11188447023163" lon="13.398704091658276"><ele>133.0</ele><time>2026-04-01T16:13:01Z</time></trkpt><trkpt lat="46.11182850747046" lon="13.398896525781009"><ele>133.0</ele><time>2026-04-01T16:13:02Z</time></trkpt><trkpt lat="46.11176046915756" lon="13.39908859690854"><ele>133.33333333333334</ele><time>2026-04-01T16:13:03Z</time></trkpt><trkpt lat="46.1116739303452" lon="13.399271173967382"><ele>133.66666666666666</ele><time>2026-04-01T16:13:04Z</time></trkpt><trkpt lat="46.11156140109023" lon="13.399419325901906"><ele>134.0</ele><time>2026-04-01T16:13:05Z</time></trkpt><trkpt lat="46.111447363792855" lon="13.399564107600785"><ele>133.33333333333331</ele><time>2026-04-01T16:13:06Z</time></trkpt><trkpt lat="46.11132822682775" lon="13.399712418900384"><ele>132.66666666666666</ele><time>2026-04-01T16:13:07Z</time></trkpt><trkpt lat="46.1112089959861" lon="13.399864298339308"><ele>132.0</ele><time>2026-04-01T16:13:08Z</time></trkpt><trkpt lat="46.11108731108253" lon="13.4000177169072"><ele>132.0</ele><time>2026-04-01T16:13:09Z</time></trkpt><trkpt lat="46.11096329336013" lon="13.400174076669705"><ele>132.0</ele><time>2026-04-01T16:13:10Z</time></trkpt><trkpt lat="46.11083705698593" lon="13.400333151092603"><ele>132.0</ele><time>2026-04-01T16:13:11Z</time></trkpt><trkpt lat="46.11070585700661" lon="13.400495955604754"><ele>130.66666666666666</ele><time>2026-04-01T16:13:12Z</time></trkpt><trkpt lat="46.11057102819489" lon="13.400664206370909"><ele>129.33333333333331</ele><time>2026-04-01T16:13:13Z</time></trkpt><trkpt lat="46.11044538058834" lon="13.400830692447466"><ele>128.0</ele><time>2026-04-01T16:13:14Z</time></trkpt><trkpt lat="46.110356210958884" lon="13.401005702687282"><ele>128.0</ele><time>2026-04-01T16:13:15Z</time></trkpt><trkpt lat="46.11027276922837" lon="13.401157727037097"><ele>128.0</ele><time>2026-04-01T16:13:16Z</time></trkpt><trkpt lat="46.110213707229455" lon="13.401322673351446"><ele>128.0</ele><time>2026-04-01T16:13:17Z</time></trkpt><trkpt lat="46.11019043570593" lon="13.401507965758178"><ele>128.0</ele><time>2026-04-01T16:13:18Z</time></trkpt><trkpt lat="46.110193873879" lon="13.401704704207713"><ele>128.75</ele><time>2026-04-01T16:13:19Z</time></trkpt><trkpt lat="46.11021891978429" lon="13.401902696583633"><ele>129.5</ele><time>2026-04-01T16:13:20Z</time></trkpt><trkpt lat="46.110273287482926" lon="13.402098399841591"><ele>130.25</ele><time>2026-04-01T16:13:21Z</time></trkpt><trkpt lat="46.110345940719135" lon="13.402294275075365"><ele>131.0</ele><time>2026-04-01T16:13:22Z</time></trkpt><trkpt lat="46.11041932151704" lon="13.402504760616111"><ele>131.0</ele><time>2026-04-01T16:13:23Z</time></trkpt><trkpt lat="46.11049369327839" lon="13.402732283903276"><ele>131.0</ele><time>2026-04-01T16:13:24Z</time></trkpt><trkpt lat="46.110577099794405" lon="13.402970587268738"><ele>131.0</ele><time>2026-04-01T16:13:25Z</time></trkpt><trkpt lat="46.110662233817365" lon="13.403220327603824"><ele>131.66666666666666</ele><time>2026-04-01T16:13:26Z</time></trkpt><trkpt lat="46.11074405117422" lon="13.403472856614046"><ele>132.33333333333334</ele><time>2026-04-01T16:13:27Z</time></trkpt><trkpt lat="46.110826258595374" lon="13.403735552244049"><ele>133.0</ele><time>2026-04-01T16:13:28Z</time></trkpt><trkpt lat="46.11090073377522" lon="13.40401092374953"><ele>133.33333333333334</ele><time>2026-04-01T16:13:29Z</time></trkpt><trkpt lat="46.110962081304145" lon="13.404299640405078"><ele>133.66666666666666</ele><time>2026-04-01T16:13:30Z</time></trkpt><trkpt lat="46.111018767146575" lon="13.404597695558719"><ele>134.0</ele><time>2026-04-01T16:13:31Z</time></trkpt><trkpt lat="46.11107727314415" lon="13.404902348465786"><ele>134.0</ele><time>2026-04-01T16:13:32Z</time></trkpt><trkpt lat="46.11113559175448" lon="13.40520501314791"><ele>134.0</ele><time>2026-04-01T16:13:33Z</time></trkpt><trkpt lat="46.11119208662326" lon="13.405498554382467"><ele>134.0</ele><time>2026-04-01T16:13:34Z</time></trkpt><trkpt lat="46.11124597640125" lon="13.405778931305901"><ele>134.0</ele><time>2026-04-01T16:13:35Z</time></trkpt><trkpt lat="46.11129766694787" lon="13.406052311704743"><ele>134.0</ele><time>2026-04-01T16:13:36Z</time></trkpt><trkpt lat="46.11135024050793" lon="13.406318292753761"><ele>134.0</ele><time>2026-04-01T16:13:37Z</time></trkpt><trkpt lat="46.1113975981959" lon="13.406568114796903"><ele>134.0</ele><time>2026-04-01T16:13:38Z</time></trkpt><trkpt lat="46.11143788287677" lon="13.406792719065267"><ele>134.0</ele><time>2026-04-01T16:13:39Z</time></trkpt><trkpt lat="46.1114769635584" lon="13.407007075656411"><ele>134.0</ele><time>2026-04-01T16:13:40Z</time></trkpt><trkpt lat="46.111512188038574" lon="13.407224844783528"><ele>134.0</ele><time>2026-04-01T16:13:41Z</time></trkpt><trkpt lat="46.11154208935689" lon="13.407438707862003"><ele>134.0</ele><time>2026-04-01T16:13:42Z</time></trkpt><trkpt lat="46.111570523248" lon="13.40764029008172"><ele>134.0</ele><time>2026-04-01T16:13:43Z</time></trkpt><trkpt lat="46.11159985551042" lon="13.407824453503983"><ele>134.0</ele><time>2026-04-01T16:13:44Z</time></trkpt><trkpt lat="46.111628051874774" lon="13.407989619287234"><ele>134.75</ele><time>2026-04-01T16:13:45Z</time></trkpt><trkpt lat="46.111650407814864" lon="13.408145550745385"><ele>135.5</ele><time>2026-04-01T16:13:46Z</time></trkpt><trkpt lat="46.11166203643925" lon="13.408322942865702"><ele>136.25</ele><time>2026-04-01T16:13:47Z</time></trkpt><trkpt lat="46.11164870320492" lon="13.408520522354804"><ele>137.0</ele><time>2026-04-01T16:13:47.999Z</time></trkpt><trkpt lat="46.11161497835529" lon="13.408704670582104"><ele>136.75</ele><time>2026-04-01T16:13:48.999Z</time></trkpt><trkpt lat="46.11155090250906" lon="13.40887380838365"><ele>136.5</ele><time>2026-04-01T16:13:49.999Z</time></trkpt><trkpt lat="46.111458539930666" lon="13.40902059230834"><ele>136.25</ele><time>2026-04-01T16:13:50.999Z</time></trkpt><trkpt lat="46.11135360318072" lon="13.409131983530628"><ele>136.0</ele><time>2026-04-01T16:13:51.999Z</time></trkpt><trkpt lat="46.111222579261785" lon="13.409199901816203"><ele>136.0</ele><time>2026-04-01T16:13:52.999Z</time></trkpt><trkpt lat="46.1110956015399" lon="13.409315312157549"><ele>136.0</ele><time>2026-04-01T16:13:53.999Z</time></trkpt><trkpt lat="46.110970752917694" lon="13.409408285018353"><ele>136.0</ele><time>2026-04-01T16:13:54.999Z</time></trkpt><trkpt lat="46.11084884490017" lon="13.409524925213432"><ele>136.0</ele><time>2026-04-01T16:13:55.999Z</time></trkpt><trkpt lat="46.11073650206857" lon="13.409676162190232"><ele>135.33333333333334</ele><time>2026-04-01T16:13:56.999Z</time></trkpt><trkpt lat="46.11063148814942" lon="13.409843101629074"><ele>134.66666666666666</ele><time>2026-04-01T16:13:57.999Z</time></trkpt><trkpt lat="46.11056141693582" lon="13.410039345562893"><ele>134.0</ele><time>2026-04-01T16:13:58.999Z</time></trkpt><trkpt lat="46.11052829180063" lon="13.410252800882532"><ele>134.0</ele><time>2026-04-01T16:13:59.999Z</time></trkpt><trkpt lat="46.11048491900441" lon="13.410457321955963"><ele>134.0</ele><time>2026-04-01T16:14:00.999Z</time></trkpt><trkpt lat="46.11044048120352" lon="13.410668320839704"><ele>134.0</ele><time>2026-04-01T16:14:01.999Z</time></trkpt><trkpt lat="46.11039260874509" lon="13.410888926405267"><ele>134.33333333333331</ele><time>2026-04-01T16:14:02.999Z</time></trkpt><trkpt lat="46.11034852982799" lon="13.411112283119438"><ele>134.66666666666666</ele><time>2026-04-01T16:14:03.999Z</time></trkpt><trkpt lat="46.11030292456527" lon="13.411329263083276"><ele>135.0</ele><time>2026-04-01T16:14:04.999Z</time></trkpt><trkpt lat="46.11025449732124" lon="13.411545410734739"><ele>135.33333333333334</ele><time>2026-04-01T16:14:06Z</time></trkpt><trkpt lat="46.11020408712912" lon="13.411759731444695"><ele>135.66666666666669</ele><time>2026-04-01T16:14:07Z</time></trkpt><trkpt lat="46.11014391257703" lon="13.411963427436289"><ele>136.0</ele><time>2026-04-01T16:14:08Z</time></trkpt><trkpt lat="46.11006532584023" lon="13.412147831866662"><ele>136.0</ele><time>2026-04-01T16:14:09Z</time></trkpt><trkpt lat="46.10997340835622" lon="13.41232174886019"><ele>136.0</ele><time>2026-04-01T16:14:10Z</time></trkpt><trkpt lat="46.10987050662935" lon="13.412486407531775"><ele>136.0</ele><time>2026-04-01T16:14:11Z</time></trkpt><trkpt lat="46.10976070429782" lon="13.412634092253299"><ele>136.0</ele><time>2026-04-01T16:14:12Z</time></trkpt><trkpt lat="46.10964768620815" lon="13.412765439415441"><ele>136.0</ele><time>2026-04-01T16:14:13Z</time></trkpt><trkpt lat="46.10951893159499" lon="13.412878929829345"><ele>136.0</ele><time>2026-04-01T16:14:14Z</time></trkpt><trkpt lat="46.10937773551916" lon="13.412971052520335"><ele>136.66666666666669</ele><time>2026-04-01T16:14:15Z</time></trkpt><trkpt lat="46.10922539159282" lon="13.413046164479484"><ele>137.33333333333334</ele><time>2026-04-01T16:14:16Z</time></trkpt><trkpt lat="46.10906500510079" lon="13.41311664862952"><ele>138.0</ele><time>2026-04-01T16:14:17Z</time></trkpt><trkpt lat="46.108909479774596" lon="13.413188412632909"><ele>138.0</ele><time>2026-04-01T16:14:18Z</time></trkpt><trkpt lat="46.10875786479141" lon="13.413259747516301"><ele>138.0</ele><time>2026-04-01T16:14:19Z</time></trkpt><trkpt lat="46.10860599893203" lon="13.41333274328352"><ele>138.0</ele><time>2026-04-01T16:14:20Z</time></trkpt><trkpt lat="46.108436946023936" lon="13.41338743090024"><ele>138.0</ele><time>2026-04-01T16:14:21Z</time></trkpt><trkpt lat="46.10824604148422" lon="13.413477539168467"><ele>138.0</ele><time>2026-04-01T16:14:22Z</time></trkpt><trkpt lat="46.1080305112284" lon="13.413584779276423"><ele>138.0</ele><time>2026-04-01T16:14:23Z</time></trkpt><trkpt lat="46.10779499319409" lon="13.413719716604971"><ele>137.0</ele><time>2026-04-01T16:14:24Z</time></trkpt><trkpt lat="46.107551660995206" lon="13.41386710612365"><ele>136.0</ele><time>2026-04-01T16:14:25Z</time></trkpt><trkpt lat="46.10732397972345" lon="13.414032794730751"><ele>135.33333333333334</ele><time>2026-04-01T16:14:26Z</time></trkpt><trkpt lat="46.107116091949244" lon="13.414165345501884"><ele>134.66666666666666</ele><time>2026-04-01T16:14:27Z</time></trkpt><trkpt lat="46.10692321045448" lon="13.414289984729141"><ele>134.0</ele><time>2026-04-01T16:14:28Z</time></trkpt><trkpt lat="46.106741542083334" lon="13.414407093250919"><ele>133.66666666666666</ele><time>2026-04-01T16:14:29Z</time></trkpt><trkpt lat="46.1065670737454" lon="13.414523956221831"><ele>133.33333333333334</ele><time>2026-04-01T16:14:30Z</time></trkpt><trkpt lat="46.1063909481795" lon="13.414636676294384"><ele>133.0</ele><time>2026-04-01T16:14:31Z</time></trkpt><trkpt lat="46.1062115259416" lon="13.41475045451438"><ele>133.0</ele><time>2026-04-01T16:14:32Z</time></trkpt><trkpt lat="46.1060399082506" lon="13.414861281781134"><ele>133.0</ele><time>2026-04-01T16:14:33Z</time></trkpt><trkpt lat="46.1058784708436" lon="13.414966636709561"><ele>133.0</ele><time>2026-04-01T16:14:34Z</time></trkpt><trkpt lat="46.105722116107735" lon="13.415066915156395"><ele>135.33333333333334</ele><time>2026-04-01T16:14:35Z</time></trkpt><trkpt lat="46.10556389491908" lon="13.41516723317282"><ele>137.66666666666666</ele><time>2026-04-01T16:14:36Z</time></trkpt><trkpt lat="46.10540869628558" lon="13.415268502952628"><ele>140.0</ele><time>2026-04-01T16:14:37Z</time></trkpt><trkpt lat="46.10525932516927" lon="13.415366992933107"><ele>140.0</ele><time>2026-04-01T16:14:38Z</time></trkpt><trkpt lat="46.10511172657347" lon="13.415461558606335"><ele>140.0</ele><time>2026-04-01T16:14:39Z</time></trkpt><trkpt lat="46.10496600820188" lon="13.415557157586967"><ele>140.0</ele><time>2026-04-01T16:14:40Z</time></trkpt><trkpt lat="46.10482337586898" lon="13.415646382743445"><ele>139.75</ele><time>2026-04-01T16:14:41Z</time></trkpt><trkpt lat="46.10468807982677" lon="13.415730905458988"><ele>139.5</ele><time>2026-04-01T16:14:42Z</time></trkpt><trkpt lat="46.10455733553963" lon="13.415817767383233"><ele>139.25</ele><time>2026-04-01T16:14:43Z</time></trkpt><trkpt lat="46.10442137820047" lon="13.415903372251247"><ele>139.0</ele><time>2026-04-01T16:14:44Z</time></trkpt><trkpt lat="46.10428501040857" lon="13.415988239146087"><ele>139.0</ele><time>2026-04-01T16:14:45Z</time></trkpt><trkpt lat="46.10415506740935" lon="13.416069227805965"><ele>139.0</ele><time>2026-04-01T16:14:46Z</time></trkpt><trkpt lat="46.10402677605606" lon="13.416150327332563"><ele>139.0</ele><time>2026-04-01T16:14:47Z</time></trkpt><trkpt lat="46.103898678024514" lon="13.416229796461295"><ele>139.0</ele><time>2026-04-01T16:14:48Z</time></trkpt><trkpt lat="46.10377273465799" lon="13.416310037384584"><ele>138.25</ele><time>2026-04-01T16:14:49Z</time></trkpt><trkpt lat="46.10364785212189" lon="13.416393022274509"><ele>137.5</ele><time>2026-04-01T16:14:50Z</time></trkpt><trkpt lat="46.10352101831421" lon="13.41647694424452"><ele>136.75</ele><time>2026-04-01T16:14:51Z</time></trkpt><trkpt lat="46.103399140325" lon="13.416561026474618"><ele>136.0</ele><time>2026-04-01T16:14:52Z</time></trkpt><trkpt lat="46.10328238709595" lon="13.416661837172615"><ele>135.5</ele><time>2026-04-01T16:14:53Z</time></trkpt><trkpt lat="46.103168645040014" lon="13.41677726124266"><ele>135.0</ele><time>2026-04-01T16:14:54Z</time></trkpt><trkpt lat="46.103057655505545" lon="13.416904847828176"><ele>134.5</ele><time>2026-04-01T16:14:55Z</time></trkpt><trkpt lat="46.10294946527437" lon="13.41702459765415"><ele>134.0</ele><time>2026-04-01T16:14:56Z</time></trkpt><trkpt lat="46.102842701254254" lon="13.41712476410085"><ele>134.0</ele><time>2026-04-01T16:14:57Z</time></trkpt><trkpt lat="46.10272325738869" lon="13.417208878503146"><ele>134.0</ele><time>2026-04-01T16:14:58Z</time></trkpt><trkpt lat="46.102581865767085" lon="13.417261428097321"><ele>134.0</ele><time>2026-04-01T16:14:59Z</time></trkpt><trkpt lat="46.10242950402692" lon="13.417282030927051"><ele>134.0</ele><time>2026-04-01T16:15:00Z</time></trkpt><trkpt lat="46.10227829095251" lon="13.417286883810894"><ele>134.0</ele><time>2026-04-01T16:15:01Z</time></trkpt><trkpt lat="46.1021437891133" lon="13.417294031303946"><ele>134.0</ele><time>2026-04-01T16:15:02Z</time></trkpt><trkpt lat="46.1020150103283" lon="13.417313144550237"><ele>134.0</ele><time>2026-04-01T16:15:03Z</time></trkpt><trkpt lat="46.101883064283" lon="13.417351667502732"><ele>134.0</ele><time>2026-04-01T16:15:04Z</time></trkpt><trkpt lat="46.101753561144726" lon="13.417404866192054"><ele>134.0</ele><time>2026-04-01T16:15:05Z</time></trkpt><trkpt lat="46.101629176881225" lon="13.41746201598529"><ele>134.0</ele><time>2026-04-01T16:15:06Z</time></trkpt><trkpt lat="46.101521087125334" lon="13.417570964590425"><ele>134.0</ele><time>2026-04-01T16:15:07Z</time></trkpt><trkpt lat="46.101419009984575" lon="13.417682615959047"><ele>134.0</ele><time>2026-04-01T16:15:08Z</time></trkpt><trkpt lat="46.10132705482115" lon="13.417810477921384"><ele>134.25</ele><time>2026-04-01T16:15:09Z</time></trkpt><trkpt lat="46.10122582422445" lon="13.417924798963671"><ele>134.5</ele><time>2026-04-01T16:15:10Z</time></trkpt><trkpt lat="46.101124291136834" lon="13.418041502320593"><ele>134.75</ele><time>2026-04-01T16:15:11Z</time></trkpt><trkpt lat="46.10102771794507" lon="13.418159487509898"><ele>135.0</ele><time>2026-04-01T16:15:12Z</time></trkpt><trkpt lat="46.10093626014072" lon="13.418275833570991"><ele>135.0</ele><time>2026-04-01T16:15:13Z</time></trkpt><trkpt lat="46.10084256863231" lon="13.41839006495359"><ele>135.0</ele><time>2026-04-01T16:15:14Z</time></trkpt><trkpt lat="46.10074716822742" lon="13.418507476462509"><ele>135.0</ele><time>2026-04-01T16:15:15Z</time></trkpt><trkpt lat="46.100652892548965" lon="13.418632580687964"><ele>135.0</ele><time>2026-04-01T16:15:16Z</time></trkpt><trkpt lat="46.10055873827396" lon="13.418758858196881"><ele>134.5</ele><time>2026-04-01T16:15:17Z</time></trkpt><trkpt lat="46.10046844489531" lon="13.418881649379939"><ele>134.0</ele><time>2026-04-01T16:15:18Z</time></trkpt><trkpt lat="46.10037973444647" lon="13.41900468088324"><ele>133.5</ele><time>2026-04-01T16:15:19Z</time></trkpt><trkpt lat="46.100291365771454" lon="13.419131838894518"><ele>133.0</ele><time>2026-04-01T16:15:20Z</time></trkpt><trkpt lat="46.10020261010456" lon="13.419259385969154"><ele>133.0</ele><time>2026-04-01T16:15:21Z</time></trkpt><trkpt lat="46.10011106562436" lon="13.419385896176154"><ele>133.0</ele><time>2026-04-01T16:15:22Z</time></trkpt><trkpt lat="46.10002551989109" lon="13.419509916920738"><ele>133.0</ele><time>2026-04-01T16:15:23Z</time></trkpt><trkpt lat="46.0999467285365" lon="13.419623174183696"><ele>133.0</ele><time>2026-04-01T16:15:24Z</time></trkpt><trkpt lat="46.09986486302312" lon="13.419745563972713"><ele>133.0</ele><time>2026-04-01T16:15:25Z</time></trkpt><trkpt lat="46.09977848240941" lon="13.419874984274383"><ele>133.0</ele><time>2026-04-01T16:15:26Z</time></trkpt><trkpt lat="46.09969601464972" lon="13.420017233616424"><ele>133.0</ele><time>2026-04-01T16:15:27Z</time></trkpt><trkpt lat="46.09962585981703" lon="13.420176345990155"><ele>133.0</ele><time>2026-04-01T16:15:28Z</time></trkpt><trkpt lat="46.09957370441257" lon="13.420342129635799"><ele>133.5</ele><time>2026-04-01T16:15:29Z</time></trkpt><trkpt lat="46.099524663892055" lon="13.420512672471439"><ele>134.0</ele><time>2026-04-01T16:15:30Z</time></trkpt><trkpt lat="46.09947754520949" lon="13.420689360990728"><ele>134.5</ele><time>2026-04-01T16:15:31Z</time></trkpt><trkpt lat="46.09943140055822" lon="13.42086925601608"><ele>135.0</ele><time>2026-04-01T16:15:32Z</time></trkpt><trkpt lat="46.09938429454538" lon="13.421050827687765"><ele>135.0</ele><time>2026-04-01T16:15:33Z</time></trkpt><trkpt lat="46.09933394620034" lon="13.42122910049894"><ele>135.0</ele><time>2026-04-01T16:15:34Z</time></trkpt><trkpt lat="46.09928439817184" lon="13.421405724616463"><ele>135.0</ele><time>2026-04-01T16:15:35Z</time></trkpt><trkpt lat="46.09922083825349" lon="13.42157657318571"><ele>135.0</ele><time>2026-04-01T16:15:36Z</time></trkpt><trkpt lat="46.0991409927827" lon="13.421737861564683"><ele>135.0</ele><time>2026-04-01T16:15:37Z</time></trkpt><trkpt lat="46.09905351697098" lon="13.421887736483805"><ele>135.0</ele><time>2026-04-01T16:15:38Z</time></trkpt><trkpt lat="46.09896902806511" lon="13.422033042030073"><ele>135.0</ele><time>2026-04-01T16:15:39Z</time></trkpt><trkpt lat="46.09888962407552" lon="13.422169554892907"><ele>135.0</ele><time>2026-04-01T16:15:40Z</time></trkpt><trkpt lat="46.09880851722655" lon="13.42229762122298"><ele>135.0</ele><time>2026-04-01T16:15:41Z</time></trkpt><trkpt lat="46.09872927824927" lon="13.422433928566532"><ele>135.0</ele><time>2026-04-01T16:15:42Z</time></trkpt><trkpt lat="46.09864876449754" lon="13.422572751282702"><ele>135.0</ele><time>2026-04-01T16:15:43Z</time></trkpt><trkpt lat="46.098569143142896" lon="13.422708638696447"><ele>135.0</ele><time>2026-04-01T16:15:44Z</time></trkpt><trkpt lat="46.09849363786279" lon="13.422831424227327"><ele>135.0</ele><time>2026-04-01T16:15:45Z</time></trkpt><trkpt lat="46.09842040932759" lon="13.42295748988748"><ele>135.0</ele><time>2026-04-01T16:15:46Z</time></trkpt><trkpt lat="46.09834785945663" lon="13.423081845314824"><ele>135.0</ele><time>2026-04-01T16:15:46.999Z</time></trkpt><trkpt lat="46.09827687426434" lon="13.423199756689058"><ele>135.0</ele><time>2026-04-01T16:15:47.999Z</time></trkpt><trkpt lat="46.09821447238422" lon="13.423306073354727"><ele>135.0</ele><time>2026-04-01T16:15:48.999Z</time></trkpt><trkpt lat="46.09815811744803" lon="13.423416427016086"><ele>134.83333333333334</ele><time>2026-04-01T16:15:49.999Z</time></trkpt><trkpt lat="46.09811147335498" lon="13.423538746748553"><ele>134.66666666666666</ele><time>2026-04-01T16:15:50.999Z</time></trkpt><trkpt lat="46.098082289143335" lon="13.423660111020085"><ele>134.5</ele><time>2026-04-01T16:15:51.999Z</time></trkpt><trkpt lat="46.09805744034316" lon="13.423778965022024"><ele>134.33333333333331</ele><time>2026-04-01T16:15:52.999Z</time></trkpt><trkpt lat="46.098021908645094" lon="13.423887586874184"><ele>134.16666666666666</ele><time>2026-04-01T16:15:53.999Z</time></trkpt><trkpt lat="46.097959368761195" lon="13.423978859465823"><ele>134.0</ele><time>2026-04-01T16:15:54.999Z</time></trkpt><trkpt lat="46.09787955045755" lon="13.424044476683425"><ele>134.0</ele><time>2026-04-01T16:15:55.999Z</time></trkpt><trkpt lat="46.097807754445085" lon="13.424102948138291"><ele>134.0</ele><time>2026-04-01T16:15:56.999Z</time></trkpt><trkpt lat="46.097730299516805" lon="13.424157627321444"><ele>134.0</ele><time>2026-04-01T16:15:57.999Z</time></trkpt><trkpt lat="46.09764154412588" lon="13.424190536081541"><ele>134.0</ele><time>2026-04-01T16:15:58.999Z</time></trkpt><trkpt lat="46.09755868364483" lon="13.424193021617105"><ele>134.0</ele><time>2026-04-01T16:15:59.999Z</time></trkpt><trkpt lat="46.097474360901316" lon="13.424190778285965"><ele>134.0</ele><time>2026-04-01T16:16:00.999Z</time></trkpt><trkpt lat="46.09738559593034" lon="13.42419763055975"><ele>133.4</ele><time>2026-04-01T16:16:01.999Z</time></trkpt><trkpt lat="46.09729211854165" lon="13.4242048662162"><ele>132.8</ele><time>2026-04-01T16:16:02.999Z</time></trkpt><trkpt lat="46.09719589049285" lon="13.424210703781647"><ele>132.2</ele><time>2026-04-01T16:16:03.999Z</time></trkpt><trkpt lat="46.09709933141331" lon="13.424221188328985"><ele>131.6</ele><time>2026-04-01T16:16:04.999Z</time></trkpt><trkpt lat="46.097007115416176" lon="13.42423064884265"><ele>131.0</ele><time>2026-04-01T16:16:05.999Z</time></trkpt><trkpt lat="46.09692043942566" lon="13.424233977254216"><ele>131.0</ele><time>2026-04-01T16:16:06.999Z</time></trkpt><trkpt lat="46.096831133051" lon="13.42424100158212"><ele>131.0</ele><time>2026-04-01T16:16:07.999Z</time></trkpt><trkpt lat="46.096740004201976" lon="13.424250456189265"><ele>131.0</ele><time>2026-04-01T16:16:08.999Z</time></trkpt><trkpt lat="46.09664735091994" lon="13.424262433217002"><ele>131.0</ele><time>2026-04-01T16:16:09.999Z</time></trkpt><trkpt lat="46.09656136264553" lon="13.424266979638109"><ele>131.0</ele><time>2026-04-01T16:16:10.999Z</time></trkpt><trkpt lat="46.09648038770994" lon="13.424269151912616"><ele>131.0</ele><time>2026-04-01T16:16:12Z</time></trkpt><trkpt lat="46.09639626837992" lon="13.424275926039"><ele>131.0</ele><time>2026-04-01T16:16:13Z</time></trkpt><trkpt lat="46.09631226210285" lon="13.424281758701792"><ele>131.0</ele><time>2026-04-01T16:16:14Z</time></trkpt><trkpt lat="46.09623616312794" lon="13.424283362715169"><ele>131.0</ele><time>2026-04-01T16:16:15Z</time></trkpt><trkpt lat="46.096172647873146" lon="13.424284858492877"><ele>131.0</ele><time>2026-04-01T16:16:16Z</time></trkpt><trkpt lat="46.09609652665715" lon="13.424287570890833"><ele>131.0</ele><time>2026-04-01T16:16:18Z</time></trkpt><trkpt lat="46.09601184684446" lon="13.424289277652973"><ele>131.0</ele><time>2026-04-01T16:16:20Z</time></trkpt><trkpt lat="46.0959113499106" lon="13.424234052081983"><ele>131.0</ele><time>2026-04-01T16:16:22Z</time></trkpt><trkpt lat="46.09584477993413" lon="13.42420421415189"><ele>131.0</ele><time>2026-04-01T16:16:23Z</time></trkpt><trkpt lat="46.09571020162382" lon="13.424234478721472"><ele>131.0</ele><time>2026-04-01T16:16:25Z</time></trkpt><trkpt lat="46.09564178719257" lon="13.424277178494409"><ele>131.0</ele><time>2026-04-01T16:16:26Z</time></trkpt><trkpt lat="46.09555910628675" lon="13.424313807062525"><ele>131.0</ele><time>2026-04-01T16:16:27Z</time></trkpt><trkpt lat="46.09545635751733" lon="13.424325741042146"><ele>131.2</ele><time>2026-04-01T16:16:28Z</time></trkpt><trkpt lat="46.09533560012832" lon="13.42434516292343"><ele>131.39999999999998</ele><time>2026-04-01T16:16:29Z</time></trkpt><trkpt lat="46.095231946428356" lon="13.424364110480006"><ele>131.6</ele><time>2026-04-01T16:16:30Z</time></trkpt><trkpt lat="46.095140998373374" lon="13.42437289407293"><ele>131.79999999999998</ele><time>2026-04-01T16:16:31Z</time></trkpt><trkpt lat="46.09506728781299" lon="13.42437926539005"><ele>132.0</ele><time>2026-04-01T16:16:32Z</time></trkpt><trkpt lat="46.095004428896864" lon="13.424367349196913"><ele>132.0</ele><time>2026-04-01T16:16:33Z</time></trkpt><trkpt lat="46.09489548309673" lon="13.424289124705314"><ele>132.0</ele><time>2026-04-01T16:16:35Z</time></trkpt><trkpt lat="46.09486110286962" lon="13.424137490179847"><ele>132.0</ele><time>2026-04-01T16:16:36Z</time></trkpt><trkpt lat="46.094823800354945" lon="13.42399011273483"><ele>132.0</ele><time>2026-04-01T16:16:37Z</time></trkpt><trkpt lat="46.09477879116121" lon="13.423807062233548"><ele>132.0</ele><time>2026-04-01T16:16:38Z</time></trkpt><trkpt lat="46.0947332727371" lon="13.423622915294592"><ele>132.0</ele><time>2026-04-01T16:16:39Z</time></trkpt><trkpt lat="46.09468170483203" lon="13.423433658278869"><ele>132.0</ele><time>2026-04-01T16:16:40Z</time></trkpt><trkpt lat="46.094608070311175" lon="13.423235420127655"><ele>132.0</ele><time>2026-04-01T16:16:41Z</time></trkpt><trkpt lat="46.09452941417041" lon="13.423040111703678"><ele>132.0</ele><time>2026-04-01T16:16:42Z</time></trkpt><trkpt lat="46.09444208210414" lon="13.422841526969894"><ele>132.0</ele><time>2026-04-01T16:16:43Z</time></trkpt><trkpt lat="46.09434175455666" lon="13.422652785360555"><ele>132.0</ele><time>2026-04-01T16:16:44Z</time></trkpt><trkpt lat="46.094234696818575" lon="13.422475775684923"><ele>132.0</ele><time>2026-04-01T16:16:45Z</time></trkpt><trkpt lat="46.09412188000799" lon="13.422316320782608"><ele>132.0</ele><time>2026-04-01T16:16:46Z</time></trkpt><trkpt lat="46.09400865319046" lon="13.422186179245863"><ele>132.0</ele><time>2026-04-01T16:16:47Z</time></trkpt><trkpt lat="46.0938863572711" lon="13.422056832889712"><ele>132.33333333333334</ele><time>2026-04-01T16:16:48Z</time></trkpt><trkpt lat="46.09376246447345" lon="13.421927861520501"><ele>132.66666666666669</ele><time>2026-04-01T16:16:49Z</time></trkpt><trkpt lat="46.093640906675134" lon="13.421801664005143"><ele>133.0</ele><time>2026-04-01T16:16:50Z</time></trkpt><trkpt lat="46.09351986080165" lon="13.42167572387198"><ele>133.0</ele><time>2026-04-01T16:16:51Z</time></trkpt><trkpt lat="46.09339694328" lon="13.421545912168213"><ele>133.0</ele><time>2026-04-01T16:16:52Z</time></trkpt><trkpt lat="46.09327240113457" lon="13.421415984173928"><ele>133.0</ele><time>2026-04-01T16:16:53Z</time></trkpt><trkpt lat="46.093148957739984" lon="13.421290776926345"><ele>133.25</ele><time>2026-04-01T16:16:54Z</time></trkpt><trkpt lat="46.09303189166011" lon="13.421171713008611"><ele>133.5</ele><time>2026-04-01T16:16:55Z</time></trkpt><trkpt lat="46.09292355372282" lon="13.421059326762265"><ele>133.75</ele><time>2026-04-01T16:16:56Z</time></trkpt><trkpt lat="46.092822288678555" lon="13.420954591062973"><ele>134.0</ele><time>2026-04-01T16:16:57Z</time></trkpt><trkpt lat="46.09272316020109" lon="13.420854225503465"><ele>134.0</ele><time>2026-04-01T16:16:58Z</time></trkpt><trkpt lat="46.09262169812698" lon="13.420751800597532"><ele>134.0</ele><time>2026-04-01T16:16:59Z</time></trkpt><trkpt lat="46.09252041430678" lon="13.420646904357643"><ele>134.0</ele><time>2026-04-01T16:17:00Z</time></trkpt><trkpt lat="46.09241642072515" lon="13.420538400812433"><ele>134.0</ele><time>2026-04-01T16:17:01Z</time></trkpt><trkpt lat="46.09230895453761" lon="13.420430445952723"><ele>132.75</ele><time>2026-04-01T16:17:02Z</time></trkpt><trkpt lat="46.09220236735537" lon="13.42031768518451"><ele>131.5</ele><time>2026-04-01T16:17:03Z</time></trkpt><trkpt lat="46.092095220809654" lon="13.420200596250494"><ele>130.25</ele><time>2026-04-01T16:17:04Z</time></trkpt><trkpt lat="46.09199460150453" lon="13.420089331730338"><ele>129.0</ele><time>2026-04-01T16:17:05Z</time></trkpt><trkpt lat="46.09190921564014" lon="13.419982748939608"><ele>129.0</ele><time>2026-04-01T16:17:06Z</time></trkpt><trkpt lat="46.091845774080866" lon="13.419873174308496"><ele>129.0</ele><time>2026-04-01T16:17:07Z</time></trkpt><trkpt lat="46.091791811959226" lon="13.419749188920894"><ele>129.0</ele><time>2026-04-01T16:17:08Z</time></trkpt><trkpt lat="46.09176126747376" lon="13.419625473994298"><ele>129.0</ele><time>2026-04-01T16:17:09Z</time></trkpt><trkpt lat="46.091740136662885" lon="13.419502391577875"><ele>129.0</ele><time>2026-04-01T16:17:10Z</time></trkpt><trkpt lat="46.09168009124083" lon="13.419423207522188"><ele>129.16666666666666</ele><time>2026-04-01T16:17:11Z</time></trkpt><trkpt lat="46.09160482344237" lon="13.419393540302167"><ele>129.33333333333334</ele><time>2026-04-01T16:17:12Z</time></trkpt><trkpt lat="46.09153920690174" lon="13.419415532364171"><ele>129.5</ele><time>2026-04-01T16:17:13Z</time></trkpt><trkpt lat="46.091473665530785" lon="13.419450069291281"><ele>129.66666666666669</ele><time>2026-04-01T16:17:14Z</time></trkpt><trkpt lat="46.091395040694614" lon="13.419453593357632"><ele>129.83333333333334</ele><time>2026-04-01T16:17:15Z</time></trkpt><trkpt lat="46.09130945055028" lon="13.419391525852078"><ele>130.0</ele><time>2026-04-01T16:17:16Z</time></trkpt><trkpt lat="46.09121910039677" lon="13.41931134071604"><ele>130.0</ele><time>2026-04-01T16:17:17Z</time></trkpt><trkpt lat="46.0911092408836" lon="13.41923137226068"><ele>130.0</ele><time>2026-04-01T16:17:18Z</time></trkpt><trkpt lat="46.09098944179544" lon="13.419130361887184"><ele>130.0</ele><time>2026-04-01T16:17:19Z</time></trkpt><trkpt lat="46.090865478477205" lon="13.419021267184927"><ele>130.0</ele><time>2026-04-01T16:17:20Z</time></trkpt><trkpt lat="46.09073024290097" lon="13.418907381428381"><ele>130.0</ele><time>2026-04-01T16:17:21Z</time></trkpt><trkpt lat="46.0905897477868" lon="13.41878594354085"><ele>130.0</ele><time>2026-04-01T16:17:22Z</time></trkpt><trkpt lat="46.09045023887307" lon="13.418664588368625"><ele>130.0</ele><time>2026-04-01T16:17:23Z</time></trkpt><trkpt lat="46.090314953905064" lon="13.41854888633412"><ele>130.0</ele><time>2026-04-01T16:17:24Z</time></trkpt><trkpt lat="46.0901769144528" lon="13.418431831645758"><ele>130.0</ele><time>2026-04-01T16:17:25Z</time></trkpt><trkpt lat="46.09003629521086" lon="13.418314090623559"><ele>130.0</ele><time>2026-04-01T16:17:26Z</time></trkpt><trkpt lat="46.08989476880335" lon="13.418197258402666"><ele>129.33333333333334</ele><time>2026-04-01T16:17:27Z</time></trkpt><trkpt lat="46.089751541419055" lon="13.418072887891782"><ele>128.66666666666666</ele><time>2026-04-01T16:17:28Z</time></trkpt><trkpt lat="46.08961244270668" lon="13.417952107774887"><ele>128.0</ele><time>2026-04-01T16:17:29Z</time></trkpt><trkpt lat="46.089472705129324" lon="13.417839725571778"><ele>128.0</ele><time>2026-04-01T16:17:30Z</time></trkpt><trkpt lat="46.08933482402057" lon="13.417724900917907"><ele>128.0</ele><time>2026-04-01T16:17:31Z</time></trkpt><trkpt lat="46.089199404858796" lon="13.417616022984081"><ele>128.0</ele><time>2026-04-01T16:17:32Z</time></trkpt><trkpt lat="46.08906485729548" lon="13.41751139892137"><ele>128.33333333333331</ele><time>2026-04-01T16:17:33Z</time></trkpt><trkpt lat="46.08893115186028" lon="13.4174100237663"><ele>128.66666666666666</ele><time>2026-04-01T16:17:34Z</time></trkpt><trkpt lat="46.08879712344247" lon="13.417309861981375"><ele>129.0</ele><time>2026-04-01T16:17:35Z</time></trkpt><trkpt lat="46.088657541732466" lon="13.417209721373021"><ele>129.33333333333334</ele><time>2026-04-01T16:17:36Z</time></trkpt><trkpt lat="46.088502322095984" lon="13.417150740892929"><ele>129.66666666666669</ele><time>2026-04-01T16:17:37Z</time></trkpt><trkpt lat="46.08833909530877" lon="13.417035647658373"><ele>130.0</ele><time>2026-04-01T16:17:38Z</time></trkpt><trkpt lat="46.08815375099826" lon="13.41696268017595"><ele>129.0</ele><time>2026-04-01T16:17:39Z</time></trkpt><trkpt lat="46.08795034891734" lon="13.416893705258497"><ele>128.0</ele><time>2026-04-01T16:17:40Z</time></trkpt><trkpt lat="46.08773874854121" lon="13.416809095800307"><ele>127.0</ele><time>2026-04-01T16:17:41Z</time></trkpt><trkpt lat="46.08752360395544" lon="13.416724394690194"><ele>126.33333333333334</ele><time>2026-04-01T16:17:42Z</time></trkpt><trkpt lat="46.08731282161251" lon="13.416650806481206"><ele>125.66666666666666</ele><time>2026-04-01T16:17:43Z</time></trkpt><trkpt lat="46.087115499968235" lon="13.416579782811787"><ele>125.0</ele><time>2026-04-01T16:17:44Z</time></trkpt><trkpt lat="46.086929489364124" lon="13.416506953781365"><ele>125.0</ele><time>2026-04-01T16:17:45Z</time></trkpt><trkpt lat="46.086744432904446" lon="13.4164302849818"><ele>125.0</ele><time>2026-04-01T16:17:46Z</time></trkpt><trkpt lat="46.086573490276606" lon="13.416345030549447"><ele>125.0</ele><time>2026-04-01T16:17:47Z</time></trkpt><trkpt lat="46.086422717171686" lon="13.416241075623722"><ele>125.0</ele><time>2026-04-01T16:17:48Z</time></trkpt><trkpt lat="46.08627779996563" lon="13.41612107228403"><ele>125.0</ele><time>2026-04-01T16:17:49Z</time></trkpt><trkpt lat="46.086122394300006" lon="13.415993636422435"><ele>125.0</ele><time>2026-04-01T16:17:50Z</time></trkpt><trkpt lat="46.085960604852154" lon="13.415856491903273"><ele>125.0</ele><time>2026-04-01T16:17:51Z</time></trkpt><trkpt lat="46.085800640830115" lon="13.415710562121255"><ele>125.0</ele><time>2026-04-01T16:17:52Z</time></trkpt><trkpt lat="46.085645824831865" lon="13.415570515375581"><ele>125.0</ele><time>2026-04-01T16:17:52.999Z</time></trkpt><trkpt lat="46.08548831211991" lon="13.415429291531247"><ele>124.0</ele><time>2026-04-01T16:17:53.999Z</time></trkpt><trkpt lat="46.08532645267185" lon="13.41528759146786"><ele>123.0</ele><time>2026-04-01T16:17:54.999Z</time></trkpt><trkpt lat="46.085158618307844" lon="13.415140309894298"><ele>122.0</ele><time>2026-04-01T16:17:55.999Z</time></trkpt><trkpt lat="46.08498463342164" lon="13.414973976317393"><ele>121.66666666666666</ele><time>2026-04-01T16:17:56.999Z</time></trkpt><trkpt lat="46.08480762535656" lon="13.414787536725209"><ele>121.33333333333334</ele><time>2026-04-01T16:17:57.999Z</time></trkpt><trkpt lat="46.08462585996459" lon="13.414589158508955"><ele>121.0</ele><time>2026-04-01T16:17:58.999Z</time></trkpt><trkpt lat="46.0844394791852" lon="13.414384057593626"><ele>121.0</ele><time>2026-04-01T16:17:59.999Z</time></trkpt><trkpt lat="46.084245484311765" lon="13.414173429518096"><ele>121.0</ele><time>2026-04-01T16:18:00.999Z</time></trkpt><trkpt lat="46.08404804081211" lon="13.413957908721436"><ele>121.0</ele><time>2026-04-01T16:18:01.999Z</time></trkpt><trkpt lat="46.08384558049468" lon="13.413741261066125"><ele>121.0</ele><time>2026-04-01T16:18:02.999Z</time></trkpt><trkpt lat="46.083645197149664" lon="13.413525846271162"><ele>121.0</ele><time>2026-04-01T16:18:03.999Z</time></trkpt><trkpt lat="46.08344997130699" lon="13.413308168738864"><ele>121.0</ele><time>2026-04-01T16:18:04.999Z</time></trkpt><trkpt lat="46.083252691337314" lon="13.413088718495581"><ele>123.0</ele><time>2026-04-01T16:18:05.999Z</time></trkpt><trkpt lat="46.08305520933825" lon="13.412863423640065"><ele>125.0</ele><time>2026-04-01T16:18:06.999Z</time></trkpt><trkpt lat="46.082853962974205" lon="13.412640419855792"><ele>125.0</ele><time>2026-04-01T16:18:07.999Z</time></trkpt><trkpt lat="46.08265442002718" lon="13.412418402904132"><ele>125.0</ele><time>2026-04-01T16:18:08.999Z</time></trkpt><trkpt lat="46.082458980631415" lon="13.41220127666246"><ele>123.5</ele><time>2026-04-01T16:18:09.999Z</time></trkpt><trkpt lat="46.08227149943237" lon="13.41199613705765"><ele>122.0</ele><time>2026-04-01T16:18:10.999Z</time></trkpt><trkpt lat="46.08209346676765" lon="13.411796782938916"><ele>122.0</ele><time>2026-04-01T16:18:11.999Z</time></trkpt><trkpt lat="46.081924201451145" lon="13.4115898327481"><ele>122.0</ele><time>2026-04-01T16:18:12.999Z</time></trkpt><trkpt lat="46.08176266309803" lon="13.411369090154276"><ele>122.0</ele><time>2026-04-01T16:18:13.999Z</time></trkpt><trkpt lat="46.08160574545626" lon="13.411124231254766"><ele>122.0</ele><time>2026-04-01T16:18:14.999Z</time></trkpt><trkpt lat="46.08144858662101" lon="13.410859948157809"><ele>122.0</ele><time>2026-04-01T16:18:15.999Z</time></trkpt><trkpt lat="46.08128571264748" lon="13.41058260936544"><ele>121.5</ele><time>2026-04-01T16:18:16.999Z</time></trkpt><trkpt lat="46.08111706821213" lon="13.41029352145845"><ele>121.0</ele><time>2026-04-01T16:18:18Z</time></trkpt><trkpt lat="46.08094532603516" lon="13.409998021490567"><ele>121.0</ele><time>2026-04-01T16:18:19Z</time></trkpt><trkpt lat="46.08077579570649" lon="13.409714876653148"><ele>121.0</ele><time>2026-04-01T16:18:20Z</time></trkpt><trkpt lat="46.080611896396086" lon="13.409422498144865"><ele>122.5</ele><time>2026-04-01T16:18:21Z</time></trkpt><trkpt lat="46.080465474526456" lon="13.409134357611038"><ele>124.0</ele><time>2026-04-01T16:18:22Z</time></trkpt><trkpt lat="46.08031542731144" lon="13.40884535219323"><ele>123.0</ele><time>2026-04-01T16:18:23Z</time></trkpt><trkpt lat="46.080162116689316" lon="13.408550665290537"><ele>122.0</ele><time>2026-04-01T16:18:24Z</time></trkpt><trkpt lat="46.08000925787435" lon="13.408248381354921"><ele>121.5</ele><time>2026-04-01T16:18:25Z</time></trkpt><trkpt lat="46.07985528533831" lon="13.407939596836295"><ele>121.0</ele><time>2026-04-01T16:18:26Z</time></trkpt><trkpt lat="46.079704140342834" lon="13.407631061804606"><ele>121.0</ele><time>2026-04-01T16:18:27Z</time></trkpt><trkpt lat="46.07955436987431" lon="13.40732373141434"><ele>121.0</ele><time>2026-04-01T16:18:28Z</time></trkpt><trkpt lat="46.07940070075192" lon="13.407023258703378"><ele>121.5</ele><time>2026-04-01T16:18:29Z</time></trkpt><trkpt lat="46.07923869104111" lon="13.406729955826037"><ele>122.0</ele><time>2026-04-01T16:18:30Z</time></trkpt><trkpt lat="46.07907171882643" lon="13.406442895890162"><ele>120.0</ele><time>2026-04-01T16:18:31Z</time></trkpt><trkpt lat="46.07890170192296" lon="13.406164750041455"><ele>118.0</ele><time>2026-04-01T16:18:32Z</time></trkpt><trkpt lat="46.078727812275105" lon="13.405895284446352"><ele>118.0</ele><time>2026-04-01T16:18:33Z</time></trkpt><trkpt lat="46.078547560628614" lon="13.40563414086138"><ele>118.0</ele><time>2026-04-01T16:18:34Z</time></trkpt><trkpt lat="46.07836182316117" lon="13.405382914292202"><ele>117.5</ele><time>2026-04-01T16:18:35Z</time></trkpt><trkpt lat="46.07817333074491" lon="13.40514401150385"><ele>117.0</ele><time>2026-04-01T16:18:36Z</time></trkpt><trkpt lat="46.07799433160093" lon="13.404901075833504"><ele>117.0</ele><time>2026-04-01T16:18:37Z</time></trkpt><trkpt lat="46.07781163587495" lon="13.404664590215816"><ele>117.0</ele><time>2026-04-01T16:18:38Z</time></trkpt><trkpt lat="46.07754276148605" lon="13.404570361917221"><ele>117.0</ele><time>2026-04-01T16:18:39Z</time></trkpt><trkpt lat="46.077307526217595" lon="13.404428385822664"><ele>117.0</ele><time>2026-04-01T16:18:40Z</time></trkpt><trkpt lat="46.07707071262413" lon="13.404285499887035"><ele>117.0</ele><time>2026-04-01T16:18:41Z</time></trkpt><trkpt lat="46.076848221975084" lon="13.404138288988081"><ele>117.0</ele><time>2026-04-01T16:18:42Z</time></trkpt><trkpt lat="46.07664435055893" lon="13.404007997943838"><ele>116.66666666666666</ele><time>2026-04-01T16:18:43Z</time></trkpt><trkpt lat="46.07644380528977" lon="13.4038852854707"><ele>116.33333333333333</ele><time>2026-04-01T16:18:44Z</time></trkpt><trkpt lat="46.07625617882403" lon="13.403772888505642"><ele>116.0</ele><time>2026-04-01T16:18:45Z</time></trkpt><trkpt lat="46.07606998824994" lon="13.403654452009011"><ele>116.33333333333333</ele><time>2026-04-01T16:18:46Z</time></trkpt><trkpt lat="46.07588284338762" lon="13.4035131814666"><ele>116.66666666666666</ele><time>2026-04-01T16:18:47Z</time></trkpt><trkpt lat="46.07570584052481" lon="13.403354047434767"><ele>117.0</ele><time>2026-04-01T16:18:48Z</time></trkpt><trkpt lat="46.07554918537721" lon="13.403190439042305"><ele>117.0</ele><time>2026-04-01T16:18:49Z</time></trkpt><trkpt lat="46.07540475360666" lon="13.403035943692606"><ele>117.0</ele><time>2026-04-01T16:18:50Z</time></trkpt><trkpt lat="46.07526517630079" lon="13.402884577129157"><ele>117.0</ele><time>2026-04-01T16:18:51Z</time></trkpt><trkpt lat="46.07512531038642" lon="13.402724744009626"><ele>117.0</ele><time>2026-04-01T16:18:52Z</time></trkpt><trkpt lat="46.07498529195366" lon="13.402565590131225"><ele>117.0</ele><time>2026-04-01T16:18:53Z</time></trkpt><trkpt lat="46.074844880532815" lon="13.402418052469761"><ele>117.0</ele><time>2026-04-01T16:18:54Z</time></trkpt><trkpt lat="46.074701632228866" lon="13.402285092461124"><ele>117.0</ele><time>2026-04-01T16:18:55Z</time></trkpt><trkpt lat="46.074555265521255" lon="13.402169563099308"><ele>117.0</ele><time>2026-04-01T16:18:56Z</time></trkpt><trkpt lat="46.074399576762886" lon="13.402073763065454"><ele>117.0</ele><time>2026-04-01T16:18:57Z</time></trkpt><trkpt lat="46.07423731247249" lon="13.401982923803887"><ele>117.0</ele><time>2026-04-01T16:18:58Z</time></trkpt><trkpt lat="46.074067186376475" lon="13.401881434921211"><ele>117.0</ele><time>2026-04-01T16:18:59Z</time></trkpt><trkpt lat="46.07388735404562" lon="13.40176737194692"><ele>117.0</ele><time>2026-04-01T16:19:00Z</time></trkpt><trkpt lat="46.07369606934223" lon="13.401647184552388"><ele>117.0</ele><time>2026-04-01T16:19:01Z</time></trkpt><trkpt lat="46.07350762257626" lon="13.401531538739146"><ele>117.0</ele><time>2026-04-01T16:19:02Z</time></trkpt><trkpt lat="46.07331300597668" lon="13.401420997178215"><ele>117.0</ele><time>2026-04-01T16:19:03Z</time></trkpt><trkpt lat="46.07310021922395" lon="13.401277154981749"><ele>115.5</ele><time>2026-04-01T16:19:04Z</time></trkpt><trkpt lat="46.07288631645246" lon="13.401102756556982"><ele>114.0</ele><time>2026-04-01T16:19:05Z</time></trkpt><trkpt lat="46.072658086627264" lon="13.400898850276453"><ele>113.5</ele><time>2026-04-01T16:19:06Z</time></trkpt><trkpt lat="46.07241600759065" lon="13.400693889725353"><ele>113.0</ele><time>2026-04-01T16:19:07Z</time></trkpt><trkpt lat="46.07218661305614" lon="13.400514934475694"><ele>113.5</ele><time>2026-04-01T16:19:08Z</time></trkpt><trkpt lat="46.07196663227887" lon="13.400342446357174"><ele>114.0</ele><time>2026-04-01T16:19:09Z</time></trkpt><trkpt lat="46.0717494305793" lon="13.400172487053643"><ele>114.0</ele><time>2026-04-01T16:19:10Z</time></trkpt><trkpt lat="46.07154040125372" lon="13.400009005105739"><ele>114.0</ele><time>2026-04-01T16:19:11Z</time></trkpt><trkpt lat="46.07133956219054" lon="13.399854696775776"><ele>114.0</ele><time>2026-04-01T16:19:12Z</time></trkpt><trkpt lat="46.071142511031915" lon="13.399703155060642"><ele>114.0</ele><time>2026-04-01T16:19:13Z</time></trkpt><trkpt lat="46.070951693981705" lon="13.399549897584643"><ele>114.0</ele><time>2026-04-01T16:19:14Z</time></trkpt><trkpt lat="46.07076870735989" lon="13.399399464727452"><ele>114.33333333333334</ele><time>2026-04-01T16:19:15Z</time></trkpt><trkpt lat="46.07059652290833" lon="13.399262077602534"><ele>114.66666666666667</ele><time>2026-04-01T16:19:16Z</time></trkpt><trkpt lat="46.07042236040293" lon="13.399127637443657"><ele>115.0</ele><time>2026-04-01T16:19:17Z</time></trkpt><trkpt lat="46.070254404277144" lon="13.399004847022013"><ele>115.0</ele><time>2026-04-01T16:19:18Z</time></trkpt><trkpt lat="46.07009194099159" lon="13.398900332347349"><ele>115.0</ele><time>2026-04-01T16:19:19Z</time></trkpt><trkpt lat="46.069922646066836" lon="13.398810199401538"><ele>115.0</ele><time>2026-04-01T16:19:20Z</time></trkpt><trkpt lat="46.06975415277505" lon="13.39873216073584"><ele>115.0</ele><time>2026-04-01T16:19:21Z</time></trkpt><trkpt lat="46.06958857031208" lon="13.398655282480663"><ele>115.0</ele><time>2026-04-01T16:19:22Z</time></trkpt><trkpt lat="46.06942584844633" lon="13.398577479295989"><ele>115.0</ele><time>2026-04-01T16:19:23Z</time></trkpt><trkpt lat="46.069262914591675" lon="13.39850157583637"><ele>115.0</ele><time>2026-04-01T16:19:24Z</time></trkpt><trkpt lat="46.069102713771024" lon="13.398428780109947"><ele>115.0</ele><time>2026-04-01T16:19:25Z</time></trkpt><trkpt lat="46.0689447333674" lon="13.398357811337563"><ele>115.0</ele><time>2026-04-01T16:19:26Z</time></trkpt><trkpt lat="46.06878660408354" lon="13.39828882214538"><ele>115.0</ele><time>2026-04-01T16:19:27Z</time></trkpt><trkpt lat="46.06862481412222" lon="13.398219340126778"><ele>115.0</ele><time>2026-04-01T16:19:28Z</time></trkpt><trkpt lat="46.06845926341957" lon="13.39815815815741"><ele>115.0</ele><time>2026-04-01T16:19:29Z</time></trkpt><trkpt lat="46.06829186560756" lon="13.398107345942254"><ele>115.33333333333334</ele><time>2026-04-01T16:19:30Z</time></trkpt><trkpt lat="46.06812506497945" lon="13.398049030087277"><ele>115.66666666666666</ele><time>2026-04-01T16:19:31Z</time></trkpt><trkpt lat="46.067959307100466" lon="13.397991116579574"><ele>116.0</ele><time>2026-04-01T16:19:32Z</time></trkpt><trkpt lat="46.06778976311843" lon="13.397935838794869"><ele>116.0</ele><time>2026-04-01T16:19:33Z</time></trkpt><trkpt lat="46.067614230052804" lon="13.397880661809655"><ele>116.0</ele><time>2026-04-01T16:19:34Z</time></trkpt><trkpt lat="46.067441728871174" lon="13.397826124412378"><ele>116.0</ele><time>2026-04-01T16:19:35Z</time></trkpt><trkpt lat="46.06727048496217" lon="13.397772552321346"><ele>115.0</ele><time>2026-04-01T16:19:36Z</time></trkpt><trkpt lat="46.06710069512833" lon="13.39771702097575"><ele>114.0</ele><time>2026-04-01T16:19:37Z</time></trkpt><trkpt lat="46.066931520568254" lon="13.397656568094416"><ele>113.0</ele><time>2026-04-01T16:19:38Z</time></trkpt><trkpt lat="46.066756764260184" lon="13.397598207860273"><ele>113.0</ele><time>2026-04-01T16:19:39Z</time></trkpt><trkpt lat="46.066584153828494" lon="13.397543110069867"><ele>113.0</ele><time>2026-04-01T16:19:40Z</time></trkpt><trkpt lat="46.066415242305105" lon="13.39749024530956"><ele>113.0</ele><time>2026-04-01T16:19:41Z</time></trkpt><trkpt lat="46.06624927721086" lon="13.39743611774599"><ele>113.0</ele><time>2026-04-01T16:19:42Z</time></trkpt><trkpt lat="46.06608482692263" lon="13.397382038207807"><ele>113.0</ele><time>2026-04-01T16:19:43Z</time></trkpt><trkpt lat="46.065921063820085" lon="13.397331693045057"><ele>113.0</ele><time>2026-04-01T16:19:44Z</time></trkpt><trkpt lat="46.06576369496904" lon="13.39728222964629"><ele>113.0</ele><time>2026-04-01T16:19:45Z</time></trkpt><trkpt lat="46.065610030475256" lon="13.397231723018571"><ele>113.0</ele><time>2026-04-01T16:19:46Z</time></trkpt><trkpt lat="46.065455435778865" lon="13.397179198533323"><ele>113.0</ele><time>2026-04-01T16:19:47Z</time></trkpt><trkpt lat="46.06529703243672" lon="13.397127995368079"><ele>113.0</ele><time>2026-04-01T16:19:48Z</time></trkpt><trkpt lat="46.06513451063687" lon="13.3970756161656"><ele>113.0</ele><time>2026-04-01T16:19:49Z</time></trkpt><trkpt lat="46.06497266512177" lon="13.397021814426981"><ele>113.0</ele><time>2026-04-01T16:19:50Z</time></trkpt><trkpt lat="46.06482139574945" lon="13.396969310787858"><ele>113.0</ele><time>2026-04-01T16:19:51Z</time></trkpt><trkpt lat="46.06467453670859" lon="13.396914087280646"><ele>113.0</ele><time>2026-04-01T16:19:52Z</time></trkpt><trkpt lat="46.06452543694001" lon="13.396860212539442"><ele>113.0</ele><time>2026-04-01T16:19:53Z</time></trkpt><trkpt lat="46.06436853789425" lon="13.396801403729986"><ele>113.0</ele><time>2026-04-01T16:19:54Z</time></trkpt><trkpt lat="46.064206088617105" lon="13.396738665366037"><ele>113.0</ele><time>2026-04-01T16:19:55Z</time></trkpt><trkpt lat="46.064046864970365" lon="13.396673495517415"><ele>113.0</ele><time>2026-04-01T16:19:56Z</time></trkpt><trkpt lat="46.063897443604674" lon="13.39661050775274"><ele>113.25</ele><time>2026-04-01T16:19:57Z</time></trkpt><trkpt lat="46.06375951714418" lon="13.396545612586266"><ele>113.5</ele><time>2026-04-01T16:19:57.999Z</time></trkpt><trkpt lat="46.06363065010259" lon="13.396476036783854"><ele>113.75</ele><time>2026-04-01T16:19:58.999Z</time></trkpt><trkpt lat="46.06349925776569" lon="13.396403233274308"><ele>114.0</ele><time>2026-04-01T16:19:59.999Z</time></trkpt><trkpt lat="46.06335851226618" lon="13.39632777349137"><ele>113.33333333333334</ele><time>2026-04-01T16:20:00.999Z</time></trkpt><trkpt lat="46.063211725719725" lon="13.396244997442537"><ele>112.66666666666667</ele><time>2026-04-01T16:20:01.999Z</time></trkpt><trkpt lat="46.06306774429573" lon="13.396160533282702"><ele>112.0</ele><time>2026-04-01T16:20:02.999Z</time></trkpt><trkpt lat="46.062927574418815" lon="13.3960802141876"><ele>112.0</ele><time>2026-04-01T16:20:03.999Z</time></trkpt><trkpt lat="46.062789020481254" lon="13.396000844329556"><ele>112.0</ele><time>2026-04-01T16:20:04.999Z</time></trkpt><trkpt lat="46.06265008243194" lon="13.395919981019242"><ele>112.0</ele><time>2026-04-01T16:20:05.999Z</time></trkpt><trkpt lat="46.06250441311282" lon="13.395836239446457"><ele>112.33333333333334</ele><time>2026-04-01T16:20:06.999Z</time></trkpt><trkpt lat="46.062352851989324" lon="13.395752306854043"><ele>112.66666666666666</ele><time>2026-04-01T16:20:07.999Z</time></trkpt><trkpt lat="46.062199697971934" lon="13.39566293497189"><ele>113.0</ele><time>2026-04-01T16:20:08.999Z</time></trkpt><trkpt lat="46.062043875013224" lon="13.395574085677406"><ele>113.0</ele><time>2026-04-01T16:20:09.999Z</time></trkpt><trkpt lat="46.06188955414393" lon="13.395489876848732"><ele>113.0</ele><time>2026-04-01T16:20:10.999Z</time></trkpt><trkpt lat="46.06173978727554" lon="13.395406222674405"><ele>113.0</ele><time>2026-04-01T16:20:11.999Z</time></trkpt><trkpt lat="46.061599836352336" lon="13.39532194595222"><ele>112.75</ele><time>2026-04-01T16:20:12.999Z</time></trkpt><trkpt lat="46.06146687844793" lon="13.395241189725478"><ele>112.5</ele><time>2026-04-01T16:20:13.999Z</time></trkpt><trkpt lat="46.06133448348355" lon="13.395162940815501"><ele>112.25</ele><time>2026-04-01T16:20:14.999Z</time></trkpt><trkpt lat="46.06120146134717" lon="13.395089237512469"><ele>112.0</ele><time>2026-04-01T16:20:15.999Z</time></trkpt><trkpt lat="46.061070609554825" lon="13.39501525438378"><ele>112.0</ele><time>2026-04-01T16:20:16.999Z</time></trkpt><trkpt lat="46.06094116279138" lon="13.394935566178184"><ele>112.0</ele><time>2026-04-01T16:20:17.999Z</time></trkpt><trkpt lat="46.0608057953926" lon="13.394856847897639"><ele>112.0</ele><time>2026-04-01T16:20:18.999Z</time></trkpt><trkpt lat="46.0606675989787" lon="13.39478150211655"><ele>112.0</ele><time>2026-04-01T16:20:19.999Z</time></trkpt><trkpt lat="46.06052560332321" lon="13.394711840654839"><ele>111.75</ele><time>2026-04-01T16:20:20.999Z</time></trkpt><trkpt lat="46.06038242277172" lon="13.394647843610054"><ele>111.5</ele><time>2026-04-01T16:20:21.999Z</time></trkpt><trkpt lat="46.06024252747061" lon="13.394586211992761"><ele>111.25</ele><time>2026-04-01T16:20:22.999Z</time></trkpt><trkpt lat="46.06010868455739" lon="13.394523654496856"><ele>111.0</ele><time>2026-04-01T16:20:24Z</time></trkpt><trkpt lat="46.05997431400778" lon="13.3944653111322"><ele>111.33333333333334</ele><time>2026-04-01T16:20:25Z</time></trkpt><trkpt lat="46.05983167090005" lon="13.394418212341103"><ele>111.66666666666667</ele><time>2026-04-01T16:20:26Z</time></trkpt><trkpt lat="46.05968215817294" lon="13.39438386362324"><ele>112.0</ele><time>2026-04-01T16:20:27Z</time></trkpt><trkpt lat="46.059526116618365" lon="13.394356404412159"><ele>112.0</ele><time>2026-04-01T16:20:28Z</time></trkpt><trkpt lat="46.05935539827813" lon="13.394332102625114"><ele>112.0</ele><time>2026-04-01T16:20:29Z</time></trkpt><trkpt lat="46.05918505302778" lon="13.394307123297905"><ele>112.0</ele><time>2026-04-01T16:20:30Z</time></trkpt><trkpt lat="46.05901667079412" lon="13.394284124564392"><ele>111.33333333333334</ele><time>2026-04-01T16:20:31Z</time></trkpt><trkpt lat="46.05885044900983" lon="13.394264202550504"><ele>110.66666666666666</ele><time>2026-04-01T16:20:32Z</time></trkpt><trkpt lat="46.058692089716565" lon="13.394239567124739"><ele>110.0</ele><time>2026-04-01T16:20:33Z</time></trkpt><trkpt lat="46.058536576570496" lon="13.394216154042153"><ele>110.0</ele><time>2026-04-01T16:20:34Z</time></trkpt><trkpt lat="46.058391700092244" lon="13.394198455468697"><ele>110.0</ele><time>2026-04-01T16:20:35Z</time></trkpt><trkpt lat="46.05825719299929" lon="13.394186023778955"><ele>110.0</ele><time>2026-04-01T16:20:36Z</time></trkpt><trkpt lat="46.05813364251894" lon="13.394174452441044"><ele>110.0</ele><time>2026-04-01T16:20:37Z</time></trkpt><trkpt lat="46.05802048107223" lon="13.394178232132898"><ele>110.2</ele><time>2026-04-01T16:20:38Z</time></trkpt><trkpt lat="46.05791660022491" lon="13.39418917677855"><ele>110.4</ele><time>2026-04-01T16:20:39Z</time></trkpt><trkpt lat="46.05781595661792" lon="13.394202004724985"><ele>110.6</ele><time>2026-04-01T16:20:40Z</time></trkpt><trkpt lat="46.05772201869906" lon="13.394218671208687"><ele>110.8</ele><time>2026-04-01T16:20:41Z</time></trkpt><trkpt lat="46.057638154811215" lon="13.394220103307786"><ele>111.0</ele><time>2026-04-01T16:20:42Z</time></trkpt><trkpt lat="46.05756182917197" lon="13.394195612143609"><ele>111.0</ele><time>2026-04-01T16:20:43Z</time></trkpt><trkpt lat="46.057499642309566" lon="13.394157729144565"><ele>111.0</ele><time>2026-04-01T16:20:44Z</time></trkpt><trkpt lat="46.057434841461394" lon="13.39411123543018"><ele>111.0</ele><time>2026-04-01T16:20:45Z</time></trkpt><trkpt lat="46.057394128479764" lon="13.394010025631404"><ele>111.0</ele><time>2026-04-01T16:20:46Z</time></trkpt><trkpt lat="46.057423961260376" lon="13.393860438443884"><ele>111.0</ele><time>2026-04-01T16:20:47Z</time></trkpt><trkpt lat="46.057423025989564" lon="13.393730312353123"><ele>111.0</ele><time>2026-04-01T16:20:48Z</time></trkpt><trkpt lat="46.05740585280168" lon="13.393575499449916"><ele>110.75</ele><time>2026-04-01T16:20:49Z</time></trkpt><trkpt lat="46.05739736087134" lon="13.393390156483699"><ele>110.5</ele><time>2026-04-01T16:20:50Z</time></trkpt><trkpt lat="46.05738486723555" lon="13.393194586349361"><ele>110.25</ele><time>2026-04-01T16:20:51Z</time></trkpt><trkpt lat="46.05736895644427" lon="13.392991994499361"><ele>110.0</ele><time>2026-04-01T16:20:52Z</time></trkpt><trkpt lat="46.05735199146675" lon="13.392791106080823"><ele>109.75</ele><time>2026-04-01T16:20:53Z</time></trkpt><trkpt lat="46.0573398428634" lon="13.392584161537515"><ele>109.5</ele><time>2026-04-01T16:20:54Z</time></trkpt><trkpt lat="46.057339733702136" lon="13.392371611111827"><ele>109.25</ele><time>2026-04-01T16:20:55Z</time></trkpt><trkpt lat="46.05733832841648" lon="13.392159107508702"><ele>109.0</ele><time>2026-04-01T16:20:56Z</time></trkpt><trkpt lat="46.05731842181837" lon="13.391961840850211"><ele>109.0</ele><time>2026-04-01T16:20:57Z</time></trkpt><trkpt lat="46.05729163708024" lon="13.3917800908364"><ele>109.0</ele><time>2026-04-01T16:20:58Z</time></trkpt><trkpt lat="46.05726220588241" lon="13.391610577740515"><ele>109.0</ele><time>2026-04-01T16:20:59Z</time></trkpt><trkpt lat="46.057248749179216" lon="13.391433954533449"><ele>109.0</ele><time>2026-04-01T16:21:00Z</time></trkpt><trkpt lat="46.05725622716294" lon="13.39124802761149"><ele>109.0</ele><time>2026-04-01T16:21:01Z</time></trkpt><trkpt lat="46.05728084465449" lon="13.391045822288735"><ele>109.0</ele><time>2026-04-01T16:21:02Z</time></trkpt><trkpt lat="46.05730377706979" lon="13.390834484932109"><ele>109.0</ele><time>2026-04-01T16:21:03Z</time></trkpt><trkpt lat="46.05733044076432" lon="13.390637303025406"><ele>109.0</ele><time>2026-04-01T16:21:04Z</time></trkpt><trkpt lat="46.05738275932936" lon="13.390431417662938"><ele>109.0</ele><time>2026-04-01T16:21:05Z</time></trkpt><trkpt lat="46.05744542713405" lon="13.39020210938962"><ele>109.0</ele><time>2026-04-01T16:21:06Z</time></trkpt><trkpt lat="46.05750980396035" lon="13.38995389985199"><ele>109.0</ele><time>2026-04-01T16:21:07Z</time></trkpt><trkpt lat="46.05758058963758" lon="13.389696668460006"><ele>109.33333333333334</ele><time>2026-04-01T16:21:08Z</time></trkpt><trkpt lat="46.05764601768349" lon="13.389458845308365"><ele>109.66666666666666</ele><time>2026-04-01T16:21:09Z</time></trkpt><trkpt lat="46.057707908135015" lon="13.389215032403927"><ele>110.0</ele><time>2026-04-01T16:21:10Z</time></trkpt><trkpt lat="46.05777076158671" lon="13.38896961782024"><ele>110.0</ele><time>2026-04-01T16:21:11Z</time></trkpt><trkpt lat="46.0578301731109" lon="13.388741291257114"><ele>110.0</ele><time>2026-04-01T16:21:12Z</time></trkpt><trkpt lat="46.05788651992584" lon="13.38852821681118"><ele>110.0</ele><time>2026-04-01T16:21:13Z</time></trkpt><trkpt lat="46.05793886718064" lon="13.388303030980442"><ele>110.0</ele><time>2026-04-01T16:21:14Z</time></trkpt><trkpt lat="46.057977273083566" lon="13.388069772194411"><ele>110.0</ele><time>2026-04-01T16:21:15Z</time></trkpt><trkpt lat="46.05799536102872" lon="13.387813821013356"><ele>110.0</ele><time>2026-04-01T16:21:16Z</time></trkpt><trkpt lat="46.058002459860894" lon="13.387545529715544"><ele>109.66666666666666</ele><time>2026-04-01T16:21:17Z</time></trkpt><trkpt lat="46.05799477650904" lon="13.387274260062782"><ele>109.33333333333334</ele><time>2026-04-01T16:21:18Z</time></trkpt><trkpt lat="46.05798065073254" lon="13.386999215186815"><ele>109.0</ele><time>2026-04-01T16:21:19Z</time></trkpt><trkpt lat="46.05797395971365" lon="13.386722913020396"><ele>109.0</ele><time>2026-04-01T16:21:20Z</time></trkpt><trkpt lat="46.057972865945" lon="13.386439553938004"><ele>109.0</ele><time>2026-04-01T16:21:21Z</time></trkpt><trkpt lat="46.057976752811136" lon="13.38614827650625"><ele>109.0</ele><time>2026-04-01T16:21:22Z</time></trkpt><trkpt lat="46.057989399635275" lon="13.385853523435175"><ele>109.0</ele><time>2026-04-01T16:21:23Z</time></trkpt><trkpt lat="46.05801700077617" lon="13.385572637779088"><ele>109.0</ele><time>2026-04-01T16:21:24Z</time></trkpt><trkpt lat="46.05805540352609" lon="13.385296692532108"><ele>109.0</ele><time>2026-04-01T16:21:25Z</time></trkpt><trkpt lat="46.058104482011906" lon="13.385018990537711"><ele>109.0</ele><time>2026-04-01T16:21:26Z</time></trkpt><trkpt lat="46.05815652786676" lon="13.384738978747396"><ele>109.0</ele><time>2026-04-01T16:21:27Z</time></trkpt><trkpt lat="46.058210953664585" lon="13.384457611059464"><ele>109.0</ele><time>2026-04-01T16:21:28Z</time></trkpt><trkpt lat="46.05825849886092" lon="13.384202483437255"><ele>109.0</ele><time>2026-04-01T16:21:29Z</time></trkpt><trkpt lat="46.0583006710539" lon="13.383957607730984"><ele>109.0</ele><time>2026-04-01T16:21:30Z</time></trkpt><trkpt lat="46.058348096445094" lon="13.383690542199162"><ele>109.0</ele><time>2026-04-01T16:21:31Z</time></trkpt><trkpt lat="46.058394131918796" lon="13.383441714879785"><ele>108.33333333333334</ele><time>2026-04-01T16:21:32Z</time></trkpt><trkpt lat="46.05843623490013" lon="13.383209831949472"><ele>107.66666666666666</ele><time>2026-04-01T16:21:33Z</time></trkpt><trkpt lat="46.05847817516105" lon="13.382964486292382"><ele>107.0</ele><time>2026-04-01T16:21:34Z</time></trkpt><trkpt lat="46.05852568750581" lon="13.382710310740828"><ele>107.0</ele><time>2026-04-01T16:21:35Z</time></trkpt><trkpt lat="46.05857491852588" lon="13.382455564031172"><ele>107.0</ele><time>2026-04-01T16:21:36Z</time></trkpt><trkpt lat="46.05861477754235" lon="13.382229506799785"><ele>107.0</ele><time>2026-04-01T16:21:37Z</time></trkpt><trkpt lat="46.05864849586596" lon="13.382028525710782"><ele>107.0</ele><time>2026-04-01T16:21:38Z</time></trkpt><trkpt lat="46.05868259024755" lon="13.381847862067618"><ele>107.0</ele><time>2026-04-01T16:21:39Z</time></trkpt><trkpt lat="46.05871799967838" lon="13.381687654179153"><ele>107.0</ele><time>2026-04-01T16:21:40Z</time></trkpt><trkpt lat="46.05875390635611" lon="13.381533570444553"><ele>107.0</ele><time>2026-04-01T16:21:41Z</time></trkpt><trkpt lat="46.05880049673015" lon="13.381384383391667"><ele>107.19999999999999</ele><time>2026-04-01T16:21:42Z</time></trkpt><trkpt lat="46.05886720932195" lon="13.381248248702054"><ele>107.39999999999999</ele><time>2026-04-01T16:21:43Z</time></trkpt><trkpt lat="46.058943653971376" lon="13.381137878603417"><ele>107.60000000000001</ele><time>2026-04-01T16:21:44Z</time></trkpt><trkpt lat="46.059005565887865" lon="13.38103243069215"><ele>107.80000000000001</ele><time>2026-04-01T16:21:45Z</time></trkpt><trkpt lat="46.059028238520824" lon="13.380911672316865"><ele>108.0</ele><time>2026-04-01T16:21:46Z</time></trkpt><trkpt lat="46.05901522167265" lon="13.380788327303847"><ele>108.0</ele><time>2026-04-01T16:21:47Z</time></trkpt><trkpt lat="46.058954078791636" lon="13.380689395990848"><ele>108.00000000000001</ele><time>2026-04-01T16:21:48Z</time></trkpt><trkpt lat="46.05886548025763" lon="13.380646048311164"><ele>108.00000000000001</ele><time>2026-04-01T16:21:49Z</time></trkpt><trkpt lat="46.058774515027814" lon="13.38065594629604"><ele>108.0</ele><time>2026-04-01T16:21:50Z</time></trkpt><trkpt lat="46.05867874089381" lon="13.380694363076485"><ele>108.0</ele><time>2026-04-01T16:21:51Z</time></trkpt><trkpt lat="46.05857088711651" lon="13.380704935311446"><ele>108.0</ele><time>2026-04-01T16:21:52Z</time></trkpt><trkpt lat="46.058457923183305" lon="13.380673077812382"><ele>108.0</ele><time>2026-04-01T16:21:53Z</time></trkpt><trkpt lat="46.05833241306605" lon="13.380618722239046"><ele>108.0</ele><time>2026-04-01T16:21:54Z</time></trkpt><trkpt lat="46.05819422298484" lon="13.380566301918035"><ele>108.0</ele><time>2026-04-01T16:21:55Z</time></trkpt><trkpt lat="46.058049766857664" lon="13.38051177466753"><ele>107.75</ele><time>2026-04-01T16:21:56Z</time></trkpt><trkpt lat="46.05790498573999" lon="13.380442686067866"><ele>107.5</ele><time>2026-04-01T16:21:57Z</time></trkpt><trkpt lat="46.05776897007338" lon="13.380375926176104"><ele>107.25</ele><time>2026-04-01T16:21:58Z</time></trkpt><trkpt lat="46.05763474140914" lon="13.380319033477573"><ele>107.0</ele><time>2026-04-01T16:21:59Z</time></trkpt><trkpt lat="46.05749906688155" lon="13.380259742580531"><ele>106.5</ele><time>2026-04-01T16:21:59.999Z</time></trkpt><trkpt lat="46.057370293852905" lon="13.380198898770884"><ele>106.0</ele><time>2026-04-01T16:22:00.999Z</time></trkpt><trkpt lat="46.05723702376535" lon="13.380134274746572"><ele>105.5</ele><time>2026-04-01T16:22:01.999Z</time></trkpt><trkpt lat="46.05709168923522" lon="13.380068545856464"><ele>105.0</ele><time>2026-04-01T16:22:02.999Z</time></trkpt><trkpt lat="46.05694682204298" lon="13.380011603598854"><ele>105.0</ele><time>2026-04-01T16:22:03.999Z</time></trkpt><trkpt lat="46.056804914456755" lon="13.379959968505606"><ele>105.0</ele><time>2026-04-01T16:22:04.999Z</time></trkpt><trkpt lat="46.05665875548441" lon="13.379910971505131"><ele>105.0</ele><time>2026-04-01T16:22:05.999Z</time></trkpt><trkpt lat="46.056506692354446" lon="13.379868119473382"><ele>105.33333333333334</ele><time>2026-04-01T16:22:06.999Z</time></trkpt><trkpt lat="46.05635919734178" lon="13.379841338364423"><ele>105.66666666666667</ele><time>2026-04-01T16:22:07.999Z</time></trkpt><trkpt lat="46.05620518646174" lon="13.379826538872484"><ele>106.0</ele><time>2026-04-01T16:22:08.999Z</time></trkpt><trkpt lat="46.05604620002597" lon="13.379820541615967"><ele>106.0</ele><time>2026-04-01T16:22:09.999Z</time></trkpt><trkpt lat="46.05588817158171" lon="13.379814643919527"><ele>106.0</ele><time>2026-04-01T16:22:10.999Z</time></trkpt><trkpt lat="46.0557222905614" lon="13.379821134381022"><ele>106.0</ele><time>2026-04-01T16:22:11.999Z</time></trkpt><trkpt lat="46.05554274719578" lon="13.379846942325347"><ele>105.33333333333334</ele><time>2026-04-01T16:22:12.999Z</time></trkpt><trkpt lat="46.05534063167307" lon="13.379853969958564"><ele>104.66666666666666</ele><time>2026-04-01T16:22:13.999Z</time></trkpt><trkpt lat="46.05511320589668" lon="13.379886427685173"><ele>104.0</ele><time>2026-04-01T16:22:14.999Z</time></trkpt><trkpt lat="46.05485675482344" lon="13.379926518062373"><ele>104.0</ele><time>2026-04-01T16:22:15.999Z</time></trkpt><trkpt lat="46.05458507715703" lon="13.379981646734011"><ele>104.0</ele><time>2026-04-01T16:22:16.999Z</time></trkpt><trkpt lat="46.054316477471524" lon="13.379988057920865"><ele>104.0</ele><time>2026-04-01T16:22:17.999Z</time></trkpt><trkpt lat="46.05404342274608" lon="13.379967410796315"><ele>104.0</ele><time>2026-04-01T16:22:18.999Z</time></trkpt><trkpt lat="46.053770497005246" lon="13.379903092945307"><ele>104.0</ele><time>2026-04-01T16:22:19.999Z</time></trkpt><trkpt lat="46.05349688420864" lon="13.379813575913417"><ele>104.0</ele><time>2026-04-01T16:22:20.999Z</time></trkpt><trkpt lat="46.05321821939724" lon="13.379713653748816"><ele>104.5</ele><time>2026-04-01T16:22:21.999Z</time></trkpt><trkpt lat="46.052942507020916" lon="13.379605213585851"><ele>105.0</ele><time>2026-04-01T16:22:22.999Z</time></trkpt><trkpt lat="46.05267261872529" lon="13.3794988934444"><ele>106.0</ele><time>2026-04-01T16:22:23.999Z</time></trkpt><trkpt lat="46.05240619097247" lon="13.379398394431576"><ele>107.0</ele><time>2026-04-01T16:22:24.999Z</time></trkpt><trkpt lat="46.05214339935409" lon="13.37929844447908"><ele>107.0</ele><time>2026-04-01T16:22:25.999Z</time></trkpt><trkpt lat="46.05189130299226" lon="13.379201894442213"><ele>107.0</ele><time>2026-04-01T16:22:26.999Z</time></trkpt><trkpt lat="46.05165825602319" lon="13.379113973188208"><ele>105.33333333333333</ele><time>2026-04-01T16:22:27.999Z</time></trkpt><trkpt lat="46.05143731458536" lon="13.379030141110777"><ele>103.66666666666666</ele><time>2026-04-01T16:22:28.999Z</time></trkpt><trkpt lat="46.05122679275778" lon="13.378948237055893"><ele>102.0</ele><time>2026-04-01T16:22:30Z</time></trkpt><trkpt lat="46.05103394327165" lon="13.378877869380727"><ele>102.66666666666666</ele><time>2026-04-01T16:22:31Z</time></trkpt><trkpt lat="46.05085749327008" lon="13.378812044385782"><ele>103.33333333333333</ele><time>2026-04-01T16:22:32Z</time></trkpt><trkpt lat="46.0506962312303" lon="13.378744851727497"><ele>104.0</ele><time>2026-04-01T16:22:33Z</time></trkpt><trkpt lat="46.05054165931143" lon="13.378683604930593"><ele>104.0</ele><time>2026-04-01T16:22:34Z</time></trkpt><trkpt lat="46.050390221663896" lon="13.378629198062855"><ele>104.0</ele><time>2026-04-01T16:22:35Z</time></trkpt><trkpt lat="46.050258122005324" lon="13.37857646460594"><ele>104.0</ele><time>2026-04-01T16:22:36Z</time></trkpt><trkpt lat="46.05014207405425" lon="13.37852125488666"><ele>104.0</ele><time>2026-04-01T16:22:37Z</time></trkpt><trkpt lat="46.05003674297728" lon="13.378442994244498"><ele>103.75</ele><time>2026-04-01T16:22:38Z</time></trkpt><trkpt lat="46.049939776133456" lon="13.378328013494674"><ele>103.5</ele><time>2026-04-01T16:22:39Z</time></trkpt><trkpt lat="46.04984600409429" lon="13.378215702140485"><ele>103.25</ele><time>2026-04-01T16:22:40Z</time></trkpt><trkpt lat="46.04975133900701" lon="13.378140140523483"><ele>103.0</ele><time>2026-04-01T16:22:41Z</time></trkpt><trkpt lat="46.04963920585728" lon="13.378152803141168"><ele>103.0</ele><time>2026-04-01T16:22:42Z</time></trkpt><trkpt lat="46.049519024305184" lon="13.37823383646796"><ele>103.0</ele><time>2026-04-01T16:22:43Z</time></trkpt><trkpt lat="46.04937553915757" lon="13.378241182661498"><ele>103.0</ele><time>2026-04-01T16:22:44Z</time></trkpt><trkpt lat="46.049219678998945" lon="13.378203232796112"><ele>103.0</ele><time>2026-04-01T16:22:45Z</time></trkpt><trkpt lat="46.0490532132653" lon="13.378160479332935"><ele>103.33333333333334</ele><time>2026-04-01T16:22:46Z</time></trkpt><trkpt lat="46.0488763136023" lon="13.378105394515366"><ele>103.66666666666666</ele><time>2026-04-01T16:22:47Z</time></trkpt><trkpt lat="46.04868599947723" lon="13.378042296546655"><ele>104.0</ele><time>2026-04-01T16:22:48Z</time></trkpt><trkpt lat="46.048474092546" lon="13.377974134266928"><ele>103.0</ele><time>2026-04-01T16:22:49Z</time></trkpt><trkpt lat="46.04824027654286" lon="13.3778963994974"><ele>102.0</ele><time>2026-04-01T16:22:50Z</time></trkpt><trkpt lat="46.04798998680093" lon="13.377811244904093"><ele>102.0</ele><time>2026-04-01T16:22:51Z</time></trkpt><trkpt lat="46.047737098428534" lon="13.377721547225553"><ele>102.0</ele><time>2026-04-01T16:22:52Z</time></trkpt><trkpt lat="46.047486192812414" lon="13.377625383049429"><ele>102.0</ele><time>2026-04-01T16:22:53Z</time></trkpt><trkpt lat="46.04724448356662" lon="13.377519097776077"><ele>102.0</ele><time>2026-04-01T16:22:54Z</time></trkpt><trkpt lat="46.04699785161233" lon="13.377398145073531"><ele>102.0</ele><time>2026-04-01T16:22:55Z</time></trkpt><trkpt lat="46.046741643745676" lon="13.377263831913922"><ele>102.0</ele><time>2026-04-01T16:22:56Z</time></trkpt><trkpt lat="46.046479780738885" lon="13.37711610731165"><ele>101.5</ele><time>2026-04-01T16:22:57Z</time></trkpt><trkpt lat="46.04621631873186" lon="13.376957084679962"><ele>101.0</ele><time>2026-04-01T16:22:58Z</time></trkpt><trkpt lat="46.045959952136144" lon="13.376803735618163"><ele>101.0</ele><time>2026-04-01T16:22:59Z</time></trkpt><trkpt lat="46.04571966027531" lon="13.376661189761842"><ele>101.0</ele><time>2026-04-01T16:23:00Z</time></trkpt><trkpt lat="46.04549270155673" lon="13.376525212476864"><ele>101.0</ele><time>2026-04-01T16:23:01Z</time></trkpt><trkpt lat="46.04526382628048" lon="13.376388673500355"><ele>101.0</ele><time>2026-04-01T16:23:02Z</time></trkpt><trkpt lat="46.045024947775666" lon="13.376264365643998"><ele>100.0</ele><time>2026-04-01T16:23:03Z</time></trkpt><trkpt lat="46.04478215751047" lon="13.37616581732667"><ele>99.0</ele><time>2026-04-01T16:23:04Z</time></trkpt><trkpt lat="46.04453617687496" lon="13.376084029777989"><ele>99.0</ele><time>2026-04-01T16:23:05Z</time></trkpt><trkpt lat="46.044279495315614" lon="13.37600563455636"><ele>99.0</ele><time>2026-04-01T16:23:06Z</time></trkpt><trkpt lat="46.04400960448881" lon="13.375939837226312"><ele>99.5</ele><time>2026-04-01T16:23:07Z</time></trkpt><trkpt lat="46.04373120450943" lon="13.3758889008201"><ele>100.0</ele><time>2026-04-01T16:23:08Z</time></trkpt><trkpt lat="46.04344890082232" lon="13.375849011444856"><ele>100.5</ele><time>2026-04-01T16:23:09Z</time></trkpt><trkpt lat="46.043165187305185" lon="13.375812352935968"><ele>101.0</ele><time>2026-04-01T16:23:10Z</time></trkpt><trkpt lat="46.04287926690815" lon="13.375773779217116"><ele>101.0</ele><time>2026-04-01T16:23:11Z</time></trkpt><trkpt lat="46.04259558900141" lon="13.375733120470954"><ele>101.0</ele><time>2026-04-01T16:23:12Z</time></trkpt><trkpt lat="46.042313462373194" lon="13.375689338149114"><ele>99.5</ele><time>2026-04-01T16:23:13Z</time></trkpt><trkpt lat="46.042033152197405" lon="13.375644215721769"><ele>98.0</ele><time>2026-04-01T16:23:14Z</time></trkpt><trkpt lat="46.041754108600436" lon="13.375605567604495"><ele>98.5</ele><time>2026-04-01T16:23:15Z</time></trkpt><trkpt lat="46.041483794337694" lon="13.375566075622073"><ele>99.0</ele><time>2026-04-01T16:23:16Z</time></trkpt><trkpt lat="46.041223298366425" lon="13.37551661260382"><ele>100.0</ele><time>2026-04-01T16:23:17Z</time></trkpt><trkpt lat="46.0409663668775" lon="13.375449792757346"><ele>101.0</ele><time>2026-04-01T16:23:18Z</time></trkpt><trkpt lat="46.04071141062492" lon="13.375353927602125"><ele>101.0</ele><time>2026-04-01T16:23:19Z</time></trkpt><trkpt lat="46.04046166724387" lon="13.375216404439655"><ele>101.0</ele><time>2026-04-01T16:23:20Z</time></trkpt><trkpt lat="46.040223004991375" lon="13.37504756275212"><ele>101.0</ele><time>2026-04-01T16:23:21Z</time></trkpt><trkpt lat="46.0399963207212" lon="13.374849748333837"><ele>101.0</ele><time>2026-04-01T16:23:22Z</time></trkpt><trkpt lat="46.03977925042966" lon="13.374632326718142"><ele>99.5</ele><time>2026-04-01T16:23:23Z</time></trkpt><trkpt lat="46.03957097076008" lon="13.374408371831652"><ele>98.0</ele><time>2026-04-01T16:23:24Z</time></trkpt><trkpt lat="46.03935919681495" lon="13.374178574573785"><ele>98.0</ele><time>2026-04-01T16:23:25Z</time></trkpt><trkpt lat="46.03914334528462" lon="13.37394167230433"><ele>98.0</ele><time>2026-04-01T16:23:26Z</time></trkpt><trkpt lat="46.0389249829215" lon="13.373695894955157"><ele>98.0</ele><time>2026-04-01T16:23:27Z</time></trkpt><trkpt lat="46.038722694256876" lon="13.373472236757966"><ele>98.0</ele><time>2026-04-01T16:23:28Z</time></trkpt><trkpt lat="46.03852660500355" lon="13.373256621744957"><ele>98.0</ele><time>2026-04-01T16:23:29Z</time></trkpt><trkpt lat="46.03833296111759" lon="13.373048081761594"><ele>98.0</ele><time>2026-04-01T16:23:30Z</time></trkpt><trkpt lat="46.038149306383026" lon="13.372852337073613"><ele>99.0</ele><time>2026-04-01T16:23:31Z</time></trkpt><trkpt lat="46.03796852586626" lon="13.372663168905152"><ele>100.0</ele><time>2026-04-01T16:23:32Z</time></trkpt><trkpt lat="46.03778078809529" lon="13.37248041890726"><ele>100.0</ele><time>2026-04-01T16:23:33Z</time></trkpt><trkpt lat="46.03758757749114" lon="13.372315922663237"><ele>100.0</ele><time>2026-04-01T16:23:34Z</time></trkpt><trkpt lat="46.03739572618089" lon="13.3721756807042"><ele>100.0</ele><time>2026-04-01T16:23:35Z</time></trkpt><trkpt lat="46.03720633016879" lon="13.372048735387574"><ele>99.66666666666667</ele><time>2026-04-01T16:23:36Z</time></trkpt><trkpt lat="46.03701045642166" lon="13.37192739466555"><ele>99.33333333333334</ele><time>2026-04-01T16:23:37Z</time></trkpt><trkpt lat="46.03681154082608" lon="13.37181350567917"><ele>99.0</ele><time>2026-04-01T16:23:38Z</time></trkpt><trkpt lat="46.03661922736263" lon="13.371710181021486"><ele>98.33333333333334</ele><time>2026-04-01T16:23:39Z</time></trkpt><trkpt lat="46.03644292597185" lon="13.371619626977406"><ele>97.66666666666667</ele><time>2026-04-01T16:23:40Z</time></trkpt><trkpt lat="46.036280247946124" lon="13.371537964235733"><ele>97.0</ele><time>2026-04-01T16:23:41Z</time></trkpt><trkpt lat="46.03612158674812" lon="13.371458716878196"><ele>97.0</ele><time>2026-04-01T16:23:42Z</time></trkpt><trkpt lat="46.03597689375964" lon="13.37139018399439"><ele>97.0</ele><time>2026-04-01T16:23:43Z</time></trkpt><trkpt lat="46.035847632223444" lon="13.371331317094981"><ele>97.0</ele><time>2026-04-01T16:23:44Z</time></trkpt><trkpt lat="46.03573784371493" lon="13.37126239055034"><ele>97.0</ele><time>2026-04-01T16:23:45Z</time></trkpt><trkpt lat="46.03564751739152" lon="13.37116482461425"><ele>97.0</ele><time>2026-04-01T16:23:46Z</time></trkpt><trkpt lat="46.03555707130083" lon="13.371123623492574"><ele>97.0</ele><time>2026-04-01T16:23:47Z</time></trkpt><trkpt lat="46.03549909965176" lon="13.37106912924206"><ele>97.0</ele><time>2026-04-01T16:23:48Z</time></trkpt><trkpt lat="46.035554341425616" lon="13.370676066441645"><ele>97.0</ele><time>2026-04-01T16:23:49Z</time></trkpt><trkpt lat="46.03559587612235" lon="13.370475127401765"><ele>97.0</ele><time>2026-04-01T16:23:50Z</time></trkpt><trkpt lat="46.03565087659414" lon="13.370267910362871"><ele>97.0</ele><time>2026-04-01T16:23:51Z</time></trkpt><trkpt lat="46.035709843804796" lon="13.370021624072594"><ele>97.0</ele><time>2026-04-01T16:23:52Z</time></trkpt><trkpt lat="46.03578805031035" lon="13.369707608481109"><ele>97.0</ele><time>2026-04-01T16:23:53Z</time></trkpt><trkpt lat="46.03588435908723" lon="13.369344650383328"><ele>97.0</ele><time>2026-04-01T16:23:54Z</time></trkpt><trkpt lat="46.03599625997446" lon="13.36896181115501"><ele>97.0</ele><time>2026-04-01T16:23:55Z</time></trkpt><trkpt lat="46.03612080910955" lon="13.36860030439708"><ele>97.0</ele><time>2026-04-01T16:23:56Z</time></trkpt><trkpt lat="46.03626578034209" lon="13.36826088454261"><ele>97.0</ele><time>2026-04-01T16:23:57Z</time></trkpt><trkpt lat="46.036430616801965" lon="13.367941216930333"><ele>97.0</ele><time>2026-04-01T16:23:58Z</time></trkpt><trkpt lat="46.03661671021971" lon="13.36763595507096"><ele>97.0</ele><time>2026-04-01T16:23:59Z</time></trkpt><trkpt lat="46.03682482049818" lon="13.367328049569489"><ele>97.0</ele><time>2026-04-01T16:24:00Z</time></trkpt><trkpt lat="46.03705586580787" lon="13.367006387873227"><ele>97.5</ele><time>2026-04-01T16:24:01Z</time></trkpt><trkpt lat="46.03728627565633" lon="13.36668726637913"><ele>98.0</ele><time>2026-04-01T16:24:02Z</time></trkpt><trkpt lat="46.037500361011375" lon="13.36637209892112"><ele>98.5</ele><time>2026-04-01T16:24:03Z</time></trkpt><trkpt lat="46.03769666685248" lon="13.366049912001843"><ele>99.0</ele><time>2026-04-01T16:24:04Z</time></trkpt><trkpt lat="46.03787064324073" lon="13.365712899662073"><ele>98.5</ele><time>2026-04-01T16:24:05Z</time></trkpt><trkpt lat="46.038024791706206" lon="13.365365726746273"><ele>98.0</ele><time>2026-04-01T16:24:05.999Z</time></trkpt><trkpt lat="46.03815342865082" lon="13.365007377519763"><ele>97.0</ele><time>2026-04-01T16:24:06.999Z</time></trkpt><trkpt lat="46.03825809967232" lon="13.364646890982206"><ele>96.0</ele><time>2026-04-01T16:24:07.999Z</time></trkpt><trkpt lat="46.03834316147466" lon="13.364284613616192"><ele>96.0</ele><time>2026-04-01T16:24:08.999Z</time></trkpt><trkpt lat="46.038410511705614" lon="13.363920725288697"><ele>96.0</ele><time>2026-04-01T16:24:09.999Z</time></trkpt><trkpt lat="46.03845696361456" lon="13.363554350775095"><ele>96.0</ele><time>2026-04-01T16:24:10.999Z</time></trkpt><trkpt lat="46.03848081387853" lon="13.363180950059894"><ele>96.0</ele><time>2026-04-01T16:24:11.999Z</time></trkpt><trkpt lat="46.03847836059355" lon="13.362778902152861"><ele>95.5</ele><time>2026-04-01T16:24:12.999Z</time></trkpt><trkpt lat="46.03845618434795" lon="13.362318689668353"><ele>95.0</ele><time>2026-04-01T16:24:13.999Z</time></trkpt><trkpt lat="46.03842387787119" lon="13.361784933080326"><ele>95.0</ele><time>2026-04-01T16:24:14.999Z</time></trkpt><trkpt lat="46.03839329474787" lon="13.361209269373266"><ele>95.0</ele><time>2026-04-01T16:24:15.999Z</time></trkpt><trkpt lat="46.03837330153151" lon="13.36063292514519"><ele>95.0</ele><time>2026-04-01T16:24:16.999Z</time></trkpt><trkpt lat="46.03835326769126" lon="13.360051882113245"><ele>95.0</ele><time>2026-04-01T16:24:17.999Z</time></trkpt><trkpt lat="46.0383223176827" lon="13.35946727825835"><ele>94.5</ele><time>2026-04-01T16:24:18.999Z</time></trkpt><trkpt lat="46.038288014112375" lon="13.358871214951447"><ele>94.0</ele><time>2026-04-01T16:24:19.999Z</time></trkpt><trkpt lat="46.038252827310856" lon="13.358259608626993"><ele>93.5</ele><time>2026-04-01T16:24:20.999Z</time></trkpt><trkpt lat="46.03821900234622" lon="13.357623620314135"><ele>93.0</ele><time>2026-04-01T16:24:21.999Z</time></trkpt><trkpt lat="46.038183842320166" lon="13.356963636008865"><ele>91.0</ele><time>2026-04-01T16:24:22.999Z</time></trkpt><trkpt lat="46.03814297138496" lon="13.356279948963886"><ele>91.0</ele><time>2026-04-01T16:24:23.999Z</time></trkpt><trkpt lat="46.03810329417074" lon="13.355617260879017"><ele>92.0</ele><time>2026-04-01T16:24:24.999Z</time></trkpt><trkpt lat="46.03807170078752" lon="13.355018550597409"><ele>93.0</ele><time>2026-04-01T16:24:25.999Z</time></trkpt><trkpt lat="46.03805388816538" lon="13.354471997404376"><ele>93.5</ele><time>2026-04-01T16:24:26.999Z</time></trkpt><trkpt lat="46.03806278530824" lon="13.353956156112645"><ele>94.0</ele><time>2026-04-01T16:24:27.999Z</time></trkpt><trkpt lat="46.03810175700111" lon="13.353447558718434"><ele>93.0</ele><time>2026-04-01T16:24:28.999Z</time></trkpt><trkpt lat="46.03816634862186" lon="13.35294730832796"><ele>92.0</ele><time>2026-04-01T16:24:29.999Z</time></trkpt><trkpt lat="46.03824705128922" lon="13.352465396210558"><ele>92.0</ele><time>2026-04-01T16:24:30.999Z</time></trkpt><trkpt lat="46.03834701209015" lon="13.352003173916263"><ele>92.0</ele><time>2026-04-01T16:24:31.999Z</time></trkpt><trkpt lat="46.038467606383705" lon="13.351541413559527"><ele>92.0</ele><time>2026-04-01T16:24:32.999Z</time></trkpt><trkpt lat="46.038604803212856" lon="13.351079321798291"><ele>92.0</ele><time>2026-04-01T16:24:33.999Z</time></trkpt><trkpt lat="46.03874594977866" lon="13.350609091210238"><ele>92.0</ele><time>2026-04-01T16:24:34.999Z</time></trkpt><trkpt lat="46.03888700757054" lon="13.350136540199491"><ele>92.0</ele><time>2026-04-01T16:24:36Z</time></trkpt><trkpt lat="46.03901072282084" lon="13.349704871161777"><ele>92.0</ele><time>2026-04-01T16:24:37Z</time></trkpt><trkpt lat="46.03911623911815" lon="13.349295273877328"><ele>92.0</ele><time>2026-04-01T16:24:38Z</time></trkpt><trkpt lat="46.03920211298913" lon="13.348878136386377"><ele>92.0</ele><time>2026-04-01T16:24:39Z</time></trkpt><trkpt lat="46.03926823079553" lon="13.348466335550933"><ele>92.0</ele><time>2026-04-01T16:24:40Z</time></trkpt><trkpt lat="46.03931454779242" lon="13.348065257388987"><ele>92.0</ele><time>2026-04-01T16:24:41Z</time></trkpt><trkpt lat="46.03935075301538" lon="13.347645941616387"><ele>92.0</ele><time>2026-04-01T16:24:42Z</time></trkpt><trkpt lat="46.0393737394168" lon="13.347203724966066"><ele>92.0</ele><time>2026-04-01T16:24:43Z</time></trkpt><trkpt lat="46.039381882758846" lon="13.346738110256197"><ele>92.0</ele><time>2026-04-01T16:24:44Z</time></trkpt><trkpt lat="46.039387578057934" lon="13.346247310395158"><ele>92.0</ele><time>2026-04-01T16:24:45Z</time></trkpt><trkpt lat="46.039380653886376" lon="13.345745044323033"><ele>92.0</ele><time>2026-04-01T16:24:46Z</time></trkpt><trkpt lat="46.03937473731912" lon="13.345245641781073"><ele>91.5</ele><time>2026-04-01T16:24:47Z</time></trkpt><trkpt lat="46.03937617460927" lon="13.344757846932183"><ele>91.0</ele><time>2026-04-01T16:24:48Z</time></trkpt><trkpt lat="46.039378221177195" lon="13.344284130021476"><ele>90.5</ele><time>2026-04-01T16:24:49Z</time></trkpt><trkpt lat="46.03940392489796" lon="13.343817921156532"><ele>90.0</ele><time>2026-04-01T16:24:50Z</time></trkpt><trkpt lat="46.03945202461101" lon="13.343337603497634"><ele>89.5</ele><time>2026-04-01T16:24:51Z</time></trkpt><trkpt lat="46.03953096411473" lon="13.342850767120774"><ele>89.0</ele><time>2026-04-01T16:24:52Z</time></trkpt><trkpt lat="46.039619447418325" lon="13.34235997172484"><ele>88.5</ele><time>2026-04-01T16:24:53Z</time></trkpt><trkpt lat="46.039726480054604" lon="13.341871334001896"><ele>88.0</ele><time>2026-04-01T16:24:54Z</time></trkpt><trkpt lat="46.03984380964094" lon="13.34136255185673"><ele>89.0</ele><time>2026-04-01T16:24:55Z</time></trkpt><trkpt lat="46.03996610352507" lon="13.340799525994985"><ele>90.0</ele><time>2026-04-01T16:24:56Z</time></trkpt><trkpt lat="46.04009864301102" lon="13.340180160691329"><ele>88.0</ele><time>2026-04-01T16:24:57Z</time></trkpt><trkpt lat="46.040239649745274" lon="13.33951581662887"><ele>87.0</ele><time>2026-04-01T16:24:58Z</time></trkpt><trkpt lat="46.040388558958185" lon="13.338825729983478"><ele>87.0</ele><time>2026-04-01T16:24:59Z</time></trkpt><trkpt lat="46.04054299741054" lon="13.338108833238397"><ele>88.0</ele><time>2026-04-01T16:25:00Z</time></trkpt><trkpt lat="46.04070007366422" lon="13.33737802879079"><ele>89.0</ele><time>2026-04-01T16:25:01Z</time></trkpt><trkpt lat="46.04084045053004" lon="13.336720988625192"><ele>89.0</ele><time>2026-04-01T16:25:02Z</time></trkpt><trkpt lat="46.04095092288818" lon="13.33620439152117"><ele>89.0</ele><time>2026-04-01T16:25:03Z</time></trkpt><trkpt lat="46.04105013564193" lon="13.3357097148865"><ele>89.0</ele><time>2026-04-01T16:25:04Z</time></trkpt><trkpt lat="46.04114486942537" lon="13.335260573493958"><ele>89.0</ele><time>2026-04-01T16:25:05Z</time></trkpt><trkpt lat="46.04124111563149" lon="13.334837776209984"><ele>89.0</ele><time>2026-04-01T16:25:06Z</time></trkpt><trkpt lat="46.04132429113091" lon="13.334466234531286"><ele>89.0</ele><time>2026-04-01T16:25:07Z</time></trkpt><trkpt lat="46.04138913697929" lon="13.334150719828644"><ele>88.33333333333334</ele><time>2026-04-01T16:25:08Z</time></trkpt><trkpt lat="46.041449575898426" lon="13.33386038194628"><ele>87.66666666666667</ele><time>2026-04-01T16:25:09Z</time></trkpt><trkpt lat="46.04150261587204" lon="13.333603083996463"><ele>87.0</ele><time>2026-04-01T16:25:10Z</time></trkpt><trkpt lat="46.041550710263294" lon="13.333374941241978"><ele>87.0</ele><time>2026-04-01T16:25:11Z</time></trkpt><trkpt lat="46.04159365401747" lon="13.333183200650415"><ele>87.0</ele><time>2026-04-01T16:25:12Z</time></trkpt><trkpt lat="46.04163538836423" lon="13.333012345995177"><ele>87.0</ele><time>2026-04-01T16:25:13Z</time></trkpt><trkpt lat="46.041683096433964" lon="13.33286621820635"><ele>87.0</ele><time>2026-04-01T16:25:14Z</time></trkpt><trkpt lat="46.04175165009843" lon="13.332757522842716"><ele>86.83333333333333</ele><time>2026-04-01T16:25:15Z</time></trkpt><trkpt lat="46.04183655616298" lon="13.332654089977371"><ele>86.66666666666667</ele><time>2026-04-01T16:25:16Z</time></trkpt><trkpt lat="46.04189225753705" lon="13.332558713636699"><ele>86.5</ele><time>2026-04-01T16:25:17Z</time></trkpt><trkpt lat="46.04191520822786" lon="13.332442898066716"><ele>86.33333333333334</ele><time>2026-04-01T16:25:18Z</time></trkpt><trkpt lat="46.041900869252856" lon="13.332331901705237"><ele>86.16666666666667</ele><time>2026-04-01T16:25:19Z</time></trkpt><trkpt lat="46.04185151063488" lon="13.332237570790076"><ele>86.0</ele><time>2026-04-01T16:25:20Z</time></trkpt><trkpt lat="46.04177842789975" lon="13.332189182431048"><ele>86.19999999999999</ele><time>2026-04-01T16:25:21Z</time></trkpt><trkpt lat="46.04169069803783" lon="13.332194224564077"><ele>86.39999999999999</ele><time>2026-04-01T16:25:22Z</time></trkpt><trkpt lat="46.04159745525228" lon="13.332249817434882"><ele>86.6</ele><time>2026-04-01T16:25:23Z</time></trkpt><trkpt lat="46.041495273583465" lon="13.332294983557576"><ele>86.8</ele><time>2026-04-01T16:25:24Z</time></trkpt><trkpt lat="46.04135363191553" lon="13.332317473076133"><ele>87.0</ele><time>2026-04-01T16:25:25Z</time></trkpt><trkpt lat="46.041178360139426" lon="13.332302895479748"><ele>87.0</ele><time>2026-04-01T16:25:26Z</time></trkpt><trkpt lat="46.04097776825596" lon="13.332272210767913"><ele>87.0</ele><time>2026-04-01T16:25:27Z</time></trkpt><trkpt lat="46.040737674535755" lon="13.332233587639116"><ele>87.0</ele><time>2026-04-01T16:25:28Z</time></trkpt><trkpt lat="46.040461285562166" lon="13.332179234300316"><ele>87.0</ele><time>2026-04-01T16:25:29Z</time></trkpt><trkpt lat="46.040174925380946" lon="13.332114843147693"><ele>87.0</ele><time>2026-04-01T16:25:30Z</time></trkpt><trkpt lat="46.03991808361999" lon="13.332039602127983"><ele>87.0</ele><time>2026-04-01T16:25:31Z</time></trkpt><trkpt lat="46.03966911630526" lon="13.331944415434393"><ele>87.0</ele><time>2026-04-01T16:25:32Z</time></trkpt><trkpt lat="46.039417330274375" lon="13.331820760731988"><ele>87.0</ele><time>2026-04-01T16:25:33Z</time></trkpt><trkpt lat="46.039158516430184" lon="13.331671962610079"><ele>87.0</ele><time>2026-04-01T16:25:34Z</time></trkpt><trkpt lat="46.03889180827879" lon="13.331504996442906"><ele>86.5</ele><time>2026-04-01T16:25:35Z</time></trkpt><trkpt lat="46.03862826800174" lon="13.33132852160188"><ele>86.0</ele><time>2026-04-01T16:25:36Z</time></trkpt><trkpt lat="46.038380903935064" lon="13.331159036853226"><ele>86.0</ele><time>2026-04-01T16:25:37Z</time></trkpt><trkpt lat="46.03814027038402" lon="13.330990456995998"><ele>86.0</ele><time>2026-04-01T16:25:38Z</time></trkpt><trkpt lat="46.037896361606656" lon="13.330824849575475"><ele>86.0</ele><time>2026-04-01T16:25:39Z</time></trkpt><trkpt lat="46.037638921728046" lon="13.3306699545466"><ele>86.0</ele><time>2026-04-01T16:25:40Z</time></trkpt><trkpt lat="46.03738054655639" lon="13.330531169596552"><ele>86.5</ele><time>2026-04-01T16:25:41Z</time></trkpt><trkpt lat="46.03712545886564" lon="13.33041506956582"><ele>87.0</ele><time>2026-04-01T16:25:42Z</time></trkpt><trkpt lat="46.03686520118283" lon="13.330323332630753"><ele>86.5</ele><time>2026-04-01T16:25:43Z</time></trkpt><trkpt lat="46.036590974593445" lon="13.330248616698887"><ele>86.0</ele><time>2026-04-01T16:25:44Z</time></trkpt><trkpt lat="46.036298423288706" lon="13.330187974815292"><ele>86.0</ele><time>2026-04-01T16:25:45Z</time></trkpt><trkpt lat="46.03600585308643" lon="13.33012531649228"><ele>86.0</ele><time>2026-04-01T16:25:46Z</time></trkpt><trkpt lat="46.03572932724854" lon="13.330055460127681"><ele>86.0</ele><time>2026-04-01T16:25:47Z</time></trkpt><trkpt lat="46.03545604040463" lon="13.329987983886387"><ele>86.0</ele><time>2026-04-01T16:25:48Z</time></trkpt><trkpt lat="46.03518246605134" lon="13.329922809318274"><ele>86.0</ele><time>2026-04-01T16:25:49Z</time></trkpt><trkpt lat="46.034905819329786" lon="13.329855577809465"><ele>86.0</ele><time>2026-04-01T16:25:50Z</time></trkpt><trkpt lat="46.03462640792593" lon="13.32979003473105"><ele>85.5</ele><time>2026-04-01T16:25:51Z</time></trkpt><trkpt lat="46.03434867148163" lon="13.329722168543917"><ele>85.0</ele><time>2026-04-01T16:25:52Z</time></trkpt><trkpt lat="46.034068267950516" lon="13.329653934272029"><ele>85.0</ele><time>2026-04-01T16:25:53Z</time></trkpt><trkpt lat="46.033782786701764" lon="13.329585809694368"><ele>85.0</ele><time>2026-04-01T16:25:54Z</time></trkpt><trkpt lat="46.03350221067813" lon="13.329516374429767"><ele>84.5</ele><time>2026-04-01T16:25:55Z</time></trkpt><trkpt lat="46.03322627892318" lon="13.329449938887441"><ele>84.0</ele><time>2026-04-01T16:25:56Z</time></trkpt><trkpt lat="46.03295120344787" lon="13.32938488005152"><ele>84.0</ele><time>2026-04-01T16:25:57Z</time></trkpt><trkpt lat="46.03266947778661" lon="13.329321605146015"><ele>84.0</ele><time>2026-04-01T16:25:58Z</time></trkpt><trkpt lat="46.03238167952735" lon="13.329252748186766"><ele>83.5</ele><time>2026-04-01T16:25:59Z</time></trkpt><trkpt lat="46.032104897462034" lon="13.32918992909948"><ele>83.0</ele><time>2026-04-01T16:26:00Z</time></trkpt><trkpt lat="46.03183429864378" lon="13.329127929715657"><ele>83.5</ele><time>2026-04-01T16:26:01Z</time></trkpt><trkpt lat="46.03157206666016" lon="13.329066884349983"><ele>84.0</ele><time>2026-04-01T16:26:02Z</time></trkpt><trkpt lat="46.03133330159674" lon="13.329010042803048"><ele>84.0</ele><time>2026-04-01T16:26:03Z</time></trkpt><trkpt lat="46.031091737888815" lon="13.328951528925312"><ele>84.0</ele><time>2026-04-01T16:26:04Z</time></trkpt><trkpt lat="46.030859204524894" lon="13.328897177743828"><ele>84.0</ele><time>2026-04-01T16:26:05Z</time></trkpt><trkpt lat="46.03064377314423" lon="13.328846402926828"><ele>84.0</ele><time>2026-04-01T16:26:06Z</time></trkpt><trkpt lat="46.030425623231714" lon="13.328794293118438"><ele>84.0</ele><time>2026-04-01T16:26:07Z</time></trkpt><trkpt lat="46.030198676501996" lon="13.328737981659241"><ele>84.0</ele><time>2026-04-01T16:26:07.999Z</time></trkpt><trkpt lat="46.029984608004625" lon="13.328687772082725"><ele>84.0</ele><time>2026-04-01T16:26:08.999Z</time></trkpt><trkpt lat="46.02979189830392" lon="13.328642222983445"><ele>84.0</ele><time>2026-04-01T16:26:09.999Z</time></trkpt><trkpt lat="46.029594253618804" lon="13.32859341150544"><ele>83.66666666666667</ele><time>2026-04-01T16:26:10.999Z</time></trkpt><trkpt lat="46.02940629799451" lon="13.328551116132177"><ele>83.33333333333334</ele><time>2026-04-01T16:26:11.999Z</time></trkpt><trkpt lat="46.02922867363219" lon="13.328511498252977"><ele>83.0</ele><time>2026-04-01T16:26:12.999Z</time></trkpt><trkpt lat="46.029068743712074" lon="13.328472321953027"><ele>83.0</ele><time>2026-04-01T16:26:13.999Z</time></trkpt><trkpt lat="46.028901123202594" lon="13.328432208855919"><ele>83.0</ele><time>2026-04-01T16:26:14.999Z</time></trkpt><trkpt lat="46.02875255696454" lon="13.328399541002254"><ele>83.0</ele><time>2026-04-01T16:26:15.999Z</time></trkpt><trkpt lat="46.02862173303135" lon="13.328363423524307"><ele>83.0</ele><time>2026-04-01T16:26:16.999Z</time></trkpt><trkpt lat="46.02850284103801" lon="13.328321574968056"><ele>83.0</ele><time>2026-04-01T16:26:17.999Z</time></trkpt><trkpt lat="46.028404104730015" lon="13.328272171764286"><ele>83.0</ele><time>2026-04-01T16:26:18.999Z</time></trkpt><trkpt lat="46.02832110146166" lon="13.328193374838962"><ele>83.0</ele><time>2026-04-01T16:26:19.999Z</time></trkpt><trkpt lat="46.02825054126613" lon="13.328086445935682"><ele>83.0</ele><time>2026-04-01T16:26:20.999Z</time></trkpt><trkpt lat="46.02819104193263" lon="13.327978721151949"><ele>83.0</ele><time>2026-04-01T16:26:21.999Z</time></trkpt><trkpt lat="46.02810669980663" lon="13.327886581958987"><ele>83.0</ele><time>2026-04-01T16:26:22.999Z</time></trkpt><trkpt lat="46.028007012637936" lon="13.327891969573482"><ele>83.0</ele><time>2026-04-01T16:26:23.999Z</time></trkpt><trkpt lat="46.0279115378641" lon="13.327936559842541"><ele>83.0</ele><time>2026-04-01T16:26:24.999Z</time></trkpt><trkpt lat="46.02784165871468" lon="13.327960567101517"><ele>83.0</ele><time>2026-04-01T16:26:25.999Z</time></trkpt><trkpt lat="46.02768710565923" lon="13.32750981893024"><ele>83.0</ele><time>2026-04-01T16:26:26.999Z</time></trkpt><trkpt lat="46.0276056703135" lon="13.327326496847862"><ele>83.0</ele><time>2026-04-01T16:26:27.999Z</time></trkpt><trkpt lat="46.02750825304993" lon="13.327121425127311"><ele>83.0</ele><time>2026-04-01T16:26:28.999Z</time></trkpt><trkpt lat="46.027402152983846" lon="13.326883995933407"><ele>83.0</ele><time>2026-04-01T16:26:29.999Z</time></trkpt><trkpt lat="46.027254243685526" lon="13.326565039728228"><ele>83.0</ele><time>2026-04-01T16:26:30.999Z</time></trkpt><trkpt lat="46.02707929830887" lon="13.326180438134081"><ele>83.5</ele><time>2026-04-01T16:26:31.999Z</time></trkpt><trkpt lat="46.0268958255311" lon="13.325769921768519"><ele>84.0</ele><time>2026-04-01T16:26:32.999Z</time></trkpt><trkpt lat="46.02674453758007" lon="13.325410036981214"><ele>84.0</ele><time>2026-04-01T16:26:33.999Z</time></trkpt><trkpt lat="46.026619933343646" lon="13.325067077911562"><ele>84.0</ele><time>2026-04-01T16:26:34.999Z</time></trkpt><trkpt lat="46.02652717356821" lon="13.32470942126597"><ele>83.5</ele><time>2026-04-01T16:26:35.999Z</time></trkpt><trkpt lat="46.02647027315851" lon="13.324333030026377"><ele>83.0</ele><time>2026-04-01T16:26:36.999Z</time></trkpt><trkpt lat="46.02642924806598" lon="13.323947963331984"><ele>82.5</ele><time>2026-04-01T16:26:37.999Z</time></trkpt><trkpt lat="46.026395320866634" lon="13.323559162034208"><ele>82.0</ele><time>2026-04-01T16:26:38.999Z</time></trkpt><trkpt lat="46.02635751064057" lon="13.323169612404733"><ele>82.0</ele><time>2026-04-01T16:26:39.999Z</time></trkpt><trkpt lat="46.02629830671471" lon="13.322788606645076"><ele>82.0</ele><time>2026-04-01T16:26:41Z</time></trkpt><trkpt lat="46.02621336801433" lon="13.32241848050564"><ele>82.5</ele><time>2026-04-01T16:26:42Z</time></trkpt><trkpt lat="46.02611455111018" lon="13.322057367633256"><ele>83.0</ele><time>2026-04-01T16:26:43Z</time></trkpt><trkpt lat="46.0259947210174" lon="13.321706941230227"><ele>82.5</ele><time>2026-04-01T16:26:44Z</time></trkpt><trkpt lat="46.02585660176346" lon="13.321367481231167"><ele>82.0</ele><time>2026-04-01T16:26:45Z</time></trkpt><trkpt lat="46.02570484176485" lon="13.321038854338026"><ele>82.5</ele><time>2026-04-01T16:26:46Z</time></trkpt><trkpt lat="46.025555861926435" lon="13.32070718423448"><ele>83.0</ele><time>2026-04-01T16:26:47Z</time></trkpt><trkpt lat="46.02540945979701" lon="13.32037233454624"><ele>83.0</ele><time>2026-04-01T16:26:48Z</time></trkpt><trkpt lat="46.02526067220401" lon="13.320041111262414"><ele>83.0</ele><time>2026-04-01T16:26:49Z</time></trkpt><trkpt lat="46.02511225353675" lon="13.319713348018858"><ele>83.5</ele><time>2026-04-01T16:26:50Z</time></trkpt><trkpt lat="46.024961310404954" lon="13.319379978718413"><ele>84.0</ele><time>2026-04-01T16:26:51Z</time></trkpt><trkpt lat="46.02481048542256" lon="13.31904340139709"><ele>85.0</ele><time>2026-04-01T16:26:52Z</time></trkpt><trkpt lat="46.024659190640556" lon="13.3187095067365"><ele>86.0</ele><time>2026-04-01T16:26:53Z</time></trkpt><trkpt lat="46.024514156753106" lon="13.318409682019665"><ele>86.0</ele><time>2026-04-01T16:26:54Z</time></trkpt><trkpt lat="46.02436877993696" lon="13.318129363710362"><ele>86.0</ele><time>2026-04-01T16:26:55Z</time></trkpt><trkpt lat="46.024216410824735" lon="13.317863867787105"><ele>84.0</ele><time>2026-04-01T16:26:56Z</time></trkpt><trkpt lat="46.02406131826935" lon="13.317626643692856"><ele>82.0</ele><time>2026-04-01T16:26:57Z</time></trkpt><trkpt lat="46.02390961462846" lon="13.317407012083338"><ele>80.0</ele><time>2026-04-01T16:26:58Z</time></trkpt><trkpt lat="46.02375921698674" lon="13.317204811520156"><ele>79.33333333333334</ele><time>2026-04-01T16:26:59Z</time></trkpt><trkpt lat="46.0236090328413" lon="13.317017595551555"><ele>78.66666666666667</ele><time>2026-04-01T16:27:00Z</time></trkpt><trkpt lat="46.02346083927709" lon="13.316842043718854"><ele>78.0</ele><time>2026-04-01T16:27:01Z</time></trkpt><trkpt lat="46.02330273774188" lon="13.316670030351283"><ele>78.0</ele><time>2026-04-01T16:27:02Z</time></trkpt><trkpt lat="46.023140726892336" lon="13.316513945208127"><ele>78.0</ele><time>2026-04-01T16:27:03Z</time></trkpt><trkpt lat="46.02299271453666" lon="13.316372618148295"><ele>78.0</ele><time>2026-04-01T16:27:04Z</time></trkpt><trkpt lat="46.02284459829327" lon="13.316244947785279"><ele>78.0</ele><time>2026-04-01T16:27:05Z</time></trkpt><trkpt lat="46.02269238444931" lon="13.316121938969415"><ele>78.0</ele><time>2026-04-01T16:27:06Z</time></trkpt><trkpt lat="46.02253099827669" lon="13.316000429688202"><ele>78.0</ele><time>2026-04-01T16:27:07Z</time></trkpt><trkpt lat="46.02235934716425" lon="13.315881487912385"><ele>78.0</ele><time>2026-04-01T16:27:08Z</time></trkpt><trkpt lat="46.02218941680562" lon="13.315764183800995"><ele>78.0</ele><time>2026-04-01T16:27:09Z</time></trkpt><trkpt lat="46.02201073364538" lon="13.315661909127583"><ele>78.0</ele><time>2026-04-01T16:27:10Z</time></trkpt><trkpt lat="46.021819657448695" lon="13.315569813430061"><ele>77.0</ele><time>2026-04-01T16:27:11Z</time></trkpt><trkpt lat="46.02161221256154" lon="13.315480061380308"><ele>76.0</ele><time>2026-04-01T16:27:12Z</time></trkpt><trkpt lat="46.02139130969748" lon="13.315396644563865"><ele>75.0</ele><time>2026-04-01T16:27:13Z</time></trkpt><trkpt lat="46.02116042796366" lon="13.315324492275868"><ele>75.0</ele><time>2026-04-01T16:27:14Z</time></trkpt><trkpt lat="46.02092081590257" lon="13.315264605372633"><ele>75.0</ele><time>2026-04-01T16:27:15Z</time></trkpt><trkpt lat="46.02067410585016" lon="13.315221790130241"><ele>77.0</ele><time>2026-04-01T16:27:16Z</time></trkpt><trkpt lat="46.02042197963399" lon="13.315194954230488"><ele>79.0</ele><time>2026-04-01T16:27:17Z</time></trkpt><trkpt lat="46.02016589420507" lon="13.315178718222562"><ele>78.0</ele><time>2026-04-01T16:27:18Z</time></trkpt><trkpt lat="46.01990877334355" lon="13.315178345489736"><ele>77.0</ele><time>2026-04-01T16:27:19Z</time></trkpt><trkpt lat="46.019645070692725" lon="13.315191746475797"><ele>77.0</ele><time>2026-04-01T16:27:20Z</time></trkpt><trkpt lat="46.01937610825128" lon="13.315211188306604"><ele>77.0</ele><time>2026-04-01T16:27:21Z</time></trkpt><trkpt lat="46.019102040170054" lon="13.315225526365369"><ele>76.0</ele><time>2026-04-01T16:27:22Z</time></trkpt><trkpt lat="46.01882434649956" lon="13.315236986168271"><ele>75.0</ele><time>2026-04-01T16:27:23Z</time></trkpt><trkpt lat="46.018548012772584" lon="13.315250506303666"><ele>75.0</ele><time>2026-04-01T16:27:24Z</time></trkpt><trkpt lat="46.018272996919116" lon="13.315265145845776"><ele>75.0</ele><time>2026-04-01T16:27:25Z</time></trkpt><trkpt lat="46.01799724441288" lon="13.315277002810408"><ele>75.0</ele><time>2026-04-01T16:27:26Z</time></trkpt><trkpt lat="46.0177176286588" lon="13.315287495617484"><ele>75.0</ele><time>2026-04-01T16:27:27Z</time></trkpt><trkpt lat="46.017440569394566" lon="13.31530102965741"><ele>75.0</ele><time>2026-04-01T16:27:28Z</time></trkpt><trkpt lat="46.01716928799265" lon="13.315315003358448"><ele>75.0</ele><time>2026-04-01T16:27:29Z</time></trkpt><trkpt lat="46.01691366363922" lon="13.315328894039157"><ele>75.0</ele><time>2026-04-01T16:27:30Z</time></trkpt><trkpt lat="46.01667461287248" lon="13.315341673900157"><ele>75.0</ele><time>2026-04-01T16:27:31Z</time></trkpt><trkpt lat="46.01643622525031" lon="13.315357965787111"><ele>75.66666666666667</ele><time>2026-04-01T16:27:32Z</time></trkpt><trkpt lat="46.01621413361194" lon="13.315390037872252"><ele>76.33333333333334</ele><time>2026-04-01T16:27:33Z</time></trkpt><trkpt lat="46.01601185736408" lon="13.315429348623248"><ele>77.0</ele><time>2026-04-01T16:27:34Z</time></trkpt><trkpt lat="46.01583253051688" lon="13.315457921709882"><ele>76.5</ele><time>2026-04-01T16:27:35Z</time></trkpt><trkpt lat="46.015693325322864" lon="13.315472667137595"><ele>76.0</ele><time>2026-04-01T16:27:36Z</time></trkpt><trkpt lat="46.01557319253524" lon="13.315458313738954"><ele>75.5</ele><time>2026-04-01T16:27:37Z</time></trkpt><trkpt lat="46.015476633288" lon="13.31538251914716"><ele>75.0</ele><time>2026-04-01T16:27:38Z</time></trkpt><trkpt lat="46.01540833660184" lon="13.31525068642681"><ele>75.0</ele><time>2026-04-01T16:27:39Z</time></trkpt><trkpt lat="46.01537799094375" lon="13.31508954068508"><ele>75.0</ele><time>2026-04-01T16:27:40Z</time></trkpt><trkpt lat="46.015379734186546" lon="13.314929640516315"><ele>75.0</ele><time>2026-04-01T16:27:41Z</time></trkpt><trkpt lat="46.0154187481088" lon="13.314793439034068"><ele>75.0</ele><time>2026-04-01T16:27:42Z</time></trkpt><trkpt lat="46.01549401688614" lon="13.314677748205977"><ele>75.0</ele><time>2026-04-01T16:27:43Z</time></trkpt><trkpt lat="46.01559369962799" lon="13.314611713277047"><ele>75.2</ele><time>2026-04-01T16:27:44Z</time></trkpt><trkpt lat="46.01569698446538" lon="13.314607512920576"><ele>75.4</ele><time>2026-04-01T16:27:45Z</time></trkpt><trkpt lat="46.01579725125678" lon="13.314646534791926"><ele>75.6</ele><time>2026-04-01T16:27:46Z</time></trkpt><trkpt lat="46.01587625169479" lon="13.314726121710152"><ele>75.8</ele><time>2026-04-01T16:27:47Z</time></trkpt><trkpt lat="46.01592525951619" lon="13.314825126346728"><ele>76.0</ele><time>2026-04-01T16:27:48Z</time></trkpt><trkpt lat="46.01595842501726" lon="13.314952688370921"><ele>76.33333333333333</ele><time>2026-04-01T16:27:49Z</time></trkpt><trkpt lat="46.0159644213801" lon="13.315136495976956"><ele>76.66666666666667</ele><time>2026-04-01T16:27:50Z</time></trkpt><trkpt lat="46.0159849860287" lon="13.315364681912946"><ele>77.0</ele><time>2026-04-01T16:27:51Z</time></trkpt><trkpt lat="46.01590954300455" lon="13.31562826191744"><ele>76.33333333333334</ele><time>2026-04-01T16:27:52Z</time></trkpt><trkpt lat="46.01588873495346" lon="13.315869084322001"><ele>75.66666666666667</ele><time>2026-04-01T16:27:53Z</time></trkpt><trkpt lat="46.01585783217847" lon="13.316108481067788"><ele>75.0</ele><time>2026-04-01T16:27:54Z</time></trkpt><trkpt lat="46.015824154352906" lon="13.316319725488873"><ele>74.25</ele><time>2026-04-01T16:27:55Z</time></trkpt><trkpt lat="46.015791807870166" lon="13.31652366277324"><ele>73.5</ele><time>2026-04-01T16:27:56Z</time></trkpt><trkpt lat="46.01575421155695" lon="13.316733415286626"><ele>72.75</ele><time>2026-04-01T16:27:57Z</time></trkpt><trkpt lat="46.015705795151035" lon="13.316939645136614"><ele>72.0</ele><time>2026-04-01T16:27:58Z</time></trkpt><trkpt lat="46.015654538130676" lon="13.317148114482732"><ele>72.33333333333333</ele><time>2026-04-01T16:27:59Z</time></trkpt><trkpt lat="46.01560124039419" lon="13.317355106883786"><ele>72.66666666666666</ele><time>2026-04-01T16:28:00Z</time></trkpt><trkpt lat="46.01554245543057" lon="13.317554778264297"><ele>73.0</ele><time>2026-04-01T16:28:01Z</time></trkpt><trkpt lat="46.01548034940273" lon="13.317747254568772"><ele>73.0</ele><time>2026-04-01T16:28:02Z</time></trkpt><trkpt lat="46.015415541180936" lon="13.317932330212711"><ele>73.0</ele><time>2026-04-01T16:28:03Z</time></trkpt><trkpt lat="46.01534593897176" lon="13.318117602919747"><ele>73.0</ele><time>2026-04-01T16:28:04Z</time></trkpt><trkpt lat="46.01526961764462" lon="13.31830183693063"><ele>73.0</ele><time>2026-04-01T16:28:05Z</time></trkpt><trkpt lat="46.0151907807943" lon="13.318472640568002"><ele>73.2</ele><time>2026-04-01T16:28:06Z</time></trkpt><trkpt lat="46.01512313519698" lon="13.318613134157456"><ele>73.4</ele><time>2026-04-01T16:28:07Z</time></trkpt><trkpt lat="46.015062967134654" lon="13.318732682958544"><ele>73.60000000000001</ele><time>2026-04-01T16:28:08Z</time></trkpt><trkpt lat="46.0150037660829" lon="13.318839125717295"><ele>73.8</ele><time>2026-04-01T16:28:09Z</time></trkpt><trkpt lat="46.01493990368856" lon="13.318956938704407"><ele>74.0</ele><time>2026-04-01T16:28:10Z</time></trkpt><trkpt lat="46.014885562161226" lon="13.319060082273277"><ele>73.2</ele><time>2026-04-01T16:28:11Z</time></trkpt><trkpt lat="46.01483107097681" lon="13.319161788171328"><ele>72.4</ele><time>2026-04-01T16:28:12Z</time></trkpt><trkpt lat="46.01478112640435" lon="13.31925743358928"><ele>71.6</ele><time>2026-04-01T16:28:12.999Z</time></trkpt><trkpt lat="46.014738549893515" lon="13.319336521793021"><ele>70.8</ele><time>2026-04-01T16:28:13.999Z</time></trkpt><trkpt lat="46.01466504650177" lon="13.319472382724575"><ele>70.0</ele><time>2026-04-01T16:28:15.999Z</time></trkpt><trkpt lat="46.01459696954946" lon="13.319602298157761"><ele>70.0</ele><time>2026-04-01T16:28:17.999Z</time></trkpt><trkpt lat="46.01453286295454" lon="13.319719934859194"><ele>70.0</ele><time>2026-04-01T16:28:19.999Z</time></trkpt><trkpt lat="46.01448433126811" lon="13.319793175667002"><ele>70.0</ele><time>2026-04-01T16:28:20.999Z</time></trkpt><trkpt lat="46.01442361421436" lon="13.31987086979907"><ele>70.0</ele><time>2026-04-01T16:28:21.999Z</time></trkpt><trkpt lat="46.01436645809334" lon="13.319945112193917"><ele>70.0</ele><time>2026-04-01T16:28:22.999Z</time></trkpt><trkpt lat="46.014315880252134" lon="13.320011246925294"><ele>70.0</ele><time>2026-04-01T16:28:23.999Z</time></trkpt><trkpt lat="46.01425977733511" lon="13.320079672070158"><ele>70.2</ele><time>2026-04-01T16:28:24.999Z</time></trkpt><trkpt lat="46.01418754664335" lon="13.320120339958558"><ele>70.4</ele><time>2026-04-01T16:28:25.999Z</time></trkpt><trkpt lat="46.01409925184375" lon="13.320141007630916"><ele>70.6</ele><time>2026-04-01T16:28:26.999Z</time></trkpt><trkpt lat="46.01399380327457" lon="13.320185924339393"><ele>70.8</ele><time>2026-04-01T16:28:27.999Z</time></trkpt><trkpt lat="46.013895166763305" lon="13.320303388868481"><ele>71.0</ele><time>2026-04-01T16:28:28.999Z</time></trkpt><trkpt lat="46.01378545711347" lon="13.320450414008608"><ele>71.33333333333334</ele><time>2026-04-01T16:28:29.999Z</time></trkpt><trkpt lat="46.01365083620396" lon="13.320596095296574"><ele>71.66666666666667</ele><time>2026-04-01T16:28:30.999Z</time></trkpt><trkpt lat="46.01346611622332" lon="13.320731999673601"><ele>72.0</ele><time>2026-04-01T16:28:31.999Z</time></trkpt><trkpt lat="46.01327866273488" lon="13.320935914994054"><ele>72.5</ele><time>2026-04-01T16:28:32.999Z</time></trkpt><trkpt lat="46.013065707097105" lon="13.321163518861711"><ele>73.0</ele><time>2026-04-01T16:28:33.999Z</time></trkpt><trkpt lat="46.012857226253665" lon="13.321378571868788"><ele>73.0</ele><time>2026-04-01T16:28:34.999Z</time></trkpt><trkpt lat="46.012664930029885" lon="13.321583824372201"><ele>73.0</ele><time>2026-04-01T16:28:35.999Z</time></trkpt><trkpt lat="46.012482205737506" lon="13.321769976660166"><ele>73.0</ele><time>2026-04-01T16:28:36.999Z</time></trkpt><trkpt lat="46.012313071472846" lon="13.321943816159775"><ele>73.0</ele><time>2026-04-01T16:28:37.999Z</time></trkpt><trkpt lat="46.012142552371124" lon="13.3221123982413"><ele>73.0</ele><time>2026-04-01T16:28:38.999Z</time></trkpt><trkpt lat="46.01197038289374" lon="13.322264731114169"><ele>72.66666666666666</ele><time>2026-04-01T16:28:39.999Z</time></trkpt><trkpt lat="46.0117959097493" lon="13.322413905249597"><ele>72.33333333333333</ele><time>2026-04-01T16:28:40.999Z</time></trkpt><trkpt lat="46.011625060020336" lon="13.32256858780544"><ele>72.0</ele><time>2026-04-01T16:28:41.999Z</time></trkpt><trkpt lat="46.01145807046959" lon="13.322725397887421"><ele>71.33333333333333</ele><time>2026-04-01T16:28:42.999Z</time></trkpt><trkpt lat="46.01130484473043" lon="13.32287325286576"><ele>70.66666666666666</ele><time>2026-04-01T16:28:43.999Z</time></trkpt><trkpt lat="46.01116493184415" lon="13.323004497274212"><ele>70.0</ele><time>2026-04-01T16:28:44.999Z</time></trkpt><trkpt lat="46.011035160311415" lon="13.323121825409693"><ele>70.0</ele><time>2026-04-01T16:28:45.999Z</time></trkpt><trkpt lat="46.010929047150064" lon="13.3232204357398"><ele>70.0</ele><time>2026-04-01T16:28:47Z</time></trkpt><trkpt lat="46.0108481722538" lon="13.323294842531782"><ele>70.0</ele><time>2026-04-01T16:28:48Z</time></trkpt><trkpt lat="46.01078431095817" lon="13.323349224235862"><ele>70.0</ele><time>2026-04-01T16:28:49Z</time></trkpt><trkpt lat="46.010712423272174" lon="13.323390850808394"><ele>70.0</ele><time>2026-04-01T16:28:50Z</time></trkpt><trkpt lat="46.01061964640869" lon="13.323454360525119"><ele>70.66666666666666</ele><time>2026-04-01T16:28:51Z</time></trkpt><trkpt lat="46.0105086779896" lon="13.323548950414546"><ele>71.33333333333333</ele><time>2026-04-01T16:28:52Z</time></trkpt><trkpt lat="46.010354071970085" lon="13.32359419032604"><ele>72.0</ele><time>2026-04-01T16:28:53Z</time></trkpt><trkpt lat="46.01018199391837" lon="13.323682415719878"><ele>71.0</ele><time>2026-04-01T16:28:54Z</time></trkpt><trkpt lat="46.00996363650598" lon="13.323818416145503"><ele>70.0</ele><time>2026-04-01T16:28:55Z</time></trkpt><trkpt lat="46.00973412707311" lon="13.323915227274153"><ele>69.5</ele><time>2026-04-01T16:28:56Z</time></trkpt><trkpt lat="46.00949920360389" lon="13.324059677803852"><ele>69.0</ele><time>2026-04-01T16:28:57Z</time></trkpt><trkpt lat="46.00924477743525" lon="13.324184842964701"><ele>69.0</ele><time>2026-04-01T16:28:58Z</time></trkpt><trkpt lat="46.008998542666966" lon="13.32431095700076"><ele>69.0</ele><time>2026-04-01T16:28:59Z</time></trkpt><trkpt lat="46.00875839912229" lon="13.324433220627776"><ele>69.0</ele><time>2026-04-01T16:29:00Z</time></trkpt><trkpt lat="46.00852533376639" lon="13.324552255218016"><ele>69.0</ele><time>2026-04-01T16:29:01Z</time></trkpt><trkpt lat="46.0082960145259" lon="13.324664507635022"><ele>70.0</ele><time>2026-04-01T16:29:02Z</time></trkpt><trkpt lat="46.00807321271563" lon="13.324772698827129"><ele>71.0</ele><time>2026-04-01T16:29:03Z</time></trkpt><trkpt lat="46.00785066227185" lon="13.324863829104224"><ele>71.0</ele><time>2026-04-01T16:29:04Z</time></trkpt><trkpt lat="46.00761728648209" lon="13.324938155582066"><ele>71.0</ele><time>2026-04-01T16:29:05Z</time></trkpt><trkpt lat="46.007377162856784" lon="13.325010328101746"><ele>69.0</ele><time>2026-04-01T16:29:06Z</time></trkpt><trkpt lat="46.00713566089894" lon="13.325086033539817"><ele>67.0</ele><time>2026-04-01T16:29:07Z</time></trkpt><trkpt lat="46.00690540747151" lon="13.325135713031957"><ele>67.0</ele><time>2026-04-01T16:29:08Z</time></trkpt><trkpt lat="46.00667772367382" lon="13.32523212977916"><ele>67.0</ele><time>2026-04-01T16:29:09Z</time></trkpt><trkpt lat="46.00647528031035" lon="13.32539089775465"><ele>66.66666666666666</ele><time>2026-04-01T16:29:10Z</time></trkpt><trkpt lat="46.006280309496425" lon="13.325497085637938"><ele>66.33333333333333</ele><time>2026-04-01T16:29:11Z</time></trkpt><trkpt lat="46.00608506880441" lon="13.325591184188228"><ele>66.0</ele><time>2026-04-01T16:29:12Z</time></trkpt><trkpt lat="46.00587340120238" lon="13.325696685242626"><ele>65.5</ele><time>2026-04-01T16:29:13Z</time></trkpt><trkpt lat="46.005639642389866" lon="13.325781317865557"><ele>65.0</ele><time>2026-04-01T16:29:14Z</time></trkpt><trkpt lat="46.00540778895803" lon="13.32591190903726"><ele>65.0</ele><time>2026-04-01T16:29:15Z</time></trkpt><trkpt lat="46.00516972874203" lon="13.326016967686208"><ele>65.0</ele><time>2026-04-01T16:29:16Z</time></trkpt><trkpt lat="46.004949571957134" lon="13.326113776375827"><ele>65.0</ele><time>2026-04-01T16:29:17Z</time></trkpt><trkpt lat="46.004745878734255" lon="13.326203621025487"><ele>65.0</ele><time>2026-04-01T16:29:18Z</time></trkpt><trkpt lat="46.00457923965157" lon="13.326278664992573"><ele>65.0</ele><time>2026-04-01T16:29:19Z</time></trkpt><trkpt lat="46.004442277731236" lon="13.32634216776195"><ele>65.2</ele><time>2026-04-01T16:29:20Z</time></trkpt><trkpt lat="46.00433110336888" lon="13.326395183482523"><ele>65.4</ele><time>2026-04-01T16:29:21Z</time></trkpt><trkpt lat="46.004243440039545" lon="13.326435420313054"><ele>65.6</ele><time>2026-04-01T16:29:22Z</time></trkpt><trkpt lat="46.004171897964746" lon="13.326463136815118"><ele>65.8</ele><time>2026-04-01T16:29:23Z</time></trkpt><trkpt lat="46.004086863346615" lon="13.326528678652492"><ele>66.0</ele><time>2026-04-01T16:29:25Z</time></trkpt><trkpt lat="46.0040627843906" lon="13.326698543188083"><ele>66.0</ele><time>2026-04-01T16:38:58.999Z</time></trkpt><trkpt lat="46.00400845546476" lon="13.326807393324415"><ele>66.0</ele><time>2026-04-01T16:38:59.999Z</time></trkpt><trkpt lat="46.00391499884859" lon="13.32695957126821"><ele>66.0</ele><time>2026-04-01T16:39:00.999Z</time></trkpt><trkpt lat="46.0037969394282" lon="13.32715984895409"><ele>66.0</ele><time>2026-04-01T16:39:01.999Z</time></trkpt><trkpt lat="46.003655733276304" lon="13.327410704530001"><ele>66.0</ele><time>2026-04-01T16:39:02.999Z</time></trkpt><trkpt lat="46.00349353343478" lon="13.32769774582519"><ele>66.0</ele><time>2026-04-01T16:39:03.999Z</time></trkpt><trkpt lat="46.003342973595025" lon="13.327961921195953"><ele>64.66666666666667</ele><time>2026-04-01T16:39:04.999Z</time></trkpt><trkpt lat="46.00321102700396" lon="13.328195022816935"><ele>63.333333333333336</ele><time>2026-04-01T16:39:05.999Z</time></trkpt><trkpt lat="46.003091887119524" lon="13.328419066682475"><ele>62.0</ele><time>2026-04-01T16:39:06.999Z</time></trkpt><trkpt lat="46.0029928901188" lon="13.328667824167127"><ele>62.333333333333336</ele><time>2026-04-01T16:39:07.999Z</time></trkpt><trkpt lat="46.00290670349021" lon="13.328937831445748"><ele>62.66666666666667</ele><time>2026-04-01T16:39:08.999Z</time></trkpt><trkpt lat="46.00283107691003" lon="13.32920468956699"><ele>63.0</ele><time>2026-04-01T16:39:09.999Z</time></trkpt><trkpt lat="46.00275821868867" lon="13.329469324434498"><ele>63.66666666666667</ele><time>2026-04-01T16:39:10.999Z</time></trkpt><trkpt lat="46.002684180836916" lon="13.329728066536225"><ele>64.33333333333334</ele><time>2026-04-01T16:39:11.999Z</time></trkpt><trkpt lat="46.00259322442169" lon="13.32997324794482"><ele>65.0</ele><time>2026-04-01T16:39:12.999Z</time></trkpt><trkpt lat="46.00253393833431" lon="13.330235924368878"><ele>65.0</ele><time>2026-04-01T16:39:13.999Z</time></trkpt><trkpt lat="46.00246277274133" lon="13.330481060438569"><ele>65.0</ele><time>2026-04-01T16:39:14.999Z</time></trkpt><trkpt lat="46.00239841609015" lon="13.33069454141805"><ele>65.0</ele><time>2026-04-01T16:39:16Z</time></trkpt><trkpt lat="46.00234585228367" lon="13.330883773190118"><ele>65.0</ele><time>2026-04-01T16:39:17Z</time></trkpt><trkpt lat="46.00230112365624" lon="13.331037979570574"><ele>65.0</ele><time>2026-04-01T16:39:18Z</time></trkpt><trkpt lat="46.002263836962136" lon="13.331159904450963"><ele>65.0</ele><time>2026-04-01T16:39:19Z</time></trkpt><trkpt lat="46.002235298196965" lon="13.331249515042112"><ele>65.0</ele><time>2026-04-01T16:39:20Z</time></trkpt><trkpt lat="46.00219516414284" lon="13.331335896080981"><ele>65.0</ele><time>2026-04-01T16:39:21Z</time></trkpt><trkpt lat="46.00216224746968" lon="13.331430524541064"><ele>65.0</ele><time>2026-04-01T16:39:22Z</time></trkpt><trkpt lat="46.002203436830975" lon="13.33166375252689"><ele>65.0</ele><time>2026-04-01T16:39:23Z</time></trkpt><trkpt lat="46.002237753432674" lon="13.331862688571325"><ele>65.0</ele><time>2026-04-01T16:39:24Z</time></trkpt><trkpt lat="46.002283822412586" lon="13.332080900492826"><ele>65.0</ele><time>2026-04-01T16:39:25Z</time></trkpt><trkpt lat="46.002323882092355" lon="13.332328752656792"><ele>65.66666666666667</ele><time>2026-04-01T16:39:26Z</time></trkpt><trkpt lat="46.002368658917256" lon="13.33259007663754"><ele>66.33333333333333</ele><time>2026-04-01T16:39:27Z</time></trkpt><trkpt lat="46.002411940448034" lon="13.33282044508757"><ele>67.0</ele><time>2026-04-01T16:39:28Z</time></trkpt><trkpt lat="46.00244527273595" lon="13.333014096482131"><ele>67.0</ele><time>2026-04-01T16:39:29Z</time></trkpt><trkpt lat="46.00247166520471" lon="13.333188218314246"><ele>67.0</ele><time>2026-04-01T16:39:30Z</time></trkpt><trkpt lat="46.00250430140352" lon="13.333340028567152"><ele>67.0</ele><time>2026-04-01T16:39:31Z</time></trkpt><trkpt lat="46.002551391226774" lon="13.333460103721897"><ele>67.0</ele><time>2026-04-01T16:39:32Z</time></trkpt><trkpt lat="46.00261448374673" lon="13.33355868928372"><ele>67.0</ele><time>2026-04-01T16:39:33Z</time></trkpt><trkpt lat="46.002679130219406" lon="13.333650321806468"><ele>67.0</ele><time>2026-04-01T16:39:34Z</time></trkpt><trkpt lat="46.00272367316072" lon="13.333759377912761"><ele>67.0</ele><time>2026-04-01T16:39:35Z</time></trkpt><trkpt lat="46.00275039547099" lon="13.333871896881288"><ele>67.0</ele><time>2026-04-01T16:39:36Z</time></trkpt><trkpt lat="46.00274809594783" lon="13.333980291990544"><ele>67.0</ele><time>2026-04-01T16:39:37Z</time></trkpt><trkpt lat="46.00270097881726" lon="13.334090281136062"><ele>67.0</ele><time>2026-04-01T16:39:38Z</time></trkpt><trkpt lat="46.0026229282528" lon="13.334163622623205"><ele>67.0</ele><time>2026-04-01T16:39:39Z</time></trkpt><trkpt lat="46.002508182787025" lon="13.334212319888257"><ele>66.66666666666666</ele><time>2026-04-01T16:39:40Z</time></trkpt><trkpt lat="46.00235412681874" lon="13.334267593219908"><ele>66.33333333333333</ele><time>2026-04-01T16:39:41Z</time></trkpt><trkpt lat="46.00217578750641" lon="13.334342888061089"><ele>66.0</ele><time>2026-04-01T16:39:42Z</time></trkpt><trkpt lat="46.001963127595026" lon="13.334419450297354"><ele>66.0</ele><time>2026-04-01T16:39:43Z</time></trkpt><trkpt lat="46.00172561093865" lon="13.334511728824305"><ele>66.0</ele><time>2026-04-01T16:39:44Z</time></trkpt><trkpt lat="46.00148195401214" lon="13.334606420436744"><ele>66.0</ele><time>2026-04-01T16:39:45Z</time></trkpt><trkpt lat="46.00124752036079" lon="13.334696795548803"><ele>66.0</ele><time>2026-04-01T16:39:46Z</time></trkpt><trkpt lat="46.00103957174727" lon="13.334776196824464"><ele>66.0</ele><time>2026-04-01T16:39:47Z</time></trkpt><trkpt lat="46.000853906058786" lon="13.334851114573203"><ele>66.0</ele><time>2026-04-01T16:39:48Z</time></trkpt><trkpt lat="46.00068349977334" lon="13.334920646449309"><ele>66.0</ele><time>2026-04-01T16:39:49Z</time></trkpt><trkpt lat="46.00052984535865" lon="13.33498219285364"><ele>65.6</ele><time>2026-04-01T16:39:50Z</time></trkpt><trkpt lat="46.00039617487378" lon="13.33503672911946"><ele>65.19999999999999</ele><time>2026-04-01T16:39:51Z</time></trkpt><trkpt lat="46.000277817198665" lon="13.335080079518137"><ele>64.80000000000001</ele><time>2026-04-01T16:39:52Z</time></trkpt><trkpt lat="46.00017647875004" lon="13.33511748261687"><ele>64.4</ele><time>2026-04-01T16:39:53Z</time></trkpt><trkpt lat="46.000100735438124" lon="13.335157585525318"><ele>64.0</ele><time>2026-04-01T16:39:54Z</time></trkpt><trkpt lat="46.000054185939305" lon="13.335237460556064"><ele>64.0</ele><time>2026-04-01T16:39:55Z</time></trkpt><trkpt lat="46.000011286163044" lon="13.335336359600811"><ele>64.0</ele><time>2026-04-01T16:39:56Z</time></trkpt><trkpt lat="46.00006009218226" lon="13.335513038652687"><ele>64.0</ele><time>2026-04-01T16:39:57Z</time></trkpt><trkpt lat="46.00007284323073" lon="13.335703389843122"><ele>64.0</ele><time>2026-04-01T16:39:58Z</time></trkpt><trkpt lat="46.00011065668735" lon="13.335904155994777"><ele>64.25</ele><time>2026-04-01T16:39:59Z</time></trkpt><trkpt lat="46.00013879199915" lon="13.336123903491492"><ele>64.5</ele><time>2026-04-01T16:40:00Z</time></trkpt><trkpt lat="46.0001603158327" lon="13.336330100395097"><ele>64.75</ele><time>2026-04-01T16:40:01Z</time></trkpt><trkpt lat="46.00021060924222" lon="13.336480923195428"><ele>65.0</ele><time>2026-04-01T16:40:02Z</time></trkpt><trkpt lat="46.000222944757994" lon="13.336635585799838"><ele>65.25</ele><time>2026-04-01T16:40:03Z</time></trkpt><trkpt lat="46.00021336066959" lon="13.33680582615785"><ele>65.5</ele><time>2026-04-01T16:40:04Z</time></trkpt><trkpt lat="46.00015384862543" lon="13.33697420035067"><ele>65.75</ele><time>2026-04-01T16:40:05Z</time></trkpt><trkpt lat="46.0001099718342" lon="13.337171865344967"><ele>66.0</ele><time>2026-04-01T16:40:06Z</time></trkpt><trkpt lat="46.00010973167731" lon="13.337398097629293"><ele>65.75</ele><time>2026-04-01T16:40:07Z</time></trkpt><trkpt lat="46.00010390375673" lon="13.337626914131125"><ele>65.5</ele><time>2026-04-01T16:40:08Z</time></trkpt><trkpt lat="46.00008162299813" lon="13.337817181673824"><ele>65.25</ele><time>2026-04-01T16:40:09Z</time></trkpt><trkpt lat="46.00007634751183" lon="13.337957013645404"><ele>65.0</ele><time>2026-04-01T16:40:10Z</time></trkpt><trkpt lat="46.00007179506885" lon="13.338077825874066"><ele>65.0</ele><time>2026-04-01T16:40:11Z</time></trkpt><trkpt lat="46.00004608647011" lon="13.338232986179023"><ele>65.0</ele><time>2026-04-01T16:40:13Z</time></trkpt><trkpt lat="45.99996942434481" lon="13.338240967821232"><ele>65.0</ele><time>2026-04-01T16:40:14Z</time></trkpt><trkpt lat="45.99988956739285" lon="13.338319155518036"><ele>65.0</ele><time>2026-04-01T16:40:15Z</time></trkpt><trkpt lat="45.99983799742665" lon="13.338479269969591"><ele>65.0</ele><time>2026-04-01T16:40:16Z</time></trkpt><trkpt lat="45.99978939872676" lon="13.338667143125349"><ele>65.0</ele><time>2026-04-01T16:40:17Z</time></trkpt><trkpt lat="45.99973973783541" lon="13.338839477026944"><ele>65.0</ele><time>2026-04-01T16:40:18Z</time></trkpt><trkpt lat="45.99968375638877" lon="13.338990692048863"><ele>65.0</ele><time>2026-04-01T16:40:19Z</time></trkpt><trkpt lat="45.99961135138947" lon="13.33913027562664"><ele>65.0</ele><time>2026-04-01T16:40:20Z</time></trkpt><trkpt lat="45.99951474285532" lon="13.339226279459625"><ele>65.25</ele><time>2026-04-01T16:40:21Z</time></trkpt><trkpt lat="45.99941417477722" lon="13.33933635043853"><ele>65.5</ele><time>2026-04-01T16:40:22Z</time></trkpt><trkpt lat="45.99927944025902" lon="13.339422562023202"><ele>65.75</ele><time>2026-04-01T16:40:23Z</time></trkpt><trkpt lat="45.99913256288984" lon="13.339505375351013"><ele>66.0</ele><time>2026-04-01T16:40:24Z</time></trkpt><trkpt lat="45.998998625144274" lon="13.339619359231653"><ele>65.75</ele><time>2026-04-01T16:40:25Z</time></trkpt><trkpt lat="45.99885906251467" lon="13.339687091601137"><ele>65.5</ele><time>2026-04-01T16:40:26Z</time></trkpt><trkpt lat="45.99871975677946" lon="13.339730911464015"><ele>65.25</ele><time>2026-04-01T16:40:27Z</time></trkpt><trkpt lat="45.99857664362237" lon="13.339748008337796"><ele>65.0</ele><time>2026-04-01T16:40:28Z</time></trkpt><trkpt lat="45.99842534245318" lon="13.339720148521135"><ele>64.5</ele><time>2026-04-01T16:40:29Z</time></trkpt><trkpt lat="45.99825999740141" lon="13.339658621561577"><ele>64.0</ele><time>2026-04-01T16:40:30Z</time></trkpt><trkpt lat="45.99812004916811" lon="13.339617883714102"><ele>63.5</ele><time>2026-04-01T16:40:31Z</time></trkpt><trkpt lat="45.997995877266895" lon="13.339594064268267"><ele>63.0</ele><time>2026-04-01T16:40:32Z</time></trkpt><trkpt lat="45.99789106025393" lon="13.33960135829392"><ele>63.0</ele><time>2026-04-01T16:40:32.999Z</time></trkpt><trkpt lat="45.99779329442995" lon="13.339659477773926"><ele>63.0</ele><time>2026-04-01T16:40:33.999Z</time></trkpt><trkpt lat="45.997706514954984" lon="13.339758418619443"><ele>63.0</ele><time>2026-04-01T16:40:34.999Z</time></trkpt><trkpt lat="45.99764564674761" lon="13.339916334356293"><ele>63.0</ele><time>2026-04-01T16:40:35.999Z</time></trkpt><trkpt lat="45.997578695458124" lon="13.340126320425586"><ele>63.0</ele><time>2026-04-01T16:40:36.999Z</time></trkpt><trkpt lat="45.99750114105583" lon="13.340305679488893"><ele>63.0</ele><time>2026-04-01T16:40:37.999Z</time></trkpt><trkpt lat="45.99741698858262" lon="13.340408066377579"><ele>63.0</ele><time>2026-04-01T16:40:38.999Z</time></trkpt><trkpt lat="45.99732784825808" lon="13.340486061747233"><ele>63.0</ele><time>2026-04-01T16:40:39.999Z</time></trkpt><trkpt lat="45.99721577977164" lon="13.34056130912455"><ele>63.0</ele><time>2026-04-01T16:40:40.999Z</time></trkpt><trkpt lat="45.99708031816944" lon="13.340556082259996"><ele>63.0</ele><time>2026-04-01T16:40:41.999Z</time></trkpt><trkpt lat="45.99693749728826" lon="13.340494772681403"><ele>63.0</ele><time>2026-04-01T16:40:42.999Z</time></trkpt><trkpt lat="45.99679144395928" lon="13.340384740137997"><ele>63.0</ele><time>2026-04-01T16:40:43.999Z</time></trkpt><trkpt lat="45.996675649972246" lon="13.340301623856396"><ele>63.2</ele><time>2026-04-01T16:40:44.999Z</time></trkpt><trkpt lat="45.9965877163613" lon="13.340240374134673"><ele>63.4</ele><time>2026-04-01T16:40:45.999Z</time></trkpt><trkpt lat="45.99650632195172" lon="13.340192258814463"><ele>63.60000000000001</ele><time>2026-04-01T16:40:46.999Z</time></trkpt><trkpt lat="45.996439028758004" lon="13.34013981753218"><ele>63.800000000000004</ele><time>2026-04-01T16:40:47.999Z</time></trkpt><trkpt lat="45.996358752444905" lon="13.340083736998384"><ele>64.0</ele><time>2026-04-01T16:40:48.999Z</time></trkpt><trkpt lat="45.99623652319523" lon="13.340000850984037"><ele>64.0</ele><time>2026-04-01T16:40:49.999Z</time></trkpt><trkpt lat="45.99607586973351" lon="13.3399304666946"><ele>64.0</ele><time>2026-04-01T16:40:50.999Z</time></trkpt><trkpt lat="45.995891395576734" lon="13.339907434557716"><ele>64.0</ele><time>2026-04-01T16:40:51.999Z</time></trkpt><trkpt lat="45.99569029747184" lon="13.339945605634856"><ele>63.0</ele><time>2026-04-01T16:40:52.999Z</time></trkpt><trkpt lat="45.9954783686777" lon="13.340048717572211"><ele>62.0</ele><time>2026-04-01T16:40:53.999Z</time></trkpt><trkpt lat="45.99525227171592" lon="13.340202622372914"><ele>62.0</ele><time>2026-04-01T16:40:54.999Z</time></trkpt><trkpt lat="45.99501064038665" lon="13.340365496173213"><ele>62.0</ele><time>2026-04-01T16:40:55.999Z</time></trkpt><trkpt lat="45.99476531410996" lon="13.340509900056169"><ele>62.0</ele><time>2026-04-01T16:40:56.999Z</time></trkpt><trkpt lat="45.99452474492918" lon="13.34066143101257"><ele>62.0</ele><time>2026-04-01T16:40:57.999Z</time></trkpt><trkpt lat="45.994298187645605" lon="13.340809155431446"><ele>62.0</ele><time>2026-04-01T16:40:58.999Z</time></trkpt><trkpt lat="45.9940989267574" lon="13.340928002802636"><ele>62.0</ele><time>2026-04-01T16:40:59.999Z</time></trkpt><trkpt lat="45.99391145805402" lon="13.341023239626507"><ele>62.0</ele><time>2026-04-01T16:41:00.999Z</time></trkpt><trkpt lat="45.99372494863474" lon="13.341095574121585"><ele>62.0</ele><time>2026-04-01T16:41:01.999Z</time></trkpt><trkpt lat="45.99353010665083" lon="13.341130096317459"><ele>62.0</ele><time>2026-04-01T16:41:02.999Z</time></trkpt><trkpt lat="45.993328032442626" lon="13.341187383197328"><ele>62.0</ele><time>2026-04-01T16:41:03.999Z</time></trkpt><trkpt lat="45.99311218212806" lon="13.341250680362307"><ele>61.0</ele><time>2026-04-01T16:41:04.999Z</time></trkpt><trkpt lat="45.99288463018136" lon="13.341340109923522"><ele>60.0</ele><time>2026-04-01T16:41:05.999Z</time></trkpt><trkpt lat="45.9926411110891" lon="13.341418469479835"><ele>59.5</ele><time>2026-04-01T16:41:06.999Z</time></trkpt><trkpt lat="45.99239147224495" lon="13.341509957496552"><ele>59.0</ele><time>2026-04-01T16:41:07.999Z</time></trkpt><trkpt lat="45.99213351952175" lon="13.341603636031941"><ele>59.0</ele><time>2026-04-01T16:41:08.999Z</time></trkpt><trkpt lat="45.99187023204099" lon="13.341699295415305"><ele>59.0</ele><time>2026-04-01T16:41:09.999Z</time></trkpt><trkpt lat="45.99160340651489" lon="13.341795340910366"><ele>58.0</ele><time>2026-04-01T16:41:10.999Z</time></trkpt><trkpt lat="45.99133560410521" lon="13.341891952561904"><ele>57.0</ele><time>2026-04-01T16:41:11.999Z</time></trkpt><trkpt lat="45.991068333745936" lon="13.341999007170044"><ele>57.5</ele><time>2026-04-01T16:41:12.999Z</time></trkpt><trkpt lat="45.990800570695534" lon="13.342094922659173"><ele>58.0</ele><time>2026-04-01T16:41:13.999Z</time></trkpt><trkpt lat="45.990541526935914" lon="13.34219153689033"><ele>57.5</ele><time>2026-04-01T16:41:14.999Z</time></trkpt><trkpt lat="45.9903079500209" lon="13.342280299054874"><ele>57.0</ele><time>2026-04-01T16:41:15.999Z</time></trkpt><trkpt lat="45.990093240609774" lon="13.34235705780538"><ele>57.33333333333333</ele><time>2026-04-01T16:41:16.999Z</time></trkpt><trkpt lat="45.989879812043874" lon="13.342422055754453"><ele>57.666666666666664</ele><time>2026-04-01T16:41:17.999Z</time></trkpt><trkpt lat="45.98967010578066" lon="13.342471111529045"><ele>58.0</ele><time>2026-04-01T16:41:18.999Z</time></trkpt><trkpt lat="45.989449908502856" lon="13.342505583750686"><ele>58.0</ele><time>2026-04-01T16:41:19.999Z</time></trkpt><trkpt lat="45.98921727121416" lon="13.342532717695827"><ele>58.0</ele><time>2026-04-01T16:41:21Z</time></trkpt><trkpt lat="45.98897724918995" lon="13.342562999132722"><ele>58.5</ele><time>2026-04-01T16:41:22Z</time></trkpt><trkpt lat="45.9887329131498" lon="13.34259622529067"><ele>59.0</ele><time>2026-04-01T16:41:23Z</time></trkpt><trkpt lat="45.988485057863194" lon="13.342637305872042"><ele>58.5</ele><time>2026-04-01T16:41:24Z</time></trkpt><trkpt lat="45.98823754729314" lon="13.342691533317844"><ele>58.0</ele><time>2026-04-01T16:41:25Z</time></trkpt><trkpt lat="45.98799837442771" lon="13.342760711554597"><ele>58.0</ele><time>2026-04-01T16:41:26Z</time></trkpt><trkpt lat="45.987769530636186" lon="13.342844862309427"><ele>58.0</ele><time>2026-04-01T16:41:27Z</time></trkpt><trkpt lat="45.987552334647674" lon="13.342942448273142"><ele>57.666666666666664</ele><time>2026-04-01T16:41:28Z</time></trkpt><trkpt lat="45.98734485882834" lon="13.343049228437646"><ele>57.33333333333333</ele><time>2026-04-01T16:41:29Z</time></trkpt><trkpt lat="45.98714835130486" lon="13.343156572551534"><ele>57.0</ele><time>2026-04-01T16:41:30Z</time></trkpt><trkpt lat="45.98695540075188" lon="13.343263367387397"><ele>57.0</ele><time>2026-04-01T16:41:31Z</time></trkpt><trkpt lat="45.98676861449064" lon="13.343366435022046"><ele>57.0</ele><time>2026-04-01T16:41:32Z</time></trkpt><trkpt lat="45.98657566038793" lon="13.343471784157659"><ele>57.0</ele><time>2026-04-01T16:41:33Z</time></trkpt><trkpt lat="45.986377282122284" lon="13.343584156443924"><ele>57.0</ele><time>2026-04-01T16:41:34Z</time></trkpt><trkpt lat="45.98620363579336" lon="13.34367855678385"><ele>57.0</ele><time>2026-04-01T16:41:35Z</time></trkpt><trkpt lat="45.986043104746805" lon="13.343762462496448"><ele>57.0</ele><time>2026-04-01T16:41:36Z</time></trkpt><trkpt lat="45.9859041796049" lon="13.343840811296571"><ele>57.0</ele><time>2026-04-01T16:41:37Z</time></trkpt><trkpt lat="45.98578811254935" lon="13.343908469933249"><ele>57.0</ele><time>2026-04-01T16:41:38Z</time></trkpt><trkpt lat="45.98569134191267" lon="13.343953337389943"><ele>57.0</ele><time>2026-04-01T16:41:39Z</time></trkpt><trkpt lat="45.9856132326792" lon="13.343955540602234"><ele>57.0</ele><time>2026-04-01T16:41:40Z</time></trkpt><trkpt lat="45.98554068927403" lon="13.343913132914295"><ele>57.0</ele><time>2026-04-01T16:41:41Z</time></trkpt><trkpt lat="45.98546860313697" lon="13.34381573450413"><ele>57.0</ele><time>2026-04-01T16:41:42Z</time></trkpt><trkpt lat="45.98535935525449" lon="13.34369043007039"><ele>57.0</ele><time>2026-04-01T16:41:43Z</time></trkpt><trkpt lat="45.985214655721755" lon="13.343555014886388"><ele>57.0</ele><time>2026-04-01T16:41:44Z</time></trkpt><trkpt lat="45.9851088840086" lon="13.343453526544808"><ele>57.0</ele><time>2026-04-01T16:41:45Z</time></trkpt><trkpt lat="45.985009335959596" lon="13.343376303968936"><ele>57.5</ele><time>2026-04-01T16:41:46Z</time></trkpt><trkpt lat="45.98490569229889" lon="13.343341292964174"><ele>58.0</ele><time>2026-04-01T16:41:47Z</time></trkpt><trkpt lat="45.98479777075105" lon="13.343355704799837"><ele>58.5</ele><time>2026-04-01T16:41:48Z</time></trkpt><trkpt lat="45.98470023156753" lon="13.34343113178207"><ele>59.0</ele><time>2026-04-01T16:41:49Z</time></trkpt><trkpt lat="45.984605983643256" lon="13.343574040253333"><ele>59.0</ele><time>2026-04-01T16:41:50Z</time></trkpt><trkpt lat="45.98452673086706" lon="13.343697559554204"><ele>59.0</ele><time>2026-04-01T16:41:51Z</time></trkpt><trkpt lat="45.984421401808895" lon="13.343775465052468"><ele>59.0</ele><time>2026-04-01T16:41:52Z</time></trkpt><trkpt lat="45.984275099323185" lon="13.34384322277874"><ele>59.0</ele><time>2026-04-01T16:41:53Z</time></trkpt><trkpt lat="45.98411852713154" lon="13.343928784667055"><ele>58.400000000000006</ele><time>2026-04-01T16:41:54Z</time></trkpt><trkpt lat="45.983979184727644" lon="13.344012077626838"><ele>57.800000000000004</ele><time>2026-04-01T16:41:55Z</time></trkpt><trkpt lat="45.98387435112423" lon="13.344095358341747"><ele>57.199999999999996</ele><time>2026-04-01T16:41:56Z</time></trkpt><trkpt lat="45.98380133803163" lon="13.34416839409487"><ele>56.599999999999994</ele><time>2026-04-01T16:41:57Z</time></trkpt><trkpt lat="45.983741914197495" lon="13.344200546313456"><ele>56.0</ele><time>2026-04-01T16:41:58Z</time></trkpt><trkpt lat="45.98363428892274" lon="13.344084257409367"><ele>56.0</ele><time>2026-04-01T16:42:00Z</time></trkpt><trkpt lat="45.983589701757026" lon="13.343897448289885"><ele>56.0</ele><time>2026-04-01T16:42:01Z</time></trkpt><trkpt lat="45.98351276678357" lon="13.343682394473474"><ele>56.0</ele><time>2026-04-01T16:42:02Z</time></trkpt><trkpt lat="45.98341009991745" lon="13.343468785778589"><ele>56.0</ele><time>2026-04-01T16:42:03Z</time></trkpt><trkpt lat="45.983327138483624" lon="13.343298112457822"><ele>56.0</ele><time>2026-04-01T16:42:04Z</time></trkpt><trkpt lat="45.983248891588424" lon="13.343154077626167"><ele>56.0</ele><time>2026-04-01T16:42:05Z</time></trkpt><trkpt lat="45.98316039592526" lon="13.343062208279378"><ele>56.0</ele><time>2026-04-01T16:42:06Z</time></trkpt><trkpt lat="45.983054825242405" lon="13.34300851064121"><ele>56.0</ele><time>2026-04-01T16:42:07Z</time></trkpt><trkpt lat="45.98292981151056" lon="13.343003458170642"><ele>56.0</ele><time>2026-04-01T16:42:08Z</time></trkpt><trkpt lat="45.98280339478215" lon="13.34305740740365"><ele>56.0</ele><time>2026-04-01T16:42:09Z</time></trkpt><trkpt lat="45.982678911662575" lon="13.343106101125484"><ele>56.0</ele><time>2026-04-01T16:42:10Z</time></trkpt><trkpt lat="45.982567458620906" lon="13.343118167247384"><ele>56.00000000000001</ele><time>2026-04-01T16:42:11Z</time></trkpt><trkpt lat="45.9824771799723" lon="13.343093952969097"><ele>56.0</ele><time>2026-04-01T16:42:12Z</time></trkpt><trkpt lat="45.98240241962546" lon="13.343051274438142"><ele>56.0</ele><time>2026-04-01T16:42:13Z</time></trkpt><trkpt lat="45.982337864534934" lon="13.343004478416274"><ele>56.0</ele><time>2026-04-01T16:42:14Z</time></trkpt><trkpt lat="45.98228115468748" lon="13.3429596266857"><ele>56.00000000000001</ele><time>2026-04-01T16:42:15Z</time></trkpt><trkpt lat="45.98219320029733" lon="13.342861607527816"><ele>56.0</ele><time>2026-04-01T16:42:17Z</time></trkpt><trkpt lat="45.98213569234203" lon="13.342738391298232"><ele>55.4</ele><time>2026-04-01T16:42:19Z</time></trkpt><trkpt lat="45.982108553432106" lon="13.342632800975721"><ele>54.8</ele><time>2026-04-01T16:42:20Z</time></trkpt><trkpt lat="45.98206641473903" lon="13.342502452039113"><ele>54.199999999999996</ele><time>2026-04-01T16:42:21Z</time></trkpt><trkpt lat="45.982026965079676" lon="13.342360593944301"><ele>53.599999999999994</ele><time>2026-04-01T16:42:22Z</time></trkpt><trkpt lat="45.98199095543276" lon="13.342221863390996"><ele>53.0</ele><time>2026-04-01T16:42:23Z</time></trkpt><trkpt lat="45.98194806819344" lon="13.342076638693397"><ele>53.0</ele><time>2026-04-01T16:42:24Z</time></trkpt><trkpt lat="45.98189752010853" lon="13.341912032182137"><ele>53.0</ele><time>2026-04-01T16:42:25Z</time></trkpt><trkpt lat="45.98184272513041" lon="13.341723388445816"><ele>53.0</ele><time>2026-04-01T16:42:26Z</time></trkpt><trkpt lat="45.9817849829562" lon="13.34153148086744"><ele>53.0</ele><time>2026-04-01T16:42:27Z</time></trkpt><trkpt lat="45.981725672806135" lon="13.341345504154335"><ele>53.0</ele><time>2026-04-01T16:42:28Z</time></trkpt><trkpt lat="45.98166965610335" lon="13.341151335546543"><ele>53.0</ele><time>2026-04-01T16:42:29Z</time></trkpt><trkpt lat="45.981613449622216" lon="13.340951735019733"><ele>53.0</ele><time>2026-04-01T16:42:30Z</time></trkpt><trkpt lat="45.98155143364791" lon="13.34075119023868"><ele>53.0</ele><time>2026-04-01T16:42:31Z</time></trkpt><trkpt lat="45.981485217483694" lon="13.34054459457426"><ele>53.0</ele><time>2026-04-01T16:42:32Z</time></trkpt><trkpt lat="45.98140879463618" lon="13.340334485434573"><ele>53.0</ele><time>2026-04-01T16:42:32.999Z</time></trkpt><trkpt lat="45.98131307860702" lon="13.340131730146382"><ele>53.0</ele><time>2026-04-01T16:42:33.999Z</time></trkpt><trkpt lat="45.98120390891419" lon="13.339927856673006"><ele>53.333333333333336</ele><time>2026-04-01T16:42:34.999Z</time></trkpt><trkpt lat="45.98109519884346" lon="13.339707685988792"><ele>53.66666666666667</ele><time>2026-04-01T16:42:35.999Z</time></trkpt><trkpt lat="45.98098424004422" lon="13.339477090350298"><ele>54.0</ele><time>2026-04-01T16:42:36.999Z</time></trkpt><trkpt lat="45.98086144384641" lon="13.339238317938795"><ele>54.5</ele><time>2026-04-01T16:42:37.999Z</time></trkpt><trkpt lat="45.98071538938582" lon="13.338920525216048"><ele>55.0</ele><time>2026-04-01T16:42:38.999Z</time></trkpt><trkpt lat="45.98052276885292" lon="13.338533837938058"><ele>56.0</ele><time>2026-04-01T16:42:39.999Z</time></trkpt><trkpt lat="45.98029412362056" lon="13.338108259915138"><ele>57.0</ele><time>2026-04-01T16:42:40.999Z</time></trkpt><trkpt lat="45.98010996552731" lon="13.337699233869186"><ele>57.0</ele><time>2026-04-01T16:42:41.999Z</time></trkpt><trkpt lat="45.9799239385726" lon="13.337320625448667"><ele>57.0</ele><time>2026-04-01T16:42:42.999Z</time></trkpt><trkpt lat="45.979745894086776" lon="13.336961578129667"><ele>57.0</ele><time>2026-04-01T16:42:43.999Z</time></trkpt><trkpt lat="45.97958681805496" lon="13.33662255407984"><ele>57.0</ele><time>2026-04-01T16:42:44.999Z</time></trkpt><trkpt lat="45.97943944580084" lon="13.33629093311329"><ele>57.0</ele><time>2026-04-01T16:42:45.999Z</time></trkpt><trkpt lat="45.979301946028286" lon="13.335983583055468"><ele>57.0</ele><time>2026-04-01T16:42:46.999Z</time></trkpt><trkpt lat="45.97916927409635" lon="13.335697577849096"><ele>57.66666666666667</ele><time>2026-04-01T16:42:47.999Z</time></trkpt><trkpt lat="45.97904698972805" lon="13.335427159517916"><ele>58.333333333333336</ele><time>2026-04-01T16:42:48.999Z</time></trkpt><trkpt lat="45.97893057588589" lon="13.335170719044699"><ele>59.0</ele><time>2026-04-01T16:42:49.999Z</time></trkpt><trkpt lat="45.97882239488626" lon="13.334925607681651"><ele>59.0</ele><time>2026-04-01T16:42:50.999Z</time></trkpt><trkpt lat="45.97870660510677" lon="13.334664001450625"><ele>59.0</ele><time>2026-04-01T16:42:51.999Z</time></trkpt><trkpt lat="45.978575031784416" lon="13.334373565178101"><ele>59.0</ele><time>2026-04-01T16:42:52.999Z</time></trkpt><trkpt lat="45.9784427834433" lon="13.334049526574624"><ele>59.0</ele><time>2026-04-01T16:42:53.999Z</time></trkpt><trkpt lat="45.97829706830944" lon="13.33371613840961"><ele>56.5</ele><time>2026-04-01T16:42:54.999Z</time></trkpt><trkpt lat="45.978151801614416" lon="13.333413239715979"><ele>54.0</ele><time>2026-04-01T16:42:55.999Z</time></trkpt><trkpt lat="45.978028843114664" lon="13.33312893636961"><ele>54.33333333333333</ele><time>2026-04-01T16:42:56.999Z</time></trkpt><trkpt lat="45.97791277292561" lon="13.332865334730128"><ele>54.666666666666664</ele><time>2026-04-01T16:42:57.999Z</time></trkpt><trkpt lat="45.97780722778416" lon="13.332615903706284"><ele>55.0</ele><time>2026-04-01T16:42:58.999Z</time></trkpt><trkpt lat="45.97770979070314" lon="13.332384241067068"><ele>55.666666666666664</ele><time>2026-04-01T16:42:59.999Z</time></trkpt><trkpt lat="45.97761595878094" lon="13.332167977785542"><ele>56.33333333333333</ele><time>2026-04-01T16:43:00.999Z</time></trkpt><trkpt lat="45.977518385008125" lon="13.331947221167264"><ele>57.0</ele><time>2026-04-01T16:43:01.999Z</time></trkpt><trkpt lat="45.97742107590893" lon="13.331726438078723"><ele>57.0</ele><time>2026-04-01T16:43:02.999Z</time></trkpt><trkpt lat="45.977328092819064" lon="13.331513557381788"><ele>57.0</ele><time>2026-04-01T16:43:03.999Z</time></trkpt><trkpt lat="45.97723639400524" lon="13.331306618039092"><ele>57.0</ele><time>2026-04-01T16:43:04.999Z</time></trkpt><trkpt lat="45.97715024795805" lon="13.331108311925897"><ele>57.0</ele><time>2026-04-01T16:43:05.999Z</time></trkpt><trkpt lat="45.977065574484236" lon="13.330914928780135"><ele>57.0</ele><time>2026-04-01T16:43:06.999Z</time></trkpt><trkpt lat="45.97698041412749" lon="13.330724780150305"><ele>57.0</ele><time>2026-04-01T16:43:07.999Z</time></trkpt><trkpt lat="45.976898958600586" lon="13.330533630373239"><ele>57.66666666666667</ele><time>2026-04-01T16:43:08.999Z</time></trkpt><trkpt lat="45.97681764046168" lon="13.330346403092323"><ele>58.333333333333336</ele><time>2026-04-01T16:43:09.999Z</time></trkpt><trkpt lat="45.97673643116576" lon="13.33016177224944"><ele>59.0</ele><time>2026-04-01T16:43:10.999Z</time></trkpt><trkpt lat="45.976656804402886" lon="13.329977297256251"><ele>59.0</ele><time>2026-04-01T16:43:11.999Z</time></trkpt><trkpt lat="45.97658001331478" lon="13.329792989364073"><ele>59.0</ele><time>2026-04-01T16:43:12.999Z</time></trkpt><trkpt lat="45.976512304288114" lon="13.329599132276972"><ele>59.0</ele><time>2026-04-01T16:43:13.999Z</time></trkpt><trkpt lat="45.97645504030851" lon="13.329389682811863"><ele>59.0</ele><time>2026-04-01T16:43:14.999Z</time></trkpt><trkpt lat="45.97639490377604" lon="13.329176698813633"><ele>59.0</ele><time>2026-04-01T16:43:15.999Z</time></trkpt><trkpt lat="45.97634232435286" lon="13.328983628699138"><ele>59.0</ele><time>2026-04-01T16:43:16.999Z</time></trkpt><trkpt lat="45.976293896932425" lon="13.328804469177337"><ele>59.0</ele><time>2026-04-01T16:43:17.999Z</time></trkpt><trkpt lat="45.97624822504907" lon="13.328644284018168"><ele>59.0</ele><time>2026-04-01T16:43:18.999Z</time></trkpt><trkpt lat="45.97620010743688" lon="13.328488700028617"><ele>59.00000000000001</ele><time>2026-04-01T16:43:19.999Z</time></trkpt><trkpt lat="45.97616765932969" lon="13.328330068809873"><ele>59.00000000000001</ele><time>2026-04-01T16:43:20.999Z</time></trkpt><trkpt lat="45.97613085345721" lon="13.328194419754745"><ele>59.0</ele><time>2026-04-01T16:43:21.999Z</time></trkpt><trkpt lat="45.97605351390533" lon="13.328109140764104"><ele>59.0</ele><time>2026-04-01T16:43:22.999Z</time></trkpt><trkpt lat="45.97600969145732" lon="13.328020394196397"><ele>59.00000000000001</ele><time>2026-04-01T16:43:23.999Z</time></trkpt><trkpt lat="45.97598180369989" lon="13.327918005824017"><ele>59.0</ele><time>2026-04-01T16:43:24.999Z</time></trkpt><trkpt lat="45.97597001018987" lon="13.327804164938879"><ele>59.0</ele><time>2026-04-01T16:43:25.999Z</time></trkpt><trkpt lat="45.97595019661611" lon="13.327706393058678"><ele>59.0</ele><time>2026-04-01T16:43:27Z</time></trkpt><trkpt lat="45.97590500025159" lon="13.327627854705755"><ele>59.00000000000001</ele><time>2026-04-01T16:43:28Z</time></trkpt><trkpt lat="45.975854141916294" lon="13.327559442388322"><ele>59.0</ele><time>2026-04-01T16:43:29Z</time></trkpt><trkpt lat="45.975745620018685" lon="13.327628862688522"><ele>59.25</ele><time>2026-04-01T16:43:30Z</time></trkpt><trkpt lat="45.975654559146804" lon="13.32775691999695"><ele>59.5</ele><time>2026-04-01T16:43:31Z</time></trkpt><trkpt lat="45.97553042779763" lon="13.32782141454651"><ele>59.75</ele><time>2026-04-01T16:43:32Z</time></trkpt><trkpt lat="45.97539252227549" lon="13.327812837640534"><ele>60.0</ele><time>2026-04-01T16:43:33Z</time></trkpt><trkpt lat="45.97530055550267" lon="13.327837936454602"><ele>60.0</ele><time>2026-04-01T16:43:34Z</time></trkpt><trkpt lat="45.97521820607921" lon="13.327874073125946"><ele>60.0</ele><time>2026-04-01T16:43:35Z</time></trkpt><trkpt lat="45.9751364850674" lon="13.327920438168345"><ele>60.0</ele><time>2026-04-01T16:43:36Z</time></trkpt><trkpt lat="45.975036529486005" lon="13.327979080826317"><ele>60.0</ele><time>2026-04-01T16:43:37Z</time></trkpt><trkpt lat="45.97492086182096" lon="13.328056558560872"><ele>60.0</ele><time>2026-04-01T16:43:38Z</time></trkpt><trkpt lat="45.974785807765315" lon="13.328157592116343"><ele>59.0</ele><time>2026-04-01T16:43:39Z</time></trkpt><trkpt lat="45.97463709044693" lon="13.328257403772376"><ele>58.0</ele><time>2026-04-01T16:43:40Z</time></trkpt><trkpt lat="45.974476366506956" lon="13.328360464395214"><ele>57.0</ele><time>2026-04-01T16:43:41Z</time></trkpt><trkpt lat="45.97430326828448" lon="13.328476408958409"><ele>56.66666666666667</ele><time>2026-04-01T16:43:42Z</time></trkpt><trkpt lat="45.97412637323746" lon="13.328601018732785"><ele>56.333333333333336</ele><time>2026-04-01T16:43:43Z</time></trkpt><trkpt lat="45.973953290467016" lon="13.328720694457944"><ele>56.0</ele><time>2026-04-01T16:43:44Z</time></trkpt><trkpt lat="45.97378189869396" lon="13.328830776334076"><ele>56.0</ele><time>2026-04-01T16:43:45Z</time></trkpt><trkpt lat="45.97361727966218" lon="13.32894059527683"><ele>56.0</ele><time>2026-04-01T16:43:46Z</time></trkpt><trkpt lat="45.97345637884317" lon="13.329054866534495"><ele>56.0</ele><time>2026-04-01T16:43:47Z</time></trkpt><trkpt lat="45.97329299314307" lon="13.329165898525655"><ele>55.333333333333336</ele><time>2026-04-01T16:43:48Z</time></trkpt><trkpt lat="45.97313351117687" lon="13.329269920145673"><ele>54.66666666666667</ele><time>2026-04-01T16:43:49Z</time></trkpt><trkpt lat="45.97297985779817" lon="13.32937303071199"><ele>54.0</ele><time>2026-04-01T16:43:50Z</time></trkpt><trkpt lat="45.972828659110284" lon="13.32947831574386"><ele>54.0</ele><time>2026-04-01T16:43:51Z</time></trkpt><trkpt lat="45.97267737093424" lon="13.329576763314963"><ele>54.0</ele><time>2026-04-01T16:43:52Z</time></trkpt><trkpt lat="45.972527397966196" lon="13.329677352970261"><ele>54.0</ele><time>2026-04-01T16:43:53Z</time></trkpt><trkpt lat="45.97237857862214" lon="13.329779631253007"><ele>54.66666666666667</ele><time>2026-04-01T16:43:54Z</time></trkpt><trkpt lat="45.972228571501226" lon="13.329882715409516"><ele>55.333333333333336</ele><time>2026-04-01T16:43:55Z</time></trkpt><trkpt lat="45.97207674355566" lon="13.329983670053904"><ele>56.0</ele><time>2026-04-01T16:43:56Z</time></trkpt><trkpt lat="45.97192466942014" lon="13.330082473360834"><ele>56.0</ele><time>2026-04-01T16:43:57Z</time></trkpt><trkpt lat="45.97177021727336" lon="13.330187154388119"><ele>56.0</ele><time>2026-04-01T16:43:58Z</time></trkpt><trkpt lat="45.971610835798394" lon="13.330284408311833"><ele>56.0</ele><time>2026-04-01T16:43:59Z</time></trkpt><trkpt lat="45.97144432025257" lon="13.330367580722308"><ele>55.66666666666667</ele><time>2026-04-01T16:44:00Z</time></trkpt><trkpt lat="45.97126890564305" lon="13.330434372694873"><ele>55.33333333333333</ele><time>2026-04-01T16:44:01Z</time></trkpt><trkpt lat="45.97108041053112" lon="13.33048836347823"><ele>55.0</ele><time>2026-04-01T16:44:02Z</time></trkpt><trkpt lat="45.97088379678624" lon="13.330538636016795"><ele>54.666666666666664</ele><time>2026-04-01T16:44:03Z</time></trkpt><trkpt lat="45.970676654666356" lon="13.33059352965582"><ele>54.33333333333333</ele><time>2026-04-01T16:44:04Z</time></trkpt><trkpt lat="45.97045777723584" lon="13.33064950720271"><ele>54.0</ele><time>2026-04-01T16:44:05Z</time></trkpt><trkpt lat="45.970228090910524" lon="13.330710959116391"><ele>53.5</ele><time>2026-04-01T16:44:06Z</time></trkpt><trkpt lat="45.96998816330717" lon="13.330774296145565"><ele>53.0</ele><time>2026-04-01T16:44:07Z</time></trkpt><trkpt lat="45.969743903243135" lon="13.330838147137957"><ele>53.0</ele><time>2026-04-01T16:44:08Z</time></trkpt><trkpt lat="45.969492415420696" lon="13.330903327067087"><ele>53.0</ele><time>2026-04-01T16:44:09Z</time></trkpt><trkpt lat="45.96923389564977" lon="13.330971532320893"><ele>53.0</ele><time>2026-04-01T16:44:10Z</time></trkpt><trkpt lat="45.968971473644395" lon="13.331040245502935"><ele>53.0</ele><time>2026-04-01T16:44:11Z</time></trkpt><trkpt lat="45.96870656770278" lon="13.331108885119836"><ele>53.0</ele><time>2026-04-01T16:44:12Z</time></trkpt><trkpt lat="45.96843871127772" lon="13.33117851425939"><ele>53.0</ele><time>2026-04-01T16:44:13Z</time></trkpt><trkpt lat="45.96816961619751" lon="13.331249939537141"><ele>52.5</ele><time>2026-04-01T16:44:14Z</time></trkpt><trkpt lat="45.96789667449503" lon="13.331321018563687"><ele>52.0</ele><time>2026-04-01T16:44:15Z</time></trkpt><trkpt lat="45.96762518834353" lon="13.331392278812332"><ele>52.0</ele><time>2026-04-01T16:44:16Z</time></trkpt><trkpt lat="45.96735653296513" lon="13.331458091730433"><ele>52.0</ele><time>2026-04-01T16:44:17Z</time></trkpt><trkpt lat="45.967092751149316" lon="13.331525588598195"><ele>52.0</ele><time>2026-04-01T16:44:18Z</time></trkpt><trkpt lat="45.96683248125478" lon="13.33159301096614"><ele>52.0</ele><time>2026-04-01T16:44:19Z</time></trkpt><trkpt lat="45.96657751609057" lon="13.33165876867916"><ele>51.5</ele><time>2026-04-01T16:44:20Z</time></trkpt><trkpt lat="45.96632751350826" lon="13.331726869175569"><ele>51.0</ele><time>2026-04-01T16:44:21Z</time></trkpt><trkpt lat="45.9660827443303" lon="13.331808255091813"><ele>51.0</ele><time>2026-04-01T16:44:22Z</time></trkpt><trkpt lat="45.96584153435053" lon="13.331911796936044"><ele>51.0</ele><time>2026-04-01T16:44:23Z</time></trkpt><trkpt lat="45.96560586558131" lon="13.332043673023838"><ele>51.0</ele><time>2026-04-01T16:44:24Z</time></trkpt><trkpt lat="45.96537015911891" lon="13.332182056400258"><ele>51.0</ele><time>2026-04-01T16:44:25Z</time></trkpt><trkpt lat="45.965134167770756" lon="13.332329941319589"><ele>51.5</ele><time>2026-04-01T16:44:26Z</time></trkpt><trkpt lat="45.96489583712173" lon="13.332477205964162"><ele>52.0</ele><time>2026-04-01T16:44:27Z</time></trkpt><trkpt lat="45.96465568025313" lon="13.332627500769263"><ele>52.0</ele><time>2026-04-01T16:44:28Z</time></trkpt><trkpt lat="45.964408677383204" lon="13.332785556909922"><ele>52.0</ele><time>2026-04-01T16:44:29Z</time></trkpt><trkpt lat="45.964146440357815" lon="13.33294885769207"><ele>50.5</ele><time>2026-04-01T16:44:30Z</time></trkpt><trkpt lat="45.96387226590487" lon="13.33312323314329"><ele>49.0</ele><time>2026-04-01T16:44:31Z</time></trkpt><trkpt lat="45.963583441723394" lon="13.333306896091717"><ele>49.0</ele><time>2026-04-01T16:44:32Z</time></trkpt><trkpt lat="45.963285500960026" lon="13.333497364022605"><ele>49.0</ele><time>2026-04-01T16:44:33Z</time></trkpt><trkpt lat="45.96298726939526" lon="13.333690164438316"><ele>49.0</ele><time>2026-04-01T16:44:34Z</time></trkpt><trkpt lat="45.96269911391096" lon="13.33387323257175"><ele>49.0</ele><time>2026-04-01T16:44:35Z</time></trkpt><trkpt lat="45.96242475593451" lon="13.3340451261396"><ele>48.0</ele><time>2026-04-01T16:44:35.999Z</time></trkpt><trkpt lat="45.962160290775785" lon="13.334212629286409"><ele>47.0</ele><time>2026-04-01T16:44:36.999Z</time></trkpt><trkpt lat="45.96190445405132" lon="13.334376267645817"><ele>47.5</ele><time>2026-04-01T16:44:37.999Z</time></trkpt><trkpt lat="45.961650364556554" lon="13.334531010363422"><ele>48.0</ele><time>2026-04-01T16:44:38.999Z</time></trkpt><trkpt lat="45.961396030706766" lon="13.334665636723672"><ele>47.5</ele><time>2026-04-01T16:44:39.999Z</time></trkpt><trkpt lat="45.961133759379" lon="13.334772413985345"><ele>47.0</ele><time>2026-04-01T16:44:40.999Z</time></trkpt><trkpt lat="45.96086505619313" lon="13.33485550401646"><ele>48.0</ele><time>2026-04-01T16:44:41.999Z</time></trkpt><trkpt lat="45.960590107502156" lon="13.334933758867182"><ele>49.0</ele><time>2026-04-01T16:44:42.999Z</time></trkpt><trkpt lat="45.96031791514904" lon="13.33502107542279"><ele>49.0</ele><time>2026-04-01T16:44:43.999Z</time></trkpt><trkpt lat="45.960046775133094" lon="13.335100072368702"><ele>49.0</ele><time>2026-04-01T16:44:44.999Z</time></trkpt><trkpt lat="45.95977784543171" lon="13.335178687330464"><ele>47.5</ele><time>2026-04-01T16:44:45.999Z</time></trkpt><trkpt lat="45.95951668932714" lon="13.335255765073644"><ele>46.0</ele><time>2026-04-01T16:44:46.999Z</time></trkpt><trkpt lat="45.9592631999255" lon="13.33532884076581"><ele>45.5</ele><time>2026-04-01T16:44:47.999Z</time></trkpt><trkpt lat="45.95901978435313" lon="13.335402049930563"><ele>45.0</ele><time>2026-04-01T16:44:48.999Z</time></trkpt><trkpt lat="45.95879397070711" lon="13.335469342193491"><ele>45.0</ele><time>2026-04-01T16:44:49.999Z</time></trkpt><trkpt lat="45.9585843590819" lon="13.335535524533269"><ele>45.0</ele><time>2026-04-01T16:44:50.999Z</time></trkpt><trkpt lat="45.95839292284766" lon="13.335606698744408"><ele>45.0</ele><time>2026-04-01T16:44:51.999Z</time></trkpt><trkpt lat="45.958220513808165" lon="13.335690852872892"><ele>45.666666666666664</ele><time>2026-04-01T16:44:52.999Z</time></trkpt><trkpt lat="45.95806011399754" lon="13.335789318997842"><ele>46.33333333333333</ele><time>2026-04-01T16:44:53.999Z</time></trkpt><trkpt lat="45.95789807203737" lon="13.335886164574974"><ele>47.0</ele><time>2026-04-01T16:44:54.999Z</time></trkpt><trkpt lat="45.95773476718024" lon="13.335976422107732"><ele>47.0</ele><time>2026-04-01T16:44:55.999Z</time></trkpt><trkpt lat="45.9575745198645" lon="13.336070731143954"><ele>47.0</ele><time>2026-04-01T16:44:56.999Z</time></trkpt><trkpt lat="45.95741629993695" lon="13.33616740539159"><ele>47.0</ele><time>2026-04-01T16:44:57.999Z</time></trkpt><trkpt lat="45.95725729859669" lon="13.336268604440148"><ele>47.33333333333333</ele><time>2026-04-01T16:44:58.999Z</time></trkpt><trkpt lat="45.95709564005148" lon="13.3363829115489"><ele>47.666666666666664</ele><time>2026-04-01T16:44:59.999Z</time></trkpt><trkpt lat="45.95693261522858" lon="13.336503517242242"><ele>48.0</ele><time>2026-04-01T16:45:00.999Z</time></trkpt><trkpt lat="45.95676723426058" lon="13.336632172503055"><ele>47.666666666666664</ele><time>2026-04-01T16:45:01.999Z</time></trkpt><trkpt lat="45.95660380221243" lon="13.336755046833579"><ele>47.33333333333333</ele><time>2026-04-01T16:45:02.999Z</time></trkpt><trkpt lat="45.9564274082834" lon="13.336877277035956"><ele>47.0</ele><time>2026-04-01T16:45:03.999Z</time></trkpt><trkpt lat="45.95624144119387" lon="13.33700958288572"><ele>47.0</ele><time>2026-04-01T16:45:04.999Z</time></trkpt><trkpt lat="45.956048181471665" lon="13.337147512270786"><ele>47.0</ele><time>2026-04-01T16:45:05.999Z</time></trkpt><trkpt lat="45.955849877950925" lon="13.33729422568899"><ele>47.0</ele><time>2026-04-01T16:45:06.999Z</time></trkpt><trkpt lat="45.95564818399088" lon="13.33745014124501"><ele>47.0</ele><time>2026-04-01T16:45:07.999Z</time></trkpt><trkpt lat="45.95543870901577" lon="13.337603598728041"><ele>47.0</ele><time>2026-04-01T16:45:08.999Z</time></trkpt><trkpt lat="45.95522179486701" lon="13.337746135594841"><ele>46.5</ele><time>2026-04-01T16:45:09.999Z</time></trkpt><trkpt lat="45.95500173561019" lon="13.337883828462152"><ele>46.0</ele><time>2026-04-01T16:45:10.999Z</time></trkpt><trkpt lat="45.95478038382448" lon="13.338026858425975"><ele>45.5</ele><time>2026-04-01T16:45:11.999Z</time></trkpt><trkpt lat="45.95455910203604" lon="13.338178583042815"><ele>45.0</ele><time>2026-04-01T16:45:12.999Z</time></trkpt><trkpt lat="45.9543396803502" lon="13.338329651848845"><ele>46.0</ele><time>2026-04-01T16:45:13.999Z</time></trkpt><trkpt lat="45.95412625163056" lon="13.338474876166536"><ele>47.0</ele><time>2026-04-01T16:45:14.999Z</time></trkpt><trkpt lat="45.953918991233586" lon="13.338620518477178"><ele>47.0</ele><time>2026-04-01T16:45:15.999Z</time></trkpt><trkpt lat="45.9537174009281" lon="13.338760798403976"><ele>47.0</ele><time>2026-04-01T16:45:16.999Z</time></trkpt><trkpt lat="45.953518800721696" lon="13.338896531938655"><ele>47.0</ele><time>2026-04-01T16:45:17.999Z</time></trkpt><trkpt lat="45.95332404854628" lon="13.339032908690081"><ele>47.0</ele><time>2026-04-01T16:45:18.999Z</time></trkpt><trkpt lat="45.95312962182035" lon="13.339167537575515"><ele>47.0</ele><time>2026-04-01T16:45:19.999Z</time></trkpt><trkpt lat="45.952938224974005" lon="13.339300339743811"><ele>47.0</ele><time>2026-04-01T16:45:20.999Z</time></trkpt><trkpt lat="45.952748700952846" lon="13.339433060009046"><ele>47.0</ele><time>2026-04-01T16:45:21.999Z</time></trkpt><trkpt lat="45.95256078919876" lon="13.339565704745125"><ele>47.0</ele><time>2026-04-01T16:45:22.999Z</time></trkpt><trkpt lat="45.952372386605006" lon="13.339696376637493"><ele>47.0</ele><time>2026-04-01T16:45:23.999Z</time></trkpt><trkpt lat="45.95218570056545" lon="13.339825299972931"><ele>46.666666666666664</ele><time>2026-04-01T16:45:24.999Z</time></trkpt><trkpt lat="45.951998282787414" lon="13.339954236608499"><ele>46.333333333333336</ele><time>2026-04-01T16:45:25.999Z</time></trkpt><trkpt lat="45.95181176714003" lon="13.340085040831406"><ele>46.0</ele><time>2026-04-01T16:45:26.999Z</time></trkpt><trkpt lat="45.95162534982226" lon="13.340215994959047"><ele>46.0</ele><time>2026-04-01T16:45:27.999Z</time></trkpt><trkpt lat="45.95143962743354" lon="13.340348809386063"><ele>46.0</ele><time>2026-04-01T16:45:28.999Z</time></trkpt><trkpt lat="45.95125615424757" lon="13.340486016101368"><ele>46.0</ele><time>2026-04-01T16:45:29.999Z</time></trkpt><trkpt lat="45.9510790017607" lon="13.340633945170266"><ele>46.0</ele><time>2026-04-01T16:45:30.999Z</time></trkpt><trkpt lat="45.950904872964344" lon="13.34078913614155"><ele>46.0</ele><time>2026-04-01T16:45:31.999Z</time></trkpt><trkpt lat="45.95073275122331" lon="13.340946908562147"><ele>46.0</ele><time>2026-04-01T16:45:33Z</time></trkpt><trkpt lat="45.950562096625305" lon="13.341111373663006"><ele>46.0</ele><time>2026-04-01T16:45:34Z</time></trkpt><trkpt lat="45.95039611183684" lon="13.341283193344157"><ele>46.0</ele><time>2026-04-01T16:45:35Z</time></trkpt><trkpt lat="45.950229460900225" lon="13.341456138945661"><ele>46.0</ele><time>2026-04-01T16:45:36Z</time></trkpt><trkpt lat="45.95006336306951" lon="13.34163106436803"><ele>45.66666666666667</ele><time>2026-04-01T16:45:37Z</time></trkpt><trkpt lat="45.949897454792094" lon="13.341804752073504"><ele>45.333333333333336</ele><time>2026-04-01T16:45:38Z</time></trkpt><trkpt lat="45.94972989064843" lon="13.34198513956653"><ele>45.0</ele><time>2026-04-01T16:45:39Z</time></trkpt><trkpt lat="45.94956360766732" lon="13.342179508112691"><ele>45.0</ele><time>2026-04-01T16:45:40Z</time></trkpt><trkpt lat="45.949404469997525" lon="13.342397695973903"><ele>45.0</ele><time>2026-04-01T16:45:41Z</time></trkpt><trkpt lat="45.9492506498536" lon="13.342630977058915"><ele>45.0</ele><time>2026-04-01T16:45:42Z</time></trkpt><trkpt lat="45.94910301667927" lon="13.342883128388191"><ele>44.0</ele><time>2026-04-01T16:45:43Z</time></trkpt><trkpt lat="45.94896113113618" lon="13.343150500338458"><ele>43.0</ele><time>2026-04-01T16:45:44Z</time></trkpt><trkpt lat="45.94881441975585" lon="13.343438750218334"><ele>43.0</ele><time>2026-04-01T16:45:45Z</time></trkpt><trkpt lat="45.94865565550886" lon="13.34374258212457"><ele>43.0</ele><time>2026-04-01T16:45:46Z</time></trkpt><trkpt lat="45.94849008982652" lon="13.344058393552274"><ele>43.5</ele><time>2026-04-01T16:45:47Z</time></trkpt><trkpt lat="45.94831716803833" lon="13.344390421550493"><ele>44.0</ele><time>2026-04-01T16:45:48Z</time></trkpt><trkpt lat="45.9481467310808" lon="13.34472675716292"><ele>43.0</ele><time>2026-04-01T16:45:49Z</time></trkpt><trkpt lat="45.94797756224153" lon="13.345054569906221"><ele>42.0</ele><time>2026-04-01T16:45:50Z</time></trkpt><trkpt lat="45.947816931138235" lon="13.34536277334797"><ele>41.5</ele><time>2026-04-01T16:45:51Z</time></trkpt><trkpt lat="45.94766155321267" lon="13.345649511748928"><ele>41.0</ele><time>2026-04-01T16:45:52Z</time></trkpt><trkpt lat="45.94750060990869" lon="13.345909731709545"><ele>41.0</ele><time>2026-04-01T16:45:53Z</time></trkpt><trkpt lat="45.947313071103" lon="13.346131552392222"><ele>41.0</ele><time>2026-04-01T16:45:54Z</time></trkpt><trkpt lat="45.94710313052173" lon="13.34632084626521"><ele>41.5</ele><time>2026-04-01T16:45:55Z</time></trkpt><trkpt lat="45.946856746443395" lon="13.34644651682435"><ele>42.0</ele><time>2026-04-01T16:45:56Z</time></trkpt><trkpt lat="45.94659697029398" lon="13.346600589671173"><ele>42.0</ele><time>2026-04-01T16:45:57Z</time></trkpt><trkpt lat="45.946326214474716" lon="13.346729798162462"><ele>42.0</ele><time>2026-04-01T16:45:58Z</time></trkpt><trkpt lat="45.94605285999191" lon="13.346853550509493"><ele>41.5</ele><time>2026-04-01T16:45:59Z</time></trkpt><trkpt lat="45.94578161901027" lon="13.346984137962771"><ele>41.0</ele><time>2026-04-01T16:46:00Z</time></trkpt><trkpt lat="45.94551568846894" lon="13.347114443649419"><ele>41.5</ele><time>2026-04-01T16:46:01Z</time></trkpt><trkpt lat="45.94525581897508" lon="13.347241457457287"><ele>42.0</ele><time>2026-04-01T16:46:02Z</time></trkpt><trkpt lat="45.94500134626143" lon="13.347367291248094"><ele>42.0</ele><time>2026-04-01T16:46:03Z</time></trkpt><trkpt lat="45.94475198680179" lon="13.347492041306579"><ele>42.0</ele><time>2026-04-01T16:46:04Z</time></trkpt><trkpt lat="45.944505243676744" lon="13.347613354769418"><ele>42.0</ele><time>2026-04-01T16:46:05Z</time></trkpt><trkpt lat="45.94426039347248" lon="13.347733194069935"><ele>42.0</ele><time>2026-04-01T16:46:06Z</time></trkpt><trkpt lat="45.944018814172495" lon="13.347851767593356"><ele>42.0</ele><time>2026-04-01T16:46:07Z</time></trkpt><trkpt lat="45.943780220440665" lon="13.347967666521562"><ele>42.0</ele><time>2026-04-01T16:46:08Z</time></trkpt><trkpt lat="45.94354553115632" lon="13.348082775033282"><ele>41.5</ele><time>2026-04-01T16:46:09Z</time></trkpt><trkpt lat="45.943313851318926" lon="13.348197790850518"><ele>41.0</ele><time>2026-04-01T16:46:10Z</time></trkpt><trkpt lat="45.943086106906726" lon="13.348309245223302"><ele>41.0</ele><time>2026-04-01T16:46:11Z</time></trkpt><trkpt lat="45.942874132387544" lon="13.348406994226584"><ele>41.0</ele><time>2026-04-01T16:46:12Z</time></trkpt><trkpt lat="45.94267813815226" lon="13.348500498268505"><ele>41.0</ele><time>2026-04-01T16:46:13Z</time></trkpt><trkpt lat="45.94249053673623" lon="13.348605661207774"><ele>41.0</ele><time>2026-04-01T16:46:14Z</time></trkpt><trkpt lat="45.94230974155125" lon="13.348743378093603"><ele>41.0</ele><time>2026-04-01T16:46:15Z</time></trkpt><trkpt lat="45.9421372077177" lon="13.348893568054454"><ele>41.0</ele><time>2026-04-01T16:46:16Z</time></trkpt><trkpt lat="45.94200265824229" lon="13.349127492472507"><ele>40.33333333333333</ele><time>2026-04-01T16:46:17Z</time></trkpt><trkpt lat="45.94187466322964" lon="13.349366621154314"><ele>39.666666666666664</ele><time>2026-04-01T16:46:18Z</time></trkpt><trkpt lat="45.941771098421405" lon="13.349634850985746"><ele>39.0</ele><time>2026-04-01T16:46:19Z</time></trkpt><trkpt lat="45.941694525725104" lon="13.349929728792107"><ele>39.0</ele><time>2026-04-01T16:46:20Z</time></trkpt><trkpt lat="45.941635691817325" lon="13.35024248127237"><ele>39.0</ele><time>2026-04-01T16:46:21Z</time></trkpt><trkpt lat="45.941579439741226" lon="13.350566137768936"><ele>39.5</ele><time>2026-04-01T16:46:22Z</time></trkpt><trkpt lat="45.94152176323772" lon="13.350900750673604"><ele>40.0</ele><time>2026-04-01T16:46:23Z</time></trkpt><trkpt lat="45.941462477439295" lon="13.351243945831785"><ele>40.5</ele><time>2026-04-01T16:46:24Z</time></trkpt><trkpt lat="45.941402032055045" lon="13.351590066627507"><ele>41.0</ele><time>2026-04-01T16:46:25Z</time></trkpt><trkpt lat="45.941343352895124" lon="13.351938566616683"><ele>40.5</ele><time>2026-04-01T16:46:26Z</time></trkpt><trkpt lat="45.94128563427358" lon="13.352285511462123"><ele>40.0</ele><time>2026-04-01T16:46:27Z</time></trkpt><trkpt lat="45.941229865705544" lon="13.352618647675913"><ele>40.0</ele><time>2026-04-01T16:46:28Z</time></trkpt><trkpt lat="45.94117375843685" lon="13.352947145131687"><ele>40.0</ele><time>2026-04-01T16:46:29Z</time></trkpt><trkpt lat="45.94111737115116" lon="13.353265055095326"><ele>39.66666666666667</ele><time>2026-04-01T16:46:30Z</time></trkpt><trkpt lat="45.94106282961205" lon="13.353558023998872"><ele>39.333333333333336</ele><time>2026-04-01T16:46:31Z</time></trkpt><trkpt lat="45.941001869924314" lon="13.353840509919754"><ele>39.0</ele><time>2026-04-01T16:46:32Z</time></trkpt><trkpt lat="45.94091934696945" lon="13.354121389543149"><ele>38.5</ele><time>2026-04-01T16:46:33Z</time></trkpt><trkpt lat="45.9408109033953" lon="13.354411835860263"><ele>38.0</ele><time>2026-04-01T16:46:34Z</time></trkpt><trkpt lat="45.94069569720521" lon="13.354697269731957"><ele>38.0</ele><time>2026-04-01T16:46:35Z</time></trkpt><trkpt lat="45.94056644023866" lon="13.354963217725796"><ele>38.0</ele><time>2026-04-01T16:46:36Z</time></trkpt><trkpt lat="45.94044078802278" lon="13.355258750875354"><ele>38.5</ele><time>2026-04-01T16:46:37Z</time></trkpt><trkpt lat="45.94030585723534" lon="13.3555723902709"><ele>39.0</ele><time>2026-04-01T16:46:38Z</time></trkpt><trkpt lat="45.94016659955508" lon="13.355892554168507"><ele>39.0</ele><time>2026-04-01T16:46:39Z</time></trkpt><trkpt lat="45.93999089739936" lon="13.356155712812274"><ele>39.0</ele><time>2026-04-01T16:46:40Z</time></trkpt><trkpt lat="45.93978033097348" lon="13.356378187801996"><ele>39.0</ele><time>2026-04-01T16:46:40.999Z</time></trkpt><trkpt lat="45.93956852768477" lon="13.356587769847568"><ele>39.0</ele><time>2026-04-01T16:46:41.999Z</time></trkpt><trkpt lat="45.93937845978646" lon="13.356789465046646"><ele>39.0</ele><time>2026-04-01T16:46:42.999Z</time></trkpt><trkpt lat="45.93919714444771" lon="13.35701772989667"><ele>39.0</ele><time>2026-04-01T16:46:43.999Z</time></trkpt><trkpt lat="45.93903402671115" lon="13.357280354566118"><ele>38.5</ele><time>2026-04-01T16:46:44.999Z</time></trkpt><trkpt lat="45.938873189281914" lon="13.35757119541581"><ele>38.0</ele><time>2026-04-01T16:46:45.999Z</time></trkpt><trkpt lat="45.93875756011215" lon="13.357919614621656"><ele>38.5</ele><time>2026-04-01T16:46:46.999Z</time></trkpt><trkpt lat="45.938636534551804" lon="13.358288316950892"><ele>39.0</ele><time>2026-04-01T16:46:47.999Z</time></trkpt><trkpt lat="45.9385076566762" lon="13.358687287038803"><ele>38.5</ele><time>2026-04-01T16:46:48.999Z</time></trkpt><trkpt lat="45.93836546180058" lon="13.3591243130519"><ele>38.0</ele><time>2026-04-01T16:46:49.999Z</time></trkpt><trkpt lat="45.93821410984323" lon="13.359587607365105"><ele>38.0</ele><time>2026-04-01T16:46:50.999Z</time></trkpt><trkpt lat="45.93806000559133" lon="13.360067588393042"><ele>38.0</ele><time>2026-04-01T16:46:51.999Z</time></trkpt><trkpt lat="45.937916868150005" lon="13.360559209487281"><ele>38.0</ele><time>2026-04-01T16:46:52.999Z</time></trkpt><trkpt lat="45.93779629350821" lon="13.361074254323748"><ele>38.0</ele><time>2026-04-01T16:46:53.999Z</time></trkpt><trkpt lat="45.93769414171354" lon="13.361587480678324"><ele>38.0</ele><time>2026-04-01T16:46:54.999Z</time></trkpt><trkpt lat="45.93760599563731" lon="13.362046875202573"><ele>38.0</ele><time>2026-04-01T16:46:55.999Z</time></trkpt><trkpt lat="45.937522724557056" lon="13.362469196854235"><ele>38.0</ele><time>2026-04-01T16:46:56.999Z</time></trkpt><trkpt lat="45.937448540461595" lon="13.362858794874054"><ele>38.0</ele><time>2026-04-01T16:46:57.999Z</time></trkpt><trkpt lat="45.937381699973415" lon="13.363212588540218"><ele>38.0</ele><time>2026-04-01T16:46:58.999Z</time></trkpt><trkpt lat="45.93732551468495" lon="13.36351592632062"><ele>38.0</ele><time>2026-04-01T16:46:59.999Z</time></trkpt><trkpt lat="45.93726905658205" lon="13.363785281269562"><ele>38.0</ele><time>2026-04-01T16:47:00.999Z</time></trkpt><trkpt lat="45.93719802450666" lon="13.364021061650144"><ele>39.0</ele><time>2026-04-01T16:47:01.999Z</time></trkpt><trkpt lat="45.93709789872715" lon="13.364243546683394"><ele>40.0</ele><time>2026-04-01T16:47:02.999Z</time></trkpt><trkpt lat="45.93696554118231" lon="13.364441426225131"><ele>41.0</ele><time>2026-04-01T16:47:03.999Z</time></trkpt><trkpt lat="45.93680970504428" lon="13.364608112539655"><ele>40.0</ele><time>2026-04-01T16:47:04.999Z</time></trkpt><trkpt lat="45.93663763616903" lon="13.364736034740229"><ele>39.0</ele><time>2026-04-01T16:47:05.999Z</time></trkpt><trkpt lat="45.93643800321202" lon="13.364825601717879"><ele>38.0</ele><time>2026-04-01T16:47:06.999Z</time></trkpt><trkpt lat="45.93620327195437" lon="13.364880246147496"><ele>38.0</ele><time>2026-04-01T16:47:07.999Z</time></trkpt><trkpt lat="45.93592923604116" lon="13.364922834193571"><ele>38.0</ele><time>2026-04-01T16:47:08.999Z</time></trkpt><trkpt lat="45.935620569346156" lon="13.364965356163541"><ele>37.5</ele><time>2026-04-01T16:47:09.999Z</time></trkpt><trkpt lat="45.93528677107151" lon="13.365015053138046"><ele>37.0</ele><time>2026-04-01T16:47:10.999Z</time></trkpt><trkpt lat="45.934933203579526" lon="13.365071886604605"><ele>37.0</ele><time>2026-04-01T16:47:11.999Z</time></trkpt><trkpt lat="45.934575774926955" lon="13.365132036135734"><ele>37.0</ele><time>2026-04-01T16:47:12.999Z</time></trkpt><trkpt lat="45.934228923651666" lon="13.365195035159706"><ele>37.0</ele><time>2026-04-01T16:47:13.999Z</time></trkpt><trkpt lat="45.93388702527139" lon="13.365251762130963"><ele>37.0</ele><time>2026-04-01T16:47:14.999Z</time></trkpt><trkpt lat="45.933551430410354" lon="13.365310498482184"><ele>36.0</ele><time>2026-04-01T16:47:15.999Z</time></trkpt><trkpt lat="45.93322593320212" lon="13.365370788648336"><ele>35.0</ele><time>2026-04-01T16:47:16.999Z</time></trkpt><trkpt lat="45.932913068665094" lon="13.365426450066058"><ele>35.0</ele><time>2026-04-01T16:47:17.999Z</time></trkpt><trkpt lat="45.93261184807203" lon="13.365477963731344"><ele>35.0</ele><time>2026-04-01T16:47:18.999Z</time></trkpt><trkpt lat="45.93231749520493" lon="13.365539515190882"><ele>35.0</ele><time>2026-04-01T16:47:19.999Z</time></trkpt><trkpt lat="45.93202106557769" lon="13.365637307512031"><ele>35.0</ele><time>2026-04-01T16:47:20.999Z</time></trkpt><trkpt lat="45.931721049754444" lon="13.365763066090139"><ele>35.0</ele><time>2026-04-01T16:47:21.999Z</time></trkpt><trkpt lat="45.931417794338216" lon="13.365901640865998"><ele>35.0</ele><time>2026-04-01T16:47:22.999Z</time></trkpt><trkpt lat="45.93111202700294" lon="13.366032909561584"><ele>35.0</ele><time>2026-04-01T16:47:23.999Z</time></trkpt><trkpt lat="45.930809459688405" lon="13.366163004440573"><ele>35.0</ele><time>2026-04-01T16:47:24.999Z</time></trkpt><trkpt lat="45.930508257830695" lon="13.36629606090067"><ele>35.0</ele><time>2026-04-01T16:47:25.999Z</time></trkpt><trkpt lat="45.93020846861283" lon="13.366426691410716"><ele>35.0</ele><time>2026-04-01T16:47:26.999Z</time></trkpt><trkpt lat="45.929911197990236" lon="13.366557303448957"><ele>35.0</ele><time>2026-04-01T16:47:27.999Z</time></trkpt><trkpt lat="45.92961848297717" lon="13.366687765293294"><ele>35.0</ele><time>2026-04-01T16:47:28.999Z</time></trkpt><trkpt lat="45.929328678812524" lon="13.36681699724553"><ele>34.5</ele><time>2026-04-01T16:47:29.999Z</time></trkpt><trkpt lat="45.929041711846985" lon="13.366942775322642"><ele>34.0</ele><time>2026-04-01T16:47:30.999Z</time></trkpt><trkpt lat="45.92876006460512" lon="13.367072531182819"><ele>34.0</ele><time>2026-04-01T16:47:31.999Z</time></trkpt><trkpt lat="45.9284874067429" lon="13.367198804996944"><ele>34.0</ele><time>2026-04-01T16:47:32.999Z</time></trkpt><trkpt lat="45.928222764295796" lon="13.367334251925794"><ele>34.0</ele><time>2026-04-01T16:47:33.999Z</time></trkpt><trkpt lat="45.927968654352334" lon="13.36749418485305"><ele>34.0</ele><time>2026-04-01T16:47:34.999Z</time></trkpt><trkpt lat="45.927726605027864" lon="13.367681684341441"><ele>34.0</ele><time>2026-04-01T16:47:35.999Z</time></trkpt><trkpt lat="45.927494144767564" lon="13.367894288497949"><ele>34.0</ele><time>2026-04-01T16:47:36.999Z</time></trkpt><trkpt lat="45.92726245484917" lon="13.368113035200496"><ele>34.0</ele><time>2026-04-01T16:47:37.999Z</time></trkpt><trkpt lat="45.92702602231289" lon="13.368319654536604"><ele>34.0</ele><time>2026-04-01T16:47:39Z</time></trkpt><trkpt lat="45.92679539685203" lon="13.368531336368745"><ele>34.0</ele><time>2026-04-01T16:47:40Z</time></trkpt><trkpt lat="45.9265716116354" lon="13.368739932773858"><ele>34.0</ele><time>2026-04-01T16:47:41Z</time></trkpt><trkpt lat="45.926346263958884" lon="13.368955483546728"><ele>34.0</ele><time>2026-04-01T16:47:42Z</time></trkpt><trkpt lat="45.926116337251834" lon="13.369170452182297"><ele>34.0</ele><time>2026-04-01T16:47:43Z</time></trkpt><trkpt lat="45.925886910791604" lon="13.36938474727032"><ele>34.0</ele><time>2026-04-01T16:47:44Z</time></trkpt><trkpt lat="45.92566587135148" lon="13.369581379419431"><ele>34.0</ele><time>2026-04-01T16:47:45Z</time></trkpt><trkpt lat="45.92543571272594" lon="13.369780435599326"><ele>34.0</ele><time>2026-04-01T16:47:46Z</time></trkpt><trkpt lat="45.925210252954855" lon="13.369980101300474"><ele>34.0</ele><time>2026-04-01T16:47:47Z</time></trkpt><trkpt lat="45.92498252551631" lon="13.370198761025389"><ele>33.5</ele><time>2026-04-01T16:47:48Z</time></trkpt><trkpt lat="45.92474819736297" lon="13.370430882562157"><ele>33.0</ele><time>2026-04-01T16:47:49Z</time></trkpt><trkpt lat="45.924503965176434" lon="13.370641261641111"><ele>33.0</ele><time>2026-04-01T16:47:50Z</time></trkpt><trkpt lat="45.92426120673825" lon="13.37085167374225"><ele>33.0</ele><time>2026-04-01T16:47:51Z</time></trkpt><trkpt lat="45.92402039219449" lon="13.37105201636673"><ele>33.0</ele><time>2026-04-01T16:47:52Z</time></trkpt><trkpt lat="45.92377862271595" lon="13.371238230018518"><ele>33.0</ele><time>2026-04-01T16:47:53Z</time></trkpt><trkpt lat="45.923541685144905" lon="13.371436862021943"><ele>33.0</ele><time>2026-04-01T16:47:54Z</time></trkpt><trkpt lat="45.9233113438673" lon="13.371646099096214"><ele>33.0</ele><time>2026-04-01T16:47:55Z</time></trkpt><trkpt lat="45.92307918499351" lon="13.371850323276659"><ele>33.0</ele><time>2026-04-01T16:47:56Z</time></trkpt><trkpt lat="45.92285308336103" lon="13.372042078991251"><ele>33.0</ele><time>2026-04-01T16:47:57Z</time></trkpt><trkpt lat="45.92263156771424" lon="13.372235584070204"><ele>33.5</ele><time>2026-04-01T16:47:58Z</time></trkpt><trkpt lat="45.92242845161054" lon="13.372412590778126"><ele>34.0</ele><time>2026-04-01T16:47:59Z</time></trkpt><trkpt lat="45.9222461099119" lon="13.372571423300915"><ele>34.0</ele><time>2026-04-01T16:48:00Z</time></trkpt><trkpt lat="45.92208548875152" lon="13.372706554653258"><ele>34.0</ele><time>2026-04-01T16:48:01Z</time></trkpt><trkpt lat="45.92195110984571" lon="13.37281860135812"><ele>34.0</ele><time>2026-04-01T16:48:02Z</time></trkpt><trkpt lat="45.92184118071086" lon="13.3729047367759"><ele>34.0</ele><time>2026-04-01T16:48:03Z</time></trkpt><trkpt lat="45.921737440822774" lon="13.372960347204534"><ele>34.0</ele><time>2026-04-01T16:48:04Z</time></trkpt><trkpt lat="45.92162613503758" lon="13.372980463093366"><ele>34.0</ele><time>2026-04-01T16:48:05Z</time></trkpt><trkpt lat="45.921498333290415" lon="13.373015797014983"><ele>34.0</ele><time>2026-04-01T16:48:06Z</time></trkpt><trkpt lat="45.92137836851259" lon="13.373085382091086"><ele>33.333333333333336</ele><time>2026-04-01T16:48:07Z</time></trkpt><trkpt lat="45.921290234051504" lon="13.373278173267277"><ele>32.666666666666664</ele><time>2026-04-01T16:48:08Z</time></trkpt><trkpt lat="45.92115048393725" lon="13.373486733520119"><ele>32.0</ele><time>2026-04-01T16:48:09Z</time></trkpt><trkpt lat="45.920949868220994" lon="13.373695624890283"><ele>32.0</ele><time>2026-04-01T16:48:10Z</time></trkpt><trkpt lat="45.92070809626698" lon="13.373894897902128"><ele>32.0</ele><time>2026-04-01T16:48:11Z</time></trkpt><trkpt lat="45.92044477345261" lon="13.374109560891979"><ele>32.0</ele><time>2026-04-01T16:48:12Z</time></trkpt><trkpt lat="45.9201783979879" lon="13.374368524958127"><ele>32.0</ele><time>2026-04-01T16:48:13Z</time></trkpt><trkpt lat="45.91991781851343" lon="13.37463529919459"><ele>31.5</ele><time>2026-04-01T16:48:14Z</time></trkpt><trkpt lat="45.91967152452129" lon="13.374893438110353"><ele>31.0</ele><time>2026-04-01T16:48:15Z</time></trkpt><trkpt lat="45.919435461662175" lon="13.375136089913147"><ele>31.0</ele><time>2026-04-01T16:48:16Z</time></trkpt><trkpt lat="45.919217852554155" lon="13.375348466253637"><ele>31.0</ele><time>2026-04-01T16:48:17Z</time></trkpt><trkpt lat="45.919014662912005" lon="13.375528245664572"><ele>31.5</ele><time>2026-04-01T16:48:18Z</time></trkpt><trkpt lat="45.91880545371564" lon="13.375668893080062"><ele>32.0</ele><time>2026-04-01T16:48:19Z</time></trkpt><trkpt lat="45.91858566637993" lon="13.375780050494768"><ele>32.0</ele><time>2026-04-01T16:48:20Z</time></trkpt><trkpt lat="45.91835025216165" lon="13.375844961528294"><ele>32.0</ele><time>2026-04-01T16:48:21Z</time></trkpt><trkpt lat="45.91810281925085" lon="13.375892387665449"><ele>32.0</ele><time>2026-04-01T16:48:22Z</time></trkpt><trkpt lat="45.91785129216707" lon="13.375943121670682"><ele>32.0</ele><time>2026-04-01T16:48:23Z</time></trkpt><trkpt lat="45.91761390447454" lon="13.3759816703185"><ele>31.333333333333332</ele><time>2026-04-01T16:48:24Z</time></trkpt><trkpt lat="45.917390592101256" lon="13.37602643490113"><ele>30.666666666666664</ele><time>2026-04-01T16:48:25Z</time></trkpt><trkpt lat="45.91717372969683" lon="13.376071123669618"><ele>30.0</ele><time>2026-04-01T16:48:26Z</time></trkpt><trkpt lat="45.91696368990062" lon="13.376102683804332"><ele>30.0</ele><time>2026-04-01T16:48:27Z</time></trkpt><trkpt lat="45.9167579583197" lon="13.376133766635062"><ele>30.0</ele><time>2026-04-01T16:48:28Z</time></trkpt><trkpt lat="45.91655105427373" lon="13.376156308198505"><ele>30.0</ele><time>2026-04-01T16:48:29Z</time></trkpt><trkpt lat="45.91634427150877" lon="13.376158970566896"><ele>31.0</ele><time>2026-04-01T16:48:30Z</time></trkpt><trkpt lat="45.91613834388155" lon="13.376158226492741"><ele>32.0</ele><time>2026-04-01T16:48:31Z</time></trkpt><trkpt lat="45.91593339433577" lon="13.376160957284057"><ele>33.0</ele><time>2026-04-01T16:48:32Z</time></trkpt><trkpt lat="45.91572617511925" lon="13.37617452116427"><ele>33.333333333333336</ele><time>2026-04-01T16:48:33Z</time></trkpt><trkpt lat="45.9155147539138" lon="13.376204329964914"><ele>33.66666666666667</ele><time>2026-04-01T16:48:34Z</time></trkpt><trkpt lat="45.91529838204654" lon="13.376240767873774"><ele>34.0</ele><time>2026-04-01T16:48:35Z</time></trkpt><trkpt lat="45.91507914030369" lon="13.37627803731815"><ele>33.66666666666667</ele><time>2026-04-01T16:48:36Z</time></trkpt><trkpt lat="45.91485642724811" lon="13.376310895531509"><ele>33.333333333333336</ele><time>2026-04-01T16:48:37Z</time></trkpt><trkpt lat="45.91463484685796" lon="13.37635102572749"><ele>33.0</ele><time>2026-04-01T16:48:38Z</time></trkpt><trkpt lat="45.91442352841215" lon="13.376393785269551"><ele>33.0</ele><time>2026-04-01T16:48:39Z</time></trkpt><trkpt lat="45.91421951327517" lon="13.376441894239377"><ele>33.0</ele><time>2026-04-01T16:48:40Z</time></trkpt><trkpt lat="45.91401873237226" lon="13.376504034693758"><ele>33.0</ele><time>2026-04-01T16:48:41Z</time></trkpt><trkpt lat="45.91382713995781" lon="13.376587948323989"><ele>33.0</ele><time>2026-04-01T16:48:42Z</time></trkpt><trkpt lat="45.91364907196544" lon="13.376668198047934"><ele>33.0</ele><time>2026-04-01T16:48:42.999Z</time></trkpt><trkpt lat="45.913482105138485" lon="13.376733105902293"><ele>33.0</ele><time>2026-04-01T16:48:43.999Z</time></trkpt><trkpt lat="45.91331332027238" lon="13.376781574711817"><ele>33.333333333333336</ele><time>2026-04-01T16:48:44.999Z</time></trkpt><trkpt lat="45.91316078556048" lon="13.376841256874984"><ele>33.66666666666667</ele><time>2026-04-01T16:48:45.999Z</time></trkpt><trkpt lat="45.91300976957123" lon="13.376936919141697"><ele>34.0</ele><time>2026-04-01T16:48:46.999Z</time></trkpt><trkpt lat="45.912858854381106" lon="13.377080072992486"><ele>33.66666666666667</ele><time>2026-04-01T16:48:47.999Z</time></trkpt><trkpt lat="45.91269779778158" lon="13.377248043129814"><ele>33.333333333333336</ele><time>2026-04-01T16:48:48.999Z</time></trkpt><trkpt lat="45.912524859216475" lon="13.377424534449837"><ele>33.0</ele><time>2026-04-01T16:48:49.999Z</time></trkpt><trkpt lat="45.91233916270799" lon="13.377615153732789"><ele>32.5</ele><time>2026-04-01T16:48:50.999Z</time></trkpt><trkpt lat="45.91214681807833" lon="13.37781064784193"><ele>32.0</ele><time>2026-04-01T16:48:51.999Z</time></trkpt><trkpt lat="45.91195192893799" lon="13.37801089742863"><ele>31.5</ele><time>2026-04-01T16:48:52.999Z</time></trkpt><trkpt lat="45.911761853502085" lon="13.37820417773362"><ele>31.0</ele><time>2026-04-01T16:48:53.999Z</time></trkpt><trkpt lat="45.911569155374465" lon="13.378374113300124"><ele>31.0</ele><time>2026-04-01T16:48:54.999Z</time></trkpt><trkpt lat="45.9113637241866" lon="13.378505647782713"><ele>31.0</ele><time>2026-04-01T16:48:55.999Z</time></trkpt><trkpt lat="45.91114040467168" lon="13.378597130245442"><ele>30.5</ele><time>2026-04-01T16:48:56.999Z</time></trkpt><trkpt lat="45.91090719473315" lon="13.378661341934224"><ele>30.0</ele><time>2026-04-01T16:48:57.999Z</time></trkpt><trkpt lat="45.910666378188346" lon="13.378685638515336"><ele>30.0</ele><time>2026-04-01T16:48:58.999Z</time></trkpt><trkpt lat="45.91041821108516" lon="13.378678348841943"><ele>30.0</ele><time>2026-04-01T16:48:59.999Z</time></trkpt><trkpt lat="45.91015786592397" lon="13.378649529499853"><ele>29.0</ele><time>2026-04-01T16:49:00.999Z</time></trkpt><trkpt lat="45.90987762486559" lon="13.378634511847862"><ele>28.0</ele><time>2026-04-01T16:49:01.999Z</time></trkpt><trkpt lat="45.90958931528368" lon="13.378627989620455"><ele>28.0</ele><time>2026-04-01T16:49:02.999Z</time></trkpt><trkpt lat="45.90929058456585" lon="13.37864461575423"><ele>28.0</ele><time>2026-04-01T16:49:03.999Z</time></trkpt><trkpt lat="45.908987509842035" lon="13.378675520877609"><ele>28.0</ele><time>2026-04-01T16:49:04.999Z</time></trkpt><trkpt lat="45.90867925914523" lon="13.378720615501708"><ele>28.0</ele><time>2026-04-01T16:49:05.999Z</time></trkpt><trkpt lat="45.90836829593295" lon="13.37878317590515"><ele>28.5</ele><time>2026-04-01T16:49:06.999Z</time></trkpt><trkpt lat="45.908059491963186" lon="13.37885732693422"><ele>29.0</ele><time>2026-04-01T16:49:07.999Z</time></trkpt><trkpt lat="45.90775396506331" lon="13.378965673795284"><ele>29.0</ele><time>2026-04-01T16:49:08.999Z</time></trkpt><trkpt lat="45.90744838562364" lon="13.3790904359459"><ele>29.0</ele><time>2026-04-01T16:49:09.999Z</time></trkpt><trkpt lat="45.90713709417938" lon="13.37921432343895"><ele>29.0</ele><time>2026-04-01T16:49:10.999Z</time></trkpt><trkpt lat="45.90681810780398" lon="13.37931340432577"><ele>29.0</ele><time>2026-04-01T16:49:11.999Z</time></trkpt><trkpt lat="45.90649316716833" lon="13.379378324542593"><ele>29.0</ele><time>2026-04-01T16:49:12.999Z</time></trkpt><trkpt lat="45.906163101195624" lon="13.379409060174016"><ele>29.0</ele><time>2026-04-01T16:49:13.999Z</time></trkpt><trkpt lat="45.90582918173524" lon="13.379449516028979"><ele>28.5</ele><time>2026-04-01T16:49:14.999Z</time></trkpt><trkpt lat="45.90549083278461" lon="13.379489947644478"><ele>28.0</ele><time>2026-04-01T16:49:15.999Z</time></trkpt><trkpt lat="45.90514899465288" lon="13.379531159331169"><ele>27.0</ele><time>2026-04-01T16:49:16.999Z</time></trkpt><trkpt lat="45.90480933087282" lon="13.37957286349399"><ele>26.0</ele><time>2026-04-01T16:49:17.999Z</time></trkpt><trkpt lat="45.904470072961" lon="13.37962469241112"><ele>26.5</ele><time>2026-04-01T16:49:18.999Z</time></trkpt><trkpt lat="45.90413361740505" lon="13.379688779658947"><ele>27.0</ele><time>2026-04-01T16:49:19.999Z</time></trkpt><trkpt lat="45.90379687586081" lon="13.379759554575156"><ele>27.0</ele><time>2026-04-01T16:49:20.999Z</time></trkpt><trkpt lat="45.90346323643571" lon="13.379837025806529"><ele>27.0</ele><time>2026-04-01T16:49:21.999Z</time></trkpt><trkpt lat="45.90312896753428" lon="13.379911937799184"><ele>27.0</ele><time>2026-04-01T16:49:22.999Z</time></trkpt><trkpt lat="45.90279905700979" lon="13.379984832209477"><ele>27.0</ele><time>2026-04-01T16:49:23.999Z</time></trkpt><trkpt lat="45.902472504659855" lon="13.380052757832958"><ele>26.5</ele><time>2026-04-01T16:49:24.999Z</time></trkpt><trkpt lat="45.90215542235463" lon="13.380122108176831"><ele>26.0</ele><time>2026-04-01T16:49:25.999Z</time></trkpt><trkpt lat="45.901839851005356" lon="13.380189217167086"><ele>25.5</ele><time>2026-04-01T16:49:26.999Z</time></trkpt><trkpt lat="45.90152758515615" lon="13.380247778423847"><ele>25.0</ele><time>2026-04-01T16:49:27.999Z</time></trkpt><trkpt lat="45.90122049148387" lon="13.380291299669215"><ele>25.0</ele><time>2026-04-01T16:49:28.999Z</time></trkpt><trkpt lat="45.90092496494372" lon="13.380329990990107"><ele>25.0</ele><time>2026-04-01T16:49:29.999Z</time></trkpt><trkpt lat="45.90065000663555" lon="13.380369360190286"><ele>25.5</ele><time>2026-04-01T16:49:30.999Z</time></trkpt><trkpt lat="45.90039185811029" lon="13.380407537559215"><ele>26.0</ele><time>2026-04-01T16:49:31.999Z</time></trkpt><trkpt lat="45.90015385804589" lon="13.380441379525362"><ele>26.0</ele><time>2026-04-01T16:49:32.999Z</time></trkpt><trkpt lat="45.89992829851901" lon="13.380476591004733"><ele>26.0</ele><time>2026-04-01T16:49:33.999Z</time></trkpt><trkpt lat="45.899722004797084" lon="13.380515543880973"><ele>26.0</ele><time>2026-04-01T16:49:34.999Z</time></trkpt><trkpt lat="45.8995285167938" lon="13.380555323223389"><ele>26.0</ele><time>2026-04-01T16:49:35.999Z</time></trkpt><trkpt lat="45.89935207475237" lon="13.380597464432089"><ele>26.0</ele><time>2026-04-01T16:49:36.999Z</time></trkpt><trkpt lat="45.89919103333919" lon="13.380641950121888"><ele>26.0</ele><time>2026-04-01T16:49:37.999Z</time></trkpt><trkpt lat="45.89903972424588" lon="13.380688378299242"><ele>25.5</ele><time>2026-04-01T16:49:38.999Z</time></trkpt><trkpt lat="45.89889009256126" lon="13.380739988550058"><ele>25.0</ele><time>2026-04-01T16:49:39.999Z</time></trkpt><trkpt lat="45.898747503726085" lon="13.380793312399001"><ele>24.5</ele><time>2026-04-01T16:49:40.999Z</time></trkpt><trkpt lat="45.898617778326276" lon="13.380845697422268"><ele>24.0</ele><time>2026-04-01T16:49:41.999Z</time></trkpt><trkpt lat="45.89848721054571" lon="13.380897590166523"><ele>24.5</ele><time>2026-04-01T16:49:42.999Z</time></trkpt><trkpt lat="45.89835459207446" lon="13.380945257551552"><ele>25.0</ele><time>2026-04-01T16:49:43.999Z</time></trkpt><trkpt lat="45.898220388341734" lon="13.380995583701049"><ele>25.5</ele><time>2026-04-01T16:49:45Z</time></trkpt><trkpt lat="45.898081739671696" lon="13.381054066880115"><ele>26.0</ele><time>2026-04-01T16:49:46Z</time></trkpt><trkpt lat="45.897940147392056" lon="13.381111632285943"><ele>26.0</ele><time>2026-04-01T16:49:47Z</time></trkpt><trkpt lat="45.897796444840644" lon="13.381168734660845"><ele>26.0</ele><time>2026-04-01T16:49:48Z</time></trkpt><trkpt lat="45.89765398459301" lon="13.381230335440302"><ele>26.0</ele><time>2026-04-01T16:49:49Z</time></trkpt><trkpt lat="45.897508679578536" lon="13.38129169975723"><ele>26.0</ele><time>2026-04-01T16:49:50Z</time></trkpt><trkpt lat="45.89735840653527" lon="13.3813512716623"><ele>26.0</ele><time>2026-04-01T16:49:51Z</time></trkpt><trkpt lat="45.89720643870788" lon="13.381411762868016"><ele>26.0</ele><time>2026-04-01T16:49:52Z</time></trkpt><trkpt lat="45.89705397794707" lon="13.381476405484703"><ele>26.0</ele><time>2026-04-01T16:49:53Z</time></trkpt><trkpt lat="45.89689875885077" lon="13.38154395787773"><ele>26.0</ele><time>2026-04-01T16:49:54Z</time></trkpt><trkpt lat="45.896741633680726" lon="13.381613808346348"><ele>26.0</ele><time>2026-04-01T16:49:55Z</time></trkpt><trkpt lat="45.8965837239733" lon="13.381690917316375"><ele>26.0</ele><time>2026-04-01T16:49:56Z</time></trkpt><trkpt lat="45.89642325261544" lon="13.381766841008034"><ele>26.0</ele><time>2026-04-01T16:49:57Z</time></trkpt><trkpt lat="45.89627634565031" lon="13.381833887902252"><ele>26.0</ele><time>2026-04-01T16:49:58Z</time></trkpt><trkpt lat="45.89614368465143" lon="13.381895302210234"><ele>26.0</ele><time>2026-04-01T16:49:59Z</time></trkpt><trkpt lat="45.896030294869654" lon="13.381946760138577"><ele>26.0</ele><time>2026-04-01T16:50:00Z</time></trkpt><trkpt lat="45.89593349050969" lon="13.381986444107273"><ele>26.166666666666664</ele><time>2026-04-01T16:50:01Z</time></trkpt><trkpt lat="45.895862869277785" lon="13.382016853293116"><ele>26.333333333333332</ele><time>2026-04-01T16:50:02Z</time></trkpt><trkpt lat="45.89577824900731" lon="13.382018759749194"><ele>26.5</ele><time>2026-04-01T16:50:04Z</time></trkpt><trkpt lat="45.89578469787633" lon="13.381896519553468"><ele>26.666666666666664</ele><time>2026-04-01T16:50:07Z</time></trkpt><trkpt lat="45.89580114527074" lon="13.381759614489042"><ele>26.833333333333332</ele><time>2026-04-01T16:50:09Z</time></trkpt><trkpt lat="45.89583063519687" lon="13.381616384631458"><ele>27.0</ele><time>2026-04-01T16:50:11Z</time></trkpt><trkpt lat="45.89587230089963" lon="13.381484632977559"><ele>27.0</ele><time>2026-04-01T16:50:13Z</time></trkpt><trkpt lat="45.895884190681194" lon="13.38136846170095"><ele>27.0</ele><time>2026-04-01T16:50:15Z</time></trkpt><trkpt lat="45.895925425506455" lon="13.381272508059316"><ele>26.0</ele><time>2026-04-01T16:50:18Z</time></trkpt><trkpt lat="45.89601409051474" lon="13.381292637785227"><ele>26.0</ele><time>2026-04-01T16:50:19Z</time></trkpt><trkpt lat="45.89607773320025" lon="13.381272993745894"><ele>26.0</ele><time>2026-04-01T16:50:21Z</time></trkpt><trkpt lat="45.896157567669476" lon="13.381268356937253"><ele>26.0</ele><time>2026-04-01T16:50:24Z</time></trkpt></trkseg></trk></gpx>